<?xml version="1.0" encoding="UTF-8" standalone="no" ?>
<gpx xmlns="http://www.topografix.com/GPX/1/1" xmlns:xsi="http://www.w3.org/2001/XMLSchema-instance" xsi:schemaLocation="http://www.topografix.com/GPX/1/1 http://www.topografix.com/GPX/1/1/gpx.xsd" version="1.1" creator="VisuGPX - https://www.visugpx.com">
  <metadata>
    <name>Pointe d'Ireuse : par forêt de Crève-Coeur (22 janvier 2023)</name>
    <desc><![CDATA[[url]https://www.camptocamp.org/outings/1498307/fr/pointe-d-ireuse-par-creve-coeur[/url]]]></desc>
  </metadata>
  <trk>
    <name><![CDATA[Pointe d'Ireuse : par forêt de Crève-Coeur (22 janvier 2023)_1]]></name>
    <trkseg>
      <trkpt lat="46.26286" lon="6.54024">
        <ele>915.5</ele>
        <time>2023-01-21T09:13:45.000Z</time>
      </trkpt>
      <trkpt lat="46.26286" lon="6.54024">
        <ele>915.2</ele>
        <time>2023-01-21T09:13:46.000Z</time>
      </trkpt>
      <trkpt lat="46.26286" lon="6.54024">
        <ele>915.2</ele>
        <time>2023-01-21T09:13:47.000Z</time>
      </trkpt>
      <trkpt lat="46.26286" lon="6.54023">
        <ele>914.5</ele>
        <time>2023-01-21T09:13:48.000Z</time>
      </trkpt>
      <trkpt lat="46.26286" lon="6.54023">
        <ele>914.2</ele>
        <time>2023-01-21T09:13:49.000Z</time>
      </trkpt>
      <trkpt lat="46.26286" lon="6.54022">
        <ele>913.6</ele>
        <time>2023-01-21T09:13:50.000Z</time>
      </trkpt>
      <trkpt lat="46.26286" lon="6.54022">
        <ele>913.5</ele>
        <time>2023-01-21T09:13:51.000Z</time>
      </trkpt>
      <trkpt lat="46.26286" lon="6.54022">
        <ele>913.6</ele>
        <time>2023-01-21T09:13:52.000Z</time>
      </trkpt>
      <trkpt lat="46.26285" lon="6.54023">
        <ele>913.5</ele>
        <time>2023-01-21T09:13:53.000Z</time>
      </trkpt>
      <trkpt lat="46.26285" lon="6.54023">
        <ele>913.1</ele>
        <time>2023-01-21T09:13:54.000Z</time>
      </trkpt>
      <trkpt lat="46.26285" lon="6.54023">
        <ele>913.2</ele>
        <time>2023-01-21T09:13:55.000Z</time>
      </trkpt>
      <trkpt lat="46.26286" lon="6.54025">
        <ele>913</ele>
        <time>2023-01-21T09:13:56.000Z</time>
      </trkpt>
      <trkpt lat="46.26286" lon="6.54027">
        <ele>913.7</ele>
        <time>2023-01-21T09:13:57.000Z</time>
      </trkpt>
      <trkpt lat="46.26285" lon="6.54029">
        <ele>914.6</ele>
        <time>2023-01-21T09:13:58.000Z</time>
      </trkpt>
      <trkpt lat="46.26284" lon="6.54029">
        <ele>915.1</ele>
        <time>2023-01-21T09:13:59.000Z</time>
      </trkpt>
      <trkpt lat="46.26284" lon="6.5403">
        <ele>915.6</ele>
        <time>2023-01-21T09:14:00.000Z</time>
      </trkpt>
      <trkpt lat="46.26284" lon="6.54031">
        <ele>916.3</ele>
        <time>2023-01-21T09:14:01.000Z</time>
      </trkpt>
      <trkpt lat="46.26285" lon="6.5403">
        <ele>916.7</ele>
        <time>2023-01-21T09:14:02.000Z</time>
      </trkpt>
      <trkpt lat="46.26285" lon="6.54031">
        <ele>917.2</ele>
        <time>2023-01-21T09:14:03.000Z</time>
      </trkpt>
      <trkpt lat="46.26284" lon="6.54031">
        <ele>917.4</ele>
        <time>2023-01-21T09:14:04.000Z</time>
      </trkpt>
      <trkpt lat="46.26284" lon="6.54031">
        <ele>918.2</ele>
        <time>2023-01-21T09:14:05.000Z</time>
      </trkpt>
      <trkpt lat="46.26284" lon="6.5403">
        <ele>918.6</ele>
        <time>2023-01-21T09:14:06.000Z</time>
      </trkpt>
      <trkpt lat="46.26285" lon="6.54031">
        <ele>918.9</ele>
        <time>2023-01-21T09:14:07.000Z</time>
      </trkpt>
      <trkpt lat="46.26285" lon="6.54031">
        <ele>919.6</ele>
        <time>2023-01-21T09:14:08.000Z</time>
      </trkpt>
      <trkpt lat="46.26286" lon="6.54031">
        <ele>919.8</ele>
        <time>2023-01-21T09:14:09.000Z</time>
      </trkpt>
      <trkpt lat="46.26286" lon="6.5403">
        <ele>919.7</ele>
        <time>2023-01-21T09:14:10.000Z</time>
      </trkpt>
      <trkpt lat="46.26286" lon="6.5403">
        <ele>919.7</ele>
        <time>2023-01-21T09:14:11.000Z</time>
      </trkpt>
      <trkpt lat="46.26286" lon="6.5403">
        <ele>919.5</ele>
        <time>2023-01-21T09:14:12.000Z</time>
      </trkpt>
      <trkpt lat="46.26286" lon="6.5403">
        <ele>919.8</ele>
        <time>2023-01-21T09:14:13.000Z</time>
      </trkpt>
      <trkpt lat="46.26286" lon="6.5403">
        <ele>920</ele>
        <time>2023-01-21T09:14:14.000Z</time>
      </trkpt>
      <trkpt lat="46.26287" lon="6.5403">
        <ele>919.9</ele>
        <time>2023-01-21T09:14:15.000Z</time>
      </trkpt>
      <trkpt lat="46.26287" lon="6.54031">
        <ele>919.9</ele>
        <time>2023-01-21T09:14:16.000Z</time>
      </trkpt>
      <trkpt lat="46.26288" lon="6.54031">
        <ele>920</ele>
        <time>2023-01-21T09:14:17.000Z</time>
      </trkpt>
      <trkpt lat="46.26289" lon="6.54032">
        <ele>919.9</ele>
        <time>2023-01-21T09:14:18.000Z</time>
      </trkpt>
      <trkpt lat="46.26289" lon="6.54033">
        <ele>920.2</ele>
        <time>2023-01-21T09:14:19.000Z</time>
      </trkpt>
      <trkpt lat="46.2629" lon="6.54034">
        <ele>920.3</ele>
        <time>2023-01-21T09:14:20.000Z</time>
      </trkpt>
      <trkpt lat="46.26291" lon="6.54035">
        <ele>920.6</ele>
        <time>2023-01-21T09:14:21.000Z</time>
      </trkpt>
      <trkpt lat="46.26291" lon="6.54035">
        <ele>920.7</ele>
        <time>2023-01-21T09:14:22.000Z</time>
      </trkpt>
      <trkpt lat="46.26292" lon="6.54035">
        <ele>920.6</ele>
        <time>2023-01-21T09:14:23.000Z</time>
      </trkpt>
      <trkpt lat="46.26293" lon="6.54035">
        <ele>920.7</ele>
        <time>2023-01-21T09:14:24.000Z</time>
      </trkpt>
      <trkpt lat="46.26294" lon="6.54035">
        <ele>920.7</ele>
        <time>2023-01-21T09:14:25.000Z</time>
      </trkpt>
      <trkpt lat="46.26294" lon="6.54034">
        <ele>921</ele>
        <time>2023-01-21T09:14:26.000Z</time>
      </trkpt>
      <trkpt lat="46.26294" lon="6.54035">
        <ele>920.9</ele>
        <time>2023-01-21T09:14:27.000Z</time>
      </trkpt>
      <trkpt lat="46.26294" lon="6.54035">
        <ele>920.7</ele>
        <time>2023-01-21T09:14:28.000Z</time>
      </trkpt>
      <trkpt lat="46.26295" lon="6.54036">
        <ele>920.7</ele>
        <time>2023-01-21T09:14:29.000Z</time>
      </trkpt>
      <trkpt lat="46.26296" lon="6.54038">
        <ele>920.6</ele>
        <time>2023-01-21T09:14:30.000Z</time>
      </trkpt>
      <trkpt lat="46.26297" lon="6.54039">
        <ele>920.5</ele>
        <time>2023-01-21T09:14:31.000Z</time>
      </trkpt>
      <trkpt lat="46.26298" lon="6.54039">
        <ele>920.6</ele>
        <time>2023-01-21T09:14:32.000Z</time>
      </trkpt>
      <trkpt lat="46.26298" lon="6.5404">
        <ele>920.8</ele>
        <time>2023-01-21T09:14:33.000Z</time>
      </trkpt>
      <trkpt lat="46.26299" lon="6.5404">
        <ele>920.9</ele>
        <time>2023-01-21T09:14:34.000Z</time>
      </trkpt>
      <trkpt lat="46.263" lon="6.54041">
        <ele>920.9</ele>
        <time>2023-01-21T09:14:35.000Z</time>
      </trkpt>
      <trkpt lat="46.263" lon="6.54041">
        <ele>920.9</ele>
        <time>2023-01-21T09:14:36.000Z</time>
      </trkpt>
      <trkpt lat="46.26301" lon="6.54042">
        <ele>920.9</ele>
        <time>2023-01-21T09:14:37.000Z</time>
      </trkpt>
      <trkpt lat="46.26301" lon="6.54043">
        <ele>920.9</ele>
        <time>2023-01-21T09:14:38.000Z</time>
      </trkpt>
      <trkpt lat="46.26301" lon="6.54044">
        <ele>920.9</ele>
        <time>2023-01-21T09:14:39.000Z</time>
      </trkpt>
      <trkpt lat="46.26302" lon="6.54045">
        <ele>921.2</ele>
        <time>2023-01-21T09:14:40.000Z</time>
      </trkpt>
      <trkpt lat="46.26301" lon="6.54045">
        <ele>920.8</ele>
        <time>2023-01-21T09:14:41.000Z</time>
      </trkpt>
      <trkpt lat="46.26302" lon="6.54047">
        <ele>921.1</ele>
        <time>2023-01-21T09:14:42.000Z</time>
      </trkpt>
      <trkpt lat="46.26302" lon="6.54048">
        <ele>921.2</ele>
        <time>2023-01-21T09:14:43.000Z</time>
      </trkpt>
      <trkpt lat="46.26303" lon="6.54049">
        <ele>921.3</ele>
        <time>2023-01-21T09:14:44.000Z</time>
      </trkpt>
      <trkpt lat="46.26304" lon="6.54049">
        <ele>921.2</ele>
        <time>2023-01-21T09:14:45.000Z</time>
      </trkpt>
      <trkpt lat="46.26304" lon="6.5405">
        <ele>920.8</ele>
        <time>2023-01-21T09:14:46.000Z</time>
      </trkpt>
      <trkpt lat="46.26305" lon="6.54051">
        <ele>920.4</ele>
        <time>2023-01-21T09:14:47.000Z</time>
      </trkpt>
      <trkpt lat="46.26306" lon="6.54051">
        <ele>920.3</ele>
        <time>2023-01-21T09:14:48.000Z</time>
      </trkpt>
      <trkpt lat="46.26306" lon="6.54052">
        <ele>920.4</ele>
        <time>2023-01-21T09:14:49.000Z</time>
      </trkpt>
      <trkpt lat="46.26306" lon="6.54053">
        <ele>920.4</ele>
        <time>2023-01-21T09:14:50.000Z</time>
      </trkpt>
      <trkpt lat="46.26306" lon="6.54054">
        <ele>920.3</ele>
        <time>2023-01-21T09:14:51.000Z</time>
      </trkpt>
      <trkpt lat="46.26306" lon="6.54055">
        <ele>920.5</ele>
        <time>2023-01-21T09:14:52.000Z</time>
      </trkpt>
      <trkpt lat="46.26306" lon="6.54056">
        <ele>920.7</ele>
        <time>2023-01-21T09:14:53.000Z</time>
      </trkpt>
      <trkpt lat="46.26306" lon="6.54057">
        <ele>920.9</ele>
        <time>2023-01-21T09:14:54.000Z</time>
      </trkpt>
      <trkpt lat="46.26307" lon="6.54058">
        <ele>921.1</ele>
        <time>2023-01-21T09:14:55.000Z</time>
      </trkpt>
      <trkpt lat="46.26308" lon="6.54059">
        <ele>921.5</ele>
        <time>2023-01-21T09:14:56.000Z</time>
      </trkpt>
      <trkpt lat="46.26309" lon="6.54059">
        <ele>921.6</ele>
        <time>2023-01-21T09:14:57.000Z</time>
      </trkpt>
      <trkpt lat="46.26309" lon="6.5406">
        <ele>922.1</ele>
        <time>2023-01-21T09:14:58.000Z</time>
      </trkpt>
      <trkpt lat="46.2631" lon="6.5406">
        <ele>922.3</ele>
        <time>2023-01-21T09:14:59.000Z</time>
      </trkpt>
      <trkpt lat="46.2631" lon="6.54061">
        <ele>922.4</ele>
        <time>2023-01-21T09:15:00.000Z</time>
      </trkpt>
      <trkpt lat="46.26311" lon="6.54062">
        <ele>922.4</ele>
        <time>2023-01-21T09:15:01.000Z</time>
      </trkpt>
      <trkpt lat="46.26311" lon="6.54063">
        <ele>922.3</ele>
        <time>2023-01-21T09:15:02.000Z</time>
      </trkpt>
      <trkpt lat="46.2631" lon="6.54064">
        <ele>922.3</ele>
        <time>2023-01-21T09:15:03.000Z</time>
      </trkpt>
      <trkpt lat="46.26311" lon="6.54065">
        <ele>922</ele>
        <time>2023-01-21T09:15:04.000Z</time>
      </trkpt>
      <trkpt lat="46.26312" lon="6.54065">
        <ele>921.5</ele>
        <time>2023-01-21T09:15:05.000Z</time>
      </trkpt>
      <trkpt lat="46.26313" lon="6.54066">
        <ele>921</ele>
        <time>2023-01-21T09:15:06.000Z</time>
      </trkpt>
      <trkpt lat="46.26313" lon="6.54067">
        <ele>920.6</ele>
        <time>2023-01-21T09:15:07.000Z</time>
      </trkpt>
      <trkpt lat="46.26314" lon="6.54068">
        <ele>920.2</ele>
        <time>2023-01-21T09:15:08.000Z</time>
      </trkpt>
      <trkpt lat="46.26314" lon="6.54069">
        <ele>919.9</ele>
        <time>2023-01-21T09:15:09.000Z</time>
      </trkpt>
      <trkpt lat="46.26314" lon="6.5407">
        <ele>919.5</ele>
        <time>2023-01-21T09:15:10.000Z</time>
      </trkpt>
      <trkpt lat="46.26314" lon="6.54071">
        <ele>919.1</ele>
        <time>2023-01-21T09:15:11.000Z</time>
      </trkpt>
      <trkpt lat="46.26314" lon="6.54072">
        <ele>918.6</ele>
        <time>2023-01-21T09:15:12.000Z</time>
      </trkpt>
      <trkpt lat="46.26314" lon="6.54073">
        <ele>918.6</ele>
        <time>2023-01-21T09:15:13.000Z</time>
      </trkpt>
      <trkpt lat="46.26315" lon="6.54074">
        <ele>918.4</ele>
        <time>2023-01-21T09:15:14.000Z</time>
      </trkpt>
      <trkpt lat="46.26316" lon="6.54074">
        <ele>918.8</ele>
        <time>2023-01-21T09:15:15.000Z</time>
      </trkpt>
      <trkpt lat="46.26317" lon="6.54075">
        <ele>919.2</ele>
        <time>2023-01-21T09:15:16.000Z</time>
      </trkpt>
      <trkpt lat="46.26318" lon="6.54076">
        <ele>920.1</ele>
        <time>2023-01-21T09:15:17.000Z</time>
      </trkpt>
      <trkpt lat="46.26319" lon="6.54077">
        <ele>920.3</ele>
        <time>2023-01-21T09:15:18.000Z</time>
      </trkpt>
      <trkpt lat="46.2632" lon="6.54078">
        <ele>920.3</ele>
        <time>2023-01-21T09:15:19.000Z</time>
      </trkpt>
      <trkpt lat="46.2632" lon="6.54079">
        <ele>920.2</ele>
        <time>2023-01-21T09:15:20.000Z</time>
      </trkpt>
      <trkpt lat="46.26321" lon="6.54079">
        <ele>920.3</ele>
        <time>2023-01-21T09:15:21.000Z</time>
      </trkpt>
      <trkpt lat="46.26322" lon="6.5408">
        <ele>920.5</ele>
        <time>2023-01-21T09:15:22.000Z</time>
      </trkpt>
      <trkpt lat="46.26324" lon="6.54081">
        <ele>920.5</ele>
        <time>2023-01-21T09:15:23.000Z</time>
      </trkpt>
      <trkpt lat="46.26325" lon="6.54081">
        <ele>920.7</ele>
        <time>2023-01-21T09:15:24.000Z</time>
      </trkpt>
      <trkpt lat="46.26327" lon="6.54083">
        <ele>920.7</ele>
        <time>2023-01-21T09:15:25.000Z</time>
      </trkpt>
      <trkpt lat="46.26328" lon="6.54084">
        <ele>920.7</ele>
        <time>2023-01-21T09:15:26.000Z</time>
      </trkpt>
      <trkpt lat="46.2633" lon="6.54085">
        <ele>920.9</ele>
        <time>2023-01-21T09:15:27.000Z</time>
      </trkpt>
      <trkpt lat="46.26331" lon="6.54087">
        <ele>921.2</ele>
        <time>2023-01-21T09:15:28.000Z</time>
      </trkpt>
      <trkpt lat="46.26331" lon="6.54087">
        <ele>921.6</ele>
        <time>2023-01-21T09:15:29.000Z</time>
      </trkpt>
      <trkpt lat="46.26333" lon="6.54088">
        <ele>922.3</ele>
        <time>2023-01-21T09:15:30.000Z</time>
      </trkpt>
      <trkpt lat="46.26334" lon="6.5409">
        <ele>922.6</ele>
        <time>2023-01-21T09:15:31.000Z</time>
      </trkpt>
      <trkpt lat="46.26334" lon="6.54091">
        <ele>923.1</ele>
        <time>2023-01-21T09:15:32.000Z</time>
      </trkpt>
      <trkpt lat="46.26335" lon="6.54091">
        <ele>923.4</ele>
        <time>2023-01-21T09:15:33.000Z</time>
      </trkpt>
      <trkpt lat="46.26335" lon="6.54092">
        <ele>923.9</ele>
        <time>2023-01-21T09:15:34.000Z</time>
      </trkpt>
      <trkpt lat="46.26337" lon="6.54093">
        <ele>923.9</ele>
        <time>2023-01-21T09:15:35.000Z</time>
      </trkpt>
      <trkpt lat="46.26337" lon="6.54095">
        <ele>923.8</ele>
        <time>2023-01-21T09:15:36.000Z</time>
      </trkpt>
      <trkpt lat="46.26337" lon="6.54096">
        <ele>924</ele>
        <time>2023-01-21T09:15:37.000Z</time>
      </trkpt>
      <trkpt lat="46.26337" lon="6.54096">
        <ele>924.1</ele>
        <time>2023-01-21T09:15:38.000Z</time>
      </trkpt>
      <trkpt lat="46.26338" lon="6.54096">
        <ele>923.9</ele>
        <time>2023-01-21T09:15:39.000Z</time>
      </trkpt>
      <trkpt lat="46.26338" lon="6.54097">
        <ele>923.6</ele>
        <time>2023-01-21T09:15:40.000Z</time>
      </trkpt>
      <trkpt lat="46.26338" lon="6.54097">
        <ele>923.5</ele>
        <time>2023-01-21T09:15:41.000Z</time>
      </trkpt>
      <trkpt lat="46.26337" lon="6.54098">
        <ele>923.7</ele>
        <time>2023-01-21T09:15:42.000Z</time>
      </trkpt>
      <trkpt lat="46.26336" lon="6.54099">
        <ele>923.8</ele>
        <time>2023-01-21T09:15:43.000Z</time>
      </trkpt>
      <trkpt lat="46.26336" lon="6.54101">
        <ele>923.5</ele>
        <time>2023-01-21T09:15:44.000Z</time>
      </trkpt>
      <trkpt lat="46.26336" lon="6.54102">
        <ele>923.6</ele>
        <time>2023-01-21T09:15:45.000Z</time>
      </trkpt>
      <trkpt lat="46.26337" lon="6.54103">
        <ele>923.6</ele>
        <time>2023-01-21T09:15:46.000Z</time>
      </trkpt>
      <trkpt lat="46.26336" lon="6.54104">
        <ele>923.5</ele>
        <time>2023-01-21T09:15:47.000Z</time>
      </trkpt>
      <trkpt lat="46.26337" lon="6.54105">
        <ele>923.6</ele>
        <time>2023-01-21T09:15:48.000Z</time>
      </trkpt>
      <trkpt lat="46.26337" lon="6.54106">
        <ele>923.7</ele>
        <time>2023-01-21T09:15:49.000Z</time>
      </trkpt>
      <trkpt lat="46.26338" lon="6.54107">
        <ele>923.8</ele>
        <time>2023-01-21T09:15:50.000Z</time>
      </trkpt>
      <trkpt lat="46.26339" lon="6.54108">
        <ele>923.9</ele>
        <time>2023-01-21T09:15:51.000Z</time>
      </trkpt>
      <trkpt lat="46.26339" lon="6.54109">
        <ele>923.7</ele>
        <time>2023-01-21T09:15:52.000Z</time>
      </trkpt>
      <trkpt lat="46.26339" lon="6.54109">
        <ele>923.8</ele>
        <time>2023-01-21T09:15:53.000Z</time>
      </trkpt>
      <trkpt lat="46.2634" lon="6.5411">
        <ele>923.8</ele>
        <time>2023-01-21T09:15:54.000Z</time>
      </trkpt>
      <trkpt lat="46.2634" lon="6.54111">
        <ele>924.2</ele>
        <time>2023-01-21T09:15:55.000Z</time>
      </trkpt>
      <trkpt lat="46.26339" lon="6.54112">
        <ele>924.3</ele>
        <time>2023-01-21T09:15:56.000Z</time>
      </trkpt>
      <trkpt lat="46.2634" lon="6.54112">
        <ele>924</ele>
        <time>2023-01-21T09:15:57.000Z</time>
      </trkpt>
      <trkpt lat="46.2634" lon="6.54112">
        <ele>923.8</ele>
        <time>2023-01-21T09:15:58.000Z</time>
      </trkpt>
      <trkpt lat="46.26341" lon="6.54113">
        <ele>923.7</ele>
        <time>2023-01-21T09:15:59.000Z</time>
      </trkpt>
      <trkpt lat="46.26341" lon="6.54113">
        <ele>923.4</ele>
        <time>2023-01-21T09:16:00.000Z</time>
      </trkpt>
      <trkpt lat="46.26342" lon="6.54113">
        <ele>923.5</ele>
        <time>2023-01-21T09:16:01.000Z</time>
      </trkpt>
      <trkpt lat="46.26343" lon="6.54114">
        <ele>923</ele>
        <time>2023-01-21T09:16:02.000Z</time>
      </trkpt>
      <trkpt lat="46.26345" lon="6.54113">
        <ele>922.8</ele>
        <time>2023-01-21T09:16:03.000Z</time>
      </trkpt>
      <trkpt lat="46.26345" lon="6.54114">
        <ele>922.9</ele>
        <time>2023-01-21T09:16:04.000Z</time>
      </trkpt>
      <trkpt lat="46.26346" lon="6.54115">
        <ele>922.6</ele>
        <time>2023-01-21T09:16:05.000Z</time>
      </trkpt>
      <trkpt lat="46.26347" lon="6.54116">
        <ele>922.6</ele>
        <time>2023-01-21T09:16:06.000Z</time>
      </trkpt>
      <trkpt lat="46.26347" lon="6.54117">
        <ele>922.5</ele>
        <time>2023-01-21T09:16:07.000Z</time>
      </trkpt>
      <trkpt lat="46.26348" lon="6.54118">
        <ele>922.1</ele>
        <time>2023-01-21T09:16:08.000Z</time>
      </trkpt>
      <trkpt lat="46.26348" lon="6.54118">
        <ele>921.9</ele>
        <time>2023-01-21T09:16:09.000Z</time>
      </trkpt>
      <trkpt lat="46.26348" lon="6.54119">
        <ele>921.7</ele>
        <time>2023-01-21T09:16:10.000Z</time>
      </trkpt>
      <trkpt lat="46.26348" lon="6.54119">
        <ele>921.6</ele>
        <time>2023-01-21T09:16:11.000Z</time>
      </trkpt>
      <trkpt lat="46.26349" lon="6.54119">
        <ele>921.2</ele>
        <time>2023-01-21T09:16:12.000Z</time>
      </trkpt>
      <trkpt lat="46.2635" lon="6.54119">
        <ele>921.3</ele>
        <time>2023-01-21T09:16:13.000Z</time>
      </trkpt>
      <trkpt lat="46.2635" lon="6.5412">
        <ele>921.2</ele>
        <time>2023-01-21T09:16:14.000Z</time>
      </trkpt>
      <trkpt lat="46.2635" lon="6.5412">
        <ele>921.1</ele>
        <time>2023-01-21T09:16:15.000Z</time>
      </trkpt>
      <trkpt lat="46.2635" lon="6.5412">
        <ele>921</ele>
        <time>2023-01-21T09:16:16.000Z</time>
      </trkpt>
      <trkpt lat="46.2635" lon="6.54121">
        <ele>920.7</ele>
        <time>2023-01-21T09:16:17.000Z</time>
      </trkpt>
      <trkpt lat="46.26351" lon="6.54122">
        <ele>920.6</ele>
        <time>2023-01-21T09:16:18.000Z</time>
      </trkpt>
      <trkpt lat="46.26351" lon="6.54123">
        <ele>920.5</ele>
        <time>2023-01-21T09:16:19.000Z</time>
      </trkpt>
      <trkpt lat="46.26351" lon="6.54125">
        <ele>920.4</ele>
        <time>2023-01-21T09:16:20.000Z</time>
      </trkpt>
      <trkpt lat="46.26352" lon="6.54125">
        <ele>920</ele>
        <time>2023-01-21T09:16:21.000Z</time>
      </trkpt>
      <trkpt lat="46.26352" lon="6.54125">
        <ele>919.5</ele>
        <time>2023-01-21T09:16:22.000Z</time>
      </trkpt>
      <trkpt lat="46.26353" lon="6.54126">
        <ele>919</ele>
        <time>2023-01-21T09:16:23.000Z</time>
      </trkpt>
      <trkpt lat="46.26354" lon="6.54126">
        <ele>918.6</ele>
        <time>2023-01-21T09:16:24.000Z</time>
      </trkpt>
      <trkpt lat="46.26354" lon="6.54127">
        <ele>918.4</ele>
        <time>2023-01-21T09:16:25.000Z</time>
      </trkpt>
      <trkpt lat="46.26355" lon="6.54127">
        <ele>918.4</ele>
        <time>2023-01-21T09:16:26.000Z</time>
      </trkpt>
      <trkpt lat="46.26355" lon="6.54128">
        <ele>918.5</ele>
        <time>2023-01-21T09:16:27.000Z</time>
      </trkpt>
      <trkpt lat="46.26356" lon="6.54129">
        <ele>918.4</ele>
        <time>2023-01-21T09:16:28.000Z</time>
      </trkpt>
      <trkpt lat="46.26357" lon="6.5413">
        <ele>918.4</ele>
        <time>2023-01-21T09:16:29.000Z</time>
      </trkpt>
      <trkpt lat="46.26357" lon="6.5413">
        <ele>918.4</ele>
        <time>2023-01-21T09:16:30.000Z</time>
      </trkpt>
      <trkpt lat="46.26357" lon="6.54131">
        <ele>918.4</ele>
        <time>2023-01-21T09:16:31.000Z</time>
      </trkpt>
      <trkpt lat="46.26357" lon="6.54132">
        <ele>918.4</ele>
        <time>2023-01-21T09:16:32.000Z</time>
      </trkpt>
      <trkpt lat="46.26357" lon="6.54133">
        <ele>918.4</ele>
        <time>2023-01-21T09:16:33.000Z</time>
      </trkpt>
      <trkpt lat="46.26357" lon="6.54135">
        <ele>918.5</ele>
        <time>2023-01-21T09:16:34.000Z</time>
      </trkpt>
      <trkpt lat="46.26358" lon="6.54135">
        <ele>918.3</ele>
        <time>2023-01-21T09:16:35.000Z</time>
      </trkpt>
      <trkpt lat="46.26358" lon="6.54136">
        <ele>918.1</ele>
        <time>2023-01-21T09:16:36.000Z</time>
      </trkpt>
      <trkpt lat="46.26358" lon="6.54136">
        <ele>918.1</ele>
        <time>2023-01-21T09:16:37.000Z</time>
      </trkpt>
      <trkpt lat="46.26359" lon="6.54137">
        <ele>918.3</ele>
        <time>2023-01-21T09:16:38.000Z</time>
      </trkpt>
      <trkpt lat="46.26359" lon="6.54137">
        <ele>918.3</ele>
        <time>2023-01-21T09:16:39.000Z</time>
      </trkpt>
      <trkpt lat="46.2636" lon="6.54138">
        <ele>918.5</ele>
        <time>2023-01-21T09:16:40.000Z</time>
      </trkpt>
      <trkpt lat="46.26361" lon="6.54138">
        <ele>918.7</ele>
        <time>2023-01-21T09:16:41.000Z</time>
      </trkpt>
      <trkpt lat="46.2636" lon="6.54139">
        <ele>919.2</ele>
        <time>2023-01-21T09:16:42.000Z</time>
      </trkpt>
      <trkpt lat="46.26361" lon="6.54139">
        <ele>919.2</ele>
        <time>2023-01-21T09:16:43.000Z</time>
      </trkpt>
      <trkpt lat="46.26361" lon="6.5414">
        <ele>919.2</ele>
        <time>2023-01-21T09:16:44.000Z</time>
      </trkpt>
      <trkpt lat="46.2636" lon="6.5414">
        <ele>919.4</ele>
        <time>2023-01-21T09:16:45.000Z</time>
      </trkpt>
      <trkpt lat="46.26361" lon="6.5414">
        <ele>919.6</ele>
        <time>2023-01-21T09:16:46.000Z</time>
      </trkpt>
      <trkpt lat="46.26361" lon="6.54141">
        <ele>919.8</ele>
        <time>2023-01-21T09:16:47.000Z</time>
      </trkpt>
      <trkpt lat="46.26361" lon="6.54142">
        <ele>920.1</ele>
        <time>2023-01-21T09:16:48.000Z</time>
      </trkpt>
      <trkpt lat="46.26362" lon="6.54142">
        <ele>920</ele>
        <time>2023-01-21T09:16:49.000Z</time>
      </trkpt>
      <trkpt lat="46.26363" lon="6.54143">
        <ele>920.2</ele>
        <time>2023-01-21T09:16:50.000Z</time>
      </trkpt>
      <trkpt lat="46.26363" lon="6.54143">
        <ele>920.4</ele>
        <time>2023-01-21T09:16:51.000Z</time>
      </trkpt>
      <trkpt lat="46.26363" lon="6.54144">
        <ele>920.6</ele>
        <time>2023-01-21T09:16:52.000Z</time>
      </trkpt>
      <trkpt lat="46.26363" lon="6.54144">
        <ele>920.5</ele>
        <time>2023-01-21T09:16:53.000Z</time>
      </trkpt>
      <trkpt lat="46.26364" lon="6.54146">
        <ele>920.7</ele>
        <time>2023-01-21T09:16:54.000Z</time>
      </trkpt>
      <trkpt lat="46.26365" lon="6.54147">
        <ele>920.5</ele>
        <time>2023-01-21T09:16:55.000Z</time>
      </trkpt>
      <trkpt lat="46.26366" lon="6.54146">
        <ele>920.4</ele>
        <time>2023-01-21T09:16:56.000Z</time>
      </trkpt>
      <trkpt lat="46.26366" lon="6.54147">
        <ele>920.4</ele>
        <time>2023-01-21T09:16:57.000Z</time>
      </trkpt>
      <trkpt lat="46.26366" lon="6.54147">
        <ele>919.9</ele>
        <time>2023-01-21T09:16:58.000Z</time>
      </trkpt>
      <trkpt lat="46.26367" lon="6.54147">
        <ele>919.7</ele>
        <time>2023-01-21T09:16:59.000Z</time>
      </trkpt>
      <trkpt lat="46.26368" lon="6.54148">
        <ele>919.4</ele>
        <time>2023-01-21T09:17:00.000Z</time>
      </trkpt>
      <trkpt lat="46.26368" lon="6.54149">
        <ele>919.4</ele>
        <time>2023-01-21T09:17:01.000Z</time>
      </trkpt>
      <trkpt lat="46.26369" lon="6.5415">
        <ele>919</ele>
        <time>2023-01-21T09:17:02.000Z</time>
      </trkpt>
      <trkpt lat="46.2637" lon="6.5415">
        <ele>918.9</ele>
        <time>2023-01-21T09:17:03.000Z</time>
      </trkpt>
      <trkpt lat="46.26371" lon="6.54151">
        <ele>918.8</ele>
        <time>2023-01-21T09:17:04.000Z</time>
      </trkpt>
      <trkpt lat="46.26372" lon="6.54151">
        <ele>918.7</ele>
        <time>2023-01-21T09:17:05.000Z</time>
      </trkpt>
      <trkpt lat="46.26372" lon="6.54151">
        <ele>918.7</ele>
        <time>2023-01-21T09:17:06.000Z</time>
      </trkpt>
      <trkpt lat="46.26373" lon="6.54152">
        <ele>918.5</ele>
        <time>2023-01-21T09:17:07.000Z</time>
      </trkpt>
      <trkpt lat="46.26374" lon="6.54152">
        <ele>918.5</ele>
        <time>2023-01-21T09:17:08.000Z</time>
      </trkpt>
      <trkpt lat="46.26375" lon="6.54153">
        <ele>918.6</ele>
        <time>2023-01-21T09:17:09.000Z</time>
      </trkpt>
      <trkpt lat="46.26376" lon="6.54153">
        <ele>918.8</ele>
        <time>2023-01-21T09:17:10.000Z</time>
      </trkpt>
      <trkpt lat="46.26376" lon="6.54154">
        <ele>918.8</ele>
        <time>2023-01-21T09:17:11.000Z</time>
      </trkpt>
      <trkpt lat="46.26377" lon="6.54155">
        <ele>919.1</ele>
        <time>2023-01-21T09:17:12.000Z</time>
      </trkpt>
      <trkpt lat="46.26377" lon="6.54155">
        <ele>919.1</ele>
        <time>2023-01-21T09:17:13.000Z</time>
      </trkpt>
      <trkpt lat="46.26378" lon="6.54155">
        <ele>919.5</ele>
        <time>2023-01-21T09:17:14.000Z</time>
      </trkpt>
      <trkpt lat="46.26378" lon="6.54156">
        <ele>919.6</ele>
        <time>2023-01-21T09:17:15.000Z</time>
      </trkpt>
      <trkpt lat="46.26379" lon="6.54156">
        <ele>919.9</ele>
        <time>2023-01-21T09:17:16.000Z</time>
      </trkpt>
      <trkpt lat="46.26379" lon="6.54157">
        <ele>920</ele>
        <time>2023-01-21T09:17:17.000Z</time>
      </trkpt>
      <trkpt lat="46.26379" lon="6.54158">
        <ele>920.3</ele>
        <time>2023-01-21T09:17:18.000Z</time>
      </trkpt>
      <trkpt lat="46.26379" lon="6.54158">
        <ele>920.2</ele>
        <time>2023-01-21T09:17:19.000Z</time>
      </trkpt>
      <trkpt lat="46.26379" lon="6.54159">
        <ele>920.4</ele>
        <time>2023-01-21T09:17:20.000Z</time>
      </trkpt>
      <trkpt lat="46.2638" lon="6.5416">
        <ele>920.3</ele>
        <time>2023-01-21T09:17:21.000Z</time>
      </trkpt>
      <trkpt lat="46.26381" lon="6.5416">
        <ele>920.3</ele>
        <time>2023-01-21T09:17:22.000Z</time>
      </trkpt>
      <trkpt lat="46.26381" lon="6.5416">
        <ele>920.5</ele>
        <time>2023-01-21T09:17:23.000Z</time>
      </trkpt>
      <trkpt lat="46.26381" lon="6.54161">
        <ele>920.6</ele>
        <time>2023-01-21T09:17:24.000Z</time>
      </trkpt>
      <trkpt lat="46.26382" lon="6.54161">
        <ele>920.5</ele>
        <time>2023-01-21T09:17:25.000Z</time>
      </trkpt>
      <trkpt lat="46.26383" lon="6.54161">
        <ele>920.2</ele>
        <time>2023-01-21T09:17:26.000Z</time>
      </trkpt>
      <trkpt lat="46.26383" lon="6.5416">
        <ele>919.9</ele>
        <time>2023-01-21T09:17:27.000Z</time>
      </trkpt>
      <trkpt lat="46.26383" lon="6.54161">
        <ele>919.9</ele>
        <time>2023-01-21T09:17:28.000Z</time>
      </trkpt>
      <trkpt lat="46.26384" lon="6.54161">
        <ele>920</ele>
        <time>2023-01-21T09:17:29.000Z</time>
      </trkpt>
      <trkpt lat="46.26385" lon="6.54161">
        <ele>920.1</ele>
        <time>2023-01-21T09:17:30.000Z</time>
      </trkpt>
      <trkpt lat="46.26385" lon="6.54161">
        <ele>919.8</ele>
        <time>2023-01-21T09:17:31.000Z</time>
      </trkpt>
      <trkpt lat="46.26386" lon="6.54161">
        <ele>919.6</ele>
        <time>2023-01-21T09:17:32.000Z</time>
      </trkpt>
      <trkpt lat="46.26387" lon="6.54161">
        <ele>919.7</ele>
        <time>2023-01-21T09:17:33.000Z</time>
      </trkpt>
      <trkpt lat="46.26388" lon="6.54162">
        <ele>919.8</ele>
        <time>2023-01-21T09:17:34.000Z</time>
      </trkpt>
      <trkpt lat="46.26388" lon="6.54162">
        <ele>919.7</ele>
        <time>2023-01-21T09:17:35.000Z</time>
      </trkpt>
      <trkpt lat="46.26389" lon="6.54163">
        <ele>919.9</ele>
        <time>2023-01-21T09:17:36.000Z</time>
      </trkpt>
      <trkpt lat="46.2639" lon="6.54164">
        <ele>919.8</ele>
        <time>2023-01-21T09:17:37.000Z</time>
      </trkpt>
      <trkpt lat="46.2639" lon="6.54165">
        <ele>919.8</ele>
        <time>2023-01-21T09:17:38.000Z</time>
      </trkpt>
      <trkpt lat="46.2639" lon="6.54167">
        <ele>919.8</ele>
        <time>2023-01-21T09:17:39.000Z</time>
      </trkpt>
      <trkpt lat="46.2639" lon="6.54168">
        <ele>919.5</ele>
        <time>2023-01-21T09:17:40.000Z</time>
      </trkpt>
      <trkpt lat="46.2639" lon="6.54168">
        <ele>919.4</ele>
        <time>2023-01-21T09:17:41.000Z</time>
      </trkpt>
      <trkpt lat="46.26391" lon="6.54169">
        <ele>919.4</ele>
        <time>2023-01-21T09:17:42.000Z</time>
      </trkpt>
      <trkpt lat="46.26392" lon="6.5417">
        <ele>919.2</ele>
        <time>2023-01-21T09:17:43.000Z</time>
      </trkpt>
      <trkpt lat="46.26393" lon="6.54171">
        <ele>919.1</ele>
        <time>2023-01-21T09:17:44.000Z</time>
      </trkpt>
      <trkpt lat="46.26393" lon="6.54172">
        <ele>918.9</ele>
        <time>2023-01-21T09:17:45.000Z</time>
      </trkpt>
      <trkpt lat="46.26394" lon="6.54172">
        <ele>918.9</ele>
        <time>2023-01-21T09:17:46.000Z</time>
      </trkpt>
      <trkpt lat="46.26394" lon="6.54172">
        <ele>918.9</ele>
        <time>2023-01-21T09:17:47.000Z</time>
      </trkpt>
      <trkpt lat="46.26394" lon="6.54173">
        <ele>918.9</ele>
        <time>2023-01-21T09:17:48.000Z</time>
      </trkpt>
      <trkpt lat="46.26395" lon="6.54173">
        <ele>919</ele>
        <time>2023-01-21T09:17:49.000Z</time>
      </trkpt>
      <trkpt lat="46.26396" lon="6.54173">
        <ele>919.2</ele>
        <time>2023-01-21T09:17:50.000Z</time>
      </trkpt>
      <trkpt lat="46.26396" lon="6.54174">
        <ele>919.4</ele>
        <time>2023-01-21T09:17:51.000Z</time>
      </trkpt>
      <trkpt lat="46.26397" lon="6.54174">
        <ele>919.5</ele>
        <time>2023-01-21T09:17:52.000Z</time>
      </trkpt>
      <trkpt lat="46.26397" lon="6.54175">
        <ele>919.8</ele>
        <time>2023-01-21T09:17:53.000Z</time>
      </trkpt>
      <trkpt lat="46.26398" lon="6.54176">
        <ele>920</ele>
        <time>2023-01-21T09:17:54.000Z</time>
      </trkpt>
      <trkpt lat="46.26399" lon="6.54176">
        <ele>920</ele>
        <time>2023-01-21T09:17:55.000Z</time>
      </trkpt>
      <trkpt lat="46.264" lon="6.54176">
        <ele>920.1</ele>
        <time>2023-01-21T09:17:56.000Z</time>
      </trkpt>
      <trkpt lat="46.26401" lon="6.54177">
        <ele>919.9</ele>
        <time>2023-01-21T09:17:57.000Z</time>
      </trkpt>
      <trkpt lat="46.26401" lon="6.54177">
        <ele>919.9</ele>
        <time>2023-01-21T09:17:58.000Z</time>
      </trkpt>
      <trkpt lat="46.26402" lon="6.54177">
        <ele>919.7</ele>
        <time>2023-01-21T09:17:59.000Z</time>
      </trkpt>
      <trkpt lat="46.26403" lon="6.54177">
        <ele>919.5</ele>
        <time>2023-01-21T09:18:00.000Z</time>
      </trkpt>
      <trkpt lat="46.26403" lon="6.54179">
        <ele>919.3</ele>
        <time>2023-01-21T09:18:01.000Z</time>
      </trkpt>
      <trkpt lat="46.26403" lon="6.54179">
        <ele>919.2</ele>
        <time>2023-01-21T09:18:02.000Z</time>
      </trkpt>
      <trkpt lat="46.26403" lon="6.5418">
        <ele>919.3</ele>
        <time>2023-01-21T09:18:03.000Z</time>
      </trkpt>
      <trkpt lat="46.26404" lon="6.5418">
        <ele>919.4</ele>
        <time>2023-01-21T09:18:04.000Z</time>
      </trkpt>
      <trkpt lat="46.26404" lon="6.5418">
        <ele>919.5</ele>
        <time>2023-01-21T09:18:05.000Z</time>
      </trkpt>
      <trkpt lat="46.26405" lon="6.5418">
        <ele>919.7</ele>
        <time>2023-01-21T09:18:06.000Z</time>
      </trkpt>
      <trkpt lat="46.26405" lon="6.54181">
        <ele>919.6</ele>
        <time>2023-01-21T09:18:07.000Z</time>
      </trkpt>
      <trkpt lat="46.26405" lon="6.54182">
        <ele>919.5</ele>
        <time>2023-01-21T09:18:08.000Z</time>
      </trkpt>
      <trkpt lat="46.26407" lon="6.54182">
        <ele>919.6</ele>
        <time>2023-01-21T09:18:09.000Z</time>
      </trkpt>
      <trkpt lat="46.26408" lon="6.54183">
        <ele>919.4</ele>
        <time>2023-01-21T09:18:10.000Z</time>
      </trkpt>
      <trkpt lat="46.26408" lon="6.54183">
        <ele>919.6</ele>
        <time>2023-01-21T09:18:11.000Z</time>
      </trkpt>
      <trkpt lat="46.26409" lon="6.54183">
        <ele>919.7</ele>
        <time>2023-01-21T09:18:12.000Z</time>
      </trkpt>
      <trkpt lat="46.2641" lon="6.54184">
        <ele>919.8</ele>
        <time>2023-01-21T09:18:13.000Z</time>
      </trkpt>
      <trkpt lat="46.2641" lon="6.54184">
        <ele>920</ele>
        <time>2023-01-21T09:18:14.000Z</time>
      </trkpt>
      <trkpt lat="46.2641" lon="6.54184">
        <ele>920</ele>
        <time>2023-01-21T09:18:15.000Z</time>
      </trkpt>
      <trkpt lat="46.26412" lon="6.54185">
        <ele>920.2</ele>
        <time>2023-01-21T09:18:16.000Z</time>
      </trkpt>
      <trkpt lat="46.26412" lon="6.54184">
        <ele>920.2</ele>
        <time>2023-01-21T09:18:17.000Z</time>
      </trkpt>
      <trkpt lat="46.26413" lon="6.54184">
        <ele>920.2</ele>
        <time>2023-01-21T09:18:18.000Z</time>
      </trkpt>
      <trkpt lat="46.26414" lon="6.54185">
        <ele>920.3</ele>
        <time>2023-01-21T09:18:19.000Z</time>
      </trkpt>
      <trkpt lat="46.26415" lon="6.54184">
        <ele>920.4</ele>
        <time>2023-01-21T09:18:20.000Z</time>
      </trkpt>
      <trkpt lat="46.26416" lon="6.54184">
        <ele>920.2</ele>
        <time>2023-01-21T09:18:21.000Z</time>
      </trkpt>
      <trkpt lat="46.26417" lon="6.54184">
        <ele>920.1</ele>
        <time>2023-01-21T09:18:22.000Z</time>
      </trkpt>
      <trkpt lat="46.26419" lon="6.54184">
        <ele>919.9</ele>
        <time>2023-01-21T09:18:23.000Z</time>
      </trkpt>
      <trkpt lat="46.26421" lon="6.54185">
        <ele>919.7</ele>
        <time>2023-01-21T09:18:24.000Z</time>
      </trkpt>
      <trkpt lat="46.26423" lon="6.54185">
        <ele>919.3</ele>
        <time>2023-01-21T09:18:25.000Z</time>
      </trkpt>
      <trkpt lat="46.26424" lon="6.54185">
        <ele>919.3</ele>
        <time>2023-01-21T09:18:26.000Z</time>
      </trkpt>
      <trkpt lat="46.26425" lon="6.54185">
        <ele>919.3</ele>
        <time>2023-01-21T09:18:27.000Z</time>
      </trkpt>
      <trkpt lat="46.26426" lon="6.54185">
        <ele>918.9</ele>
        <time>2023-01-21T09:18:28.000Z</time>
      </trkpt>
      <trkpt lat="46.26427" lon="6.54184">
        <ele>919.1</ele>
        <time>2023-01-21T09:18:29.000Z</time>
      </trkpt>
      <trkpt lat="46.26429" lon="6.54185">
        <ele>919.6</ele>
        <time>2023-01-21T09:18:30.000Z</time>
      </trkpt>
      <trkpt lat="46.2643" lon="6.54185">
        <ele>919.4</ele>
        <time>2023-01-21T09:18:31.000Z</time>
      </trkpt>
      <trkpt lat="46.26431" lon="6.54185">
        <ele>918.9</ele>
        <time>2023-01-21T09:18:32.000Z</time>
      </trkpt>
      <trkpt lat="46.26432" lon="6.54184">
        <ele>918.5</ele>
        <time>2023-01-21T09:18:33.000Z</time>
      </trkpt>
      <trkpt lat="46.26432" lon="6.54185">
        <ele>918.1</ele>
        <time>2023-01-21T09:18:34.000Z</time>
      </trkpt>
      <trkpt lat="46.26433" lon="6.54185">
        <ele>917.4</ele>
        <time>2023-01-21T09:18:35.000Z</time>
      </trkpt>
      <trkpt lat="46.26435" lon="6.54185">
        <ele>917.2</ele>
        <time>2023-01-21T09:18:36.000Z</time>
      </trkpt>
      <trkpt lat="46.26435" lon="6.54185">
        <ele>916.9</ele>
        <time>2023-01-21T09:18:37.000Z</time>
      </trkpt>
      <trkpt lat="46.26436" lon="6.54186">
        <ele>916.4</ele>
        <time>2023-01-21T09:18:38.000Z</time>
      </trkpt>
      <trkpt lat="46.26437" lon="6.54186">
        <ele>915.8</ele>
        <time>2023-01-21T09:18:39.000Z</time>
      </trkpt>
      <trkpt lat="46.26437" lon="6.54187">
        <ele>915.5</ele>
        <time>2023-01-21T09:18:40.000Z</time>
      </trkpt>
      <trkpt lat="46.26437" lon="6.54188">
        <ele>915.9</ele>
        <time>2023-01-21T09:18:41.000Z</time>
      </trkpt>
      <trkpt lat="46.26438" lon="6.54189">
        <ele>916</ele>
        <time>2023-01-21T09:18:42.000Z</time>
      </trkpt>
      <trkpt lat="46.26438" lon="6.54189">
        <ele>916.1</ele>
        <time>2023-01-21T09:18:43.000Z</time>
      </trkpt>
      <trkpt lat="46.26439" lon="6.54189">
        <ele>916.2</ele>
        <time>2023-01-21T09:18:44.000Z</time>
      </trkpt>
      <trkpt lat="46.2644" lon="6.54189">
        <ele>916.3</ele>
        <time>2023-01-21T09:18:45.000Z</time>
      </trkpt>
      <trkpt lat="46.26441" lon="6.54189">
        <ele>916.6</ele>
        <time>2023-01-21T09:18:46.000Z</time>
      </trkpt>
      <trkpt lat="46.26442" lon="6.5419">
        <ele>916.8</ele>
        <time>2023-01-21T09:18:47.000Z</time>
      </trkpt>
      <trkpt lat="46.26442" lon="6.54192">
        <ele>917</ele>
        <time>2023-01-21T09:18:48.000Z</time>
      </trkpt>
      <trkpt lat="46.26443" lon="6.54192">
        <ele>917.2</ele>
        <time>2023-01-21T09:18:49.000Z</time>
      </trkpt>
      <trkpt lat="46.26444" lon="6.54193">
        <ele>917.4</ele>
        <time>2023-01-21T09:18:50.000Z</time>
      </trkpt>
      <trkpt lat="46.26445" lon="6.54193">
        <ele>917.4</ele>
        <time>2023-01-21T09:18:51.000Z</time>
      </trkpt>
      <trkpt lat="46.26446" lon="6.54194">
        <ele>917.1</ele>
        <time>2023-01-21T09:18:52.000Z</time>
      </trkpt>
      <trkpt lat="46.26447" lon="6.54195">
        <ele>917.1</ele>
        <time>2023-01-21T09:18:53.000Z</time>
      </trkpt>
      <trkpt lat="46.26447" lon="6.54196">
        <ele>916.9</ele>
        <time>2023-01-21T09:18:54.000Z</time>
      </trkpt>
      <trkpt lat="46.26448" lon="6.54197">
        <ele>916.8</ele>
        <time>2023-01-21T09:18:55.000Z</time>
      </trkpt>
      <trkpt lat="46.26449" lon="6.54197">
        <ele>916.9</ele>
        <time>2023-01-21T09:18:56.000Z</time>
      </trkpt>
      <trkpt lat="46.2645" lon="6.54197">
        <ele>916.9</ele>
        <time>2023-01-21T09:18:57.000Z</time>
      </trkpt>
      <trkpt lat="46.26451" lon="6.54198">
        <ele>917</ele>
        <time>2023-01-21T09:18:58.000Z</time>
      </trkpt>
      <trkpt lat="46.26452" lon="6.54198">
        <ele>917.1</ele>
        <time>2023-01-21T09:18:59.000Z</time>
      </trkpt>
      <trkpt lat="46.26453" lon="6.54199">
        <ele>917.1</ele>
        <time>2023-01-21T09:19:00.000Z</time>
      </trkpt>
      <trkpt lat="46.26454" lon="6.54199">
        <ele>917</ele>
        <time>2023-01-21T09:19:01.000Z</time>
      </trkpt>
      <trkpt lat="46.26456" lon="6.542">
        <ele>916.8</ele>
        <time>2023-01-21T09:19:02.000Z</time>
      </trkpt>
      <trkpt lat="46.26456" lon="6.54201">
        <ele>916.6</ele>
        <time>2023-01-21T09:19:03.000Z</time>
      </trkpt>
      <trkpt lat="46.26457" lon="6.54202">
        <ele>916.6</ele>
        <time>2023-01-21T09:19:04.000Z</time>
      </trkpt>
      <trkpt lat="46.26458" lon="6.54203">
        <ele>916.5</ele>
        <time>2023-01-21T09:19:05.000Z</time>
      </trkpt>
      <trkpt lat="46.26459" lon="6.54203">
        <ele>916.7</ele>
        <time>2023-01-21T09:19:06.000Z</time>
      </trkpt>
      <trkpt lat="46.26459" lon="6.54204">
        <ele>916.6</ele>
        <time>2023-01-21T09:19:07.000Z</time>
      </trkpt>
      <trkpt lat="46.2646" lon="6.54205">
        <ele>916.8</ele>
        <time>2023-01-21T09:19:08.000Z</time>
      </trkpt>
      <trkpt lat="46.2646" lon="6.54206">
        <ele>917</ele>
        <time>2023-01-21T09:19:09.000Z</time>
      </trkpt>
      <trkpt lat="46.26461" lon="6.54207">
        <ele>917</ele>
        <time>2023-01-21T09:19:10.000Z</time>
      </trkpt>
      <trkpt lat="46.26462" lon="6.54207">
        <ele>917.1</ele>
        <time>2023-01-21T09:19:11.000Z</time>
      </trkpt>
      <trkpt lat="46.26464" lon="6.54208">
        <ele>917.3</ele>
        <time>2023-01-21T09:19:12.000Z</time>
      </trkpt>
      <trkpt lat="46.26465" lon="6.54208">
        <ele>917.2</ele>
        <time>2023-01-21T09:19:13.000Z</time>
      </trkpt>
      <trkpt lat="46.26465" lon="6.54208">
        <ele>917.1</ele>
        <time>2023-01-21T09:19:14.000Z</time>
      </trkpt>
      <trkpt lat="46.26467" lon="6.54208">
        <ele>917</ele>
        <time>2023-01-21T09:19:15.000Z</time>
      </trkpt>
      <trkpt lat="46.26468" lon="6.54208">
        <ele>916.7</ele>
        <time>2023-01-21T09:19:16.000Z</time>
      </trkpt>
      <trkpt lat="46.26469" lon="6.54209">
        <ele>916.9</ele>
        <time>2023-01-21T09:19:17.000Z</time>
      </trkpt>
      <trkpt lat="46.2647" lon="6.54209">
        <ele>916.9</ele>
        <time>2023-01-21T09:19:18.000Z</time>
      </trkpt>
      <trkpt lat="46.26471" lon="6.54211">
        <ele>917.2</ele>
        <time>2023-01-21T09:19:19.000Z</time>
      </trkpt>
      <trkpt lat="46.26472" lon="6.54212">
        <ele>917.3</ele>
        <time>2023-01-21T09:19:20.000Z</time>
      </trkpt>
      <trkpt lat="46.26473" lon="6.54212">
        <ele>917.3</ele>
        <time>2023-01-21T09:19:21.000Z</time>
      </trkpt>
      <trkpt lat="46.26474" lon="6.54213">
        <ele>917.5</ele>
        <time>2023-01-21T09:19:22.000Z</time>
      </trkpt>
      <trkpt lat="46.26475" lon="6.54214">
        <ele>917.7</ele>
        <time>2023-01-21T09:19:23.000Z</time>
      </trkpt>
      <trkpt lat="46.26477" lon="6.54214">
        <ele>917.9</ele>
        <time>2023-01-21T09:19:24.000Z</time>
      </trkpt>
      <trkpt lat="46.26478" lon="6.54214">
        <ele>917.8</ele>
        <time>2023-01-21T09:19:25.000Z</time>
      </trkpt>
      <trkpt lat="46.26479" lon="6.54215">
        <ele>917.9</ele>
        <time>2023-01-21T09:19:26.000Z</time>
      </trkpt>
      <trkpt lat="46.26479" lon="6.54216">
        <ele>918.1</ele>
        <time>2023-01-21T09:19:27.000Z</time>
      </trkpt>
      <trkpt lat="46.2648" lon="6.54216">
        <ele>918</ele>
        <time>2023-01-21T09:19:28.000Z</time>
      </trkpt>
      <trkpt lat="46.26482" lon="6.54216">
        <ele>918.3</ele>
        <time>2023-01-21T09:19:29.000Z</time>
      </trkpt>
      <trkpt lat="46.26483" lon="6.54216">
        <ele>918.5</ele>
        <time>2023-01-21T09:19:30.000Z</time>
      </trkpt>
      <trkpt lat="46.26484" lon="6.54217">
        <ele>918.8</ele>
        <time>2023-01-21T09:19:31.000Z</time>
      </trkpt>
      <trkpt lat="46.26484" lon="6.54218">
        <ele>919.2</ele>
        <time>2023-01-21T09:19:32.000Z</time>
      </trkpt>
      <trkpt lat="46.26485" lon="6.5422">
        <ele>919.6</ele>
        <time>2023-01-21T09:19:33.000Z</time>
      </trkpt>
      <trkpt lat="46.26486" lon="6.54221">
        <ele>919.9</ele>
        <time>2023-01-21T09:19:34.000Z</time>
      </trkpt>
      <trkpt lat="46.26487" lon="6.54223">
        <ele>920.2</ele>
        <time>2023-01-21T09:19:35.000Z</time>
      </trkpt>
      <trkpt lat="46.26487" lon="6.54223">
        <ele>920.5</ele>
        <time>2023-01-21T09:19:36.000Z</time>
      </trkpt>
      <trkpt lat="46.26488" lon="6.54224">
        <ele>920.7</ele>
        <time>2023-01-21T09:19:37.000Z</time>
      </trkpt>
      <trkpt lat="46.26489" lon="6.54226">
        <ele>921</ele>
        <time>2023-01-21T09:19:38.000Z</time>
      </trkpt>
      <trkpt lat="46.2649" lon="6.54227">
        <ele>921.3</ele>
        <time>2023-01-21T09:19:39.000Z</time>
      </trkpt>
      <trkpt lat="46.26491" lon="6.54227">
        <ele>921.5</ele>
        <time>2023-01-21T09:19:40.000Z</time>
      </trkpt>
      <trkpt lat="46.26492" lon="6.54228">
        <ele>921.8</ele>
        <time>2023-01-21T09:19:41.000Z</time>
      </trkpt>
      <trkpt lat="46.26493" lon="6.54229">
        <ele>922.1</ele>
        <time>2023-01-21T09:19:42.000Z</time>
      </trkpt>
      <trkpt lat="46.26494" lon="6.54229">
        <ele>922.3</ele>
        <time>2023-01-21T09:19:43.000Z</time>
      </trkpt>
      <trkpt lat="46.26495" lon="6.5423">
        <ele>922.7</ele>
        <time>2023-01-21T09:19:44.000Z</time>
      </trkpt>
      <trkpt lat="46.26495" lon="6.54232">
        <ele>923.3</ele>
        <time>2023-01-21T09:19:45.000Z</time>
      </trkpt>
      <trkpt lat="46.26496" lon="6.54232">
        <ele>923.6</ele>
        <time>2023-01-21T09:19:46.000Z</time>
      </trkpt>
      <trkpt lat="46.26497" lon="6.54233">
        <ele>923.9</ele>
        <time>2023-01-21T09:19:47.000Z</time>
      </trkpt>
      <trkpt lat="46.26497" lon="6.54233">
        <ele>924</ele>
        <time>2023-01-21T09:19:48.000Z</time>
      </trkpt>
      <trkpt lat="46.26498" lon="6.54233">
        <ele>924.2</ele>
        <time>2023-01-21T09:19:49.000Z</time>
      </trkpt>
      <trkpt lat="46.26499" lon="6.54234">
        <ele>924.2</ele>
        <time>2023-01-21T09:19:50.000Z</time>
      </trkpt>
      <trkpt lat="46.265" lon="6.54235">
        <ele>924.1</ele>
        <time>2023-01-21T09:19:51.000Z</time>
      </trkpt>
      <trkpt lat="46.265" lon="6.54236">
        <ele>924.2</ele>
        <time>2023-01-21T09:19:52.000Z</time>
      </trkpt>
      <trkpt lat="46.26501" lon="6.54237">
        <ele>924.4</ele>
        <time>2023-01-21T09:19:53.000Z</time>
      </trkpt>
      <trkpt lat="46.26502" lon="6.54238">
        <ele>924.5</ele>
        <time>2023-01-21T09:19:54.000Z</time>
      </trkpt>
      <trkpt lat="46.26503" lon="6.54238">
        <ele>924.4</ele>
        <time>2023-01-21T09:19:55.000Z</time>
      </trkpt>
      <trkpt lat="46.26504" lon="6.54238">
        <ele>924.5</ele>
        <time>2023-01-21T09:19:56.000Z</time>
      </trkpt>
      <trkpt lat="46.26505" lon="6.54239">
        <ele>924.6</ele>
        <time>2023-01-21T09:19:57.000Z</time>
      </trkpt>
      <trkpt lat="46.26506" lon="6.54241">
        <ele>924.8</ele>
        <time>2023-01-21T09:19:58.000Z</time>
      </trkpt>
      <trkpt lat="46.26506" lon="6.54242">
        <ele>925</ele>
        <time>2023-01-21T09:19:59.000Z</time>
      </trkpt>
      <trkpt lat="46.26507" lon="6.54243">
        <ele>925.2</ele>
        <time>2023-01-21T09:20:00.000Z</time>
      </trkpt>
      <trkpt lat="46.26507" lon="6.54244">
        <ele>925.2</ele>
        <time>2023-01-21T09:20:01.000Z</time>
      </trkpt>
      <trkpt lat="46.26508" lon="6.54246">
        <ele>925.3</ele>
        <time>2023-01-21T09:20:02.000Z</time>
      </trkpt>
      <trkpt lat="46.26508" lon="6.54247">
        <ele>925.4</ele>
        <time>2023-01-21T09:20:03.000Z</time>
      </trkpt>
      <trkpt lat="46.26508" lon="6.54248">
        <ele>925.7</ele>
        <time>2023-01-21T09:20:04.000Z</time>
      </trkpt>
      <trkpt lat="46.26509" lon="6.54248">
        <ele>926.2</ele>
        <time>2023-01-21T09:20:05.000Z</time>
      </trkpt>
      <trkpt lat="46.26509" lon="6.54248">
        <ele>926.3</ele>
        <time>2023-01-21T09:20:06.000Z</time>
      </trkpt>
      <trkpt lat="46.2651" lon="6.54248">
        <ele>926.1</ele>
        <time>2023-01-21T09:20:07.000Z</time>
      </trkpt>
      <trkpt lat="46.2651" lon="6.54248">
        <ele>926.3</ele>
        <time>2023-01-21T09:20:08.000Z</time>
      </trkpt>
      <trkpt lat="46.26512" lon="6.54248">
        <ele>926.5</ele>
        <time>2023-01-21T09:20:09.000Z</time>
      </trkpt>
      <trkpt lat="46.26513" lon="6.54248">
        <ele>926.6</ele>
        <time>2023-01-21T09:20:10.000Z</time>
      </trkpt>
      <trkpt lat="46.26514" lon="6.54249">
        <ele>926.4</ele>
        <time>2023-01-21T09:20:11.000Z</time>
      </trkpt>
      <trkpt lat="46.26515" lon="6.54249">
        <ele>926.6</ele>
        <time>2023-01-21T09:20:12.000Z</time>
      </trkpt>
      <trkpt lat="46.26516" lon="6.54249">
        <ele>926.8</ele>
        <time>2023-01-21T09:20:13.000Z</time>
      </trkpt>
      <trkpt lat="46.26516" lon="6.5425">
        <ele>927.1</ele>
        <time>2023-01-21T09:20:14.000Z</time>
      </trkpt>
      <trkpt lat="46.26517" lon="6.54251">
        <ele>927.1</ele>
        <time>2023-01-21T09:20:15.000Z</time>
      </trkpt>
      <trkpt lat="46.26517" lon="6.54252">
        <ele>927.5</ele>
        <time>2023-01-21T09:20:16.000Z</time>
      </trkpt>
      <trkpt lat="46.26518" lon="6.54253">
        <ele>927.9</ele>
        <time>2023-01-21T09:20:17.000Z</time>
      </trkpt>
      <trkpt lat="46.26518" lon="6.54254">
        <ele>928.4</ele>
        <time>2023-01-21T09:20:18.000Z</time>
      </trkpt>
      <trkpt lat="46.26518" lon="6.54256">
        <ele>929.2</ele>
        <time>2023-01-21T09:20:19.000Z</time>
      </trkpt>
      <trkpt lat="46.26518" lon="6.54257">
        <ele>929.5</ele>
        <time>2023-01-21T09:20:20.000Z</time>
      </trkpt>
      <trkpt lat="46.26519" lon="6.54258">
        <ele>930.4</ele>
        <time>2023-01-21T09:20:21.000Z</time>
      </trkpt>
      <trkpt lat="46.26519" lon="6.54259">
        <ele>931</ele>
        <time>2023-01-21T09:20:22.000Z</time>
      </trkpt>
      <trkpt lat="46.26519" lon="6.54261">
        <ele>931.3</ele>
        <time>2023-01-21T09:20:23.000Z</time>
      </trkpt>
      <trkpt lat="46.26519" lon="6.54263">
        <ele>932.1</ele>
        <time>2023-01-21T09:20:24.000Z</time>
      </trkpt>
      <trkpt lat="46.26519" lon="6.54264">
        <ele>932.4</ele>
        <time>2023-01-21T09:20:25.000Z</time>
      </trkpt>
      <trkpt lat="46.2652" lon="6.54266">
        <ele>932.8</ele>
        <time>2023-01-21T09:20:26.000Z</time>
      </trkpt>
      <trkpt lat="46.2652" lon="6.54267">
        <ele>933.2</ele>
        <time>2023-01-21T09:20:27.000Z</time>
      </trkpt>
      <trkpt lat="46.26521" lon="6.54268">
        <ele>933.4</ele>
        <time>2023-01-21T09:20:28.000Z</time>
      </trkpt>
      <trkpt lat="46.26521" lon="6.54269">
        <ele>933.8</ele>
        <time>2023-01-21T09:20:29.000Z</time>
      </trkpt>
      <trkpt lat="46.26522" lon="6.54272">
        <ele>934</ele>
        <time>2023-01-21T09:20:30.000Z</time>
      </trkpt>
      <trkpt lat="46.26522" lon="6.54273">
        <ele>934.2</ele>
        <time>2023-01-21T09:20:31.000Z</time>
      </trkpt>
      <trkpt lat="46.26524" lon="6.54275">
        <ele>934.2</ele>
        <time>2023-01-21T09:20:32.000Z</time>
      </trkpt>
      <trkpt lat="46.26524" lon="6.54276">
        <ele>934</ele>
        <time>2023-01-21T09:20:33.000Z</time>
      </trkpt>
      <trkpt lat="46.26524" lon="6.54277">
        <ele>933.6</ele>
        <time>2023-01-21T09:20:34.000Z</time>
      </trkpt>
      <trkpt lat="46.26524" lon="6.54277">
        <ele>932.7</ele>
        <time>2023-01-21T09:20:35.000Z</time>
      </trkpt>
      <trkpt lat="46.26524" lon="6.54278">
        <ele>932.6</ele>
        <time>2023-01-21T09:20:36.000Z</time>
      </trkpt>
      <trkpt lat="46.26525" lon="6.54279">
        <ele>932.7</ele>
        <time>2023-01-21T09:20:37.000Z</time>
      </trkpt>
      <trkpt lat="46.26526" lon="6.54279">
        <ele>933</ele>
        <time>2023-01-21T09:20:38.000Z</time>
      </trkpt>
      <trkpt lat="46.26527" lon="6.5428">
        <ele>933.3</ele>
        <time>2023-01-21T09:20:39.000Z</time>
      </trkpt>
      <trkpt lat="46.26528" lon="6.5428">
        <ele>933.4</ele>
        <time>2023-01-21T09:20:40.000Z</time>
      </trkpt>
      <trkpt lat="46.26528" lon="6.5428">
        <ele>933.5</ele>
        <time>2023-01-21T09:20:41.000Z</time>
      </trkpt>
      <trkpt lat="46.26529" lon="6.54281">
        <ele>933.5</ele>
        <time>2023-01-21T09:20:42.000Z</time>
      </trkpt>
      <trkpt lat="46.26529" lon="6.54281">
        <ele>933.5</ele>
        <time>2023-01-21T09:20:43.000Z</time>
      </trkpt>
      <trkpt lat="46.26529" lon="6.54282">
        <ele>933.4</ele>
        <time>2023-01-21T09:20:44.000Z</time>
      </trkpt>
      <trkpt lat="46.26528" lon="6.54284">
        <ele>933.7</ele>
        <time>2023-01-21T09:20:45.000Z</time>
      </trkpt>
      <trkpt lat="46.26528" lon="6.54285">
        <ele>933.4</ele>
        <time>2023-01-21T09:20:46.000Z</time>
      </trkpt>
      <trkpt lat="46.26528" lon="6.54286">
        <ele>933.3</ele>
        <time>2023-01-21T09:20:47.000Z</time>
      </trkpt>
      <trkpt lat="46.26528" lon="6.54288">
        <ele>933.2</ele>
        <time>2023-01-21T09:20:48.000Z</time>
      </trkpt>
      <trkpt lat="46.26529" lon="6.54289">
        <ele>933</ele>
        <time>2023-01-21T09:20:49.000Z</time>
      </trkpt>
      <trkpt lat="46.26529" lon="6.5429">
        <ele>932.8</ele>
        <time>2023-01-21T09:20:50.000Z</time>
      </trkpt>
      <trkpt lat="46.26529" lon="6.54291">
        <ele>932.7</ele>
        <time>2023-01-21T09:20:51.000Z</time>
      </trkpt>
      <trkpt lat="46.2653" lon="6.54293">
        <ele>932.8</ele>
        <time>2023-01-21T09:20:52.000Z</time>
      </trkpt>
      <trkpt lat="46.2653" lon="6.54295">
        <ele>933</ele>
        <time>2023-01-21T09:20:53.000Z</time>
      </trkpt>
      <trkpt lat="46.26531" lon="6.54296">
        <ele>933.5</ele>
        <time>2023-01-21T09:20:54.000Z</time>
      </trkpt>
      <trkpt lat="46.26531" lon="6.54297">
        <ele>933.9</ele>
        <time>2023-01-21T09:20:55.000Z</time>
      </trkpt>
      <trkpt lat="46.26532" lon="6.54299">
        <ele>934.1</ele>
        <time>2023-01-21T09:20:56.000Z</time>
      </trkpt>
      <trkpt lat="46.26532" lon="6.543">
        <ele>934.4</ele>
        <time>2023-01-21T09:20:57.000Z</time>
      </trkpt>
      <trkpt lat="46.26532" lon="6.54301">
        <ele>934.6</ele>
        <time>2023-01-21T09:20:58.000Z</time>
      </trkpt>
      <trkpt lat="46.26532" lon="6.54302">
        <ele>934.9</ele>
        <time>2023-01-21T09:20:59.000Z</time>
      </trkpt>
      <trkpt lat="46.26533" lon="6.54303">
        <ele>935.3</ele>
        <time>2023-01-21T09:21:00.000Z</time>
      </trkpt>
      <trkpt lat="46.26533" lon="6.54304">
        <ele>935.7</ele>
        <time>2023-01-21T09:21:01.000Z</time>
      </trkpt>
      <trkpt lat="46.26534" lon="6.54304">
        <ele>936.2</ele>
        <time>2023-01-21T09:21:02.000Z</time>
      </trkpt>
      <trkpt lat="46.26534" lon="6.54305">
        <ele>936.9</ele>
        <time>2023-01-21T09:21:03.000Z</time>
      </trkpt>
      <trkpt lat="46.26534" lon="6.54305">
        <ele>937.2</ele>
        <time>2023-01-21T09:21:04.000Z</time>
      </trkpt>
      <trkpt lat="46.26535" lon="6.54306">
        <ele>937.5</ele>
        <time>2023-01-21T09:21:05.000Z</time>
      </trkpt>
      <trkpt lat="46.26536" lon="6.54306">
        <ele>937.6</ele>
        <time>2023-01-21T09:21:06.000Z</time>
      </trkpt>
      <trkpt lat="46.26536" lon="6.54307">
        <ele>937.8</ele>
        <time>2023-01-21T09:21:07.000Z</time>
      </trkpt>
      <trkpt lat="46.26537" lon="6.54308">
        <ele>937.9</ele>
        <time>2023-01-21T09:21:08.000Z</time>
      </trkpt>
      <trkpt lat="46.26537" lon="6.54309">
        <ele>938.2</ele>
        <time>2023-01-21T09:21:09.000Z</time>
      </trkpt>
      <trkpt lat="46.26537" lon="6.5431">
        <ele>938.6</ele>
        <time>2023-01-21T09:21:10.000Z</time>
      </trkpt>
      <trkpt lat="46.26538" lon="6.54311">
        <ele>938.8</ele>
        <time>2023-01-21T09:21:11.000Z</time>
      </trkpt>
      <trkpt lat="46.26538" lon="6.54312">
        <ele>939</ele>
        <time>2023-01-21T09:21:12.000Z</time>
      </trkpt>
      <trkpt lat="46.26539" lon="6.54313">
        <ele>939.6</ele>
        <time>2023-01-21T09:21:13.000Z</time>
      </trkpt>
      <trkpt lat="46.26539" lon="6.54314">
        <ele>940.2</ele>
        <time>2023-01-21T09:21:14.000Z</time>
      </trkpt>
      <trkpt lat="46.26539" lon="6.54315">
        <ele>940.7</ele>
        <time>2023-01-21T09:21:15.000Z</time>
      </trkpt>
      <trkpt lat="46.2654" lon="6.54315">
        <ele>941.3</ele>
        <time>2023-01-21T09:21:16.000Z</time>
      </trkpt>
      <trkpt lat="46.2654" lon="6.54316">
        <ele>941.9</ele>
        <time>2023-01-21T09:21:17.000Z</time>
      </trkpt>
      <trkpt lat="46.26541" lon="6.54317">
        <ele>942.3</ele>
        <time>2023-01-21T09:21:18.000Z</time>
      </trkpt>
      <trkpt lat="46.26541" lon="6.54318">
        <ele>942.5</ele>
        <time>2023-01-21T09:21:19.000Z</time>
      </trkpt>
      <trkpt lat="46.26541" lon="6.54319">
        <ele>942.6</ele>
        <time>2023-01-21T09:21:20.000Z</time>
      </trkpt>
      <trkpt lat="46.26541" lon="6.54321">
        <ele>942.8</ele>
        <time>2023-01-21T09:21:21.000Z</time>
      </trkpt>
      <trkpt lat="46.26541" lon="6.54322">
        <ele>942.7</ele>
        <time>2023-01-21T09:21:22.000Z</time>
      </trkpt>
      <trkpt lat="46.26542" lon="6.54324">
        <ele>942.5</ele>
        <time>2023-01-21T09:21:23.000Z</time>
      </trkpt>
      <trkpt lat="46.26542" lon="6.54324">
        <ele>942.4</ele>
        <time>2023-01-21T09:21:24.000Z</time>
      </trkpt>
      <trkpt lat="46.26542" lon="6.54325">
        <ele>942.3</ele>
        <time>2023-01-21T09:21:25.000Z</time>
      </trkpt>
      <trkpt lat="46.26543" lon="6.54326">
        <ele>942.3</ele>
        <time>2023-01-21T09:21:26.000Z</time>
      </trkpt>
      <trkpt lat="46.26543" lon="6.54327">
        <ele>942.4</ele>
        <time>2023-01-21T09:21:27.000Z</time>
      </trkpt>
      <trkpt lat="46.26544" lon="6.54328">
        <ele>942.4</ele>
        <time>2023-01-21T09:21:28.000Z</time>
      </trkpt>
      <trkpt lat="46.26545" lon="6.54328">
        <ele>942.6</ele>
        <time>2023-01-21T09:21:29.000Z</time>
      </trkpt>
      <trkpt lat="46.26545" lon="6.54329">
        <ele>942.6</ele>
        <time>2023-01-21T09:21:30.000Z</time>
      </trkpt>
      <trkpt lat="46.26545" lon="6.5433">
        <ele>942.8</ele>
        <time>2023-01-21T09:21:31.000Z</time>
      </trkpt>
      <trkpt lat="46.26546" lon="6.54331">
        <ele>943</ele>
        <time>2023-01-21T09:21:32.000Z</time>
      </trkpt>
      <trkpt lat="46.26546" lon="6.54332">
        <ele>943.1</ele>
        <time>2023-01-21T09:21:33.000Z</time>
      </trkpt>
      <trkpt lat="46.26546" lon="6.54332">
        <ele>943.2</ele>
        <time>2023-01-21T09:21:34.000Z</time>
      </trkpt>
      <trkpt lat="46.26547" lon="6.54333">
        <ele>943</ele>
        <time>2023-01-21T09:21:35.000Z</time>
      </trkpt>
      <trkpt lat="46.26548" lon="6.54333">
        <ele>943.2</ele>
        <time>2023-01-21T09:21:36.000Z</time>
      </trkpt>
      <trkpt lat="46.26548" lon="6.54334">
        <ele>943.3</ele>
        <time>2023-01-21T09:21:37.000Z</time>
      </trkpt>
      <trkpt lat="46.26548" lon="6.54335">
        <ele>943.3</ele>
        <time>2023-01-21T09:21:38.000Z</time>
      </trkpt>
      <trkpt lat="46.26548" lon="6.54336">
        <ele>943.3</ele>
        <time>2023-01-21T09:21:39.000Z</time>
      </trkpt>
      <trkpt lat="46.26548" lon="6.54337">
        <ele>943.3</ele>
        <time>2023-01-21T09:21:40.000Z</time>
      </trkpt>
      <trkpt lat="46.26549" lon="6.54338">
        <ele>943.5</ele>
        <time>2023-01-21T09:21:41.000Z</time>
      </trkpt>
      <trkpt lat="46.26549" lon="6.54339">
        <ele>943.7</ele>
        <time>2023-01-21T09:21:42.000Z</time>
      </trkpt>
      <trkpt lat="46.26549" lon="6.54339">
        <ele>943.5</ele>
        <time>2023-01-21T09:21:43.000Z</time>
      </trkpt>
      <trkpt lat="46.26549" lon="6.5434">
        <ele>943.4</ele>
        <time>2023-01-21T09:21:44.000Z</time>
      </trkpt>
      <trkpt lat="46.26549" lon="6.54341">
        <ele>943.5</ele>
        <time>2023-01-21T09:21:45.000Z</time>
      </trkpt>
      <trkpt lat="46.26549" lon="6.54342">
        <ele>943.3</ele>
        <time>2023-01-21T09:21:46.000Z</time>
      </trkpt>
      <trkpt lat="46.2655" lon="6.54342">
        <ele>943.5</ele>
        <time>2023-01-21T09:21:47.000Z</time>
      </trkpt>
      <trkpt lat="46.2655" lon="6.54343">
        <ele>943.6</ele>
        <time>2023-01-21T09:21:48.000Z</time>
      </trkpt>
      <trkpt lat="46.26551" lon="6.54344">
        <ele>943.8</ele>
        <time>2023-01-21T09:21:49.000Z</time>
      </trkpt>
      <trkpt lat="46.26552" lon="6.54344">
        <ele>943.7</ele>
        <time>2023-01-21T09:21:50.000Z</time>
      </trkpt>
      <trkpt lat="46.26552" lon="6.54345">
        <ele>944</ele>
        <time>2023-01-21T09:21:51.000Z</time>
      </trkpt>
      <trkpt lat="46.26552" lon="6.54345">
        <ele>944</ele>
        <time>2023-01-21T09:21:52.000Z</time>
      </trkpt>
      <trkpt lat="46.26552" lon="6.54346">
        <ele>943.9</ele>
        <time>2023-01-21T09:21:53.000Z</time>
      </trkpt>
      <trkpt lat="46.26552" lon="6.54347">
        <ele>944.1</ele>
        <time>2023-01-21T09:21:54.000Z</time>
      </trkpt>
      <trkpt lat="46.26552" lon="6.54348">
        <ele>944</ele>
        <time>2023-01-21T09:21:55.000Z</time>
      </trkpt>
      <trkpt lat="46.26553" lon="6.54348">
        <ele>944</ele>
        <time>2023-01-21T09:21:56.000Z</time>
      </trkpt>
      <trkpt lat="46.26553" lon="6.54349">
        <ele>943.7</ele>
        <time>2023-01-21T09:21:57.000Z</time>
      </trkpt>
      <trkpt lat="46.26554" lon="6.5435">
        <ele>943.5</ele>
        <time>2023-01-21T09:21:58.000Z</time>
      </trkpt>
      <trkpt lat="46.26554" lon="6.54352">
        <ele>943.5</ele>
        <time>2023-01-21T09:21:59.000Z</time>
      </trkpt>
      <trkpt lat="46.26554" lon="6.54354">
        <ele>943.5</ele>
        <time>2023-01-21T09:22:00.000Z</time>
      </trkpt>
      <trkpt lat="46.26555" lon="6.54354">
        <ele>943.1</ele>
        <time>2023-01-21T09:22:01.000Z</time>
      </trkpt>
      <trkpt lat="46.26555" lon="6.54355">
        <ele>942.7</ele>
        <time>2023-01-21T09:22:02.000Z</time>
      </trkpt>
      <trkpt lat="46.26555" lon="6.54356">
        <ele>942.4</ele>
        <time>2023-01-21T09:22:03.000Z</time>
      </trkpt>
      <trkpt lat="46.26556" lon="6.54356">
        <ele>942.2</ele>
        <time>2023-01-21T09:22:04.000Z</time>
      </trkpt>
      <trkpt lat="46.26556" lon="6.54357">
        <ele>941.9</ele>
        <time>2023-01-21T09:22:05.000Z</time>
      </trkpt>
      <trkpt lat="46.26557" lon="6.54357">
        <ele>941.9</ele>
        <time>2023-01-21T09:22:06.000Z</time>
      </trkpt>
      <trkpt lat="46.26557" lon="6.54358">
        <ele>941.8</ele>
        <time>2023-01-21T09:22:07.000Z</time>
      </trkpt>
      <trkpt lat="46.26557" lon="6.54359">
        <ele>941.8</ele>
        <time>2023-01-21T09:22:08.000Z</time>
      </trkpt>
      <trkpt lat="46.26558" lon="6.54359">
        <ele>941.8</ele>
        <time>2023-01-21T09:22:09.000Z</time>
      </trkpt>
      <trkpt lat="46.26558" lon="6.5436">
        <ele>941.6</ele>
        <time>2023-01-21T09:22:10.000Z</time>
      </trkpt>
      <trkpt lat="46.26558" lon="6.54361">
        <ele>941.4</ele>
        <time>2023-01-21T09:22:11.000Z</time>
      </trkpt>
      <trkpt lat="46.26558" lon="6.54361">
        <ele>941.1</ele>
        <time>2023-01-21T09:22:12.000Z</time>
      </trkpt>
      <trkpt lat="46.26558" lon="6.54362">
        <ele>941</ele>
        <time>2023-01-21T09:22:13.000Z</time>
      </trkpt>
      <trkpt lat="46.26559" lon="6.54362">
        <ele>941</ele>
        <time>2023-01-21T09:22:14.000Z</time>
      </trkpt>
      <trkpt lat="46.26559" lon="6.54364">
        <ele>940.9</ele>
        <time>2023-01-21T09:22:15.000Z</time>
      </trkpt>
      <trkpt lat="46.26559" lon="6.54364">
        <ele>940.9</ele>
        <time>2023-01-21T09:22:16.000Z</time>
      </trkpt>
      <trkpt lat="46.2656" lon="6.54365">
        <ele>940.9</ele>
        <time>2023-01-21T09:22:17.000Z</time>
      </trkpt>
      <trkpt lat="46.2656" lon="6.54366">
        <ele>940.9</ele>
        <time>2023-01-21T09:22:18.000Z</time>
      </trkpt>
      <trkpt lat="46.2656" lon="6.54367">
        <ele>941</ele>
        <time>2023-01-21T09:22:19.000Z</time>
      </trkpt>
      <trkpt lat="46.26561" lon="6.54367">
        <ele>941.3</ele>
        <time>2023-01-21T09:22:20.000Z</time>
      </trkpt>
      <trkpt lat="46.26562" lon="6.54368">
        <ele>941.1</ele>
        <time>2023-01-21T09:22:21.000Z</time>
      </trkpt>
      <trkpt lat="46.26563" lon="6.54369">
        <ele>941.1</ele>
        <time>2023-01-21T09:22:22.000Z</time>
      </trkpt>
      <trkpt lat="46.26563" lon="6.5437">
        <ele>941</ele>
        <time>2023-01-21T09:22:23.000Z</time>
      </trkpt>
      <trkpt lat="46.26563" lon="6.5437">
        <ele>940.9</ele>
        <time>2023-01-21T09:22:24.000Z</time>
      </trkpt>
      <trkpt lat="46.26564" lon="6.54371">
        <ele>940.9</ele>
        <time>2023-01-21T09:22:25.000Z</time>
      </trkpt>
      <trkpt lat="46.26564" lon="6.54372">
        <ele>941</ele>
        <time>2023-01-21T09:22:26.000Z</time>
      </trkpt>
      <trkpt lat="46.26564" lon="6.54373">
        <ele>941</ele>
        <time>2023-01-21T09:22:27.000Z</time>
      </trkpt>
      <trkpt lat="46.26565" lon="6.54373">
        <ele>940.8</ele>
        <time>2023-01-21T09:22:28.000Z</time>
      </trkpt>
      <trkpt lat="46.26566" lon="6.54374">
        <ele>940.8</ele>
        <time>2023-01-21T09:22:29.000Z</time>
      </trkpt>
      <trkpt lat="46.26566" lon="6.54375">
        <ele>940.8</ele>
        <time>2023-01-21T09:22:30.000Z</time>
      </trkpt>
      <trkpt lat="46.26566" lon="6.54376">
        <ele>940.9</ele>
        <time>2023-01-21T09:22:31.000Z</time>
      </trkpt>
      <trkpt lat="46.26566" lon="6.54377">
        <ele>941</ele>
        <time>2023-01-21T09:22:32.000Z</time>
      </trkpt>
      <trkpt lat="46.26566" lon="6.54379">
        <ele>941</ele>
        <time>2023-01-21T09:22:33.000Z</time>
      </trkpt>
      <trkpt lat="46.26566" lon="6.5438">
        <ele>941.1</ele>
        <time>2023-01-21T09:22:34.000Z</time>
      </trkpt>
      <trkpt lat="46.26567" lon="6.54381">
        <ele>941</ele>
        <time>2023-01-21T09:22:35.000Z</time>
      </trkpt>
      <trkpt lat="46.26567" lon="6.54382">
        <ele>941</ele>
        <time>2023-01-21T09:22:36.000Z</time>
      </trkpt>
      <trkpt lat="46.26567" lon="6.54383">
        <ele>941</ele>
        <time>2023-01-21T09:22:37.000Z</time>
      </trkpt>
      <trkpt lat="46.26567" lon="6.54383">
        <ele>941.1</ele>
        <time>2023-01-21T09:22:38.000Z</time>
      </trkpt>
      <trkpt lat="46.26567" lon="6.54384">
        <ele>941</ele>
        <time>2023-01-21T09:22:39.000Z</time>
      </trkpt>
      <trkpt lat="46.26568" lon="6.54385">
        <ele>941.1</ele>
        <time>2023-01-21T09:22:40.000Z</time>
      </trkpt>
      <trkpt lat="46.26568" lon="6.54387">
        <ele>941.3</ele>
        <time>2023-01-21T09:22:41.000Z</time>
      </trkpt>
      <trkpt lat="46.26569" lon="6.54388">
        <ele>941.5</ele>
        <time>2023-01-21T09:22:42.000Z</time>
      </trkpt>
      <trkpt lat="46.26569" lon="6.54389">
        <ele>941.6</ele>
        <time>2023-01-21T09:22:43.000Z</time>
      </trkpt>
      <trkpt lat="46.26569" lon="6.5439">
        <ele>941.5</ele>
        <time>2023-01-21T09:22:44.000Z</time>
      </trkpt>
      <trkpt lat="46.2657" lon="6.54391">
        <ele>941.1</ele>
        <time>2023-01-21T09:22:45.000Z</time>
      </trkpt>
      <trkpt lat="46.2657" lon="6.54392">
        <ele>941</ele>
        <time>2023-01-21T09:22:46.000Z</time>
      </trkpt>
      <trkpt lat="46.2657" lon="6.54393">
        <ele>941.1</ele>
        <time>2023-01-21T09:22:47.000Z</time>
      </trkpt>
      <trkpt lat="46.26571" lon="6.54394">
        <ele>941</ele>
        <time>2023-01-21T09:22:48.000Z</time>
      </trkpt>
      <trkpt lat="46.26571" lon="6.54395">
        <ele>941.1</ele>
        <time>2023-01-21T09:22:49.000Z</time>
      </trkpt>
      <trkpt lat="46.26572" lon="6.54396">
        <ele>941.3</ele>
        <time>2023-01-21T09:22:50.000Z</time>
      </trkpt>
      <trkpt lat="46.26572" lon="6.54397">
        <ele>941.5</ele>
        <time>2023-01-21T09:22:51.000Z</time>
      </trkpt>
      <trkpt lat="46.26572" lon="6.54398">
        <ele>941.7</ele>
        <time>2023-01-21T09:22:52.000Z</time>
      </trkpt>
      <trkpt lat="46.26573" lon="6.54399">
        <ele>941.8</ele>
        <time>2023-01-21T09:22:53.000Z</time>
      </trkpt>
      <trkpt lat="46.26573" lon="6.544">
        <ele>942</ele>
        <time>2023-01-21T09:22:54.000Z</time>
      </trkpt>
      <trkpt lat="46.26574" lon="6.54401">
        <ele>942.2</ele>
        <time>2023-01-21T09:22:55.000Z</time>
      </trkpt>
      <trkpt lat="46.26575" lon="6.54402">
        <ele>942.2</ele>
        <time>2023-01-21T09:22:56.000Z</time>
      </trkpt>
      <trkpt lat="46.26575" lon="6.54402">
        <ele>942.4</ele>
        <time>2023-01-21T09:22:57.000Z</time>
      </trkpt>
      <trkpt lat="46.26575" lon="6.54404">
        <ele>942.4</ele>
        <time>2023-01-21T09:22:58.000Z</time>
      </trkpt>
      <trkpt lat="46.26575" lon="6.54405">
        <ele>942.3</ele>
        <time>2023-01-21T09:22:59.000Z</time>
      </trkpt>
      <trkpt lat="46.26575" lon="6.54406">
        <ele>942.3</ele>
        <time>2023-01-21T09:23:00.000Z</time>
      </trkpt>
      <trkpt lat="46.26575" lon="6.54407">
        <ele>942.4</ele>
        <time>2023-01-21T09:23:01.000Z</time>
      </trkpt>
      <trkpt lat="46.26575" lon="6.54407">
        <ele>942.3</ele>
        <time>2023-01-21T09:23:02.000Z</time>
      </trkpt>
      <trkpt lat="46.26575" lon="6.54408">
        <ele>942.3</ele>
        <time>2023-01-21T09:23:03.000Z</time>
      </trkpt>
      <trkpt lat="46.26575" lon="6.54409">
        <ele>942.4</ele>
        <time>2023-01-21T09:23:04.000Z</time>
      </trkpt>
      <trkpt lat="46.26575" lon="6.5441">
        <ele>942.4</ele>
        <time>2023-01-21T09:23:05.000Z</time>
      </trkpt>
      <trkpt lat="46.26575" lon="6.54411">
        <ele>942.5</ele>
        <time>2023-01-21T09:23:06.000Z</time>
      </trkpt>
      <trkpt lat="46.26576" lon="6.54412">
        <ele>942.1</ele>
        <time>2023-01-21T09:23:07.000Z</time>
      </trkpt>
      <trkpt lat="46.26576" lon="6.54413">
        <ele>942.4</ele>
        <time>2023-01-21T09:23:08.000Z</time>
      </trkpt>
      <trkpt lat="46.26576" lon="6.54414">
        <ele>942.2</ele>
        <time>2023-01-21T09:23:09.000Z</time>
      </trkpt>
      <trkpt lat="46.26576" lon="6.54415">
        <ele>942.2</ele>
        <time>2023-01-21T09:23:10.000Z</time>
      </trkpt>
      <trkpt lat="46.26575" lon="6.54416">
        <ele>941.8</ele>
        <time>2023-01-21T09:23:11.000Z</time>
      </trkpt>
      <trkpt lat="46.26576" lon="6.54416">
        <ele>941.8</ele>
        <time>2023-01-21T09:23:12.000Z</time>
      </trkpt>
      <trkpt lat="46.26576" lon="6.54416">
        <ele>941.5</ele>
        <time>2023-01-21T09:23:13.000Z</time>
      </trkpt>
      <trkpt lat="46.26577" lon="6.54417">
        <ele>941.1</ele>
        <time>2023-01-21T09:23:14.000Z</time>
      </trkpt>
      <trkpt lat="46.26578" lon="6.54417">
        <ele>941.5</ele>
        <time>2023-01-21T09:23:15.000Z</time>
      </trkpt>
      <trkpt lat="46.26578" lon="6.54418">
        <ele>941.1</ele>
        <time>2023-01-21T09:23:16.000Z</time>
      </trkpt>
      <trkpt lat="46.26578" lon="6.54419">
        <ele>941</ele>
        <time>2023-01-21T09:23:17.000Z</time>
      </trkpt>
      <trkpt lat="46.26578" lon="6.5442">
        <ele>940.6</ele>
        <time>2023-01-21T09:23:18.000Z</time>
      </trkpt>
      <trkpt lat="46.26578" lon="6.5442">
        <ele>940.7</ele>
        <time>2023-01-21T09:23:19.000Z</time>
      </trkpt>
      <trkpt lat="46.26578" lon="6.54422">
        <ele>941.3</ele>
        <time>2023-01-21T09:23:20.000Z</time>
      </trkpt>
      <trkpt lat="46.26578" lon="6.54423">
        <ele>941.8</ele>
        <time>2023-01-21T09:23:21.000Z</time>
      </trkpt>
      <trkpt lat="46.26579" lon="6.54425">
        <ele>942.5</ele>
        <time>2023-01-21T09:23:22.000Z</time>
      </trkpt>
      <trkpt lat="46.2658" lon="6.54426">
        <ele>943</ele>
        <time>2023-01-21T09:23:23.000Z</time>
      </trkpt>
      <trkpt lat="46.26581" lon="6.54428">
        <ele>943.7</ele>
        <time>2023-01-21T09:23:24.000Z</time>
      </trkpt>
      <trkpt lat="46.26581" lon="6.5443">
        <ele>944.5</ele>
        <time>2023-01-21T09:23:25.000Z</time>
      </trkpt>
      <trkpt lat="46.26582" lon="6.54431">
        <ele>944.7</ele>
        <time>2023-01-21T09:23:26.000Z</time>
      </trkpt>
      <trkpt lat="46.26582" lon="6.54433">
        <ele>945.2</ele>
        <time>2023-01-21T09:23:27.000Z</time>
      </trkpt>
      <trkpt lat="46.26583" lon="6.54435">
        <ele>946.2</ele>
        <time>2023-01-21T09:23:28.000Z</time>
      </trkpt>
      <trkpt lat="46.26583" lon="6.54436">
        <ele>947.2</ele>
        <time>2023-01-21T09:23:29.000Z</time>
      </trkpt>
      <trkpt lat="46.26584" lon="6.54438">
        <ele>947.9</ele>
        <time>2023-01-21T09:23:30.000Z</time>
      </trkpt>
      <trkpt lat="46.26584" lon="6.54439">
        <ele>948.3</ele>
        <time>2023-01-21T09:23:31.000Z</time>
      </trkpt>
      <trkpt lat="46.26585" lon="6.54439">
        <ele>948.6</ele>
        <time>2023-01-21T09:23:32.000Z</time>
      </trkpt>
      <trkpt lat="46.26585" lon="6.5444">
        <ele>949</ele>
        <time>2023-01-21T09:23:33.000Z</time>
      </trkpt>
      <trkpt lat="46.26585" lon="6.54442">
        <ele>949.5</ele>
        <time>2023-01-21T09:23:34.000Z</time>
      </trkpt>
      <trkpt lat="46.26586" lon="6.54442">
        <ele>949.5</ele>
        <time>2023-01-21T09:23:35.000Z</time>
      </trkpt>
      <trkpt lat="46.26586" lon="6.54443">
        <ele>949.9</ele>
        <time>2023-01-21T09:23:36.000Z</time>
      </trkpt>
      <trkpt lat="46.26587" lon="6.54444">
        <ele>950.1</ele>
        <time>2023-01-21T09:23:37.000Z</time>
      </trkpt>
      <trkpt lat="46.26586" lon="6.54445">
        <ele>950.2</ele>
        <time>2023-01-21T09:23:38.000Z</time>
      </trkpt>
      <trkpt lat="46.26586" lon="6.54445">
        <ele>950.4</ele>
        <time>2023-01-21T09:23:39.000Z</time>
      </trkpt>
      <trkpt lat="46.26585" lon="6.54447">
        <ele>950.6</ele>
        <time>2023-01-21T09:23:40.000Z</time>
      </trkpt>
      <trkpt lat="46.26585" lon="6.54448">
        <ele>950.9</ele>
        <time>2023-01-21T09:23:41.000Z</time>
      </trkpt>
      <trkpt lat="46.26585" lon="6.54449">
        <ele>950.6</ele>
        <time>2023-01-21T09:23:42.000Z</time>
      </trkpt>
      <trkpt lat="46.26586" lon="6.5445">
        <ele>950.6</ele>
        <time>2023-01-21T09:23:43.000Z</time>
      </trkpt>
      <trkpt lat="46.26587" lon="6.54451">
        <ele>950.8</ele>
        <time>2023-01-21T09:23:44.000Z</time>
      </trkpt>
      <trkpt lat="46.26588" lon="6.54452">
        <ele>951.1</ele>
        <time>2023-01-21T09:23:45.000Z</time>
      </trkpt>
      <trkpt lat="46.26588" lon="6.54453">
        <ele>951.2</ele>
        <time>2023-01-21T09:23:46.000Z</time>
      </trkpt>
      <trkpt lat="46.26589" lon="6.54453">
        <ele>951.5</ele>
        <time>2023-01-21T09:23:47.000Z</time>
      </trkpt>
      <trkpt lat="46.26589" lon="6.54454">
        <ele>951.6</ele>
        <time>2023-01-21T09:23:48.000Z</time>
      </trkpt>
      <trkpt lat="46.26589" lon="6.54455">
        <ele>951.3</ele>
        <time>2023-01-21T09:23:49.000Z</time>
      </trkpt>
      <trkpt lat="46.2659" lon="6.54456">
        <ele>951.1</ele>
        <time>2023-01-21T09:23:50.000Z</time>
      </trkpt>
      <trkpt lat="46.2659" lon="6.54457">
        <ele>950.8</ele>
        <time>2023-01-21T09:23:51.000Z</time>
      </trkpt>
      <trkpt lat="46.26591" lon="6.54457">
        <ele>950.9</ele>
        <time>2023-01-21T09:23:52.000Z</time>
      </trkpt>
      <trkpt lat="46.26591" lon="6.54457">
        <ele>951.2</ele>
        <time>2023-01-21T09:23:53.000Z</time>
      </trkpt>
      <trkpt lat="46.26591" lon="6.54457">
        <ele>951.7</ele>
        <time>2023-01-21T09:23:54.000Z</time>
      </trkpt>
      <trkpt lat="46.26591" lon="6.54458">
        <ele>951.9</ele>
        <time>2023-01-21T09:23:55.000Z</time>
      </trkpt>
      <trkpt lat="46.26591" lon="6.54459">
        <ele>952.1</ele>
        <time>2023-01-21T09:23:56.000Z</time>
      </trkpt>
      <trkpt lat="46.26591" lon="6.5446">
        <ele>952.2</ele>
        <time>2023-01-21T09:23:57.000Z</time>
      </trkpt>
      <trkpt lat="46.2659" lon="6.5446">
        <ele>952.2</ele>
        <time>2023-01-21T09:23:58.000Z</time>
      </trkpt>
      <trkpt lat="46.26591" lon="6.5446">
        <ele>952.4</ele>
        <time>2023-01-21T09:23:59.000Z</time>
      </trkpt>
      <trkpt lat="46.26591" lon="6.54461">
        <ele>952.6</ele>
        <time>2023-01-21T09:24:00.000Z</time>
      </trkpt>
      <trkpt lat="46.26591" lon="6.54462">
        <ele>952.6</ele>
        <time>2023-01-21T09:24:01.000Z</time>
      </trkpt>
      <trkpt lat="46.26592" lon="6.54463">
        <ele>952.6</ele>
        <time>2023-01-21T09:24:02.000Z</time>
      </trkpt>
      <trkpt lat="46.26593" lon="6.54465">
        <ele>952.7</ele>
        <time>2023-01-21T09:24:03.000Z</time>
      </trkpt>
      <trkpt lat="46.26594" lon="6.54466">
        <ele>953</ele>
        <time>2023-01-21T09:24:04.000Z</time>
      </trkpt>
      <trkpt lat="46.26594" lon="6.54467">
        <ele>953.3</ele>
        <time>2023-01-21T09:24:05.000Z</time>
      </trkpt>
      <trkpt lat="46.26595" lon="6.54469">
        <ele>953.3</ele>
        <time>2023-01-21T09:24:06.000Z</time>
      </trkpt>
      <trkpt lat="46.26596" lon="6.5447">
        <ele>953.4</ele>
        <time>2023-01-21T09:24:07.000Z</time>
      </trkpt>
      <trkpt lat="46.26596" lon="6.54471">
        <ele>953.3</ele>
        <time>2023-01-21T09:24:08.000Z</time>
      </trkpt>
      <trkpt lat="46.26597" lon="6.54472">
        <ele>953.2</ele>
        <time>2023-01-21T09:24:09.000Z</time>
      </trkpt>
      <trkpt lat="46.26597" lon="6.54472">
        <ele>953.3</ele>
        <time>2023-01-21T09:24:10.000Z</time>
      </trkpt>
      <trkpt lat="46.26598" lon="6.54472">
        <ele>953.2</ele>
        <time>2023-01-21T09:24:11.000Z</time>
      </trkpt>
      <trkpt lat="46.26598" lon="6.54473">
        <ele>953.3</ele>
        <time>2023-01-21T09:24:12.000Z</time>
      </trkpt>
      <trkpt lat="46.26598" lon="6.54474">
        <ele>953</ele>
        <time>2023-01-21T09:24:13.000Z</time>
      </trkpt>
      <trkpt lat="46.26598" lon="6.54475">
        <ele>952.9</ele>
        <time>2023-01-21T09:24:14.000Z</time>
      </trkpt>
      <trkpt lat="46.26598" lon="6.54476">
        <ele>952.4</ele>
        <time>2023-01-21T09:24:15.000Z</time>
      </trkpt>
      <trkpt lat="46.26598" lon="6.54477">
        <ele>952.1</ele>
        <time>2023-01-21T09:24:16.000Z</time>
      </trkpt>
      <trkpt lat="46.26599" lon="6.54477">
        <ele>952.5</ele>
        <time>2023-01-21T09:24:17.000Z</time>
      </trkpt>
      <trkpt lat="46.26599" lon="6.54479">
        <ele>952.7</ele>
        <time>2023-01-21T09:24:18.000Z</time>
      </trkpt>
      <trkpt lat="46.26599" lon="6.5448">
        <ele>953</ele>
        <time>2023-01-21T09:24:19.000Z</time>
      </trkpt>
      <trkpt lat="46.266" lon="6.5448">
        <ele>953.4</ele>
        <time>2023-01-21T09:24:20.000Z</time>
      </trkpt>
      <trkpt lat="46.266" lon="6.54481">
        <ele>953.9</ele>
        <time>2023-01-21T09:24:21.000Z</time>
      </trkpt>
      <trkpt lat="46.26601" lon="6.54481">
        <ele>954.2</ele>
        <time>2023-01-21T09:24:22.000Z</time>
      </trkpt>
      <trkpt lat="46.26602" lon="6.54481">
        <ele>954.6</ele>
        <time>2023-01-21T09:24:23.000Z</time>
      </trkpt>
      <trkpt lat="46.26603" lon="6.54482">
        <ele>954.8</ele>
        <time>2023-01-21T09:24:24.000Z</time>
      </trkpt>
      <trkpt lat="46.26603" lon="6.54482">
        <ele>955.1</ele>
        <time>2023-01-21T09:24:25.000Z</time>
      </trkpt>
      <trkpt lat="46.26604" lon="6.54483">
        <ele>955.3</ele>
        <time>2023-01-21T09:24:26.000Z</time>
      </trkpt>
      <trkpt lat="46.26605" lon="6.54483">
        <ele>955.3</ele>
        <time>2023-01-21T09:24:27.000Z</time>
      </trkpt>
      <trkpt lat="46.26606" lon="6.54484">
        <ele>954.9</ele>
        <time>2023-01-21T09:24:28.000Z</time>
      </trkpt>
      <trkpt lat="46.26607" lon="6.54486">
        <ele>955.1</ele>
        <time>2023-01-21T09:24:29.000Z</time>
      </trkpt>
      <trkpt lat="46.26607" lon="6.54487">
        <ele>955</ele>
        <time>2023-01-21T09:24:30.000Z</time>
      </trkpt>
      <trkpt lat="46.26607" lon="6.54487">
        <ele>955</ele>
        <time>2023-01-21T09:24:31.000Z</time>
      </trkpt>
      <trkpt lat="46.26607" lon="6.54488">
        <ele>955</ele>
        <time>2023-01-21T09:24:32.000Z</time>
      </trkpt>
      <trkpt lat="46.26607" lon="6.54489">
        <ele>954.8</ele>
        <time>2023-01-21T09:24:33.000Z</time>
      </trkpt>
      <trkpt lat="46.26607" lon="6.5449">
        <ele>954.9</ele>
        <time>2023-01-21T09:24:34.000Z</time>
      </trkpt>
      <trkpt lat="46.26607" lon="6.54491">
        <ele>955</ele>
        <time>2023-01-21T09:24:35.000Z</time>
      </trkpt>
      <trkpt lat="46.26608" lon="6.54492">
        <ele>955.1</ele>
        <time>2023-01-21T09:24:36.000Z</time>
      </trkpt>
      <trkpt lat="46.26608" lon="6.54493">
        <ele>955.2</ele>
        <time>2023-01-21T09:24:37.000Z</time>
      </trkpt>
      <trkpt lat="46.26608" lon="6.54493">
        <ele>955.2</ele>
        <time>2023-01-21T09:24:38.000Z</time>
      </trkpt>
      <trkpt lat="46.26609" lon="6.54493">
        <ele>955.1</ele>
        <time>2023-01-21T09:24:39.000Z</time>
      </trkpt>
      <trkpt lat="46.26609" lon="6.54494">
        <ele>955.2</ele>
        <time>2023-01-21T09:24:40.000Z</time>
      </trkpt>
      <trkpt lat="46.26609" lon="6.54495">
        <ele>955.2</ele>
        <time>2023-01-21T09:24:41.000Z</time>
      </trkpt>
      <trkpt lat="46.2661" lon="6.54495">
        <ele>954.8</ele>
        <time>2023-01-21T09:24:42.000Z</time>
      </trkpt>
      <trkpt lat="46.26611" lon="6.54496">
        <ele>954.7</ele>
        <time>2023-01-21T09:24:43.000Z</time>
      </trkpt>
      <trkpt lat="46.26612" lon="6.54498">
        <ele>954.5</ele>
        <time>2023-01-21T09:24:44.000Z</time>
      </trkpt>
      <trkpt lat="46.26612" lon="6.545">
        <ele>954.3</ele>
        <time>2023-01-21T09:24:45.000Z</time>
      </trkpt>
      <trkpt lat="46.26613" lon="6.54501">
        <ele>954.3</ele>
        <time>2023-01-21T09:24:46.000Z</time>
      </trkpt>
      <trkpt lat="46.26615" lon="6.54501">
        <ele>954.3</ele>
        <time>2023-01-21T09:24:47.000Z</time>
      </trkpt>
      <trkpt lat="46.26615" lon="6.54501">
        <ele>954.3</ele>
        <time>2023-01-21T09:24:48.000Z</time>
      </trkpt>
      <trkpt lat="46.26616" lon="6.54502">
        <ele>954</ele>
        <time>2023-01-21T09:24:49.000Z</time>
      </trkpt>
      <trkpt lat="46.26618" lon="6.54503">
        <ele>953.8</ele>
        <time>2023-01-21T09:24:50.000Z</time>
      </trkpt>
      <trkpt lat="46.26619" lon="6.54503">
        <ele>953.7</ele>
        <time>2023-01-21T09:24:51.000Z</time>
      </trkpt>
      <trkpt lat="46.2662" lon="6.54504">
        <ele>953.7</ele>
        <time>2023-01-21T09:24:52.000Z</time>
      </trkpt>
      <trkpt lat="46.26621" lon="6.54505">
        <ele>953.8</ele>
        <time>2023-01-21T09:24:53.000Z</time>
      </trkpt>
      <trkpt lat="46.26623" lon="6.54505">
        <ele>954</ele>
        <time>2023-01-21T09:24:54.000Z</time>
      </trkpt>
      <trkpt lat="46.26623" lon="6.54506">
        <ele>954.2</ele>
        <time>2023-01-21T09:24:55.000Z</time>
      </trkpt>
      <trkpt lat="46.26623" lon="6.54508">
        <ele>954.6</ele>
        <time>2023-01-21T09:24:56.000Z</time>
      </trkpt>
      <trkpt lat="46.26624" lon="6.5451">
        <ele>955</ele>
        <time>2023-01-21T09:24:57.000Z</time>
      </trkpt>
      <trkpt lat="46.26624" lon="6.54511">
        <ele>955.2</ele>
        <time>2023-01-21T09:24:58.000Z</time>
      </trkpt>
      <trkpt lat="46.26624" lon="6.54511">
        <ele>955.3</ele>
        <time>2023-01-21T09:24:59.000Z</time>
      </trkpt>
      <trkpt lat="46.26624" lon="6.54512">
        <ele>955.5</ele>
        <time>2023-01-21T09:25:00.000Z</time>
      </trkpt>
      <trkpt lat="46.26625" lon="6.54513">
        <ele>955.7</ele>
        <time>2023-01-21T09:25:01.000Z</time>
      </trkpt>
      <trkpt lat="46.26624" lon="6.54513">
        <ele>955.1</ele>
        <time>2023-01-21T09:25:02.000Z</time>
      </trkpt>
      <trkpt lat="46.26625" lon="6.54514">
        <ele>955.2</ele>
        <time>2023-01-21T09:25:03.000Z</time>
      </trkpt>
      <trkpt lat="46.26626" lon="6.54515">
        <ele>955.6</ele>
        <time>2023-01-21T09:25:04.000Z</time>
      </trkpt>
      <trkpt lat="46.26626" lon="6.54516">
        <ele>956.1</ele>
        <time>2023-01-21T09:25:05.000Z</time>
      </trkpt>
      <trkpt lat="46.26627" lon="6.54517">
        <ele>956.6</ele>
        <time>2023-01-21T09:25:06.000Z</time>
      </trkpt>
      <trkpt lat="46.26627" lon="6.54518">
        <ele>956.9</ele>
        <time>2023-01-21T09:25:07.000Z</time>
      </trkpt>
      <trkpt lat="46.26628" lon="6.54519">
        <ele>956.4</ele>
        <time>2023-01-21T09:25:08.000Z</time>
      </trkpt>
      <trkpt lat="46.26628" lon="6.5452">
        <ele>956.4</ele>
        <time>2023-01-21T09:25:09.000Z</time>
      </trkpt>
      <trkpt lat="46.26629" lon="6.54521">
        <ele>956.9</ele>
        <time>2023-01-21T09:25:10.000Z</time>
      </trkpt>
      <trkpt lat="46.2663" lon="6.54522">
        <ele>957.2</ele>
        <time>2023-01-21T09:25:11.000Z</time>
      </trkpt>
      <trkpt lat="46.2663" lon="6.54522">
        <ele>957.5</ele>
        <time>2023-01-21T09:25:12.000Z</time>
      </trkpt>
      <trkpt lat="46.26631" lon="6.54523">
        <ele>957.7</ele>
        <time>2023-01-21T09:25:13.000Z</time>
      </trkpt>
      <trkpt lat="46.26632" lon="6.54524">
        <ele>958.1</ele>
        <time>2023-01-21T09:25:14.000Z</time>
      </trkpt>
      <trkpt lat="46.26632" lon="6.54525">
        <ele>958.5</ele>
        <time>2023-01-21T09:25:15.000Z</time>
      </trkpt>
      <trkpt lat="46.26633" lon="6.54526">
        <ele>958.9</ele>
        <time>2023-01-21T09:25:16.000Z</time>
      </trkpt>
      <trkpt lat="46.26634" lon="6.54527">
        <ele>959.1</ele>
        <time>2023-01-21T09:25:17.000Z</time>
      </trkpt>
      <trkpt lat="46.26634" lon="6.54528">
        <ele>959.5</ele>
        <time>2023-01-21T09:25:18.000Z</time>
      </trkpt>
      <trkpt lat="46.26634" lon="6.54529">
        <ele>959.7</ele>
        <time>2023-01-21T09:25:19.000Z</time>
      </trkpt>
      <trkpt lat="46.26636" lon="6.54529">
        <ele>960.1</ele>
        <time>2023-01-21T09:25:20.000Z</time>
      </trkpt>
      <trkpt lat="46.26636" lon="6.5453">
        <ele>960.4</ele>
        <time>2023-01-21T09:25:21.000Z</time>
      </trkpt>
      <trkpt lat="46.26637" lon="6.5453">
        <ele>960.7</ele>
        <time>2023-01-21T09:25:22.000Z</time>
      </trkpt>
      <trkpt lat="46.26637" lon="6.54531">
        <ele>960.8</ele>
        <time>2023-01-21T09:25:23.000Z</time>
      </trkpt>
      <trkpt lat="46.26638" lon="6.54532">
        <ele>960.8</ele>
        <time>2023-01-21T09:25:24.000Z</time>
      </trkpt>
      <trkpt lat="46.26639" lon="6.54533">
        <ele>960.9</ele>
        <time>2023-01-21T09:25:25.000Z</time>
      </trkpt>
      <trkpt lat="46.2664" lon="6.54535">
        <ele>961.1</ele>
        <time>2023-01-21T09:25:26.000Z</time>
      </trkpt>
      <trkpt lat="46.2664" lon="6.54536">
        <ele>961.2</ele>
        <time>2023-01-21T09:25:27.000Z</time>
      </trkpt>
      <trkpt lat="46.2664" lon="6.54538">
        <ele>961.3</ele>
        <time>2023-01-21T09:25:28.000Z</time>
      </trkpt>
      <trkpt lat="46.26641" lon="6.54539">
        <ele>961.5</ele>
        <time>2023-01-21T09:25:29.000Z</time>
      </trkpt>
      <trkpt lat="46.26641" lon="6.5454">
        <ele>961.7</ele>
        <time>2023-01-21T09:25:30.000Z</time>
      </trkpt>
      <trkpt lat="46.26642" lon="6.54541">
        <ele>961.7</ele>
        <time>2023-01-21T09:25:31.000Z</time>
      </trkpt>
      <trkpt lat="46.26642" lon="6.54542">
        <ele>961.8</ele>
        <time>2023-01-21T09:25:32.000Z</time>
      </trkpt>
      <trkpt lat="46.26642" lon="6.54543">
        <ele>962</ele>
        <time>2023-01-21T09:25:33.000Z</time>
      </trkpt>
      <trkpt lat="46.26643" lon="6.54544">
        <ele>962</ele>
        <time>2023-01-21T09:25:34.000Z</time>
      </trkpt>
      <trkpt lat="46.26643" lon="6.54545">
        <ele>962.2</ele>
        <time>2023-01-21T09:25:35.000Z</time>
      </trkpt>
      <trkpt lat="46.26644" lon="6.54546">
        <ele>962.4</ele>
        <time>2023-01-21T09:25:36.000Z</time>
      </trkpt>
      <trkpt lat="46.26644" lon="6.54546">
        <ele>962.6</ele>
        <time>2023-01-21T09:25:37.000Z</time>
      </trkpt>
      <trkpt lat="46.26645" lon="6.54547">
        <ele>962.3</ele>
        <time>2023-01-21T09:25:38.000Z</time>
      </trkpt>
      <trkpt lat="46.26645" lon="6.54548">
        <ele>962.4</ele>
        <time>2023-01-21T09:25:39.000Z</time>
      </trkpt>
      <trkpt lat="46.26646" lon="6.54548">
        <ele>962.4</ele>
        <time>2023-01-21T09:25:40.000Z</time>
      </trkpt>
      <trkpt lat="46.26647" lon="6.54549">
        <ele>962.4</ele>
        <time>2023-01-21T09:25:41.000Z</time>
      </trkpt>
      <trkpt lat="46.26647" lon="6.5455">
        <ele>962.5</ele>
        <time>2023-01-21T09:25:42.000Z</time>
      </trkpt>
      <trkpt lat="46.26648" lon="6.5455">
        <ele>962.4</ele>
        <time>2023-01-21T09:25:43.000Z</time>
      </trkpt>
      <trkpt lat="46.26648" lon="6.5455">
        <ele>962.1</ele>
        <time>2023-01-21T09:25:44.000Z</time>
      </trkpt>
      <trkpt lat="46.26648" lon="6.54551">
        <ele>961.9</ele>
        <time>2023-01-21T09:25:45.000Z</time>
      </trkpt>
      <trkpt lat="46.26649" lon="6.54552">
        <ele>961.8</ele>
        <time>2023-01-21T09:25:46.000Z</time>
      </trkpt>
      <trkpt lat="46.26649" lon="6.54553">
        <ele>961.9</ele>
        <time>2023-01-21T09:25:47.000Z</time>
      </trkpt>
      <trkpt lat="46.2665" lon="6.54554">
        <ele>961.9</ele>
        <time>2023-01-21T09:25:48.000Z</time>
      </trkpt>
      <trkpt lat="46.2665" lon="6.54555">
        <ele>961.7</ele>
        <time>2023-01-21T09:25:49.000Z</time>
      </trkpt>
      <trkpt lat="46.26651" lon="6.54556">
        <ele>961.2</ele>
        <time>2023-01-21T09:25:50.000Z</time>
      </trkpt>
      <trkpt lat="46.2665" lon="6.54557">
        <ele>960.6</ele>
        <time>2023-01-21T09:25:51.000Z</time>
      </trkpt>
      <trkpt lat="46.26651" lon="6.54558">
        <ele>960.6</ele>
        <time>2023-01-21T09:25:52.000Z</time>
      </trkpt>
      <trkpt lat="46.26651" lon="6.54558">
        <ele>960.5</ele>
        <time>2023-01-21T09:25:53.000Z</time>
      </trkpt>
      <trkpt lat="46.26651" lon="6.5456">
        <ele>960.8</ele>
        <time>2023-01-21T09:25:54.000Z</time>
      </trkpt>
      <trkpt lat="46.26651" lon="6.54561">
        <ele>961</ele>
        <time>2023-01-21T09:25:55.000Z</time>
      </trkpt>
      <trkpt lat="46.26651" lon="6.54563">
        <ele>961.2</ele>
        <time>2023-01-21T09:25:56.000Z</time>
      </trkpt>
      <trkpt lat="46.26651" lon="6.54563">
        <ele>961.3</ele>
        <time>2023-01-21T09:25:57.000Z</time>
      </trkpt>
      <trkpt lat="46.26651" lon="6.54563">
        <ele>961.2</ele>
        <time>2023-01-21T09:25:58.000Z</time>
      </trkpt>
      <trkpt lat="46.26651" lon="6.54564">
        <ele>960.8</ele>
        <time>2023-01-21T09:25:59.000Z</time>
      </trkpt>
      <trkpt lat="46.26652" lon="6.54563">
        <ele>960.3</ele>
        <time>2023-01-21T09:26:00.000Z</time>
      </trkpt>
      <trkpt lat="46.26652" lon="6.54564">
        <ele>959.8</ele>
        <time>2023-01-21T09:26:01.000Z</time>
      </trkpt>
      <trkpt lat="46.26652" lon="6.54565">
        <ele>959.6</ele>
        <time>2023-01-21T09:26:02.000Z</time>
      </trkpt>
      <trkpt lat="46.26652" lon="6.54567">
        <ele>959</ele>
        <time>2023-01-21T09:26:03.000Z</time>
      </trkpt>
      <trkpt lat="46.26652" lon="6.54568">
        <ele>958.4</ele>
        <time>2023-01-21T09:26:04.000Z</time>
      </trkpt>
      <trkpt lat="46.26652" lon="6.54569">
        <ele>958</ele>
        <time>2023-01-21T09:26:05.000Z</time>
      </trkpt>
      <trkpt lat="46.26652" lon="6.54569">
        <ele>957.2</ele>
        <time>2023-01-21T09:26:06.000Z</time>
      </trkpt>
      <trkpt lat="46.26652" lon="6.54571">
        <ele>957</ele>
        <time>2023-01-21T09:26:07.000Z</time>
      </trkpt>
      <trkpt lat="46.26653" lon="6.54571">
        <ele>956.9</ele>
        <time>2023-01-21T09:26:08.000Z</time>
      </trkpt>
      <trkpt lat="46.26653" lon="6.54572">
        <ele>957</ele>
        <time>2023-01-21T09:26:09.000Z</time>
      </trkpt>
      <trkpt lat="46.26653" lon="6.54573">
        <ele>956.5</ele>
        <time>2023-01-21T09:26:10.000Z</time>
      </trkpt>
      <trkpt lat="46.26654" lon="6.54574">
        <ele>956.9</ele>
        <time>2023-01-21T09:26:11.000Z</time>
      </trkpt>
      <trkpt lat="46.26654" lon="6.54575">
        <ele>956.6</ele>
        <time>2023-01-21T09:26:12.000Z</time>
      </trkpt>
      <trkpt lat="46.26655" lon="6.54576">
        <ele>955.7</ele>
        <time>2023-01-21T09:26:13.000Z</time>
      </trkpt>
      <trkpt lat="46.26656" lon="6.54578">
        <ele>956.1</ele>
        <time>2023-01-21T09:26:14.000Z</time>
      </trkpt>
      <trkpt lat="46.26657" lon="6.5458">
        <ele>956.6</ele>
        <time>2023-01-21T09:26:15.000Z</time>
      </trkpt>
      <trkpt lat="46.26657" lon="6.54582">
        <ele>956.7</ele>
        <time>2023-01-21T09:26:16.000Z</time>
      </trkpt>
      <trkpt lat="46.26658" lon="6.54584">
        <ele>956.9</ele>
        <time>2023-01-21T09:26:17.000Z</time>
      </trkpt>
      <trkpt lat="46.26659" lon="6.54586">
        <ele>957</ele>
        <time>2023-01-21T09:26:18.000Z</time>
      </trkpt>
      <trkpt lat="46.2666" lon="6.54587">
        <ele>956.8</ele>
        <time>2023-01-21T09:26:19.000Z</time>
      </trkpt>
      <trkpt lat="46.2666" lon="6.54589">
        <ele>957.2</ele>
        <time>2023-01-21T09:26:20.000Z</time>
      </trkpt>
      <trkpt lat="46.26661" lon="6.5459">
        <ele>957.3</ele>
        <time>2023-01-21T09:26:21.000Z</time>
      </trkpt>
      <trkpt lat="46.26662" lon="6.54592">
        <ele>957.8</ele>
        <time>2023-01-21T09:26:22.000Z</time>
      </trkpt>
      <trkpt lat="46.26663" lon="6.54594">
        <ele>958.3</ele>
        <time>2023-01-21T09:26:23.000Z</time>
      </trkpt>
      <trkpt lat="46.26664" lon="6.54595">
        <ele>959.1</ele>
        <time>2023-01-21T09:26:24.000Z</time>
      </trkpt>
      <trkpt lat="46.26664" lon="6.54597">
        <ele>959.2</ele>
        <time>2023-01-21T09:26:25.000Z</time>
      </trkpt>
      <trkpt lat="46.26664" lon="6.54598">
        <ele>959.3</ele>
        <time>2023-01-21T09:26:26.000Z</time>
      </trkpt>
      <trkpt lat="46.26665" lon="6.54599">
        <ele>959.5</ele>
        <time>2023-01-21T09:26:27.000Z</time>
      </trkpt>
      <trkpt lat="46.26665" lon="6.546">
        <ele>959.3</ele>
        <time>2023-01-21T09:26:28.000Z</time>
      </trkpt>
      <trkpt lat="46.26666" lon="6.54603">
        <ele>959.6</ele>
        <time>2023-01-21T09:26:29.000Z</time>
      </trkpt>
      <trkpt lat="46.26666" lon="6.54604">
        <ele>959.9</ele>
        <time>2023-01-21T09:26:30.000Z</time>
      </trkpt>
      <trkpt lat="46.26667" lon="6.54605">
        <ele>960.2</ele>
        <time>2023-01-21T09:26:31.000Z</time>
      </trkpt>
      <trkpt lat="46.26668" lon="6.54605">
        <ele>960.1</ele>
        <time>2023-01-21T09:26:32.000Z</time>
      </trkpt>
      <trkpt lat="46.26669" lon="6.54605">
        <ele>960.3</ele>
        <time>2023-01-21T09:26:33.000Z</time>
      </trkpt>
      <trkpt lat="46.26669" lon="6.54607">
        <ele>960.6</ele>
        <time>2023-01-21T09:26:34.000Z</time>
      </trkpt>
      <trkpt lat="46.2667" lon="6.54607">
        <ele>961</ele>
        <time>2023-01-21T09:26:35.000Z</time>
      </trkpt>
      <trkpt lat="46.2667" lon="6.54607">
        <ele>961.3</ele>
        <time>2023-01-21T09:26:36.000Z</time>
      </trkpt>
      <trkpt lat="46.2667" lon="6.54607">
        <ele>961.7</ele>
        <time>2023-01-21T09:26:37.000Z</time>
      </trkpt>
      <trkpt lat="46.2667" lon="6.54607">
        <ele>962.3</ele>
        <time>2023-01-21T09:26:38.000Z</time>
      </trkpt>
      <trkpt lat="46.2667" lon="6.54609">
        <ele>962.7</ele>
        <time>2023-01-21T09:26:39.000Z</time>
      </trkpt>
      <trkpt lat="46.26671" lon="6.5461">
        <ele>962.9</ele>
        <time>2023-01-21T09:26:40.000Z</time>
      </trkpt>
      <trkpt lat="46.26671" lon="6.54611">
        <ele>963.2</ele>
        <time>2023-01-21T09:26:41.000Z</time>
      </trkpt>
      <trkpt lat="46.26672" lon="6.54612">
        <ele>963.4</ele>
        <time>2023-01-21T09:26:42.000Z</time>
      </trkpt>
      <trkpt lat="46.26673" lon="6.54613">
        <ele>963.1</ele>
        <time>2023-01-21T09:26:43.000Z</time>
      </trkpt>
      <trkpt lat="46.26675" lon="6.54614">
        <ele>963.1</ele>
        <time>2023-01-21T09:26:44.000Z</time>
      </trkpt>
      <trkpt lat="46.26674" lon="6.54616">
        <ele>962.7</ele>
        <time>2023-01-21T09:26:45.000Z</time>
      </trkpt>
      <trkpt lat="46.26675" lon="6.54618">
        <ele>962.4</ele>
        <time>2023-01-21T09:26:46.000Z</time>
      </trkpt>
      <trkpt lat="46.26675" lon="6.54619">
        <ele>962.4</ele>
        <time>2023-01-21T09:26:47.000Z</time>
      </trkpt>
      <trkpt lat="46.26675" lon="6.54619">
        <ele>962.3</ele>
        <time>2023-01-21T09:26:48.000Z</time>
      </trkpt>
      <trkpt lat="46.26675" lon="6.5462">
        <ele>962</ele>
        <time>2023-01-21T09:26:49.000Z</time>
      </trkpt>
      <trkpt lat="46.26676" lon="6.54621">
        <ele>961.9</ele>
        <time>2023-01-21T09:26:50.000Z</time>
      </trkpt>
      <trkpt lat="46.26675" lon="6.54621">
        <ele>961.9</ele>
        <time>2023-01-21T09:26:51.000Z</time>
      </trkpt>
      <trkpt lat="46.26676" lon="6.54622">
        <ele>962.1</ele>
        <time>2023-01-21T09:26:52.000Z</time>
      </trkpt>
      <trkpt lat="46.26676" lon="6.54623">
        <ele>961.9</ele>
        <time>2023-01-21T09:26:53.000Z</time>
      </trkpt>
      <trkpt lat="46.26676" lon="6.54623">
        <ele>962.2</ele>
        <time>2023-01-21T09:26:54.000Z</time>
      </trkpt>
      <trkpt lat="46.26676" lon="6.54624">
        <ele>962.2</ele>
        <time>2023-01-21T09:26:55.000Z</time>
      </trkpt>
      <trkpt lat="46.26676" lon="6.54626">
        <ele>962.3</ele>
        <time>2023-01-21T09:26:56.000Z</time>
      </trkpt>
      <trkpt lat="46.26676" lon="6.54627">
        <ele>962.1</ele>
        <time>2023-01-21T09:26:57.000Z</time>
      </trkpt>
      <trkpt lat="46.26675" lon="6.54628">
        <ele>962.2</ele>
        <time>2023-01-21T09:26:58.000Z</time>
      </trkpt>
      <trkpt lat="46.26675" lon="6.5463">
        <ele>962.2</ele>
        <time>2023-01-21T09:26:59.000Z</time>
      </trkpt>
      <trkpt lat="46.26676" lon="6.54631">
        <ele>962.3</ele>
        <time>2023-01-21T09:27:00.000Z</time>
      </trkpt>
      <trkpt lat="46.26676" lon="6.54632">
        <ele>962.3</ele>
        <time>2023-01-21T09:27:01.000Z</time>
      </trkpt>
      <trkpt lat="46.26677" lon="6.54633">
        <ele>962.6</ele>
        <time>2023-01-21T09:27:02.000Z</time>
      </trkpt>
      <trkpt lat="46.26677" lon="6.54634">
        <ele>963</ele>
        <time>2023-01-21T09:27:03.000Z</time>
      </trkpt>
      <trkpt lat="46.26678" lon="6.54636">
        <ele>963.6</ele>
        <time>2023-01-21T09:27:04.000Z</time>
      </trkpt>
      <trkpt lat="46.26678" lon="6.54637">
        <ele>964.2</ele>
        <time>2023-01-21T09:27:05.000Z</time>
      </trkpt>
      <trkpt lat="46.26678" lon="6.54639">
        <ele>964.7</ele>
        <time>2023-01-21T09:27:06.000Z</time>
      </trkpt>
      <trkpt lat="46.26679" lon="6.54641">
        <ele>965.3</ele>
        <time>2023-01-21T09:27:07.000Z</time>
      </trkpt>
      <trkpt lat="46.26679" lon="6.54642">
        <ele>966.1</ele>
        <time>2023-01-21T09:27:08.000Z</time>
      </trkpt>
      <trkpt lat="46.2668" lon="6.54643">
        <ele>966.9</ele>
        <time>2023-01-21T09:27:09.000Z</time>
      </trkpt>
      <trkpt lat="46.26681" lon="6.54644">
        <ele>967.2</ele>
        <time>2023-01-21T09:27:10.000Z</time>
      </trkpt>
      <trkpt lat="46.26681" lon="6.54645">
        <ele>967.5</ele>
        <time>2023-01-21T09:27:11.000Z</time>
      </trkpt>
      <trkpt lat="46.26682" lon="6.54646">
        <ele>968.3</ele>
        <time>2023-01-21T09:27:12.000Z</time>
      </trkpt>
      <trkpt lat="46.26683" lon="6.54647">
        <ele>968.6</ele>
        <time>2023-01-21T09:27:13.000Z</time>
      </trkpt>
      <trkpt lat="46.26684" lon="6.54648">
        <ele>968.9</ele>
        <time>2023-01-21T09:27:14.000Z</time>
      </trkpt>
      <trkpt lat="46.26684" lon="6.54648">
        <ele>969</ele>
        <time>2023-01-21T09:27:15.000Z</time>
      </trkpt>
      <trkpt lat="46.26684" lon="6.5465">
        <ele>969</ele>
        <time>2023-01-21T09:27:16.000Z</time>
      </trkpt>
      <trkpt lat="46.26685" lon="6.5465">
        <ele>969.2</ele>
        <time>2023-01-21T09:27:17.000Z</time>
      </trkpt>
      <trkpt lat="46.26685" lon="6.5465">
        <ele>969.2</ele>
        <time>2023-01-21T09:27:18.000Z</time>
      </trkpt>
      <trkpt lat="46.26686" lon="6.54651">
        <ele>969.2</ele>
        <time>2023-01-21T09:27:19.000Z</time>
      </trkpt>
      <trkpt lat="46.26686" lon="6.54652">
        <ele>969.4</ele>
        <time>2023-01-21T09:27:20.000Z</time>
      </trkpt>
      <trkpt lat="46.26686" lon="6.54653">
        <ele>969.6</ele>
        <time>2023-01-21T09:27:21.000Z</time>
      </trkpt>
      <trkpt lat="46.26686" lon="6.54655">
        <ele>969.8</ele>
        <time>2023-01-21T09:27:22.000Z</time>
      </trkpt>
      <trkpt lat="46.26686" lon="6.54656">
        <ele>969.9</ele>
        <time>2023-01-21T09:27:23.000Z</time>
      </trkpt>
      <trkpt lat="46.26686" lon="6.54657">
        <ele>969.5</ele>
        <time>2023-01-21T09:27:24.000Z</time>
      </trkpt>
      <trkpt lat="46.26686" lon="6.54658">
        <ele>969.2</ele>
        <time>2023-01-21T09:27:25.000Z</time>
      </trkpt>
      <trkpt lat="46.26687" lon="6.54659">
        <ele>968.9</ele>
        <time>2023-01-21T09:27:26.000Z</time>
      </trkpt>
      <trkpt lat="46.26687" lon="6.5466">
        <ele>968.8</ele>
        <time>2023-01-21T09:27:27.000Z</time>
      </trkpt>
      <trkpt lat="46.26688" lon="6.54661">
        <ele>968.8</ele>
        <time>2023-01-21T09:27:28.000Z</time>
      </trkpt>
      <trkpt lat="46.26688" lon="6.54662">
        <ele>968.8</ele>
        <time>2023-01-21T09:27:29.000Z</time>
      </trkpt>
      <trkpt lat="46.26689" lon="6.54664">
        <ele>968.8</ele>
        <time>2023-01-21T09:27:30.000Z</time>
      </trkpt>
      <trkpt lat="46.26689" lon="6.54665">
        <ele>968.8</ele>
        <time>2023-01-21T09:27:31.000Z</time>
      </trkpt>
      <trkpt lat="46.2669" lon="6.54666">
        <ele>969</ele>
        <time>2023-01-21T09:27:32.000Z</time>
      </trkpt>
      <trkpt lat="46.26689" lon="6.54668">
        <ele>969.1</ele>
        <time>2023-01-21T09:27:33.000Z</time>
      </trkpt>
      <trkpt lat="46.2669" lon="6.5467">
        <ele>969.4</ele>
        <time>2023-01-21T09:27:34.000Z</time>
      </trkpt>
      <trkpt lat="46.2669" lon="6.5467">
        <ele>969.4</ele>
        <time>2023-01-21T09:27:35.000Z</time>
      </trkpt>
      <trkpt lat="46.26691" lon="6.54671">
        <ele>969.6</ele>
        <time>2023-01-21T09:27:36.000Z</time>
      </trkpt>
      <trkpt lat="46.26692" lon="6.54671">
        <ele>970</ele>
        <time>2023-01-21T09:27:37.000Z</time>
      </trkpt>
      <trkpt lat="46.26693" lon="6.54671">
        <ele>969.9</ele>
        <time>2023-01-21T09:27:38.000Z</time>
      </trkpt>
      <trkpt lat="46.26693" lon="6.54672">
        <ele>969.9</ele>
        <time>2023-01-21T09:27:39.000Z</time>
      </trkpt>
      <trkpt lat="46.26694" lon="6.54674">
        <ele>969.7</ele>
        <time>2023-01-21T09:27:40.000Z</time>
      </trkpt>
      <trkpt lat="46.26694" lon="6.54674">
        <ele>969.8</ele>
        <time>2023-01-21T09:27:41.000Z</time>
      </trkpt>
      <trkpt lat="46.26694" lon="6.54676">
        <ele>969.6</ele>
        <time>2023-01-21T09:27:42.000Z</time>
      </trkpt>
      <trkpt lat="46.26695" lon="6.54677">
        <ele>969.3</ele>
        <time>2023-01-21T09:27:43.000Z</time>
      </trkpt>
      <trkpt lat="46.26695" lon="6.54678">
        <ele>969.4</ele>
        <time>2023-01-21T09:27:44.000Z</time>
      </trkpt>
      <trkpt lat="46.26695" lon="6.54679">
        <ele>969.7</ele>
        <time>2023-01-21T09:27:45.000Z</time>
      </trkpt>
      <trkpt lat="46.26696" lon="6.54679">
        <ele>969.1</ele>
        <time>2023-01-21T09:27:46.000Z</time>
      </trkpt>
      <trkpt lat="46.26696" lon="6.54681">
        <ele>969</ele>
        <time>2023-01-21T09:27:47.000Z</time>
      </trkpt>
      <trkpt lat="46.26697" lon="6.54681">
        <ele>968.7</ele>
        <time>2023-01-21T09:27:48.000Z</time>
      </trkpt>
      <trkpt lat="46.26696" lon="6.54682">
        <ele>968.5</ele>
        <time>2023-01-21T09:27:49.000Z</time>
      </trkpt>
      <trkpt lat="46.26697" lon="6.54682">
        <ele>967.8</ele>
        <time>2023-01-21T09:27:50.000Z</time>
      </trkpt>
      <trkpt lat="46.26698" lon="6.54682">
        <ele>967.1</ele>
        <time>2023-01-21T09:27:51.000Z</time>
      </trkpt>
      <trkpt lat="46.26699" lon="6.54681">
        <ele>966.7</ele>
        <time>2023-01-21T09:27:52.000Z</time>
      </trkpt>
      <trkpt lat="46.26699" lon="6.54681">
        <ele>966.4</ele>
        <time>2023-01-21T09:27:53.000Z</time>
      </trkpt>
      <trkpt lat="46.267" lon="6.54681">
        <ele>966.3</ele>
        <time>2023-01-21T09:27:54.000Z</time>
      </trkpt>
      <trkpt lat="46.26701" lon="6.5468">
        <ele>965.7</ele>
        <time>2023-01-21T09:27:55.000Z</time>
      </trkpt>
      <trkpt lat="46.26702" lon="6.54679">
        <ele>965.1</ele>
        <time>2023-01-21T09:27:56.000Z</time>
      </trkpt>
      <trkpt lat="46.26702" lon="6.54678">
        <ele>964.5</ele>
        <time>2023-01-21T09:27:57.000Z</time>
      </trkpt>
      <trkpt lat="46.26702" lon="6.54678">
        <ele>963.8</ele>
        <time>2023-01-21T09:27:58.000Z</time>
      </trkpt>
      <trkpt lat="46.26703" lon="6.54678">
        <ele>963.2</ele>
        <time>2023-01-21T09:27:59.000Z</time>
      </trkpt>
      <trkpt lat="46.26703" lon="6.54678">
        <ele>962.7</ele>
        <time>2023-01-21T09:28:00.000Z</time>
      </trkpt>
      <trkpt lat="46.26703" lon="6.54679">
        <ele>962.3</ele>
        <time>2023-01-21T09:28:01.000Z</time>
      </trkpt>
      <trkpt lat="46.26702" lon="6.54679">
        <ele>962.3</ele>
        <time>2023-01-21T09:28:02.000Z</time>
      </trkpt>
      <trkpt lat="46.26702" lon="6.54679">
        <ele>962.1</ele>
        <time>2023-01-21T09:28:03.000Z</time>
      </trkpt>
      <trkpt lat="46.26703" lon="6.54679">
        <ele>961.9</ele>
        <time>2023-01-21T09:28:04.000Z</time>
      </trkpt>
      <trkpt lat="46.26704" lon="6.54678">
        <ele>962</ele>
        <time>2023-01-21T09:28:05.000Z</time>
      </trkpt>
      <trkpt lat="46.26705" lon="6.54679">
        <ele>962.3</ele>
        <time>2023-01-21T09:28:06.000Z</time>
      </trkpt>
      <trkpt lat="46.26705" lon="6.54679">
        <ele>962.6</ele>
        <time>2023-01-21T09:28:07.000Z</time>
      </trkpt>
      <trkpt lat="46.26705" lon="6.54679">
        <ele>963</ele>
        <time>2023-01-21T09:28:08.000Z</time>
      </trkpt>
      <trkpt lat="46.26705" lon="6.54679">
        <ele>963.2</ele>
        <time>2023-01-21T09:28:09.000Z</time>
      </trkpt>
      <trkpt lat="46.26705" lon="6.54679">
        <ele>963.3</ele>
        <time>2023-01-21T09:28:10.000Z</time>
      </trkpt>
      <trkpt lat="46.26705" lon="6.5468">
        <ele>963.5</ele>
        <time>2023-01-21T09:28:11.000Z</time>
      </trkpt>
      <trkpt lat="46.26704" lon="6.5468">
        <ele>963.5</ele>
        <time>2023-01-21T09:28:12.000Z</time>
      </trkpt>
      <trkpt lat="46.26703" lon="6.54679">
        <ele>963.4</ele>
        <time>2023-01-21T09:28:13.000Z</time>
      </trkpt>
      <trkpt lat="46.26703" lon="6.54679">
        <ele>962.9</ele>
        <time>2023-01-21T09:28:14.000Z</time>
      </trkpt>
      <trkpt lat="46.26702" lon="6.5468">
        <ele>961.7</ele>
        <time>2023-01-21T09:28:15.000Z</time>
      </trkpt>
      <trkpt lat="46.26701" lon="6.54681">
        <ele>960.9</ele>
        <time>2023-01-21T09:28:16.000Z</time>
      </trkpt>
      <trkpt lat="46.26701" lon="6.54682">
        <ele>960.7</ele>
        <time>2023-01-21T09:28:17.000Z</time>
      </trkpt>
      <trkpt lat="46.26699" lon="6.54683">
        <ele>960.6</ele>
        <time>2023-01-21T09:28:18.000Z</time>
      </trkpt>
      <trkpt lat="46.26697" lon="6.54685">
        <ele>960.5</ele>
        <time>2023-01-21T09:28:19.000Z</time>
      </trkpt>
      <trkpt lat="46.26696" lon="6.54686">
        <ele>960.3</ele>
        <time>2023-01-21T09:28:20.000Z</time>
      </trkpt>
      <trkpt lat="46.26696" lon="6.54687">
        <ele>960</ele>
        <time>2023-01-21T09:28:21.000Z</time>
      </trkpt>
      <trkpt lat="46.26697" lon="6.54687">
        <ele>960.4</ele>
        <time>2023-01-21T09:28:22.000Z</time>
      </trkpt>
      <trkpt lat="46.26697" lon="6.54687">
        <ele>960.3</ele>
        <time>2023-01-21T09:28:23.000Z</time>
      </trkpt>
      <trkpt lat="46.26698" lon="6.54686">
        <ele>960.2</ele>
        <time>2023-01-21T09:28:24.000Z</time>
      </trkpt>
      <trkpt lat="46.26699" lon="6.54687">
        <ele>960</ele>
        <time>2023-01-21T09:28:25.000Z</time>
      </trkpt>
      <trkpt lat="46.267" lon="6.54687">
        <ele>959.8</ele>
        <time>2023-01-21T09:28:26.000Z</time>
      </trkpt>
      <trkpt lat="46.267" lon="6.54687">
        <ele>959.4</ele>
        <time>2023-01-21T09:28:27.000Z</time>
      </trkpt>
      <trkpt lat="46.267" lon="6.54687">
        <ele>959.1</ele>
        <time>2023-01-21T09:28:28.000Z</time>
      </trkpt>
      <trkpt lat="46.26699" lon="6.54687">
        <ele>958.9</ele>
        <time>2023-01-21T09:28:29.000Z</time>
      </trkpt>
      <trkpt lat="46.26699" lon="6.54687">
        <ele>958.7</ele>
        <time>2023-01-21T09:28:30.000Z</time>
      </trkpt>
      <trkpt lat="46.26699" lon="6.54687">
        <ele>958.5</ele>
        <time>2023-01-21T09:28:31.000Z</time>
      </trkpt>
      <trkpt lat="46.267" lon="6.54686">
        <ele>958.3</ele>
        <time>2023-01-21T09:28:32.000Z</time>
      </trkpt>
      <trkpt lat="46.267" lon="6.54686">
        <ele>958.3</ele>
        <time>2023-01-21T09:28:33.000Z</time>
      </trkpt>
      <trkpt lat="46.267" lon="6.54686">
        <ele>958.4</ele>
        <time>2023-01-21T09:28:34.000Z</time>
      </trkpt>
      <trkpt lat="46.26701" lon="6.54686">
        <ele>958.4</ele>
        <time>2023-01-21T09:28:35.000Z</time>
      </trkpt>
      <trkpt lat="46.26702" lon="6.54685">
        <ele>958.3</ele>
        <time>2023-01-21T09:28:36.000Z</time>
      </trkpt>
      <trkpt lat="46.26702" lon="6.54685">
        <ele>958.3</ele>
        <time>2023-01-21T09:28:37.000Z</time>
      </trkpt>
      <trkpt lat="46.26703" lon="6.54685">
        <ele>958.5</ele>
        <time>2023-01-21T09:28:38.000Z</time>
      </trkpt>
      <trkpt lat="46.26702" lon="6.54686">
        <ele>958.9</ele>
        <time>2023-01-21T09:28:39.000Z</time>
      </trkpt>
      <trkpt lat="46.26702" lon="6.54686">
        <ele>959</ele>
        <time>2023-01-21T09:28:40.000Z</time>
      </trkpt>
      <trkpt lat="46.26703" lon="6.54686">
        <ele>959.3</ele>
        <time>2023-01-21T09:28:41.000Z</time>
      </trkpt>
      <trkpt lat="46.26703" lon="6.54686">
        <ele>959.6</ele>
        <time>2023-01-21T09:28:42.000Z</time>
      </trkpt>
      <trkpt lat="46.26703" lon="6.54685">
        <ele>959.6</ele>
        <time>2023-01-21T09:28:43.000Z</time>
      </trkpt>
      <trkpt lat="46.26703" lon="6.54684">
        <ele>959.8</ele>
        <time>2023-01-21T09:28:44.000Z</time>
      </trkpt>
      <trkpt lat="46.26703" lon="6.54683">
        <ele>959.9</ele>
        <time>2023-01-21T09:28:45.000Z</time>
      </trkpt>
      <trkpt lat="46.26702" lon="6.54683">
        <ele>960</ele>
        <time>2023-01-21T09:28:46.000Z</time>
      </trkpt>
      <trkpt lat="46.26701" lon="6.54683">
        <ele>960.5</ele>
        <time>2023-01-21T09:28:47.000Z</time>
      </trkpt>
      <trkpt lat="46.26701" lon="6.54683">
        <ele>961.1</ele>
        <time>2023-01-21T09:28:48.000Z</time>
      </trkpt>
      <trkpt lat="46.26701" lon="6.54684">
        <ele>961</ele>
        <time>2023-01-21T09:28:49.000Z</time>
      </trkpt>
      <trkpt lat="46.26701" lon="6.54684">
        <ele>961</ele>
        <time>2023-01-21T09:28:50.000Z</time>
      </trkpt>
      <trkpt lat="46.26701" lon="6.54684">
        <ele>961</ele>
        <time>2023-01-21T09:28:51.000Z</time>
      </trkpt>
      <trkpt lat="46.26701" lon="6.54684">
        <ele>961</ele>
        <time>2023-01-21T09:28:52.000Z</time>
      </trkpt>
      <trkpt lat="46.26701" lon="6.54684">
        <ele>961</ele>
        <time>2023-01-21T09:28:53.000Z</time>
      </trkpt>
      <trkpt lat="46.26701" lon="6.54684">
        <ele>961</ele>
        <time>2023-01-21T09:28:54.000Z</time>
      </trkpt>
      <trkpt lat="46.26701" lon="6.54684">
        <ele>961</ele>
        <time>2023-01-21T09:28:55.000Z</time>
      </trkpt>
      <trkpt lat="46.26701" lon="6.54684">
        <ele>961</ele>
        <time>2023-01-21T09:28:56.000Z</time>
      </trkpt>
      <trkpt lat="46.26701" lon="6.54684">
        <ele>961</ele>
        <time>2023-01-21T09:28:57.000Z</time>
      </trkpt>
      <trkpt lat="46.26701" lon="6.54684">
        <ele>961</ele>
        <time>2023-01-21T09:28:58.000Z</time>
      </trkpt>
      <trkpt lat="46.26701" lon="6.54684">
        <ele>961</ele>
        <time>2023-01-21T09:28:59.000Z</time>
      </trkpt>
      <trkpt lat="46.26701" lon="6.54684">
        <ele>961</ele>
        <time>2023-01-21T09:29:00.000Z</time>
      </trkpt>
      <trkpt lat="46.26701" lon="6.54684">
        <ele>961</ele>
        <time>2023-01-21T09:29:01.000Z</time>
      </trkpt>
      <trkpt lat="46.26701" lon="6.54684">
        <ele>961</ele>
        <time>2023-01-21T09:29:02.000Z</time>
      </trkpt>
      <trkpt lat="46.26701" lon="6.54684">
        <ele>961</ele>
        <time>2023-01-21T09:29:03.000Z</time>
      </trkpt>
      <trkpt lat="46.26701" lon="6.54684">
        <ele>961</ele>
        <time>2023-01-21T09:29:04.000Z</time>
      </trkpt>
      <trkpt lat="46.26701" lon="6.54684">
        <ele>961</ele>
        <time>2023-01-21T09:29:05.000Z</time>
      </trkpt>
      <trkpt lat="46.26701" lon="6.54684">
        <ele>961</ele>
        <time>2023-01-21T09:29:06.000Z</time>
      </trkpt>
      <trkpt lat="46.26701" lon="6.54684">
        <ele>961</ele>
        <time>2023-01-21T09:29:07.000Z</time>
      </trkpt>
      <trkpt lat="46.26701" lon="6.54684">
        <ele>961</ele>
        <time>2023-01-21T09:29:08.000Z</time>
      </trkpt>
      <trkpt lat="46.26701" lon="6.54684">
        <ele>961</ele>
        <time>2023-01-21T09:29:09.000Z</time>
      </trkpt>
      <trkpt lat="46.26701" lon="6.54684">
        <ele>961</ele>
        <time>2023-01-21T09:29:10.000Z</time>
      </trkpt>
      <trkpt lat="46.26701" lon="6.54684">
        <ele>961</ele>
        <time>2023-01-21T09:29:11.000Z</time>
      </trkpt>
      <trkpt lat="46.26701" lon="6.54684">
        <ele>961</ele>
        <time>2023-01-21T09:29:12.000Z</time>
      </trkpt>
      <trkpt lat="46.26701" lon="6.54684">
        <ele>961</ele>
        <time>2023-01-21T09:29:13.000Z</time>
      </trkpt>
      <trkpt lat="46.26701" lon="6.54684">
        <ele>961</ele>
        <time>2023-01-21T09:29:14.000Z</time>
      </trkpt>
      <trkpt lat="46.26701" lon="6.54684">
        <ele>961</ele>
        <time>2023-01-21T09:29:15.000Z</time>
      </trkpt>
      <trkpt lat="46.26701" lon="6.54684">
        <ele>961</ele>
        <time>2023-01-21T09:29:16.000Z</time>
      </trkpt>
      <trkpt lat="46.26701" lon="6.54684">
        <ele>961</ele>
        <time>2023-01-21T09:29:17.000Z</time>
      </trkpt>
      <trkpt lat="46.26701" lon="6.54684">
        <ele>961</ele>
        <time>2023-01-21T09:29:18.000Z</time>
      </trkpt>
      <trkpt lat="46.26701" lon="6.54684">
        <ele>961</ele>
        <time>2023-01-21T09:29:19.000Z</time>
      </trkpt>
      <trkpt lat="46.26701" lon="6.54684">
        <ele>961</ele>
        <time>2023-01-21T09:29:20.000Z</time>
      </trkpt>
      <trkpt lat="46.26701" lon="6.54684">
        <ele>961</ele>
        <time>2023-01-21T09:29:21.000Z</time>
      </trkpt>
      <trkpt lat="46.26701" lon="6.54684">
        <ele>961</ele>
        <time>2023-01-21T09:29:22.000Z</time>
      </trkpt>
      <trkpt lat="46.26701" lon="6.54684">
        <ele>961</ele>
        <time>2023-01-21T09:29:23.000Z</time>
      </trkpt>
      <trkpt lat="46.26701" lon="6.54684">
        <ele>961</ele>
        <time>2023-01-21T09:29:24.000Z</time>
      </trkpt>
      <trkpt lat="46.26701" lon="6.54684">
        <ele>961</ele>
        <time>2023-01-21T09:29:25.000Z</time>
      </trkpt>
      <trkpt lat="46.26701" lon="6.54684">
        <ele>961</ele>
        <time>2023-01-21T09:29:26.000Z</time>
      </trkpt>
      <trkpt lat="46.26701" lon="6.54684">
        <ele>961</ele>
        <time>2023-01-21T09:29:27.000Z</time>
      </trkpt>
      <trkpt lat="46.26701" lon="6.54684">
        <ele>961</ele>
        <time>2023-01-21T09:29:28.000Z</time>
      </trkpt>
      <trkpt lat="46.26701" lon="6.54684">
        <ele>961</ele>
        <time>2023-01-21T09:29:29.000Z</time>
      </trkpt>
      <trkpt lat="46.26701" lon="6.54684">
        <ele>961</ele>
        <time>2023-01-21T09:29:30.000Z</time>
      </trkpt>
      <trkpt lat="46.26701" lon="6.54684">
        <ele>961</ele>
        <time>2023-01-21T09:29:31.000Z</time>
      </trkpt>
      <trkpt lat="46.26701" lon="6.54684">
        <ele>961</ele>
        <time>2023-01-21T09:29:32.000Z</time>
      </trkpt>
      <trkpt lat="46.26701" lon="6.54684">
        <ele>961</ele>
        <time>2023-01-21T09:29:33.000Z</time>
      </trkpt>
      <trkpt lat="46.26701" lon="6.54684">
        <ele>961</ele>
        <time>2023-01-21T09:29:34.000Z</time>
      </trkpt>
      <trkpt lat="46.26701" lon="6.54684">
        <ele>961</ele>
        <time>2023-01-21T09:29:35.000Z</time>
      </trkpt>
      <trkpt lat="46.26701" lon="6.54684">
        <ele>961</ele>
        <time>2023-01-21T09:29:36.000Z</time>
      </trkpt>
      <trkpt lat="46.26701" lon="6.54684">
        <ele>956.8</ele>
        <time>2023-01-21T09:29:37.000Z</time>
      </trkpt>
      <trkpt lat="46.26701" lon="6.54684">
        <ele>956.8</ele>
        <time>2023-01-21T09:29:38.000Z</time>
      </trkpt>
      <trkpt lat="46.26701" lon="6.54684">
        <ele>956.8</ele>
        <time>2023-01-21T09:29:39.000Z</time>
      </trkpt>
      <trkpt lat="46.26701" lon="6.54684">
        <ele>956.8</ele>
        <time>2023-01-21T09:29:40.000Z</time>
      </trkpt>
      <trkpt lat="46.26701" lon="6.54684">
        <ele>956.8</ele>
        <time>2023-01-21T09:29:41.000Z</time>
      </trkpt>
      <trkpt lat="46.26701" lon="6.54684">
        <ele>956.8</ele>
        <time>2023-01-21T09:29:42.000Z</time>
      </trkpt>
      <trkpt lat="46.26701" lon="6.54684">
        <ele>956.8</ele>
        <time>2023-01-21T09:29:43.000Z</time>
      </trkpt>
      <trkpt lat="46.26701" lon="6.54684">
        <ele>956.8</ele>
        <time>2023-01-21T09:29:44.000Z</time>
      </trkpt>
      <trkpt lat="46.26701" lon="6.54684">
        <ele>956.8</ele>
        <time>2023-01-21T09:29:45.000Z</time>
      </trkpt>
      <trkpt lat="46.26701" lon="6.54684">
        <ele>956.8</ele>
        <time>2023-01-21T09:29:46.000Z</time>
      </trkpt>
      <trkpt lat="46.26701" lon="6.54684">
        <ele>956.8</ele>
        <time>2023-01-21T09:29:47.000Z</time>
      </trkpt>
      <trkpt lat="46.26701" lon="6.54684">
        <ele>956.8</ele>
        <time>2023-01-21T09:29:48.000Z</time>
      </trkpt>
      <trkpt lat="46.26703" lon="6.54681">
        <ele>956.1</ele>
        <time>2023-01-21T09:29:49.000Z</time>
      </trkpt>
      <trkpt lat="46.26703" lon="6.5468">
        <ele>955.9</ele>
        <time>2023-01-21T09:29:50.000Z</time>
      </trkpt>
      <trkpt lat="46.26704" lon="6.54679">
        <ele>955.7</ele>
        <time>2023-01-21T09:29:51.000Z</time>
      </trkpt>
      <trkpt lat="46.26704" lon="6.54678">
        <ele>955.9</ele>
        <time>2023-01-21T09:29:52.000Z</time>
      </trkpt>
      <trkpt lat="46.26705" lon="6.54677">
        <ele>956.1</ele>
        <time>2023-01-21T09:29:53.000Z</time>
      </trkpt>
      <trkpt lat="46.26706" lon="6.54677">
        <ele>956.2</ele>
        <time>2023-01-21T09:29:54.000Z</time>
      </trkpt>
      <trkpt lat="46.26706" lon="6.54676">
        <ele>956.3</ele>
        <time>2023-01-21T09:29:55.000Z</time>
      </trkpt>
      <trkpt lat="46.26706" lon="6.54676">
        <ele>956.5</ele>
        <time>2023-01-21T09:29:56.000Z</time>
      </trkpt>
      <trkpt lat="46.26706" lon="6.54677">
        <ele>956.8</ele>
        <time>2023-01-21T09:29:57.000Z</time>
      </trkpt>
      <trkpt lat="46.26706" lon="6.54677">
        <ele>957.2</ele>
        <time>2023-01-21T09:29:58.000Z</time>
      </trkpt>
      <trkpt lat="46.26706" lon="6.54677">
        <ele>957.4</ele>
        <time>2023-01-21T09:29:59.000Z</time>
      </trkpt>
      <trkpt lat="46.26707" lon="6.54677">
        <ele>957.4</ele>
        <time>2023-01-21T09:30:00.000Z</time>
      </trkpt>
      <trkpt lat="46.26707" lon="6.54677">
        <ele>957.5</ele>
        <time>2023-01-21T09:30:01.000Z</time>
      </trkpt>
      <trkpt lat="46.26706" lon="6.54678">
        <ele>957.6</ele>
        <time>2023-01-21T09:30:02.000Z</time>
      </trkpt>
      <trkpt lat="46.26703" lon="6.54679">
        <ele>957.3</ele>
        <time>2023-01-21T09:30:03.000Z</time>
      </trkpt>
      <trkpt lat="46.26703" lon="6.54679">
        <ele>957.3</ele>
        <time>2023-01-21T09:30:04.000Z</time>
      </trkpt>
      <trkpt lat="46.26703" lon="6.54679">
        <ele>957.3</ele>
        <time>2023-01-21T09:30:05.000Z</time>
      </trkpt>
      <trkpt lat="46.26703" lon="6.54679">
        <ele>957.3</ele>
        <time>2023-01-21T09:30:06.000Z</time>
      </trkpt>
      <trkpt lat="46.26703" lon="6.54679">
        <ele>957.3</ele>
        <time>2023-01-21T09:30:07.000Z</time>
      </trkpt>
      <trkpt lat="46.26703" lon="6.54679">
        <ele>957.3</ele>
        <time>2023-01-21T09:30:08.000Z</time>
      </trkpt>
      <trkpt lat="46.26703" lon="6.54679">
        <ele>957.3</ele>
        <time>2023-01-21T09:30:09.000Z</time>
      </trkpt>
      <trkpt lat="46.26703" lon="6.54679">
        <ele>957.3</ele>
        <time>2023-01-21T09:30:10.000Z</time>
      </trkpt>
      <trkpt lat="46.26703" lon="6.54679">
        <ele>957.3</ele>
        <time>2023-01-21T09:30:11.000Z</time>
      </trkpt>
      <trkpt lat="46.26703" lon="6.54679">
        <ele>957.3</ele>
        <time>2023-01-21T09:30:12.000Z</time>
      </trkpt>
      <trkpt lat="46.26703" lon="6.54679">
        <ele>957.3</ele>
        <time>2023-01-21T09:30:13.000Z</time>
      </trkpt>
      <trkpt lat="46.26703" lon="6.54679">
        <ele>957.3</ele>
        <time>2023-01-21T09:30:14.000Z</time>
      </trkpt>
      <trkpt lat="46.26703" lon="6.54679">
        <ele>957.3</ele>
        <time>2023-01-21T09:30:15.000Z</time>
      </trkpt>
      <trkpt lat="46.26703" lon="6.54679">
        <ele>957.3</ele>
        <time>2023-01-21T09:30:16.000Z</time>
      </trkpt>
      <trkpt lat="46.26703" lon="6.54679">
        <ele>957.3</ele>
        <time>2023-01-21T09:30:17.000Z</time>
      </trkpt>
      <trkpt lat="46.26703" lon="6.54679">
        <ele>957.3</ele>
        <time>2023-01-21T09:30:18.000Z</time>
      </trkpt>
      <trkpt lat="46.26703" lon="6.54684">
        <ele>958.5</ele>
        <time>2023-01-21T09:30:19.000Z</time>
      </trkpt>
      <trkpt lat="46.26704" lon="6.54684">
        <ele>958.8</ele>
        <time>2023-01-21T09:30:20.000Z</time>
      </trkpt>
      <trkpt lat="46.26705" lon="6.54685">
        <ele>958.9</ele>
        <time>2023-01-21T09:30:21.000Z</time>
      </trkpt>
      <trkpt lat="46.26705" lon="6.54685">
        <ele>958.9</ele>
        <time>2023-01-21T09:30:22.000Z</time>
      </trkpt>
      <trkpt lat="46.26706" lon="6.54685">
        <ele>959.1</ele>
        <time>2023-01-21T09:30:23.000Z</time>
      </trkpt>
      <trkpt lat="46.26706" lon="6.54686">
        <ele>959.3</ele>
        <time>2023-01-21T09:30:24.000Z</time>
      </trkpt>
      <trkpt lat="46.26706" lon="6.54686">
        <ele>959.2</ele>
        <time>2023-01-21T09:30:25.000Z</time>
      </trkpt>
      <trkpt lat="46.26707" lon="6.54687">
        <ele>959.3</ele>
        <time>2023-01-21T09:30:26.000Z</time>
      </trkpt>
      <trkpt lat="46.26708" lon="6.54689">
        <ele>959.1</ele>
        <time>2023-01-21T09:30:27.000Z</time>
      </trkpt>
      <trkpt lat="46.26708" lon="6.54689">
        <ele>959.1</ele>
        <time>2023-01-21T09:30:28.000Z</time>
      </trkpt>
      <trkpt lat="46.26709" lon="6.54689">
        <ele>959.2</ele>
        <time>2023-01-21T09:30:29.000Z</time>
      </trkpt>
      <trkpt lat="46.26711" lon="6.5469">
        <ele>959.3</ele>
        <time>2023-01-21T09:30:30.000Z</time>
      </trkpt>
      <trkpt lat="46.26712" lon="6.54691">
        <ele>959.2</ele>
        <time>2023-01-21T09:30:31.000Z</time>
      </trkpt>
      <trkpt lat="46.26713" lon="6.54692">
        <ele>959.3</ele>
        <time>2023-01-21T09:30:32.000Z</time>
      </trkpt>
      <trkpt lat="46.26714" lon="6.54692">
        <ele>959.2</ele>
        <time>2023-01-21T09:30:33.000Z</time>
      </trkpt>
      <trkpt lat="46.26714" lon="6.54693">
        <ele>959.2</ele>
        <time>2023-01-21T09:30:34.000Z</time>
      </trkpt>
      <trkpt lat="46.26714" lon="6.54695">
        <ele>959.5</ele>
        <time>2023-01-21T09:30:35.000Z</time>
      </trkpt>
      <trkpt lat="46.26715" lon="6.54696">
        <ele>959.6</ele>
        <time>2023-01-21T09:30:36.000Z</time>
      </trkpt>
      <trkpt lat="46.26716" lon="6.54698">
        <ele>959.9</ele>
        <time>2023-01-21T09:30:37.000Z</time>
      </trkpt>
      <trkpt lat="46.26716" lon="6.54699">
        <ele>960.1</ele>
        <time>2023-01-21T09:30:38.000Z</time>
      </trkpt>
      <trkpt lat="46.26716" lon="6.54702">
        <ele>960.4</ele>
        <time>2023-01-21T09:30:39.000Z</time>
      </trkpt>
      <trkpt lat="46.26716" lon="6.54703">
        <ele>960.6</ele>
        <time>2023-01-21T09:30:40.000Z</time>
      </trkpt>
      <trkpt lat="46.26717" lon="6.54704">
        <ele>961.3</ele>
        <time>2023-01-21T09:30:41.000Z</time>
      </trkpt>
      <trkpt lat="46.26718" lon="6.54706">
        <ele>961.6</ele>
        <time>2023-01-21T09:30:42.000Z</time>
      </trkpt>
      <trkpt lat="46.26719" lon="6.54706">
        <ele>962.2</ele>
        <time>2023-01-21T09:30:43.000Z</time>
      </trkpt>
      <trkpt lat="46.2672" lon="6.54707">
        <ele>962.4</ele>
        <time>2023-01-21T09:30:44.000Z</time>
      </trkpt>
      <trkpt lat="46.2672" lon="6.54708">
        <ele>962.8</ele>
        <time>2023-01-21T09:30:45.000Z</time>
      </trkpt>
      <trkpt lat="46.2672" lon="6.54709">
        <ele>963.2</ele>
        <time>2023-01-21T09:30:46.000Z</time>
      </trkpt>
      <trkpt lat="46.2672" lon="6.5471">
        <ele>963.4</ele>
        <time>2023-01-21T09:30:47.000Z</time>
      </trkpt>
      <trkpt lat="46.26721" lon="6.54711">
        <ele>963.7</ele>
        <time>2023-01-21T09:30:48.000Z</time>
      </trkpt>
      <trkpt lat="46.26721" lon="6.54712">
        <ele>964.1</ele>
        <time>2023-01-21T09:30:49.000Z</time>
      </trkpt>
      <trkpt lat="46.26722" lon="6.54713">
        <ele>964.4</ele>
        <time>2023-01-21T09:30:50.000Z</time>
      </trkpt>
      <trkpt lat="46.26723" lon="6.54713">
        <ele>964.8</ele>
        <time>2023-01-21T09:30:51.000Z</time>
      </trkpt>
      <trkpt lat="46.26724" lon="6.54713">
        <ele>965.1</ele>
        <time>2023-01-21T09:30:52.000Z</time>
      </trkpt>
      <trkpt lat="46.26725" lon="6.54714">
        <ele>965.3</ele>
        <time>2023-01-21T09:30:53.000Z</time>
      </trkpt>
      <trkpt lat="46.26726" lon="6.54714">
        <ele>965.5</ele>
        <time>2023-01-21T09:30:54.000Z</time>
      </trkpt>
      <trkpt lat="46.26726" lon="6.54716">
        <ele>965.5</ele>
        <time>2023-01-21T09:30:55.000Z</time>
      </trkpt>
      <trkpt lat="46.26727" lon="6.54717">
        <ele>966</ele>
        <time>2023-01-21T09:30:56.000Z</time>
      </trkpt>
      <trkpt lat="46.26727" lon="6.54717">
        <ele>966.3</ele>
        <time>2023-01-21T09:30:57.000Z</time>
      </trkpt>
      <trkpt lat="46.26727" lon="6.54718">
        <ele>966.8</ele>
        <time>2023-01-21T09:30:58.000Z</time>
      </trkpt>
      <trkpt lat="46.26728" lon="6.54719">
        <ele>967.3</ele>
        <time>2023-01-21T09:30:59.000Z</time>
      </trkpt>
      <trkpt lat="46.26728" lon="6.54719">
        <ele>967.9</ele>
        <time>2023-01-21T09:31:00.000Z</time>
      </trkpt>
      <trkpt lat="46.26728" lon="6.54721">
        <ele>968.3</ele>
        <time>2023-01-21T09:31:01.000Z</time>
      </trkpt>
      <trkpt lat="46.26729" lon="6.54722">
        <ele>968.8</ele>
        <time>2023-01-21T09:31:02.000Z</time>
      </trkpt>
      <trkpt lat="46.2673" lon="6.54723">
        <ele>969.1</ele>
        <time>2023-01-21T09:31:03.000Z</time>
      </trkpt>
      <trkpt lat="46.2673" lon="6.54725">
        <ele>969.7</ele>
        <time>2023-01-21T09:31:04.000Z</time>
      </trkpt>
      <trkpt lat="46.2673" lon="6.54726">
        <ele>970.2</ele>
        <time>2023-01-21T09:31:05.000Z</time>
      </trkpt>
      <trkpt lat="46.2673" lon="6.54727">
        <ele>970.6</ele>
        <time>2023-01-21T09:31:06.000Z</time>
      </trkpt>
      <trkpt lat="46.2673" lon="6.54728">
        <ele>970.9</ele>
        <time>2023-01-21T09:31:07.000Z</time>
      </trkpt>
      <trkpt lat="46.26731" lon="6.54729">
        <ele>971.4</ele>
        <time>2023-01-21T09:31:08.000Z</time>
      </trkpt>
      <trkpt lat="46.26731" lon="6.5473">
        <ele>971.9</ele>
        <time>2023-01-21T09:31:09.000Z</time>
      </trkpt>
      <trkpt lat="46.26731" lon="6.54731">
        <ele>972.4</ele>
        <time>2023-01-21T09:31:10.000Z</time>
      </trkpt>
      <trkpt lat="46.26732" lon="6.54732">
        <ele>972.7</ele>
        <time>2023-01-21T09:31:11.000Z</time>
      </trkpt>
      <trkpt lat="46.26733" lon="6.54733">
        <ele>972.9</ele>
        <time>2023-01-21T09:31:12.000Z</time>
      </trkpt>
      <trkpt lat="46.26734" lon="6.54734">
        <ele>973.4</ele>
        <time>2023-01-21T09:31:13.000Z</time>
      </trkpt>
      <trkpt lat="46.26734" lon="6.54735">
        <ele>973.8</ele>
        <time>2023-01-21T09:31:14.000Z</time>
      </trkpt>
      <trkpt lat="46.26734" lon="6.54736">
        <ele>974.3</ele>
        <time>2023-01-21T09:31:15.000Z</time>
      </trkpt>
      <trkpt lat="46.26734" lon="6.54738">
        <ele>974.9</ele>
        <time>2023-01-21T09:31:16.000Z</time>
      </trkpt>
      <trkpt lat="46.26735" lon="6.54739">
        <ele>975.4</ele>
        <time>2023-01-21T09:31:17.000Z</time>
      </trkpt>
      <trkpt lat="46.26736" lon="6.54739">
        <ele>975.8</ele>
        <time>2023-01-21T09:31:18.000Z</time>
      </trkpt>
      <trkpt lat="46.26737" lon="6.5474">
        <ele>976</ele>
        <time>2023-01-21T09:31:19.000Z</time>
      </trkpt>
      <trkpt lat="46.26737" lon="6.54741">
        <ele>976.6</ele>
        <time>2023-01-21T09:31:20.000Z</time>
      </trkpt>
      <trkpt lat="46.26737" lon="6.54742">
        <ele>976.8</ele>
        <time>2023-01-21T09:31:21.000Z</time>
      </trkpt>
      <trkpt lat="46.26737" lon="6.54743">
        <ele>976.9</ele>
        <time>2023-01-21T09:31:22.000Z</time>
      </trkpt>
      <trkpt lat="46.26737" lon="6.54744">
        <ele>977.4</ele>
        <time>2023-01-21T09:31:23.000Z</time>
      </trkpt>
      <trkpt lat="46.26737" lon="6.54746">
        <ele>978</ele>
        <time>2023-01-21T09:31:24.000Z</time>
      </trkpt>
      <trkpt lat="46.26737" lon="6.54747">
        <ele>978.6</ele>
        <time>2023-01-21T09:31:25.000Z</time>
      </trkpt>
      <trkpt lat="46.26737" lon="6.54748">
        <ele>978.4</ele>
        <time>2023-01-21T09:31:26.000Z</time>
      </trkpt>
      <trkpt lat="46.26737" lon="6.54749">
        <ele>978.3</ele>
        <time>2023-01-21T09:31:27.000Z</time>
      </trkpt>
      <trkpt lat="46.26738" lon="6.5475">
        <ele>978.2</ele>
        <time>2023-01-21T09:31:28.000Z</time>
      </trkpt>
      <trkpt lat="46.26738" lon="6.54751">
        <ele>978.2</ele>
        <time>2023-01-21T09:31:29.000Z</time>
      </trkpt>
      <trkpt lat="46.26738" lon="6.54752">
        <ele>978.1</ele>
        <time>2023-01-21T09:31:30.000Z</time>
      </trkpt>
      <trkpt lat="46.26739" lon="6.54752">
        <ele>977.8</ele>
        <time>2023-01-21T09:31:31.000Z</time>
      </trkpt>
      <trkpt lat="46.26739" lon="6.54753">
        <ele>977.7</ele>
        <time>2023-01-21T09:31:32.000Z</time>
      </trkpt>
      <trkpt lat="46.2674" lon="6.54753">
        <ele>977.9</ele>
        <time>2023-01-21T09:31:33.000Z</time>
      </trkpt>
      <trkpt lat="46.2674" lon="6.54754">
        <ele>977.9</ele>
        <time>2023-01-21T09:31:34.000Z</time>
      </trkpt>
      <trkpt lat="46.26741" lon="6.54755">
        <ele>978.1</ele>
        <time>2023-01-21T09:31:35.000Z</time>
      </trkpt>
      <trkpt lat="46.26741" lon="6.54755">
        <ele>978.3</ele>
        <time>2023-01-21T09:31:36.000Z</time>
      </trkpt>
      <trkpt lat="46.26741" lon="6.54756">
        <ele>978.4</ele>
        <time>2023-01-21T09:31:37.000Z</time>
      </trkpt>
      <trkpt lat="46.26742" lon="6.54757">
        <ele>978.3</ele>
        <time>2023-01-21T09:31:38.000Z</time>
      </trkpt>
      <trkpt lat="46.26742" lon="6.54758">
        <ele>978.4</ele>
        <time>2023-01-21T09:31:39.000Z</time>
      </trkpt>
      <trkpt lat="46.26742" lon="6.54759">
        <ele>978.1</ele>
        <time>2023-01-21T09:31:40.000Z</time>
      </trkpt>
      <trkpt lat="46.26742" lon="6.5476">
        <ele>978.2</ele>
        <time>2023-01-21T09:31:41.000Z</time>
      </trkpt>
      <trkpt lat="46.26742" lon="6.54761">
        <ele>978.2</ele>
        <time>2023-01-21T09:31:42.000Z</time>
      </trkpt>
      <trkpt lat="46.26743" lon="6.54762">
        <ele>978.4</ele>
        <time>2023-01-21T09:31:43.000Z</time>
      </trkpt>
      <trkpt lat="46.26743" lon="6.54763">
        <ele>978.6</ele>
        <time>2023-01-21T09:31:44.000Z</time>
      </trkpt>
      <trkpt lat="46.26743" lon="6.54764">
        <ele>978.7</ele>
        <time>2023-01-21T09:31:45.000Z</time>
      </trkpt>
      <trkpt lat="46.26745" lon="6.54765">
        <ele>978.6</ele>
        <time>2023-01-21T09:31:46.000Z</time>
      </trkpt>
      <trkpt lat="46.26745" lon="6.54766">
        <ele>978.7</ele>
        <time>2023-01-21T09:31:47.000Z</time>
      </trkpt>
      <trkpt lat="46.26746" lon="6.54767">
        <ele>978.9</ele>
        <time>2023-01-21T09:31:48.000Z</time>
      </trkpt>
      <trkpt lat="46.26747" lon="6.54768">
        <ele>978.7</ele>
        <time>2023-01-21T09:31:49.000Z</time>
      </trkpt>
      <trkpt lat="46.26748" lon="6.54769">
        <ele>978.4</ele>
        <time>2023-01-21T09:31:50.000Z</time>
      </trkpt>
      <trkpt lat="46.26748" lon="6.5477">
        <ele>978.2</ele>
        <time>2023-01-21T09:31:51.000Z</time>
      </trkpt>
      <trkpt lat="46.26748" lon="6.54771">
        <ele>978</ele>
        <time>2023-01-21T09:31:52.000Z</time>
      </trkpt>
      <trkpt lat="46.26748" lon="6.54771">
        <ele>977.9</ele>
        <time>2023-01-21T09:31:53.000Z</time>
      </trkpt>
      <trkpt lat="46.26749" lon="6.54772">
        <ele>978</ele>
        <time>2023-01-21T09:31:54.000Z</time>
      </trkpt>
      <trkpt lat="46.26749" lon="6.54773">
        <ele>977.9</ele>
        <time>2023-01-21T09:31:55.000Z</time>
      </trkpt>
      <trkpt lat="46.2675" lon="6.54773">
        <ele>977.8</ele>
        <time>2023-01-21T09:31:56.000Z</time>
      </trkpt>
      <trkpt lat="46.26751" lon="6.54774">
        <ele>977.4</ele>
        <time>2023-01-21T09:31:57.000Z</time>
      </trkpt>
      <trkpt lat="46.26751" lon="6.54775">
        <ele>977.5</ele>
        <time>2023-01-21T09:31:58.000Z</time>
      </trkpt>
      <trkpt lat="46.26751" lon="6.54776">
        <ele>977.6</ele>
        <time>2023-01-21T09:31:59.000Z</time>
      </trkpt>
      <trkpt lat="46.26751" lon="6.54777">
        <ele>977.3</ele>
        <time>2023-01-21T09:32:00.000Z</time>
      </trkpt>
      <trkpt lat="46.26751" lon="6.54778">
        <ele>976.9</ele>
        <time>2023-01-21T09:32:01.000Z</time>
      </trkpt>
      <trkpt lat="46.26752" lon="6.54779">
        <ele>976.7</ele>
        <time>2023-01-21T09:32:02.000Z</time>
      </trkpt>
      <trkpt lat="46.26752" lon="6.5478">
        <ele>976.6</ele>
        <time>2023-01-21T09:32:03.000Z</time>
      </trkpt>
      <trkpt lat="46.26753" lon="6.54781">
        <ele>976.4</ele>
        <time>2023-01-21T09:32:04.000Z</time>
      </trkpt>
      <trkpt lat="46.26753" lon="6.54782">
        <ele>976.5</ele>
        <time>2023-01-21T09:32:05.000Z</time>
      </trkpt>
      <trkpt lat="46.26754" lon="6.54783">
        <ele>976.3</ele>
        <time>2023-01-21T09:32:06.000Z</time>
      </trkpt>
      <trkpt lat="46.26754" lon="6.54783">
        <ele>976.2</ele>
        <time>2023-01-21T09:32:07.000Z</time>
      </trkpt>
      <trkpt lat="46.26754" lon="6.54785">
        <ele>976.5</ele>
        <time>2023-01-21T09:32:08.000Z</time>
      </trkpt>
      <trkpt lat="46.26755" lon="6.54786">
        <ele>976.8</ele>
        <time>2023-01-21T09:32:09.000Z</time>
      </trkpt>
      <trkpt lat="46.26755" lon="6.54787">
        <ele>976.7</ele>
        <time>2023-01-21T09:32:10.000Z</time>
      </trkpt>
      <trkpt lat="46.26755" lon="6.54788">
        <ele>976.5</ele>
        <time>2023-01-21T09:32:11.000Z</time>
      </trkpt>
      <trkpt lat="46.26756" lon="6.54788">
        <ele>976.4</ele>
        <time>2023-01-21T09:32:12.000Z</time>
      </trkpt>
      <trkpt lat="46.26757" lon="6.54789">
        <ele>976.6</ele>
        <time>2023-01-21T09:32:13.000Z</time>
      </trkpt>
      <trkpt lat="46.26757" lon="6.54789">
        <ele>976.8</ele>
        <time>2023-01-21T09:32:14.000Z</time>
      </trkpt>
      <trkpt lat="46.26758" lon="6.5479">
        <ele>977</ele>
        <time>2023-01-21T09:32:15.000Z</time>
      </trkpt>
      <trkpt lat="46.26758" lon="6.54792">
        <ele>977.5</ele>
        <time>2023-01-21T09:32:16.000Z</time>
      </trkpt>
      <trkpt lat="46.26758" lon="6.54793">
        <ele>977.7</ele>
        <time>2023-01-21T09:32:17.000Z</time>
      </trkpt>
      <trkpt lat="46.2676" lon="6.54794">
        <ele>977.8</ele>
        <time>2023-01-21T09:32:18.000Z</time>
      </trkpt>
      <trkpt lat="46.26761" lon="6.54795">
        <ele>977.8</ele>
        <time>2023-01-21T09:32:19.000Z</time>
      </trkpt>
      <trkpt lat="46.26761" lon="6.54796">
        <ele>977.9</ele>
        <time>2023-01-21T09:32:20.000Z</time>
      </trkpt>
      <trkpt lat="46.26762" lon="6.54795">
        <ele>977.3</ele>
        <time>2023-01-21T09:32:21.000Z</time>
      </trkpt>
      <trkpt lat="46.26762" lon="6.54795">
        <ele>977.5</ele>
        <time>2023-01-21T09:32:22.000Z</time>
      </trkpt>
      <trkpt lat="46.26764" lon="6.54795">
        <ele>977.6</ele>
        <time>2023-01-21T09:32:23.000Z</time>
      </trkpt>
      <trkpt lat="46.26764" lon="6.54796">
        <ele>977.5</ele>
        <time>2023-01-21T09:32:24.000Z</time>
      </trkpt>
      <trkpt lat="46.26765" lon="6.54797">
        <ele>977.4</ele>
        <time>2023-01-21T09:32:25.000Z</time>
      </trkpt>
      <trkpt lat="46.26765" lon="6.54798">
        <ele>977.5</ele>
        <time>2023-01-21T09:32:26.000Z</time>
      </trkpt>
      <trkpt lat="46.26765" lon="6.54799">
        <ele>977.6</ele>
        <time>2023-01-21T09:32:27.000Z</time>
      </trkpt>
      <trkpt lat="46.26766" lon="6.548">
        <ele>977.4</ele>
        <time>2023-01-21T09:32:28.000Z</time>
      </trkpt>
      <trkpt lat="46.26767" lon="6.54801">
        <ele>977.4</ele>
        <time>2023-01-21T09:32:29.000Z</time>
      </trkpt>
      <trkpt lat="46.26767" lon="6.54801">
        <ele>977.4</ele>
        <time>2023-01-21T09:32:30.000Z</time>
      </trkpt>
      <trkpt lat="46.26768" lon="6.54802">
        <ele>977.4</ele>
        <time>2023-01-21T09:32:31.000Z</time>
      </trkpt>
      <trkpt lat="46.26768" lon="6.54803">
        <ele>977.7</ele>
        <time>2023-01-21T09:32:32.000Z</time>
      </trkpt>
      <trkpt lat="46.26768" lon="6.54804">
        <ele>977.3</ele>
        <time>2023-01-21T09:32:33.000Z</time>
      </trkpt>
      <trkpt lat="46.26768" lon="6.54804">
        <ele>976.6</ele>
        <time>2023-01-21T09:32:34.000Z</time>
      </trkpt>
      <trkpt lat="46.26768" lon="6.54805">
        <ele>977</ele>
        <time>2023-01-21T09:32:35.000Z</time>
      </trkpt>
      <trkpt lat="46.26768" lon="6.54806">
        <ele>977.2</ele>
        <time>2023-01-21T09:32:36.000Z</time>
      </trkpt>
      <trkpt lat="46.26769" lon="6.54806">
        <ele>977.1</ele>
        <time>2023-01-21T09:32:37.000Z</time>
      </trkpt>
      <trkpt lat="46.26769" lon="6.54808">
        <ele>977.2</ele>
        <time>2023-01-21T09:32:38.000Z</time>
      </trkpt>
      <trkpt lat="46.26769" lon="6.54809">
        <ele>976.9</ele>
        <time>2023-01-21T09:32:39.000Z</time>
      </trkpt>
      <trkpt lat="46.26769" lon="6.5481">
        <ele>976.7</ele>
        <time>2023-01-21T09:32:40.000Z</time>
      </trkpt>
      <trkpt lat="46.26769" lon="6.54811">
        <ele>976.1</ele>
        <time>2023-01-21T09:32:41.000Z</time>
      </trkpt>
      <trkpt lat="46.26769" lon="6.54812">
        <ele>975.5</ele>
        <time>2023-01-21T09:32:42.000Z</time>
      </trkpt>
      <trkpt lat="46.26769" lon="6.54813">
        <ele>975.2</ele>
        <time>2023-01-21T09:32:43.000Z</time>
      </trkpt>
      <trkpt lat="46.2677" lon="6.54814">
        <ele>975</ele>
        <time>2023-01-21T09:32:44.000Z</time>
      </trkpt>
      <trkpt lat="46.2677" lon="6.54815">
        <ele>975.2</ele>
        <time>2023-01-21T09:32:45.000Z</time>
      </trkpt>
      <trkpt lat="46.2677" lon="6.54816">
        <ele>974.9</ele>
        <time>2023-01-21T09:32:46.000Z</time>
      </trkpt>
      <trkpt lat="46.2677" lon="6.54816">
        <ele>974.4</ele>
        <time>2023-01-21T09:32:47.000Z</time>
      </trkpt>
      <trkpt lat="46.26771" lon="6.54817">
        <ele>974.1</ele>
        <time>2023-01-21T09:32:48.000Z</time>
      </trkpt>
      <trkpt lat="46.26771" lon="6.54817">
        <ele>973.7</ele>
        <time>2023-01-21T09:32:49.000Z</time>
      </trkpt>
      <trkpt lat="46.26772" lon="6.54818">
        <ele>973.4</ele>
        <time>2023-01-21T09:32:50.000Z</time>
      </trkpt>
      <trkpt lat="46.26773" lon="6.54819">
        <ele>973.2</ele>
        <time>2023-01-21T09:32:51.000Z</time>
      </trkpt>
      <trkpt lat="46.26773" lon="6.5482">
        <ele>973.4</ele>
        <time>2023-01-21T09:32:52.000Z</time>
      </trkpt>
      <trkpt lat="46.26773" lon="6.5482">
        <ele>973.6</ele>
        <time>2023-01-21T09:32:53.000Z</time>
      </trkpt>
      <trkpt lat="46.26774" lon="6.54821">
        <ele>973.8</ele>
        <time>2023-01-21T09:32:54.000Z</time>
      </trkpt>
      <trkpt lat="46.26774" lon="6.54822">
        <ele>973.5</ele>
        <time>2023-01-21T09:32:55.000Z</time>
      </trkpt>
      <trkpt lat="46.26774" lon="6.54823">
        <ele>973.3</ele>
        <time>2023-01-21T09:32:56.000Z</time>
      </trkpt>
      <trkpt lat="46.26774" lon="6.54824">
        <ele>973.1</ele>
        <time>2023-01-21T09:32:57.000Z</time>
      </trkpt>
      <trkpt lat="46.26774" lon="6.54825">
        <ele>973.1</ele>
        <time>2023-01-21T09:32:58.000Z</time>
      </trkpt>
      <trkpt lat="46.26775" lon="6.54826">
        <ele>973.1</ele>
        <time>2023-01-21T09:32:59.000Z</time>
      </trkpt>
      <trkpt lat="46.26775" lon="6.54826">
        <ele>973.1</ele>
        <time>2023-01-21T09:33:00.000Z</time>
      </trkpt>
      <trkpt lat="46.26776" lon="6.54827">
        <ele>973.1</ele>
        <time>2023-01-21T09:33:01.000Z</time>
      </trkpt>
      <trkpt lat="46.26776" lon="6.54827">
        <ele>973.1</ele>
        <time>2023-01-21T09:33:02.000Z</time>
      </trkpt>
      <trkpt lat="46.26777" lon="6.54828">
        <ele>973.2</ele>
        <time>2023-01-21T09:33:03.000Z</time>
      </trkpt>
      <trkpt lat="46.26777" lon="6.54828">
        <ele>973.2</ele>
        <time>2023-01-21T09:33:04.000Z</time>
      </trkpt>
      <trkpt lat="46.26778" lon="6.54829">
        <ele>973.2</ele>
        <time>2023-01-21T09:33:05.000Z</time>
      </trkpt>
      <trkpt lat="46.26778" lon="6.54829">
        <ele>973.1</ele>
        <time>2023-01-21T09:33:06.000Z</time>
      </trkpt>
      <trkpt lat="46.26778" lon="6.54829">
        <ele>973.1</ele>
        <time>2023-01-21T09:33:07.000Z</time>
      </trkpt>
      <trkpt lat="46.26779" lon="6.5483">
        <ele>973.4</ele>
        <time>2023-01-21T09:33:08.000Z</time>
      </trkpt>
      <trkpt lat="46.26779" lon="6.54831">
        <ele>973.4</ele>
        <time>2023-01-21T09:33:09.000Z</time>
      </trkpt>
      <trkpt lat="46.2678" lon="6.54832">
        <ele>973.2</ele>
        <time>2023-01-21T09:33:10.000Z</time>
      </trkpt>
      <trkpt lat="46.26781" lon="6.54832">
        <ele>973.3</ele>
        <time>2023-01-21T09:33:11.000Z</time>
      </trkpt>
      <trkpt lat="46.26782" lon="6.54833">
        <ele>973.4</ele>
        <time>2023-01-21T09:33:12.000Z</time>
      </trkpt>
      <trkpt lat="46.26783" lon="6.54834">
        <ele>973.4</ele>
        <time>2023-01-21T09:33:13.000Z</time>
      </trkpt>
      <trkpt lat="46.26783" lon="6.54835">
        <ele>973.2</ele>
        <time>2023-01-21T09:33:14.000Z</time>
      </trkpt>
      <trkpt lat="46.26784" lon="6.54836">
        <ele>973.2</ele>
        <time>2023-01-21T09:33:15.000Z</time>
      </trkpt>
      <trkpt lat="46.26784" lon="6.54837">
        <ele>973.4</ele>
        <time>2023-01-21T09:33:16.000Z</time>
      </trkpt>
      <trkpt lat="46.26784" lon="6.54838">
        <ele>973.5</ele>
        <time>2023-01-21T09:33:17.000Z</time>
      </trkpt>
      <trkpt lat="46.26784" lon="6.54839">
        <ele>973.5</ele>
        <time>2023-01-21T09:33:18.000Z</time>
      </trkpt>
      <trkpt lat="46.26785" lon="6.54839">
        <ele>973.7</ele>
        <time>2023-01-21T09:33:19.000Z</time>
      </trkpt>
      <trkpt lat="46.26785" lon="6.5484">
        <ele>973.8</ele>
        <time>2023-01-21T09:33:20.000Z</time>
      </trkpt>
      <trkpt lat="46.26785" lon="6.54842">
        <ele>973.9</ele>
        <time>2023-01-21T09:33:21.000Z</time>
      </trkpt>
      <trkpt lat="46.26785" lon="6.54842">
        <ele>974.1</ele>
        <time>2023-01-21T09:33:22.000Z</time>
      </trkpt>
      <trkpt lat="46.26786" lon="6.54843">
        <ele>974.2</ele>
        <time>2023-01-21T09:33:23.000Z</time>
      </trkpt>
      <trkpt lat="46.26786" lon="6.54845">
        <ele>974.2</ele>
        <time>2023-01-21T09:33:24.000Z</time>
      </trkpt>
      <trkpt lat="46.26786" lon="6.54846">
        <ele>974.1</ele>
        <time>2023-01-21T09:33:25.000Z</time>
      </trkpt>
      <trkpt lat="46.26786" lon="6.54847">
        <ele>974.1</ele>
        <time>2023-01-21T09:33:26.000Z</time>
      </trkpt>
      <trkpt lat="46.26787" lon="6.54848">
        <ele>974.3</ele>
        <time>2023-01-21T09:33:27.000Z</time>
      </trkpt>
      <trkpt lat="46.26787" lon="6.54849">
        <ele>974.6</ele>
        <time>2023-01-21T09:33:28.000Z</time>
      </trkpt>
      <trkpt lat="46.26788" lon="6.5485">
        <ele>974.8</ele>
        <time>2023-01-21T09:33:29.000Z</time>
      </trkpt>
      <trkpt lat="46.26788" lon="6.54851">
        <ele>975</ele>
        <time>2023-01-21T09:33:30.000Z</time>
      </trkpt>
      <trkpt lat="46.26789" lon="6.54852">
        <ele>975.4</ele>
        <time>2023-01-21T09:33:31.000Z</time>
      </trkpt>
      <trkpt lat="46.2679" lon="6.54853">
        <ele>975.6</ele>
        <time>2023-01-21T09:33:32.000Z</time>
      </trkpt>
      <trkpt lat="46.26791" lon="6.54853">
        <ele>976</ele>
        <time>2023-01-21T09:33:33.000Z</time>
      </trkpt>
      <trkpt lat="46.26791" lon="6.54854">
        <ele>976.1</ele>
        <time>2023-01-21T09:33:34.000Z</time>
      </trkpt>
      <trkpt lat="46.26791" lon="6.54855">
        <ele>976.5</ele>
        <time>2023-01-21T09:33:35.000Z</time>
      </trkpt>
      <trkpt lat="46.26792" lon="6.54856">
        <ele>976.8</ele>
        <time>2023-01-21T09:33:36.000Z</time>
      </trkpt>
      <trkpt lat="46.26792" lon="6.54857">
        <ele>977</ele>
        <time>2023-01-21T09:33:37.000Z</time>
      </trkpt>
      <trkpt lat="46.26793" lon="6.54858">
        <ele>977.2</ele>
        <time>2023-01-21T09:33:38.000Z</time>
      </trkpt>
      <trkpt lat="46.26794" lon="6.54858">
        <ele>977.1</ele>
        <time>2023-01-21T09:33:39.000Z</time>
      </trkpt>
      <trkpt lat="46.26795" lon="6.54859">
        <ele>977.3</ele>
        <time>2023-01-21T09:33:40.000Z</time>
      </trkpt>
      <trkpt lat="46.26795" lon="6.5486">
        <ele>977.5</ele>
        <time>2023-01-21T09:33:41.000Z</time>
      </trkpt>
      <trkpt lat="46.26795" lon="6.54861">
        <ele>977.7</ele>
        <time>2023-01-21T09:33:42.000Z</time>
      </trkpt>
      <trkpt lat="46.26796" lon="6.54862">
        <ele>977.9</ele>
        <time>2023-01-21T09:33:43.000Z</time>
      </trkpt>
      <trkpt lat="46.26797" lon="6.54863">
        <ele>978.1</ele>
        <time>2023-01-21T09:33:44.000Z</time>
      </trkpt>
      <trkpt lat="46.26797" lon="6.54864">
        <ele>978.3</ele>
        <time>2023-01-21T09:33:45.000Z</time>
      </trkpt>
      <trkpt lat="46.26798" lon="6.54864">
        <ele>978.6</ele>
        <time>2023-01-21T09:33:46.000Z</time>
      </trkpt>
      <trkpt lat="46.26799" lon="6.54865">
        <ele>978.8</ele>
        <time>2023-01-21T09:33:47.000Z</time>
      </trkpt>
      <trkpt lat="46.26799" lon="6.54866">
        <ele>979.1</ele>
        <time>2023-01-21T09:33:48.000Z</time>
      </trkpt>
      <trkpt lat="46.26799" lon="6.54867">
        <ele>979.1</ele>
        <time>2023-01-21T09:33:49.000Z</time>
      </trkpt>
      <trkpt lat="46.268" lon="6.54868">
        <ele>979.1</ele>
        <time>2023-01-21T09:33:50.000Z</time>
      </trkpt>
      <trkpt lat="46.268" lon="6.54869">
        <ele>979.3</ele>
        <time>2023-01-21T09:33:51.000Z</time>
      </trkpt>
      <trkpt lat="46.268" lon="6.5487">
        <ele>979.6</ele>
        <time>2023-01-21T09:33:52.000Z</time>
      </trkpt>
      <trkpt lat="46.268" lon="6.54871">
        <ele>980.2</ele>
        <time>2023-01-21T09:33:53.000Z</time>
      </trkpt>
      <trkpt lat="46.26801" lon="6.54873">
        <ele>980.3</ele>
        <time>2023-01-21T09:33:54.000Z</time>
      </trkpt>
      <trkpt lat="46.26801" lon="6.54873">
        <ele>980.3</ele>
        <time>2023-01-21T09:33:55.000Z</time>
      </trkpt>
      <trkpt lat="46.26801" lon="6.54875">
        <ele>980.3</ele>
        <time>2023-01-21T09:33:56.000Z</time>
      </trkpt>
      <trkpt lat="46.26802" lon="6.54876">
        <ele>980.3</ele>
        <time>2023-01-21T09:33:57.000Z</time>
      </trkpt>
      <trkpt lat="46.26802" lon="6.54876">
        <ele>980.4</ele>
        <time>2023-01-21T09:33:58.000Z</time>
      </trkpt>
      <trkpt lat="46.26803" lon="6.54878">
        <ele>980.5</ele>
        <time>2023-01-21T09:33:59.000Z</time>
      </trkpt>
      <trkpt lat="46.26803" lon="6.54879">
        <ele>980.6</ele>
        <time>2023-01-21T09:34:00.000Z</time>
      </trkpt>
      <trkpt lat="46.26803" lon="6.5488">
        <ele>980.6</ele>
        <time>2023-01-21T09:34:01.000Z</time>
      </trkpt>
      <trkpt lat="46.26804" lon="6.54881">
        <ele>980.7</ele>
        <time>2023-01-21T09:34:02.000Z</time>
      </trkpt>
      <trkpt lat="46.26805" lon="6.54882">
        <ele>980.8</ele>
        <time>2023-01-21T09:34:03.000Z</time>
      </trkpt>
      <trkpt lat="46.26805" lon="6.54884">
        <ele>981</ele>
        <time>2023-01-21T09:34:04.000Z</time>
      </trkpt>
      <trkpt lat="46.26806" lon="6.54884">
        <ele>981.3</ele>
        <time>2023-01-21T09:34:05.000Z</time>
      </trkpt>
      <trkpt lat="46.26806" lon="6.54885">
        <ele>981.5</ele>
        <time>2023-01-21T09:34:06.000Z</time>
      </trkpt>
      <trkpt lat="46.26807" lon="6.54886">
        <ele>981.8</ele>
        <time>2023-01-21T09:34:07.000Z</time>
      </trkpt>
      <trkpt lat="46.26808" lon="6.54887">
        <ele>982.2</ele>
        <time>2023-01-21T09:34:08.000Z</time>
      </trkpt>
      <trkpt lat="46.26809" lon="6.54888">
        <ele>982.5</ele>
        <time>2023-01-21T09:34:09.000Z</time>
      </trkpt>
      <trkpt lat="46.2681" lon="6.54889">
        <ele>982.7</ele>
        <time>2023-01-21T09:34:10.000Z</time>
      </trkpt>
      <trkpt lat="46.2681" lon="6.5489">
        <ele>983</ele>
        <time>2023-01-21T09:34:11.000Z</time>
      </trkpt>
      <trkpt lat="46.26811" lon="6.54891">
        <ele>983.5</ele>
        <time>2023-01-21T09:34:12.000Z</time>
      </trkpt>
      <trkpt lat="46.26811" lon="6.54892">
        <ele>983.8</ele>
        <time>2023-01-21T09:34:13.000Z</time>
      </trkpt>
      <trkpt lat="46.26812" lon="6.54893">
        <ele>984.3</ele>
        <time>2023-01-21T09:34:14.000Z</time>
      </trkpt>
      <trkpt lat="46.26812" lon="6.54894">
        <ele>984.4</ele>
        <time>2023-01-21T09:34:15.000Z</time>
      </trkpt>
      <trkpt lat="46.26812" lon="6.54895">
        <ele>984.7</ele>
        <time>2023-01-21T09:34:16.000Z</time>
      </trkpt>
      <trkpt lat="46.26813" lon="6.54895">
        <ele>984.9</ele>
        <time>2023-01-21T09:34:17.000Z</time>
      </trkpt>
      <trkpt lat="46.26813" lon="6.54896">
        <ele>985.2</ele>
        <time>2023-01-21T09:34:18.000Z</time>
      </trkpt>
      <trkpt lat="46.26814" lon="6.54897">
        <ele>985.5</ele>
        <time>2023-01-21T09:34:19.000Z</time>
      </trkpt>
      <trkpt lat="46.26814" lon="6.54897">
        <ele>985.9</ele>
        <time>2023-01-21T09:34:20.000Z</time>
      </trkpt>
      <trkpt lat="46.26814" lon="6.54898">
        <ele>986.1</ele>
        <time>2023-01-21T09:34:21.000Z</time>
      </trkpt>
      <trkpt lat="46.26815" lon="6.54899">
        <ele>986.7</ele>
        <time>2023-01-21T09:34:22.000Z</time>
      </trkpt>
      <trkpt lat="46.26815" lon="6.549">
        <ele>986.8</ele>
        <time>2023-01-21T09:34:23.000Z</time>
      </trkpt>
      <trkpt lat="46.26815" lon="6.54901">
        <ele>986.9</ele>
        <time>2023-01-21T09:34:24.000Z</time>
      </trkpt>
      <trkpt lat="46.26816" lon="6.54902">
        <ele>987.1</ele>
        <time>2023-01-21T09:34:25.000Z</time>
      </trkpt>
      <trkpt lat="46.26816" lon="6.54903">
        <ele>987.1</ele>
        <time>2023-01-21T09:34:26.000Z</time>
      </trkpt>
      <trkpt lat="46.26816" lon="6.54904">
        <ele>987.2</ele>
        <time>2023-01-21T09:34:27.000Z</time>
      </trkpt>
      <trkpt lat="46.26817" lon="6.54905">
        <ele>987.2</ele>
        <time>2023-01-21T09:34:28.000Z</time>
      </trkpt>
      <trkpt lat="46.26818" lon="6.54906">
        <ele>987.4</ele>
        <time>2023-01-21T09:34:29.000Z</time>
      </trkpt>
      <trkpt lat="46.26818" lon="6.54906">
        <ele>987.5</ele>
        <time>2023-01-21T09:34:30.000Z</time>
      </trkpt>
      <trkpt lat="46.26818" lon="6.54907">
        <ele>987.5</ele>
        <time>2023-01-21T09:34:31.000Z</time>
      </trkpt>
      <trkpt lat="46.26819" lon="6.54907">
        <ele>987.3</ele>
        <time>2023-01-21T09:34:32.000Z</time>
      </trkpt>
      <trkpt lat="46.26819" lon="6.54907">
        <ele>986.8</ele>
        <time>2023-01-21T09:34:33.000Z</time>
      </trkpt>
      <trkpt lat="46.2682" lon="6.54908">
        <ele>986.7</ele>
        <time>2023-01-21T09:34:34.000Z</time>
      </trkpt>
      <trkpt lat="46.2682" lon="6.54908">
        <ele>986.7</ele>
        <time>2023-01-21T09:34:35.000Z</time>
      </trkpt>
      <trkpt lat="46.2682" lon="6.5491">
        <ele>986.6</ele>
        <time>2023-01-21T09:34:36.000Z</time>
      </trkpt>
      <trkpt lat="46.26821" lon="6.54912">
        <ele>986.6</ele>
        <time>2023-01-21T09:34:37.000Z</time>
      </trkpt>
      <trkpt lat="46.26821" lon="6.54913">
        <ele>986.4</ele>
        <time>2023-01-21T09:34:38.000Z</time>
      </trkpt>
      <trkpt lat="46.26822" lon="6.54913">
        <ele>986.2</ele>
        <time>2023-01-21T09:34:39.000Z</time>
      </trkpt>
      <trkpt lat="46.26823" lon="6.54914">
        <ele>986.2</ele>
        <time>2023-01-21T09:34:40.000Z</time>
      </trkpt>
      <trkpt lat="46.26823" lon="6.54915">
        <ele>986.1</ele>
        <time>2023-01-21T09:34:41.000Z</time>
      </trkpt>
      <trkpt lat="46.26823" lon="6.54916">
        <ele>986.4</ele>
        <time>2023-01-21T09:34:42.000Z</time>
      </trkpt>
      <trkpt lat="46.26824" lon="6.54918">
        <ele>986.8</ele>
        <time>2023-01-21T09:34:43.000Z</time>
      </trkpt>
      <trkpt lat="46.26824" lon="6.54918">
        <ele>987</ele>
        <time>2023-01-21T09:34:44.000Z</time>
      </trkpt>
      <trkpt lat="46.26824" lon="6.54919">
        <ele>987.2</ele>
        <time>2023-01-21T09:34:45.000Z</time>
      </trkpt>
      <trkpt lat="46.26825" lon="6.5492">
        <ele>987.3</ele>
        <time>2023-01-21T09:34:46.000Z</time>
      </trkpt>
      <trkpt lat="46.26826" lon="6.54921">
        <ele>987.5</ele>
        <time>2023-01-21T09:34:47.000Z</time>
      </trkpt>
      <trkpt lat="46.26827" lon="6.54922">
        <ele>987.8</ele>
        <time>2023-01-21T09:34:48.000Z</time>
      </trkpt>
      <trkpt lat="46.26828" lon="6.54923">
        <ele>988</ele>
        <time>2023-01-21T09:34:49.000Z</time>
      </trkpt>
      <trkpt lat="46.26828" lon="6.54924">
        <ele>988.1</ele>
        <time>2023-01-21T09:34:50.000Z</time>
      </trkpt>
      <trkpt lat="46.26828" lon="6.54925">
        <ele>988.2</ele>
        <time>2023-01-21T09:34:51.000Z</time>
      </trkpt>
      <trkpt lat="46.26829" lon="6.54926">
        <ele>988.4</ele>
        <time>2023-01-21T09:34:52.000Z</time>
      </trkpt>
      <trkpt lat="46.26829" lon="6.54927">
        <ele>988.8</ele>
        <time>2023-01-21T09:34:53.000Z</time>
      </trkpt>
      <trkpt lat="46.26829" lon="6.54929">
        <ele>989.1</ele>
        <time>2023-01-21T09:34:54.000Z</time>
      </trkpt>
      <trkpt lat="46.2683" lon="6.5493">
        <ele>989.4</ele>
        <time>2023-01-21T09:34:55.000Z</time>
      </trkpt>
      <trkpt lat="46.2683" lon="6.54931">
        <ele>989.7</ele>
        <time>2023-01-21T09:34:56.000Z</time>
      </trkpt>
      <trkpt lat="46.26831" lon="6.54931">
        <ele>989.7</ele>
        <time>2023-01-21T09:34:57.000Z</time>
      </trkpt>
      <trkpt lat="46.26832" lon="6.54932">
        <ele>990</ele>
        <time>2023-01-21T09:34:58.000Z</time>
      </trkpt>
      <trkpt lat="46.26832" lon="6.54933">
        <ele>990.3</ele>
        <time>2023-01-21T09:34:59.000Z</time>
      </trkpt>
      <trkpt lat="46.26833" lon="6.54935">
        <ele>990.6</ele>
        <time>2023-01-21T09:35:00.000Z</time>
      </trkpt>
      <trkpt lat="46.26833" lon="6.54935">
        <ele>990.9</ele>
        <time>2023-01-21T09:35:01.000Z</time>
      </trkpt>
      <trkpt lat="46.26834" lon="6.54937">
        <ele>991</ele>
        <time>2023-01-21T09:35:02.000Z</time>
      </trkpt>
      <trkpt lat="46.26834" lon="6.54938">
        <ele>991.3</ele>
        <time>2023-01-21T09:35:03.000Z</time>
      </trkpt>
      <trkpt lat="46.26835" lon="6.54939">
        <ele>991.6</ele>
        <time>2023-01-21T09:35:04.000Z</time>
      </trkpt>
      <trkpt lat="46.26835" lon="6.54941">
        <ele>992</ele>
        <time>2023-01-21T09:35:05.000Z</time>
      </trkpt>
      <trkpt lat="46.26835" lon="6.54941">
        <ele>992.1</ele>
        <time>2023-01-21T09:35:06.000Z</time>
      </trkpt>
      <trkpt lat="46.26835" lon="6.54943">
        <ele>992.2</ele>
        <time>2023-01-21T09:35:07.000Z</time>
      </trkpt>
      <trkpt lat="46.26836" lon="6.54943">
        <ele>992.7</ele>
        <time>2023-01-21T09:35:08.000Z</time>
      </trkpt>
      <trkpt lat="46.26836" lon="6.54944">
        <ele>993</ele>
        <time>2023-01-21T09:35:09.000Z</time>
      </trkpt>
      <trkpt lat="46.26836" lon="6.54944">
        <ele>993</ele>
        <time>2023-01-21T09:35:10.000Z</time>
      </trkpt>
      <trkpt lat="46.26836" lon="6.54946">
        <ele>993.2</ele>
        <time>2023-01-21T09:35:11.000Z</time>
      </trkpt>
      <trkpt lat="46.26836" lon="6.54946">
        <ele>993.1</ele>
        <time>2023-01-21T09:35:12.000Z</time>
      </trkpt>
      <trkpt lat="46.26836" lon="6.54947">
        <ele>993.2</ele>
        <time>2023-01-21T09:35:13.000Z</time>
      </trkpt>
      <trkpt lat="46.26836" lon="6.54947">
        <ele>993.3</ele>
        <time>2023-01-21T09:35:14.000Z</time>
      </trkpt>
      <trkpt lat="46.26836" lon="6.54947">
        <ele>992.6</ele>
        <time>2023-01-21T09:35:15.000Z</time>
      </trkpt>
      <trkpt lat="46.26837" lon="6.54948">
        <ele>992.8</ele>
        <time>2023-01-21T09:35:16.000Z</time>
      </trkpt>
      <trkpt lat="46.26837" lon="6.54948">
        <ele>992.6</ele>
        <time>2023-01-21T09:35:17.000Z</time>
      </trkpt>
      <trkpt lat="46.26838" lon="6.54949">
        <ele>992.4</ele>
        <time>2023-01-21T09:35:18.000Z</time>
      </trkpt>
      <trkpt lat="46.26838" lon="6.54949">
        <ele>991.8</ele>
        <time>2023-01-21T09:35:19.000Z</time>
      </trkpt>
      <trkpt lat="46.26838" lon="6.54949">
        <ele>991.1</ele>
        <time>2023-01-21T09:35:20.000Z</time>
      </trkpt>
      <trkpt lat="46.26839" lon="6.5495">
        <ele>989.9</ele>
        <time>2023-01-21T09:35:21.000Z</time>
      </trkpt>
      <trkpt lat="46.26838" lon="6.5495">
        <ele>989.6</ele>
        <time>2023-01-21T09:35:22.000Z</time>
      </trkpt>
      <trkpt lat="46.26838" lon="6.5495">
        <ele>989.4</ele>
        <time>2023-01-21T09:35:23.000Z</time>
      </trkpt>
      <trkpt lat="46.26839" lon="6.5495">
        <ele>989.4</ele>
        <time>2023-01-21T09:35:24.000Z</time>
      </trkpt>
      <trkpt lat="46.26839" lon="6.54951">
        <ele>989.3</ele>
        <time>2023-01-21T09:35:25.000Z</time>
      </trkpt>
      <trkpt lat="46.26839" lon="6.54953">
        <ele>989.1</ele>
        <time>2023-01-21T09:35:26.000Z</time>
      </trkpt>
      <trkpt lat="46.2684" lon="6.54954">
        <ele>989.3</ele>
        <time>2023-01-21T09:35:27.000Z</time>
      </trkpt>
      <trkpt lat="46.26841" lon="6.54955">
        <ele>989.2</ele>
        <time>2023-01-21T09:35:28.000Z</time>
      </trkpt>
      <trkpt lat="46.2684" lon="6.54955">
        <ele>988.8</ele>
        <time>2023-01-21T09:35:29.000Z</time>
      </trkpt>
      <trkpt lat="46.2684" lon="6.54956">
        <ele>988.6</ele>
        <time>2023-01-21T09:35:30.000Z</time>
      </trkpt>
      <trkpt lat="46.26839" lon="6.54957">
        <ele>988.8</ele>
        <time>2023-01-21T09:35:31.000Z</time>
      </trkpt>
      <trkpt lat="46.26839" lon="6.54959">
        <ele>988.9</ele>
        <time>2023-01-21T09:35:32.000Z</time>
      </trkpt>
      <trkpt lat="46.26839" lon="6.54959">
        <ele>988.7</ele>
        <time>2023-01-21T09:35:33.000Z</time>
      </trkpt>
      <trkpt lat="46.26839" lon="6.5496">
        <ele>987.8</ele>
        <time>2023-01-21T09:35:34.000Z</time>
      </trkpt>
      <trkpt lat="46.26839" lon="6.54961">
        <ele>987.7</ele>
        <time>2023-01-21T09:35:35.000Z</time>
      </trkpt>
      <trkpt lat="46.26839" lon="6.5496">
        <ele>987.6</ele>
        <time>2023-01-21T09:35:36.000Z</time>
      </trkpt>
      <trkpt lat="46.26839" lon="6.5496">
        <ele>987.5</ele>
        <time>2023-01-21T09:35:37.000Z</time>
      </trkpt>
      <trkpt lat="46.26839" lon="6.54959">
        <ele>986.5</ele>
        <time>2023-01-21T09:35:38.000Z</time>
      </trkpt>
      <trkpt lat="46.26838" lon="6.54958">
        <ele>985.9</ele>
        <time>2023-01-21T09:35:39.000Z</time>
      </trkpt>
      <trkpt lat="46.26838" lon="6.54958">
        <ele>985.3</ele>
        <time>2023-01-21T09:35:40.000Z</time>
      </trkpt>
      <trkpt lat="46.26838" lon="6.54958">
        <ele>984.8</ele>
        <time>2023-01-21T09:35:41.000Z</time>
      </trkpt>
      <trkpt lat="46.26838" lon="6.54958">
        <ele>984.8</ele>
        <time>2023-01-21T09:35:42.000Z</time>
      </trkpt>
      <trkpt lat="46.26838" lon="6.54958">
        <ele>984.8</ele>
        <time>2023-01-21T09:35:43.000Z</time>
      </trkpt>
      <trkpt lat="46.26838" lon="6.54958">
        <ele>984.8</ele>
        <time>2023-01-21T09:35:44.000Z</time>
      </trkpt>
      <trkpt lat="46.26838" lon="6.54958">
        <ele>984.8</ele>
        <time>2023-01-21T09:35:45.000Z</time>
      </trkpt>
      <trkpt lat="46.26838" lon="6.54958">
        <ele>984.8</ele>
        <time>2023-01-21T09:35:46.000Z</time>
      </trkpt>
      <trkpt lat="46.26838" lon="6.54958">
        <ele>984.8</ele>
        <time>2023-01-21T09:35:47.000Z</time>
      </trkpt>
      <trkpt lat="46.26838" lon="6.54958">
        <ele>984.8</ele>
        <time>2023-01-21T09:35:48.000Z</time>
      </trkpt>
      <trkpt lat="46.26836" lon="6.54957">
        <ele>983.8</ele>
        <time>2023-01-21T09:35:49.000Z</time>
      </trkpt>
      <trkpt lat="46.26837" lon="6.54957">
        <ele>983.6</ele>
        <time>2023-01-21T09:35:50.000Z</time>
      </trkpt>
      <trkpt lat="46.26837" lon="6.54956">
        <ele>983.6</ele>
        <time>2023-01-21T09:35:51.000Z</time>
      </trkpt>
      <trkpt lat="46.26837" lon="6.54956">
        <ele>983.8</ele>
        <time>2023-01-21T09:35:52.000Z</time>
      </trkpt>
      <trkpt lat="46.26837" lon="6.54956">
        <ele>984.1</ele>
        <time>2023-01-21T09:35:53.000Z</time>
      </trkpt>
      <trkpt lat="46.26837" lon="6.54956">
        <ele>984.1</ele>
        <time>2023-01-21T09:35:54.000Z</time>
      </trkpt>
      <trkpt lat="46.26837" lon="6.54956">
        <ele>984.1</ele>
        <time>2023-01-21T09:35:55.000Z</time>
      </trkpt>
      <trkpt lat="46.26838" lon="6.54956">
        <ele>983.8</ele>
        <time>2023-01-21T09:35:56.000Z</time>
      </trkpt>
      <trkpt lat="46.26838" lon="6.54956">
        <ele>984</ele>
        <time>2023-01-21T09:35:57.000Z</time>
      </trkpt>
      <trkpt lat="46.26838" lon="6.54955">
        <ele>984.1</ele>
        <time>2023-01-21T09:35:58.000Z</time>
      </trkpt>
      <trkpt lat="46.26838" lon="6.54955">
        <ele>984.3</ele>
        <time>2023-01-21T09:35:59.000Z</time>
      </trkpt>
      <trkpt lat="46.26838" lon="6.54955">
        <ele>984.5</ele>
        <time>2023-01-21T09:36:00.000Z</time>
      </trkpt>
      <trkpt lat="46.26838" lon="6.54955">
        <ele>984.5</ele>
        <time>2023-01-21T09:36:01.000Z</time>
      </trkpt>
      <trkpt lat="46.26838" lon="6.54955">
        <ele>984.5</ele>
        <time>2023-01-21T09:36:02.000Z</time>
      </trkpt>
      <trkpt lat="46.26838" lon="6.54955">
        <ele>984.5</ele>
        <time>2023-01-21T09:36:03.000Z</time>
      </trkpt>
      <trkpt lat="46.26838" lon="6.54955">
        <ele>984.5</ele>
        <time>2023-01-21T09:36:04.000Z</time>
      </trkpt>
      <trkpt lat="46.26838" lon="6.54955">
        <ele>984.5</ele>
        <time>2023-01-21T09:36:05.000Z</time>
      </trkpt>
      <trkpt lat="46.26838" lon="6.54955">
        <ele>984.5</ele>
        <time>2023-01-21T09:36:06.000Z</time>
      </trkpt>
      <trkpt lat="46.26838" lon="6.54955">
        <ele>984.5</ele>
        <time>2023-01-21T09:36:07.000Z</time>
      </trkpt>
      <trkpt lat="46.26838" lon="6.54955">
        <ele>984.5</ele>
        <time>2023-01-21T09:36:08.000Z</time>
      </trkpt>
      <trkpt lat="46.26838" lon="6.54955">
        <ele>984.5</ele>
        <time>2023-01-21T09:36:09.000Z</time>
      </trkpt>
      <trkpt lat="46.26838" lon="6.54955">
        <ele>984.5</ele>
        <time>2023-01-21T09:36:10.000Z</time>
      </trkpt>
      <trkpt lat="46.26838" lon="6.54955">
        <ele>984.5</ele>
        <time>2023-01-21T09:36:11.000Z</time>
      </trkpt>
      <trkpt lat="46.26838" lon="6.54955">
        <ele>984.5</ele>
        <time>2023-01-21T09:36:12.000Z</time>
      </trkpt>
      <trkpt lat="46.26838" lon="6.54955">
        <ele>984.5</ele>
        <time>2023-01-21T09:36:13.000Z</time>
      </trkpt>
      <trkpt lat="46.26838" lon="6.54955">
        <ele>984.5</ele>
        <time>2023-01-21T09:36:14.000Z</time>
      </trkpt>
      <trkpt lat="46.26838" lon="6.54955">
        <ele>984.5</ele>
        <time>2023-01-21T09:36:15.000Z</time>
      </trkpt>
      <trkpt lat="46.26838" lon="6.54955">
        <ele>984.5</ele>
        <time>2023-01-21T09:36:16.000Z</time>
      </trkpt>
      <trkpt lat="46.26838" lon="6.54955">
        <ele>984.5</ele>
        <time>2023-01-21T09:36:17.000Z</time>
      </trkpt>
      <trkpt lat="46.26838" lon="6.54955">
        <ele>984.5</ele>
        <time>2023-01-21T09:36:18.000Z</time>
      </trkpt>
      <trkpt lat="46.26838" lon="6.54955">
        <ele>984.5</ele>
        <time>2023-01-21T09:36:19.000Z</time>
      </trkpt>
      <trkpt lat="46.26838" lon="6.54955">
        <ele>984.5</ele>
        <time>2023-01-21T09:36:20.000Z</time>
      </trkpt>
      <trkpt lat="46.26838" lon="6.54955">
        <ele>984.5</ele>
        <time>2023-01-21T09:36:21.000Z</time>
      </trkpt>
      <trkpt lat="46.26838" lon="6.54955">
        <ele>984.5</ele>
        <time>2023-01-21T09:36:22.000Z</time>
      </trkpt>
      <trkpt lat="46.26838" lon="6.54955">
        <ele>984.5</ele>
        <time>2023-01-21T09:36:23.000Z</time>
      </trkpt>
      <trkpt lat="46.26838" lon="6.54955">
        <ele>984.5</ele>
        <time>2023-01-21T09:36:24.000Z</time>
      </trkpt>
      <trkpt lat="46.26838" lon="6.54955">
        <ele>984.5</ele>
        <time>2023-01-21T09:36:25.000Z</time>
      </trkpt>
      <trkpt lat="46.26838" lon="6.54955">
        <ele>984.5</ele>
        <time>2023-01-21T09:36:26.000Z</time>
      </trkpt>
      <trkpt lat="46.26838" lon="6.54955">
        <ele>984.5</ele>
        <time>2023-01-21T09:36:27.000Z</time>
      </trkpt>
      <trkpt lat="46.26838" lon="6.54955">
        <ele>984.5</ele>
        <time>2023-01-21T09:36:28.000Z</time>
      </trkpt>
      <trkpt lat="46.26838" lon="6.54955">
        <ele>984.5</ele>
        <time>2023-01-21T09:36:29.000Z</time>
      </trkpt>
      <trkpt lat="46.26842" lon="6.54956">
        <ele>984.6</ele>
        <time>2023-01-21T09:36:30.000Z</time>
      </trkpt>
      <trkpt lat="46.26842" lon="6.54957">
        <ele>984.8</ele>
        <time>2023-01-21T09:36:31.000Z</time>
      </trkpt>
      <trkpt lat="46.26842" lon="6.54958">
        <ele>985.1</ele>
        <time>2023-01-21T09:36:32.000Z</time>
      </trkpt>
      <trkpt lat="46.26842" lon="6.54958">
        <ele>985</ele>
        <time>2023-01-21T09:36:33.000Z</time>
      </trkpt>
      <trkpt lat="46.26842" lon="6.54959">
        <ele>985.4</ele>
        <time>2023-01-21T09:36:34.000Z</time>
      </trkpt>
      <trkpt lat="46.26842" lon="6.54959">
        <ele>985.4</ele>
        <time>2023-01-21T09:36:35.000Z</time>
      </trkpt>
      <trkpt lat="46.26841" lon="6.54959">
        <ele>985.7</ele>
        <time>2023-01-21T09:36:36.000Z</time>
      </trkpt>
      <trkpt lat="46.26841" lon="6.5496">
        <ele>985.5</ele>
        <time>2023-01-21T09:36:37.000Z</time>
      </trkpt>
      <trkpt lat="46.26841" lon="6.5496">
        <ele>985.6</ele>
        <time>2023-01-21T09:36:38.000Z</time>
      </trkpt>
      <trkpt lat="46.2684" lon="6.54961">
        <ele>985.6</ele>
        <time>2023-01-21T09:36:39.000Z</time>
      </trkpt>
      <trkpt lat="46.2684" lon="6.54962">
        <ele>985.8</ele>
        <time>2023-01-21T09:36:40.000Z</time>
      </trkpt>
      <trkpt lat="46.2684" lon="6.54964">
        <ele>986</ele>
        <time>2023-01-21T09:36:41.000Z</time>
      </trkpt>
      <trkpt lat="46.2684" lon="6.54965">
        <ele>986.2</ele>
        <time>2023-01-21T09:36:42.000Z</time>
      </trkpt>
      <trkpt lat="46.26841" lon="6.54966">
        <ele>986.5</ele>
        <time>2023-01-21T09:36:43.000Z</time>
      </trkpt>
      <trkpt lat="46.26842" lon="6.54967">
        <ele>986.7</ele>
        <time>2023-01-21T09:36:44.000Z</time>
      </trkpt>
      <trkpt lat="46.26842" lon="6.54967">
        <ele>987</ele>
        <time>2023-01-21T09:36:45.000Z</time>
      </trkpt>
      <trkpt lat="46.26842" lon="6.54968">
        <ele>987.2</ele>
        <time>2023-01-21T09:36:46.000Z</time>
      </trkpt>
      <trkpt lat="46.26842" lon="6.54969">
        <ele>987.4</ele>
        <time>2023-01-21T09:36:47.000Z</time>
      </trkpt>
      <trkpt lat="46.26842" lon="6.5497">
        <ele>987.4</ele>
        <time>2023-01-21T09:36:48.000Z</time>
      </trkpt>
      <trkpt lat="46.26843" lon="6.54971">
        <ele>987.5</ele>
        <time>2023-01-21T09:36:49.000Z</time>
      </trkpt>
      <trkpt lat="46.26843" lon="6.54972">
        <ele>987.6</ele>
        <time>2023-01-21T09:36:50.000Z</time>
      </trkpt>
      <trkpt lat="46.26844" lon="6.54973">
        <ele>987.8</ele>
        <time>2023-01-21T09:36:51.000Z</time>
      </trkpt>
      <trkpt lat="46.26844" lon="6.54975">
        <ele>987.8</ele>
        <time>2023-01-21T09:36:52.000Z</time>
      </trkpt>
      <trkpt lat="46.26845" lon="6.54977">
        <ele>988</ele>
        <time>2023-01-21T09:36:53.000Z</time>
      </trkpt>
      <trkpt lat="46.26845" lon="6.54978">
        <ele>988.2</ele>
        <time>2023-01-21T09:36:54.000Z</time>
      </trkpt>
      <trkpt lat="46.26846" lon="6.54979">
        <ele>988.2</ele>
        <time>2023-01-21T09:36:55.000Z</time>
      </trkpt>
      <trkpt lat="46.26847" lon="6.54981">
        <ele>988.5</ele>
        <time>2023-01-21T09:36:56.000Z</time>
      </trkpt>
      <trkpt lat="46.26847" lon="6.54982">
        <ele>988.6</ele>
        <time>2023-01-21T09:36:57.000Z</time>
      </trkpt>
      <trkpt lat="46.26847" lon="6.54983">
        <ele>988.5</ele>
        <time>2023-01-21T09:36:58.000Z</time>
      </trkpt>
      <trkpt lat="46.26847" lon="6.54983">
        <ele>988.5</ele>
        <time>2023-01-21T09:36:59.000Z</time>
      </trkpt>
      <trkpt lat="46.26848" lon="6.54984">
        <ele>988.4</ele>
        <time>2023-01-21T09:37:00.000Z</time>
      </trkpt>
      <trkpt lat="46.26848" lon="6.54984">
        <ele>988.5</ele>
        <time>2023-01-21T09:37:01.000Z</time>
      </trkpt>
      <trkpt lat="46.26848" lon="6.54985">
        <ele>988.4</ele>
        <time>2023-01-21T09:37:02.000Z</time>
      </trkpt>
      <trkpt lat="46.26848" lon="6.54986">
        <ele>988.5</ele>
        <time>2023-01-21T09:37:03.000Z</time>
      </trkpt>
      <trkpt lat="46.26848" lon="6.54987">
        <ele>988.7</ele>
        <time>2023-01-21T09:37:04.000Z</time>
      </trkpt>
      <trkpt lat="46.26849" lon="6.54987">
        <ele>988.8</ele>
        <time>2023-01-21T09:37:05.000Z</time>
      </trkpt>
      <trkpt lat="46.26849" lon="6.54988">
        <ele>989.1</ele>
        <time>2023-01-21T09:37:06.000Z</time>
      </trkpt>
      <trkpt lat="46.2685" lon="6.54989">
        <ele>989.5</ele>
        <time>2023-01-21T09:37:07.000Z</time>
      </trkpt>
      <trkpt lat="46.2685" lon="6.5499">
        <ele>989.7</ele>
        <time>2023-01-21T09:37:08.000Z</time>
      </trkpt>
      <trkpt lat="46.2685" lon="6.5499">
        <ele>989.9</ele>
        <time>2023-01-21T09:37:09.000Z</time>
      </trkpt>
      <trkpt lat="46.26851" lon="6.54991">
        <ele>990</ele>
        <time>2023-01-21T09:37:10.000Z</time>
      </trkpt>
      <trkpt lat="46.26851" lon="6.54992">
        <ele>990.3</ele>
        <time>2023-01-21T09:37:11.000Z</time>
      </trkpt>
      <trkpt lat="46.26851" lon="6.54993">
        <ele>990.6</ele>
        <time>2023-01-21T09:37:12.000Z</time>
      </trkpt>
      <trkpt lat="46.26852" lon="6.54993">
        <ele>990.9</ele>
        <time>2023-01-21T09:37:13.000Z</time>
      </trkpt>
      <trkpt lat="46.26852" lon="6.54994">
        <ele>991.2</ele>
        <time>2023-01-21T09:37:14.000Z</time>
      </trkpt>
      <trkpt lat="46.26852" lon="6.54995">
        <ele>991.5</ele>
        <time>2023-01-21T09:37:15.000Z</time>
      </trkpt>
      <trkpt lat="46.26852" lon="6.54995">
        <ele>991.6</ele>
        <time>2023-01-21T09:37:16.000Z</time>
      </trkpt>
      <trkpt lat="46.26852" lon="6.54996">
        <ele>991.7</ele>
        <time>2023-01-21T09:37:17.000Z</time>
      </trkpt>
      <trkpt lat="46.26852" lon="6.54996">
        <ele>991.8</ele>
        <time>2023-01-21T09:37:18.000Z</time>
      </trkpt>
      <trkpt lat="46.26852" lon="6.54997">
        <ele>992.3</ele>
        <time>2023-01-21T09:37:19.000Z</time>
      </trkpt>
      <trkpt lat="46.26852" lon="6.54997">
        <ele>992.5</ele>
        <time>2023-01-21T09:37:20.000Z</time>
      </trkpt>
      <trkpt lat="46.26853" lon="6.54997">
        <ele>992.6</ele>
        <time>2023-01-21T09:37:21.000Z</time>
      </trkpt>
      <trkpt lat="46.26853" lon="6.54998">
        <ele>992.8</ele>
        <time>2023-01-21T09:37:22.000Z</time>
      </trkpt>
      <trkpt lat="46.26853" lon="6.54998">
        <ele>992.9</ele>
        <time>2023-01-21T09:37:23.000Z</time>
      </trkpt>
      <trkpt lat="46.26853" lon="6.54999">
        <ele>993</ele>
        <time>2023-01-21T09:37:24.000Z</time>
      </trkpt>
      <trkpt lat="46.26853" lon="6.54999">
        <ele>992.9</ele>
        <time>2023-01-21T09:37:25.000Z</time>
      </trkpt>
      <trkpt lat="46.26854" lon="6.55001">
        <ele>992.9</ele>
        <time>2023-01-21T09:37:26.000Z</time>
      </trkpt>
      <trkpt lat="46.26854" lon="6.55002">
        <ele>993</ele>
        <time>2023-01-21T09:37:27.000Z</time>
      </trkpt>
      <trkpt lat="46.26854" lon="6.55003">
        <ele>992.9</ele>
        <time>2023-01-21T09:37:28.000Z</time>
      </trkpt>
      <trkpt lat="46.26854" lon="6.55005">
        <ele>992.8</ele>
        <time>2023-01-21T09:37:29.000Z</time>
      </trkpt>
      <trkpt lat="46.26854" lon="6.55005">
        <ele>992.7</ele>
        <time>2023-01-21T09:37:30.000Z</time>
      </trkpt>
      <trkpt lat="46.26854" lon="6.55006">
        <ele>992.5</ele>
        <time>2023-01-21T09:37:31.000Z</time>
      </trkpt>
      <trkpt lat="46.26853" lon="6.55006">
        <ele>992.1</ele>
        <time>2023-01-21T09:37:32.000Z</time>
      </trkpt>
      <trkpt lat="46.26852" lon="6.55006">
        <ele>991.9</ele>
        <time>2023-01-21T09:37:33.000Z</time>
      </trkpt>
      <trkpt lat="46.26851" lon="6.55006">
        <ele>991.7</ele>
        <time>2023-01-21T09:37:34.000Z</time>
      </trkpt>
      <trkpt lat="46.26851" lon="6.55006">
        <ele>991.9</ele>
        <time>2023-01-21T09:37:35.000Z</time>
      </trkpt>
      <trkpt lat="46.26851" lon="6.55007">
        <ele>991.8</ele>
        <time>2023-01-21T09:37:36.000Z</time>
      </trkpt>
      <trkpt lat="46.26851" lon="6.55007">
        <ele>991.8</ele>
        <time>2023-01-21T09:37:37.000Z</time>
      </trkpt>
      <trkpt lat="46.26851" lon="6.55007">
        <ele>991.6</ele>
        <time>2023-01-21T09:37:38.000Z</time>
      </trkpt>
      <trkpt lat="46.26851" lon="6.55007">
        <ele>991.4</ele>
        <time>2023-01-21T09:37:39.000Z</time>
      </trkpt>
      <trkpt lat="46.26851" lon="6.55008">
        <ele>991.5</ele>
        <time>2023-01-21T09:37:40.000Z</time>
      </trkpt>
      <trkpt lat="46.26851" lon="6.55008">
        <ele>991.6</ele>
        <time>2023-01-21T09:37:41.000Z</time>
      </trkpt>
      <trkpt lat="46.26851" lon="6.55009">
        <ele>991.7</ele>
        <time>2023-01-21T09:37:42.000Z</time>
      </trkpt>
      <trkpt lat="46.26851" lon="6.55011">
        <ele>991.8</ele>
        <time>2023-01-21T09:37:43.000Z</time>
      </trkpt>
      <trkpt lat="46.26851" lon="6.55012">
        <ele>992</ele>
        <time>2023-01-21T09:37:44.000Z</time>
      </trkpt>
      <trkpt lat="46.26851" lon="6.55014">
        <ele>992.3</ele>
        <time>2023-01-21T09:37:45.000Z</time>
      </trkpt>
      <trkpt lat="46.26851" lon="6.55015">
        <ele>992.8</ele>
        <time>2023-01-21T09:37:46.000Z</time>
      </trkpt>
      <trkpt lat="46.26851" lon="6.55016">
        <ele>993.1</ele>
        <time>2023-01-21T09:37:47.000Z</time>
      </trkpt>
      <trkpt lat="46.26852" lon="6.55017">
        <ele>993.4</ele>
        <time>2023-01-21T09:37:48.000Z</time>
      </trkpt>
      <trkpt lat="46.26852" lon="6.55018">
        <ele>993.5</ele>
        <time>2023-01-21T09:37:49.000Z</time>
      </trkpt>
      <trkpt lat="46.26853" lon="6.55019">
        <ele>993.7</ele>
        <time>2023-01-21T09:37:50.000Z</time>
      </trkpt>
      <trkpt lat="46.26853" lon="6.5502">
        <ele>993.7</ele>
        <time>2023-01-21T09:37:51.000Z</time>
      </trkpt>
      <trkpt lat="46.26853" lon="6.55021">
        <ele>993.7</ele>
        <time>2023-01-21T09:37:52.000Z</time>
      </trkpt>
      <trkpt lat="46.26854" lon="6.55022">
        <ele>993.9</ele>
        <time>2023-01-21T09:37:53.000Z</time>
      </trkpt>
      <trkpt lat="46.26854" lon="6.55022">
        <ele>994.1</ele>
        <time>2023-01-21T09:37:54.000Z</time>
      </trkpt>
      <trkpt lat="46.26855" lon="6.55023">
        <ele>994.3</ele>
        <time>2023-01-21T09:37:55.000Z</time>
      </trkpt>
      <trkpt lat="46.26856" lon="6.55024">
        <ele>994.8</ele>
        <time>2023-01-21T09:37:56.000Z</time>
      </trkpt>
      <trkpt lat="46.26856" lon="6.55024">
        <ele>995.1</ele>
        <time>2023-01-21T09:37:57.000Z</time>
      </trkpt>
      <trkpt lat="46.26856" lon="6.55025">
        <ele>995.6</ele>
        <time>2023-01-21T09:37:58.000Z</time>
      </trkpt>
      <trkpt lat="46.26857" lon="6.55026">
        <ele>995.9</ele>
        <time>2023-01-21T09:37:59.000Z</time>
      </trkpt>
      <trkpt lat="46.26857" lon="6.55027">
        <ele>996.1</ele>
        <time>2023-01-21T09:38:00.000Z</time>
      </trkpt>
      <trkpt lat="46.26857" lon="6.55027">
        <ele>996.4</ele>
        <time>2023-01-21T09:38:01.000Z</time>
      </trkpt>
      <trkpt lat="46.26858" lon="6.55028">
        <ele>996.7</ele>
        <time>2023-01-21T09:38:02.000Z</time>
      </trkpt>
      <trkpt lat="46.26858" lon="6.5503">
        <ele>997</ele>
        <time>2023-01-21T09:38:03.000Z</time>
      </trkpt>
      <trkpt lat="46.26858" lon="6.5503">
        <ele>997.3</ele>
        <time>2023-01-21T09:38:04.000Z</time>
      </trkpt>
      <trkpt lat="46.26857" lon="6.55032">
        <ele>997.5</ele>
        <time>2023-01-21T09:38:05.000Z</time>
      </trkpt>
      <trkpt lat="46.26857" lon="6.55033">
        <ele>997.7</ele>
        <time>2023-01-21T09:38:06.000Z</time>
      </trkpt>
      <trkpt lat="46.26857" lon="6.55034">
        <ele>998</ele>
        <time>2023-01-21T09:38:07.000Z</time>
      </trkpt>
      <trkpt lat="46.26857" lon="6.55034">
        <ele>998.3</ele>
        <time>2023-01-21T09:38:08.000Z</time>
      </trkpt>
      <trkpt lat="46.26858" lon="6.55035">
        <ele>998.5</ele>
        <time>2023-01-21T09:38:09.000Z</time>
      </trkpt>
      <trkpt lat="46.26858" lon="6.55036">
        <ele>999</ele>
        <time>2023-01-21T09:38:10.000Z</time>
      </trkpt>
      <trkpt lat="46.26858" lon="6.55037">
        <ele>999.2</ele>
        <time>2023-01-21T09:38:11.000Z</time>
      </trkpt>
      <trkpt lat="46.26858" lon="6.55038">
        <ele>999.5</ele>
        <time>2023-01-21T09:38:12.000Z</time>
      </trkpt>
      <trkpt lat="46.26858" lon="6.55038">
        <ele>999.8</ele>
        <time>2023-01-21T09:38:13.000Z</time>
      </trkpt>
      <trkpt lat="46.26858" lon="6.55039">
        <ele>1000.3</ele>
        <time>2023-01-21T09:38:14.000Z</time>
      </trkpt>
      <trkpt lat="46.26858" lon="6.5504">
        <ele>1000.7</ele>
        <time>2023-01-21T09:38:15.000Z</time>
      </trkpt>
      <trkpt lat="46.26858" lon="6.55041">
        <ele>1001.2</ele>
        <time>2023-01-21T09:38:16.000Z</time>
      </trkpt>
      <trkpt lat="46.26859" lon="6.55042">
        <ele>1001.4</ele>
        <time>2023-01-21T09:38:17.000Z</time>
      </trkpt>
      <trkpt lat="46.26859" lon="6.55043">
        <ele>1001.5</ele>
        <time>2023-01-21T09:38:18.000Z</time>
      </trkpt>
      <trkpt lat="46.2686" lon="6.55044">
        <ele>1001.7</ele>
        <time>2023-01-21T09:38:19.000Z</time>
      </trkpt>
      <trkpt lat="46.2686" lon="6.55045">
        <ele>1001.8</ele>
        <time>2023-01-21T09:38:20.000Z</time>
      </trkpt>
      <trkpt lat="46.2686" lon="6.55046">
        <ele>1002</ele>
        <time>2023-01-21T09:38:21.000Z</time>
      </trkpt>
      <trkpt lat="46.2686" lon="6.55047">
        <ele>1002.2</ele>
        <time>2023-01-21T09:38:22.000Z</time>
      </trkpt>
      <trkpt lat="46.2686" lon="6.55048">
        <ele>1002.2</ele>
        <time>2023-01-21T09:38:23.000Z</time>
      </trkpt>
      <trkpt lat="46.2686" lon="6.55049">
        <ele>1002.3</ele>
        <time>2023-01-21T09:38:24.000Z</time>
      </trkpt>
      <trkpt lat="46.2686" lon="6.5505">
        <ele>1002.4</ele>
        <time>2023-01-21T09:38:25.000Z</time>
      </trkpt>
      <trkpt lat="46.2686" lon="6.55051">
        <ele>1002.5</ele>
        <time>2023-01-21T09:38:26.000Z</time>
      </trkpt>
      <trkpt lat="46.2686" lon="6.55052">
        <ele>1002.4</ele>
        <time>2023-01-21T09:38:27.000Z</time>
      </trkpt>
      <trkpt lat="46.2686" lon="6.55054">
        <ele>1002.6</ele>
        <time>2023-01-21T09:38:28.000Z</time>
      </trkpt>
      <trkpt lat="46.26861" lon="6.55055">
        <ele>1002.9</ele>
        <time>2023-01-21T09:38:29.000Z</time>
      </trkpt>
      <trkpt lat="46.26861" lon="6.55057">
        <ele>1003.1</ele>
        <time>2023-01-21T09:38:30.000Z</time>
      </trkpt>
      <trkpt lat="46.26861" lon="6.55058">
        <ele>1003.3</ele>
        <time>2023-01-21T09:38:31.000Z</time>
      </trkpt>
      <trkpt lat="46.26861" lon="6.55059">
        <ele>1003.6</ele>
        <time>2023-01-21T09:38:32.000Z</time>
      </trkpt>
      <trkpt lat="46.26862" lon="6.5506">
        <ele>1003.6</ele>
        <time>2023-01-21T09:38:33.000Z</time>
      </trkpt>
      <trkpt lat="46.26862" lon="6.55061">
        <ele>1003.9</ele>
        <time>2023-01-21T09:38:34.000Z</time>
      </trkpt>
      <trkpt lat="46.26862" lon="6.55062">
        <ele>1003.8</ele>
        <time>2023-01-21T09:38:35.000Z</time>
      </trkpt>
      <trkpt lat="46.26862" lon="6.55063">
        <ele>1003.9</ele>
        <time>2023-01-21T09:38:36.000Z</time>
      </trkpt>
      <trkpt lat="46.26863" lon="6.55064">
        <ele>1004</ele>
        <time>2023-01-21T09:38:37.000Z</time>
      </trkpt>
      <trkpt lat="46.26863" lon="6.55065">
        <ele>1004.1</ele>
        <time>2023-01-21T09:38:38.000Z</time>
      </trkpt>
      <trkpt lat="46.26863" lon="6.55067">
        <ele>1004.2</ele>
        <time>2023-01-21T09:38:39.000Z</time>
      </trkpt>
      <trkpt lat="46.26864" lon="6.55068">
        <ele>1004.4</ele>
        <time>2023-01-21T09:38:40.000Z</time>
      </trkpt>
      <trkpt lat="46.26864" lon="6.55069">
        <ele>1004.3</ele>
        <time>2023-01-21T09:38:41.000Z</time>
      </trkpt>
      <trkpt lat="46.26865" lon="6.5507">
        <ele>1004.6</ele>
        <time>2023-01-21T09:38:42.000Z</time>
      </trkpt>
      <trkpt lat="46.26865" lon="6.55071">
        <ele>1004.8</ele>
        <time>2023-01-21T09:38:43.000Z</time>
      </trkpt>
      <trkpt lat="46.26865" lon="6.55072">
        <ele>1004.9</ele>
        <time>2023-01-21T09:38:44.000Z</time>
      </trkpt>
      <trkpt lat="46.26865" lon="6.55073">
        <ele>1005</ele>
        <time>2023-01-21T09:38:45.000Z</time>
      </trkpt>
      <trkpt lat="46.26865" lon="6.55073">
        <ele>1005.1</ele>
        <time>2023-01-21T09:38:46.000Z</time>
      </trkpt>
      <trkpt lat="46.26866" lon="6.55074">
        <ele>1005.2</ele>
        <time>2023-01-21T09:38:47.000Z</time>
      </trkpt>
      <trkpt lat="46.26865" lon="6.55075">
        <ele>1005.2</ele>
        <time>2023-01-21T09:38:48.000Z</time>
      </trkpt>
      <trkpt lat="46.26866" lon="6.55076">
        <ele>1005.4</ele>
        <time>2023-01-21T09:38:49.000Z</time>
      </trkpt>
      <trkpt lat="46.26866" lon="6.55076">
        <ele>1005.5</ele>
        <time>2023-01-21T09:38:50.000Z</time>
      </trkpt>
      <trkpt lat="46.26867" lon="6.55077">
        <ele>1005.8</ele>
        <time>2023-01-21T09:38:51.000Z</time>
      </trkpt>
      <trkpt lat="46.26868" lon="6.55078">
        <ele>1005.9</ele>
        <time>2023-01-21T09:38:52.000Z</time>
      </trkpt>
      <trkpt lat="46.26868" lon="6.55079">
        <ele>1006.1</ele>
        <time>2023-01-21T09:38:53.000Z</time>
      </trkpt>
      <trkpt lat="46.26868" lon="6.55081">
        <ele>1006.3</ele>
        <time>2023-01-21T09:38:54.000Z</time>
      </trkpt>
      <trkpt lat="46.26869" lon="6.55082">
        <ele>1006.4</ele>
        <time>2023-01-21T09:38:55.000Z</time>
      </trkpt>
      <trkpt lat="46.26869" lon="6.55084">
        <ele>1006.5</ele>
        <time>2023-01-21T09:38:56.000Z</time>
      </trkpt>
      <trkpt lat="46.26869" lon="6.55085">
        <ele>1006.6</ele>
        <time>2023-01-21T09:38:57.000Z</time>
      </trkpt>
      <trkpt lat="46.26869" lon="6.55087">
        <ele>1006.7</ele>
        <time>2023-01-21T09:38:58.000Z</time>
      </trkpt>
      <trkpt lat="46.26869" lon="6.55088">
        <ele>1006.9</ele>
        <time>2023-01-21T09:38:59.000Z</time>
      </trkpt>
      <trkpt lat="46.26869" lon="6.55089">
        <ele>1006.9</ele>
        <time>2023-01-21T09:39:00.000Z</time>
      </trkpt>
      <trkpt lat="46.26869" lon="6.5509">
        <ele>1006.9</ele>
        <time>2023-01-21T09:39:01.000Z</time>
      </trkpt>
      <trkpt lat="46.26869" lon="6.55091">
        <ele>1007.1</ele>
        <time>2023-01-21T09:39:02.000Z</time>
      </trkpt>
      <trkpt lat="46.26869" lon="6.55092">
        <ele>1007.3</ele>
        <time>2023-01-21T09:39:03.000Z</time>
      </trkpt>
      <trkpt lat="46.2687" lon="6.55093">
        <ele>1007.6</ele>
        <time>2023-01-21T09:39:04.000Z</time>
      </trkpt>
      <trkpt lat="46.2687" lon="6.55095">
        <ele>1007.9</ele>
        <time>2023-01-21T09:39:05.000Z</time>
      </trkpt>
      <trkpt lat="46.26871" lon="6.55095">
        <ele>1008</ele>
        <time>2023-01-21T09:39:06.000Z</time>
      </trkpt>
      <trkpt lat="46.26871" lon="6.55096">
        <ele>1008.2</ele>
        <time>2023-01-21T09:39:07.000Z</time>
      </trkpt>
      <trkpt lat="46.26872" lon="6.55096">
        <ele>1008.4</ele>
        <time>2023-01-21T09:39:08.000Z</time>
      </trkpt>
      <trkpt lat="46.26872" lon="6.55097">
        <ele>1008.7</ele>
        <time>2023-01-21T09:39:09.000Z</time>
      </trkpt>
      <trkpt lat="46.26872" lon="6.55098">
        <ele>1008.7</ele>
        <time>2023-01-21T09:39:10.000Z</time>
      </trkpt>
      <trkpt lat="46.26873" lon="6.551">
        <ele>1009</ele>
        <time>2023-01-21T09:39:11.000Z</time>
      </trkpt>
      <trkpt lat="46.26873" lon="6.55101">
        <ele>1008.9</ele>
        <time>2023-01-21T09:39:12.000Z</time>
      </trkpt>
      <trkpt lat="46.26873" lon="6.55102">
        <ele>1008.8</ele>
        <time>2023-01-21T09:39:13.000Z</time>
      </trkpt>
      <trkpt lat="46.26873" lon="6.55103">
        <ele>1008.7</ele>
        <time>2023-01-21T09:39:14.000Z</time>
      </trkpt>
      <trkpt lat="46.26874" lon="6.55104">
        <ele>1009.1</ele>
        <time>2023-01-21T09:39:15.000Z</time>
      </trkpt>
      <trkpt lat="46.26874" lon="6.55105">
        <ele>1009.1</ele>
        <time>2023-01-21T09:39:16.000Z</time>
      </trkpt>
      <trkpt lat="46.26875" lon="6.55106">
        <ele>1009.1</ele>
        <time>2023-01-21T09:39:17.000Z</time>
      </trkpt>
      <trkpt lat="46.26875" lon="6.55106">
        <ele>1009.2</ele>
        <time>2023-01-21T09:39:18.000Z</time>
      </trkpt>
      <trkpt lat="46.26875" lon="6.55106">
        <ele>1009.2</ele>
        <time>2023-01-21T09:39:19.000Z</time>
      </trkpt>
      <trkpt lat="46.26875" lon="6.55107">
        <ele>1008.9</ele>
        <time>2023-01-21T09:39:20.000Z</time>
      </trkpt>
      <trkpt lat="46.26876" lon="6.55107">
        <ele>1008.8</ele>
        <time>2023-01-21T09:39:21.000Z</time>
      </trkpt>
      <trkpt lat="46.26876" lon="6.55108">
        <ele>1008.9</ele>
        <time>2023-01-21T09:39:22.000Z</time>
      </trkpt>
      <trkpt lat="46.26877" lon="6.55109">
        <ele>1009</ele>
        <time>2023-01-21T09:39:23.000Z</time>
      </trkpt>
      <trkpt lat="46.26878" lon="6.5511">
        <ele>1009</ele>
        <time>2023-01-21T09:39:24.000Z</time>
      </trkpt>
      <trkpt lat="46.26878" lon="6.55111">
        <ele>1008.9</ele>
        <time>2023-01-21T09:39:25.000Z</time>
      </trkpt>
      <trkpt lat="46.26878" lon="6.55112">
        <ele>1008.6</ele>
        <time>2023-01-21T09:39:26.000Z</time>
      </trkpt>
      <trkpt lat="46.26879" lon="6.55113">
        <ele>1008.5</ele>
        <time>2023-01-21T09:39:27.000Z</time>
      </trkpt>
      <trkpt lat="46.26879" lon="6.55114">
        <ele>1008.4</ele>
        <time>2023-01-21T09:39:28.000Z</time>
      </trkpt>
      <trkpt lat="46.26879" lon="6.55114">
        <ele>1008.1</ele>
        <time>2023-01-21T09:39:29.000Z</time>
      </trkpt>
      <trkpt lat="46.2688" lon="6.55115">
        <ele>1008</ele>
        <time>2023-01-21T09:39:30.000Z</time>
      </trkpt>
      <trkpt lat="46.26881" lon="6.55116">
        <ele>1007.8</ele>
        <time>2023-01-21T09:39:31.000Z</time>
      </trkpt>
      <trkpt lat="46.26881" lon="6.55116">
        <ele>1007.6</ele>
        <time>2023-01-21T09:39:32.000Z</time>
      </trkpt>
      <trkpt lat="46.26882" lon="6.55116">
        <ele>1007.4</ele>
        <time>2023-01-21T09:39:33.000Z</time>
      </trkpt>
      <trkpt lat="46.26883" lon="6.55116">
        <ele>1007.2</ele>
        <time>2023-01-21T09:39:34.000Z</time>
      </trkpt>
      <trkpt lat="46.26883" lon="6.55117">
        <ele>1007</ele>
        <time>2023-01-21T09:39:35.000Z</time>
      </trkpt>
      <trkpt lat="46.26884" lon="6.55117">
        <ele>1006.8</ele>
        <time>2023-01-21T09:39:36.000Z</time>
      </trkpt>
      <trkpt lat="46.26885" lon="6.55118">
        <ele>1006.6</ele>
        <time>2023-01-21T09:39:37.000Z</time>
      </trkpt>
      <trkpt lat="46.26886" lon="6.55118">
        <ele>1006.5</ele>
        <time>2023-01-21T09:39:38.000Z</time>
      </trkpt>
      <trkpt lat="46.26887" lon="6.55118">
        <ele>1006.3</ele>
        <time>2023-01-21T09:39:39.000Z</time>
      </trkpt>
      <trkpt lat="46.26887" lon="6.55119">
        <ele>1006.2</ele>
        <time>2023-01-21T09:39:40.000Z</time>
      </trkpt>
      <trkpt lat="46.26888" lon="6.55119">
        <ele>1005.9</ele>
        <time>2023-01-21T09:39:41.000Z</time>
      </trkpt>
      <trkpt lat="46.26889" lon="6.55119">
        <ele>1005.6</ele>
        <time>2023-01-21T09:39:42.000Z</time>
      </trkpt>
      <trkpt lat="46.26889" lon="6.5512">
        <ele>1005.4</ele>
        <time>2023-01-21T09:39:43.000Z</time>
      </trkpt>
      <trkpt lat="46.2689" lon="6.55121">
        <ele>1005.4</ele>
        <time>2023-01-21T09:39:44.000Z</time>
      </trkpt>
      <trkpt lat="46.26891" lon="6.55122">
        <ele>1005.3</ele>
        <time>2023-01-21T09:39:45.000Z</time>
      </trkpt>
      <trkpt lat="46.26892" lon="6.55123">
        <ele>1005.2</ele>
        <time>2023-01-21T09:39:46.000Z</time>
      </trkpt>
      <trkpt lat="46.26893" lon="6.55123">
        <ele>1005</ele>
        <time>2023-01-21T09:39:47.000Z</time>
      </trkpt>
      <trkpt lat="46.26893" lon="6.55124">
        <ele>1004.8</ele>
        <time>2023-01-21T09:39:48.000Z</time>
      </trkpt>
      <trkpt lat="46.26894" lon="6.55125">
        <ele>1004.8</ele>
        <time>2023-01-21T09:39:49.000Z</time>
      </trkpt>
      <trkpt lat="46.26895" lon="6.55125">
        <ele>1004.7</ele>
        <time>2023-01-21T09:39:50.000Z</time>
      </trkpt>
      <trkpt lat="46.26895" lon="6.55125">
        <ele>1004.7</ele>
        <time>2023-01-21T09:39:51.000Z</time>
      </trkpt>
      <trkpt lat="46.26896" lon="6.55126">
        <ele>1004.5</ele>
        <time>2023-01-21T09:39:52.000Z</time>
      </trkpt>
      <trkpt lat="46.26897" lon="6.55127">
        <ele>1004.4</ele>
        <time>2023-01-21T09:39:53.000Z</time>
      </trkpt>
      <trkpt lat="46.26898" lon="6.55127">
        <ele>1004.4</ele>
        <time>2023-01-21T09:39:54.000Z</time>
      </trkpt>
      <trkpt lat="46.26899" lon="6.55127">
        <ele>1004.4</ele>
        <time>2023-01-21T09:39:55.000Z</time>
      </trkpt>
      <trkpt lat="46.269" lon="6.55128">
        <ele>1004.3</ele>
        <time>2023-01-21T09:39:56.000Z</time>
      </trkpt>
      <trkpt lat="46.26901" lon="6.55128">
        <ele>1004.3</ele>
        <time>2023-01-21T09:39:57.000Z</time>
      </trkpt>
      <trkpt lat="46.26901" lon="6.55128">
        <ele>1004.2</ele>
        <time>2023-01-21T09:39:58.000Z</time>
      </trkpt>
      <trkpt lat="46.26901" lon="6.55128">
        <ele>1004.1</ele>
        <time>2023-01-21T09:39:59.000Z</time>
      </trkpt>
      <trkpt lat="46.26902" lon="6.55128">
        <ele>1004.3</ele>
        <time>2023-01-21T09:40:00.000Z</time>
      </trkpt>
      <trkpt lat="46.26902" lon="6.55128">
        <ele>1004.5</ele>
        <time>2023-01-21T09:40:01.000Z</time>
      </trkpt>
      <trkpt lat="46.26903" lon="6.55128">
        <ele>1004.7</ele>
        <time>2023-01-21T09:40:02.000Z</time>
      </trkpt>
      <trkpt lat="46.26904" lon="6.55128">
        <ele>1004.8</ele>
        <time>2023-01-21T09:40:03.000Z</time>
      </trkpt>
      <trkpt lat="46.26904" lon="6.55128">
        <ele>1004.9</ele>
        <time>2023-01-21T09:40:04.000Z</time>
      </trkpt>
      <trkpt lat="46.26905" lon="6.55128">
        <ele>1004.9</ele>
        <time>2023-01-21T09:40:05.000Z</time>
      </trkpt>
      <trkpt lat="46.26905" lon="6.55127">
        <ele>1005</ele>
        <time>2023-01-21T09:40:06.000Z</time>
      </trkpt>
      <trkpt lat="46.26906" lon="6.55127">
        <ele>1005</ele>
        <time>2023-01-21T09:40:07.000Z</time>
      </trkpt>
      <trkpt lat="46.26907" lon="6.55127">
        <ele>1005.2</ele>
        <time>2023-01-21T09:40:08.000Z</time>
      </trkpt>
      <trkpt lat="46.26907" lon="6.55126">
        <ele>1005.2</ele>
        <time>2023-01-21T09:40:09.000Z</time>
      </trkpt>
      <trkpt lat="46.26908" lon="6.55125">
        <ele>1005.3</ele>
        <time>2023-01-21T09:40:10.000Z</time>
      </trkpt>
      <trkpt lat="46.26909" lon="6.55125">
        <ele>1005.4</ele>
        <time>2023-01-21T09:40:11.000Z</time>
      </trkpt>
      <trkpt lat="46.2691" lon="6.55125">
        <ele>1005.4</ele>
        <time>2023-01-21T09:40:12.000Z</time>
      </trkpt>
      <trkpt lat="46.26911" lon="6.55125">
        <ele>1005.5</ele>
        <time>2023-01-21T09:40:13.000Z</time>
      </trkpt>
      <trkpt lat="46.26911" lon="6.55125">
        <ele>1005.5</ele>
        <time>2023-01-21T09:40:14.000Z</time>
      </trkpt>
      <trkpt lat="46.26911" lon="6.55125">
        <ele>1005.3</ele>
        <time>2023-01-21T09:40:15.000Z</time>
      </trkpt>
      <trkpt lat="46.26912" lon="6.55125">
        <ele>1005.2</ele>
        <time>2023-01-21T09:40:16.000Z</time>
      </trkpt>
      <trkpt lat="46.26912" lon="6.55126">
        <ele>1005</ele>
        <time>2023-01-21T09:40:17.000Z</time>
      </trkpt>
      <trkpt lat="46.26912" lon="6.55126">
        <ele>1005</ele>
        <time>2023-01-21T09:40:18.000Z</time>
      </trkpt>
      <trkpt lat="46.26912" lon="6.55126">
        <ele>1005</ele>
        <time>2023-01-21T09:40:19.000Z</time>
      </trkpt>
      <trkpt lat="46.26912" lon="6.55127">
        <ele>1004.9</ele>
        <time>2023-01-21T09:40:20.000Z</time>
      </trkpt>
      <trkpt lat="46.26912" lon="6.55127">
        <ele>1004.9</ele>
        <time>2023-01-21T09:40:21.000Z</time>
      </trkpt>
      <trkpt lat="46.26913" lon="6.55127">
        <ele>1004.8</ele>
        <time>2023-01-21T09:40:22.000Z</time>
      </trkpt>
      <trkpt lat="46.26913" lon="6.55127">
        <ele>1004.7</ele>
        <time>2023-01-21T09:40:23.000Z</time>
      </trkpt>
      <trkpt lat="46.26913" lon="6.55127">
        <ele>1004.5</ele>
        <time>2023-01-21T09:40:24.000Z</time>
      </trkpt>
      <trkpt lat="46.26913" lon="6.55127">
        <ele>1004.5</ele>
        <time>2023-01-21T09:40:25.000Z</time>
      </trkpt>
      <trkpt lat="46.26913" lon="6.55127">
        <ele>1004.5</ele>
        <time>2023-01-21T09:40:26.000Z</time>
      </trkpt>
      <trkpt lat="46.26913" lon="6.55127">
        <ele>1004.5</ele>
        <time>2023-01-21T09:40:27.000Z</time>
      </trkpt>
      <trkpt lat="46.26913" lon="6.55127">
        <ele>1004.5</ele>
        <time>2023-01-21T09:40:28.000Z</time>
      </trkpt>
      <trkpt lat="46.26913" lon="6.55127">
        <ele>1004.5</ele>
        <time>2023-01-21T09:40:29.000Z</time>
      </trkpt>
      <trkpt lat="46.26913" lon="6.55127">
        <ele>1004.5</ele>
        <time>2023-01-21T09:40:30.000Z</time>
      </trkpt>
      <trkpt lat="46.26913" lon="6.55127">
        <ele>1004.5</ele>
        <time>2023-01-21T09:40:31.000Z</time>
      </trkpt>
      <trkpt lat="46.26913" lon="6.55127">
        <ele>1004.5</ele>
        <time>2023-01-21T09:40:32.000Z</time>
      </trkpt>
      <trkpt lat="46.26913" lon="6.55127">
        <ele>1004.5</ele>
        <time>2023-01-21T09:40:33.000Z</time>
      </trkpt>
      <trkpt lat="46.26914" lon="6.55131">
        <ele>1004.4</ele>
        <time>2023-01-21T09:40:34.000Z</time>
      </trkpt>
      <trkpt lat="46.26914" lon="6.55133">
        <ele>1004.3</ele>
        <time>2023-01-21T09:40:35.000Z</time>
      </trkpt>
      <trkpt lat="46.26914" lon="6.55133">
        <ele>1004.2</ele>
        <time>2023-01-21T09:40:36.000Z</time>
      </trkpt>
      <trkpt lat="46.26914" lon="6.55134">
        <ele>1004</ele>
        <time>2023-01-21T09:40:37.000Z</time>
      </trkpt>
      <trkpt lat="46.26914" lon="6.55136">
        <ele>1003.8</ele>
        <time>2023-01-21T09:40:38.000Z</time>
      </trkpt>
      <trkpt lat="46.26914" lon="6.55136">
        <ele>1003.7</ele>
        <time>2023-01-21T09:40:39.000Z</time>
      </trkpt>
      <trkpt lat="46.26913" lon="6.55137">
        <ele>1003.5</ele>
        <time>2023-01-21T09:40:40.000Z</time>
      </trkpt>
      <trkpt lat="46.26913" lon="6.55138">
        <ele>1003.3</ele>
        <time>2023-01-21T09:40:41.000Z</time>
      </trkpt>
      <trkpt lat="46.26914" lon="6.55139">
        <ele>1003.2</ele>
        <time>2023-01-21T09:40:42.000Z</time>
      </trkpt>
      <trkpt lat="46.26914" lon="6.5514">
        <ele>1003.3</ele>
        <time>2023-01-21T09:40:43.000Z</time>
      </trkpt>
      <trkpt lat="46.26914" lon="6.55141">
        <ele>1003.5</ele>
        <time>2023-01-21T09:40:44.000Z</time>
      </trkpt>
      <trkpt lat="46.26914" lon="6.55141">
        <ele>1003.5</ele>
        <time>2023-01-21T09:40:45.000Z</time>
      </trkpt>
      <trkpt lat="46.26914" lon="6.55142">
        <ele>1003.6</ele>
        <time>2023-01-21T09:40:46.000Z</time>
      </trkpt>
      <trkpt lat="46.26914" lon="6.55143">
        <ele>1003.5</ele>
        <time>2023-01-21T09:40:47.000Z</time>
      </trkpt>
      <trkpt lat="46.26914" lon="6.55144">
        <ele>1003.3</ele>
        <time>2023-01-21T09:40:48.000Z</time>
      </trkpt>
      <trkpt lat="46.26915" lon="6.55144">
        <ele>1002.9</ele>
        <time>2023-01-21T09:40:49.000Z</time>
      </trkpt>
      <trkpt lat="46.26915" lon="6.55145">
        <ele>1002.9</ele>
        <time>2023-01-21T09:40:50.000Z</time>
      </trkpt>
      <trkpt lat="46.26915" lon="6.55146">
        <ele>1002.8</ele>
        <time>2023-01-21T09:40:51.000Z</time>
      </trkpt>
      <trkpt lat="46.26916" lon="6.55147">
        <ele>1002.7</ele>
        <time>2023-01-21T09:40:52.000Z</time>
      </trkpt>
      <trkpt lat="46.26916" lon="6.55148">
        <ele>1002.9</ele>
        <time>2023-01-21T09:40:53.000Z</time>
      </trkpt>
      <trkpt lat="46.26917" lon="6.55149">
        <ele>1002.9</ele>
        <time>2023-01-21T09:40:54.000Z</time>
      </trkpt>
      <trkpt lat="46.26917" lon="6.5515">
        <ele>1002.8</ele>
        <time>2023-01-21T09:40:55.000Z</time>
      </trkpt>
      <trkpt lat="46.26917" lon="6.55151">
        <ele>1002.8</ele>
        <time>2023-01-21T09:40:56.000Z</time>
      </trkpt>
      <trkpt lat="46.26918" lon="6.55152">
        <ele>1002.9</ele>
        <time>2023-01-21T09:40:57.000Z</time>
      </trkpt>
      <trkpt lat="46.26919" lon="6.55153">
        <ele>1002.9</ele>
        <time>2023-01-21T09:40:58.000Z</time>
      </trkpt>
      <trkpt lat="46.26919" lon="6.55154">
        <ele>1002.9</ele>
        <time>2023-01-21T09:40:59.000Z</time>
      </trkpt>
      <trkpt lat="46.2692" lon="6.55155">
        <ele>1002.9</ele>
        <time>2023-01-21T09:41:00.000Z</time>
      </trkpt>
      <trkpt lat="46.2692" lon="6.55156">
        <ele>1002.8</ele>
        <time>2023-01-21T09:41:01.000Z</time>
      </trkpt>
      <trkpt lat="46.26921" lon="6.55156">
        <ele>1002.9</ele>
        <time>2023-01-21T09:41:02.000Z</time>
      </trkpt>
      <trkpt lat="46.26922" lon="6.55158">
        <ele>1002.9</ele>
        <time>2023-01-21T09:41:03.000Z</time>
      </trkpt>
      <trkpt lat="46.26922" lon="6.55159">
        <ele>1002.9</ele>
        <time>2023-01-21T09:41:04.000Z</time>
      </trkpt>
      <trkpt lat="46.26922" lon="6.55159">
        <ele>1003</ele>
        <time>2023-01-21T09:41:05.000Z</time>
      </trkpt>
      <trkpt lat="46.26923" lon="6.5516">
        <ele>1003</ele>
        <time>2023-01-21T09:41:06.000Z</time>
      </trkpt>
      <trkpt lat="46.26923" lon="6.55161">
        <ele>1003</ele>
        <time>2023-01-21T09:41:07.000Z</time>
      </trkpt>
      <trkpt lat="46.26924" lon="6.55162">
        <ele>1003</ele>
        <time>2023-01-21T09:41:08.000Z</time>
      </trkpt>
      <trkpt lat="46.26924" lon="6.55163">
        <ele>1003.1</ele>
        <time>2023-01-21T09:41:09.000Z</time>
      </trkpt>
      <trkpt lat="46.26925" lon="6.55164">
        <ele>1003.1</ele>
        <time>2023-01-21T09:41:10.000Z</time>
      </trkpt>
      <trkpt lat="46.26925" lon="6.55166">
        <ele>1003.4</ele>
        <time>2023-01-21T09:41:11.000Z</time>
      </trkpt>
      <trkpt lat="46.26925" lon="6.55167">
        <ele>1003.4</ele>
        <time>2023-01-21T09:41:12.000Z</time>
      </trkpt>
      <trkpt lat="46.26926" lon="6.55168">
        <ele>1003.6</ele>
        <time>2023-01-21T09:41:13.000Z</time>
      </trkpt>
      <trkpt lat="46.26927" lon="6.55169">
        <ele>1003.9</ele>
        <time>2023-01-21T09:41:14.000Z</time>
      </trkpt>
      <trkpt lat="46.26927" lon="6.5517">
        <ele>1004.1</ele>
        <time>2023-01-21T09:41:15.000Z</time>
      </trkpt>
      <trkpt lat="46.26927" lon="6.5517">
        <ele>1004.3</ele>
        <time>2023-01-21T09:41:16.000Z</time>
      </trkpt>
      <trkpt lat="46.26928" lon="6.55171">
        <ele>1004.6</ele>
        <time>2023-01-21T09:41:17.000Z</time>
      </trkpt>
      <trkpt lat="46.26929" lon="6.55172">
        <ele>1004.9</ele>
        <time>2023-01-21T09:41:18.000Z</time>
      </trkpt>
      <trkpt lat="46.26929" lon="6.55172">
        <ele>1005.1</ele>
        <time>2023-01-21T09:41:19.000Z</time>
      </trkpt>
      <trkpt lat="46.2693" lon="6.55173">
        <ele>1005.3</ele>
        <time>2023-01-21T09:41:20.000Z</time>
      </trkpt>
      <trkpt lat="46.26931" lon="6.55173">
        <ele>1005.6</ele>
        <time>2023-01-21T09:41:21.000Z</time>
      </trkpt>
      <trkpt lat="46.26932" lon="6.55173">
        <ele>1005.7</ele>
        <time>2023-01-21T09:41:22.000Z</time>
      </trkpt>
      <trkpt lat="46.26933" lon="6.55173">
        <ele>1005.9</ele>
        <time>2023-01-21T09:41:23.000Z</time>
      </trkpt>
      <trkpt lat="46.26934" lon="6.55174">
        <ele>1006.3</ele>
        <time>2023-01-21T09:41:24.000Z</time>
      </trkpt>
      <trkpt lat="46.26935" lon="6.55174">
        <ele>1006.7</ele>
        <time>2023-01-21T09:41:25.000Z</time>
      </trkpt>
      <trkpt lat="46.26935" lon="6.55174">
        <ele>1007.1</ele>
        <time>2023-01-21T09:41:26.000Z</time>
      </trkpt>
      <trkpt lat="46.26936" lon="6.55174">
        <ele>1007.5</ele>
        <time>2023-01-21T09:41:27.000Z</time>
      </trkpt>
      <trkpt lat="46.26936" lon="6.55175">
        <ele>1007.7</ele>
        <time>2023-01-21T09:41:28.000Z</time>
      </trkpt>
      <trkpt lat="46.26937" lon="6.55176">
        <ele>1008.2</ele>
        <time>2023-01-21T09:41:29.000Z</time>
      </trkpt>
      <trkpt lat="46.26938" lon="6.55176">
        <ele>1008.8</ele>
        <time>2023-01-21T09:41:30.000Z</time>
      </trkpt>
      <trkpt lat="46.26938" lon="6.55177">
        <ele>1009.2</ele>
        <time>2023-01-21T09:41:31.000Z</time>
      </trkpt>
      <trkpt lat="46.26939" lon="6.55177">
        <ele>1009.4</ele>
        <time>2023-01-21T09:41:32.000Z</time>
      </trkpt>
      <trkpt lat="46.2694" lon="6.55178">
        <ele>1009.6</ele>
        <time>2023-01-21T09:41:33.000Z</time>
      </trkpt>
      <trkpt lat="46.26941" lon="6.55178">
        <ele>1009.6</ele>
        <time>2023-01-21T09:41:34.000Z</time>
      </trkpt>
      <trkpt lat="46.26941" lon="6.55178">
        <ele>1009.9</ele>
        <time>2023-01-21T09:41:35.000Z</time>
      </trkpt>
      <trkpt lat="46.26942" lon="6.55179">
        <ele>1009.8</ele>
        <time>2023-01-21T09:41:36.000Z</time>
      </trkpt>
      <trkpt lat="46.26943" lon="6.55179">
        <ele>1009.8</ele>
        <time>2023-01-21T09:41:37.000Z</time>
      </trkpt>
      <trkpt lat="46.26943" lon="6.5518">
        <ele>1009.7</ele>
        <time>2023-01-21T09:41:38.000Z</time>
      </trkpt>
      <trkpt lat="46.26944" lon="6.5518">
        <ele>1009.6</ele>
        <time>2023-01-21T09:41:39.000Z</time>
      </trkpt>
      <trkpt lat="46.26944" lon="6.5518">
        <ele>1009.7</ele>
        <time>2023-01-21T09:41:40.000Z</time>
      </trkpt>
      <trkpt lat="46.26945" lon="6.5518">
        <ele>1010</ele>
        <time>2023-01-21T09:41:41.000Z</time>
      </trkpt>
      <trkpt lat="46.26946" lon="6.55181">
        <ele>1010</ele>
        <time>2023-01-21T09:41:42.000Z</time>
      </trkpt>
      <trkpt lat="46.26946" lon="6.55181">
        <ele>1010.1</ele>
        <time>2023-01-21T09:41:43.000Z</time>
      </trkpt>
      <trkpt lat="46.26947" lon="6.55181">
        <ele>1010.2</ele>
        <time>2023-01-21T09:41:44.000Z</time>
      </trkpt>
      <trkpt lat="46.26947" lon="6.55181">
        <ele>1010.4</ele>
        <time>2023-01-21T09:41:45.000Z</time>
      </trkpt>
      <trkpt lat="46.26947" lon="6.55181">
        <ele>1010.7</ele>
        <time>2023-01-21T09:41:46.000Z</time>
      </trkpt>
      <trkpt lat="46.26948" lon="6.5518">
        <ele>1010.8</ele>
        <time>2023-01-21T09:41:47.000Z</time>
      </trkpt>
      <trkpt lat="46.26949" lon="6.55181">
        <ele>1011.1</ele>
        <time>2023-01-21T09:41:48.000Z</time>
      </trkpt>
      <trkpt lat="46.2695" lon="6.5518">
        <ele>1011.1</ele>
        <time>2023-01-21T09:41:49.000Z</time>
      </trkpt>
      <trkpt lat="46.2695" lon="6.5518">
        <ele>1011.2</ele>
        <time>2023-01-21T09:41:50.000Z</time>
      </trkpt>
      <trkpt lat="46.26951" lon="6.55181">
        <ele>1011.2</ele>
        <time>2023-01-21T09:41:51.000Z</time>
      </trkpt>
      <trkpt lat="46.26952" lon="6.55181">
        <ele>1011.2</ele>
        <time>2023-01-21T09:41:52.000Z</time>
      </trkpt>
      <trkpt lat="46.26953" lon="6.55181">
        <ele>1011</ele>
        <time>2023-01-21T09:41:53.000Z</time>
      </trkpt>
      <trkpt lat="46.26954" lon="6.55181">
        <ele>1010.9</ele>
        <time>2023-01-21T09:41:54.000Z</time>
      </trkpt>
      <trkpt lat="46.26955" lon="6.55181">
        <ele>1011</ele>
        <time>2023-01-21T09:41:55.000Z</time>
      </trkpt>
      <trkpt lat="46.26958" lon="6.55181">
        <ele>1010.2</ele>
        <time>2023-01-21T09:41:56.000Z</time>
      </trkpt>
      <trkpt lat="46.26959" lon="6.55181">
        <ele>1010.2</ele>
        <time>2023-01-21T09:41:57.000Z</time>
      </trkpt>
      <trkpt lat="46.26959" lon="6.55181">
        <ele>1009.9</ele>
        <time>2023-01-21T09:41:58.000Z</time>
      </trkpt>
      <trkpt lat="46.2696" lon="6.55181">
        <ele>1009.7</ele>
        <time>2023-01-21T09:41:59.000Z</time>
      </trkpt>
      <trkpt lat="46.26961" lon="6.55181">
        <ele>1009.6</ele>
        <time>2023-01-21T09:42:00.000Z</time>
      </trkpt>
      <trkpt lat="46.26962" lon="6.55181">
        <ele>1009.6</ele>
        <time>2023-01-21T09:42:01.000Z</time>
      </trkpt>
      <trkpt lat="46.26962" lon="6.55182">
        <ele>1009.6</ele>
        <time>2023-01-21T09:42:02.000Z</time>
      </trkpt>
      <trkpt lat="46.26963" lon="6.55181">
        <ele>1009.6</ele>
        <time>2023-01-21T09:42:03.000Z</time>
      </trkpt>
      <trkpt lat="46.26964" lon="6.55182">
        <ele>1009.5</ele>
        <time>2023-01-21T09:42:04.000Z</time>
      </trkpt>
      <trkpt lat="46.26965" lon="6.55182">
        <ele>1009.7</ele>
        <time>2023-01-21T09:42:05.000Z</time>
      </trkpt>
      <trkpt lat="46.26965" lon="6.55183">
        <ele>1009.6</ele>
        <time>2023-01-21T09:42:06.000Z</time>
      </trkpt>
      <trkpt lat="46.26966" lon="6.55184">
        <ele>1009.5</ele>
        <time>2023-01-21T09:42:07.000Z</time>
      </trkpt>
      <trkpt lat="46.26966" lon="6.55184">
        <ele>1009.7</ele>
        <time>2023-01-21T09:42:08.000Z</time>
      </trkpt>
      <trkpt lat="46.26967" lon="6.55185">
        <ele>1009.8</ele>
        <time>2023-01-21T09:42:09.000Z</time>
      </trkpt>
      <trkpt lat="46.26967" lon="6.55186">
        <ele>1009.9</ele>
        <time>2023-01-21T09:42:10.000Z</time>
      </trkpt>
      <trkpt lat="46.26968" lon="6.55186">
        <ele>1010</ele>
        <time>2023-01-21T09:42:11.000Z</time>
      </trkpt>
      <trkpt lat="46.26969" lon="6.55186">
        <ele>1010.1</ele>
        <time>2023-01-21T09:42:12.000Z</time>
      </trkpt>
      <trkpt lat="46.26969" lon="6.55186">
        <ele>1009.8</ele>
        <time>2023-01-21T09:42:13.000Z</time>
      </trkpt>
      <trkpt lat="46.26969" lon="6.55186">
        <ele>1009.7</ele>
        <time>2023-01-21T09:42:14.000Z</time>
      </trkpt>
      <trkpt lat="46.26969" lon="6.55186">
        <ele>1009.8</ele>
        <time>2023-01-21T09:42:15.000Z</time>
      </trkpt>
      <trkpt lat="46.26969" lon="6.55185">
        <ele>1009.8</ele>
        <time>2023-01-21T09:42:16.000Z</time>
      </trkpt>
      <trkpt lat="46.26969" lon="6.55185">
        <ele>1009.9</ele>
        <time>2023-01-21T09:42:17.000Z</time>
      </trkpt>
      <trkpt lat="46.26969" lon="6.55185">
        <ele>1010</ele>
        <time>2023-01-21T09:42:18.000Z</time>
      </trkpt>
      <trkpt lat="46.26968" lon="6.55185">
        <ele>1010.3</ele>
        <time>2023-01-21T09:42:19.000Z</time>
      </trkpt>
      <trkpt lat="46.26968" lon="6.55185">
        <ele>1010.3</ele>
        <time>2023-01-21T09:42:20.000Z</time>
      </trkpt>
      <trkpt lat="46.26968" lon="6.55185">
        <ele>1010.3</ele>
        <time>2023-01-21T09:42:21.000Z</time>
      </trkpt>
      <trkpt lat="46.26968" lon="6.55185">
        <ele>1010.3</ele>
        <time>2023-01-21T09:42:22.000Z</time>
      </trkpt>
      <trkpt lat="46.26968" lon="6.55185">
        <ele>1010.3</ele>
        <time>2023-01-21T09:42:23.000Z</time>
      </trkpt>
      <trkpt lat="46.26968" lon="6.55185">
        <ele>1010.3</ele>
        <time>2023-01-21T09:42:24.000Z</time>
      </trkpt>
      <trkpt lat="46.26971" lon="6.55187">
        <ele>1009.6</ele>
        <time>2023-01-21T09:42:25.000Z</time>
      </trkpt>
      <trkpt lat="46.26972" lon="6.55187">
        <ele>1009.5</ele>
        <time>2023-01-21T09:42:26.000Z</time>
      </trkpt>
      <trkpt lat="46.26973" lon="6.55188">
        <ele>1009.3</ele>
        <time>2023-01-21T09:42:27.000Z</time>
      </trkpt>
      <trkpt lat="46.26974" lon="6.55189">
        <ele>1009.1</ele>
        <time>2023-01-21T09:42:28.000Z</time>
      </trkpt>
      <trkpt lat="46.26975" lon="6.55189">
        <ele>1009</ele>
        <time>2023-01-21T09:42:29.000Z</time>
      </trkpt>
      <trkpt lat="46.26976" lon="6.55189">
        <ele>1008.9</ele>
        <time>2023-01-21T09:42:30.000Z</time>
      </trkpt>
      <trkpt lat="46.26976" lon="6.55189">
        <ele>1008.7</ele>
        <time>2023-01-21T09:42:31.000Z</time>
      </trkpt>
      <trkpt lat="46.26977" lon="6.55189">
        <ele>1008.5</ele>
        <time>2023-01-21T09:42:32.000Z</time>
      </trkpt>
      <trkpt lat="46.26977" lon="6.55189">
        <ele>1008.4</ele>
        <time>2023-01-21T09:42:33.000Z</time>
      </trkpt>
      <trkpt lat="46.26977" lon="6.5519">
        <ele>1008.4</ele>
        <time>2023-01-21T09:42:34.000Z</time>
      </trkpt>
      <trkpt lat="46.26977" lon="6.5519">
        <ele>1008.6</ele>
        <time>2023-01-21T09:42:35.000Z</time>
      </trkpt>
      <trkpt lat="46.26978" lon="6.55191">
        <ele>1008.7</ele>
        <time>2023-01-21T09:42:36.000Z</time>
      </trkpt>
      <trkpt lat="46.26978" lon="6.55191">
        <ele>1008.8</ele>
        <time>2023-01-21T09:42:37.000Z</time>
      </trkpt>
      <trkpt lat="46.26979" lon="6.55192">
        <ele>1008.9</ele>
        <time>2023-01-21T09:42:38.000Z</time>
      </trkpt>
      <trkpt lat="46.26979" lon="6.55192">
        <ele>1009</ele>
        <time>2023-01-21T09:42:39.000Z</time>
      </trkpt>
      <trkpt lat="46.2698" lon="6.55192">
        <ele>1009.3</ele>
        <time>2023-01-21T09:42:40.000Z</time>
      </trkpt>
      <trkpt lat="46.2698" lon="6.55193">
        <ele>1009.3</ele>
        <time>2023-01-21T09:42:41.000Z</time>
      </trkpt>
      <trkpt lat="46.26981" lon="6.55194">
        <ele>1009.5</ele>
        <time>2023-01-21T09:42:42.000Z</time>
      </trkpt>
      <trkpt lat="46.26981" lon="6.55195">
        <ele>1009.6</ele>
        <time>2023-01-21T09:42:43.000Z</time>
      </trkpt>
      <trkpt lat="46.26981" lon="6.55195">
        <ele>1009.7</ele>
        <time>2023-01-21T09:42:44.000Z</time>
      </trkpt>
      <trkpt lat="46.26982" lon="6.55195">
        <ele>1009.8</ele>
        <time>2023-01-21T09:42:45.000Z</time>
      </trkpt>
      <trkpt lat="46.26983" lon="6.55196">
        <ele>1009.8</ele>
        <time>2023-01-21T09:42:46.000Z</time>
      </trkpt>
      <trkpt lat="46.26983" lon="6.55196">
        <ele>1009.8</ele>
        <time>2023-01-21T09:42:47.000Z</time>
      </trkpt>
      <trkpt lat="46.26984" lon="6.55197">
        <ele>1009.8</ele>
        <time>2023-01-21T09:42:48.000Z</time>
      </trkpt>
      <trkpt lat="46.26985" lon="6.55197">
        <ele>1009.7</ele>
        <time>2023-01-21T09:42:49.000Z</time>
      </trkpt>
      <trkpt lat="46.26985" lon="6.55199">
        <ele>1009.7</ele>
        <time>2023-01-21T09:42:50.000Z</time>
      </trkpt>
      <trkpt lat="46.26985" lon="6.552">
        <ele>1009.7</ele>
        <time>2023-01-21T09:42:51.000Z</time>
      </trkpt>
      <trkpt lat="46.26986" lon="6.55201">
        <ele>1009.8</ele>
        <time>2023-01-21T09:42:52.000Z</time>
      </trkpt>
      <trkpt lat="46.26986" lon="6.55202">
        <ele>1010</ele>
        <time>2023-01-21T09:42:53.000Z</time>
      </trkpt>
      <trkpt lat="46.26987" lon="6.55203">
        <ele>1010.2</ele>
        <time>2023-01-21T09:42:54.000Z</time>
      </trkpt>
      <trkpt lat="46.26988" lon="6.55203">
        <ele>1010.3</ele>
        <time>2023-01-21T09:42:55.000Z</time>
      </trkpt>
      <trkpt lat="46.26988" lon="6.55203">
        <ele>1010.4</ele>
        <time>2023-01-21T09:42:56.000Z</time>
      </trkpt>
      <trkpt lat="46.26988" lon="6.55203">
        <ele>1010.5</ele>
        <time>2023-01-21T09:42:57.000Z</time>
      </trkpt>
      <trkpt lat="46.26988" lon="6.55204">
        <ele>1010.7</ele>
        <time>2023-01-21T09:42:58.000Z</time>
      </trkpt>
      <trkpt lat="46.26989" lon="6.55204">
        <ele>1010.9</ele>
        <time>2023-01-21T09:42:59.000Z</time>
      </trkpt>
      <trkpt lat="46.26989" lon="6.55205">
        <ele>1011.1</ele>
        <time>2023-01-21T09:43:00.000Z</time>
      </trkpt>
      <trkpt lat="46.2699" lon="6.55206">
        <ele>1011.4</ele>
        <time>2023-01-21T09:43:01.000Z</time>
      </trkpt>
      <trkpt lat="46.26991" lon="6.55206">
        <ele>1011.7</ele>
        <time>2023-01-21T09:43:02.000Z</time>
      </trkpt>
      <trkpt lat="46.26991" lon="6.55207">
        <ele>1012.1</ele>
        <time>2023-01-21T09:43:03.000Z</time>
      </trkpt>
      <trkpt lat="46.26991" lon="6.55207">
        <ele>1012.5</ele>
        <time>2023-01-21T09:43:04.000Z</time>
      </trkpt>
      <trkpt lat="46.26992" lon="6.55208">
        <ele>1012.8</ele>
        <time>2023-01-21T09:43:05.000Z</time>
      </trkpt>
      <trkpt lat="46.26993" lon="6.55208">
        <ele>1013</ele>
        <time>2023-01-21T09:43:06.000Z</time>
      </trkpt>
      <trkpt lat="46.26993" lon="6.55209">
        <ele>1013.1</ele>
        <time>2023-01-21T09:43:07.000Z</time>
      </trkpt>
      <trkpt lat="46.26994" lon="6.5521">
        <ele>1013</ele>
        <time>2023-01-21T09:43:08.000Z</time>
      </trkpt>
      <trkpt lat="46.26995" lon="6.55211">
        <ele>1013</ele>
        <time>2023-01-21T09:43:09.000Z</time>
      </trkpt>
      <trkpt lat="46.26995" lon="6.55212">
        <ele>1012.7</ele>
        <time>2023-01-21T09:43:10.000Z</time>
      </trkpt>
      <trkpt lat="46.26996" lon="6.55212">
        <ele>1012.8</ele>
        <time>2023-01-21T09:43:11.000Z</time>
      </trkpt>
      <trkpt lat="46.26996" lon="6.55212">
        <ele>1013</ele>
        <time>2023-01-21T09:43:12.000Z</time>
      </trkpt>
      <trkpt lat="46.26995" lon="6.55213">
        <ele>1013.1</ele>
        <time>2023-01-21T09:43:13.000Z</time>
      </trkpt>
      <trkpt lat="46.26995" lon="6.55213">
        <ele>1013.3</ele>
        <time>2023-01-21T09:43:14.000Z</time>
      </trkpt>
      <trkpt lat="46.26995" lon="6.55213">
        <ele>1013.3</ele>
        <time>2023-01-21T09:43:15.000Z</time>
      </trkpt>
      <trkpt lat="46.26996" lon="6.55214">
        <ele>1013.2</ele>
        <time>2023-01-21T09:43:16.000Z</time>
      </trkpt>
      <trkpt lat="46.26996" lon="6.55215">
        <ele>1013.4</ele>
        <time>2023-01-21T09:43:17.000Z</time>
      </trkpt>
      <trkpt lat="46.26997" lon="6.55215">
        <ele>1013.3</ele>
        <time>2023-01-21T09:43:18.000Z</time>
      </trkpt>
      <trkpt lat="46.26997" lon="6.55215">
        <ele>1013.3</ele>
        <time>2023-01-21T09:43:19.000Z</time>
      </trkpt>
      <trkpt lat="46.26997" lon="6.55215">
        <ele>1013.5</ele>
        <time>2023-01-21T09:43:20.000Z</time>
      </trkpt>
      <trkpt lat="46.26998" lon="6.55215">
        <ele>1013.6</ele>
        <time>2023-01-21T09:43:21.000Z</time>
      </trkpt>
      <trkpt lat="46.26999" lon="6.55215">
        <ele>1013.7</ele>
        <time>2023-01-21T09:43:22.000Z</time>
      </trkpt>
      <trkpt lat="46.26999" lon="6.55216">
        <ele>1013.8</ele>
        <time>2023-01-21T09:43:23.000Z</time>
      </trkpt>
      <trkpt lat="46.26999" lon="6.55216">
        <ele>1014.1</ele>
        <time>2023-01-21T09:43:24.000Z</time>
      </trkpt>
      <trkpt lat="46.27" lon="6.55217">
        <ele>1014.3</ele>
        <time>2023-01-21T09:43:25.000Z</time>
      </trkpt>
      <trkpt lat="46.27" lon="6.55218">
        <ele>1014.5</ele>
        <time>2023-01-21T09:43:26.000Z</time>
      </trkpt>
      <trkpt lat="46.27" lon="6.55218">
        <ele>1014.7</ele>
        <time>2023-01-21T09:43:27.000Z</time>
      </trkpt>
      <trkpt lat="46.27001" lon="6.55218">
        <ele>1014.9</ele>
        <time>2023-01-21T09:43:28.000Z</time>
      </trkpt>
      <trkpt lat="46.27001" lon="6.55219">
        <ele>1015.2</ele>
        <time>2023-01-21T09:43:29.000Z</time>
      </trkpt>
      <trkpt lat="46.27002" lon="6.5522">
        <ele>1015.5</ele>
        <time>2023-01-21T09:43:30.000Z</time>
      </trkpt>
      <trkpt lat="46.27002" lon="6.5522">
        <ele>1015.9</ele>
        <time>2023-01-21T09:43:31.000Z</time>
      </trkpt>
      <trkpt lat="46.27003" lon="6.55221">
        <ele>1016.1</ele>
        <time>2023-01-21T09:43:32.000Z</time>
      </trkpt>
      <trkpt lat="46.27003" lon="6.55222">
        <ele>1016.4</ele>
        <time>2023-01-21T09:43:33.000Z</time>
      </trkpt>
      <trkpt lat="46.27004" lon="6.55223">
        <ele>1016.5</ele>
        <time>2023-01-21T09:43:34.000Z</time>
      </trkpt>
      <trkpt lat="46.27004" lon="6.55223">
        <ele>1016.6</ele>
        <time>2023-01-21T09:43:35.000Z</time>
      </trkpt>
      <trkpt lat="46.27005" lon="6.55224">
        <ele>1016.8</ele>
        <time>2023-01-21T09:43:36.000Z</time>
      </trkpt>
      <trkpt lat="46.27005" lon="6.55225">
        <ele>1017</ele>
        <time>2023-01-21T09:43:37.000Z</time>
      </trkpt>
      <trkpt lat="46.27005" lon="6.55226">
        <ele>1017</ele>
        <time>2023-01-21T09:43:38.000Z</time>
      </trkpt>
      <trkpt lat="46.27005" lon="6.55226">
        <ele>1017.1</ele>
        <time>2023-01-21T09:43:39.000Z</time>
      </trkpt>
      <trkpt lat="46.27006" lon="6.55227">
        <ele>1017.2</ele>
        <time>2023-01-21T09:43:40.000Z</time>
      </trkpt>
      <trkpt lat="46.27006" lon="6.55227">
        <ele>1017.3</ele>
        <time>2023-01-21T09:43:41.000Z</time>
      </trkpt>
      <trkpt lat="46.27007" lon="6.55228">
        <ele>1017.4</ele>
        <time>2023-01-21T09:43:42.000Z</time>
      </trkpt>
      <trkpt lat="46.27008" lon="6.55229">
        <ele>1017.5</ele>
        <time>2023-01-21T09:43:43.000Z</time>
      </trkpt>
      <trkpt lat="46.27008" lon="6.5523">
        <ele>1017.5</ele>
        <time>2023-01-21T09:43:44.000Z</time>
      </trkpt>
      <trkpt lat="46.27009" lon="6.55231">
        <ele>1017.8</ele>
        <time>2023-01-21T09:43:45.000Z</time>
      </trkpt>
      <trkpt lat="46.27009" lon="6.55231">
        <ele>1017.8</ele>
        <time>2023-01-21T09:43:46.000Z</time>
      </trkpt>
      <trkpt lat="46.27009" lon="6.55232">
        <ele>1018</ele>
        <time>2023-01-21T09:43:47.000Z</time>
      </trkpt>
      <trkpt lat="46.2701" lon="6.55233">
        <ele>1018.3</ele>
        <time>2023-01-21T09:43:48.000Z</time>
      </trkpt>
      <trkpt lat="46.2701" lon="6.55233">
        <ele>1018.5</ele>
        <time>2023-01-21T09:43:49.000Z</time>
      </trkpt>
      <trkpt lat="46.27011" lon="6.55234">
        <ele>1018.6</ele>
        <time>2023-01-21T09:43:50.000Z</time>
      </trkpt>
      <trkpt lat="46.27012" lon="6.55235">
        <ele>1018.8</ele>
        <time>2023-01-21T09:43:51.000Z</time>
      </trkpt>
      <trkpt lat="46.27013" lon="6.55235">
        <ele>1018.9</ele>
        <time>2023-01-21T09:43:52.000Z</time>
      </trkpt>
      <trkpt lat="46.27013" lon="6.55235">
        <ele>1019.2</ele>
        <time>2023-01-21T09:43:53.000Z</time>
      </trkpt>
      <trkpt lat="46.27014" lon="6.55235">
        <ele>1019.5</ele>
        <time>2023-01-21T09:43:54.000Z</time>
      </trkpt>
      <trkpt lat="46.27014" lon="6.55236">
        <ele>1019.7</ele>
        <time>2023-01-21T09:43:55.000Z</time>
      </trkpt>
      <trkpt lat="46.27015" lon="6.55237">
        <ele>1019.9</ele>
        <time>2023-01-21T09:43:56.000Z</time>
      </trkpt>
      <trkpt lat="46.27015" lon="6.55238">
        <ele>1020.1</ele>
        <time>2023-01-21T09:43:57.000Z</time>
      </trkpt>
      <trkpt lat="46.27015" lon="6.55239">
        <ele>1020.3</ele>
        <time>2023-01-21T09:43:58.000Z</time>
      </trkpt>
      <trkpt lat="46.27015" lon="6.5524">
        <ele>1020.5</ele>
        <time>2023-01-21T09:43:59.000Z</time>
      </trkpt>
      <trkpt lat="46.27015" lon="6.55242">
        <ele>1020.6</ele>
        <time>2023-01-21T09:44:00.000Z</time>
      </trkpt>
      <trkpt lat="46.27015" lon="6.55242">
        <ele>1020.7</ele>
        <time>2023-01-21T09:44:01.000Z</time>
      </trkpt>
      <trkpt lat="46.27016" lon="6.55243">
        <ele>1020.9</ele>
        <time>2023-01-21T09:44:02.000Z</time>
      </trkpt>
      <trkpt lat="46.27016" lon="6.55244">
        <ele>1021.2</ele>
        <time>2023-01-21T09:44:03.000Z</time>
      </trkpt>
      <trkpt lat="46.27016" lon="6.55245">
        <ele>1021.5</ele>
        <time>2023-01-21T09:44:04.000Z</time>
      </trkpt>
      <trkpt lat="46.27017" lon="6.55246">
        <ele>1021.8</ele>
        <time>2023-01-21T09:44:05.000Z</time>
      </trkpt>
      <trkpt lat="46.27017" lon="6.55247">
        <ele>1022.1</ele>
        <time>2023-01-21T09:44:06.000Z</time>
      </trkpt>
      <trkpt lat="46.27017" lon="6.55248">
        <ele>1022.4</ele>
        <time>2023-01-21T09:44:07.000Z</time>
      </trkpt>
      <trkpt lat="46.27018" lon="6.55249">
        <ele>1022.6</ele>
        <time>2023-01-21T09:44:08.000Z</time>
      </trkpt>
      <trkpt lat="46.27018" lon="6.5525">
        <ele>1022.6</ele>
        <time>2023-01-21T09:44:09.000Z</time>
      </trkpt>
      <trkpt lat="46.27018" lon="6.5525">
        <ele>1022.7</ele>
        <time>2023-01-21T09:44:10.000Z</time>
      </trkpt>
      <trkpt lat="46.27019" lon="6.55251">
        <ele>1022.7</ele>
        <time>2023-01-21T09:44:11.000Z</time>
      </trkpt>
      <trkpt lat="46.27019" lon="6.55252">
        <ele>1022.9</ele>
        <time>2023-01-21T09:44:12.000Z</time>
      </trkpt>
      <trkpt lat="46.27019" lon="6.55253">
        <ele>1023</ele>
        <time>2023-01-21T09:44:13.000Z</time>
      </trkpt>
      <trkpt lat="46.2702" lon="6.55254">
        <ele>1023.1</ele>
        <time>2023-01-21T09:44:14.000Z</time>
      </trkpt>
      <trkpt lat="46.2702" lon="6.55255">
        <ele>1023.2</ele>
        <time>2023-01-21T09:44:15.000Z</time>
      </trkpt>
      <trkpt lat="46.27021" lon="6.55255">
        <ele>1023.4</ele>
        <time>2023-01-21T09:44:16.000Z</time>
      </trkpt>
      <trkpt lat="46.27021" lon="6.55256">
        <ele>1023.6</ele>
        <time>2023-01-21T09:44:17.000Z</time>
      </trkpt>
      <trkpt lat="46.27022" lon="6.55257">
        <ele>1023.7</ele>
        <time>2023-01-21T09:44:18.000Z</time>
      </trkpt>
      <trkpt lat="46.27022" lon="6.55258">
        <ele>1023.9</ele>
        <time>2023-01-21T09:44:19.000Z</time>
      </trkpt>
      <trkpt lat="46.27023" lon="6.55259">
        <ele>1023.9</ele>
        <time>2023-01-21T09:44:20.000Z</time>
      </trkpt>
      <trkpt lat="46.27023" lon="6.55259">
        <ele>1024</ele>
        <time>2023-01-21T09:44:21.000Z</time>
      </trkpt>
      <trkpt lat="46.27024" lon="6.5526">
        <ele>1024.2</ele>
        <time>2023-01-21T09:44:22.000Z</time>
      </trkpt>
      <trkpt lat="46.27024" lon="6.5526">
        <ele>1024.4</ele>
        <time>2023-01-21T09:44:23.000Z</time>
      </trkpt>
      <trkpt lat="46.27025" lon="6.5526">
        <ele>1024.6</ele>
        <time>2023-01-21T09:44:24.000Z</time>
      </trkpt>
      <trkpt lat="46.27025" lon="6.55261">
        <ele>1024.8</ele>
        <time>2023-01-21T09:44:25.000Z</time>
      </trkpt>
      <trkpt lat="46.27026" lon="6.55261">
        <ele>1025</ele>
        <time>2023-01-21T09:44:26.000Z</time>
      </trkpt>
      <trkpt lat="46.27027" lon="6.55261">
        <ele>1025.2</ele>
        <time>2023-01-21T09:44:27.000Z</time>
      </trkpt>
      <trkpt lat="46.27027" lon="6.55261">
        <ele>1025.3</ele>
        <time>2023-01-21T09:44:28.000Z</time>
      </trkpt>
      <trkpt lat="46.27028" lon="6.55263">
        <ele>1025.5</ele>
        <time>2023-01-21T09:44:29.000Z</time>
      </trkpt>
      <trkpt lat="46.27028" lon="6.55263">
        <ele>1025.6</ele>
        <time>2023-01-21T09:44:30.000Z</time>
      </trkpt>
      <trkpt lat="46.27029" lon="6.55264">
        <ele>1025.7</ele>
        <time>2023-01-21T09:44:31.000Z</time>
      </trkpt>
      <trkpt lat="46.2703" lon="6.55265">
        <ele>1025.8</ele>
        <time>2023-01-21T09:44:32.000Z</time>
      </trkpt>
      <trkpt lat="46.2703" lon="6.55266">
        <ele>1025.8</ele>
        <time>2023-01-21T09:44:33.000Z</time>
      </trkpt>
      <trkpt lat="46.2703" lon="6.55267">
        <ele>1025.9</ele>
        <time>2023-01-21T09:44:34.000Z</time>
      </trkpt>
      <trkpt lat="46.27031" lon="6.55267">
        <ele>1026.1</ele>
        <time>2023-01-21T09:44:35.000Z</time>
      </trkpt>
      <trkpt lat="46.27031" lon="6.55268">
        <ele>1026.3</ele>
        <time>2023-01-21T09:44:36.000Z</time>
      </trkpt>
      <trkpt lat="46.27032" lon="6.55269">
        <ele>1026.4</ele>
        <time>2023-01-21T09:44:37.000Z</time>
      </trkpt>
      <trkpt lat="46.27032" lon="6.5527">
        <ele>1026.4</ele>
        <time>2023-01-21T09:44:38.000Z</time>
      </trkpt>
      <trkpt lat="46.27032" lon="6.55271">
        <ele>1026.4</ele>
        <time>2023-01-21T09:44:39.000Z</time>
      </trkpt>
      <trkpt lat="46.27032" lon="6.55272">
        <ele>1026.5</ele>
        <time>2023-01-21T09:44:40.000Z</time>
      </trkpt>
      <trkpt lat="46.27032" lon="6.55273">
        <ele>1026.6</ele>
        <time>2023-01-21T09:44:41.000Z</time>
      </trkpt>
      <trkpt lat="46.27033" lon="6.55273">
        <ele>1026.9</ele>
        <time>2023-01-21T09:44:42.000Z</time>
      </trkpt>
      <trkpt lat="46.27033" lon="6.55274">
        <ele>1027.1</ele>
        <time>2023-01-21T09:44:43.000Z</time>
      </trkpt>
      <trkpt lat="46.27033" lon="6.55275">
        <ele>1027.3</ele>
        <time>2023-01-21T09:44:44.000Z</time>
      </trkpt>
      <trkpt lat="46.27034" lon="6.55276">
        <ele>1027.7</ele>
        <time>2023-01-21T09:44:45.000Z</time>
      </trkpt>
      <trkpt lat="46.27035" lon="6.55277">
        <ele>1027.8</ele>
        <time>2023-01-21T09:44:46.000Z</time>
      </trkpt>
      <trkpt lat="46.27035" lon="6.55278">
        <ele>1028</ele>
        <time>2023-01-21T09:44:47.000Z</time>
      </trkpt>
      <trkpt lat="46.27036" lon="6.55279">
        <ele>1028.1</ele>
        <time>2023-01-21T09:44:48.000Z</time>
      </trkpt>
      <trkpt lat="46.27037" lon="6.55279">
        <ele>1028.2</ele>
        <time>2023-01-21T09:44:49.000Z</time>
      </trkpt>
      <trkpt lat="46.27037" lon="6.5528">
        <ele>1028.2</ele>
        <time>2023-01-21T09:44:50.000Z</time>
      </trkpt>
      <trkpt lat="46.27038" lon="6.55281">
        <ele>1028.3</ele>
        <time>2023-01-21T09:44:51.000Z</time>
      </trkpt>
      <trkpt lat="46.27039" lon="6.55282">
        <ele>1028.6</ele>
        <time>2023-01-21T09:44:52.000Z</time>
      </trkpt>
      <trkpt lat="46.27039" lon="6.55282">
        <ele>1028.9</ele>
        <time>2023-01-21T09:44:53.000Z</time>
      </trkpt>
      <trkpt lat="46.2704" lon="6.55284">
        <ele>1029</ele>
        <time>2023-01-21T09:44:54.000Z</time>
      </trkpt>
      <trkpt lat="46.27041" lon="6.55284">
        <ele>1029.3</ele>
        <time>2023-01-21T09:44:55.000Z</time>
      </trkpt>
      <trkpt lat="46.27041" lon="6.55285">
        <ele>1029.4</ele>
        <time>2023-01-21T09:44:56.000Z</time>
      </trkpt>
      <trkpt lat="46.27042" lon="6.55286">
        <ele>1029.4</ele>
        <time>2023-01-21T09:44:57.000Z</time>
      </trkpt>
      <trkpt lat="46.27042" lon="6.55287">
        <ele>1029.6</ele>
        <time>2023-01-21T09:44:58.000Z</time>
      </trkpt>
      <trkpt lat="46.27043" lon="6.55288">
        <ele>1029.8</ele>
        <time>2023-01-21T09:44:59.000Z</time>
      </trkpt>
      <trkpt lat="46.27043" lon="6.55289">
        <ele>1030</ele>
        <time>2023-01-21T09:45:00.000Z</time>
      </trkpt>
      <trkpt lat="46.27044" lon="6.5529">
        <ele>1030.3</ele>
        <time>2023-01-21T09:45:01.000Z</time>
      </trkpt>
      <trkpt lat="46.27044" lon="6.5529">
        <ele>1030.4</ele>
        <time>2023-01-21T09:45:02.000Z</time>
      </trkpt>
      <trkpt lat="46.27045" lon="6.55291">
        <ele>1030.6</ele>
        <time>2023-01-21T09:45:03.000Z</time>
      </trkpt>
      <trkpt lat="46.27045" lon="6.55291">
        <ele>1030.9</ele>
        <time>2023-01-21T09:45:04.000Z</time>
      </trkpt>
      <trkpt lat="46.27045" lon="6.55292">
        <ele>1031</ele>
        <time>2023-01-21T09:45:05.000Z</time>
      </trkpt>
      <trkpt lat="46.27046" lon="6.55293">
        <ele>1031.2</ele>
        <time>2023-01-21T09:45:06.000Z</time>
      </trkpt>
      <trkpt lat="46.27047" lon="6.55294">
        <ele>1031.2</ele>
        <time>2023-01-21T09:45:07.000Z</time>
      </trkpt>
      <trkpt lat="46.27047" lon="6.55294">
        <ele>1031.3</ele>
        <time>2023-01-21T09:45:08.000Z</time>
      </trkpt>
      <trkpt lat="46.27048" lon="6.55295">
        <ele>1031.6</ele>
        <time>2023-01-21T09:45:09.000Z</time>
      </trkpt>
      <trkpt lat="46.27048" lon="6.55296">
        <ele>1031.7</ele>
        <time>2023-01-21T09:45:10.000Z</time>
      </trkpt>
      <trkpt lat="46.27048" lon="6.55297">
        <ele>1031.6</ele>
        <time>2023-01-21T09:45:11.000Z</time>
      </trkpt>
      <trkpt lat="46.27049" lon="6.55297">
        <ele>1031.7</ele>
        <time>2023-01-21T09:45:12.000Z</time>
      </trkpt>
      <trkpt lat="46.2705" lon="6.55298">
        <ele>1031.7</ele>
        <time>2023-01-21T09:45:13.000Z</time>
      </trkpt>
      <trkpt lat="46.27051" lon="6.55299">
        <ele>1031.8</ele>
        <time>2023-01-21T09:45:14.000Z</time>
      </trkpt>
      <trkpt lat="46.27051" lon="6.55299">
        <ele>1031.9</ele>
        <time>2023-01-21T09:45:15.000Z</time>
      </trkpt>
      <trkpt lat="46.27052" lon="6.553">
        <ele>1031.8</ele>
        <time>2023-01-21T09:45:16.000Z</time>
      </trkpt>
      <trkpt lat="46.27052" lon="6.55301">
        <ele>1032</ele>
        <time>2023-01-21T09:45:17.000Z</time>
      </trkpt>
      <trkpt lat="46.27053" lon="6.55301">
        <ele>1031.9</ele>
        <time>2023-01-21T09:45:18.000Z</time>
      </trkpt>
      <trkpt lat="46.27053" lon="6.55301">
        <ele>1031.9</ele>
        <time>2023-01-21T09:45:19.000Z</time>
      </trkpt>
      <trkpt lat="46.27054" lon="6.55302">
        <ele>1032.1</ele>
        <time>2023-01-21T09:45:20.000Z</time>
      </trkpt>
      <trkpt lat="46.27054" lon="6.55303">
        <ele>1032.2</ele>
        <time>2023-01-21T09:45:21.000Z</time>
      </trkpt>
      <trkpt lat="46.27054" lon="6.55304">
        <ele>1032.2</ele>
        <time>2023-01-21T09:45:22.000Z</time>
      </trkpt>
      <trkpt lat="46.27055" lon="6.55306">
        <ele>1032.1</ele>
        <time>2023-01-21T09:45:23.000Z</time>
      </trkpt>
      <trkpt lat="46.27055" lon="6.55307">
        <ele>1032.1</ele>
        <time>2023-01-21T09:45:24.000Z</time>
      </trkpt>
      <trkpt lat="46.27055" lon="6.55308">
        <ele>1032.3</ele>
        <time>2023-01-21T09:45:25.000Z</time>
      </trkpt>
      <trkpt lat="46.27056" lon="6.55308">
        <ele>1032.5</ele>
        <time>2023-01-21T09:45:26.000Z</time>
      </trkpt>
      <trkpt lat="46.27056" lon="6.55309">
        <ele>1032.7</ele>
        <time>2023-01-21T09:45:27.000Z</time>
      </trkpt>
      <trkpt lat="46.27057" lon="6.5531">
        <ele>1032.9</ele>
        <time>2023-01-21T09:45:28.000Z</time>
      </trkpt>
      <trkpt lat="46.27058" lon="6.55311">
        <ele>1033.1</ele>
        <time>2023-01-21T09:45:29.000Z</time>
      </trkpt>
      <trkpt lat="46.27059" lon="6.55312">
        <ele>1033.2</ele>
        <time>2023-01-21T09:45:30.000Z</time>
      </trkpt>
      <trkpt lat="46.2706" lon="6.55312">
        <ele>1033.4</ele>
        <time>2023-01-21T09:45:31.000Z</time>
      </trkpt>
      <trkpt lat="46.2706" lon="6.55313">
        <ele>1033.6</ele>
        <time>2023-01-21T09:45:32.000Z</time>
      </trkpt>
      <trkpt lat="46.27061" lon="6.55314">
        <ele>1033.8</ele>
        <time>2023-01-21T09:45:33.000Z</time>
      </trkpt>
      <trkpt lat="46.27062" lon="6.55315">
        <ele>1034</ele>
        <time>2023-01-21T09:45:34.000Z</time>
      </trkpt>
      <trkpt lat="46.27062" lon="6.55316">
        <ele>1034.2</ele>
        <time>2023-01-21T09:45:35.000Z</time>
      </trkpt>
      <trkpt lat="46.27063" lon="6.55316">
        <ele>1034.5</ele>
        <time>2023-01-21T09:45:36.000Z</time>
      </trkpt>
      <trkpt lat="46.27063" lon="6.55317">
        <ele>1034.7</ele>
        <time>2023-01-21T09:45:37.000Z</time>
      </trkpt>
      <trkpt lat="46.27064" lon="6.55317">
        <ele>1034.8</ele>
        <time>2023-01-21T09:45:38.000Z</time>
      </trkpt>
      <trkpt lat="46.27064" lon="6.55318">
        <ele>1034.9</ele>
        <time>2023-01-21T09:45:39.000Z</time>
      </trkpt>
      <trkpt lat="46.27064" lon="6.55319">
        <ele>1035</ele>
        <time>2023-01-21T09:45:40.000Z</time>
      </trkpt>
      <trkpt lat="46.27065" lon="6.55319">
        <ele>1035</ele>
        <time>2023-01-21T09:45:41.000Z</time>
      </trkpt>
      <trkpt lat="46.27065" lon="6.5532">
        <ele>1035.1</ele>
        <time>2023-01-21T09:45:42.000Z</time>
      </trkpt>
      <trkpt lat="46.27066" lon="6.5532">
        <ele>1035.1</ele>
        <time>2023-01-21T09:45:43.000Z</time>
      </trkpt>
      <trkpt lat="46.27066" lon="6.55321">
        <ele>1035</ele>
        <time>2023-01-21T09:45:44.000Z</time>
      </trkpt>
      <trkpt lat="46.27067" lon="6.55322">
        <ele>1034.8</ele>
        <time>2023-01-21T09:45:45.000Z</time>
      </trkpt>
      <trkpt lat="46.27067" lon="6.55323">
        <ele>1034.7</ele>
        <time>2023-01-21T09:45:46.000Z</time>
      </trkpt>
      <trkpt lat="46.27068" lon="6.55324">
        <ele>1034.7</ele>
        <time>2023-01-21T09:45:47.000Z</time>
      </trkpt>
      <trkpt lat="46.27069" lon="6.55324">
        <ele>1034.8</ele>
        <time>2023-01-21T09:45:48.000Z</time>
      </trkpt>
      <trkpt lat="46.27069" lon="6.55325">
        <ele>1034.9</ele>
        <time>2023-01-21T09:45:49.000Z</time>
      </trkpt>
      <trkpt lat="46.2707" lon="6.55325">
        <ele>1035</ele>
        <time>2023-01-21T09:45:50.000Z</time>
      </trkpt>
      <trkpt lat="46.2707" lon="6.55326">
        <ele>1035</ele>
        <time>2023-01-21T09:45:51.000Z</time>
      </trkpt>
      <trkpt lat="46.27071" lon="6.55326">
        <ele>1035.1</ele>
        <time>2023-01-21T09:45:52.000Z</time>
      </trkpt>
      <trkpt lat="46.27071" lon="6.55327">
        <ele>1035.3</ele>
        <time>2023-01-21T09:45:53.000Z</time>
      </trkpt>
      <trkpt lat="46.27072" lon="6.55327">
        <ele>1035.4</ele>
        <time>2023-01-21T09:45:54.000Z</time>
      </trkpt>
      <trkpt lat="46.27072" lon="6.55328">
        <ele>1035.5</ele>
        <time>2023-01-21T09:45:55.000Z</time>
      </trkpt>
      <trkpt lat="46.27073" lon="6.55328">
        <ele>1035.6</ele>
        <time>2023-01-21T09:45:56.000Z</time>
      </trkpt>
      <trkpt lat="46.27073" lon="6.55328">
        <ele>1035.6</ele>
        <time>2023-01-21T09:45:57.000Z</time>
      </trkpt>
      <trkpt lat="46.27074" lon="6.55329">
        <ele>1035.7</ele>
        <time>2023-01-21T09:45:58.000Z</time>
      </trkpt>
      <trkpt lat="46.27075" lon="6.55329">
        <ele>1035.9</ele>
        <time>2023-01-21T09:45:59.000Z</time>
      </trkpt>
      <trkpt lat="46.27075" lon="6.5533">
        <ele>1036</ele>
        <time>2023-01-21T09:46:00.000Z</time>
      </trkpt>
      <trkpt lat="46.27076" lon="6.5533">
        <ele>1036</ele>
        <time>2023-01-21T09:46:01.000Z</time>
      </trkpt>
      <trkpt lat="46.27076" lon="6.55331">
        <ele>1036.1</ele>
        <time>2023-01-21T09:46:02.000Z</time>
      </trkpt>
      <trkpt lat="46.27077" lon="6.55331">
        <ele>1036.1</ele>
        <time>2023-01-21T09:46:03.000Z</time>
      </trkpt>
      <trkpt lat="46.27077" lon="6.55332">
        <ele>1036.1</ele>
        <time>2023-01-21T09:46:04.000Z</time>
      </trkpt>
      <trkpt lat="46.27078" lon="6.55332">
        <ele>1036.2</ele>
        <time>2023-01-21T09:46:05.000Z</time>
      </trkpt>
      <trkpt lat="46.27079" lon="6.55333">
        <ele>1036.3</ele>
        <time>2023-01-21T09:46:06.000Z</time>
      </trkpt>
      <trkpt lat="46.27079" lon="6.55334">
        <ele>1036.4</ele>
        <time>2023-01-21T09:46:07.000Z</time>
      </trkpt>
      <trkpt lat="46.2708" lon="6.55334">
        <ele>1036.5</ele>
        <time>2023-01-21T09:46:08.000Z</time>
      </trkpt>
      <trkpt lat="46.27081" lon="6.55335">
        <ele>1036.6</ele>
        <time>2023-01-21T09:46:09.000Z</time>
      </trkpt>
      <trkpt lat="46.27081" lon="6.55335">
        <ele>1036.7</ele>
        <time>2023-01-21T09:46:10.000Z</time>
      </trkpt>
      <trkpt lat="46.27082" lon="6.55336">
        <ele>1036.8</ele>
        <time>2023-01-21T09:46:11.000Z</time>
      </trkpt>
      <trkpt lat="46.27082" lon="6.55336">
        <ele>1036.9</ele>
        <time>2023-01-21T09:46:12.000Z</time>
      </trkpt>
      <trkpt lat="46.27083" lon="6.55337">
        <ele>1036.9</ele>
        <time>2023-01-21T09:46:13.000Z</time>
      </trkpt>
      <trkpt lat="46.27084" lon="6.55338">
        <ele>1036.8</ele>
        <time>2023-01-21T09:46:14.000Z</time>
      </trkpt>
      <trkpt lat="46.27084" lon="6.55338">
        <ele>1036.7</ele>
        <time>2023-01-21T09:46:15.000Z</time>
      </trkpt>
      <trkpt lat="46.27084" lon="6.55339">
        <ele>1036.8</ele>
        <time>2023-01-21T09:46:16.000Z</time>
      </trkpt>
      <trkpt lat="46.27084" lon="6.5534">
        <ele>1036.6</ele>
        <time>2023-01-21T09:46:17.000Z</time>
      </trkpt>
      <trkpt lat="46.27084" lon="6.5534">
        <ele>1036.7</ele>
        <time>2023-01-21T09:46:18.000Z</time>
      </trkpt>
      <trkpt lat="46.27085" lon="6.5534">
        <ele>1036.9</ele>
        <time>2023-01-21T09:46:19.000Z</time>
      </trkpt>
      <trkpt lat="46.27085" lon="6.55341">
        <ele>1037.1</ele>
        <time>2023-01-21T09:46:20.000Z</time>
      </trkpt>
      <trkpt lat="46.27085" lon="6.55341">
        <ele>1037.4</ele>
        <time>2023-01-21T09:46:21.000Z</time>
      </trkpt>
      <trkpt lat="46.27086" lon="6.55341">
        <ele>1037.4</ele>
        <time>2023-01-21T09:46:22.000Z</time>
      </trkpt>
      <trkpt lat="46.27086" lon="6.55342">
        <ele>1037.4</ele>
        <time>2023-01-21T09:46:23.000Z</time>
      </trkpt>
      <trkpt lat="46.27087" lon="6.55343">
        <ele>1037.5</ele>
        <time>2023-01-21T09:46:24.000Z</time>
      </trkpt>
      <trkpt lat="46.27087" lon="6.55343">
        <ele>1037.5</ele>
        <time>2023-01-21T09:46:25.000Z</time>
      </trkpt>
      <trkpt lat="46.27088" lon="6.55344">
        <ele>1037.5</ele>
        <time>2023-01-21T09:46:26.000Z</time>
      </trkpt>
      <trkpt lat="46.27088" lon="6.55345">
        <ele>1037.6</ele>
        <time>2023-01-21T09:46:27.000Z</time>
      </trkpt>
      <trkpt lat="46.27089" lon="6.55346">
        <ele>1037.6</ele>
        <time>2023-01-21T09:46:28.000Z</time>
      </trkpt>
      <trkpt lat="46.27089" lon="6.55346">
        <ele>1037.4</ele>
        <time>2023-01-21T09:46:29.000Z</time>
      </trkpt>
      <trkpt lat="46.2709" lon="6.55347">
        <ele>1037.5</ele>
        <time>2023-01-21T09:46:30.000Z</time>
      </trkpt>
      <trkpt lat="46.2709" lon="6.55347">
        <ele>1037.4</ele>
        <time>2023-01-21T09:46:31.000Z</time>
      </trkpt>
      <trkpt lat="46.27091" lon="6.55347">
        <ele>1037.5</ele>
        <time>2023-01-21T09:46:32.000Z</time>
      </trkpt>
      <trkpt lat="46.27091" lon="6.55347">
        <ele>1037.6</ele>
        <time>2023-01-21T09:46:33.000Z</time>
      </trkpt>
      <trkpt lat="46.27093" lon="6.55348">
        <ele>1037.6</ele>
        <time>2023-01-21T09:46:34.000Z</time>
      </trkpt>
      <trkpt lat="46.27093" lon="6.55349">
        <ele>1037.6</ele>
        <time>2023-01-21T09:46:35.000Z</time>
      </trkpt>
      <trkpt lat="46.27094" lon="6.5535">
        <ele>1037.9</ele>
        <time>2023-01-21T09:46:36.000Z</time>
      </trkpt>
      <trkpt lat="46.27094" lon="6.5535">
        <ele>1037.9</ele>
        <time>2023-01-21T09:46:37.000Z</time>
      </trkpt>
      <trkpt lat="46.27095" lon="6.55351">
        <ele>1037.8</ele>
        <time>2023-01-21T09:46:38.000Z</time>
      </trkpt>
      <trkpt lat="46.27095" lon="6.55351">
        <ele>1037.7</ele>
        <time>2023-01-21T09:46:39.000Z</time>
      </trkpt>
      <trkpt lat="46.27095" lon="6.55353">
        <ele>1037.5</ele>
        <time>2023-01-21T09:46:40.000Z</time>
      </trkpt>
      <trkpt lat="46.27096" lon="6.55353">
        <ele>1037.4</ele>
        <time>2023-01-21T09:46:41.000Z</time>
      </trkpt>
      <trkpt lat="46.27096" lon="6.55353">
        <ele>1037.4</ele>
        <time>2023-01-21T09:46:42.000Z</time>
      </trkpt>
      <trkpt lat="46.27097" lon="6.55354">
        <ele>1037.5</ele>
        <time>2023-01-21T09:46:43.000Z</time>
      </trkpt>
      <trkpt lat="46.27097" lon="6.55355">
        <ele>1037.4</ele>
        <time>2023-01-21T09:46:44.000Z</time>
      </trkpt>
      <trkpt lat="46.27098" lon="6.55357">
        <ele>1037.4</ele>
        <time>2023-01-21T09:46:45.000Z</time>
      </trkpt>
      <trkpt lat="46.27098" lon="6.55358">
        <ele>1037.4</ele>
        <time>2023-01-21T09:46:46.000Z</time>
      </trkpt>
      <trkpt lat="46.27099" lon="6.55358">
        <ele>1037.6</ele>
        <time>2023-01-21T09:46:47.000Z</time>
      </trkpt>
      <trkpt lat="46.27099" lon="6.55359">
        <ele>1037.6</ele>
        <time>2023-01-21T09:46:48.000Z</time>
      </trkpt>
      <trkpt lat="46.27099" lon="6.5536">
        <ele>1037.7</ele>
        <time>2023-01-21T09:46:49.000Z</time>
      </trkpt>
      <trkpt lat="46.271" lon="6.5536">
        <ele>1037.7</ele>
        <time>2023-01-21T09:46:50.000Z</time>
      </trkpt>
      <trkpt lat="46.271" lon="6.55362">
        <ele>1037.6</ele>
        <time>2023-01-21T09:46:51.000Z</time>
      </trkpt>
      <trkpt lat="46.27101" lon="6.55362">
        <ele>1037.8</ele>
        <time>2023-01-21T09:46:52.000Z</time>
      </trkpt>
      <trkpt lat="46.27101" lon="6.55363">
        <ele>1038.1</ele>
        <time>2023-01-21T09:46:53.000Z</time>
      </trkpt>
      <trkpt lat="46.27101" lon="6.55364">
        <ele>1038.3</ele>
        <time>2023-01-21T09:46:54.000Z</time>
      </trkpt>
      <trkpt lat="46.27102" lon="6.55365">
        <ele>1038.5</ele>
        <time>2023-01-21T09:46:55.000Z</time>
      </trkpt>
      <trkpt lat="46.27102" lon="6.55366">
        <ele>1038.6</ele>
        <time>2023-01-21T09:46:56.000Z</time>
      </trkpt>
      <trkpt lat="46.27103" lon="6.55367">
        <ele>1038.6</ele>
        <time>2023-01-21T09:46:57.000Z</time>
      </trkpt>
      <trkpt lat="46.27103" lon="6.55368">
        <ele>1038.7</ele>
        <time>2023-01-21T09:46:58.000Z</time>
      </trkpt>
      <trkpt lat="46.27103" lon="6.55369">
        <ele>1038.9</ele>
        <time>2023-01-21T09:46:59.000Z</time>
      </trkpt>
      <trkpt lat="46.27104" lon="6.5537">
        <ele>1039</ele>
        <time>2023-01-21T09:47:00.000Z</time>
      </trkpt>
      <trkpt lat="46.27105" lon="6.55371">
        <ele>1039</ele>
        <time>2023-01-21T09:47:01.000Z</time>
      </trkpt>
      <trkpt lat="46.27105" lon="6.55371">
        <ele>1038.9</ele>
        <time>2023-01-21T09:47:02.000Z</time>
      </trkpt>
      <trkpt lat="46.27106" lon="6.55372">
        <ele>1038.7</ele>
        <time>2023-01-21T09:47:03.000Z</time>
      </trkpt>
      <trkpt lat="46.27107" lon="6.55372">
        <ele>1038.6</ele>
        <time>2023-01-21T09:47:04.000Z</time>
      </trkpt>
      <trkpt lat="46.27108" lon="6.55373">
        <ele>1038.5</ele>
        <time>2023-01-21T09:47:05.000Z</time>
      </trkpt>
      <trkpt lat="46.27109" lon="6.55373">
        <ele>1038.5</ele>
        <time>2023-01-21T09:47:06.000Z</time>
      </trkpt>
      <trkpt lat="46.27109" lon="6.55374">
        <ele>1038.5</ele>
        <time>2023-01-21T09:47:07.000Z</time>
      </trkpt>
      <trkpt lat="46.27109" lon="6.55375">
        <ele>1038.4</ele>
        <time>2023-01-21T09:47:08.000Z</time>
      </trkpt>
      <trkpt lat="46.2711" lon="6.55376">
        <ele>1038.6</ele>
        <time>2023-01-21T09:47:09.000Z</time>
      </trkpt>
      <trkpt lat="46.2711" lon="6.55377">
        <ele>1038.8</ele>
        <time>2023-01-21T09:47:10.000Z</time>
      </trkpt>
      <trkpt lat="46.2711" lon="6.55378">
        <ele>1039</ele>
        <time>2023-01-21T09:47:11.000Z</time>
      </trkpt>
      <trkpt lat="46.2711" lon="6.55379">
        <ele>1038.9</ele>
        <time>2023-01-21T09:47:12.000Z</time>
      </trkpt>
      <trkpt lat="46.2711" lon="6.5538">
        <ele>1039</ele>
        <time>2023-01-21T09:47:13.000Z</time>
      </trkpt>
      <trkpt lat="46.27111" lon="6.55381">
        <ele>1039</ele>
        <time>2023-01-21T09:47:14.000Z</time>
      </trkpt>
      <trkpt lat="46.27111" lon="6.55382">
        <ele>1039.1</ele>
        <time>2023-01-21T09:47:15.000Z</time>
      </trkpt>
      <trkpt lat="46.27111" lon="6.55383">
        <ele>1039.3</ele>
        <time>2023-01-21T09:47:16.000Z</time>
      </trkpt>
      <trkpt lat="46.27112" lon="6.55384">
        <ele>1039.5</ele>
        <time>2023-01-21T09:47:17.000Z</time>
      </trkpt>
      <trkpt lat="46.27113" lon="6.55384">
        <ele>1039.6</ele>
        <time>2023-01-21T09:47:18.000Z</time>
      </trkpt>
      <trkpt lat="46.27113" lon="6.55386">
        <ele>1039.8</ele>
        <time>2023-01-21T09:47:19.000Z</time>
      </trkpt>
      <trkpt lat="46.27114" lon="6.55386">
        <ele>1039.9</ele>
        <time>2023-01-21T09:47:20.000Z</time>
      </trkpt>
      <trkpt lat="46.27114" lon="6.55388">
        <ele>1040.1</ele>
        <time>2023-01-21T09:47:21.000Z</time>
      </trkpt>
      <trkpt lat="46.27115" lon="6.55388">
        <ele>1040.1</ele>
        <time>2023-01-21T09:47:22.000Z</time>
      </trkpt>
      <trkpt lat="46.27115" lon="6.55389">
        <ele>1040.3</ele>
        <time>2023-01-21T09:47:23.000Z</time>
      </trkpt>
      <trkpt lat="46.27116" lon="6.5539">
        <ele>1040.4</ele>
        <time>2023-01-21T09:47:24.000Z</time>
      </trkpt>
      <trkpt lat="46.27116" lon="6.5539">
        <ele>1040.3</ele>
        <time>2023-01-21T09:47:25.000Z</time>
      </trkpt>
      <trkpt lat="46.27117" lon="6.5539">
        <ele>1040.1</ele>
        <time>2023-01-21T09:47:26.000Z</time>
      </trkpt>
      <trkpt lat="46.27118" lon="6.55391">
        <ele>1040.4</ele>
        <time>2023-01-21T09:47:27.000Z</time>
      </trkpt>
      <trkpt lat="46.27119" lon="6.55392">
        <ele>1040.4</ele>
        <time>2023-01-21T09:47:28.000Z</time>
      </trkpt>
      <trkpt lat="46.2712" lon="6.55392">
        <ele>1040.4</ele>
        <time>2023-01-21T09:47:29.000Z</time>
      </trkpt>
      <trkpt lat="46.2712" lon="6.55393">
        <ele>1040.5</ele>
        <time>2023-01-21T09:47:30.000Z</time>
      </trkpt>
      <trkpt lat="46.27121" lon="6.55393">
        <ele>1040.5</ele>
        <time>2023-01-21T09:47:31.000Z</time>
      </trkpt>
      <trkpt lat="46.27122" lon="6.55394">
        <ele>1040.4</ele>
        <time>2023-01-21T09:47:32.000Z</time>
      </trkpt>
      <trkpt lat="46.27123" lon="6.55394">
        <ele>1040.4</ele>
        <time>2023-01-21T09:47:33.000Z</time>
      </trkpt>
      <trkpt lat="46.27123" lon="6.55394">
        <ele>1040.5</ele>
        <time>2023-01-21T09:47:34.000Z</time>
      </trkpt>
      <trkpt lat="46.27124" lon="6.55395">
        <ele>1040.6</ele>
        <time>2023-01-21T09:47:35.000Z</time>
      </trkpt>
      <trkpt lat="46.27125" lon="6.55395">
        <ele>1040.8</ele>
        <time>2023-01-21T09:47:36.000Z</time>
      </trkpt>
      <trkpt lat="46.27126" lon="6.55395">
        <ele>1040.7</ele>
        <time>2023-01-21T09:47:37.000Z</time>
      </trkpt>
      <trkpt lat="46.27126" lon="6.55396">
        <ele>1040.8</ele>
        <time>2023-01-21T09:47:38.000Z</time>
      </trkpt>
      <trkpt lat="46.27127" lon="6.55396">
        <ele>1040.9</ele>
        <time>2023-01-21T09:47:39.000Z</time>
      </trkpt>
      <trkpt lat="46.27127" lon="6.55397">
        <ele>1040.9</ele>
        <time>2023-01-21T09:47:40.000Z</time>
      </trkpt>
      <trkpt lat="46.27128" lon="6.55397">
        <ele>1040.8</ele>
        <time>2023-01-21T09:47:41.000Z</time>
      </trkpt>
      <trkpt lat="46.27128" lon="6.55397">
        <ele>1040.7</ele>
        <time>2023-01-21T09:47:42.000Z</time>
      </trkpt>
      <trkpt lat="46.27129" lon="6.55397">
        <ele>1040.7</ele>
        <time>2023-01-21T09:47:43.000Z</time>
      </trkpt>
      <trkpt lat="46.2713" lon="6.55397">
        <ele>1040.6</ele>
        <time>2023-01-21T09:47:44.000Z</time>
      </trkpt>
      <trkpt lat="46.2713" lon="6.55397">
        <ele>1040.7</ele>
        <time>2023-01-21T09:47:45.000Z</time>
      </trkpt>
      <trkpt lat="46.27131" lon="6.55397">
        <ele>1040.8</ele>
        <time>2023-01-21T09:47:46.000Z</time>
      </trkpt>
      <trkpt lat="46.27131" lon="6.55397">
        <ele>1040.8</ele>
        <time>2023-01-21T09:47:47.000Z</time>
      </trkpt>
      <trkpt lat="46.27132" lon="6.55397">
        <ele>1040.9</ele>
        <time>2023-01-21T09:47:48.000Z</time>
      </trkpt>
      <trkpt lat="46.27133" lon="6.55397">
        <ele>1041</ele>
        <time>2023-01-21T09:47:49.000Z</time>
      </trkpt>
      <trkpt lat="46.27134" lon="6.55398">
        <ele>1041.1</ele>
        <time>2023-01-21T09:47:50.000Z</time>
      </trkpt>
      <trkpt lat="46.27134" lon="6.55397">
        <ele>1041.1</ele>
        <time>2023-01-21T09:47:51.000Z</time>
      </trkpt>
      <trkpt lat="46.27135" lon="6.55397">
        <ele>1041</ele>
        <time>2023-01-21T09:47:52.000Z</time>
      </trkpt>
      <trkpt lat="46.27136" lon="6.55397">
        <ele>1041</ele>
        <time>2023-01-21T09:47:53.000Z</time>
      </trkpt>
      <trkpt lat="46.27136" lon="6.55397">
        <ele>1041.2</ele>
        <time>2023-01-21T09:47:54.000Z</time>
      </trkpt>
      <trkpt lat="46.27137" lon="6.55398">
        <ele>1041.1</ele>
        <time>2023-01-21T09:47:55.000Z</time>
      </trkpt>
      <trkpt lat="46.27137" lon="6.55398">
        <ele>1041.2</ele>
        <time>2023-01-21T09:47:56.000Z</time>
      </trkpt>
      <trkpt lat="46.27138" lon="6.55398">
        <ele>1041.2</ele>
        <time>2023-01-21T09:47:57.000Z</time>
      </trkpt>
      <trkpt lat="46.27138" lon="6.55398">
        <ele>1041.3</ele>
        <time>2023-01-21T09:47:58.000Z</time>
      </trkpt>
      <trkpt lat="46.27139" lon="6.55398">
        <ele>1041.4</ele>
        <time>2023-01-21T09:47:59.000Z</time>
      </trkpt>
      <trkpt lat="46.2714" lon="6.55398">
        <ele>1041.4</ele>
        <time>2023-01-21T09:48:00.000Z</time>
      </trkpt>
      <trkpt lat="46.27141" lon="6.55398">
        <ele>1041.5</ele>
        <time>2023-01-21T09:48:01.000Z</time>
      </trkpt>
      <trkpt lat="46.27141" lon="6.55399">
        <ele>1041.5</ele>
        <time>2023-01-21T09:48:02.000Z</time>
      </trkpt>
      <trkpt lat="46.27142" lon="6.55399">
        <ele>1041.4</ele>
        <time>2023-01-21T09:48:03.000Z</time>
      </trkpt>
      <trkpt lat="46.27143" lon="6.55399">
        <ele>1041.4</ele>
        <time>2023-01-21T09:48:04.000Z</time>
      </trkpt>
      <trkpt lat="46.27144" lon="6.554">
        <ele>1041.4</ele>
        <time>2023-01-21T09:48:05.000Z</time>
      </trkpt>
      <trkpt lat="46.27145" lon="6.554">
        <ele>1041.4</ele>
        <time>2023-01-21T09:48:06.000Z</time>
      </trkpt>
      <trkpt lat="46.27145" lon="6.554">
        <ele>1041.5</ele>
        <time>2023-01-21T09:48:07.000Z</time>
      </trkpt>
      <trkpt lat="46.27146" lon="6.55401">
        <ele>1041.5</ele>
        <time>2023-01-21T09:48:08.000Z</time>
      </trkpt>
      <trkpt lat="46.27147" lon="6.55401">
        <ele>1041.4</ele>
        <time>2023-01-21T09:48:09.000Z</time>
      </trkpt>
      <trkpt lat="46.27148" lon="6.554">
        <ele>1041.5</ele>
        <time>2023-01-21T09:48:10.000Z</time>
      </trkpt>
      <trkpt lat="46.27148" lon="6.55401">
        <ele>1041.5</ele>
        <time>2023-01-21T09:48:11.000Z</time>
      </trkpt>
      <trkpt lat="46.27149" lon="6.55401">
        <ele>1041.4</ele>
        <time>2023-01-21T09:48:12.000Z</time>
      </trkpt>
      <trkpt lat="46.2715" lon="6.55401">
        <ele>1041.4</ele>
        <time>2023-01-21T09:48:13.000Z</time>
      </trkpt>
      <trkpt lat="46.2715" lon="6.55402">
        <ele>1041.5</ele>
        <time>2023-01-21T09:48:14.000Z</time>
      </trkpt>
      <trkpt lat="46.2715" lon="6.55402">
        <ele>1041.3</ele>
        <time>2023-01-21T09:48:15.000Z</time>
      </trkpt>
      <trkpt lat="46.27151" lon="6.55403">
        <ele>1041.2</ele>
        <time>2023-01-21T09:48:16.000Z</time>
      </trkpt>
      <trkpt lat="46.27151" lon="6.55403">
        <ele>1041.1</ele>
        <time>2023-01-21T09:48:17.000Z</time>
      </trkpt>
      <trkpt lat="46.27152" lon="6.55404">
        <ele>1041.1</ele>
        <time>2023-01-21T09:48:18.000Z</time>
      </trkpt>
      <trkpt lat="46.27152" lon="6.55404">
        <ele>1041.2</ele>
        <time>2023-01-21T09:48:19.000Z</time>
      </trkpt>
      <trkpt lat="46.27153" lon="6.55404">
        <ele>1041.2</ele>
        <time>2023-01-21T09:48:20.000Z</time>
      </trkpt>
      <trkpt lat="46.27153" lon="6.55405">
        <ele>1041.3</ele>
        <time>2023-01-21T09:48:21.000Z</time>
      </trkpt>
      <trkpt lat="46.27154" lon="6.55405">
        <ele>1041.5</ele>
        <time>2023-01-21T09:48:22.000Z</time>
      </trkpt>
      <trkpt lat="46.27155" lon="6.55405">
        <ele>1041.5</ele>
        <time>2023-01-21T09:48:23.000Z</time>
      </trkpt>
      <trkpt lat="46.27156" lon="6.55406">
        <ele>1041.7</ele>
        <time>2023-01-21T09:48:24.000Z</time>
      </trkpt>
      <trkpt lat="46.27157" lon="6.55406">
        <ele>1041.8</ele>
        <time>2023-01-21T09:48:25.000Z</time>
      </trkpt>
      <trkpt lat="46.27158" lon="6.55406">
        <ele>1041.9</ele>
        <time>2023-01-21T09:48:26.000Z</time>
      </trkpt>
      <trkpt lat="46.27158" lon="6.55407">
        <ele>1042</ele>
        <time>2023-01-21T09:48:27.000Z</time>
      </trkpt>
      <trkpt lat="46.2716" lon="6.55406">
        <ele>1042.1</ele>
        <time>2023-01-21T09:48:28.000Z</time>
      </trkpt>
      <trkpt lat="46.27161" lon="6.55406">
        <ele>1042.2</ele>
        <time>2023-01-21T09:48:29.000Z</time>
      </trkpt>
      <trkpt lat="46.27162" lon="6.55405">
        <ele>1042</ele>
        <time>2023-01-21T09:48:30.000Z</time>
      </trkpt>
      <trkpt lat="46.27162" lon="6.55405">
        <ele>1042</ele>
        <time>2023-01-21T09:48:31.000Z</time>
      </trkpt>
      <trkpt lat="46.27163" lon="6.55405">
        <ele>1042.2</ele>
        <time>2023-01-21T09:48:32.000Z</time>
      </trkpt>
      <trkpt lat="46.27164" lon="6.55404">
        <ele>1042.2</ele>
        <time>2023-01-21T09:48:33.000Z</time>
      </trkpt>
      <trkpt lat="46.27164" lon="6.55404">
        <ele>1042.4</ele>
        <time>2023-01-21T09:48:34.000Z</time>
      </trkpt>
      <trkpt lat="46.27165" lon="6.55403">
        <ele>1042.3</ele>
        <time>2023-01-21T09:48:35.000Z</time>
      </trkpt>
      <trkpt lat="46.27166" lon="6.55403">
        <ele>1042.3</ele>
        <time>2023-01-21T09:48:36.000Z</time>
      </trkpt>
      <trkpt lat="46.27167" lon="6.55403">
        <ele>1042.5</ele>
        <time>2023-01-21T09:48:37.000Z</time>
      </trkpt>
      <trkpt lat="46.27169" lon="6.55403">
        <ele>1042.8</ele>
        <time>2023-01-21T09:48:38.000Z</time>
      </trkpt>
      <trkpt lat="46.2717" lon="6.55403">
        <ele>1042.9</ele>
        <time>2023-01-21T09:48:39.000Z</time>
      </trkpt>
      <trkpt lat="46.2717" lon="6.55403">
        <ele>1043</ele>
        <time>2023-01-21T09:48:40.000Z</time>
      </trkpt>
      <trkpt lat="46.27171" lon="6.55402">
        <ele>1043.3</ele>
        <time>2023-01-21T09:48:41.000Z</time>
      </trkpt>
      <trkpt lat="46.27172" lon="6.55403">
        <ele>1043.4</ele>
        <time>2023-01-21T09:48:42.000Z</time>
      </trkpt>
      <trkpt lat="46.27173" lon="6.55403">
        <ele>1043.5</ele>
        <time>2023-01-21T09:48:43.000Z</time>
      </trkpt>
      <trkpt lat="46.27173" lon="6.55403">
        <ele>1043.8</ele>
        <time>2023-01-21T09:48:44.000Z</time>
      </trkpt>
      <trkpt lat="46.27174" lon="6.55403">
        <ele>1043.9</ele>
        <time>2023-01-21T09:48:45.000Z</time>
      </trkpt>
      <trkpt lat="46.27174" lon="6.55403">
        <ele>1044</ele>
        <time>2023-01-21T09:48:46.000Z</time>
      </trkpt>
      <trkpt lat="46.27175" lon="6.55402">
        <ele>1044.1</ele>
        <time>2023-01-21T09:48:47.000Z</time>
      </trkpt>
      <trkpt lat="46.27176" lon="6.55402">
        <ele>1044.2</ele>
        <time>2023-01-21T09:48:48.000Z</time>
      </trkpt>
      <trkpt lat="46.27176" lon="6.55401">
        <ele>1044.3</ele>
        <time>2023-01-21T09:48:49.000Z</time>
      </trkpt>
      <trkpt lat="46.27177" lon="6.55401">
        <ele>1044.3</ele>
        <time>2023-01-21T09:48:50.000Z</time>
      </trkpt>
      <trkpt lat="46.27178" lon="6.554">
        <ele>1044.4</ele>
        <time>2023-01-21T09:48:51.000Z</time>
      </trkpt>
      <trkpt lat="46.27179" lon="6.554">
        <ele>1044.5</ele>
        <time>2023-01-21T09:48:52.000Z</time>
      </trkpt>
      <trkpt lat="46.2718" lon="6.554">
        <ele>1044.8</ele>
        <time>2023-01-21T09:48:53.000Z</time>
      </trkpt>
      <trkpt lat="46.27181" lon="6.554">
        <ele>1045</ele>
        <time>2023-01-21T09:48:54.000Z</time>
      </trkpt>
      <trkpt lat="46.27182" lon="6.554">
        <ele>1045.2</ele>
        <time>2023-01-21T09:48:55.000Z</time>
      </trkpt>
      <trkpt lat="46.27183" lon="6.554">
        <ele>1045.5</ele>
        <time>2023-01-21T09:48:56.000Z</time>
      </trkpt>
      <trkpt lat="46.27184" lon="6.55399">
        <ele>1045.7</ele>
        <time>2023-01-21T09:48:57.000Z</time>
      </trkpt>
      <trkpt lat="46.27185" lon="6.554">
        <ele>1046.1</ele>
        <time>2023-01-21T09:48:58.000Z</time>
      </trkpt>
      <trkpt lat="46.27186" lon="6.554">
        <ele>1046.4</ele>
        <time>2023-01-21T09:48:59.000Z</time>
      </trkpt>
      <trkpt lat="46.27186" lon="6.554">
        <ele>1046.7</ele>
        <time>2023-01-21T09:49:00.000Z</time>
      </trkpt>
      <trkpt lat="46.27186" lon="6.554">
        <ele>1046.8</ele>
        <time>2023-01-21T09:49:01.000Z</time>
      </trkpt>
      <trkpt lat="46.27187" lon="6.55399">
        <ele>1046.8</ele>
        <time>2023-01-21T09:49:02.000Z</time>
      </trkpt>
      <trkpt lat="46.27187" lon="6.55399">
        <ele>1046.9</ele>
        <time>2023-01-21T09:49:03.000Z</time>
      </trkpt>
      <trkpt lat="46.27188" lon="6.55398">
        <ele>1047.2</ele>
        <time>2023-01-21T09:49:04.000Z</time>
      </trkpt>
      <trkpt lat="46.27188" lon="6.55398">
        <ele>1047.6</ele>
        <time>2023-01-21T09:49:05.000Z</time>
      </trkpt>
      <trkpt lat="46.27189" lon="6.55398">
        <ele>1047.9</ele>
        <time>2023-01-21T09:49:06.000Z</time>
      </trkpt>
      <trkpt lat="46.27189" lon="6.55397">
        <ele>1048.3</ele>
        <time>2023-01-21T09:49:07.000Z</time>
      </trkpt>
      <trkpt lat="46.2719" lon="6.55397">
        <ele>1048.7</ele>
        <time>2023-01-21T09:49:08.000Z</time>
      </trkpt>
      <trkpt lat="46.2719" lon="6.55397">
        <ele>1048.9</ele>
        <time>2023-01-21T09:49:09.000Z</time>
      </trkpt>
      <trkpt lat="46.2719" lon="6.55396">
        <ele>1049.1</ele>
        <time>2023-01-21T09:49:10.000Z</time>
      </trkpt>
      <trkpt lat="46.2719" lon="6.55396">
        <ele>1049.3</ele>
        <time>2023-01-21T09:49:11.000Z</time>
      </trkpt>
      <trkpt lat="46.2719" lon="6.55395">
        <ele>1049.4</ele>
        <time>2023-01-21T09:49:12.000Z</time>
      </trkpt>
      <trkpt lat="46.2719" lon="6.55395">
        <ele>1049.7</ele>
        <time>2023-01-21T09:49:13.000Z</time>
      </trkpt>
      <trkpt lat="46.2719" lon="6.55395">
        <ele>1050</ele>
        <time>2023-01-21T09:49:14.000Z</time>
      </trkpt>
      <trkpt lat="46.2719" lon="6.55395">
        <ele>1050.4</ele>
        <time>2023-01-21T09:49:15.000Z</time>
      </trkpt>
      <trkpt lat="46.2719" lon="6.55394">
        <ele>1050.5</ele>
        <time>2023-01-21T09:49:16.000Z</time>
      </trkpt>
      <trkpt lat="46.2719" lon="6.55394">
        <ele>1050.5</ele>
        <time>2023-01-21T09:49:17.000Z</time>
      </trkpt>
      <trkpt lat="46.2719" lon="6.55394">
        <ele>1050.5</ele>
        <time>2023-01-21T09:49:18.000Z</time>
      </trkpt>
      <trkpt lat="46.2719" lon="6.55394">
        <ele>1050.5</ele>
        <time>2023-01-21T09:49:19.000Z</time>
      </trkpt>
      <trkpt lat="46.2719" lon="6.55394">
        <ele>1050.5</ele>
        <time>2023-01-21T09:49:20.000Z</time>
      </trkpt>
      <trkpt lat="46.2719" lon="6.55394">
        <ele>1050.5</ele>
        <time>2023-01-21T09:49:21.000Z</time>
      </trkpt>
      <trkpt lat="46.2719" lon="6.55394">
        <ele>1050.5</ele>
        <time>2023-01-21T09:49:22.000Z</time>
      </trkpt>
      <trkpt lat="46.2719" lon="6.55394">
        <ele>1050.5</ele>
        <time>2023-01-21T09:49:23.000Z</time>
      </trkpt>
      <trkpt lat="46.2719" lon="6.55394">
        <ele>1050.5</ele>
        <time>2023-01-21T09:49:24.000Z</time>
      </trkpt>
      <trkpt lat="46.27191" lon="6.55392">
        <ele>1051.5</ele>
        <time>2023-01-21T09:49:25.000Z</time>
      </trkpt>
      <trkpt lat="46.27191" lon="6.55392">
        <ele>1051.8</ele>
        <time>2023-01-21T09:49:26.000Z</time>
      </trkpt>
      <trkpt lat="46.27191" lon="6.55393">
        <ele>1052</ele>
        <time>2023-01-21T09:49:27.000Z</time>
      </trkpt>
      <trkpt lat="46.27191" lon="6.55393">
        <ele>1052.1</ele>
        <time>2023-01-21T09:49:28.000Z</time>
      </trkpt>
      <trkpt lat="46.27191" lon="6.55393">
        <ele>1052.1</ele>
        <time>2023-01-21T09:49:29.000Z</time>
      </trkpt>
      <trkpt lat="46.27191" lon="6.55393">
        <ele>1052.1</ele>
        <time>2023-01-21T09:49:30.000Z</time>
      </trkpt>
      <trkpt lat="46.27191" lon="6.55393">
        <ele>1052.1</ele>
        <time>2023-01-21T09:49:31.000Z</time>
      </trkpt>
      <trkpt lat="46.27191" lon="6.55393">
        <ele>1052.1</ele>
        <time>2023-01-21T09:49:32.000Z</time>
      </trkpt>
      <trkpt lat="46.27191" lon="6.55393">
        <ele>1052.1</ele>
        <time>2023-01-21T09:49:33.000Z</time>
      </trkpt>
      <trkpt lat="46.27191" lon="6.55393">
        <ele>1052.1</ele>
        <time>2023-01-21T09:49:34.000Z</time>
      </trkpt>
      <trkpt lat="46.27191" lon="6.55393">
        <ele>1052.1</ele>
        <time>2023-01-21T09:49:35.000Z</time>
      </trkpt>
      <trkpt lat="46.27191" lon="6.55393">
        <ele>1052.1</ele>
        <time>2023-01-21T09:49:36.000Z</time>
      </trkpt>
      <trkpt lat="46.27191" lon="6.55393">
        <ele>1052.1</ele>
        <time>2023-01-21T09:49:37.000Z</time>
      </trkpt>
      <trkpt lat="46.27191" lon="6.55393">
        <ele>1052.1</ele>
        <time>2023-01-21T09:49:38.000Z</time>
      </trkpt>
      <trkpt lat="46.27191" lon="6.55393">
        <ele>1052.1</ele>
        <time>2023-01-21T09:49:39.000Z</time>
      </trkpt>
      <trkpt lat="46.27191" lon="6.55393">
        <ele>1052.1</ele>
        <time>2023-01-21T09:49:40.000Z</time>
      </trkpt>
      <trkpt lat="46.27191" lon="6.55393">
        <ele>1052.1</ele>
        <time>2023-01-21T09:49:41.000Z</time>
      </trkpt>
      <trkpt lat="46.27191" lon="6.55393">
        <ele>1052.1</ele>
        <time>2023-01-21T09:49:42.000Z</time>
      </trkpt>
      <trkpt lat="46.27191" lon="6.55393">
        <ele>1052.1</ele>
        <time>2023-01-21T09:49:43.000Z</time>
      </trkpt>
      <trkpt lat="46.27191" lon="6.55393">
        <ele>1052.1</ele>
        <time>2023-01-21T09:49:44.000Z</time>
      </trkpt>
      <trkpt lat="46.27191" lon="6.55393">
        <ele>1052.1</ele>
        <time>2023-01-21T09:49:45.000Z</time>
      </trkpt>
      <trkpt lat="46.27191" lon="6.55393">
        <ele>1052.1</ele>
        <time>2023-01-21T09:49:46.000Z</time>
      </trkpt>
      <trkpt lat="46.27191" lon="6.55393">
        <ele>1052.1</ele>
        <time>2023-01-21T09:49:47.000Z</time>
      </trkpt>
      <trkpt lat="46.27191" lon="6.55393">
        <ele>1052.1</ele>
        <time>2023-01-21T09:49:48.000Z</time>
      </trkpt>
      <trkpt lat="46.27191" lon="6.55393">
        <ele>1052.1</ele>
        <time>2023-01-21T09:49:49.000Z</time>
      </trkpt>
      <trkpt lat="46.27191" lon="6.55393">
        <ele>1052.1</ele>
        <time>2023-01-21T09:49:50.000Z</time>
      </trkpt>
      <trkpt lat="46.27191" lon="6.55393">
        <ele>1052.1</ele>
        <time>2023-01-21T09:49:51.000Z</time>
      </trkpt>
      <trkpt lat="46.27191" lon="6.55393">
        <ele>1052.1</ele>
        <time>2023-01-21T09:49:52.000Z</time>
      </trkpt>
      <trkpt lat="46.27191" lon="6.55393">
        <ele>1052.1</ele>
        <time>2023-01-21T09:49:53.000Z</time>
      </trkpt>
      <trkpt lat="46.27191" lon="6.55393">
        <ele>1052.1</ele>
        <time>2023-01-21T09:49:54.000Z</time>
      </trkpt>
      <trkpt lat="46.27191" lon="6.55393">
        <ele>1052.1</ele>
        <time>2023-01-21T09:49:55.000Z</time>
      </trkpt>
      <trkpt lat="46.27191" lon="6.55393">
        <ele>1052.1</ele>
        <time>2023-01-21T09:49:56.000Z</time>
      </trkpt>
      <trkpt lat="46.27191" lon="6.55393">
        <ele>1052.1</ele>
        <time>2023-01-21T09:49:57.000Z</time>
      </trkpt>
      <trkpt lat="46.27191" lon="6.55393">
        <ele>1052.1</ele>
        <time>2023-01-21T09:49:58.000Z</time>
      </trkpt>
      <trkpt lat="46.27191" lon="6.55393">
        <ele>1052.1</ele>
        <time>2023-01-21T09:49:59.000Z</time>
      </trkpt>
      <trkpt lat="46.27191" lon="6.55393">
        <ele>1052.1</ele>
        <time>2023-01-21T09:50:00.000Z</time>
      </trkpt>
      <trkpt lat="46.27191" lon="6.55393">
        <ele>1052.1</ele>
        <time>2023-01-21T09:50:01.000Z</time>
      </trkpt>
      <trkpt lat="46.27191" lon="6.55393">
        <ele>1052.1</ele>
        <time>2023-01-21T09:50:02.000Z</time>
      </trkpt>
      <trkpt lat="46.27191" lon="6.55393">
        <ele>1052.1</ele>
        <time>2023-01-21T09:50:03.000Z</time>
      </trkpt>
      <trkpt lat="46.27191" lon="6.55393">
        <ele>1052.1</ele>
        <time>2023-01-21T09:50:04.000Z</time>
      </trkpt>
      <trkpt lat="46.27191" lon="6.55393">
        <ele>1052.1</ele>
        <time>2023-01-21T09:50:05.000Z</time>
      </trkpt>
      <trkpt lat="46.27191" lon="6.55393">
        <ele>1052.1</ele>
        <time>2023-01-21T09:50:06.000Z</time>
      </trkpt>
      <trkpt lat="46.27191" lon="6.55393">
        <ele>1052.1</ele>
        <time>2023-01-21T09:50:07.000Z</time>
      </trkpt>
      <trkpt lat="46.27191" lon="6.55393">
        <ele>1052.1</ele>
        <time>2023-01-21T09:50:08.000Z</time>
      </trkpt>
      <trkpt lat="46.27191" lon="6.55393">
        <ele>1052.1</ele>
        <time>2023-01-21T09:50:09.000Z</time>
      </trkpt>
      <trkpt lat="46.27191" lon="6.55393">
        <ele>1052.1</ele>
        <time>2023-01-21T09:50:10.000Z</time>
      </trkpt>
      <trkpt lat="46.27191" lon="6.55393">
        <ele>1052.1</ele>
        <time>2023-01-21T09:50:11.000Z</time>
      </trkpt>
      <trkpt lat="46.27191" lon="6.55393">
        <ele>1052.1</ele>
        <time>2023-01-21T09:50:12.000Z</time>
      </trkpt>
      <trkpt lat="46.27191" lon="6.55393">
        <ele>1052.1</ele>
        <time>2023-01-21T09:50:13.000Z</time>
      </trkpt>
      <trkpt lat="46.27191" lon="6.55393">
        <ele>1052.1</ele>
        <time>2023-01-21T09:50:14.000Z</time>
      </trkpt>
      <trkpt lat="46.27191" lon="6.55393">
        <ele>1052.1</ele>
        <time>2023-01-21T09:50:15.000Z</time>
      </trkpt>
      <trkpt lat="46.27191" lon="6.55393">
        <ele>1052.1</ele>
        <time>2023-01-21T09:50:16.000Z</time>
      </trkpt>
      <trkpt lat="46.27188" lon="6.55399">
        <ele>1049.9</ele>
        <time>2023-01-21T09:50:17.000Z</time>
      </trkpt>
      <trkpt lat="46.27187" lon="6.55399">
        <ele>1049.7</ele>
        <time>2023-01-21T09:50:18.000Z</time>
      </trkpt>
      <trkpt lat="46.27188" lon="6.55399">
        <ele>1049.5</ele>
        <time>2023-01-21T09:50:19.000Z</time>
      </trkpt>
      <trkpt lat="46.27187" lon="6.55399">
        <ele>1049.4</ele>
        <time>2023-01-21T09:50:20.000Z</time>
      </trkpt>
      <trkpt lat="46.27187" lon="6.55397">
        <ele>1049.3</ele>
        <time>2023-01-21T09:50:21.000Z</time>
      </trkpt>
      <trkpt lat="46.27187" lon="6.55395">
        <ele>1049.1</ele>
        <time>2023-01-21T09:50:22.000Z</time>
      </trkpt>
      <trkpt lat="46.27188" lon="6.55394">
        <ele>1048.9</ele>
        <time>2023-01-21T09:50:23.000Z</time>
      </trkpt>
      <trkpt lat="46.27188" lon="6.55393">
        <ele>1048.9</ele>
        <time>2023-01-21T09:50:24.000Z</time>
      </trkpt>
      <trkpt lat="46.27188" lon="6.55393">
        <ele>1048.7</ele>
        <time>2023-01-21T09:50:25.000Z</time>
      </trkpt>
      <trkpt lat="46.27188" lon="6.55393">
        <ele>1048.7</ele>
        <time>2023-01-21T09:50:26.000Z</time>
      </trkpt>
      <trkpt lat="46.27188" lon="6.55393">
        <ele>1048.7</ele>
        <time>2023-01-21T09:50:27.000Z</time>
      </trkpt>
      <trkpt lat="46.27188" lon="6.55393">
        <ele>1048.7</ele>
        <time>2023-01-21T09:50:28.000Z</time>
      </trkpt>
      <trkpt lat="46.27188" lon="6.55393">
        <ele>1048.7</ele>
        <time>2023-01-21T09:50:29.000Z</time>
      </trkpt>
      <trkpt lat="46.27188" lon="6.55393">
        <ele>1048.7</ele>
        <time>2023-01-21T09:50:30.000Z</time>
      </trkpt>
      <trkpt lat="46.27188" lon="6.55393">
        <ele>1048.7</ele>
        <time>2023-01-21T09:50:31.000Z</time>
      </trkpt>
      <trkpt lat="46.27188" lon="6.55393">
        <ele>1048.7</ele>
        <time>2023-01-21T09:50:32.000Z</time>
      </trkpt>
      <trkpt lat="46.27188" lon="6.55393">
        <ele>1048.7</ele>
        <time>2023-01-21T09:50:33.000Z</time>
      </trkpt>
      <trkpt lat="46.27188" lon="6.55393">
        <ele>1048.7</ele>
        <time>2023-01-21T09:50:34.000Z</time>
      </trkpt>
      <trkpt lat="46.27188" lon="6.55393">
        <ele>1048.7</ele>
        <time>2023-01-21T09:50:35.000Z</time>
      </trkpt>
      <trkpt lat="46.27188" lon="6.55393">
        <ele>1048.7</ele>
        <time>2023-01-21T09:50:36.000Z</time>
      </trkpt>
      <trkpt lat="46.27188" lon="6.55393">
        <ele>1048.7</ele>
        <time>2023-01-21T09:50:37.000Z</time>
      </trkpt>
      <trkpt lat="46.2719" lon="6.55393">
        <ele>1048.7</ele>
        <time>2023-01-21T09:50:38.000Z</time>
      </trkpt>
      <trkpt lat="46.2719" lon="6.55394">
        <ele>1048.5</ele>
        <time>2023-01-21T09:50:39.000Z</time>
      </trkpt>
      <trkpt lat="46.2719" lon="6.55394">
        <ele>1048.1</ele>
        <time>2023-01-21T09:50:40.000Z</time>
      </trkpt>
      <trkpt lat="46.2719" lon="6.55393">
        <ele>1047.8</ele>
        <time>2023-01-21T09:50:41.000Z</time>
      </trkpt>
      <trkpt lat="46.27188" lon="6.55394">
        <ele>1047.6</ele>
        <time>2023-01-21T09:50:42.000Z</time>
      </trkpt>
      <trkpt lat="46.27188" lon="6.55394">
        <ele>1047.6</ele>
        <time>2023-01-21T09:50:43.000Z</time>
      </trkpt>
      <trkpt lat="46.27188" lon="6.55394">
        <ele>1047.6</ele>
        <time>2023-01-21T09:50:44.000Z</time>
      </trkpt>
      <trkpt lat="46.27188" lon="6.55394">
        <ele>1047.6</ele>
        <time>2023-01-21T09:50:45.000Z</time>
      </trkpt>
      <trkpt lat="46.27188" lon="6.55395">
        <ele>1046.8</ele>
        <time>2023-01-21T09:50:46.000Z</time>
      </trkpt>
      <trkpt lat="46.27188" lon="6.55396">
        <ele>1046.6</ele>
        <time>2023-01-21T09:50:47.000Z</time>
      </trkpt>
      <trkpt lat="46.27189" lon="6.55397">
        <ele>1046.4</ele>
        <time>2023-01-21T09:50:48.000Z</time>
      </trkpt>
      <trkpt lat="46.27189" lon="6.55397">
        <ele>1046.3</ele>
        <time>2023-01-21T09:50:49.000Z</time>
      </trkpt>
      <trkpt lat="46.27189" lon="6.55397">
        <ele>1046.2</ele>
        <time>2023-01-21T09:50:50.000Z</time>
      </trkpt>
      <trkpt lat="46.27189" lon="6.55396">
        <ele>1046.2</ele>
        <time>2023-01-21T09:50:51.000Z</time>
      </trkpt>
      <trkpt lat="46.27189" lon="6.55396">
        <ele>1046</ele>
        <time>2023-01-21T09:50:52.000Z</time>
      </trkpt>
      <trkpt lat="46.27189" lon="6.55395">
        <ele>1045.9</ele>
        <time>2023-01-21T09:50:53.000Z</time>
      </trkpt>
      <trkpt lat="46.2719" lon="6.55395">
        <ele>1045.8</ele>
        <time>2023-01-21T09:50:54.000Z</time>
      </trkpt>
      <trkpt lat="46.2719" lon="6.55394">
        <ele>1045.8</ele>
        <time>2023-01-21T09:50:55.000Z</time>
      </trkpt>
      <trkpt lat="46.27191" lon="6.55394">
        <ele>1045.8</ele>
        <time>2023-01-21T09:50:56.000Z</time>
      </trkpt>
      <trkpt lat="46.27191" lon="6.55394">
        <ele>1045.7</ele>
        <time>2023-01-21T09:50:57.000Z</time>
      </trkpt>
      <trkpt lat="46.27191" lon="6.55394">
        <ele>1045.7</ele>
        <time>2023-01-21T09:50:58.000Z</time>
      </trkpt>
      <trkpt lat="46.27192" lon="6.55395">
        <ele>1045.7</ele>
        <time>2023-01-21T09:50:59.000Z</time>
      </trkpt>
      <trkpt lat="46.27192" lon="6.55396">
        <ele>1045.9</ele>
        <time>2023-01-21T09:51:00.000Z</time>
      </trkpt>
      <trkpt lat="46.27191" lon="6.55396">
        <ele>1046.1</ele>
        <time>2023-01-21T09:51:01.000Z</time>
      </trkpt>
      <trkpt lat="46.27191" lon="6.55396">
        <ele>1046</ele>
        <time>2023-01-21T09:51:02.000Z</time>
      </trkpt>
      <trkpt lat="46.27191" lon="6.55395">
        <ele>1045.9</ele>
        <time>2023-01-21T09:51:03.000Z</time>
      </trkpt>
      <trkpt lat="46.2719" lon="6.55395">
        <ele>1045.9</ele>
        <time>2023-01-21T09:51:04.000Z</time>
      </trkpt>
      <trkpt lat="46.27191" lon="6.55395">
        <ele>1046.1</ele>
        <time>2023-01-21T09:51:05.000Z</time>
      </trkpt>
      <trkpt lat="46.2719" lon="6.55396">
        <ele>1046</ele>
        <time>2023-01-21T09:51:06.000Z</time>
      </trkpt>
      <trkpt lat="46.2719" lon="6.55395">
        <ele>1046.1</ele>
        <time>2023-01-21T09:51:07.000Z</time>
      </trkpt>
      <trkpt lat="46.2719" lon="6.55395">
        <ele>1046.1</ele>
        <time>2023-01-21T09:51:08.000Z</time>
      </trkpt>
      <trkpt lat="46.2719" lon="6.55395">
        <ele>1046.1</ele>
        <time>2023-01-21T09:51:09.000Z</time>
      </trkpt>
      <trkpt lat="46.27191" lon="6.55396">
        <ele>1046.2</ele>
        <time>2023-01-21T09:51:10.000Z</time>
      </trkpt>
      <trkpt lat="46.27191" lon="6.55397">
        <ele>1046.1</ele>
        <time>2023-01-21T09:51:11.000Z</time>
      </trkpt>
      <trkpt lat="46.27192" lon="6.55397">
        <ele>1046.2</ele>
        <time>2023-01-21T09:51:12.000Z</time>
      </trkpt>
      <trkpt lat="46.27191" lon="6.55397">
        <ele>1045.9</ele>
        <time>2023-01-21T09:51:13.000Z</time>
      </trkpt>
      <trkpt lat="46.27191" lon="6.55397">
        <ele>1045.9</ele>
        <time>2023-01-21T09:51:14.000Z</time>
      </trkpt>
      <trkpt lat="46.27191" lon="6.55397">
        <ele>1045.9</ele>
        <time>2023-01-21T09:51:15.000Z</time>
      </trkpt>
      <trkpt lat="46.27191" lon="6.55397">
        <ele>1045.9</ele>
        <time>2023-01-21T09:51:16.000Z</time>
      </trkpt>
      <trkpt lat="46.27191" lon="6.55397">
        <ele>1045.9</ele>
        <time>2023-01-21T09:51:17.000Z</time>
      </trkpt>
      <trkpt lat="46.27191" lon="6.55397">
        <ele>1045.9</ele>
        <time>2023-01-21T09:51:18.000Z</time>
      </trkpt>
      <trkpt lat="46.27191" lon="6.55397">
        <ele>1045.9</ele>
        <time>2023-01-21T09:51:19.000Z</time>
      </trkpt>
      <trkpt lat="46.27191" lon="6.55397">
        <ele>1045.9</ele>
        <time>2023-01-21T09:51:20.000Z</time>
      </trkpt>
      <trkpt lat="46.27191" lon="6.55397">
        <ele>1045.9</ele>
        <time>2023-01-21T09:51:21.000Z</time>
      </trkpt>
      <trkpt lat="46.27191" lon="6.55397">
        <ele>1045.9</ele>
        <time>2023-01-21T09:51:22.000Z</time>
      </trkpt>
      <trkpt lat="46.27191" lon="6.55397">
        <ele>1045.9</ele>
        <time>2023-01-21T09:51:23.000Z</time>
      </trkpt>
      <trkpt lat="46.27191" lon="6.55397">
        <ele>1045.9</ele>
        <time>2023-01-21T09:51:24.000Z</time>
      </trkpt>
      <trkpt lat="46.27191" lon="6.55397">
        <ele>1045.9</ele>
        <time>2023-01-21T09:51:25.000Z</time>
      </trkpt>
      <trkpt lat="46.27191" lon="6.55397">
        <ele>1045.9</ele>
        <time>2023-01-21T09:51:26.000Z</time>
      </trkpt>
      <trkpt lat="46.27191" lon="6.55397">
        <ele>1045.9</ele>
        <time>2023-01-21T09:51:27.000Z</time>
      </trkpt>
      <trkpt lat="46.27191" lon="6.55397">
        <ele>1045.9</ele>
        <time>2023-01-21T09:51:28.000Z</time>
      </trkpt>
      <trkpt lat="46.27191" lon="6.55397">
        <ele>1045.9</ele>
        <time>2023-01-21T09:51:29.000Z</time>
      </trkpt>
      <trkpt lat="46.27191" lon="6.55397">
        <ele>1045.9</ele>
        <time>2023-01-21T09:51:30.000Z</time>
      </trkpt>
      <trkpt lat="46.27191" lon="6.55397">
        <ele>1045.9</ele>
        <time>2023-01-21T09:51:31.000Z</time>
      </trkpt>
      <trkpt lat="46.27191" lon="6.55397">
        <ele>1045.9</ele>
        <time>2023-01-21T09:51:32.000Z</time>
      </trkpt>
      <trkpt lat="46.27191" lon="6.55397">
        <ele>1045.9</ele>
        <time>2023-01-21T09:51:33.000Z</time>
      </trkpt>
      <trkpt lat="46.27191" lon="6.55397">
        <ele>1045.9</ele>
        <time>2023-01-21T09:51:34.000Z</time>
      </trkpt>
      <trkpt lat="46.27191" lon="6.55397">
        <ele>1045.9</ele>
        <time>2023-01-21T09:51:35.000Z</time>
      </trkpt>
      <trkpt lat="46.27191" lon="6.55397">
        <ele>1045.9</ele>
        <time>2023-01-21T09:51:36.000Z</time>
      </trkpt>
      <trkpt lat="46.27191" lon="6.55397">
        <ele>1045.9</ele>
        <time>2023-01-21T09:51:37.000Z</time>
      </trkpt>
      <trkpt lat="46.27191" lon="6.55397">
        <ele>1045.9</ele>
        <time>2023-01-21T09:51:38.000Z</time>
      </trkpt>
      <trkpt lat="46.27191" lon="6.55397">
        <ele>1045.9</ele>
        <time>2023-01-21T09:51:39.000Z</time>
      </trkpt>
      <trkpt lat="46.27191" lon="6.55397">
        <ele>1045.9</ele>
        <time>2023-01-21T09:51:40.000Z</time>
      </trkpt>
      <trkpt lat="46.27191" lon="6.55397">
        <ele>1045.9</ele>
        <time>2023-01-21T09:51:41.000Z</time>
      </trkpt>
      <trkpt lat="46.27191" lon="6.55397">
        <ele>1045.9</ele>
        <time>2023-01-21T09:51:42.000Z</time>
      </trkpt>
      <trkpt lat="46.27191" lon="6.55397">
        <ele>1045.9</ele>
        <time>2023-01-21T09:51:43.000Z</time>
      </trkpt>
      <trkpt lat="46.27191" lon="6.55397">
        <ele>1045.9</ele>
        <time>2023-01-21T09:51:44.000Z</time>
      </trkpt>
      <trkpt lat="46.27191" lon="6.55397">
        <ele>1045.9</ele>
        <time>2023-01-21T09:51:45.000Z</time>
      </trkpt>
      <trkpt lat="46.27191" lon="6.55397">
        <ele>1045.9</ele>
        <time>2023-01-21T09:51:46.000Z</time>
      </trkpt>
      <trkpt lat="46.27191" lon="6.55397">
        <ele>1045.9</ele>
        <time>2023-01-21T09:51:47.000Z</time>
      </trkpt>
      <trkpt lat="46.27191" lon="6.55397">
        <ele>1045.9</ele>
        <time>2023-01-21T09:51:48.000Z</time>
      </trkpt>
      <trkpt lat="46.27191" lon="6.55397">
        <ele>1045.9</ele>
        <time>2023-01-21T09:51:49.000Z</time>
      </trkpt>
      <trkpt lat="46.27191" lon="6.55397">
        <ele>1045.9</ele>
        <time>2023-01-21T09:51:50.000Z</time>
      </trkpt>
      <trkpt lat="46.27191" lon="6.55397">
        <ele>1045.9</ele>
        <time>2023-01-21T09:51:51.000Z</time>
      </trkpt>
      <trkpt lat="46.27191" lon="6.55397">
        <ele>1045.9</ele>
        <time>2023-01-21T09:51:52.000Z</time>
      </trkpt>
      <trkpt lat="46.27191" lon="6.55397">
        <ele>1045.9</ele>
        <time>2023-01-21T09:51:53.000Z</time>
      </trkpt>
      <trkpt lat="46.27191" lon="6.55397">
        <ele>1045.9</ele>
        <time>2023-01-21T09:51:54.000Z</time>
      </trkpt>
      <trkpt lat="46.27191" lon="6.55397">
        <ele>1045.9</ele>
        <time>2023-01-21T09:51:55.000Z</time>
      </trkpt>
      <trkpt lat="46.27191" lon="6.55397">
        <ele>1045.9</ele>
        <time>2023-01-21T09:51:56.000Z</time>
      </trkpt>
      <trkpt lat="46.27191" lon="6.55397">
        <ele>1045.9</ele>
        <time>2023-01-21T09:51:57.000Z</time>
      </trkpt>
      <trkpt lat="46.27191" lon="6.55397">
        <ele>1045.9</ele>
        <time>2023-01-21T09:51:58.000Z</time>
      </trkpt>
      <trkpt lat="46.27191" lon="6.55397">
        <ele>1045.9</ele>
        <time>2023-01-21T09:51:59.000Z</time>
      </trkpt>
      <trkpt lat="46.27191" lon="6.55397">
        <ele>1045.9</ele>
        <time>2023-01-21T09:52:00.000Z</time>
      </trkpt>
      <trkpt lat="46.27191" lon="6.55397">
        <ele>1045.9</ele>
        <time>2023-01-21T09:52:01.000Z</time>
      </trkpt>
      <trkpt lat="46.27191" lon="6.55397">
        <ele>1045.9</ele>
        <time>2023-01-21T09:52:02.000Z</time>
      </trkpt>
      <trkpt lat="46.27191" lon="6.55397">
        <ele>1045.9</ele>
        <time>2023-01-21T09:52:03.000Z</time>
      </trkpt>
      <trkpt lat="46.27191" lon="6.55397">
        <ele>1045.9</ele>
        <time>2023-01-21T09:52:04.000Z</time>
      </trkpt>
      <trkpt lat="46.27191" lon="6.55397">
        <ele>1045.9</ele>
        <time>2023-01-21T09:52:05.000Z</time>
      </trkpt>
      <trkpt lat="46.27191" lon="6.55397">
        <ele>1045.9</ele>
        <time>2023-01-21T09:52:06.000Z</time>
      </trkpt>
      <trkpt lat="46.27191" lon="6.55397">
        <ele>1045.9</ele>
        <time>2023-01-21T09:52:07.000Z</time>
      </trkpt>
      <trkpt lat="46.27191" lon="6.55397">
        <ele>1045.9</ele>
        <time>2023-01-21T09:52:08.000Z</time>
      </trkpt>
      <trkpt lat="46.27191" lon="6.55397">
        <ele>1045.9</ele>
        <time>2023-01-21T09:52:09.000Z</time>
      </trkpt>
      <trkpt lat="46.27191" lon="6.55397">
        <ele>1045.9</ele>
        <time>2023-01-21T09:52:10.000Z</time>
      </trkpt>
      <trkpt lat="46.27191" lon="6.55397">
        <ele>1045.9</ele>
        <time>2023-01-21T09:52:11.000Z</time>
      </trkpt>
      <trkpt lat="46.27191" lon="6.55397">
        <ele>1045.9</ele>
        <time>2023-01-21T09:52:12.000Z</time>
      </trkpt>
      <trkpt lat="46.27191" lon="6.55397">
        <ele>1045.9</ele>
        <time>2023-01-21T09:52:13.000Z</time>
      </trkpt>
      <trkpt lat="46.27191" lon="6.55397">
        <ele>1045.9</ele>
        <time>2023-01-21T09:52:14.000Z</time>
      </trkpt>
      <trkpt lat="46.27191" lon="6.55397">
        <ele>1045.9</ele>
        <time>2023-01-21T09:52:15.000Z</time>
      </trkpt>
      <trkpt lat="46.27191" lon="6.55397">
        <ele>1045.9</ele>
        <time>2023-01-21T09:52:16.000Z</time>
      </trkpt>
      <trkpt lat="46.27191" lon="6.55397">
        <ele>1045.9</ele>
        <time>2023-01-21T09:52:17.000Z</time>
      </trkpt>
      <trkpt lat="46.27191" lon="6.55397">
        <ele>1045.9</ele>
        <time>2023-01-21T09:52:18.000Z</time>
      </trkpt>
      <trkpt lat="46.27191" lon="6.55397">
        <ele>1045.9</ele>
        <time>2023-01-21T09:52:19.000Z</time>
      </trkpt>
      <trkpt lat="46.27191" lon="6.55397">
        <ele>1045.9</ele>
        <time>2023-01-21T09:52:20.000Z</time>
      </trkpt>
      <trkpt lat="46.27191" lon="6.55397">
        <ele>1045.9</ele>
        <time>2023-01-21T09:52:21.000Z</time>
      </trkpt>
      <trkpt lat="46.27191" lon="6.55397">
        <ele>1045.9</ele>
        <time>2023-01-21T09:52:22.000Z</time>
      </trkpt>
      <trkpt lat="46.27191" lon="6.55397">
        <ele>1045.9</ele>
        <time>2023-01-21T09:52:23.000Z</time>
      </trkpt>
      <trkpt lat="46.27191" lon="6.55397">
        <ele>1045.9</ele>
        <time>2023-01-21T09:52:24.000Z</time>
      </trkpt>
      <trkpt lat="46.27191" lon="6.55397">
        <ele>1045.9</ele>
        <time>2023-01-21T09:52:25.000Z</time>
      </trkpt>
      <trkpt lat="46.27191" lon="6.55397">
        <ele>1045.9</ele>
        <time>2023-01-21T09:52:26.000Z</time>
      </trkpt>
      <trkpt lat="46.27191" lon="6.55397">
        <ele>1045.9</ele>
        <time>2023-01-21T09:52:27.000Z</time>
      </trkpt>
      <trkpt lat="46.27191" lon="6.55397">
        <ele>1045.9</ele>
        <time>2023-01-21T09:52:28.000Z</time>
      </trkpt>
      <trkpt lat="46.27191" lon="6.55397">
        <ele>1045.9</ele>
        <time>2023-01-21T09:52:29.000Z</time>
      </trkpt>
      <trkpt lat="46.27191" lon="6.55397">
        <ele>1045.9</ele>
        <time>2023-01-21T09:52:30.000Z</time>
      </trkpt>
      <trkpt lat="46.27191" lon="6.55397">
        <ele>1045.9</ele>
        <time>2023-01-21T09:52:31.000Z</time>
      </trkpt>
      <trkpt lat="46.27191" lon="6.55397">
        <ele>1045.9</ele>
        <time>2023-01-21T09:52:32.000Z</time>
      </trkpt>
      <trkpt lat="46.27191" lon="6.55397">
        <ele>1045.9</ele>
        <time>2023-01-21T09:52:33.000Z</time>
      </trkpt>
      <trkpt lat="46.27191" lon="6.55397">
        <ele>1045.9</ele>
        <time>2023-01-21T09:52:34.000Z</time>
      </trkpt>
      <trkpt lat="46.27191" lon="6.55397">
        <ele>1045.9</ele>
        <time>2023-01-21T09:52:35.000Z</time>
      </trkpt>
      <trkpt lat="46.27191" lon="6.55397">
        <ele>1045.9</ele>
        <time>2023-01-21T09:52:36.000Z</time>
      </trkpt>
      <trkpt lat="46.27191" lon="6.55397">
        <ele>1045.9</ele>
        <time>2023-01-21T09:52:37.000Z</time>
      </trkpt>
      <trkpt lat="46.27191" lon="6.55397">
        <ele>1045.9</ele>
        <time>2023-01-21T09:52:38.000Z</time>
      </trkpt>
      <trkpt lat="46.27191" lon="6.55397">
        <ele>1045.9</ele>
        <time>2023-01-21T09:52:39.000Z</time>
      </trkpt>
      <trkpt lat="46.27191" lon="6.55397">
        <ele>1045.9</ele>
        <time>2023-01-21T09:52:40.000Z</time>
      </trkpt>
      <trkpt lat="46.27191" lon="6.55397">
        <ele>1045.9</ele>
        <time>2023-01-21T09:52:41.000Z</time>
      </trkpt>
      <trkpt lat="46.27191" lon="6.55397">
        <ele>1045.9</ele>
        <time>2023-01-21T09:52:42.000Z</time>
      </trkpt>
      <trkpt lat="46.27191" lon="6.55397">
        <ele>1045.9</ele>
        <time>2023-01-21T09:52:43.000Z</time>
      </trkpt>
      <trkpt lat="46.27191" lon="6.55397">
        <ele>1045.9</ele>
        <time>2023-01-21T09:52:44.000Z</time>
      </trkpt>
      <trkpt lat="46.27191" lon="6.55397">
        <ele>1045.9</ele>
        <time>2023-01-21T09:52:45.000Z</time>
      </trkpt>
      <trkpt lat="46.27191" lon="6.55397">
        <ele>1045.9</ele>
        <time>2023-01-21T09:52:46.000Z</time>
      </trkpt>
      <trkpt lat="46.27191" lon="6.55397">
        <ele>1045.9</ele>
        <time>2023-01-21T09:52:47.000Z</time>
      </trkpt>
      <trkpt lat="46.27191" lon="6.55397">
        <ele>1045.9</ele>
        <time>2023-01-21T09:52:48.000Z</time>
      </trkpt>
      <trkpt lat="46.27191" lon="6.55397">
        <ele>1045.9</ele>
        <time>2023-01-21T09:52:49.000Z</time>
      </trkpt>
      <trkpt lat="46.27191" lon="6.55397">
        <ele>1045.9</ele>
        <time>2023-01-21T09:52:50.000Z</time>
      </trkpt>
      <trkpt lat="46.27191" lon="6.55397">
        <ele>1045.9</ele>
        <time>2023-01-21T09:52:51.000Z</time>
      </trkpt>
      <trkpt lat="46.27191" lon="6.55397">
        <ele>1045.9</ele>
        <time>2023-01-21T09:52:52.000Z</time>
      </trkpt>
      <trkpt lat="46.27191" lon="6.55397">
        <ele>1045.9</ele>
        <time>2023-01-21T09:52:53.000Z</time>
      </trkpt>
      <trkpt lat="46.27191" lon="6.55397">
        <ele>1045.9</ele>
        <time>2023-01-21T09:52:54.000Z</time>
      </trkpt>
      <trkpt lat="46.27191" lon="6.55397">
        <ele>1045.9</ele>
        <time>2023-01-21T09:52:55.000Z</time>
      </trkpt>
      <trkpt lat="46.27191" lon="6.55397">
        <ele>1045.9</ele>
        <time>2023-01-21T09:52:56.000Z</time>
      </trkpt>
      <trkpt lat="46.27191" lon="6.55397">
        <ele>1045.9</ele>
        <time>2023-01-21T09:52:57.000Z</time>
      </trkpt>
      <trkpt lat="46.27191" lon="6.55397">
        <ele>1045.9</ele>
        <time>2023-01-21T09:52:58.000Z</time>
      </trkpt>
      <trkpt lat="46.27191" lon="6.55397">
        <ele>1045.9</ele>
        <time>2023-01-21T09:52:59.000Z</time>
      </trkpt>
      <trkpt lat="46.27191" lon="6.55397">
        <ele>1045.9</ele>
        <time>2023-01-21T09:53:00.000Z</time>
      </trkpt>
      <trkpt lat="46.27191" lon="6.55397">
        <ele>1045.9</ele>
        <time>2023-01-21T09:53:01.000Z</time>
      </trkpt>
      <trkpt lat="46.27191" lon="6.55397">
        <ele>1045.9</ele>
        <time>2023-01-21T09:53:02.000Z</time>
      </trkpt>
      <trkpt lat="46.27191" lon="6.55397">
        <ele>1045.9</ele>
        <time>2023-01-21T09:53:03.000Z</time>
      </trkpt>
      <trkpt lat="46.27191" lon="6.55397">
        <ele>1045.9</ele>
        <time>2023-01-21T09:53:04.000Z</time>
      </trkpt>
      <trkpt lat="46.27191" lon="6.55397">
        <ele>1045.9</ele>
        <time>2023-01-21T09:53:05.000Z</time>
      </trkpt>
      <trkpt lat="46.27191" lon="6.55397">
        <ele>1045.9</ele>
        <time>2023-01-21T09:53:06.000Z</time>
      </trkpt>
      <trkpt lat="46.27191" lon="6.55397">
        <ele>1045.9</ele>
        <time>2023-01-21T09:53:07.000Z</time>
      </trkpt>
      <trkpt lat="46.27191" lon="6.55397">
        <ele>1045.9</ele>
        <time>2023-01-21T09:53:08.000Z</time>
      </trkpt>
      <trkpt lat="46.27191" lon="6.55397">
        <ele>1045.9</ele>
        <time>2023-01-21T09:53:09.000Z</time>
      </trkpt>
      <trkpt lat="46.27191" lon="6.55397">
        <ele>1045.9</ele>
        <time>2023-01-21T09:53:10.000Z</time>
      </trkpt>
      <trkpt lat="46.27191" lon="6.55397">
        <ele>1045.9</ele>
        <time>2023-01-21T09:53:11.000Z</time>
      </trkpt>
      <trkpt lat="46.27191" lon="6.55397">
        <ele>1045.9</ele>
        <time>2023-01-21T09:53:12.000Z</time>
      </trkpt>
      <trkpt lat="46.27192" lon="6.55396">
        <ele>1048.7</ele>
        <time>2023-01-21T09:53:13.000Z</time>
      </trkpt>
      <trkpt lat="46.27191" lon="6.55394">
        <ele>1048.7</ele>
        <time>2023-01-21T09:53:14.000Z</time>
      </trkpt>
      <trkpt lat="46.2719" lon="6.55393">
        <ele>1048.6</ele>
        <time>2023-01-21T09:53:15.000Z</time>
      </trkpt>
      <trkpt lat="46.27191" lon="6.55394">
        <ele>1048.7</ele>
        <time>2023-01-21T09:53:16.000Z</time>
      </trkpt>
      <trkpt lat="46.27192" lon="6.55393">
        <ele>1048.8</ele>
        <time>2023-01-21T09:53:17.000Z</time>
      </trkpt>
      <trkpt lat="46.27192" lon="6.55395">
        <ele>1049.1</ele>
        <time>2023-01-21T09:53:18.000Z</time>
      </trkpt>
      <trkpt lat="46.27194" lon="6.55394">
        <ele>1049.4</ele>
        <time>2023-01-21T09:53:19.000Z</time>
      </trkpt>
      <trkpt lat="46.27195" lon="6.55395">
        <ele>1049.4</ele>
        <time>2023-01-21T09:53:20.000Z</time>
      </trkpt>
      <trkpt lat="46.27195" lon="6.55395">
        <ele>1049.3</ele>
        <time>2023-01-21T09:53:21.000Z</time>
      </trkpt>
      <trkpt lat="46.27196" lon="6.55395">
        <ele>1049.1</ele>
        <time>2023-01-21T09:53:22.000Z</time>
      </trkpt>
      <trkpt lat="46.27196" lon="6.55395">
        <ele>1048.7</ele>
        <time>2023-01-21T09:53:23.000Z</time>
      </trkpt>
      <trkpt lat="46.27196" lon="6.55395">
        <ele>1048.5</ele>
        <time>2023-01-21T09:53:24.000Z</time>
      </trkpt>
      <trkpt lat="46.27197" lon="6.55394">
        <ele>1048.3</ele>
        <time>2023-01-21T09:53:25.000Z</time>
      </trkpt>
      <trkpt lat="46.27197" lon="6.55394">
        <ele>1048</ele>
        <time>2023-01-21T09:53:26.000Z</time>
      </trkpt>
      <trkpt lat="46.27197" lon="6.55394">
        <ele>1048</ele>
        <time>2023-01-21T09:53:27.000Z</time>
      </trkpt>
      <trkpt lat="46.27197" lon="6.55394">
        <ele>1048</ele>
        <time>2023-01-21T09:53:28.000Z</time>
      </trkpt>
      <trkpt lat="46.27197" lon="6.55394">
        <ele>1048</ele>
        <time>2023-01-21T09:53:29.000Z</time>
      </trkpt>
      <trkpt lat="46.27197" lon="6.55394">
        <ele>1048</ele>
        <time>2023-01-21T09:53:30.000Z</time>
      </trkpt>
      <trkpt lat="46.27197" lon="6.55394">
        <ele>1048</ele>
        <time>2023-01-21T09:53:31.000Z</time>
      </trkpt>
      <trkpt lat="46.27197" lon="6.55394">
        <ele>1048</ele>
        <time>2023-01-21T09:53:32.000Z</time>
      </trkpt>
      <trkpt lat="46.27197" lon="6.55394">
        <ele>1048</ele>
        <time>2023-01-21T09:53:33.000Z</time>
      </trkpt>
      <trkpt lat="46.27197" lon="6.55394">
        <ele>1048</ele>
        <time>2023-01-21T09:53:34.000Z</time>
      </trkpt>
      <trkpt lat="46.27201" lon="6.55394">
        <ele>1047.8</ele>
        <time>2023-01-21T09:53:35.000Z</time>
      </trkpt>
      <trkpt lat="46.27201" lon="6.55395">
        <ele>1047.8</ele>
        <time>2023-01-21T09:53:36.000Z</time>
      </trkpt>
      <trkpt lat="46.27201" lon="6.55395">
        <ele>1047.5</ele>
        <time>2023-01-21T09:53:37.000Z</time>
      </trkpt>
      <trkpt lat="46.27201" lon="6.55395">
        <ele>1047.6</ele>
        <time>2023-01-21T09:53:38.000Z</time>
      </trkpt>
      <trkpt lat="46.27201" lon="6.55395">
        <ele>1047.6</ele>
        <time>2023-01-21T09:53:39.000Z</time>
      </trkpt>
      <trkpt lat="46.27201" lon="6.55395">
        <ele>1047.6</ele>
        <time>2023-01-21T09:53:40.000Z</time>
      </trkpt>
      <trkpt lat="46.27201" lon="6.55395">
        <ele>1047.6</ele>
        <time>2023-01-21T09:53:41.000Z</time>
      </trkpt>
      <trkpt lat="46.27201" lon="6.55395">
        <ele>1047.6</ele>
        <time>2023-01-21T09:53:42.000Z</time>
      </trkpt>
      <trkpt lat="46.27201" lon="6.55395">
        <ele>1047.6</ele>
        <time>2023-01-21T09:53:43.000Z</time>
      </trkpt>
      <trkpt lat="46.27201" lon="6.55395">
        <ele>1047.6</ele>
        <time>2023-01-21T09:53:44.000Z</time>
      </trkpt>
      <trkpt lat="46.27202" lon="6.55395">
        <ele>1051</ele>
        <time>2023-01-21T09:53:45.000Z</time>
      </trkpt>
      <trkpt lat="46.27202" lon="6.55396">
        <ele>1051.1</ele>
        <time>2023-01-21T09:53:46.000Z</time>
      </trkpt>
      <trkpt lat="46.27202" lon="6.55395">
        <ele>1051.5</ele>
        <time>2023-01-21T09:53:47.000Z</time>
      </trkpt>
      <trkpt lat="46.27202" lon="6.55395">
        <ele>1051.7</ele>
        <time>2023-01-21T09:53:48.000Z</time>
      </trkpt>
      <trkpt lat="46.27202" lon="6.55395">
        <ele>1051.7</ele>
        <time>2023-01-21T09:53:49.000Z</time>
      </trkpt>
      <trkpt lat="46.27202" lon="6.55395">
        <ele>1051.7</ele>
        <time>2023-01-21T09:53:50.000Z</time>
      </trkpt>
      <trkpt lat="46.27203" lon="6.55393">
        <ele>1052.6</ele>
        <time>2023-01-21T09:53:51.000Z</time>
      </trkpt>
      <trkpt lat="46.27204" lon="6.55393">
        <ele>1053</ele>
        <time>2023-01-21T09:53:52.000Z</time>
      </trkpt>
      <trkpt lat="46.27205" lon="6.55393">
        <ele>1053.3</ele>
        <time>2023-01-21T09:53:53.000Z</time>
      </trkpt>
      <trkpt lat="46.27205" lon="6.55392">
        <ele>1054</ele>
        <time>2023-01-21T09:53:54.000Z</time>
      </trkpt>
      <trkpt lat="46.27205" lon="6.55392">
        <ele>1054.4</ele>
        <time>2023-01-21T09:53:55.000Z</time>
      </trkpt>
      <trkpt lat="46.27206" lon="6.55392">
        <ele>1054.8</ele>
        <time>2023-01-21T09:53:56.000Z</time>
      </trkpt>
      <trkpt lat="46.27207" lon="6.55392">
        <ele>1055</ele>
        <time>2023-01-21T09:53:57.000Z</time>
      </trkpt>
      <trkpt lat="46.27209" lon="6.55392">
        <ele>1055.2</ele>
        <time>2023-01-21T09:53:58.000Z</time>
      </trkpt>
      <trkpt lat="46.27209" lon="6.55391">
        <ele>1055.4</ele>
        <time>2023-01-21T09:53:59.000Z</time>
      </trkpt>
      <trkpt lat="46.2721" lon="6.5539">
        <ele>1055.6</ele>
        <time>2023-01-21T09:54:00.000Z</time>
      </trkpt>
      <trkpt lat="46.2721" lon="6.55391">
        <ele>1055.5</ele>
        <time>2023-01-21T09:54:01.000Z</time>
      </trkpt>
      <trkpt lat="46.27211" lon="6.5539">
        <ele>1055.6</ele>
        <time>2023-01-21T09:54:02.000Z</time>
      </trkpt>
      <trkpt lat="46.27212" lon="6.5539">
        <ele>1055.9</ele>
        <time>2023-01-21T09:54:03.000Z</time>
      </trkpt>
      <trkpt lat="46.27212" lon="6.5539">
        <ele>1056</ele>
        <time>2023-01-21T09:54:04.000Z</time>
      </trkpt>
      <trkpt lat="46.27213" lon="6.5539">
        <ele>1056.1</ele>
        <time>2023-01-21T09:54:05.000Z</time>
      </trkpt>
      <trkpt lat="46.27214" lon="6.5539">
        <ele>1056.3</ele>
        <time>2023-01-21T09:54:06.000Z</time>
      </trkpt>
      <trkpt lat="46.27215" lon="6.55391">
        <ele>1056.6</ele>
        <time>2023-01-21T09:54:07.000Z</time>
      </trkpt>
      <trkpt lat="46.27216" lon="6.55391">
        <ele>1056.5</ele>
        <time>2023-01-21T09:54:08.000Z</time>
      </trkpt>
      <trkpt lat="46.27216" lon="6.55391">
        <ele>1056.7</ele>
        <time>2023-01-21T09:54:09.000Z</time>
      </trkpt>
      <trkpt lat="46.27217" lon="6.55391">
        <ele>1056.7</ele>
        <time>2023-01-21T09:54:10.000Z</time>
      </trkpt>
      <trkpt lat="46.27217" lon="6.55392">
        <ele>1057</ele>
        <time>2023-01-21T09:54:11.000Z</time>
      </trkpt>
      <trkpt lat="46.27218" lon="6.55392">
        <ele>1057.1</ele>
        <time>2023-01-21T09:54:12.000Z</time>
      </trkpt>
      <trkpt lat="46.27218" lon="6.55393">
        <ele>1057.1</ele>
        <time>2023-01-21T09:54:13.000Z</time>
      </trkpt>
      <trkpt lat="46.27219" lon="6.55394">
        <ele>1057.2</ele>
        <time>2023-01-21T09:54:14.000Z</time>
      </trkpt>
      <trkpt lat="46.27219" lon="6.55395">
        <ele>1057.2</ele>
        <time>2023-01-21T09:54:15.000Z</time>
      </trkpt>
      <trkpt lat="46.2722" lon="6.55395">
        <ele>1057.2</ele>
        <time>2023-01-21T09:54:16.000Z</time>
      </trkpt>
      <trkpt lat="46.27221" lon="6.55396">
        <ele>1057.1</ele>
        <time>2023-01-21T09:54:17.000Z</time>
      </trkpt>
      <trkpt lat="46.27221" lon="6.55397">
        <ele>1057</ele>
        <time>2023-01-21T09:54:18.000Z</time>
      </trkpt>
      <trkpt lat="46.27222" lon="6.55398">
        <ele>1057.1</ele>
        <time>2023-01-21T09:54:19.000Z</time>
      </trkpt>
      <trkpt lat="46.27222" lon="6.55399">
        <ele>1057</ele>
        <time>2023-01-21T09:54:20.000Z</time>
      </trkpt>
      <trkpt lat="46.27222" lon="6.554">
        <ele>1057</ele>
        <time>2023-01-21T09:54:21.000Z</time>
      </trkpt>
      <trkpt lat="46.27222" lon="6.55401">
        <ele>1057.1</ele>
        <time>2023-01-21T09:54:22.000Z</time>
      </trkpt>
      <trkpt lat="46.27222" lon="6.55402">
        <ele>1057</ele>
        <time>2023-01-21T09:54:23.000Z</time>
      </trkpt>
      <trkpt lat="46.27223" lon="6.55403">
        <ele>1056.9</ele>
        <time>2023-01-21T09:54:24.000Z</time>
      </trkpt>
      <trkpt lat="46.27223" lon="6.55404">
        <ele>1056.8</ele>
        <time>2023-01-21T09:54:25.000Z</time>
      </trkpt>
      <trkpt lat="46.27223" lon="6.55405">
        <ele>1056.5</ele>
        <time>2023-01-21T09:54:26.000Z</time>
      </trkpt>
      <trkpt lat="46.27223" lon="6.55406">
        <ele>1056.1</ele>
        <time>2023-01-21T09:54:27.000Z</time>
      </trkpt>
      <trkpt lat="46.27223" lon="6.55407">
        <ele>1055.8</ele>
        <time>2023-01-21T09:54:28.000Z</time>
      </trkpt>
      <trkpt lat="46.27224" lon="6.55408">
        <ele>1055.8</ele>
        <time>2023-01-21T09:54:29.000Z</time>
      </trkpt>
      <trkpt lat="46.27224" lon="6.55408">
        <ele>1055.5</ele>
        <time>2023-01-21T09:54:30.000Z</time>
      </trkpt>
      <trkpt lat="46.27224" lon="6.55409">
        <ele>1055.4</ele>
        <time>2023-01-21T09:54:31.000Z</time>
      </trkpt>
      <trkpt lat="46.27223" lon="6.55409">
        <ele>1055.3</ele>
        <time>2023-01-21T09:54:32.000Z</time>
      </trkpt>
      <trkpt lat="46.27223" lon="6.5541">
        <ele>1055.3</ele>
        <time>2023-01-21T09:54:33.000Z</time>
      </trkpt>
      <trkpt lat="46.27223" lon="6.5541">
        <ele>1055.3</ele>
        <time>2023-01-21T09:54:34.000Z</time>
      </trkpt>
      <trkpt lat="46.27222" lon="6.55411">
        <ele>1055.3</ele>
        <time>2023-01-21T09:54:35.000Z</time>
      </trkpt>
      <trkpt lat="46.27222" lon="6.55412">
        <ele>1055.3</ele>
        <time>2023-01-21T09:54:36.000Z</time>
      </trkpt>
      <trkpt lat="46.27222" lon="6.55412">
        <ele>1055.3</ele>
        <time>2023-01-21T09:54:37.000Z</time>
      </trkpt>
      <trkpt lat="46.27221" lon="6.55413">
        <ele>1055.2</ele>
        <time>2023-01-21T09:54:38.000Z</time>
      </trkpt>
      <trkpt lat="46.27221" lon="6.55414">
        <ele>1055.1</ele>
        <time>2023-01-21T09:54:39.000Z</time>
      </trkpt>
      <trkpt lat="46.2722" lon="6.55415">
        <ele>1055.1</ele>
        <time>2023-01-21T09:54:40.000Z</time>
      </trkpt>
      <trkpt lat="46.27219" lon="6.55415">
        <ele>1055.1</ele>
        <time>2023-01-21T09:54:41.000Z</time>
      </trkpt>
      <trkpt lat="46.27219" lon="6.55415">
        <ele>1055.1</ele>
        <time>2023-01-21T09:54:42.000Z</time>
      </trkpt>
      <trkpt lat="46.27218" lon="6.55415">
        <ele>1054.9</ele>
        <time>2023-01-21T09:54:43.000Z</time>
      </trkpt>
      <trkpt lat="46.27217" lon="6.55415">
        <ele>1055.2</ele>
        <time>2023-01-21T09:54:44.000Z</time>
      </trkpt>
      <trkpt lat="46.27217" lon="6.55415">
        <ele>1055.3</ele>
        <time>2023-01-21T09:54:45.000Z</time>
      </trkpt>
      <trkpt lat="46.27218" lon="6.55415">
        <ele>1055.4</ele>
        <time>2023-01-21T09:54:46.000Z</time>
      </trkpt>
      <trkpt lat="46.27217" lon="6.55415">
        <ele>1055.6</ele>
        <time>2023-01-21T09:54:47.000Z</time>
      </trkpt>
      <trkpt lat="46.27217" lon="6.55416">
        <ele>1055.8</ele>
        <time>2023-01-21T09:54:48.000Z</time>
      </trkpt>
      <trkpt lat="46.27216" lon="6.55415">
        <ele>1055.5</ele>
        <time>2023-01-21T09:54:49.000Z</time>
      </trkpt>
      <trkpt lat="46.27216" lon="6.55415">
        <ele>1055.5</ele>
        <time>2023-01-21T09:54:50.000Z</time>
      </trkpt>
      <trkpt lat="46.27215" lon="6.55416">
        <ele>1055.4</ele>
        <time>2023-01-21T09:54:51.000Z</time>
      </trkpt>
      <trkpt lat="46.27214" lon="6.55416">
        <ele>1055.5</ele>
        <time>2023-01-21T09:54:52.000Z</time>
      </trkpt>
      <trkpt lat="46.27213" lon="6.55416">
        <ele>1055.7</ele>
        <time>2023-01-21T09:54:53.000Z</time>
      </trkpt>
      <trkpt lat="46.27211" lon="6.55416">
        <ele>1055.5</ele>
        <time>2023-01-21T09:54:54.000Z</time>
      </trkpt>
      <trkpt lat="46.2721" lon="6.55415">
        <ele>1055.6</ele>
        <time>2023-01-21T09:54:55.000Z</time>
      </trkpt>
      <trkpt lat="46.27209" lon="6.55415">
        <ele>1055.7</ele>
        <time>2023-01-21T09:54:56.000Z</time>
      </trkpt>
      <trkpt lat="46.27208" lon="6.55415">
        <ele>1055.7</ele>
        <time>2023-01-21T09:54:57.000Z</time>
      </trkpt>
      <trkpt lat="46.27207" lon="6.55416">
        <ele>1055.7</ele>
        <time>2023-01-21T09:54:58.000Z</time>
      </trkpt>
      <trkpt lat="46.27207" lon="6.55415">
        <ele>1055.5</ele>
        <time>2023-01-21T09:54:59.000Z</time>
      </trkpt>
      <trkpt lat="46.27206" lon="6.55416">
        <ele>1055.5</ele>
        <time>2023-01-21T09:55:00.000Z</time>
      </trkpt>
      <trkpt lat="46.27205" lon="6.55417">
        <ele>1055.4</ele>
        <time>2023-01-21T09:55:01.000Z</time>
      </trkpt>
      <trkpt lat="46.27205" lon="6.55417">
        <ele>1055.6</ele>
        <time>2023-01-21T09:55:02.000Z</time>
      </trkpt>
      <trkpt lat="46.27204" lon="6.55416">
        <ele>1055.6</ele>
        <time>2023-01-21T09:55:03.000Z</time>
      </trkpt>
      <trkpt lat="46.27203" lon="6.55414">
        <ele>1055.4</ele>
        <time>2023-01-21T09:55:04.000Z</time>
      </trkpt>
      <trkpt lat="46.27202" lon="6.55414">
        <ele>1055.3</ele>
        <time>2023-01-21T09:55:05.000Z</time>
      </trkpt>
      <trkpt lat="46.27201" lon="6.55414">
        <ele>1055.1</ele>
        <time>2023-01-21T09:55:06.000Z</time>
      </trkpt>
      <trkpt lat="46.272" lon="6.55414">
        <ele>1054.9</ele>
        <time>2023-01-21T09:55:07.000Z</time>
      </trkpt>
      <trkpt lat="46.27199" lon="6.55414">
        <ele>1054.7</ele>
        <time>2023-01-21T09:55:08.000Z</time>
      </trkpt>
      <trkpt lat="46.27198" lon="6.55413">
        <ele>1054.7</ele>
        <time>2023-01-21T09:55:09.000Z</time>
      </trkpt>
      <trkpt lat="46.27197" lon="6.55412">
        <ele>1054.7</ele>
        <time>2023-01-21T09:55:10.000Z</time>
      </trkpt>
      <trkpt lat="46.27196" lon="6.55412">
        <ele>1054.6</ele>
        <time>2023-01-21T09:55:11.000Z</time>
      </trkpt>
      <trkpt lat="46.27196" lon="6.55412">
        <ele>1054.5</ele>
        <time>2023-01-21T09:55:12.000Z</time>
      </trkpt>
      <trkpt lat="46.27195" lon="6.55412">
        <ele>1054.6</ele>
        <time>2023-01-21T09:55:13.000Z</time>
      </trkpt>
      <trkpt lat="46.27194" lon="6.55411">
        <ele>1054.7</ele>
        <time>2023-01-21T09:55:14.000Z</time>
      </trkpt>
      <trkpt lat="46.27193" lon="6.55412">
        <ele>1055</ele>
        <time>2023-01-21T09:55:15.000Z</time>
      </trkpt>
      <trkpt lat="46.27192" lon="6.55412">
        <ele>1055.1</ele>
        <time>2023-01-21T09:55:16.000Z</time>
      </trkpt>
      <trkpt lat="46.27191" lon="6.55411">
        <ele>1055.3</ele>
        <time>2023-01-21T09:55:17.000Z</time>
      </trkpt>
      <trkpt lat="46.2719" lon="6.55412">
        <ele>1055.4</ele>
        <time>2023-01-21T09:55:18.000Z</time>
      </trkpt>
      <trkpt lat="46.27189" lon="6.55413">
        <ele>1055.5</ele>
        <time>2023-01-21T09:55:19.000Z</time>
      </trkpt>
      <trkpt lat="46.27188" lon="6.55413">
        <ele>1055.6</ele>
        <time>2023-01-21T09:55:20.000Z</time>
      </trkpt>
      <trkpt lat="46.27187" lon="6.55414">
        <ele>1055.9</ele>
        <time>2023-01-21T09:55:21.000Z</time>
      </trkpt>
      <trkpt lat="46.27186" lon="6.55414">
        <ele>1056</ele>
        <time>2023-01-21T09:55:22.000Z</time>
      </trkpt>
      <trkpt lat="46.27186" lon="6.55414">
        <ele>1056</ele>
        <time>2023-01-21T09:55:23.000Z</time>
      </trkpt>
      <trkpt lat="46.27185" lon="6.55415">
        <ele>1055.9</ele>
        <time>2023-01-21T09:55:24.000Z</time>
      </trkpt>
      <trkpt lat="46.27184" lon="6.55415">
        <ele>1055.8</ele>
        <time>2023-01-21T09:55:25.000Z</time>
      </trkpt>
      <trkpt lat="46.27184" lon="6.55415">
        <ele>1055.9</ele>
        <time>2023-01-21T09:55:26.000Z</time>
      </trkpt>
      <trkpt lat="46.27184" lon="6.55416">
        <ele>1056</ele>
        <time>2023-01-21T09:55:27.000Z</time>
      </trkpt>
      <trkpt lat="46.27183" lon="6.55417">
        <ele>1056.2</ele>
        <time>2023-01-21T09:55:28.000Z</time>
      </trkpt>
      <trkpt lat="46.27183" lon="6.55418">
        <ele>1056.3</ele>
        <time>2023-01-21T09:55:29.000Z</time>
      </trkpt>
      <trkpt lat="46.27183" lon="6.55419">
        <ele>1056.2</ele>
        <time>2023-01-21T09:55:30.000Z</time>
      </trkpt>
      <trkpt lat="46.27183" lon="6.5542">
        <ele>1056.4</ele>
        <time>2023-01-21T09:55:31.000Z</time>
      </trkpt>
      <trkpt lat="46.27183" lon="6.55422">
        <ele>1056.3</ele>
        <time>2023-01-21T09:55:32.000Z</time>
      </trkpt>
      <trkpt lat="46.27183" lon="6.55423">
        <ele>1056.2</ele>
        <time>2023-01-21T09:55:33.000Z</time>
      </trkpt>
      <trkpt lat="46.27183" lon="6.55425">
        <ele>1056.2</ele>
        <time>2023-01-21T09:55:34.000Z</time>
      </trkpt>
      <trkpt lat="46.27183" lon="6.55427">
        <ele>1056.1</ele>
        <time>2023-01-21T09:55:35.000Z</time>
      </trkpt>
      <trkpt lat="46.27183" lon="6.55428">
        <ele>1056</ele>
        <time>2023-01-21T09:55:36.000Z</time>
      </trkpt>
      <trkpt lat="46.27183" lon="6.55429">
        <ele>1055.9</ele>
        <time>2023-01-21T09:55:37.000Z</time>
      </trkpt>
      <trkpt lat="46.27183" lon="6.5543">
        <ele>1055.8</ele>
        <time>2023-01-21T09:55:38.000Z</time>
      </trkpt>
      <trkpt lat="46.27183" lon="6.55431">
        <ele>1055.8</ele>
        <time>2023-01-21T09:55:39.000Z</time>
      </trkpt>
      <trkpt lat="46.27184" lon="6.55431">
        <ele>1055.9</ele>
        <time>2023-01-21T09:55:40.000Z</time>
      </trkpt>
      <trkpt lat="46.27184" lon="6.55433">
        <ele>1055.9</ele>
        <time>2023-01-21T09:55:41.000Z</time>
      </trkpt>
      <trkpt lat="46.27185" lon="6.55434">
        <ele>1056</ele>
        <time>2023-01-21T09:55:42.000Z</time>
      </trkpt>
      <trkpt lat="46.27185" lon="6.55436">
        <ele>1055.9</ele>
        <time>2023-01-21T09:55:43.000Z</time>
      </trkpt>
      <trkpt lat="46.27185" lon="6.55438">
        <ele>1056</ele>
        <time>2023-01-21T09:55:44.000Z</time>
      </trkpt>
      <trkpt lat="46.27185" lon="6.5544">
        <ele>1055.9</ele>
        <time>2023-01-21T09:55:45.000Z</time>
      </trkpt>
      <trkpt lat="46.27185" lon="6.55441">
        <ele>1056</ele>
        <time>2023-01-21T09:55:46.000Z</time>
      </trkpt>
      <trkpt lat="46.27186" lon="6.55442">
        <ele>1056.1</ele>
        <time>2023-01-21T09:55:47.000Z</time>
      </trkpt>
      <trkpt lat="46.27186" lon="6.55443">
        <ele>1056.4</ele>
        <time>2023-01-21T09:55:48.000Z</time>
      </trkpt>
      <trkpt lat="46.27186" lon="6.55444">
        <ele>1056.4</ele>
        <time>2023-01-21T09:55:49.000Z</time>
      </trkpt>
      <trkpt lat="46.27187" lon="6.55445">
        <ele>1056.4</ele>
        <time>2023-01-21T09:55:50.000Z</time>
      </trkpt>
      <trkpt lat="46.27187" lon="6.55445">
        <ele>1056.7</ele>
        <time>2023-01-21T09:55:51.000Z</time>
      </trkpt>
      <trkpt lat="46.27188" lon="6.55445">
        <ele>1056.7</ele>
        <time>2023-01-21T09:55:52.000Z</time>
      </trkpt>
      <trkpt lat="46.27188" lon="6.55446">
        <ele>1056.8</ele>
        <time>2023-01-21T09:55:53.000Z</time>
      </trkpt>
      <trkpt lat="46.27189" lon="6.55446">
        <ele>1056.7</ele>
        <time>2023-01-21T09:55:54.000Z</time>
      </trkpt>
      <trkpt lat="46.27189" lon="6.55447">
        <ele>1056.4</ele>
        <time>2023-01-21T09:55:55.000Z</time>
      </trkpt>
      <trkpt lat="46.2719" lon="6.55447">
        <ele>1056</ele>
        <time>2023-01-21T09:55:56.000Z</time>
      </trkpt>
      <trkpt lat="46.27191" lon="6.55447">
        <ele>1055.9</ele>
        <time>2023-01-21T09:55:57.000Z</time>
      </trkpt>
      <trkpt lat="46.27192" lon="6.55447">
        <ele>1056</ele>
        <time>2023-01-21T09:55:58.000Z</time>
      </trkpt>
      <trkpt lat="46.27193" lon="6.55447">
        <ele>1056</ele>
        <time>2023-01-21T09:55:59.000Z</time>
      </trkpt>
      <trkpt lat="46.27195" lon="6.55446">
        <ele>1056.7</ele>
        <time>2023-01-21T09:56:00.000Z</time>
      </trkpt>
      <trkpt lat="46.27195" lon="6.55447">
        <ele>1056.6</ele>
        <time>2023-01-21T09:56:01.000Z</time>
      </trkpt>
      <trkpt lat="46.27196" lon="6.55447">
        <ele>1056</ele>
        <time>2023-01-21T09:56:02.000Z</time>
      </trkpt>
      <trkpt lat="46.27196" lon="6.55447">
        <ele>1055.5</ele>
        <time>2023-01-21T09:56:03.000Z</time>
      </trkpt>
      <trkpt lat="46.27196" lon="6.55448">
        <ele>1054.7</ele>
        <time>2023-01-21T09:56:04.000Z</time>
      </trkpt>
      <trkpt lat="46.27197" lon="6.55447">
        <ele>1054.2</ele>
        <time>2023-01-21T09:56:05.000Z</time>
      </trkpt>
      <trkpt lat="46.27198" lon="6.55446">
        <ele>1053.8</ele>
        <time>2023-01-21T09:56:06.000Z</time>
      </trkpt>
      <trkpt lat="46.27198" lon="6.55445">
        <ele>1053.7</ele>
        <time>2023-01-21T09:56:07.000Z</time>
      </trkpt>
      <trkpt lat="46.27198" lon="6.55446">
        <ele>1053.9</ele>
        <time>2023-01-21T09:56:08.000Z</time>
      </trkpt>
      <trkpt lat="46.27199" lon="6.55447">
        <ele>1053.3</ele>
        <time>2023-01-21T09:56:09.000Z</time>
      </trkpt>
      <trkpt lat="46.272" lon="6.55448">
        <ele>1053.5</ele>
        <time>2023-01-21T09:56:10.000Z</time>
      </trkpt>
      <trkpt lat="46.27201" lon="6.55449">
        <ele>1054.1</ele>
        <time>2023-01-21T09:56:11.000Z</time>
      </trkpt>
      <trkpt lat="46.27201" lon="6.55451">
        <ele>1054.5</ele>
        <time>2023-01-21T09:56:12.000Z</time>
      </trkpt>
      <trkpt lat="46.27202" lon="6.55451">
        <ele>1054.8</ele>
        <time>2023-01-21T09:56:13.000Z</time>
      </trkpt>
      <trkpt lat="46.27202" lon="6.55452">
        <ele>1056.2</ele>
        <time>2023-01-21T09:56:14.000Z</time>
      </trkpt>
      <trkpt lat="46.27204" lon="6.5545">
        <ele>1056.9</ele>
        <time>2023-01-21T09:56:15.000Z</time>
      </trkpt>
      <trkpt lat="46.27205" lon="6.5545">
        <ele>1056.8</ele>
        <time>2023-01-21T09:56:16.000Z</time>
      </trkpt>
      <trkpt lat="46.27205" lon="6.5545">
        <ele>1056.9</ele>
        <time>2023-01-21T09:56:17.000Z</time>
      </trkpt>
      <trkpt lat="46.27206" lon="6.55449">
        <ele>1056.6</ele>
        <time>2023-01-21T09:56:18.000Z</time>
      </trkpt>
      <trkpt lat="46.27206" lon="6.55449">
        <ele>1057.5</ele>
        <time>2023-01-21T09:56:19.000Z</time>
      </trkpt>
      <trkpt lat="46.27208" lon="6.55449">
        <ele>1058.5</ele>
        <time>2023-01-21T09:56:20.000Z</time>
      </trkpt>
      <trkpt lat="46.27209" lon="6.55449">
        <ele>1059.4</ele>
        <time>2023-01-21T09:56:21.000Z</time>
      </trkpt>
      <trkpt lat="46.2721" lon="6.55449">
        <ele>1059.9</ele>
        <time>2023-01-21T09:56:22.000Z</time>
      </trkpt>
      <trkpt lat="46.27211" lon="6.55449">
        <ele>1060.7</ele>
        <time>2023-01-21T09:56:23.000Z</time>
      </trkpt>
      <trkpt lat="46.27212" lon="6.5545">
        <ele>1060.1</ele>
        <time>2023-01-21T09:56:24.000Z</time>
      </trkpt>
      <trkpt lat="46.27212" lon="6.55451">
        <ele>1060.6</ele>
        <time>2023-01-21T09:56:25.000Z</time>
      </trkpt>
      <trkpt lat="46.27214" lon="6.55451">
        <ele>1060.6</ele>
        <time>2023-01-21T09:56:26.000Z</time>
      </trkpt>
      <trkpt lat="46.27214" lon="6.55451">
        <ele>1060.8</ele>
        <time>2023-01-21T09:56:27.000Z</time>
      </trkpt>
      <trkpt lat="46.27215" lon="6.55451">
        <ele>1061.1</ele>
        <time>2023-01-21T09:56:28.000Z</time>
      </trkpt>
      <trkpt lat="46.27216" lon="6.55451">
        <ele>1061.6</ele>
        <time>2023-01-21T09:56:29.000Z</time>
      </trkpt>
      <trkpt lat="46.27217" lon="6.55451">
        <ele>1062</ele>
        <time>2023-01-21T09:56:30.000Z</time>
      </trkpt>
      <trkpt lat="46.27219" lon="6.55451">
        <ele>1063.3</ele>
        <time>2023-01-21T09:56:31.000Z</time>
      </trkpt>
      <trkpt lat="46.27219" lon="6.55451">
        <ele>1063.9</ele>
        <time>2023-01-21T09:56:32.000Z</time>
      </trkpt>
      <trkpt lat="46.2722" lon="6.55451">
        <ele>1064.5</ele>
        <time>2023-01-21T09:56:33.000Z</time>
      </trkpt>
      <trkpt lat="46.2722" lon="6.55452">
        <ele>1064.5</ele>
        <time>2023-01-21T09:56:34.000Z</time>
      </trkpt>
      <trkpt lat="46.27221" lon="6.55452">
        <ele>1063.6</ele>
        <time>2023-01-21T09:56:35.000Z</time>
      </trkpt>
      <trkpt lat="46.27222" lon="6.55452">
        <ele>1064.1</ele>
        <time>2023-01-21T09:56:36.000Z</time>
      </trkpt>
      <trkpt lat="46.27223" lon="6.55452">
        <ele>1064.4</ele>
        <time>2023-01-21T09:56:37.000Z</time>
      </trkpt>
      <trkpt lat="46.27224" lon="6.55452">
        <ele>1064.7</ele>
        <time>2023-01-21T09:56:38.000Z</time>
      </trkpt>
      <trkpt lat="46.27225" lon="6.55453">
        <ele>1065</ele>
        <time>2023-01-21T09:56:39.000Z</time>
      </trkpt>
      <trkpt lat="46.27226" lon="6.55453">
        <ele>1065.5</ele>
        <time>2023-01-21T09:56:40.000Z</time>
      </trkpt>
      <trkpt lat="46.27227" lon="6.55454">
        <ele>1066.3</ele>
        <time>2023-01-21T09:56:41.000Z</time>
      </trkpt>
      <trkpt lat="46.27228" lon="6.55454">
        <ele>1067.2</ele>
        <time>2023-01-21T09:56:42.000Z</time>
      </trkpt>
      <trkpt lat="46.27228" lon="6.55454">
        <ele>1067.8</ele>
        <time>2023-01-21T09:56:43.000Z</time>
      </trkpt>
      <trkpt lat="46.27229" lon="6.55455">
        <ele>1068.2</ele>
        <time>2023-01-21T09:56:44.000Z</time>
      </trkpt>
      <trkpt lat="46.27229" lon="6.55455">
        <ele>1067.9</ele>
        <time>2023-01-21T09:56:45.000Z</time>
      </trkpt>
      <trkpt lat="46.2723" lon="6.55455">
        <ele>1067.7</ele>
        <time>2023-01-21T09:56:46.000Z</time>
      </trkpt>
      <trkpt lat="46.27231" lon="6.55456">
        <ele>1067.8</ele>
        <time>2023-01-21T09:56:47.000Z</time>
      </trkpt>
      <trkpt lat="46.27231" lon="6.55457">
        <ele>1067.9</ele>
        <time>2023-01-21T09:56:48.000Z</time>
      </trkpt>
      <trkpt lat="46.27232" lon="6.55457">
        <ele>1067.9</ele>
        <time>2023-01-21T09:56:49.000Z</time>
      </trkpt>
      <trkpt lat="46.27232" lon="6.55457">
        <ele>1067.9</ele>
        <time>2023-01-21T09:56:50.000Z</time>
      </trkpt>
      <trkpt lat="46.27233" lon="6.55458">
        <ele>1067.9</ele>
        <time>2023-01-21T09:56:51.000Z</time>
      </trkpt>
      <trkpt lat="46.27234" lon="6.55458">
        <ele>1067.8</ele>
        <time>2023-01-21T09:56:52.000Z</time>
      </trkpt>
      <trkpt lat="46.27235" lon="6.55458">
        <ele>1068.4</ele>
        <time>2023-01-21T09:56:53.000Z</time>
      </trkpt>
      <trkpt lat="46.27235" lon="6.55459">
        <ele>1068.8</ele>
        <time>2023-01-21T09:56:54.000Z</time>
      </trkpt>
      <trkpt lat="46.27236" lon="6.5546">
        <ele>1068.9</ele>
        <time>2023-01-21T09:56:55.000Z</time>
      </trkpt>
      <trkpt lat="46.27237" lon="6.5546">
        <ele>1068.7</ele>
        <time>2023-01-21T09:56:56.000Z</time>
      </trkpt>
      <trkpt lat="46.27238" lon="6.55461">
        <ele>1068.4</ele>
        <time>2023-01-21T09:56:57.000Z</time>
      </trkpt>
      <trkpt lat="46.27238" lon="6.55461">
        <ele>1068.4</ele>
        <time>2023-01-21T09:56:58.000Z</time>
      </trkpt>
      <trkpt lat="46.27239" lon="6.55461">
        <ele>1068.1</ele>
        <time>2023-01-21T09:56:59.000Z</time>
      </trkpt>
      <trkpt lat="46.2724" lon="6.55461">
        <ele>1068.1</ele>
        <time>2023-01-21T09:57:00.000Z</time>
      </trkpt>
      <trkpt lat="46.27241" lon="6.55461">
        <ele>1068.2</ele>
        <time>2023-01-21T09:57:01.000Z</time>
      </trkpt>
      <trkpt lat="46.27241" lon="6.55461">
        <ele>1068.7</ele>
        <time>2023-01-21T09:57:02.000Z</time>
      </trkpt>
      <trkpt lat="46.27242" lon="6.55462">
        <ele>1068.7</ele>
        <time>2023-01-21T09:57:03.000Z</time>
      </trkpt>
      <trkpt lat="46.27243" lon="6.55463">
        <ele>1069</ele>
        <time>2023-01-21T09:57:04.000Z</time>
      </trkpt>
      <trkpt lat="46.27244" lon="6.55463">
        <ele>1069.3</ele>
        <time>2023-01-21T09:57:05.000Z</time>
      </trkpt>
      <trkpt lat="46.27245" lon="6.55463">
        <ele>1069.4</ele>
        <time>2023-01-21T09:57:06.000Z</time>
      </trkpt>
      <trkpt lat="46.27245" lon="6.55463">
        <ele>1069.4</ele>
        <time>2023-01-21T09:57:07.000Z</time>
      </trkpt>
      <trkpt lat="46.27246" lon="6.55464">
        <ele>1069.5</ele>
        <time>2023-01-21T09:57:08.000Z</time>
      </trkpt>
      <trkpt lat="46.27247" lon="6.55464">
        <ele>1069.7</ele>
        <time>2023-01-21T09:57:09.000Z</time>
      </trkpt>
      <trkpt lat="46.27247" lon="6.55464">
        <ele>1069.8</ele>
        <time>2023-01-21T09:57:10.000Z</time>
      </trkpt>
      <trkpt lat="46.27248" lon="6.55465">
        <ele>1069.9</ele>
        <time>2023-01-21T09:57:11.000Z</time>
      </trkpt>
      <trkpt lat="46.27249" lon="6.55465">
        <ele>1070.2</ele>
        <time>2023-01-21T09:57:12.000Z</time>
      </trkpt>
      <trkpt lat="46.27249" lon="6.55466">
        <ele>1070.3</ele>
        <time>2023-01-21T09:57:13.000Z</time>
      </trkpt>
      <trkpt lat="46.2725" lon="6.55467">
        <ele>1070.5</ele>
        <time>2023-01-21T09:57:14.000Z</time>
      </trkpt>
      <trkpt lat="46.27251" lon="6.55467">
        <ele>1070.6</ele>
        <time>2023-01-21T09:57:15.000Z</time>
      </trkpt>
      <trkpt lat="46.27251" lon="6.55468">
        <ele>1070.5</ele>
        <time>2023-01-21T09:57:16.000Z</time>
      </trkpt>
      <trkpt lat="46.27252" lon="6.55468">
        <ele>1070.6</ele>
        <time>2023-01-21T09:57:17.000Z</time>
      </trkpt>
      <trkpt lat="46.27252" lon="6.55468">
        <ele>1070.9</ele>
        <time>2023-01-21T09:57:18.000Z</time>
      </trkpt>
      <trkpt lat="46.27252" lon="6.55469">
        <ele>1071</ele>
        <time>2023-01-21T09:57:19.000Z</time>
      </trkpt>
      <trkpt lat="46.27253" lon="6.5547">
        <ele>1071.4</ele>
        <time>2023-01-21T09:57:20.000Z</time>
      </trkpt>
      <trkpt lat="46.27254" lon="6.5547">
        <ele>1071.5</ele>
        <time>2023-01-21T09:57:21.000Z</time>
      </trkpt>
      <trkpt lat="46.27255" lon="6.5547">
        <ele>1071.5</ele>
        <time>2023-01-21T09:57:22.000Z</time>
      </trkpt>
      <trkpt lat="46.27255" lon="6.55471">
        <ele>1071.7</ele>
        <time>2023-01-21T09:57:23.000Z</time>
      </trkpt>
      <trkpt lat="46.27255" lon="6.55472">
        <ele>1071.6</ele>
        <time>2023-01-21T09:57:24.000Z</time>
      </trkpt>
      <trkpt lat="46.27255" lon="6.55473">
        <ele>1071.3</ele>
        <time>2023-01-21T09:57:25.000Z</time>
      </trkpt>
      <trkpt lat="46.27255" lon="6.55474">
        <ele>1070.8</ele>
        <time>2023-01-21T09:57:26.000Z</time>
      </trkpt>
      <trkpt lat="46.27255" lon="6.55475">
        <ele>1070.8</ele>
        <time>2023-01-21T09:57:27.000Z</time>
      </trkpt>
      <trkpt lat="46.27255" lon="6.55476">
        <ele>1070.8</ele>
        <time>2023-01-21T09:57:28.000Z</time>
      </trkpt>
      <trkpt lat="46.27256" lon="6.55478">
        <ele>1071.1</ele>
        <time>2023-01-21T09:57:29.000Z</time>
      </trkpt>
      <trkpt lat="46.27256" lon="6.55479">
        <ele>1071.6</ele>
        <time>2023-01-21T09:57:30.000Z</time>
      </trkpt>
      <trkpt lat="46.27257" lon="6.5548">
        <ele>1072</ele>
        <time>2023-01-21T09:57:31.000Z</time>
      </trkpt>
      <trkpt lat="46.27256" lon="6.55481">
        <ele>1072</ele>
        <time>2023-01-21T09:57:32.000Z</time>
      </trkpt>
      <trkpt lat="46.27256" lon="6.55483">
        <ele>1071.8</ele>
        <time>2023-01-21T09:57:33.000Z</time>
      </trkpt>
      <trkpt lat="46.27255" lon="6.55484">
        <ele>1072.2</ele>
        <time>2023-01-21T09:57:34.000Z</time>
      </trkpt>
      <trkpt lat="46.27254" lon="6.55484">
        <ele>1072.2</ele>
        <time>2023-01-21T09:57:35.000Z</time>
      </trkpt>
      <trkpt lat="46.27254" lon="6.55484">
        <ele>1072</ele>
        <time>2023-01-21T09:57:36.000Z</time>
      </trkpt>
      <trkpt lat="46.27252" lon="6.55485">
        <ele>1070.7</ele>
        <time>2023-01-21T09:57:37.000Z</time>
      </trkpt>
      <trkpt lat="46.27252" lon="6.55485">
        <ele>1069.8</ele>
        <time>2023-01-21T09:57:38.000Z</time>
      </trkpt>
      <trkpt lat="46.27251" lon="6.55485">
        <ele>1068.7</ele>
        <time>2023-01-21T09:57:39.000Z</time>
      </trkpt>
      <trkpt lat="46.2725" lon="6.55486">
        <ele>1068</ele>
        <time>2023-01-21T09:57:40.000Z</time>
      </trkpt>
      <trkpt lat="46.27249" lon="6.55486">
        <ele>1067.8</ele>
        <time>2023-01-21T09:57:41.000Z</time>
      </trkpt>
      <trkpt lat="46.27249" lon="6.55487">
        <ele>1067.4</ele>
        <time>2023-01-21T09:57:42.000Z</time>
      </trkpt>
      <trkpt lat="46.27248" lon="6.55487">
        <ele>1067.1</ele>
        <time>2023-01-21T09:57:43.000Z</time>
      </trkpt>
      <trkpt lat="46.27247" lon="6.55487">
        <ele>1066.8</ele>
        <time>2023-01-21T09:57:44.000Z</time>
      </trkpt>
      <trkpt lat="46.27246" lon="6.55487">
        <ele>1066.7</ele>
        <time>2023-01-21T09:57:45.000Z</time>
      </trkpt>
      <trkpt lat="46.27246" lon="6.55488">
        <ele>1066.5</ele>
        <time>2023-01-21T09:57:46.000Z</time>
      </trkpt>
      <trkpt lat="46.27245" lon="6.55488">
        <ele>1066.7</ele>
        <time>2023-01-21T09:57:47.000Z</time>
      </trkpt>
      <trkpt lat="46.27243" lon="6.55488">
        <ele>1066.8</ele>
        <time>2023-01-21T09:57:48.000Z</time>
      </trkpt>
      <trkpt lat="46.27243" lon="6.55488">
        <ele>1067</ele>
        <time>2023-01-21T09:57:49.000Z</time>
      </trkpt>
      <trkpt lat="46.27242" lon="6.55488">
        <ele>1067.4</ele>
        <time>2023-01-21T09:57:50.000Z</time>
      </trkpt>
      <trkpt lat="46.27241" lon="6.55488">
        <ele>1068</ele>
        <time>2023-01-21T09:57:51.000Z</time>
      </trkpt>
      <trkpt lat="46.2724" lon="6.55488">
        <ele>1068.6</ele>
        <time>2023-01-21T09:57:52.000Z</time>
      </trkpt>
      <trkpt lat="46.2724" lon="6.55488">
        <ele>1069</ele>
        <time>2023-01-21T09:57:53.000Z</time>
      </trkpt>
      <trkpt lat="46.27239" lon="6.55488">
        <ele>1069.3</ele>
        <time>2023-01-21T09:57:54.000Z</time>
      </trkpt>
      <trkpt lat="46.27238" lon="6.55489">
        <ele>1069.1</ele>
        <time>2023-01-21T09:57:55.000Z</time>
      </trkpt>
      <trkpt lat="46.27238" lon="6.55489">
        <ele>1069.2</ele>
        <time>2023-01-21T09:57:56.000Z</time>
      </trkpt>
      <trkpt lat="46.27237" lon="6.55489">
        <ele>1068.7</ele>
        <time>2023-01-21T09:57:57.000Z</time>
      </trkpt>
      <trkpt lat="46.27236" lon="6.55489">
        <ele>1069.1</ele>
        <time>2023-01-21T09:57:58.000Z</time>
      </trkpt>
      <trkpt lat="46.27236" lon="6.55489">
        <ele>1069.2</ele>
        <time>2023-01-21T09:57:59.000Z</time>
      </trkpt>
      <trkpt lat="46.27235" lon="6.55489">
        <ele>1069.2</ele>
        <time>2023-01-21T09:58:00.000Z</time>
      </trkpt>
      <trkpt lat="46.27234" lon="6.5549">
        <ele>1069</ele>
        <time>2023-01-21T09:58:01.000Z</time>
      </trkpt>
      <trkpt lat="46.27234" lon="6.5549">
        <ele>1068.9</ele>
        <time>2023-01-21T09:58:02.000Z</time>
      </trkpt>
      <trkpt lat="46.27233" lon="6.5549">
        <ele>1068.9</ele>
        <time>2023-01-21T09:58:03.000Z</time>
      </trkpt>
      <trkpt lat="46.27232" lon="6.55491">
        <ele>1069.1</ele>
        <time>2023-01-21T09:58:04.000Z</time>
      </trkpt>
      <trkpt lat="46.27232" lon="6.55491">
        <ele>1069.2</ele>
        <time>2023-01-21T09:58:05.000Z</time>
      </trkpt>
      <trkpt lat="46.27231" lon="6.55491">
        <ele>1069.4</ele>
        <time>2023-01-21T09:58:06.000Z</time>
      </trkpt>
      <trkpt lat="46.2723" lon="6.55491">
        <ele>1069.3</ele>
        <time>2023-01-21T09:58:07.000Z</time>
      </trkpt>
      <trkpt lat="46.27229" lon="6.55492">
        <ele>1069.5</ele>
        <time>2023-01-21T09:58:08.000Z</time>
      </trkpt>
      <trkpt lat="46.27228" lon="6.55493">
        <ele>1069.7</ele>
        <time>2023-01-21T09:58:09.000Z</time>
      </trkpt>
      <trkpt lat="46.27228" lon="6.55493">
        <ele>1070</ele>
        <time>2023-01-21T09:58:10.000Z</time>
      </trkpt>
      <trkpt lat="46.27227" lon="6.55493">
        <ele>1070.5</ele>
        <time>2023-01-21T09:58:11.000Z</time>
      </trkpt>
      <trkpt lat="46.27226" lon="6.55494">
        <ele>1070.6</ele>
        <time>2023-01-21T09:58:12.000Z</time>
      </trkpt>
      <trkpt lat="46.27226" lon="6.55494">
        <ele>1071.2</ele>
        <time>2023-01-21T09:58:13.000Z</time>
      </trkpt>
      <trkpt lat="46.27225" lon="6.55494">
        <ele>1071.7</ele>
        <time>2023-01-21T09:58:14.000Z</time>
      </trkpt>
      <trkpt lat="46.27225" lon="6.55494">
        <ele>1072.1</ele>
        <time>2023-01-21T09:58:15.000Z</time>
      </trkpt>
      <trkpt lat="46.27224" lon="6.55494">
        <ele>1072.5</ele>
        <time>2023-01-21T09:58:16.000Z</time>
      </trkpt>
      <trkpt lat="46.27223" lon="6.55495">
        <ele>1072.6</ele>
        <time>2023-01-21T09:58:17.000Z</time>
      </trkpt>
      <trkpt lat="46.27223" lon="6.55495">
        <ele>1072.6</ele>
        <time>2023-01-21T09:58:18.000Z</time>
      </trkpt>
      <trkpt lat="46.27222" lon="6.55495">
        <ele>1072.6</ele>
        <time>2023-01-21T09:58:19.000Z</time>
      </trkpt>
      <trkpt lat="46.27221" lon="6.55495">
        <ele>1072.5</ele>
        <time>2023-01-21T09:58:20.000Z</time>
      </trkpt>
      <trkpt lat="46.27221" lon="6.55495">
        <ele>1072.5</ele>
        <time>2023-01-21T09:58:21.000Z</time>
      </trkpt>
      <trkpt lat="46.2722" lon="6.55496">
        <ele>1072.6</ele>
        <time>2023-01-21T09:58:22.000Z</time>
      </trkpt>
      <trkpt lat="46.27219" lon="6.55496">
        <ele>1072.6</ele>
        <time>2023-01-21T09:58:23.000Z</time>
      </trkpt>
      <trkpt lat="46.27218" lon="6.55497">
        <ele>1072.4</ele>
        <time>2023-01-21T09:58:24.000Z</time>
      </trkpt>
      <trkpt lat="46.27217" lon="6.55498">
        <ele>1072.5</ele>
        <time>2023-01-21T09:58:25.000Z</time>
      </trkpt>
      <trkpt lat="46.27217" lon="6.55498">
        <ele>1072.7</ele>
        <time>2023-01-21T09:58:26.000Z</time>
      </trkpt>
      <trkpt lat="46.27216" lon="6.55498">
        <ele>1073</ele>
        <time>2023-01-21T09:58:27.000Z</time>
      </trkpt>
      <trkpt lat="46.27215" lon="6.55499">
        <ele>1073.4</ele>
        <time>2023-01-21T09:58:28.000Z</time>
      </trkpt>
      <trkpt lat="46.27215" lon="6.555">
        <ele>1073.6</ele>
        <time>2023-01-21T09:58:29.000Z</time>
      </trkpt>
      <trkpt lat="46.27214" lon="6.555">
        <ele>1073.5</ele>
        <time>2023-01-21T09:58:30.000Z</time>
      </trkpt>
      <trkpt lat="46.27214" lon="6.55501">
        <ele>1073.6</ele>
        <time>2023-01-21T09:58:31.000Z</time>
      </trkpt>
      <trkpt lat="46.27213" lon="6.55501">
        <ele>1073.9</ele>
        <time>2023-01-21T09:58:32.000Z</time>
      </trkpt>
      <trkpt lat="46.27212" lon="6.55501">
        <ele>1073.9</ele>
        <time>2023-01-21T09:58:33.000Z</time>
      </trkpt>
      <trkpt lat="46.27211" lon="6.55502">
        <ele>1073.9</ele>
        <time>2023-01-21T09:58:34.000Z</time>
      </trkpt>
      <trkpt lat="46.2721" lon="6.55502">
        <ele>1073.9</ele>
        <time>2023-01-21T09:58:35.000Z</time>
      </trkpt>
      <trkpt lat="46.2721" lon="6.55503">
        <ele>1073.9</ele>
        <time>2023-01-21T09:58:36.000Z</time>
      </trkpt>
      <trkpt lat="46.27209" lon="6.55504">
        <ele>1074.1</ele>
        <time>2023-01-21T09:58:37.000Z</time>
      </trkpt>
      <trkpt lat="46.27208" lon="6.55503">
        <ele>1074.6</ele>
        <time>2023-01-21T09:58:38.000Z</time>
      </trkpt>
      <trkpt lat="46.27207" lon="6.55503">
        <ele>1074.9</ele>
        <time>2023-01-21T09:58:39.000Z</time>
      </trkpt>
      <trkpt lat="46.27206" lon="6.55503">
        <ele>1075.3</ele>
        <time>2023-01-21T09:58:40.000Z</time>
      </trkpt>
      <trkpt lat="46.27205" lon="6.55503">
        <ele>1075.6</ele>
        <time>2023-01-21T09:58:41.000Z</time>
      </trkpt>
      <trkpt lat="46.27204" lon="6.55503">
        <ele>1075.7</ele>
        <time>2023-01-21T09:58:42.000Z</time>
      </trkpt>
      <trkpt lat="46.27204" lon="6.55503">
        <ele>1075.9</ele>
        <time>2023-01-21T09:58:43.000Z</time>
      </trkpt>
      <trkpt lat="46.27204" lon="6.55503">
        <ele>1076.1</ele>
        <time>2023-01-21T09:58:44.000Z</time>
      </trkpt>
      <trkpt lat="46.27203" lon="6.55503">
        <ele>1076.2</ele>
        <time>2023-01-21T09:58:45.000Z</time>
      </trkpt>
      <trkpt lat="46.27203" lon="6.55503">
        <ele>1076.3</ele>
        <time>2023-01-21T09:58:46.000Z</time>
      </trkpt>
      <trkpt lat="46.27203" lon="6.55504">
        <ele>1076.5</ele>
        <time>2023-01-21T09:58:47.000Z</time>
      </trkpt>
      <trkpt lat="46.27203" lon="6.55504">
        <ele>1076.7</ele>
        <time>2023-01-21T09:58:48.000Z</time>
      </trkpt>
      <trkpt lat="46.27202" lon="6.55504">
        <ele>1076.6</ele>
        <time>2023-01-21T09:58:49.000Z</time>
      </trkpt>
      <trkpt lat="46.27202" lon="6.55504">
        <ele>1076.9</ele>
        <time>2023-01-21T09:58:50.000Z</time>
      </trkpt>
      <trkpt lat="46.27201" lon="6.55504">
        <ele>1077</ele>
        <time>2023-01-21T09:58:51.000Z</time>
      </trkpt>
      <trkpt lat="46.272" lon="6.55503">
        <ele>1077.2</ele>
        <time>2023-01-21T09:58:52.000Z</time>
      </trkpt>
      <trkpt lat="46.27199" lon="6.55503">
        <ele>1077.5</ele>
        <time>2023-01-21T09:58:53.000Z</time>
      </trkpt>
      <trkpt lat="46.27198" lon="6.55503">
        <ele>1077.8</ele>
        <time>2023-01-21T09:58:54.000Z</time>
      </trkpt>
      <trkpt lat="46.27197" lon="6.55503">
        <ele>1078.1</ele>
        <time>2023-01-21T09:58:55.000Z</time>
      </trkpt>
      <trkpt lat="46.27196" lon="6.55504">
        <ele>1078.5</ele>
        <time>2023-01-21T09:58:56.000Z</time>
      </trkpt>
      <trkpt lat="46.27195" lon="6.55503">
        <ele>1078.8</ele>
        <time>2023-01-21T09:58:57.000Z</time>
      </trkpt>
      <trkpt lat="46.27194" lon="6.55503">
        <ele>1079.4</ele>
        <time>2023-01-21T09:58:58.000Z</time>
      </trkpt>
      <trkpt lat="46.27193" lon="6.55503">
        <ele>1079.7</ele>
        <time>2023-01-21T09:58:59.000Z</time>
      </trkpt>
      <trkpt lat="46.27192" lon="6.55502">
        <ele>1080.2</ele>
        <time>2023-01-21T09:59:00.000Z</time>
      </trkpt>
      <trkpt lat="46.27192" lon="6.55502">
        <ele>1080.6</ele>
        <time>2023-01-21T09:59:01.000Z</time>
      </trkpt>
      <trkpt lat="46.27191" lon="6.55503">
        <ele>1080.7</ele>
        <time>2023-01-21T09:59:02.000Z</time>
      </trkpt>
      <trkpt lat="46.2719" lon="6.55503">
        <ele>1081.1</ele>
        <time>2023-01-21T09:59:03.000Z</time>
      </trkpt>
      <trkpt lat="46.27189" lon="6.55503">
        <ele>1081.4</ele>
        <time>2023-01-21T09:59:04.000Z</time>
      </trkpt>
      <trkpt lat="46.27188" lon="6.55504">
        <ele>1081.7</ele>
        <time>2023-01-21T09:59:05.000Z</time>
      </trkpt>
      <trkpt lat="46.27187" lon="6.55504">
        <ele>1082</ele>
        <time>2023-01-21T09:59:06.000Z</time>
      </trkpt>
      <trkpt lat="46.27187" lon="6.55504">
        <ele>1081.9</ele>
        <time>2023-01-21T09:59:07.000Z</time>
      </trkpt>
      <trkpt lat="46.27186" lon="6.55504">
        <ele>1082.2</ele>
        <time>2023-01-21T09:59:08.000Z</time>
      </trkpt>
      <trkpt lat="46.27185" lon="6.55503">
        <ele>1081.9</ele>
        <time>2023-01-21T09:59:09.000Z</time>
      </trkpt>
      <trkpt lat="46.27184" lon="6.55503">
        <ele>1082.1</ele>
        <time>2023-01-21T09:59:10.000Z</time>
      </trkpt>
      <trkpt lat="46.27184" lon="6.55502">
        <ele>1082.5</ele>
        <time>2023-01-21T09:59:11.000Z</time>
      </trkpt>
      <trkpt lat="46.27183" lon="6.55502">
        <ele>1082.9</ele>
        <time>2023-01-21T09:59:12.000Z</time>
      </trkpt>
      <trkpt lat="46.27183" lon="6.55502">
        <ele>1083</ele>
        <time>2023-01-21T09:59:13.000Z</time>
      </trkpt>
      <trkpt lat="46.27182" lon="6.55503">
        <ele>1083.4</ele>
        <time>2023-01-21T09:59:14.000Z</time>
      </trkpt>
      <trkpt lat="46.27181" lon="6.55503">
        <ele>1083.5</ele>
        <time>2023-01-21T09:59:15.000Z</time>
      </trkpt>
      <trkpt lat="46.2718" lon="6.55502">
        <ele>1083.7</ele>
        <time>2023-01-21T09:59:16.000Z</time>
      </trkpt>
      <trkpt lat="46.27179" lon="6.55503">
        <ele>1083.9</ele>
        <time>2023-01-21T09:59:17.000Z</time>
      </trkpt>
      <trkpt lat="46.27179" lon="6.55503">
        <ele>1083.8</ele>
        <time>2023-01-21T09:59:18.000Z</time>
      </trkpt>
      <trkpt lat="46.27178" lon="6.55504">
        <ele>1083.8</ele>
        <time>2023-01-21T09:59:19.000Z</time>
      </trkpt>
      <trkpt lat="46.27177" lon="6.55504">
        <ele>1083.8</ele>
        <time>2023-01-21T09:59:20.000Z</time>
      </trkpt>
      <trkpt lat="46.27176" lon="6.55505">
        <ele>1083.5</ele>
        <time>2023-01-21T09:59:21.000Z</time>
      </trkpt>
      <trkpt lat="46.27175" lon="6.55505">
        <ele>1083.4</ele>
        <time>2023-01-21T09:59:22.000Z</time>
      </trkpt>
      <trkpt lat="46.27174" lon="6.55505">
        <ele>1082.8</ele>
        <time>2023-01-21T09:59:23.000Z</time>
      </trkpt>
      <trkpt lat="46.27174" lon="6.55505">
        <ele>1083</ele>
        <time>2023-01-21T09:59:24.000Z</time>
      </trkpt>
      <trkpt lat="46.27173" lon="6.55505">
        <ele>1082.8</ele>
        <time>2023-01-21T09:59:25.000Z</time>
      </trkpt>
      <trkpt lat="46.27174" lon="6.55506">
        <ele>1083</ele>
        <time>2023-01-21T09:59:26.000Z</time>
      </trkpt>
      <trkpt lat="46.27174" lon="6.55506">
        <ele>1082.9</ele>
        <time>2023-01-21T09:59:27.000Z</time>
      </trkpt>
      <trkpt lat="46.27174" lon="6.55507">
        <ele>1082.9</ele>
        <time>2023-01-21T09:59:28.000Z</time>
      </trkpt>
      <trkpt lat="46.27174" lon="6.55508">
        <ele>1082.8</ele>
        <time>2023-01-21T09:59:29.000Z</time>
      </trkpt>
      <trkpt lat="46.27174" lon="6.55508">
        <ele>1082.7</ele>
        <time>2023-01-21T09:59:30.000Z</time>
      </trkpt>
      <trkpt lat="46.27174" lon="6.55509">
        <ele>1082.8</ele>
        <time>2023-01-21T09:59:31.000Z</time>
      </trkpt>
      <trkpt lat="46.27174" lon="6.5551">
        <ele>1082.6</ele>
        <time>2023-01-21T09:59:32.000Z</time>
      </trkpt>
      <trkpt lat="46.27174" lon="6.55511">
        <ele>1082.3</ele>
        <time>2023-01-21T09:59:33.000Z</time>
      </trkpt>
      <trkpt lat="46.27174" lon="6.55511">
        <ele>1082.3</ele>
        <time>2023-01-21T09:59:34.000Z</time>
      </trkpt>
      <trkpt lat="46.27174" lon="6.55511">
        <ele>1082.3</ele>
        <time>2023-01-21T09:59:35.000Z</time>
      </trkpt>
      <trkpt lat="46.27174" lon="6.55511">
        <ele>1082.3</ele>
        <time>2023-01-21T09:59:36.000Z</time>
      </trkpt>
      <trkpt lat="46.27174" lon="6.55511">
        <ele>1082.3</ele>
        <time>2023-01-21T09:59:37.000Z</time>
      </trkpt>
      <trkpt lat="46.27174" lon="6.55511">
        <ele>1082.3</ele>
        <time>2023-01-21T09:59:38.000Z</time>
      </trkpt>
      <trkpt lat="46.27174" lon="6.55511">
        <ele>1082.3</ele>
        <time>2023-01-21T09:59:39.000Z</time>
      </trkpt>
      <trkpt lat="46.27174" lon="6.55511">
        <ele>1082.3</ele>
        <time>2023-01-21T09:59:40.000Z</time>
      </trkpt>
      <trkpt lat="46.27174" lon="6.55511">
        <ele>1082.3</ele>
        <time>2023-01-21T09:59:41.000Z</time>
      </trkpt>
      <trkpt lat="46.27174" lon="6.55511">
        <ele>1082.3</ele>
        <time>2023-01-21T09:59:42.000Z</time>
      </trkpt>
      <trkpt lat="46.27174" lon="6.55511">
        <ele>1082.3</ele>
        <time>2023-01-21T09:59:43.000Z</time>
      </trkpt>
      <trkpt lat="46.27174" lon="6.55511">
        <ele>1082.3</ele>
        <time>2023-01-21T09:59:44.000Z</time>
      </trkpt>
      <trkpt lat="46.27174" lon="6.55511">
        <ele>1082.3</ele>
        <time>2023-01-21T09:59:45.000Z</time>
      </trkpt>
      <trkpt lat="46.27174" lon="6.55511">
        <ele>1082.3</ele>
        <time>2023-01-21T09:59:46.000Z</time>
      </trkpt>
      <trkpt lat="46.27174" lon="6.55511">
        <ele>1082.3</ele>
        <time>2023-01-21T09:59:47.000Z</time>
      </trkpt>
      <trkpt lat="46.27174" lon="6.55511">
        <ele>1082.3</ele>
        <time>2023-01-21T09:59:48.000Z</time>
      </trkpt>
      <trkpt lat="46.27174" lon="6.55511">
        <ele>1082.3</ele>
        <time>2023-01-21T09:59:49.000Z</time>
      </trkpt>
      <trkpt lat="46.27174" lon="6.55511">
        <ele>1082.3</ele>
        <time>2023-01-21T09:59:50.000Z</time>
      </trkpt>
      <trkpt lat="46.27177" lon="6.55517">
        <ele>1080.9</ele>
        <time>2023-01-21T09:59:51.000Z</time>
      </trkpt>
      <trkpt lat="46.27177" lon="6.55519">
        <ele>1080.8</ele>
        <time>2023-01-21T09:59:52.000Z</time>
      </trkpt>
      <trkpt lat="46.27178" lon="6.5552">
        <ele>1080.7</ele>
        <time>2023-01-21T09:59:53.000Z</time>
      </trkpt>
      <trkpt lat="46.27179" lon="6.55521">
        <ele>1080.7</ele>
        <time>2023-01-21T09:59:54.000Z</time>
      </trkpt>
      <trkpt lat="46.27179" lon="6.55522">
        <ele>1080.6</ele>
        <time>2023-01-21T09:59:55.000Z</time>
      </trkpt>
      <trkpt lat="46.27179" lon="6.55522">
        <ele>1080.7</ele>
        <time>2023-01-21T09:59:56.000Z</time>
      </trkpt>
      <trkpt lat="46.27179" lon="6.55522">
        <ele>1080.9</ele>
        <time>2023-01-21T09:59:57.000Z</time>
      </trkpt>
      <trkpt lat="46.27179" lon="6.55523">
        <ele>1080.8</ele>
        <time>2023-01-21T09:59:58.000Z</time>
      </trkpt>
      <trkpt lat="46.27179" lon="6.55523">
        <ele>1080.8</ele>
        <time>2023-01-21T09:59:59.000Z</time>
      </trkpt>
      <trkpt lat="46.27179" lon="6.55523">
        <ele>1080.8</ele>
        <time>2023-01-21T10:00:00.000Z</time>
      </trkpt>
      <trkpt lat="46.27179" lon="6.55523">
        <ele>1080.8</ele>
        <time>2023-01-21T10:00:01.000Z</time>
      </trkpt>
      <trkpt lat="46.27179" lon="6.55523">
        <ele>1080.8</ele>
        <time>2023-01-21T10:00:02.000Z</time>
      </trkpt>
      <trkpt lat="46.27179" lon="6.55523">
        <ele>1080.8</ele>
        <time>2023-01-21T10:00:03.000Z</time>
      </trkpt>
      <trkpt lat="46.27179" lon="6.55523">
        <ele>1080.8</ele>
        <time>2023-01-21T10:00:04.000Z</time>
      </trkpt>
      <trkpt lat="46.27178" lon="6.55527">
        <ele>1080</ele>
        <time>2023-01-21T10:00:05.000Z</time>
      </trkpt>
      <trkpt lat="46.27178" lon="6.55527">
        <ele>1079.9</ele>
        <time>2023-01-21T10:00:06.000Z</time>
      </trkpt>
      <trkpt lat="46.27178" lon="6.55527">
        <ele>1080</ele>
        <time>2023-01-21T10:00:07.000Z</time>
      </trkpt>
      <trkpt lat="46.27179" lon="6.55526">
        <ele>1080</ele>
        <time>2023-01-21T10:00:08.000Z</time>
      </trkpt>
      <trkpt lat="46.27178" lon="6.55528">
        <ele>1080.2</ele>
        <time>2023-01-21T10:00:09.000Z</time>
      </trkpt>
      <trkpt lat="46.27178" lon="6.55529">
        <ele>1079.9</ele>
        <time>2023-01-21T10:00:10.000Z</time>
      </trkpt>
      <trkpt lat="46.27178" lon="6.5553">
        <ele>1079.8</ele>
        <time>2023-01-21T10:00:11.000Z</time>
      </trkpt>
      <trkpt lat="46.27178" lon="6.5553">
        <ele>1079.6</ele>
        <time>2023-01-21T10:00:12.000Z</time>
      </trkpt>
      <trkpt lat="46.27178" lon="6.5553">
        <ele>1079.6</ele>
        <time>2023-01-21T10:00:13.000Z</time>
      </trkpt>
      <trkpt lat="46.27179" lon="6.5553">
        <ele>1079.6</ele>
        <time>2023-01-21T10:00:14.000Z</time>
      </trkpt>
      <trkpt lat="46.27179" lon="6.55531">
        <ele>1079.6</ele>
        <time>2023-01-21T10:00:15.000Z</time>
      </trkpt>
      <trkpt lat="46.2718" lon="6.55531">
        <ele>1079.5</ele>
        <time>2023-01-21T10:00:16.000Z</time>
      </trkpt>
      <trkpt lat="46.2718" lon="6.55531">
        <ele>1079.4</ele>
        <time>2023-01-21T10:00:17.000Z</time>
      </trkpt>
      <trkpt lat="46.27181" lon="6.55531">
        <ele>1079.5</ele>
        <time>2023-01-21T10:00:18.000Z</time>
      </trkpt>
      <trkpt lat="46.27182" lon="6.5553">
        <ele>1079.6</ele>
        <time>2023-01-21T10:00:19.000Z</time>
      </trkpt>
      <trkpt lat="46.27183" lon="6.55529">
        <ele>1079.8</ele>
        <time>2023-01-21T10:00:20.000Z</time>
      </trkpt>
      <trkpt lat="46.27183" lon="6.55529">
        <ele>1080</ele>
        <time>2023-01-21T10:00:21.000Z</time>
      </trkpt>
      <trkpt lat="46.27184" lon="6.55529">
        <ele>1080</ele>
        <time>2023-01-21T10:00:22.000Z</time>
      </trkpt>
      <trkpt lat="46.27184" lon="6.55529">
        <ele>1080</ele>
        <time>2023-01-21T10:00:23.000Z</time>
      </trkpt>
      <trkpt lat="46.27185" lon="6.55529">
        <ele>1080.3</ele>
        <time>2023-01-21T10:00:24.000Z</time>
      </trkpt>
      <trkpt lat="46.27185" lon="6.5553">
        <ele>1080.5</ele>
        <time>2023-01-21T10:00:25.000Z</time>
      </trkpt>
      <trkpt lat="46.27185" lon="6.5553">
        <ele>1080.5</ele>
        <time>2023-01-21T10:00:26.000Z</time>
      </trkpt>
      <trkpt lat="46.27186" lon="6.55531">
        <ele>1080.7</ele>
        <time>2023-01-21T10:00:27.000Z</time>
      </trkpt>
      <trkpt lat="46.27186" lon="6.55531">
        <ele>1080.8</ele>
        <time>2023-01-21T10:00:28.000Z</time>
      </trkpt>
      <trkpt lat="46.27188" lon="6.55532">
        <ele>1080.8</ele>
        <time>2023-01-21T10:00:29.000Z</time>
      </trkpt>
      <trkpt lat="46.27189" lon="6.55532">
        <ele>1080.9</ele>
        <time>2023-01-21T10:00:30.000Z</time>
      </trkpt>
      <trkpt lat="46.2719" lon="6.55532">
        <ele>1081.3</ele>
        <time>2023-01-21T10:00:31.000Z</time>
      </trkpt>
      <trkpt lat="46.27191" lon="6.55532">
        <ele>1081.6</ele>
        <time>2023-01-21T10:00:32.000Z</time>
      </trkpt>
      <trkpt lat="46.27191" lon="6.55533">
        <ele>1081.7</ele>
        <time>2023-01-21T10:00:33.000Z</time>
      </trkpt>
      <trkpt lat="46.27192" lon="6.55532">
        <ele>1081.9</ele>
        <time>2023-01-21T10:00:34.000Z</time>
      </trkpt>
      <trkpt lat="46.27192" lon="6.55532">
        <ele>1082.2</ele>
        <time>2023-01-21T10:00:35.000Z</time>
      </trkpt>
      <trkpt lat="46.27193" lon="6.55532">
        <ele>1082.3</ele>
        <time>2023-01-21T10:00:36.000Z</time>
      </trkpt>
      <trkpt lat="46.27193" lon="6.55532">
        <ele>1082.5</ele>
        <time>2023-01-21T10:00:37.000Z</time>
      </trkpt>
      <trkpt lat="46.27194" lon="6.55532">
        <ele>1082.3</ele>
        <time>2023-01-21T10:00:38.000Z</time>
      </trkpt>
      <trkpt lat="46.27194" lon="6.55532">
        <ele>1082.1</ele>
        <time>2023-01-21T10:00:39.000Z</time>
      </trkpt>
      <trkpt lat="46.27194" lon="6.55532">
        <ele>1081.9</ele>
        <time>2023-01-21T10:00:40.000Z</time>
      </trkpt>
      <trkpt lat="46.27194" lon="6.55532">
        <ele>1081.9</ele>
        <time>2023-01-21T10:00:41.000Z</time>
      </trkpt>
      <trkpt lat="46.27194" lon="6.55533">
        <ele>1082.1</ele>
        <time>2023-01-21T10:00:42.000Z</time>
      </trkpt>
      <trkpt lat="46.27193" lon="6.55535">
        <ele>1082.2</ele>
        <time>2023-01-21T10:00:43.000Z</time>
      </trkpt>
      <trkpt lat="46.27191" lon="6.55536">
        <ele>1082.3</ele>
        <time>2023-01-21T10:00:44.000Z</time>
      </trkpt>
      <trkpt lat="46.27191" lon="6.55537">
        <ele>1082.3</ele>
        <time>2023-01-21T10:00:45.000Z</time>
      </trkpt>
      <trkpt lat="46.27191" lon="6.55537">
        <ele>1082.3</ele>
        <time>2023-01-21T10:00:46.000Z</time>
      </trkpt>
      <trkpt lat="46.27191" lon="6.55538">
        <ele>1082.3</ele>
        <time>2023-01-21T10:00:47.000Z</time>
      </trkpt>
      <trkpt lat="46.27191" lon="6.55538">
        <ele>1082.1</ele>
        <time>2023-01-21T10:00:48.000Z</time>
      </trkpt>
      <trkpt lat="46.2719" lon="6.55539">
        <ele>1082</ele>
        <time>2023-01-21T10:00:49.000Z</time>
      </trkpt>
      <trkpt lat="46.2719" lon="6.55538">
        <ele>1081.9</ele>
        <time>2023-01-21T10:00:50.000Z</time>
      </trkpt>
      <trkpt lat="46.2719" lon="6.55539">
        <ele>1081.6</ele>
        <time>2023-01-21T10:00:51.000Z</time>
      </trkpt>
      <trkpt lat="46.2719" lon="6.55539">
        <ele>1081.3</ele>
        <time>2023-01-21T10:00:52.000Z</time>
      </trkpt>
      <trkpt lat="46.2719" lon="6.55539">
        <ele>1081.1</ele>
        <time>2023-01-21T10:00:53.000Z</time>
      </trkpt>
      <trkpt lat="46.2719" lon="6.5554">
        <ele>1081.2</ele>
        <time>2023-01-21T10:00:54.000Z</time>
      </trkpt>
      <trkpt lat="46.2719" lon="6.5554">
        <ele>1081.3</ele>
        <time>2023-01-21T10:00:55.000Z</time>
      </trkpt>
      <trkpt lat="46.2719" lon="6.5554">
        <ele>1081.3</ele>
        <time>2023-01-21T10:00:56.000Z</time>
      </trkpt>
      <trkpt lat="46.2719" lon="6.5554">
        <ele>1081.3</ele>
        <time>2023-01-21T10:00:57.000Z</time>
      </trkpt>
      <trkpt lat="46.2719" lon="6.5554">
        <ele>1081.3</ele>
        <time>2023-01-21T10:00:58.000Z</time>
      </trkpt>
      <trkpt lat="46.2719" lon="6.5554">
        <ele>1081.3</ele>
        <time>2023-01-21T10:00:59.000Z</time>
      </trkpt>
      <trkpt lat="46.2719" lon="6.5554">
        <ele>1081.3</ele>
        <time>2023-01-21T10:01:00.000Z</time>
      </trkpt>
      <trkpt lat="46.2719" lon="6.5554">
        <ele>1081.3</ele>
        <time>2023-01-21T10:01:01.000Z</time>
      </trkpt>
      <trkpt lat="46.2719" lon="6.5554">
        <ele>1081.3</ele>
        <time>2023-01-21T10:01:02.000Z</time>
      </trkpt>
      <trkpt lat="46.2719" lon="6.5554">
        <ele>1081.3</ele>
        <time>2023-01-21T10:01:03.000Z</time>
      </trkpt>
      <trkpt lat="46.2719" lon="6.5554">
        <ele>1081.3</ele>
        <time>2023-01-21T10:01:04.000Z</time>
      </trkpt>
      <trkpt lat="46.2719" lon="6.5554">
        <ele>1081.3</ele>
        <time>2023-01-21T10:01:05.000Z</time>
      </trkpt>
      <trkpt lat="46.2719" lon="6.5554">
        <ele>1081.3</ele>
        <time>2023-01-21T10:01:06.000Z</time>
      </trkpt>
      <trkpt lat="46.2719" lon="6.5554">
        <ele>1081.3</ele>
        <time>2023-01-21T10:01:07.000Z</time>
      </trkpt>
      <trkpt lat="46.2719" lon="6.5554">
        <ele>1081.3</ele>
        <time>2023-01-21T10:01:08.000Z</time>
      </trkpt>
      <trkpt lat="46.2719" lon="6.5554">
        <ele>1081.3</ele>
        <time>2023-01-21T10:01:09.000Z</time>
      </trkpt>
      <trkpt lat="46.2719" lon="6.5554">
        <ele>1081.3</ele>
        <time>2023-01-21T10:01:10.000Z</time>
      </trkpt>
      <trkpt lat="46.2719" lon="6.5554">
        <ele>1081.3</ele>
        <time>2023-01-21T10:01:11.000Z</time>
      </trkpt>
      <trkpt lat="46.2719" lon="6.5554">
        <ele>1081.3</ele>
        <time>2023-01-21T10:01:12.000Z</time>
      </trkpt>
      <trkpt lat="46.2719" lon="6.5554">
        <ele>1081.3</ele>
        <time>2023-01-21T10:01:13.000Z</time>
      </trkpt>
      <trkpt lat="46.2719" lon="6.5554">
        <ele>1081.3</ele>
        <time>2023-01-21T10:01:14.000Z</time>
      </trkpt>
      <trkpt lat="46.2719" lon="6.5554">
        <ele>1081.3</ele>
        <time>2023-01-21T10:01:15.000Z</time>
      </trkpt>
      <trkpt lat="46.2719" lon="6.5554">
        <ele>1081.3</ele>
        <time>2023-01-21T10:01:16.000Z</time>
      </trkpt>
      <trkpt lat="46.2719" lon="6.5554">
        <ele>1081.3</ele>
        <time>2023-01-21T10:01:17.000Z</time>
      </trkpt>
      <trkpt lat="46.2719" lon="6.5554">
        <ele>1081.3</ele>
        <time>2023-01-21T10:01:18.000Z</time>
      </trkpt>
      <trkpt lat="46.2719" lon="6.5554">
        <ele>1081.3</ele>
        <time>2023-01-21T10:01:19.000Z</time>
      </trkpt>
      <trkpt lat="46.2719" lon="6.5554">
        <ele>1081.3</ele>
        <time>2023-01-21T10:01:20.000Z</time>
      </trkpt>
      <trkpt lat="46.2719" lon="6.5554">
        <ele>1081.3</ele>
        <time>2023-01-21T10:01:21.000Z</time>
      </trkpt>
      <trkpt lat="46.2719" lon="6.5554">
        <ele>1081.3</ele>
        <time>2023-01-21T10:01:22.000Z</time>
      </trkpt>
      <trkpt lat="46.2719" lon="6.5554">
        <ele>1081.3</ele>
        <time>2023-01-21T10:01:23.000Z</time>
      </trkpt>
      <trkpt lat="46.2719" lon="6.5554">
        <ele>1081.3</ele>
        <time>2023-01-21T10:01:24.000Z</time>
      </trkpt>
      <trkpt lat="46.2719" lon="6.5554">
        <ele>1081.3</ele>
        <time>2023-01-21T10:01:25.000Z</time>
      </trkpt>
      <trkpt lat="46.2719" lon="6.5554">
        <ele>1081.3</ele>
        <time>2023-01-21T10:01:26.000Z</time>
      </trkpt>
      <trkpt lat="46.2719" lon="6.5554">
        <ele>1081.3</ele>
        <time>2023-01-21T10:01:27.000Z</time>
      </trkpt>
      <trkpt lat="46.2719" lon="6.5554">
        <ele>1081.3</ele>
        <time>2023-01-21T10:01:28.000Z</time>
      </trkpt>
      <trkpt lat="46.2719" lon="6.5554">
        <ele>1081.3</ele>
        <time>2023-01-21T10:01:29.000Z</time>
      </trkpt>
      <trkpt lat="46.2719" lon="6.5554">
        <ele>1081.3</ele>
        <time>2023-01-21T10:01:30.000Z</time>
      </trkpt>
      <trkpt lat="46.2719" lon="6.5554">
        <ele>1081.3</ele>
        <time>2023-01-21T10:01:31.000Z</time>
      </trkpt>
      <trkpt lat="46.2719" lon="6.5554">
        <ele>1081.3</ele>
        <time>2023-01-21T10:01:32.000Z</time>
      </trkpt>
      <trkpt lat="46.2719" lon="6.5554">
        <ele>1081.3</ele>
        <time>2023-01-21T10:01:33.000Z</time>
      </trkpt>
      <trkpt lat="46.2719" lon="6.5554">
        <ele>1081.3</ele>
        <time>2023-01-21T10:01:34.000Z</time>
      </trkpt>
      <trkpt lat="46.2719" lon="6.5554">
        <ele>1081.3</ele>
        <time>2023-01-21T10:01:35.000Z</time>
      </trkpt>
      <trkpt lat="46.2719" lon="6.5554">
        <ele>1081.3</ele>
        <time>2023-01-21T10:01:36.000Z</time>
      </trkpt>
      <trkpt lat="46.2719" lon="6.5554">
        <ele>1081.3</ele>
        <time>2023-01-21T10:01:37.000Z</time>
      </trkpt>
      <trkpt lat="46.2719" lon="6.5554">
        <ele>1081.3</ele>
        <time>2023-01-21T10:01:38.000Z</time>
      </trkpt>
      <trkpt lat="46.2719" lon="6.5554">
        <ele>1081.3</ele>
        <time>2023-01-21T10:01:39.000Z</time>
      </trkpt>
      <trkpt lat="46.2719" lon="6.5554">
        <ele>1081.3</ele>
        <time>2023-01-21T10:01:40.000Z</time>
      </trkpt>
      <trkpt lat="46.2719" lon="6.5554">
        <ele>1081.3</ele>
        <time>2023-01-21T10:01:41.000Z</time>
      </trkpt>
      <trkpt lat="46.2719" lon="6.5554">
        <ele>1081.3</ele>
        <time>2023-01-21T10:01:42.000Z</time>
      </trkpt>
      <trkpt lat="46.2719" lon="6.5554">
        <ele>1081.3</ele>
        <time>2023-01-21T10:01:43.000Z</time>
      </trkpt>
      <trkpt lat="46.27191" lon="6.55536">
        <ele>1083</ele>
        <time>2023-01-21T10:01:44.000Z</time>
      </trkpt>
      <trkpt lat="46.27192" lon="6.55536">
        <ele>1083</ele>
        <time>2023-01-21T10:01:45.000Z</time>
      </trkpt>
      <trkpt lat="46.27192" lon="6.55536">
        <ele>1083.3</ele>
        <time>2023-01-21T10:01:46.000Z</time>
      </trkpt>
      <trkpt lat="46.27191" lon="6.55535">
        <ele>1083.9</ele>
        <time>2023-01-21T10:01:47.000Z</time>
      </trkpt>
      <trkpt lat="46.27191" lon="6.55536">
        <ele>1084.4</ele>
        <time>2023-01-21T10:01:48.000Z</time>
      </trkpt>
      <trkpt lat="46.27191" lon="6.55536">
        <ele>1084.4</ele>
        <time>2023-01-21T10:01:49.000Z</time>
      </trkpt>
      <trkpt lat="46.27191" lon="6.55536">
        <ele>1084.4</ele>
        <time>2023-01-21T10:01:50.000Z</time>
      </trkpt>
      <trkpt lat="46.27191" lon="6.55536">
        <ele>1084.4</ele>
        <time>2023-01-21T10:01:51.000Z</time>
      </trkpt>
      <trkpt lat="46.27192" lon="6.55541">
        <ele>1084.9</ele>
        <time>2023-01-21T10:01:52.000Z</time>
      </trkpt>
      <trkpt lat="46.27192" lon="6.55542">
        <ele>1085.2</ele>
        <time>2023-01-21T10:01:53.000Z</time>
      </trkpt>
      <trkpt lat="46.27193" lon="6.55543">
        <ele>1085.5</ele>
        <time>2023-01-21T10:01:54.000Z</time>
      </trkpt>
      <trkpt lat="46.27193" lon="6.55543">
        <ele>1085.8</ele>
        <time>2023-01-21T10:01:55.000Z</time>
      </trkpt>
      <trkpt lat="46.27194" lon="6.55544">
        <ele>1085.9</ele>
        <time>2023-01-21T10:01:56.000Z</time>
      </trkpt>
      <trkpt lat="46.27194" lon="6.55544">
        <ele>1085.9</ele>
        <time>2023-01-21T10:01:57.000Z</time>
      </trkpt>
      <trkpt lat="46.27194" lon="6.55546">
        <ele>1086.1</ele>
        <time>2023-01-21T10:01:58.000Z</time>
      </trkpt>
      <trkpt lat="46.27194" lon="6.55546">
        <ele>1086</ele>
        <time>2023-01-21T10:01:59.000Z</time>
      </trkpt>
      <trkpt lat="46.27194" lon="6.55546">
        <ele>1086</ele>
        <time>2023-01-21T10:02:00.000Z</time>
      </trkpt>
      <trkpt lat="46.27195" lon="6.55546">
        <ele>1086.5</ele>
        <time>2023-01-21T10:02:01.000Z</time>
      </trkpt>
      <trkpt lat="46.27194" lon="6.55548">
        <ele>1086.6</ele>
        <time>2023-01-21T10:02:02.000Z</time>
      </trkpt>
      <trkpt lat="46.27194" lon="6.55549">
        <ele>1086.8</ele>
        <time>2023-01-21T10:02:03.000Z</time>
      </trkpt>
      <trkpt lat="46.27194" lon="6.55549">
        <ele>1086.9</ele>
        <time>2023-01-21T10:02:04.000Z</time>
      </trkpt>
      <trkpt lat="46.27194" lon="6.55549">
        <ele>1087</ele>
        <time>2023-01-21T10:02:05.000Z</time>
      </trkpt>
      <trkpt lat="46.27194" lon="6.55549">
        <ele>1087</ele>
        <time>2023-01-21T10:02:06.000Z</time>
      </trkpt>
      <trkpt lat="46.27194" lon="6.55549">
        <ele>1087</ele>
        <time>2023-01-21T10:02:07.000Z</time>
      </trkpt>
      <trkpt lat="46.27194" lon="6.55549">
        <ele>1087</ele>
        <time>2023-01-21T10:02:08.000Z</time>
      </trkpt>
      <trkpt lat="46.27194" lon="6.55549">
        <ele>1087</ele>
        <time>2023-01-21T10:02:09.000Z</time>
      </trkpt>
      <trkpt lat="46.27194" lon="6.55549">
        <ele>1087</ele>
        <time>2023-01-21T10:02:10.000Z</time>
      </trkpt>
      <trkpt lat="46.27194" lon="6.55549">
        <ele>1087</ele>
        <time>2023-01-21T10:02:11.000Z</time>
      </trkpt>
      <trkpt lat="46.27194" lon="6.55549">
        <ele>1087</ele>
        <time>2023-01-21T10:02:12.000Z</time>
      </trkpt>
      <trkpt lat="46.27194" lon="6.55549">
        <ele>1087</ele>
        <time>2023-01-21T10:02:13.000Z</time>
      </trkpt>
      <trkpt lat="46.27194" lon="6.55549">
        <ele>1087</ele>
        <time>2023-01-21T10:02:14.000Z</time>
      </trkpt>
      <trkpt lat="46.27194" lon="6.55549">
        <ele>1087</ele>
        <time>2023-01-21T10:02:15.000Z</time>
      </trkpt>
      <trkpt lat="46.27192" lon="6.55545">
        <ele>1085.3</ele>
        <time>2023-01-21T10:02:16.000Z</time>
      </trkpt>
      <trkpt lat="46.27192" lon="6.55544">
        <ele>1085</ele>
        <time>2023-01-21T10:02:17.000Z</time>
      </trkpt>
      <trkpt lat="46.27191" lon="6.55543">
        <ele>1084.9</ele>
        <time>2023-01-21T10:02:18.000Z</time>
      </trkpt>
      <trkpt lat="46.2719" lon="6.55543">
        <ele>1085.2</ele>
        <time>2023-01-21T10:02:19.000Z</time>
      </trkpt>
      <trkpt lat="46.2719" lon="6.55543">
        <ele>1085.4</ele>
        <time>2023-01-21T10:02:20.000Z</time>
      </trkpt>
      <trkpt lat="46.27189" lon="6.55542">
        <ele>1085.6</ele>
        <time>2023-01-21T10:02:21.000Z</time>
      </trkpt>
      <trkpt lat="46.27189" lon="6.55541">
        <ele>1085.8</ele>
        <time>2023-01-21T10:02:22.000Z</time>
      </trkpt>
      <trkpt lat="46.27189" lon="6.55542">
        <ele>1085.8</ele>
        <time>2023-01-21T10:02:23.000Z</time>
      </trkpt>
      <trkpt lat="46.27189" lon="6.55542">
        <ele>1085.9</ele>
        <time>2023-01-21T10:02:24.000Z</time>
      </trkpt>
      <trkpt lat="46.27189" lon="6.55542">
        <ele>1085.8</ele>
        <time>2023-01-21T10:02:25.000Z</time>
      </trkpt>
      <trkpt lat="46.27189" lon="6.55542">
        <ele>1085.8</ele>
        <time>2023-01-21T10:02:26.000Z</time>
      </trkpt>
      <trkpt lat="46.27189" lon="6.55542">
        <ele>1085.7</ele>
        <time>2023-01-21T10:02:27.000Z</time>
      </trkpt>
      <trkpt lat="46.27189" lon="6.55542">
        <ele>1085.7</ele>
        <time>2023-01-21T10:02:28.000Z</time>
      </trkpt>
      <trkpt lat="46.27189" lon="6.55542">
        <ele>1085.7</ele>
        <time>2023-01-21T10:02:29.000Z</time>
      </trkpt>
      <trkpt lat="46.27189" lon="6.55542">
        <ele>1085.7</ele>
        <time>2023-01-21T10:02:30.000Z</time>
      </trkpt>
      <trkpt lat="46.27189" lon="6.55542">
        <ele>1085.7</ele>
        <time>2023-01-21T10:02:31.000Z</time>
      </trkpt>
      <trkpt lat="46.27189" lon="6.55542">
        <ele>1085.7</ele>
        <time>2023-01-21T10:02:32.000Z</time>
      </trkpt>
      <trkpt lat="46.27189" lon="6.55542">
        <ele>1085.7</ele>
        <time>2023-01-21T10:02:33.000Z</time>
      </trkpt>
      <trkpt lat="46.27189" lon="6.55542">
        <ele>1085.7</ele>
        <time>2023-01-21T10:02:34.000Z</time>
      </trkpt>
      <trkpt lat="46.27189" lon="6.55542">
        <ele>1085.7</ele>
        <time>2023-01-21T10:02:35.000Z</time>
      </trkpt>
      <trkpt lat="46.27189" lon="6.55542">
        <ele>1085.7</ele>
        <time>2023-01-21T10:02:36.000Z</time>
      </trkpt>
      <trkpt lat="46.27189" lon="6.55542">
        <ele>1085.7</ele>
        <time>2023-01-21T10:02:37.000Z</time>
      </trkpt>
      <trkpt lat="46.27189" lon="6.55542">
        <ele>1085.7</ele>
        <time>2023-01-21T10:02:38.000Z</time>
      </trkpt>
      <trkpt lat="46.27189" lon="6.55542">
        <ele>1085.7</ele>
        <time>2023-01-21T10:02:39.000Z</time>
      </trkpt>
      <trkpt lat="46.27189" lon="6.55542">
        <ele>1085.7</ele>
        <time>2023-01-21T10:02:40.000Z</time>
      </trkpt>
      <trkpt lat="46.27189" lon="6.55542">
        <ele>1085.7</ele>
        <time>2023-01-21T10:02:41.000Z</time>
      </trkpt>
      <trkpt lat="46.27189" lon="6.55542">
        <ele>1085.7</ele>
        <time>2023-01-21T10:02:42.000Z</time>
      </trkpt>
      <trkpt lat="46.27189" lon="6.55542">
        <ele>1085.7</ele>
        <time>2023-01-21T10:02:43.000Z</time>
      </trkpt>
      <trkpt lat="46.27189" lon="6.55542">
        <ele>1085.7</ele>
        <time>2023-01-21T10:02:44.000Z</time>
      </trkpt>
      <trkpt lat="46.27189" lon="6.55542">
        <ele>1085.7</ele>
        <time>2023-01-21T10:02:45.000Z</time>
      </trkpt>
      <trkpt lat="46.27189" lon="6.55542">
        <ele>1085.7</ele>
        <time>2023-01-21T10:02:46.000Z</time>
      </trkpt>
      <trkpt lat="46.27189" lon="6.55542">
        <ele>1085.7</ele>
        <time>2023-01-21T10:02:47.000Z</time>
      </trkpt>
      <trkpt lat="46.27189" lon="6.55542">
        <ele>1085.7</ele>
        <time>2023-01-21T10:02:48.000Z</time>
      </trkpt>
      <trkpt lat="46.27189" lon="6.55542">
        <ele>1085.7</ele>
        <time>2023-01-21T10:02:49.000Z</time>
      </trkpt>
      <trkpt lat="46.27189" lon="6.55542">
        <ele>1085.7</ele>
        <time>2023-01-21T10:02:50.000Z</time>
      </trkpt>
      <trkpt lat="46.27189" lon="6.55542">
        <ele>1085.7</ele>
        <time>2023-01-21T10:02:51.000Z</time>
      </trkpt>
      <trkpt lat="46.27189" lon="6.55542">
        <ele>1085.7</ele>
        <time>2023-01-21T10:02:52.000Z</time>
      </trkpt>
      <trkpt lat="46.27189" lon="6.55542">
        <ele>1085.7</ele>
        <time>2023-01-21T10:02:53.000Z</time>
      </trkpt>
      <trkpt lat="46.27189" lon="6.55542">
        <ele>1085.7</ele>
        <time>2023-01-21T10:02:54.000Z</time>
      </trkpt>
      <trkpt lat="46.27189" lon="6.55542">
        <ele>1085.7</ele>
        <time>2023-01-21T10:02:55.000Z</time>
      </trkpt>
      <trkpt lat="46.27189" lon="6.55542">
        <ele>1085.7</ele>
        <time>2023-01-21T10:02:56.000Z</time>
      </trkpt>
      <trkpt lat="46.27189" lon="6.55542">
        <ele>1085.7</ele>
        <time>2023-01-21T10:02:57.000Z</time>
      </trkpt>
      <trkpt lat="46.27189" lon="6.55542">
        <ele>1085.7</ele>
        <time>2023-01-21T10:02:58.000Z</time>
      </trkpt>
      <trkpt lat="46.27189" lon="6.55542">
        <ele>1085.7</ele>
        <time>2023-01-21T10:02:59.000Z</time>
      </trkpt>
      <trkpt lat="46.27189" lon="6.55542">
        <ele>1085.7</ele>
        <time>2023-01-21T10:03:00.000Z</time>
      </trkpt>
      <trkpt lat="46.27189" lon="6.55542">
        <ele>1085.7</ele>
        <time>2023-01-21T10:03:01.000Z</time>
      </trkpt>
      <trkpt lat="46.27189" lon="6.55542">
        <ele>1085.7</ele>
        <time>2023-01-21T10:03:02.000Z</time>
      </trkpt>
      <trkpt lat="46.27189" lon="6.55542">
        <ele>1085.7</ele>
        <time>2023-01-21T10:03:03.000Z</time>
      </trkpt>
      <trkpt lat="46.27189" lon="6.55542">
        <ele>1085.7</ele>
        <time>2023-01-21T10:03:04.000Z</time>
      </trkpt>
      <trkpt lat="46.27189" lon="6.55542">
        <ele>1085.7</ele>
        <time>2023-01-21T10:03:05.000Z</time>
      </trkpt>
      <trkpt lat="46.27189" lon="6.55542">
        <ele>1085.7</ele>
        <time>2023-01-21T10:03:06.000Z</time>
      </trkpt>
      <trkpt lat="46.27189" lon="6.55542">
        <ele>1085.7</ele>
        <time>2023-01-21T10:03:07.000Z</time>
      </trkpt>
      <trkpt lat="46.27189" lon="6.55542">
        <ele>1085.7</ele>
        <time>2023-01-21T10:03:08.000Z</time>
      </trkpt>
      <trkpt lat="46.27189" lon="6.55542">
        <ele>1085.7</ele>
        <time>2023-01-21T10:03:09.000Z</time>
      </trkpt>
      <trkpt lat="46.27189" lon="6.55542">
        <ele>1085.7</ele>
        <time>2023-01-21T10:03:10.000Z</time>
      </trkpt>
      <trkpt lat="46.27189" lon="6.55542">
        <ele>1085.7</ele>
        <time>2023-01-21T10:03:11.000Z</time>
      </trkpt>
      <trkpt lat="46.27189" lon="6.55542">
        <ele>1085.7</ele>
        <time>2023-01-21T10:03:12.000Z</time>
      </trkpt>
      <trkpt lat="46.27189" lon="6.55542">
        <ele>1085.7</ele>
        <time>2023-01-21T10:03:13.000Z</time>
      </trkpt>
      <trkpt lat="46.27189" lon="6.55542">
        <ele>1085.7</ele>
        <time>2023-01-21T10:03:14.000Z</time>
      </trkpt>
      <trkpt lat="46.27189" lon="6.55542">
        <ele>1085.7</ele>
        <time>2023-01-21T10:03:15.000Z</time>
      </trkpt>
      <trkpt lat="46.27189" lon="6.55542">
        <ele>1085.7</ele>
        <time>2023-01-21T10:03:16.000Z</time>
      </trkpt>
      <trkpt lat="46.27189" lon="6.55542">
        <ele>1085.7</ele>
        <time>2023-01-21T10:03:17.000Z</time>
      </trkpt>
      <trkpt lat="46.27189" lon="6.55542">
        <ele>1085.7</ele>
        <time>2023-01-21T10:03:18.000Z</time>
      </trkpt>
      <trkpt lat="46.27189" lon="6.55542">
        <ele>1085.7</ele>
        <time>2023-01-21T10:03:19.000Z</time>
      </trkpt>
      <trkpt lat="46.27189" lon="6.55542">
        <ele>1085.7</ele>
        <time>2023-01-21T10:03:20.000Z</time>
      </trkpt>
      <trkpt lat="46.27189" lon="6.55542">
        <ele>1085.7</ele>
        <time>2023-01-21T10:03:21.000Z</time>
      </trkpt>
      <trkpt lat="46.27189" lon="6.55542">
        <ele>1085.7</ele>
        <time>2023-01-21T10:03:22.000Z</time>
      </trkpt>
      <trkpt lat="46.27189" lon="6.55542">
        <ele>1085.7</ele>
        <time>2023-01-21T10:03:23.000Z</time>
      </trkpt>
      <trkpt lat="46.27189" lon="6.55542">
        <ele>1085.7</ele>
        <time>2023-01-21T10:03:24.000Z</time>
      </trkpt>
      <trkpt lat="46.27189" lon="6.55542">
        <ele>1085.7</ele>
        <time>2023-01-21T10:03:25.000Z</time>
      </trkpt>
      <trkpt lat="46.27189" lon="6.55542">
        <ele>1085.7</ele>
        <time>2023-01-21T10:03:26.000Z</time>
      </trkpt>
      <trkpt lat="46.27191" lon="6.55541">
        <ele>1085.6</ele>
        <time>2023-01-21T10:03:27.000Z</time>
      </trkpt>
      <trkpt lat="46.27191" lon="6.55541">
        <ele>1085.4</ele>
        <time>2023-01-21T10:03:28.000Z</time>
      </trkpt>
      <trkpt lat="46.2719" lon="6.55541">
        <ele>1085.1</ele>
        <time>2023-01-21T10:03:29.000Z</time>
      </trkpt>
      <trkpt lat="46.2719" lon="6.55541">
        <ele>1085</ele>
        <time>2023-01-21T10:03:30.000Z</time>
      </trkpt>
      <trkpt lat="46.2719" lon="6.55539">
        <ele>1085.1</ele>
        <time>2023-01-21T10:03:31.000Z</time>
      </trkpt>
      <trkpt lat="46.2719" lon="6.55539">
        <ele>1085.1</ele>
        <time>2023-01-21T10:03:32.000Z</time>
      </trkpt>
      <trkpt lat="46.2719" lon="6.55539">
        <ele>1085.1</ele>
        <time>2023-01-21T10:03:33.000Z</time>
      </trkpt>
      <trkpt lat="46.2719" lon="6.55539">
        <ele>1085.1</ele>
        <time>2023-01-21T10:03:34.000Z</time>
      </trkpt>
      <trkpt lat="46.2719" lon="6.55539">
        <ele>1085.1</ele>
        <time>2023-01-21T10:03:35.000Z</time>
      </trkpt>
      <trkpt lat="46.2719" lon="6.55539">
        <ele>1085.1</ele>
        <time>2023-01-21T10:03:36.000Z</time>
      </trkpt>
      <trkpt lat="46.2719" lon="6.55539">
        <ele>1085.1</ele>
        <time>2023-01-21T10:03:37.000Z</time>
      </trkpt>
      <trkpt lat="46.27189" lon="6.5554">
        <ele>1085.9</ele>
        <time>2023-01-21T10:03:38.000Z</time>
      </trkpt>
      <trkpt lat="46.27189" lon="6.55541">
        <ele>1086.2</ele>
        <time>2023-01-21T10:03:39.000Z</time>
      </trkpt>
      <trkpt lat="46.27189" lon="6.55543">
        <ele>1086.5</ele>
        <time>2023-01-21T10:03:40.000Z</time>
      </trkpt>
      <trkpt lat="46.27189" lon="6.55544">
        <ele>1086.9</ele>
        <time>2023-01-21T10:03:41.000Z</time>
      </trkpt>
      <trkpt lat="46.2719" lon="6.55545">
        <ele>1087.1</ele>
        <time>2023-01-21T10:03:42.000Z</time>
      </trkpt>
      <trkpt lat="46.2719" lon="6.55546">
        <ele>1087.2</ele>
        <time>2023-01-21T10:03:43.000Z</time>
      </trkpt>
      <trkpt lat="46.2719" lon="6.55546">
        <ele>1087.1</ele>
        <time>2023-01-21T10:03:44.000Z</time>
      </trkpt>
      <trkpt lat="46.2719" lon="6.55546">
        <ele>1086.9</ele>
        <time>2023-01-21T10:03:45.000Z</time>
      </trkpt>
      <trkpt lat="46.2719" lon="6.55546">
        <ele>1086.8</ele>
        <time>2023-01-21T10:03:46.000Z</time>
      </trkpt>
      <trkpt lat="46.2719" lon="6.55545">
        <ele>1086.9</ele>
        <time>2023-01-21T10:03:47.000Z</time>
      </trkpt>
      <trkpt lat="46.2719" lon="6.55544">
        <ele>1087.1</ele>
        <time>2023-01-21T10:03:48.000Z</time>
      </trkpt>
      <trkpt lat="46.2719" lon="6.55544">
        <ele>1087.2</ele>
        <time>2023-01-21T10:03:49.000Z</time>
      </trkpt>
      <trkpt lat="46.2719" lon="6.55544">
        <ele>1087.2</ele>
        <time>2023-01-21T10:03:50.000Z</time>
      </trkpt>
      <trkpt lat="46.2719" lon="6.55544">
        <ele>1087.2</ele>
        <time>2023-01-21T10:03:51.000Z</time>
      </trkpt>
      <trkpt lat="46.27191" lon="6.55543">
        <ele>1087.1</ele>
        <time>2023-01-21T10:03:52.000Z</time>
      </trkpt>
      <trkpt lat="46.2719" lon="6.55543">
        <ele>1086.8</ele>
        <time>2023-01-21T10:03:53.000Z</time>
      </trkpt>
      <trkpt lat="46.27189" lon="6.55541">
        <ele>1086.8</ele>
        <time>2023-01-21T10:03:54.000Z</time>
      </trkpt>
      <trkpt lat="46.27189" lon="6.55542">
        <ele>1086.7</ele>
        <time>2023-01-21T10:03:55.000Z</time>
      </trkpt>
      <trkpt lat="46.27189" lon="6.55542">
        <ele>1086.7</ele>
        <time>2023-01-21T10:03:56.000Z</time>
      </trkpt>
      <trkpt lat="46.27189" lon="6.55542">
        <ele>1086.7</ele>
        <time>2023-01-21T10:03:57.000Z</time>
      </trkpt>
      <trkpt lat="46.27189" lon="6.55542">
        <ele>1086.7</ele>
        <time>2023-01-21T10:03:58.000Z</time>
      </trkpt>
      <trkpt lat="46.27189" lon="6.55542">
        <ele>1086.7</ele>
        <time>2023-01-21T10:03:59.000Z</time>
      </trkpt>
      <trkpt lat="46.27189" lon="6.55542">
        <ele>1086.7</ele>
        <time>2023-01-21T10:04:00.000Z</time>
      </trkpt>
      <trkpt lat="46.27189" lon="6.55542">
        <ele>1086.7</ele>
        <time>2023-01-21T10:04:01.000Z</time>
      </trkpt>
      <trkpt lat="46.27189" lon="6.55542">
        <ele>1086.7</ele>
        <time>2023-01-21T10:04:02.000Z</time>
      </trkpt>
      <trkpt lat="46.27189" lon="6.55542">
        <ele>1086.7</ele>
        <time>2023-01-21T10:04:03.000Z</time>
      </trkpt>
      <trkpt lat="46.27189" lon="6.55542">
        <ele>1086.7</ele>
        <time>2023-01-21T10:04:04.000Z</time>
      </trkpt>
      <trkpt lat="46.27189" lon="6.55542">
        <ele>1086.7</ele>
        <time>2023-01-21T10:04:05.000Z</time>
      </trkpt>
      <trkpt lat="46.27189" lon="6.55542">
        <ele>1086.7</ele>
        <time>2023-01-21T10:04:06.000Z</time>
      </trkpt>
      <trkpt lat="46.27189" lon="6.55542">
        <ele>1086.7</ele>
        <time>2023-01-21T10:04:07.000Z</time>
      </trkpt>
      <trkpt lat="46.27189" lon="6.55542">
        <ele>1086.7</ele>
        <time>2023-01-21T10:04:08.000Z</time>
      </trkpt>
      <trkpt lat="46.27189" lon="6.55542">
        <ele>1086.7</ele>
        <time>2023-01-21T10:04:09.000Z</time>
      </trkpt>
      <trkpt lat="46.27189" lon="6.55542">
        <ele>1086.7</ele>
        <time>2023-01-21T10:04:10.000Z</time>
      </trkpt>
      <trkpt lat="46.27189" lon="6.55542">
        <ele>1086.7</ele>
        <time>2023-01-21T10:04:11.000Z</time>
      </trkpt>
      <trkpt lat="46.27189" lon="6.55542">
        <ele>1086.7</ele>
        <time>2023-01-21T10:04:12.000Z</time>
      </trkpt>
      <trkpt lat="46.27189" lon="6.55542">
        <ele>1086.7</ele>
        <time>2023-01-21T10:04:13.000Z</time>
      </trkpt>
      <trkpt lat="46.27189" lon="6.55542">
        <ele>1086.7</ele>
        <time>2023-01-21T10:04:14.000Z</time>
      </trkpt>
      <trkpt lat="46.27189" lon="6.55542">
        <ele>1086.7</ele>
        <time>2023-01-21T10:04:15.000Z</time>
      </trkpt>
      <trkpt lat="46.27189" lon="6.55542">
        <ele>1086.7</ele>
        <time>2023-01-21T10:04:16.000Z</time>
      </trkpt>
      <trkpt lat="46.27189" lon="6.55542">
        <ele>1086.7</ele>
        <time>2023-01-21T10:04:17.000Z</time>
      </trkpt>
      <trkpt lat="46.27189" lon="6.55542">
        <ele>1086.7</ele>
        <time>2023-01-21T10:04:18.000Z</time>
      </trkpt>
      <trkpt lat="46.27189" lon="6.55542">
        <ele>1086.7</ele>
        <time>2023-01-21T10:04:19.000Z</time>
      </trkpt>
      <trkpt lat="46.27189" lon="6.55542">
        <ele>1086.7</ele>
        <time>2023-01-21T10:04:20.000Z</time>
      </trkpt>
      <trkpt lat="46.27189" lon="6.55542">
        <ele>1086.7</ele>
        <time>2023-01-21T10:04:21.000Z</time>
      </trkpt>
      <trkpt lat="46.27189" lon="6.55542">
        <ele>1086.7</ele>
        <time>2023-01-21T10:04:22.000Z</time>
      </trkpt>
      <trkpt lat="46.27189" lon="6.55542">
        <ele>1086.7</ele>
        <time>2023-01-21T10:04:23.000Z</time>
      </trkpt>
      <trkpt lat="46.27189" lon="6.55542">
        <ele>1086.7</ele>
        <time>2023-01-21T10:04:24.000Z</time>
      </trkpt>
      <trkpt lat="46.27189" lon="6.55542">
        <ele>1086.7</ele>
        <time>2023-01-21T10:04:25.000Z</time>
      </trkpt>
      <trkpt lat="46.27189" lon="6.55542">
        <ele>1086.7</ele>
        <time>2023-01-21T10:04:26.000Z</time>
      </trkpt>
      <trkpt lat="46.27189" lon="6.55542">
        <ele>1086.7</ele>
        <time>2023-01-21T10:04:27.000Z</time>
      </trkpt>
      <trkpt lat="46.27189" lon="6.55542">
        <ele>1086.7</ele>
        <time>2023-01-21T10:04:28.000Z</time>
      </trkpt>
      <trkpt lat="46.27189" lon="6.55542">
        <ele>1086.7</ele>
        <time>2023-01-21T10:04:29.000Z</time>
      </trkpt>
      <trkpt lat="46.27189" lon="6.55542">
        <ele>1086.7</ele>
        <time>2023-01-21T10:04:30.000Z</time>
      </trkpt>
      <trkpt lat="46.27189" lon="6.55542">
        <ele>1086.7</ele>
        <time>2023-01-21T10:04:31.000Z</time>
      </trkpt>
      <trkpt lat="46.27189" lon="6.55542">
        <ele>1086.7</ele>
        <time>2023-01-21T10:04:32.000Z</time>
      </trkpt>
      <trkpt lat="46.27189" lon="6.55542">
        <ele>1086.7</ele>
        <time>2023-01-21T10:04:33.000Z</time>
      </trkpt>
      <trkpt lat="46.27189" lon="6.55542">
        <ele>1086.7</ele>
        <time>2023-01-21T10:04:34.000Z</time>
      </trkpt>
      <trkpt lat="46.27189" lon="6.55542">
        <ele>1086.7</ele>
        <time>2023-01-21T10:04:35.000Z</time>
      </trkpt>
      <trkpt lat="46.27189" lon="6.55542">
        <ele>1086.7</ele>
        <time>2023-01-21T10:04:36.000Z</time>
      </trkpt>
      <trkpt lat="46.27189" lon="6.55542">
        <ele>1086.7</ele>
        <time>2023-01-21T10:04:37.000Z</time>
      </trkpt>
      <trkpt lat="46.27189" lon="6.55542">
        <ele>1086.7</ele>
        <time>2023-01-21T10:04:38.000Z</time>
      </trkpt>
      <trkpt lat="46.27189" lon="6.55542">
        <ele>1086.7</ele>
        <time>2023-01-21T10:04:39.000Z</time>
      </trkpt>
      <trkpt lat="46.27189" lon="6.55542">
        <ele>1086.7</ele>
        <time>2023-01-21T10:04:40.000Z</time>
      </trkpt>
      <trkpt lat="46.27189" lon="6.55542">
        <ele>1086.7</ele>
        <time>2023-01-21T10:04:41.000Z</time>
      </trkpt>
      <trkpt lat="46.27189" lon="6.55542">
        <ele>1086.7</ele>
        <time>2023-01-21T10:04:42.000Z</time>
      </trkpt>
      <trkpt lat="46.27189" lon="6.55542">
        <ele>1086.7</ele>
        <time>2023-01-21T10:04:43.000Z</time>
      </trkpt>
      <trkpt lat="46.27189" lon="6.55542">
        <ele>1086.7</ele>
        <time>2023-01-21T10:04:44.000Z</time>
      </trkpt>
      <trkpt lat="46.27189" lon="6.55542">
        <ele>1086.7</ele>
        <time>2023-01-21T10:04:45.000Z</time>
      </trkpt>
      <trkpt lat="46.27189" lon="6.55542">
        <ele>1086.7</ele>
        <time>2023-01-21T10:04:46.000Z</time>
      </trkpt>
      <trkpt lat="46.27189" lon="6.55542">
        <ele>1086.7</ele>
        <time>2023-01-21T10:04:47.000Z</time>
      </trkpt>
      <trkpt lat="46.27189" lon="6.55542">
        <ele>1086.7</ele>
        <time>2023-01-21T10:04:48.000Z</time>
      </trkpt>
      <trkpt lat="46.27189" lon="6.55542">
        <ele>1086.7</ele>
        <time>2023-01-21T10:04:49.000Z</time>
      </trkpt>
      <trkpt lat="46.27189" lon="6.55542">
        <ele>1086.7</ele>
        <time>2023-01-21T10:04:50.000Z</time>
      </trkpt>
      <trkpt lat="46.27189" lon="6.55542">
        <ele>1086.7</ele>
        <time>2023-01-21T10:04:51.000Z</time>
      </trkpt>
      <trkpt lat="46.27189" lon="6.55542">
        <ele>1086.7</ele>
        <time>2023-01-21T10:04:52.000Z</time>
      </trkpt>
      <trkpt lat="46.27189" lon="6.55542">
        <ele>1086.7</ele>
        <time>2023-01-21T10:04:53.000Z</time>
      </trkpt>
      <trkpt lat="46.27189" lon="6.55542">
        <ele>1086.7</ele>
        <time>2023-01-21T10:04:54.000Z</time>
      </trkpt>
      <trkpt lat="46.27189" lon="6.55542">
        <ele>1086.7</ele>
        <time>2023-01-21T10:04:55.000Z</time>
      </trkpt>
      <trkpt lat="46.27189" lon="6.55542">
        <ele>1086.7</ele>
        <time>2023-01-21T10:04:56.000Z</time>
      </trkpt>
      <trkpt lat="46.27189" lon="6.55542">
        <ele>1086.7</ele>
        <time>2023-01-21T10:04:57.000Z</time>
      </trkpt>
      <trkpt lat="46.27189" lon="6.55542">
        <ele>1086.7</ele>
        <time>2023-01-21T10:04:58.000Z</time>
      </trkpt>
      <trkpt lat="46.27189" lon="6.55542">
        <ele>1086.7</ele>
        <time>2023-01-21T10:04:59.000Z</time>
      </trkpt>
      <trkpt lat="46.27189" lon="6.55542">
        <ele>1086.7</ele>
        <time>2023-01-21T10:05:00.000Z</time>
      </trkpt>
      <trkpt lat="46.27189" lon="6.55542">
        <ele>1086.7</ele>
        <time>2023-01-21T10:05:01.000Z</time>
      </trkpt>
      <trkpt lat="46.27189" lon="6.55542">
        <ele>1086.7</ele>
        <time>2023-01-21T10:05:02.000Z</time>
      </trkpt>
      <trkpt lat="46.27189" lon="6.55542">
        <ele>1086.7</ele>
        <time>2023-01-21T10:05:03.000Z</time>
      </trkpt>
      <trkpt lat="46.27189" lon="6.55542">
        <ele>1086.7</ele>
        <time>2023-01-21T10:05:04.000Z</time>
      </trkpt>
      <trkpt lat="46.27189" lon="6.55542">
        <ele>1086.7</ele>
        <time>2023-01-21T10:05:05.000Z</time>
      </trkpt>
      <trkpt lat="46.27189" lon="6.55542">
        <ele>1086.7</ele>
        <time>2023-01-21T10:05:06.000Z</time>
      </trkpt>
      <trkpt lat="46.27189" lon="6.55542">
        <ele>1086.7</ele>
        <time>2023-01-21T10:05:07.000Z</time>
      </trkpt>
      <trkpt lat="46.27189" lon="6.55542">
        <ele>1086.7</ele>
        <time>2023-01-21T10:05:08.000Z</time>
      </trkpt>
      <trkpt lat="46.27189" lon="6.55542">
        <ele>1086.7</ele>
        <time>2023-01-21T10:05:09.000Z</time>
      </trkpt>
      <trkpt lat="46.27189" lon="6.55542">
        <ele>1086.7</ele>
        <time>2023-01-21T10:05:10.000Z</time>
      </trkpt>
      <trkpt lat="46.27189" lon="6.55542">
        <ele>1086.7</ele>
        <time>2023-01-21T10:05:11.000Z</time>
      </trkpt>
      <trkpt lat="46.27189" lon="6.55542">
        <ele>1086.7</ele>
        <time>2023-01-21T10:05:12.000Z</time>
      </trkpt>
      <trkpt lat="46.27189" lon="6.55542">
        <ele>1086.7</ele>
        <time>2023-01-21T10:05:13.000Z</time>
      </trkpt>
      <trkpt lat="46.27189" lon="6.55542">
        <ele>1086.7</ele>
        <time>2023-01-21T10:05:14.000Z</time>
      </trkpt>
      <trkpt lat="46.27189" lon="6.55542">
        <ele>1086.7</ele>
        <time>2023-01-21T10:05:15.000Z</time>
      </trkpt>
      <trkpt lat="46.27189" lon="6.55542">
        <ele>1086.7</ele>
        <time>2023-01-21T10:05:16.000Z</time>
      </trkpt>
      <trkpt lat="46.27189" lon="6.55542">
        <ele>1086.7</ele>
        <time>2023-01-21T10:05:17.000Z</time>
      </trkpt>
      <trkpt lat="46.27189" lon="6.55542">
        <ele>1086.7</ele>
        <time>2023-01-21T10:05:18.000Z</time>
      </trkpt>
      <trkpt lat="46.27189" lon="6.55542">
        <ele>1086.7</ele>
        <time>2023-01-21T10:05:19.000Z</time>
      </trkpt>
      <trkpt lat="46.27189" lon="6.55542">
        <ele>1086.7</ele>
        <time>2023-01-21T10:05:20.000Z</time>
      </trkpt>
      <trkpt lat="46.27189" lon="6.55542">
        <ele>1086.7</ele>
        <time>2023-01-21T10:05:21.000Z</time>
      </trkpt>
      <trkpt lat="46.27189" lon="6.55542">
        <ele>1086.7</ele>
        <time>2023-01-21T10:05:22.000Z</time>
      </trkpt>
      <trkpt lat="46.27189" lon="6.55542">
        <ele>1086.7</ele>
        <time>2023-01-21T10:05:23.000Z</time>
      </trkpt>
      <trkpt lat="46.27189" lon="6.55542">
        <ele>1086.7</ele>
        <time>2023-01-21T10:05:24.000Z</time>
      </trkpt>
      <trkpt lat="46.27189" lon="6.55542">
        <ele>1086.7</ele>
        <time>2023-01-21T10:05:25.000Z</time>
      </trkpt>
      <trkpt lat="46.27189" lon="6.55542">
        <ele>1086.7</ele>
        <time>2023-01-21T10:05:26.000Z</time>
      </trkpt>
      <trkpt lat="46.27189" lon="6.55542">
        <ele>1086.7</ele>
        <time>2023-01-21T10:05:27.000Z</time>
      </trkpt>
      <trkpt lat="46.27189" lon="6.55542">
        <ele>1086.7</ele>
        <time>2023-01-21T10:05:28.000Z</time>
      </trkpt>
      <trkpt lat="46.27189" lon="6.55542">
        <ele>1086.7</ele>
        <time>2023-01-21T10:05:29.000Z</time>
      </trkpt>
      <trkpt lat="46.27189" lon="6.55542">
        <ele>1086.7</ele>
        <time>2023-01-21T10:05:30.000Z</time>
      </trkpt>
      <trkpt lat="46.27189" lon="6.55542">
        <ele>1086.7</ele>
        <time>2023-01-21T10:05:31.000Z</time>
      </trkpt>
      <trkpt lat="46.27189" lon="6.55542">
        <ele>1086.7</ele>
        <time>2023-01-21T10:05:32.000Z</time>
      </trkpt>
      <trkpt lat="46.27189" lon="6.55542">
        <ele>1086.7</ele>
        <time>2023-01-21T10:05:33.000Z</time>
      </trkpt>
      <trkpt lat="46.27189" lon="6.55542">
        <ele>1086.7</ele>
        <time>2023-01-21T10:05:34.000Z</time>
      </trkpt>
      <trkpt lat="46.27189" lon="6.55542">
        <ele>1086.7</ele>
        <time>2023-01-21T10:05:35.000Z</time>
      </trkpt>
      <trkpt lat="46.27189" lon="6.55542">
        <ele>1086.7</ele>
        <time>2023-01-21T10:05:36.000Z</time>
      </trkpt>
      <trkpt lat="46.27189" lon="6.55542">
        <ele>1086.7</ele>
        <time>2023-01-21T10:05:37.000Z</time>
      </trkpt>
      <trkpt lat="46.27189" lon="6.55542">
        <ele>1086.7</ele>
        <time>2023-01-21T10:05:38.000Z</time>
      </trkpt>
      <trkpt lat="46.27189" lon="6.55542">
        <ele>1086.7</ele>
        <time>2023-01-21T10:05:39.000Z</time>
      </trkpt>
      <trkpt lat="46.27189" lon="6.55542">
        <ele>1086.7</ele>
        <time>2023-01-21T10:05:40.000Z</time>
      </trkpt>
      <trkpt lat="46.27189" lon="6.55542">
        <ele>1086.7</ele>
        <time>2023-01-21T10:05:41.000Z</time>
      </trkpt>
      <trkpt lat="46.27189" lon="6.55542">
        <ele>1086.7</ele>
        <time>2023-01-21T10:05:42.000Z</time>
      </trkpt>
      <trkpt lat="46.27189" lon="6.55542">
        <ele>1093.5</ele>
        <time>2023-01-21T10:05:43.000Z</time>
      </trkpt>
      <trkpt lat="46.27189" lon="6.55542">
        <ele>1093.5</ele>
        <time>2023-01-21T10:05:44.000Z</time>
      </trkpt>
      <trkpt lat="46.27189" lon="6.55542">
        <ele>1093.5</ele>
        <time>2023-01-21T10:05:45.000Z</time>
      </trkpt>
      <trkpt lat="46.27189" lon="6.55542">
        <ele>1093.5</ele>
        <time>2023-01-21T10:05:46.000Z</time>
      </trkpt>
      <trkpt lat="46.27189" lon="6.55542">
        <ele>1093.5</ele>
        <time>2023-01-21T10:05:47.000Z</time>
      </trkpt>
      <trkpt lat="46.27189" lon="6.55542">
        <ele>1093.5</ele>
        <time>2023-01-21T10:05:48.000Z</time>
      </trkpt>
      <trkpt lat="46.27189" lon="6.55542">
        <ele>1093.5</ele>
        <time>2023-01-21T10:05:49.000Z</time>
      </trkpt>
      <trkpt lat="46.27189" lon="6.55542">
        <ele>1093.5</ele>
        <time>2023-01-21T10:05:50.000Z</time>
      </trkpt>
      <trkpt lat="46.27189" lon="6.55542">
        <ele>1093.5</ele>
        <time>2023-01-21T10:05:51.000Z</time>
      </trkpt>
      <trkpt lat="46.27189" lon="6.55542">
        <ele>1093.5</ele>
        <time>2023-01-21T10:05:52.000Z</time>
      </trkpt>
      <trkpt lat="46.27189" lon="6.55542">
        <ele>1093.5</ele>
        <time>2023-01-21T10:05:53.000Z</time>
      </trkpt>
      <trkpt lat="46.27189" lon="6.55542">
        <ele>1093.5</ele>
        <time>2023-01-21T10:05:54.000Z</time>
      </trkpt>
      <trkpt lat="46.27189" lon="6.55542">
        <ele>1093.5</ele>
        <time>2023-01-21T10:05:55.000Z</time>
      </trkpt>
      <trkpt lat="46.27189" lon="6.55542">
        <ele>1093.5</ele>
        <time>2023-01-21T10:05:56.000Z</time>
      </trkpt>
      <trkpt lat="46.27189" lon="6.55542">
        <ele>1093.5</ele>
        <time>2023-01-21T10:05:57.000Z</time>
      </trkpt>
      <trkpt lat="46.27189" lon="6.55542">
        <ele>1093.5</ele>
        <time>2023-01-21T10:05:58.000Z</time>
      </trkpt>
      <trkpt lat="46.27189" lon="6.55542">
        <ele>1093.5</ele>
        <time>2023-01-21T10:05:59.000Z</time>
      </trkpt>
      <trkpt lat="46.27189" lon="6.55542">
        <ele>1093.5</ele>
        <time>2023-01-21T10:06:00.000Z</time>
      </trkpt>
      <trkpt lat="46.27189" lon="6.55542">
        <ele>1093.5</ele>
        <time>2023-01-21T10:06:01.000Z</time>
      </trkpt>
      <trkpt lat="46.27189" lon="6.55542">
        <ele>1093.5</ele>
        <time>2023-01-21T10:06:02.000Z</time>
      </trkpt>
      <trkpt lat="46.27189" lon="6.55542">
        <ele>1093.5</ele>
        <time>2023-01-21T10:06:03.000Z</time>
      </trkpt>
      <trkpt lat="46.27189" lon="6.55542">
        <ele>1093.5</ele>
        <time>2023-01-21T10:06:04.000Z</time>
      </trkpt>
      <trkpt lat="46.27189" lon="6.55542">
        <ele>1093.5</ele>
        <time>2023-01-21T10:06:05.000Z</time>
      </trkpt>
      <trkpt lat="46.27189" lon="6.55542">
        <ele>1093.5</ele>
        <time>2023-01-21T10:06:06.000Z</time>
      </trkpt>
      <trkpt lat="46.27189" lon="6.55542">
        <ele>1093.5</ele>
        <time>2023-01-21T10:06:07.000Z</time>
      </trkpt>
      <trkpt lat="46.27189" lon="6.55542">
        <ele>1093.5</ele>
        <time>2023-01-21T10:06:08.000Z</time>
      </trkpt>
      <trkpt lat="46.27189" lon="6.55542">
        <ele>1093.5</ele>
        <time>2023-01-21T10:06:09.000Z</time>
      </trkpt>
      <trkpt lat="46.27189" lon="6.55542">
        <ele>1093.5</ele>
        <time>2023-01-21T10:06:10.000Z</time>
      </trkpt>
      <trkpt lat="46.27189" lon="6.55542">
        <ele>1093.5</ele>
        <time>2023-01-21T10:06:11.000Z</time>
      </trkpt>
      <trkpt lat="46.27189" lon="6.55542">
        <ele>1093.5</ele>
        <time>2023-01-21T10:06:12.000Z</time>
      </trkpt>
      <trkpt lat="46.27189" lon="6.55542">
        <ele>1093.5</ele>
        <time>2023-01-21T10:06:13.000Z</time>
      </trkpt>
      <trkpt lat="46.27189" lon="6.55542">
        <ele>1093.5</ele>
        <time>2023-01-21T10:06:14.000Z</time>
      </trkpt>
      <trkpt lat="46.27189" lon="6.55542">
        <ele>1093.5</ele>
        <time>2023-01-21T10:06:15.000Z</time>
      </trkpt>
      <trkpt lat="46.27189" lon="6.55542">
        <ele>1093.5</ele>
        <time>2023-01-21T10:06:16.000Z</time>
      </trkpt>
      <trkpt lat="46.27189" lon="6.55542">
        <ele>1093.5</ele>
        <time>2023-01-21T10:06:17.000Z</time>
      </trkpt>
      <trkpt lat="46.27189" lon="6.55542">
        <ele>1093.5</ele>
        <time>2023-01-21T10:06:18.000Z</time>
      </trkpt>
      <trkpt lat="46.27189" lon="6.55542">
        <ele>1093.5</ele>
        <time>2023-01-21T10:06:19.000Z</time>
      </trkpt>
      <trkpt lat="46.27189" lon="6.55542">
        <ele>1093.5</ele>
        <time>2023-01-21T10:06:20.000Z</time>
      </trkpt>
      <trkpt lat="46.27189" lon="6.55542">
        <ele>1093.5</ele>
        <time>2023-01-21T10:06:21.000Z</time>
      </trkpt>
      <trkpt lat="46.27189" lon="6.55542">
        <ele>1093.5</ele>
        <time>2023-01-21T10:06:22.000Z</time>
      </trkpt>
      <trkpt lat="46.27189" lon="6.55542">
        <ele>1093.5</ele>
        <time>2023-01-21T10:06:23.000Z</time>
      </trkpt>
      <trkpt lat="46.27189" lon="6.55542">
        <ele>1093.5</ele>
        <time>2023-01-21T10:06:24.000Z</time>
      </trkpt>
      <trkpt lat="46.27189" lon="6.55542">
        <ele>1093.5</ele>
        <time>2023-01-21T10:06:25.000Z</time>
      </trkpt>
      <trkpt lat="46.27189" lon="6.55542">
        <ele>1090.3</ele>
        <time>2023-01-21T10:06:26.000Z</time>
      </trkpt>
      <trkpt lat="46.27189" lon="6.55542">
        <ele>1090.3</ele>
        <time>2023-01-21T10:06:27.000Z</time>
      </trkpt>
      <trkpt lat="46.27189" lon="6.55542">
        <ele>1090.3</ele>
        <time>2023-01-21T10:06:28.000Z</time>
      </trkpt>
      <trkpt lat="46.27189" lon="6.55542">
        <ele>1090.3</ele>
        <time>2023-01-21T10:06:29.000Z</time>
      </trkpt>
      <trkpt lat="46.27189" lon="6.55542">
        <ele>1090.3</ele>
        <time>2023-01-21T10:06:30.000Z</time>
      </trkpt>
      <trkpt lat="46.27189" lon="6.55542">
        <ele>1090.3</ele>
        <time>2023-01-21T10:06:31.000Z</time>
      </trkpt>
      <trkpt lat="46.27189" lon="6.55542">
        <ele>1090.3</ele>
        <time>2023-01-21T10:06:32.000Z</time>
      </trkpt>
      <trkpt lat="46.27189" lon="6.55542">
        <ele>1090.3</ele>
        <time>2023-01-21T10:06:33.000Z</time>
      </trkpt>
      <trkpt lat="46.27189" lon="6.55542">
        <ele>1090.3</ele>
        <time>2023-01-21T10:06:34.000Z</time>
      </trkpt>
      <trkpt lat="46.27189" lon="6.55542">
        <ele>1090.3</ele>
        <time>2023-01-21T10:06:35.000Z</time>
      </trkpt>
      <trkpt lat="46.27189" lon="6.55542">
        <ele>1090.3</ele>
        <time>2023-01-21T10:06:36.000Z</time>
      </trkpt>
      <trkpt lat="46.27189" lon="6.55542">
        <ele>1090.3</ele>
        <time>2023-01-21T10:06:37.000Z</time>
      </trkpt>
      <trkpt lat="46.27189" lon="6.55542">
        <ele>1090.3</ele>
        <time>2023-01-21T10:06:38.000Z</time>
      </trkpt>
      <trkpt lat="46.27189" lon="6.55542">
        <ele>1090.3</ele>
        <time>2023-01-21T10:06:39.000Z</time>
      </trkpt>
      <trkpt lat="46.27189" lon="6.55542">
        <ele>1090.3</ele>
        <time>2023-01-21T10:06:40.000Z</time>
      </trkpt>
      <trkpt lat="46.27189" lon="6.55542">
        <ele>1090.3</ele>
        <time>2023-01-21T10:06:41.000Z</time>
      </trkpt>
      <trkpt lat="46.27189" lon="6.55542">
        <ele>1090.3</ele>
        <time>2023-01-21T10:06:42.000Z</time>
      </trkpt>
      <trkpt lat="46.27189" lon="6.55542">
        <ele>1090.3</ele>
        <time>2023-01-21T10:06:43.000Z</time>
      </trkpt>
      <trkpt lat="46.27189" lon="6.55542">
        <ele>1090.3</ele>
        <time>2023-01-21T10:06:44.000Z</time>
      </trkpt>
      <trkpt lat="46.27189" lon="6.55542">
        <ele>1090.3</ele>
        <time>2023-01-21T10:06:45.000Z</time>
      </trkpt>
      <trkpt lat="46.27189" lon="6.55542">
        <ele>1090.3</ele>
        <time>2023-01-21T10:06:46.000Z</time>
      </trkpt>
      <trkpt lat="46.27189" lon="6.55542">
        <ele>1090.3</ele>
        <time>2023-01-21T10:06:47.000Z</time>
      </trkpt>
      <trkpt lat="46.27189" lon="6.55542">
        <ele>1090.3</ele>
        <time>2023-01-21T10:06:48.000Z</time>
      </trkpt>
      <trkpt lat="46.27189" lon="6.55542">
        <ele>1090.3</ele>
        <time>2023-01-21T10:06:49.000Z</time>
      </trkpt>
      <trkpt lat="46.27189" lon="6.55542">
        <ele>1090.3</ele>
        <time>2023-01-21T10:06:50.000Z</time>
      </trkpt>
      <trkpt lat="46.27189" lon="6.55542">
        <ele>1090.3</ele>
        <time>2023-01-21T10:06:51.000Z</time>
      </trkpt>
      <trkpt lat="46.27189" lon="6.55542">
        <ele>1090.3</ele>
        <time>2023-01-21T10:06:52.000Z</time>
      </trkpt>
      <trkpt lat="46.27189" lon="6.55542">
        <ele>1090.3</ele>
        <time>2023-01-21T10:06:53.000Z</time>
      </trkpt>
      <trkpt lat="46.27189" lon="6.55542">
        <ele>1090.3</ele>
        <time>2023-01-21T10:06:54.000Z</time>
      </trkpt>
      <trkpt lat="46.27189" lon="6.55542">
        <ele>1090.3</ele>
        <time>2023-01-21T10:06:55.000Z</time>
      </trkpt>
      <trkpt lat="46.27189" lon="6.55542">
        <ele>1090.3</ele>
        <time>2023-01-21T10:06:56.000Z</time>
      </trkpt>
      <trkpt lat="46.27189" lon="6.55542">
        <ele>1090.3</ele>
        <time>2023-01-21T10:06:57.000Z</time>
      </trkpt>
      <trkpt lat="46.27189" lon="6.55542">
        <ele>1090.3</ele>
        <time>2023-01-21T10:06:58.000Z</time>
      </trkpt>
      <trkpt lat="46.27189" lon="6.55542">
        <ele>1090.3</ele>
        <time>2023-01-21T10:06:59.000Z</time>
      </trkpt>
      <trkpt lat="46.27189" lon="6.55542">
        <ele>1090.3</ele>
        <time>2023-01-21T10:07:00.000Z</time>
      </trkpt>
      <trkpt lat="46.27189" lon="6.55542">
        <ele>1090.3</ele>
        <time>2023-01-21T10:07:01.000Z</time>
      </trkpt>
      <trkpt lat="46.27189" lon="6.55542">
        <ele>1090.3</ele>
        <time>2023-01-21T10:07:02.000Z</time>
      </trkpt>
      <trkpt lat="46.2719" lon="6.55544">
        <ele>1088.2</ele>
        <time>2023-01-21T10:07:03.000Z</time>
      </trkpt>
      <trkpt lat="46.2719" lon="6.55544">
        <ele>1088</ele>
        <time>2023-01-21T10:07:04.000Z</time>
      </trkpt>
      <trkpt lat="46.27191" lon="6.55545">
        <ele>1088</ele>
        <time>2023-01-21T10:07:05.000Z</time>
      </trkpt>
      <trkpt lat="46.27191" lon="6.55546">
        <ele>1087.9</ele>
        <time>2023-01-21T10:07:06.000Z</time>
      </trkpt>
      <trkpt lat="46.2719" lon="6.55546">
        <ele>1087.9</ele>
        <time>2023-01-21T10:07:07.000Z</time>
      </trkpt>
      <trkpt lat="46.27189" lon="6.55547">
        <ele>1087.6</ele>
        <time>2023-01-21T10:07:08.000Z</time>
      </trkpt>
      <trkpt lat="46.2719" lon="6.55548">
        <ele>1087.8</ele>
        <time>2023-01-21T10:07:09.000Z</time>
      </trkpt>
      <trkpt lat="46.2719" lon="6.55549">
        <ele>1087.8</ele>
        <time>2023-01-21T10:07:10.000Z</time>
      </trkpt>
      <trkpt lat="46.2719" lon="6.5555">
        <ele>1087.9</ele>
        <time>2023-01-21T10:07:11.000Z</time>
      </trkpt>
      <trkpt lat="46.2719" lon="6.5555">
        <ele>1088</ele>
        <time>2023-01-21T10:07:12.000Z</time>
      </trkpt>
      <trkpt lat="46.2719" lon="6.55551">
        <ele>1088.2</ele>
        <time>2023-01-21T10:07:13.000Z</time>
      </trkpt>
      <trkpt lat="46.2719" lon="6.55551">
        <ele>1088.3</ele>
        <time>2023-01-21T10:07:14.000Z</time>
      </trkpt>
      <trkpt lat="46.27191" lon="6.55551">
        <ele>1088.5</ele>
        <time>2023-01-21T10:07:15.000Z</time>
      </trkpt>
      <trkpt lat="46.27191" lon="6.5555">
        <ele>1088.4</ele>
        <time>2023-01-21T10:07:16.000Z</time>
      </trkpt>
      <trkpt lat="46.27191" lon="6.5555">
        <ele>1088.3</ele>
        <time>2023-01-21T10:07:17.000Z</time>
      </trkpt>
      <trkpt lat="46.27191" lon="6.5555">
        <ele>1088.1</ele>
        <time>2023-01-21T10:07:18.000Z</time>
      </trkpt>
      <trkpt lat="46.27191" lon="6.5555">
        <ele>1088</ele>
        <time>2023-01-21T10:07:19.000Z</time>
      </trkpt>
      <trkpt lat="46.27191" lon="6.5555">
        <ele>1088</ele>
        <time>2023-01-21T10:07:20.000Z</time>
      </trkpt>
      <trkpt lat="46.27191" lon="6.55551">
        <ele>1088.1</ele>
        <time>2023-01-21T10:07:21.000Z</time>
      </trkpt>
      <trkpt lat="46.27191" lon="6.55552">
        <ele>1088.3</ele>
        <time>2023-01-21T10:07:22.000Z</time>
      </trkpt>
      <trkpt lat="46.27191" lon="6.55552">
        <ele>1088.5</ele>
        <time>2023-01-21T10:07:23.000Z</time>
      </trkpt>
      <trkpt lat="46.2719" lon="6.55552">
        <ele>1088.7</ele>
        <time>2023-01-21T10:07:24.000Z</time>
      </trkpt>
      <trkpt lat="46.2719" lon="6.55553">
        <ele>1088.8</ele>
        <time>2023-01-21T10:07:25.000Z</time>
      </trkpt>
      <trkpt lat="46.2719" lon="6.55553">
        <ele>1089</ele>
        <time>2023-01-21T10:07:26.000Z</time>
      </trkpt>
      <trkpt lat="46.2719" lon="6.55553">
        <ele>1089</ele>
        <time>2023-01-21T10:07:27.000Z</time>
      </trkpt>
      <trkpt lat="46.2719" lon="6.55553">
        <ele>1089</ele>
        <time>2023-01-21T10:07:28.000Z</time>
      </trkpt>
      <trkpt lat="46.27191" lon="6.55554">
        <ele>1090</ele>
        <time>2023-01-21T10:07:29.000Z</time>
      </trkpt>
      <trkpt lat="46.27192" lon="6.55554">
        <ele>1090.1</ele>
        <time>2023-01-21T10:07:30.000Z</time>
      </trkpt>
      <trkpt lat="46.27192" lon="6.55554">
        <ele>1090.3</ele>
        <time>2023-01-21T10:07:31.000Z</time>
      </trkpt>
      <trkpt lat="46.27193" lon="6.55554">
        <ele>1090.4</ele>
        <time>2023-01-21T10:07:32.000Z</time>
      </trkpt>
      <trkpt lat="46.27194" lon="6.55554">
        <ele>1090.5</ele>
        <time>2023-01-21T10:07:33.000Z</time>
      </trkpt>
      <trkpt lat="46.27195" lon="6.55555">
        <ele>1090.6</ele>
        <time>2023-01-21T10:07:34.000Z</time>
      </trkpt>
      <trkpt lat="46.27195" lon="6.55555">
        <ele>1090.6</ele>
        <time>2023-01-21T10:07:35.000Z</time>
      </trkpt>
      <trkpt lat="46.27196" lon="6.55555">
        <ele>1090.8</ele>
        <time>2023-01-21T10:07:36.000Z</time>
      </trkpt>
      <trkpt lat="46.27197" lon="6.55556">
        <ele>1090.8</ele>
        <time>2023-01-21T10:07:37.000Z</time>
      </trkpt>
      <trkpt lat="46.27198" lon="6.55557">
        <ele>1090.8</ele>
        <time>2023-01-21T10:07:38.000Z</time>
      </trkpt>
      <trkpt lat="46.27198" lon="6.55556">
        <ele>1091</ele>
        <time>2023-01-21T10:07:39.000Z</time>
      </trkpt>
      <trkpt lat="46.272" lon="6.55557">
        <ele>1091</ele>
        <time>2023-01-21T10:07:40.000Z</time>
      </trkpt>
      <trkpt lat="46.27201" lon="6.55558">
        <ele>1091.2</ele>
        <time>2023-01-21T10:07:41.000Z</time>
      </trkpt>
      <trkpt lat="46.27202" lon="6.55559">
        <ele>1091.3</ele>
        <time>2023-01-21T10:07:42.000Z</time>
      </trkpt>
      <trkpt lat="46.27203" lon="6.55559">
        <ele>1091.6</ele>
        <time>2023-01-21T10:07:43.000Z</time>
      </trkpt>
      <trkpt lat="46.27204" lon="6.5556">
        <ele>1091.6</ele>
        <time>2023-01-21T10:07:44.000Z</time>
      </trkpt>
      <trkpt lat="46.27205" lon="6.55561">
        <ele>1091.5</ele>
        <time>2023-01-21T10:07:45.000Z</time>
      </trkpt>
      <trkpt lat="46.27205" lon="6.55561">
        <ele>1091.5</ele>
        <time>2023-01-21T10:07:46.000Z</time>
      </trkpt>
      <trkpt lat="46.27206" lon="6.55562">
        <ele>1091.6</ele>
        <time>2023-01-21T10:07:47.000Z</time>
      </trkpt>
      <trkpt lat="46.27206" lon="6.55562">
        <ele>1091.6</ele>
        <time>2023-01-21T10:07:48.000Z</time>
      </trkpt>
      <trkpt lat="46.27207" lon="6.55563">
        <ele>1091.7</ele>
        <time>2023-01-21T10:07:49.000Z</time>
      </trkpt>
      <trkpt lat="46.27207" lon="6.55564">
        <ele>1091.8</ele>
        <time>2023-01-21T10:07:50.000Z</time>
      </trkpt>
      <trkpt lat="46.27207" lon="6.55565">
        <ele>1092.1</ele>
        <time>2023-01-21T10:07:51.000Z</time>
      </trkpt>
      <trkpt lat="46.27208" lon="6.55566">
        <ele>1092.2</ele>
        <time>2023-01-21T10:07:52.000Z</time>
      </trkpt>
      <trkpt lat="46.27209" lon="6.55566">
        <ele>1092.4</ele>
        <time>2023-01-21T10:07:53.000Z</time>
      </trkpt>
      <trkpt lat="46.27209" lon="6.55566">
        <ele>1092.7</ele>
        <time>2023-01-21T10:07:54.000Z</time>
      </trkpt>
      <trkpt lat="46.2721" lon="6.55566">
        <ele>1093</ele>
        <time>2023-01-21T10:07:55.000Z</time>
      </trkpt>
      <trkpt lat="46.2721" lon="6.55567">
        <ele>1093.2</ele>
        <time>2023-01-21T10:07:56.000Z</time>
      </trkpt>
      <trkpt lat="46.27211" lon="6.55567">
        <ele>1093.5</ele>
        <time>2023-01-21T10:07:57.000Z</time>
      </trkpt>
      <trkpt lat="46.27211" lon="6.55567">
        <ele>1093.6</ele>
        <time>2023-01-21T10:07:58.000Z</time>
      </trkpt>
      <trkpt lat="46.27212" lon="6.55568">
        <ele>1093.7</ele>
        <time>2023-01-21T10:07:59.000Z</time>
      </trkpt>
      <trkpt lat="46.27212" lon="6.55569">
        <ele>1093.5</ele>
        <time>2023-01-21T10:08:00.000Z</time>
      </trkpt>
      <trkpt lat="46.27212" lon="6.55569">
        <ele>1093.6</ele>
        <time>2023-01-21T10:08:01.000Z</time>
      </trkpt>
      <trkpt lat="46.27213" lon="6.55571">
        <ele>1093.7</ele>
        <time>2023-01-21T10:08:02.000Z</time>
      </trkpt>
      <trkpt lat="46.27213" lon="6.55571">
        <ele>1093.8</ele>
        <time>2023-01-21T10:08:03.000Z</time>
      </trkpt>
      <trkpt lat="46.27214" lon="6.55572">
        <ele>1093.8</ele>
        <time>2023-01-21T10:08:04.000Z</time>
      </trkpt>
      <trkpt lat="46.27214" lon="6.55573">
        <ele>1093.8</ele>
        <time>2023-01-21T10:08:05.000Z</time>
      </trkpt>
      <trkpt lat="46.27215" lon="6.55574">
        <ele>1093.9</ele>
        <time>2023-01-21T10:08:06.000Z</time>
      </trkpt>
      <trkpt lat="46.27215" lon="6.55574">
        <ele>1093.9</ele>
        <time>2023-01-21T10:08:07.000Z</time>
      </trkpt>
      <trkpt lat="46.27216" lon="6.55575">
        <ele>1093.9</ele>
        <time>2023-01-21T10:08:08.000Z</time>
      </trkpt>
      <trkpt lat="46.27216" lon="6.55576">
        <ele>1093.9</ele>
        <time>2023-01-21T10:08:09.000Z</time>
      </trkpt>
      <trkpt lat="46.27217" lon="6.55576">
        <ele>1094</ele>
        <time>2023-01-21T10:08:10.000Z</time>
      </trkpt>
      <trkpt lat="46.27217" lon="6.55577">
        <ele>1094.1</ele>
        <time>2023-01-21T10:08:11.000Z</time>
      </trkpt>
      <trkpt lat="46.27218" lon="6.55577">
        <ele>1094.1</ele>
        <time>2023-01-21T10:08:12.000Z</time>
      </trkpt>
      <trkpt lat="46.27219" lon="6.55577">
        <ele>1094.4</ele>
        <time>2023-01-21T10:08:13.000Z</time>
      </trkpt>
      <trkpt lat="46.27219" lon="6.55577">
        <ele>1094.7</ele>
        <time>2023-01-21T10:08:14.000Z</time>
      </trkpt>
      <trkpt lat="46.2722" lon="6.55577">
        <ele>1095.2</ele>
        <time>2023-01-21T10:08:15.000Z</time>
      </trkpt>
      <trkpt lat="46.2722" lon="6.55577">
        <ele>1095.9</ele>
        <time>2023-01-21T10:08:16.000Z</time>
      </trkpt>
      <trkpt lat="46.27221" lon="6.55577">
        <ele>1096.6</ele>
        <time>2023-01-21T10:08:17.000Z</time>
      </trkpt>
      <trkpt lat="46.27221" lon="6.55577">
        <ele>1096.6</ele>
        <time>2023-01-21T10:08:18.000Z</time>
      </trkpt>
      <trkpt lat="46.27221" lon="6.55577">
        <ele>1096.6</ele>
        <time>2023-01-21T10:08:19.000Z</time>
      </trkpt>
      <trkpt lat="46.27221" lon="6.55577">
        <ele>1096.6</ele>
        <time>2023-01-21T10:08:20.000Z</time>
      </trkpt>
      <trkpt lat="46.27221" lon="6.55577">
        <ele>1096.6</ele>
        <time>2023-01-21T10:08:21.000Z</time>
      </trkpt>
      <trkpt lat="46.27221" lon="6.55577">
        <ele>1096.6</ele>
        <time>2023-01-21T10:08:22.000Z</time>
      </trkpt>
      <trkpt lat="46.27221" lon="6.55577">
        <ele>1096.6</ele>
        <time>2023-01-21T10:08:23.000Z</time>
      </trkpt>
      <trkpt lat="46.27221" lon="6.55577">
        <ele>1096.6</ele>
        <time>2023-01-21T10:08:24.000Z</time>
      </trkpt>
      <trkpt lat="46.27221" lon="6.55577">
        <ele>1096.6</ele>
        <time>2023-01-21T10:08:25.000Z</time>
      </trkpt>
      <trkpt lat="46.27221" lon="6.55577">
        <ele>1096.6</ele>
        <time>2023-01-21T10:08:26.000Z</time>
      </trkpt>
      <trkpt lat="46.27221" lon="6.55577">
        <ele>1096.6</ele>
        <time>2023-01-21T10:08:27.000Z</time>
      </trkpt>
      <trkpt lat="46.27221" lon="6.55577">
        <ele>1096.6</ele>
        <time>2023-01-21T10:08:28.000Z</time>
      </trkpt>
      <trkpt lat="46.27221" lon="6.55577">
        <ele>1096.6</ele>
        <time>2023-01-21T10:08:29.000Z</time>
      </trkpt>
      <trkpt lat="46.27221" lon="6.55577">
        <ele>1096.6</ele>
        <time>2023-01-21T10:08:30.000Z</time>
      </trkpt>
      <trkpt lat="46.27221" lon="6.55577">
        <ele>1096.6</ele>
        <time>2023-01-21T10:08:31.000Z</time>
      </trkpt>
      <trkpt lat="46.27221" lon="6.55577">
        <ele>1096.6</ele>
        <time>2023-01-21T10:08:32.000Z</time>
      </trkpt>
      <trkpt lat="46.27221" lon="6.55577">
        <ele>1096.6</ele>
        <time>2023-01-21T10:08:33.000Z</time>
      </trkpt>
      <trkpt lat="46.27221" lon="6.55577">
        <ele>1096.6</ele>
        <time>2023-01-21T10:08:34.000Z</time>
      </trkpt>
      <trkpt lat="46.27221" lon="6.55577">
        <ele>1096.6</ele>
        <time>2023-01-21T10:08:35.000Z</time>
      </trkpt>
      <trkpt lat="46.27221" lon="6.55577">
        <ele>1096.6</ele>
        <time>2023-01-21T10:08:36.000Z</time>
      </trkpt>
      <trkpt lat="46.27221" lon="6.55577">
        <ele>1096.6</ele>
        <time>2023-01-21T10:08:37.000Z</time>
      </trkpt>
      <trkpt lat="46.27221" lon="6.55577">
        <ele>1096.6</ele>
        <time>2023-01-21T10:08:38.000Z</time>
      </trkpt>
      <trkpt lat="46.27221" lon="6.55577">
        <ele>1096.6</ele>
        <time>2023-01-21T10:08:39.000Z</time>
      </trkpt>
      <trkpt lat="46.27221" lon="6.55577">
        <ele>1096.6</ele>
        <time>2023-01-21T10:08:40.000Z</time>
      </trkpt>
      <trkpt lat="46.27221" lon="6.55577">
        <ele>1096.6</ele>
        <time>2023-01-21T10:08:41.000Z</time>
      </trkpt>
      <trkpt lat="46.27221" lon="6.55577">
        <ele>1096.6</ele>
        <time>2023-01-21T10:08:42.000Z</time>
      </trkpt>
      <trkpt lat="46.27221" lon="6.55577">
        <ele>1096.6</ele>
        <time>2023-01-21T10:08:43.000Z</time>
      </trkpt>
      <trkpt lat="46.27223" lon="6.55576">
        <ele>1098.2</ele>
        <time>2023-01-21T10:08:44.000Z</time>
      </trkpt>
      <trkpt lat="46.27222" lon="6.55575">
        <ele>1098.1</ele>
        <time>2023-01-21T10:08:45.000Z</time>
      </trkpt>
      <trkpt lat="46.27221" lon="6.55575">
        <ele>1098.1</ele>
        <time>2023-01-21T10:08:46.000Z</time>
      </trkpt>
      <trkpt lat="46.2722" lon="6.55574">
        <ele>1098.1</ele>
        <time>2023-01-21T10:08:47.000Z</time>
      </trkpt>
      <trkpt lat="46.2722" lon="6.55574">
        <ele>1098</ele>
        <time>2023-01-21T10:08:48.000Z</time>
      </trkpt>
      <trkpt lat="46.27221" lon="6.55574">
        <ele>1097.9</ele>
        <time>2023-01-21T10:08:49.000Z</time>
      </trkpt>
      <trkpt lat="46.27222" lon="6.55573">
        <ele>1097.9</ele>
        <time>2023-01-21T10:08:50.000Z</time>
      </trkpt>
      <trkpt lat="46.27223" lon="6.55573">
        <ele>1098</ele>
        <time>2023-01-21T10:08:51.000Z</time>
      </trkpt>
      <trkpt lat="46.27224" lon="6.55573">
        <ele>1098.2</ele>
        <time>2023-01-21T10:08:52.000Z</time>
      </trkpt>
      <trkpt lat="46.27225" lon="6.55572">
        <ele>1098.3</ele>
        <time>2023-01-21T10:08:53.000Z</time>
      </trkpt>
      <trkpt lat="46.27225" lon="6.55571">
        <ele>1097.9</ele>
        <time>2023-01-21T10:08:54.000Z</time>
      </trkpt>
      <trkpt lat="46.27224" lon="6.55572">
        <ele>1097.5</ele>
        <time>2023-01-21T10:08:55.000Z</time>
      </trkpt>
      <trkpt lat="46.27224" lon="6.55574">
        <ele>1097.8</ele>
        <time>2023-01-21T10:08:56.000Z</time>
      </trkpt>
      <trkpt lat="46.27224" lon="6.55574">
        <ele>1097.8</ele>
        <time>2023-01-21T10:08:57.000Z</time>
      </trkpt>
      <trkpt lat="46.27223" lon="6.55575">
        <ele>1097.6</ele>
        <time>2023-01-21T10:08:58.000Z</time>
      </trkpt>
      <trkpt lat="46.27223" lon="6.55576">
        <ele>1097.4</ele>
        <time>2023-01-21T10:08:59.000Z</time>
      </trkpt>
      <trkpt lat="46.27223" lon="6.55576">
        <ele>1097.4</ele>
        <time>2023-01-21T10:09:00.000Z</time>
      </trkpt>
      <trkpt lat="46.27224" lon="6.55577">
        <ele>1097.1</ele>
        <time>2023-01-21T10:09:01.000Z</time>
      </trkpt>
      <trkpt lat="46.27224" lon="6.55578">
        <ele>1096.8</ele>
        <time>2023-01-21T10:09:02.000Z</time>
      </trkpt>
      <trkpt lat="46.27224" lon="6.55578">
        <ele>1096</ele>
        <time>2023-01-21T10:09:03.000Z</time>
      </trkpt>
      <trkpt lat="46.27224" lon="6.55579">
        <ele>1095.6</ele>
        <time>2023-01-21T10:09:04.000Z</time>
      </trkpt>
      <trkpt lat="46.27224" lon="6.55579">
        <ele>1095.1</ele>
        <time>2023-01-21T10:09:05.000Z</time>
      </trkpt>
      <trkpt lat="46.27224" lon="6.5558">
        <ele>1094.7</ele>
        <time>2023-01-21T10:09:06.000Z</time>
      </trkpt>
      <trkpt lat="46.27223" lon="6.5558">
        <ele>1094.2</ele>
        <time>2023-01-21T10:09:07.000Z</time>
      </trkpt>
      <trkpt lat="46.27223" lon="6.5558">
        <ele>1094.1</ele>
        <time>2023-01-21T10:09:08.000Z</time>
      </trkpt>
      <trkpt lat="46.27224" lon="6.5558">
        <ele>1094</ele>
        <time>2023-01-21T10:09:09.000Z</time>
      </trkpt>
      <trkpt lat="46.27224" lon="6.5558">
        <ele>1093.9</ele>
        <time>2023-01-21T10:09:10.000Z</time>
      </trkpt>
      <trkpt lat="46.27224" lon="6.55581">
        <ele>1093.8</ele>
        <time>2023-01-21T10:09:11.000Z</time>
      </trkpt>
      <trkpt lat="46.27225" lon="6.55582">
        <ele>1093.9</ele>
        <time>2023-01-21T10:09:12.000Z</time>
      </trkpt>
      <trkpt lat="46.27225" lon="6.55582">
        <ele>1093.7</ele>
        <time>2023-01-21T10:09:13.000Z</time>
      </trkpt>
      <trkpt lat="46.27225" lon="6.55582">
        <ele>1093.5</ele>
        <time>2023-01-21T10:09:14.000Z</time>
      </trkpt>
      <trkpt lat="46.27226" lon="6.55583">
        <ele>1093.5</ele>
        <time>2023-01-21T10:09:15.000Z</time>
      </trkpt>
      <trkpt lat="46.27226" lon="6.55583">
        <ele>1093.6</ele>
        <time>2023-01-21T10:09:16.000Z</time>
      </trkpt>
      <trkpt lat="46.27227" lon="6.55584">
        <ele>1093.5</ele>
        <time>2023-01-21T10:09:17.000Z</time>
      </trkpt>
      <trkpt lat="46.27228" lon="6.55584">
        <ele>1093.4</ele>
        <time>2023-01-21T10:09:18.000Z</time>
      </trkpt>
      <trkpt lat="46.27229" lon="6.55585">
        <ele>1093.4</ele>
        <time>2023-01-21T10:09:19.000Z</time>
      </trkpt>
      <trkpt lat="46.27229" lon="6.55586">
        <ele>1093.3</ele>
        <time>2023-01-21T10:09:20.000Z</time>
      </trkpt>
      <trkpt lat="46.2723" lon="6.55586">
        <ele>1093.2</ele>
        <time>2023-01-21T10:09:21.000Z</time>
      </trkpt>
      <trkpt lat="46.2723" lon="6.55587">
        <ele>1093.1</ele>
        <time>2023-01-21T10:09:22.000Z</time>
      </trkpt>
      <trkpt lat="46.27231" lon="6.55588">
        <ele>1093.2</ele>
        <time>2023-01-21T10:09:23.000Z</time>
      </trkpt>
      <trkpt lat="46.27231" lon="6.55588">
        <ele>1093.2</ele>
        <time>2023-01-21T10:09:24.000Z</time>
      </trkpt>
      <trkpt lat="46.27232" lon="6.55589">
        <ele>1093.2</ele>
        <time>2023-01-21T10:09:25.000Z</time>
      </trkpt>
      <trkpt lat="46.27233" lon="6.5559">
        <ele>1093.2</ele>
        <time>2023-01-21T10:09:26.000Z</time>
      </trkpt>
      <trkpt lat="46.27234" lon="6.55591">
        <ele>1093.1</ele>
        <time>2023-01-21T10:09:27.000Z</time>
      </trkpt>
      <trkpt lat="46.27234" lon="6.55592">
        <ele>1093.3</ele>
        <time>2023-01-21T10:09:28.000Z</time>
      </trkpt>
      <trkpt lat="46.27234" lon="6.55593">
        <ele>1093.4</ele>
        <time>2023-01-21T10:09:29.000Z</time>
      </trkpt>
      <trkpt lat="46.27235" lon="6.55594">
        <ele>1093.6</ele>
        <time>2023-01-21T10:09:30.000Z</time>
      </trkpt>
      <trkpt lat="46.27235" lon="6.55595">
        <ele>1093.7</ele>
        <time>2023-01-21T10:09:31.000Z</time>
      </trkpt>
      <trkpt lat="46.27236" lon="6.55597">
        <ele>1093.8</ele>
        <time>2023-01-21T10:09:32.000Z</time>
      </trkpt>
      <trkpt lat="46.27236" lon="6.55598">
        <ele>1093.7</ele>
        <time>2023-01-21T10:09:33.000Z</time>
      </trkpt>
      <trkpt lat="46.27236" lon="6.55599">
        <ele>1093.6</ele>
        <time>2023-01-21T10:09:34.000Z</time>
      </trkpt>
      <trkpt lat="46.27236" lon="6.55599">
        <ele>1093.8</ele>
        <time>2023-01-21T10:09:35.000Z</time>
      </trkpt>
      <trkpt lat="46.27236" lon="6.556">
        <ele>1093.8</ele>
        <time>2023-01-21T10:09:36.000Z</time>
      </trkpt>
      <trkpt lat="46.27236" lon="6.55601">
        <ele>1094.1</ele>
        <time>2023-01-21T10:09:37.000Z</time>
      </trkpt>
      <trkpt lat="46.27236" lon="6.55602">
        <ele>1094.1</ele>
        <time>2023-01-21T10:09:38.000Z</time>
      </trkpt>
      <trkpt lat="46.27237" lon="6.55603">
        <ele>1094.2</ele>
        <time>2023-01-21T10:09:39.000Z</time>
      </trkpt>
      <trkpt lat="46.27237" lon="6.55604">
        <ele>1094.4</ele>
        <time>2023-01-21T10:09:40.000Z</time>
      </trkpt>
      <trkpt lat="46.27237" lon="6.55605">
        <ele>1094.6</ele>
        <time>2023-01-21T10:09:41.000Z</time>
      </trkpt>
      <trkpt lat="46.27237" lon="6.55606">
        <ele>1094.8</ele>
        <time>2023-01-21T10:09:42.000Z</time>
      </trkpt>
      <trkpt lat="46.27237" lon="6.55607">
        <ele>1094.8</ele>
        <time>2023-01-21T10:09:43.000Z</time>
      </trkpt>
      <trkpt lat="46.27237" lon="6.55607">
        <ele>1094.7</ele>
        <time>2023-01-21T10:09:44.000Z</time>
      </trkpt>
      <trkpt lat="46.27237" lon="6.55608">
        <ele>1094.6</ele>
        <time>2023-01-21T10:09:45.000Z</time>
      </trkpt>
      <trkpt lat="46.27237" lon="6.55609">
        <ele>1094.6</ele>
        <time>2023-01-21T10:09:46.000Z</time>
      </trkpt>
      <trkpt lat="46.27237" lon="6.55611">
        <ele>1094.4</ele>
        <time>2023-01-21T10:09:47.000Z</time>
      </trkpt>
      <trkpt lat="46.27237" lon="6.55612">
        <ele>1094.2</ele>
        <time>2023-01-21T10:09:48.000Z</time>
      </trkpt>
      <trkpt lat="46.27237" lon="6.55612">
        <ele>1093.9</ele>
        <time>2023-01-21T10:09:49.000Z</time>
      </trkpt>
      <trkpt lat="46.27237" lon="6.55612">
        <ele>1093.8</ele>
        <time>2023-01-21T10:09:50.000Z</time>
      </trkpt>
      <trkpt lat="46.27236" lon="6.55613">
        <ele>1094.3</ele>
        <time>2023-01-21T10:09:51.000Z</time>
      </trkpt>
      <trkpt lat="46.27237" lon="6.55614">
        <ele>1094.7</ele>
        <time>2023-01-21T10:09:52.000Z</time>
      </trkpt>
      <trkpt lat="46.27237" lon="6.55614">
        <ele>1094.8</ele>
        <time>2023-01-21T10:09:53.000Z</time>
      </trkpt>
      <trkpt lat="46.27237" lon="6.55614">
        <ele>1094.8</ele>
        <time>2023-01-21T10:09:54.000Z</time>
      </trkpt>
      <trkpt lat="46.27237" lon="6.55615">
        <ele>1094.8</ele>
        <time>2023-01-21T10:09:55.000Z</time>
      </trkpt>
      <trkpt lat="46.27237" lon="6.55615">
        <ele>1094.7</ele>
        <time>2023-01-21T10:09:56.000Z</time>
      </trkpt>
      <trkpt lat="46.27237" lon="6.55615">
        <ele>1094.5</ele>
        <time>2023-01-21T10:09:57.000Z</time>
      </trkpt>
      <trkpt lat="46.27237" lon="6.55615">
        <ele>1094.5</ele>
        <time>2023-01-21T10:09:58.000Z</time>
      </trkpt>
      <trkpt lat="46.27237" lon="6.55615">
        <ele>1094.5</ele>
        <time>2023-01-21T10:09:59.000Z</time>
      </trkpt>
      <trkpt lat="46.27237" lon="6.55615">
        <ele>1094.5</ele>
        <time>2023-01-21T10:10:00.000Z</time>
      </trkpt>
      <trkpt lat="46.27237" lon="6.55615">
        <ele>1094.5</ele>
        <time>2023-01-21T10:10:01.000Z</time>
      </trkpt>
      <trkpt lat="46.27237" lon="6.55615">
        <ele>1094.5</ele>
        <time>2023-01-21T10:10:02.000Z</time>
      </trkpt>
      <trkpt lat="46.27237" lon="6.55615">
        <ele>1094.5</ele>
        <time>2023-01-21T10:10:03.000Z</time>
      </trkpt>
      <trkpt lat="46.27237" lon="6.55615">
        <ele>1094.5</ele>
        <time>2023-01-21T10:10:04.000Z</time>
      </trkpt>
      <trkpt lat="46.27237" lon="6.55615">
        <ele>1094.5</ele>
        <time>2023-01-21T10:10:05.000Z</time>
      </trkpt>
      <trkpt lat="46.27237" lon="6.55615">
        <ele>1094.5</ele>
        <time>2023-01-21T10:10:06.000Z</time>
      </trkpt>
      <trkpt lat="46.27237" lon="6.55615">
        <ele>1094.5</ele>
        <time>2023-01-21T10:10:07.000Z</time>
      </trkpt>
      <trkpt lat="46.27237" lon="6.55615">
        <ele>1094.5</ele>
        <time>2023-01-21T10:10:08.000Z</time>
      </trkpt>
      <trkpt lat="46.27237" lon="6.55615">
        <ele>1094.5</ele>
        <time>2023-01-21T10:10:09.000Z</time>
      </trkpt>
      <trkpt lat="46.27237" lon="6.55615">
        <ele>1094.5</ele>
        <time>2023-01-21T10:10:10.000Z</time>
      </trkpt>
      <trkpt lat="46.27237" lon="6.55615">
        <ele>1094.5</ele>
        <time>2023-01-21T10:10:11.000Z</time>
      </trkpt>
      <trkpt lat="46.27237" lon="6.55615">
        <ele>1094.5</ele>
        <time>2023-01-21T10:10:12.000Z</time>
      </trkpt>
      <trkpt lat="46.27237" lon="6.55615">
        <ele>1094.5</ele>
        <time>2023-01-21T10:10:13.000Z</time>
      </trkpt>
      <trkpt lat="46.27237" lon="6.55615">
        <ele>1094.5</ele>
        <time>2023-01-21T10:10:14.000Z</time>
      </trkpt>
      <trkpt lat="46.27237" lon="6.55615">
        <ele>1094.5</ele>
        <time>2023-01-21T10:10:15.000Z</time>
      </trkpt>
      <trkpt lat="46.27237" lon="6.55615">
        <ele>1094.5</ele>
        <time>2023-01-21T10:10:16.000Z</time>
      </trkpt>
      <trkpt lat="46.27232" lon="6.55623">
        <ele>1095.4</ele>
        <time>2023-01-21T10:10:17.000Z</time>
      </trkpt>
      <trkpt lat="46.27233" lon="6.55624">
        <ele>1095.4</ele>
        <time>2023-01-21T10:10:18.000Z</time>
      </trkpt>
      <trkpt lat="46.27234" lon="6.55625">
        <ele>1095.5</ele>
        <time>2023-01-21T10:10:19.000Z</time>
      </trkpt>
      <trkpt lat="46.27234" lon="6.55626">
        <ele>1095.7</ele>
        <time>2023-01-21T10:10:20.000Z</time>
      </trkpt>
      <trkpt lat="46.27234" lon="6.55627">
        <ele>1095.9</ele>
        <time>2023-01-21T10:10:21.000Z</time>
      </trkpt>
      <trkpt lat="46.27234" lon="6.55628">
        <ele>1096.1</ele>
        <time>2023-01-21T10:10:22.000Z</time>
      </trkpt>
      <trkpt lat="46.27236" lon="6.55628">
        <ele>1096.3</ele>
        <time>2023-01-21T10:10:23.000Z</time>
      </trkpt>
      <trkpt lat="46.27235" lon="6.55629">
        <ele>1096.5</ele>
        <time>2023-01-21T10:10:24.000Z</time>
      </trkpt>
      <trkpt lat="46.27235" lon="6.5563">
        <ele>1096.7</ele>
        <time>2023-01-21T10:10:25.000Z</time>
      </trkpt>
      <trkpt lat="46.27236" lon="6.5563">
        <ele>1097.1</ele>
        <time>2023-01-21T10:10:26.000Z</time>
      </trkpt>
      <trkpt lat="46.27236" lon="6.5563">
        <ele>1097.3</ele>
        <time>2023-01-21T10:10:27.000Z</time>
      </trkpt>
      <trkpt lat="46.27235" lon="6.5563">
        <ele>1097.6</ele>
        <time>2023-01-21T10:10:28.000Z</time>
      </trkpt>
      <trkpt lat="46.27236" lon="6.5563">
        <ele>1097.8</ele>
        <time>2023-01-21T10:10:29.000Z</time>
      </trkpt>
      <trkpt lat="46.27237" lon="6.5563">
        <ele>1098</ele>
        <time>2023-01-21T10:10:30.000Z</time>
      </trkpt>
      <trkpt lat="46.27238" lon="6.5563">
        <ele>1098.2</ele>
        <time>2023-01-21T10:10:31.000Z</time>
      </trkpt>
      <trkpt lat="46.27238" lon="6.55631">
        <ele>1098.2</ele>
        <time>2023-01-21T10:10:32.000Z</time>
      </trkpt>
      <trkpt lat="46.27238" lon="6.55632">
        <ele>1098.2</ele>
        <time>2023-01-21T10:10:33.000Z</time>
      </trkpt>
      <trkpt lat="46.27239" lon="6.55633">
        <ele>1098.3</ele>
        <time>2023-01-21T10:10:34.000Z</time>
      </trkpt>
      <trkpt lat="46.2724" lon="6.55634">
        <ele>1098.8</ele>
        <time>2023-01-21T10:10:35.000Z</time>
      </trkpt>
      <trkpt lat="46.27239" lon="6.55635">
        <ele>1099</ele>
        <time>2023-01-21T10:10:36.000Z</time>
      </trkpt>
      <trkpt lat="46.27239" lon="6.55636">
        <ele>1099.4</ele>
        <time>2023-01-21T10:10:37.000Z</time>
      </trkpt>
      <trkpt lat="46.27238" lon="6.55637">
        <ele>1099.5</ele>
        <time>2023-01-21T10:10:38.000Z</time>
      </trkpt>
      <trkpt lat="46.27238" lon="6.55637">
        <ele>1099.6</ele>
        <time>2023-01-21T10:10:39.000Z</time>
      </trkpt>
      <trkpt lat="46.27238" lon="6.55637">
        <ele>1099.5</ele>
        <time>2023-01-21T10:10:40.000Z</time>
      </trkpt>
      <trkpt lat="46.27239" lon="6.55637">
        <ele>1099.7</ele>
        <time>2023-01-21T10:10:41.000Z</time>
      </trkpt>
      <trkpt lat="46.2724" lon="6.55638">
        <ele>1099.9</ele>
        <time>2023-01-21T10:10:42.000Z</time>
      </trkpt>
      <trkpt lat="46.2724" lon="6.55638">
        <ele>1100.1</ele>
        <time>2023-01-21T10:10:43.000Z</time>
      </trkpt>
      <trkpt lat="46.27241" lon="6.55639">
        <ele>1100.2</ele>
        <time>2023-01-21T10:10:44.000Z</time>
      </trkpt>
      <trkpt lat="46.27241" lon="6.55639">
        <ele>1100.5</ele>
        <time>2023-01-21T10:10:45.000Z</time>
      </trkpt>
      <trkpt lat="46.27241" lon="6.55641">
        <ele>1100.7</ele>
        <time>2023-01-21T10:10:46.000Z</time>
      </trkpt>
      <trkpt lat="46.27241" lon="6.55642">
        <ele>1101</ele>
        <time>2023-01-21T10:10:47.000Z</time>
      </trkpt>
      <trkpt lat="46.27241" lon="6.55643">
        <ele>1101.3</ele>
        <time>2023-01-21T10:10:48.000Z</time>
      </trkpt>
      <trkpt lat="46.2724" lon="6.55643">
        <ele>1101.5</ele>
        <time>2023-01-21T10:10:49.000Z</time>
      </trkpt>
      <trkpt lat="46.2724" lon="6.55644">
        <ele>1101.6</ele>
        <time>2023-01-21T10:10:50.000Z</time>
      </trkpt>
      <trkpt lat="46.27241" lon="6.55644">
        <ele>1101.7</ele>
        <time>2023-01-21T10:10:51.000Z</time>
      </trkpt>
      <trkpt lat="46.27241" lon="6.55644">
        <ele>1101.9</ele>
        <time>2023-01-21T10:10:52.000Z</time>
      </trkpt>
      <trkpt lat="46.27242" lon="6.55644">
        <ele>1102</ele>
        <time>2023-01-21T10:10:53.000Z</time>
      </trkpt>
      <trkpt lat="46.27243" lon="6.55643">
        <ele>1102.2</ele>
        <time>2023-01-21T10:10:54.000Z</time>
      </trkpt>
      <trkpt lat="46.27244" lon="6.55644">
        <ele>1102.4</ele>
        <time>2023-01-21T10:10:55.000Z</time>
      </trkpt>
      <trkpt lat="46.27244" lon="6.55644">
        <ele>1102.6</ele>
        <time>2023-01-21T10:10:56.000Z</time>
      </trkpt>
      <trkpt lat="46.27245" lon="6.55645">
        <ele>1102.8</ele>
        <time>2023-01-21T10:10:57.000Z</time>
      </trkpt>
      <trkpt lat="46.27246" lon="6.55645">
        <ele>1103</ele>
        <time>2023-01-21T10:10:58.000Z</time>
      </trkpt>
      <trkpt lat="46.27246" lon="6.55646">
        <ele>1103.1</ele>
        <time>2023-01-21T10:10:59.000Z</time>
      </trkpt>
      <trkpt lat="46.27248" lon="6.55647">
        <ele>1103.4</ele>
        <time>2023-01-21T10:11:00.000Z</time>
      </trkpt>
      <trkpt lat="46.27248" lon="6.55648">
        <ele>1103.5</ele>
        <time>2023-01-21T10:11:01.000Z</time>
      </trkpt>
      <trkpt lat="46.27249" lon="6.55648">
        <ele>1103.6</ele>
        <time>2023-01-21T10:11:02.000Z</time>
      </trkpt>
      <trkpt lat="46.27249" lon="6.55649">
        <ele>1103.7</ele>
        <time>2023-01-21T10:11:03.000Z</time>
      </trkpt>
      <trkpt lat="46.27249" lon="6.5565">
        <ele>1103.7</ele>
        <time>2023-01-21T10:11:04.000Z</time>
      </trkpt>
      <trkpt lat="46.27249" lon="6.55649">
        <ele>1103.8</ele>
        <time>2023-01-21T10:11:05.000Z</time>
      </trkpt>
      <trkpt lat="46.27249" lon="6.5565">
        <ele>1103.4</ele>
        <time>2023-01-21T10:11:06.000Z</time>
      </trkpt>
      <trkpt lat="46.27249" lon="6.5565">
        <ele>1103.5</ele>
        <time>2023-01-21T10:11:07.000Z</time>
      </trkpt>
      <trkpt lat="46.27249" lon="6.55651">
        <ele>1103.7</ele>
        <time>2023-01-21T10:11:08.000Z</time>
      </trkpt>
      <trkpt lat="46.27249" lon="6.55652">
        <ele>1103.5</ele>
        <time>2023-01-21T10:11:09.000Z</time>
      </trkpt>
      <trkpt lat="46.27249" lon="6.55653">
        <ele>1103.6</ele>
        <time>2023-01-21T10:11:10.000Z</time>
      </trkpt>
      <trkpt lat="46.27249" lon="6.55653">
        <ele>1103.6</ele>
        <time>2023-01-21T10:11:11.000Z</time>
      </trkpt>
      <trkpt lat="46.2725" lon="6.55654">
        <ele>1103.5</ele>
        <time>2023-01-21T10:11:12.000Z</time>
      </trkpt>
      <trkpt lat="46.27251" lon="6.55654">
        <ele>1103.3</ele>
        <time>2023-01-21T10:11:13.000Z</time>
      </trkpt>
      <trkpt lat="46.27251" lon="6.55654">
        <ele>1103.1</ele>
        <time>2023-01-21T10:11:14.000Z</time>
      </trkpt>
      <trkpt lat="46.27252" lon="6.55654">
        <ele>1103.1</ele>
        <time>2023-01-21T10:11:15.000Z</time>
      </trkpt>
      <trkpt lat="46.27252" lon="6.55654">
        <ele>1103.1</ele>
        <time>2023-01-21T10:11:16.000Z</time>
      </trkpt>
      <trkpt lat="46.27252" lon="6.55654">
        <ele>1103.1</ele>
        <time>2023-01-21T10:11:17.000Z</time>
      </trkpt>
      <trkpt lat="46.27252" lon="6.55654">
        <ele>1102.9</ele>
        <time>2023-01-21T10:11:18.000Z</time>
      </trkpt>
      <trkpt lat="46.27252" lon="6.55655">
        <ele>1102.5</ele>
        <time>2023-01-21T10:11:19.000Z</time>
      </trkpt>
      <trkpt lat="46.27252" lon="6.55655">
        <ele>1102.3</ele>
        <time>2023-01-21T10:11:20.000Z</time>
      </trkpt>
      <trkpt lat="46.27253" lon="6.55655">
        <ele>1101.9</ele>
        <time>2023-01-21T10:11:21.000Z</time>
      </trkpt>
      <trkpt lat="46.27254" lon="6.55655">
        <ele>1101.5</ele>
        <time>2023-01-21T10:11:22.000Z</time>
      </trkpt>
      <trkpt lat="46.27255" lon="6.55655">
        <ele>1101.4</ele>
        <time>2023-01-21T10:11:23.000Z</time>
      </trkpt>
      <trkpt lat="46.27256" lon="6.55654">
        <ele>1100.6</ele>
        <time>2023-01-21T10:11:24.000Z</time>
      </trkpt>
      <trkpt lat="46.27257" lon="6.55654">
        <ele>1100.2</ele>
        <time>2023-01-21T10:11:25.000Z</time>
      </trkpt>
      <trkpt lat="46.27257" lon="6.55655">
        <ele>1100.1</ele>
        <time>2023-01-21T10:11:26.000Z</time>
      </trkpt>
      <trkpt lat="46.27257" lon="6.55655">
        <ele>1100</ele>
        <time>2023-01-21T10:11:27.000Z</time>
      </trkpt>
      <trkpt lat="46.27257" lon="6.55655">
        <ele>1099.8</ele>
        <time>2023-01-21T10:11:28.000Z</time>
      </trkpt>
      <trkpt lat="46.27257" lon="6.55654">
        <ele>1099.8</ele>
        <time>2023-01-21T10:11:29.000Z</time>
      </trkpt>
      <trkpt lat="46.27258" lon="6.55653">
        <ele>1099.7</ele>
        <time>2023-01-21T10:11:30.000Z</time>
      </trkpt>
      <trkpt lat="46.27259" lon="6.55653">
        <ele>1099.6</ele>
        <time>2023-01-21T10:11:31.000Z</time>
      </trkpt>
      <trkpt lat="46.2726" lon="6.55653">
        <ele>1099.6</ele>
        <time>2023-01-21T10:11:32.000Z</time>
      </trkpt>
      <trkpt lat="46.2726" lon="6.55652">
        <ele>1099.7</ele>
        <time>2023-01-21T10:11:33.000Z</time>
      </trkpt>
      <trkpt lat="46.27261" lon="6.55652">
        <ele>1099.9</ele>
        <time>2023-01-21T10:11:34.000Z</time>
      </trkpt>
      <trkpt lat="46.27262" lon="6.55651">
        <ele>1100</ele>
        <time>2023-01-21T10:11:35.000Z</time>
      </trkpt>
      <trkpt lat="46.27262" lon="6.55651">
        <ele>1100.2</ele>
        <time>2023-01-21T10:11:36.000Z</time>
      </trkpt>
      <trkpt lat="46.27262" lon="6.55651">
        <ele>1100.4</ele>
        <time>2023-01-21T10:11:37.000Z</time>
      </trkpt>
      <trkpt lat="46.27262" lon="6.55651">
        <ele>1100.9</ele>
        <time>2023-01-21T10:11:38.000Z</time>
      </trkpt>
      <trkpt lat="46.27263" lon="6.55651">
        <ele>1101.1</ele>
        <time>2023-01-21T10:11:39.000Z</time>
      </trkpt>
      <trkpt lat="46.27263" lon="6.55651">
        <ele>1101.2</ele>
        <time>2023-01-21T10:11:40.000Z</time>
      </trkpt>
      <trkpt lat="46.27263" lon="6.5565">
        <ele>1101.3</ele>
        <time>2023-01-21T10:11:41.000Z</time>
      </trkpt>
      <trkpt lat="46.27264" lon="6.5565">
        <ele>1101.6</ele>
        <time>2023-01-21T10:11:42.000Z</time>
      </trkpt>
      <trkpt lat="46.27264" lon="6.5565">
        <ele>1101.8</ele>
        <time>2023-01-21T10:11:43.000Z</time>
      </trkpt>
      <trkpt lat="46.27264" lon="6.55649">
        <ele>1102</ele>
        <time>2023-01-21T10:11:44.000Z</time>
      </trkpt>
      <trkpt lat="46.27264" lon="6.55649">
        <ele>1102.3</ele>
        <time>2023-01-21T10:11:45.000Z</time>
      </trkpt>
      <trkpt lat="46.27264" lon="6.55649">
        <ele>1102.3</ele>
        <time>2023-01-21T10:11:46.000Z</time>
      </trkpt>
      <trkpt lat="46.27265" lon="6.55649">
        <ele>1102.8</ele>
        <time>2023-01-21T10:11:47.000Z</time>
      </trkpt>
      <trkpt lat="46.27266" lon="6.55649">
        <ele>1103</ele>
        <time>2023-01-21T10:11:48.000Z</time>
      </trkpt>
      <trkpt lat="46.27268" lon="6.55649">
        <ele>1103.2</ele>
        <time>2023-01-21T10:11:49.000Z</time>
      </trkpt>
      <trkpt lat="46.27268" lon="6.55649">
        <ele>1103.4</ele>
        <time>2023-01-21T10:11:50.000Z</time>
      </trkpt>
      <trkpt lat="46.27269" lon="6.55648">
        <ele>1103.4</ele>
        <time>2023-01-21T10:11:51.000Z</time>
      </trkpt>
      <trkpt lat="46.2727" lon="6.55648">
        <ele>1103.8</ele>
        <time>2023-01-21T10:11:52.000Z</time>
      </trkpt>
      <trkpt lat="46.2727" lon="6.55649">
        <ele>1103.9</ele>
        <time>2023-01-21T10:11:53.000Z</time>
      </trkpt>
      <trkpt lat="46.2727" lon="6.55649">
        <ele>1104.3</ele>
        <time>2023-01-21T10:11:54.000Z</time>
      </trkpt>
      <trkpt lat="46.27271" lon="6.5565">
        <ele>1104.6</ele>
        <time>2023-01-21T10:11:55.000Z</time>
      </trkpt>
      <trkpt lat="46.27272" lon="6.5565">
        <ele>1105.1</ele>
        <time>2023-01-21T10:11:56.000Z</time>
      </trkpt>
      <trkpt lat="46.27272" lon="6.55651">
        <ele>1105.4</ele>
        <time>2023-01-21T10:11:57.000Z</time>
      </trkpt>
      <trkpt lat="46.27273" lon="6.55652">
        <ele>1105.9</ele>
        <time>2023-01-21T10:11:58.000Z</time>
      </trkpt>
      <trkpt lat="46.27273" lon="6.55653">
        <ele>1106.4</ele>
        <time>2023-01-21T10:11:59.000Z</time>
      </trkpt>
      <trkpt lat="46.27274" lon="6.55653">
        <ele>1106.8</ele>
        <time>2023-01-21T10:12:00.000Z</time>
      </trkpt>
      <trkpt lat="46.27275" lon="6.55653">
        <ele>1107.4</ele>
        <time>2023-01-21T10:12:01.000Z</time>
      </trkpt>
      <trkpt lat="46.27276" lon="6.55652">
        <ele>1107.7</ele>
        <time>2023-01-21T10:12:02.000Z</time>
      </trkpt>
      <trkpt lat="46.27277" lon="6.55652">
        <ele>1108.2</ele>
        <time>2023-01-21T10:12:03.000Z</time>
      </trkpt>
      <trkpt lat="46.27278" lon="6.55652">
        <ele>1108.6</ele>
        <time>2023-01-21T10:12:04.000Z</time>
      </trkpt>
      <trkpt lat="46.27279" lon="6.55652">
        <ele>1109.1</ele>
        <time>2023-01-21T10:12:05.000Z</time>
      </trkpt>
      <trkpt lat="46.2728" lon="6.55652">
        <ele>1109.4</ele>
        <time>2023-01-21T10:12:06.000Z</time>
      </trkpt>
      <trkpt lat="46.2728" lon="6.55652">
        <ele>1109.6</ele>
        <time>2023-01-21T10:12:07.000Z</time>
      </trkpt>
      <trkpt lat="46.27281" lon="6.55652">
        <ele>1109.8</ele>
        <time>2023-01-21T10:12:08.000Z</time>
      </trkpt>
      <trkpt lat="46.27281" lon="6.55652">
        <ele>1110</ele>
        <time>2023-01-21T10:12:09.000Z</time>
      </trkpt>
      <trkpt lat="46.27282" lon="6.55652">
        <ele>1110.2</ele>
        <time>2023-01-21T10:12:10.000Z</time>
      </trkpt>
      <trkpt lat="46.27282" lon="6.55652">
        <ele>1110.5</ele>
        <time>2023-01-21T10:12:11.000Z</time>
      </trkpt>
      <trkpt lat="46.27282" lon="6.55652">
        <ele>1110.8</ele>
        <time>2023-01-21T10:12:12.000Z</time>
      </trkpt>
      <trkpt lat="46.27283" lon="6.55651">
        <ele>1111</ele>
        <time>2023-01-21T10:12:13.000Z</time>
      </trkpt>
      <trkpt lat="46.27283" lon="6.55652">
        <ele>1111.4</ele>
        <time>2023-01-21T10:12:14.000Z</time>
      </trkpt>
      <trkpt lat="46.27283" lon="6.55652">
        <ele>1111.8</ele>
        <time>2023-01-21T10:12:15.000Z</time>
      </trkpt>
      <trkpt lat="46.27283" lon="6.55651">
        <ele>1112.4</ele>
        <time>2023-01-21T10:12:16.000Z</time>
      </trkpt>
      <trkpt lat="46.27284" lon="6.55651">
        <ele>1112.7</ele>
        <time>2023-01-21T10:12:17.000Z</time>
      </trkpt>
      <trkpt lat="46.27284" lon="6.55651">
        <ele>1113.2</ele>
        <time>2023-01-21T10:12:18.000Z</time>
      </trkpt>
      <trkpt lat="46.27285" lon="6.55651">
        <ele>1113.5</ele>
        <time>2023-01-21T10:12:19.000Z</time>
      </trkpt>
      <trkpt lat="46.27286" lon="6.55651">
        <ele>1113.9</ele>
        <time>2023-01-21T10:12:20.000Z</time>
      </trkpt>
      <trkpt lat="46.27286" lon="6.55652">
        <ele>1114.2</ele>
        <time>2023-01-21T10:12:21.000Z</time>
      </trkpt>
      <trkpt lat="46.27286" lon="6.55652">
        <ele>1114.4</ele>
        <time>2023-01-21T10:12:22.000Z</time>
      </trkpt>
      <trkpt lat="46.27287" lon="6.55654">
        <ele>1114.8</ele>
        <time>2023-01-21T10:12:23.000Z</time>
      </trkpt>
      <trkpt lat="46.27288" lon="6.55655">
        <ele>1115.1</ele>
        <time>2023-01-21T10:12:24.000Z</time>
      </trkpt>
      <trkpt lat="46.27288" lon="6.55656">
        <ele>1115.5</ele>
        <time>2023-01-21T10:12:25.000Z</time>
      </trkpt>
      <trkpt lat="46.27288" lon="6.55657">
        <ele>1115.9</ele>
        <time>2023-01-21T10:12:26.000Z</time>
      </trkpt>
      <trkpt lat="46.27289" lon="6.55657">
        <ele>1116.1</ele>
        <time>2023-01-21T10:12:27.000Z</time>
      </trkpt>
      <trkpt lat="46.27289" lon="6.55658">
        <ele>1116.3</ele>
        <time>2023-01-21T10:12:28.000Z</time>
      </trkpt>
      <trkpt lat="46.2729" lon="6.55658">
        <ele>1116.4</ele>
        <time>2023-01-21T10:12:29.000Z</time>
      </trkpt>
      <trkpt lat="46.2729" lon="6.55659">
        <ele>1116.7</ele>
        <time>2023-01-21T10:12:30.000Z</time>
      </trkpt>
      <trkpt lat="46.27291" lon="6.5566">
        <ele>1116.9</ele>
        <time>2023-01-21T10:12:31.000Z</time>
      </trkpt>
      <trkpt lat="46.27291" lon="6.55661">
        <ele>1117.1</ele>
        <time>2023-01-21T10:12:32.000Z</time>
      </trkpt>
      <trkpt lat="46.27291" lon="6.55663">
        <ele>1117.3</ele>
        <time>2023-01-21T10:12:33.000Z</time>
      </trkpt>
      <trkpt lat="46.27292" lon="6.55664">
        <ele>1117.3</ele>
        <time>2023-01-21T10:12:34.000Z</time>
      </trkpt>
      <trkpt lat="46.27292" lon="6.55665">
        <ele>1117.1</ele>
        <time>2023-01-21T10:12:35.000Z</time>
      </trkpt>
      <trkpt lat="46.27292" lon="6.55666">
        <ele>1117.2</ele>
        <time>2023-01-21T10:12:36.000Z</time>
      </trkpt>
      <trkpt lat="46.27292" lon="6.55667">
        <ele>1117.2</ele>
        <time>2023-01-21T10:12:37.000Z</time>
      </trkpt>
      <trkpt lat="46.27292" lon="6.55668">
        <ele>1117.2</ele>
        <time>2023-01-21T10:12:38.000Z</time>
      </trkpt>
      <trkpt lat="46.27292" lon="6.55669">
        <ele>1117.3</ele>
        <time>2023-01-21T10:12:39.000Z</time>
      </trkpt>
      <trkpt lat="46.27292" lon="6.5567">
        <ele>1117.3</ele>
        <time>2023-01-21T10:12:40.000Z</time>
      </trkpt>
      <trkpt lat="46.27292" lon="6.55671">
        <ele>1117.4</ele>
        <time>2023-01-21T10:12:41.000Z</time>
      </trkpt>
      <trkpt lat="46.27292" lon="6.55672">
        <ele>1117.5</ele>
        <time>2023-01-21T10:12:42.000Z</time>
      </trkpt>
      <trkpt lat="46.27292" lon="6.55673">
        <ele>1117.7</ele>
        <time>2023-01-21T10:12:43.000Z</time>
      </trkpt>
      <trkpt lat="46.27291" lon="6.55674">
        <ele>1117.8</ele>
        <time>2023-01-21T10:12:44.000Z</time>
      </trkpt>
      <trkpt lat="46.27291" lon="6.55675">
        <ele>1118</ele>
        <time>2023-01-21T10:12:45.000Z</time>
      </trkpt>
      <trkpt lat="46.27291" lon="6.55675">
        <ele>1118</ele>
        <time>2023-01-21T10:12:46.000Z</time>
      </trkpt>
      <trkpt lat="46.27291" lon="6.55676">
        <ele>1118</ele>
        <time>2023-01-21T10:12:47.000Z</time>
      </trkpt>
      <trkpt lat="46.27292" lon="6.55677">
        <ele>1118.3</ele>
        <time>2023-01-21T10:12:48.000Z</time>
      </trkpt>
      <trkpt lat="46.27292" lon="6.55678">
        <ele>1118.5</ele>
        <time>2023-01-21T10:12:49.000Z</time>
      </trkpt>
      <trkpt lat="46.27291" lon="6.55678">
        <ele>1118.8</ele>
        <time>2023-01-21T10:12:50.000Z</time>
      </trkpt>
      <trkpt lat="46.27292" lon="6.55679">
        <ele>1119.2</ele>
        <time>2023-01-21T10:12:51.000Z</time>
      </trkpt>
      <trkpt lat="46.27291" lon="6.55679">
        <ele>1119.5</ele>
        <time>2023-01-21T10:12:52.000Z</time>
      </trkpt>
      <trkpt lat="46.27291" lon="6.55679">
        <ele>1119.4</ele>
        <time>2023-01-21T10:12:53.000Z</time>
      </trkpt>
      <trkpt lat="46.27291" lon="6.55679">
        <ele>1119.5</ele>
        <time>2023-01-21T10:12:54.000Z</time>
      </trkpt>
      <trkpt lat="46.27291" lon="6.5568">
        <ele>1119.5</ele>
        <time>2023-01-21T10:12:55.000Z</time>
      </trkpt>
      <trkpt lat="46.27291" lon="6.55681">
        <ele>1119.8</ele>
        <time>2023-01-21T10:12:56.000Z</time>
      </trkpt>
      <trkpt lat="46.2729" lon="6.55681">
        <ele>1119.9</ele>
        <time>2023-01-21T10:12:57.000Z</time>
      </trkpt>
      <trkpt lat="46.2729" lon="6.55681">
        <ele>1120.1</ele>
        <time>2023-01-21T10:12:58.000Z</time>
      </trkpt>
      <trkpt lat="46.27289" lon="6.55682">
        <ele>1120.3</ele>
        <time>2023-01-21T10:12:59.000Z</time>
      </trkpt>
      <trkpt lat="46.27288" lon="6.55682">
        <ele>1120.4</ele>
        <time>2023-01-21T10:13:00.000Z</time>
      </trkpt>
      <trkpt lat="46.27288" lon="6.55683">
        <ele>1120.5</ele>
        <time>2023-01-21T10:13:01.000Z</time>
      </trkpt>
      <trkpt lat="46.27287" lon="6.55682">
        <ele>1120.7</ele>
        <time>2023-01-21T10:13:02.000Z</time>
      </trkpt>
      <trkpt lat="46.27287" lon="6.55683">
        <ele>1120.8</ele>
        <time>2023-01-21T10:13:03.000Z</time>
      </trkpt>
      <trkpt lat="46.27286" lon="6.55683">
        <ele>1120.9</ele>
        <time>2023-01-21T10:13:04.000Z</time>
      </trkpt>
      <trkpt lat="46.27286" lon="6.55684">
        <ele>1121</ele>
        <time>2023-01-21T10:13:05.000Z</time>
      </trkpt>
      <trkpt lat="46.27285" lon="6.55684">
        <ele>1121.2</ele>
        <time>2023-01-21T10:13:06.000Z</time>
      </trkpt>
      <trkpt lat="46.27284" lon="6.55684">
        <ele>1121.4</ele>
        <time>2023-01-21T10:13:07.000Z</time>
      </trkpt>
      <trkpt lat="46.27283" lon="6.55684">
        <ele>1121.4</ele>
        <time>2023-01-21T10:13:08.000Z</time>
      </trkpt>
      <trkpt lat="46.27283" lon="6.55685">
        <ele>1121.6</ele>
        <time>2023-01-21T10:13:09.000Z</time>
      </trkpt>
      <trkpt lat="46.27282" lon="6.55685">
        <ele>1121.8</ele>
        <time>2023-01-21T10:13:10.000Z</time>
      </trkpt>
      <trkpt lat="46.27282" lon="6.55686">
        <ele>1121.9</ele>
        <time>2023-01-21T10:13:11.000Z</time>
      </trkpt>
      <trkpt lat="46.27281" lon="6.55686">
        <ele>1121.8</ele>
        <time>2023-01-21T10:13:12.000Z</time>
      </trkpt>
      <trkpt lat="46.27281" lon="6.55686">
        <ele>1121.9</ele>
        <time>2023-01-21T10:13:13.000Z</time>
      </trkpt>
      <trkpt lat="46.2728" lon="6.55686">
        <ele>1121.7</ele>
        <time>2023-01-21T10:13:14.000Z</time>
      </trkpt>
      <trkpt lat="46.2728" lon="6.55687">
        <ele>1121.7</ele>
        <time>2023-01-21T10:13:15.000Z</time>
      </trkpt>
      <trkpt lat="46.27281" lon="6.55687">
        <ele>1121.9</ele>
        <time>2023-01-21T10:13:16.000Z</time>
      </trkpt>
      <trkpt lat="46.27282" lon="6.55686">
        <ele>1121.6</ele>
        <time>2023-01-21T10:13:17.000Z</time>
      </trkpt>
      <trkpt lat="46.27282" lon="6.55686">
        <ele>1121.6</ele>
        <time>2023-01-21T10:13:18.000Z</time>
      </trkpt>
      <trkpt lat="46.27282" lon="6.55686">
        <ele>1121.7</ele>
        <time>2023-01-21T10:13:19.000Z</time>
      </trkpt>
      <trkpt lat="46.27282" lon="6.55687">
        <ele>1121.9</ele>
        <time>2023-01-21T10:13:20.000Z</time>
      </trkpt>
      <trkpt lat="46.27282" lon="6.55687">
        <ele>1121.9</ele>
        <time>2023-01-21T10:13:21.000Z</time>
      </trkpt>
      <trkpt lat="46.27282" lon="6.55687">
        <ele>1121.9</ele>
        <time>2023-01-21T10:13:22.000Z</time>
      </trkpt>
      <trkpt lat="46.27282" lon="6.55687">
        <ele>1121.9</ele>
        <time>2023-01-21T10:13:23.000Z</time>
      </trkpt>
      <trkpt lat="46.27282" lon="6.55687">
        <ele>1121.9</ele>
        <time>2023-01-21T10:13:24.000Z</time>
      </trkpt>
      <trkpt lat="46.27282" lon="6.55687">
        <ele>1121.9</ele>
        <time>2023-01-21T10:13:25.000Z</time>
      </trkpt>
      <trkpt lat="46.27282" lon="6.55687">
        <ele>1121.9</ele>
        <time>2023-01-21T10:13:26.000Z</time>
      </trkpt>
      <trkpt lat="46.27282" lon="6.55687">
        <ele>1121.9</ele>
        <time>2023-01-21T10:13:27.000Z</time>
      </trkpt>
      <trkpt lat="46.27282" lon="6.55687">
        <ele>1121.9</ele>
        <time>2023-01-21T10:13:28.000Z</time>
      </trkpt>
      <trkpt lat="46.27282" lon="6.55687">
        <ele>1121.9</ele>
        <time>2023-01-21T10:13:29.000Z</time>
      </trkpt>
      <trkpt lat="46.27282" lon="6.55687">
        <ele>1121.9</ele>
        <time>2023-01-21T10:13:30.000Z</time>
      </trkpt>
      <trkpt lat="46.27281" lon="6.55692">
        <ele>1122.4</ele>
        <time>2023-01-21T10:13:31.000Z</time>
      </trkpt>
      <trkpt lat="46.27281" lon="6.55691">
        <ele>1122.1</ele>
        <time>2023-01-21T10:13:32.000Z</time>
      </trkpt>
      <trkpt lat="46.27281" lon="6.5569">
        <ele>1121.8</ele>
        <time>2023-01-21T10:13:33.000Z</time>
      </trkpt>
      <trkpt lat="46.27282" lon="6.55688">
        <ele>1121.7</ele>
        <time>2023-01-21T10:13:34.000Z</time>
      </trkpt>
      <trkpt lat="46.27282" lon="6.55688">
        <ele>1122.1</ele>
        <time>2023-01-21T10:13:35.000Z</time>
      </trkpt>
      <trkpt lat="46.27282" lon="6.55688">
        <ele>1121.5</ele>
        <time>2023-01-21T10:13:36.000Z</time>
      </trkpt>
      <trkpt lat="46.27283" lon="6.55687">
        <ele>1121.8</ele>
        <time>2023-01-21T10:13:37.000Z</time>
      </trkpt>
      <trkpt lat="46.27284" lon="6.55686">
        <ele>1121.9</ele>
        <time>2023-01-21T10:13:38.000Z</time>
      </trkpt>
      <trkpt lat="46.27285" lon="6.55685">
        <ele>1121.7</ele>
        <time>2023-01-21T10:13:39.000Z</time>
      </trkpt>
      <trkpt lat="46.27286" lon="6.55685">
        <ele>1121.6</ele>
        <time>2023-01-21T10:13:40.000Z</time>
      </trkpt>
      <trkpt lat="46.27287" lon="6.55684">
        <ele>1121.2</ele>
        <time>2023-01-21T10:13:41.000Z</time>
      </trkpt>
      <trkpt lat="46.27285" lon="6.55684">
        <ele>1122</ele>
        <time>2023-01-21T10:13:42.000Z</time>
      </trkpt>
      <trkpt lat="46.27284" lon="6.55685">
        <ele>1122.6</ele>
        <time>2023-01-21T10:13:43.000Z</time>
      </trkpt>
      <trkpt lat="46.27283" lon="6.55687">
        <ele>1123.8</ele>
        <time>2023-01-21T10:13:44.000Z</time>
      </trkpt>
      <trkpt lat="46.27282" lon="6.55688">
        <ele>1125.2</ele>
        <time>2023-01-21T10:13:45.000Z</time>
      </trkpt>
      <trkpt lat="46.27281" lon="6.55688">
        <ele>1125.7</ele>
        <time>2023-01-21T10:13:46.000Z</time>
      </trkpt>
      <trkpt lat="46.2728" lon="6.55688">
        <ele>1126.4</ele>
        <time>2023-01-21T10:13:47.000Z</time>
      </trkpt>
      <trkpt lat="46.27279" lon="6.55688">
        <ele>1127</ele>
        <time>2023-01-21T10:13:48.000Z</time>
      </trkpt>
      <trkpt lat="46.27279" lon="6.55688">
        <ele>1127.4</ele>
        <time>2023-01-21T10:13:49.000Z</time>
      </trkpt>
      <trkpt lat="46.27278" lon="6.55687">
        <ele>1127.2</ele>
        <time>2023-01-21T10:13:50.000Z</time>
      </trkpt>
      <trkpt lat="46.27278" lon="6.55687">
        <ele>1127.7</ele>
        <time>2023-01-21T10:13:51.000Z</time>
      </trkpt>
      <trkpt lat="46.27278" lon="6.55686">
        <ele>1128.2</ele>
        <time>2023-01-21T10:13:52.000Z</time>
      </trkpt>
      <trkpt lat="46.27278" lon="6.55686">
        <ele>1128.8</ele>
        <time>2023-01-21T10:13:53.000Z</time>
      </trkpt>
      <trkpt lat="46.27277" lon="6.55686">
        <ele>1129</ele>
        <time>2023-01-21T10:13:54.000Z</time>
      </trkpt>
      <trkpt lat="46.27278" lon="6.55685">
        <ele>1129.1</ele>
        <time>2023-01-21T10:13:55.000Z</time>
      </trkpt>
      <trkpt lat="46.27278" lon="6.55685">
        <ele>1129.1</ele>
        <time>2023-01-21T10:13:56.000Z</time>
      </trkpt>
      <trkpt lat="46.27278" lon="6.55685">
        <ele>1129.2</ele>
        <time>2023-01-21T10:13:57.000Z</time>
      </trkpt>
      <trkpt lat="46.27277" lon="6.55684">
        <ele>1128.9</ele>
        <time>2023-01-21T10:13:58.000Z</time>
      </trkpt>
      <trkpt lat="46.27276" lon="6.55685">
        <ele>1128.2</ele>
        <time>2023-01-21T10:13:59.000Z</time>
      </trkpt>
      <trkpt lat="46.27275" lon="6.55686">
        <ele>1128.2</ele>
        <time>2023-01-21T10:14:00.000Z</time>
      </trkpt>
      <trkpt lat="46.27275" lon="6.55686">
        <ele>1128</ele>
        <time>2023-01-21T10:14:01.000Z</time>
      </trkpt>
      <trkpt lat="46.27276" lon="6.55687">
        <ele>1127.1</ele>
        <time>2023-01-21T10:14:02.000Z</time>
      </trkpt>
      <trkpt lat="46.27276" lon="6.55687">
        <ele>1127.9</ele>
        <time>2023-01-21T10:14:03.000Z</time>
      </trkpt>
      <trkpt lat="46.27277" lon="6.55687">
        <ele>1128.2</ele>
        <time>2023-01-21T10:14:04.000Z</time>
      </trkpt>
      <trkpt lat="46.27277" lon="6.55688">
        <ele>1128.1</ele>
        <time>2023-01-21T10:14:05.000Z</time>
      </trkpt>
      <trkpt lat="46.27276" lon="6.55689">
        <ele>1128.2</ele>
        <time>2023-01-21T10:14:06.000Z</time>
      </trkpt>
      <trkpt lat="46.27276" lon="6.55689">
        <ele>1128</ele>
        <time>2023-01-21T10:14:07.000Z</time>
      </trkpt>
      <trkpt lat="46.27276" lon="6.5569">
        <ele>1127.8</ele>
        <time>2023-01-21T10:14:08.000Z</time>
      </trkpt>
      <trkpt lat="46.27276" lon="6.55691">
        <ele>1127.7</ele>
        <time>2023-01-21T10:14:09.000Z</time>
      </trkpt>
      <trkpt lat="46.27276" lon="6.55692">
        <ele>1127.6</ele>
        <time>2023-01-21T10:14:10.000Z</time>
      </trkpt>
      <trkpt lat="46.27276" lon="6.55691">
        <ele>1127.7</ele>
        <time>2023-01-21T10:14:11.000Z</time>
      </trkpt>
      <trkpt lat="46.27275" lon="6.55691">
        <ele>1127.7</ele>
        <time>2023-01-21T10:14:12.000Z</time>
      </trkpt>
      <trkpt lat="46.27275" lon="6.5569">
        <ele>1128.1</ele>
        <time>2023-01-21T10:14:13.000Z</time>
      </trkpt>
      <trkpt lat="46.27275" lon="6.55689">
        <ele>1128.4</ele>
        <time>2023-01-21T10:14:14.000Z</time>
      </trkpt>
      <trkpt lat="46.27274" lon="6.55689">
        <ele>1128.8</ele>
        <time>2023-01-21T10:14:15.000Z</time>
      </trkpt>
      <trkpt lat="46.27274" lon="6.55689">
        <ele>1129.1</ele>
        <time>2023-01-21T10:14:16.000Z</time>
      </trkpt>
      <trkpt lat="46.27274" lon="6.55688">
        <ele>1129.4</ele>
        <time>2023-01-21T10:14:17.000Z</time>
      </trkpt>
      <trkpt lat="46.27273" lon="6.55688">
        <ele>1129</ele>
        <time>2023-01-21T10:14:18.000Z</time>
      </trkpt>
      <trkpt lat="46.27274" lon="6.55688">
        <ele>1129.1</ele>
        <time>2023-01-21T10:14:19.000Z</time>
      </trkpt>
      <trkpt lat="46.27274" lon="6.55688">
        <ele>1128.9</ele>
        <time>2023-01-21T10:14:20.000Z</time>
      </trkpt>
      <trkpt lat="46.27274" lon="6.55688">
        <ele>1129</ele>
        <time>2023-01-21T10:14:21.000Z</time>
      </trkpt>
      <trkpt lat="46.27274" lon="6.55689">
        <ele>1128.9</ele>
        <time>2023-01-21T10:14:22.000Z</time>
      </trkpt>
      <trkpt lat="46.27275" lon="6.55689">
        <ele>1129</ele>
        <time>2023-01-21T10:14:23.000Z</time>
      </trkpt>
      <trkpt lat="46.27275" lon="6.55689">
        <ele>1129</ele>
        <time>2023-01-21T10:14:24.000Z</time>
      </trkpt>
      <trkpt lat="46.27275" lon="6.55689">
        <ele>1129</ele>
        <time>2023-01-21T10:14:25.000Z</time>
      </trkpt>
      <trkpt lat="46.27276" lon="6.55691">
        <ele>1128.2</ele>
        <time>2023-01-21T10:14:26.000Z</time>
      </trkpt>
      <trkpt lat="46.27276" lon="6.55692">
        <ele>1128.4</ele>
        <time>2023-01-21T10:14:27.000Z</time>
      </trkpt>
      <trkpt lat="46.27276" lon="6.55693">
        <ele>1128.3</ele>
        <time>2023-01-21T10:14:28.000Z</time>
      </trkpt>
      <trkpt lat="46.27276" lon="6.55694">
        <ele>1128.1</ele>
        <time>2023-01-21T10:14:29.000Z</time>
      </trkpt>
      <trkpt lat="46.27276" lon="6.55695">
        <ele>1128.1</ele>
        <time>2023-01-21T10:14:30.000Z</time>
      </trkpt>
      <trkpt lat="46.27276" lon="6.55696">
        <ele>1128.2</ele>
        <time>2023-01-21T10:14:31.000Z</time>
      </trkpt>
      <trkpt lat="46.27275" lon="6.55698">
        <ele>1128.1</ele>
        <time>2023-01-21T10:14:32.000Z</time>
      </trkpt>
      <trkpt lat="46.27275" lon="6.55699">
        <ele>1128</ele>
        <time>2023-01-21T10:14:33.000Z</time>
      </trkpt>
      <trkpt lat="46.27275" lon="6.55701">
        <ele>1128</ele>
        <time>2023-01-21T10:14:34.000Z</time>
      </trkpt>
      <trkpt lat="46.27275" lon="6.55702">
        <ele>1128</ele>
        <time>2023-01-21T10:14:35.000Z</time>
      </trkpt>
      <trkpt lat="46.27275" lon="6.55703">
        <ele>1128</ele>
        <time>2023-01-21T10:14:36.000Z</time>
      </trkpt>
      <trkpt lat="46.27275" lon="6.55703">
        <ele>1128.1</ele>
        <time>2023-01-21T10:14:37.000Z</time>
      </trkpt>
      <trkpt lat="46.27274" lon="6.55704">
        <ele>1128.3</ele>
        <time>2023-01-21T10:14:38.000Z</time>
      </trkpt>
      <trkpt lat="46.27274" lon="6.55705">
        <ele>1128.6</ele>
        <time>2023-01-21T10:14:39.000Z</time>
      </trkpt>
      <trkpt lat="46.27274" lon="6.55706">
        <ele>1128.8</ele>
        <time>2023-01-21T10:14:40.000Z</time>
      </trkpt>
      <trkpt lat="46.27273" lon="6.55707">
        <ele>1129.2</ele>
        <time>2023-01-21T10:14:41.000Z</time>
      </trkpt>
      <trkpt lat="46.27274" lon="6.55708">
        <ele>1129.3</ele>
        <time>2023-01-21T10:14:42.000Z</time>
      </trkpt>
      <trkpt lat="46.27273" lon="6.55709">
        <ele>1129.5</ele>
        <time>2023-01-21T10:14:43.000Z</time>
      </trkpt>
      <trkpt lat="46.27273" lon="6.5571">
        <ele>1129.3</ele>
        <time>2023-01-21T10:14:44.000Z</time>
      </trkpt>
      <trkpt lat="46.27273" lon="6.55711">
        <ele>1129.2</ele>
        <time>2023-01-21T10:14:45.000Z</time>
      </trkpt>
      <trkpt lat="46.27272" lon="6.55712">
        <ele>1129.3</ele>
        <time>2023-01-21T10:14:46.000Z</time>
      </trkpt>
      <trkpt lat="46.27272" lon="6.55714">
        <ele>1129</ele>
        <time>2023-01-21T10:14:47.000Z</time>
      </trkpt>
      <trkpt lat="46.27272" lon="6.55716">
        <ele>1129.2</ele>
        <time>2023-01-21T10:14:48.000Z</time>
      </trkpt>
      <trkpt lat="46.27273" lon="6.55717">
        <ele>1129.1</ele>
        <time>2023-01-21T10:14:49.000Z</time>
      </trkpt>
      <trkpt lat="46.27273" lon="6.55718">
        <ele>1129.1</ele>
        <time>2023-01-21T10:14:50.000Z</time>
      </trkpt>
      <trkpt lat="46.27273" lon="6.5572">
        <ele>1129.2</ele>
        <time>2023-01-21T10:14:51.000Z</time>
      </trkpt>
      <trkpt lat="46.27274" lon="6.5572">
        <ele>1129.3</ele>
        <time>2023-01-21T10:14:52.000Z</time>
      </trkpt>
      <trkpt lat="46.27274" lon="6.55721">
        <ele>1129.3</ele>
        <time>2023-01-21T10:14:53.000Z</time>
      </trkpt>
      <trkpt lat="46.27274" lon="6.55722">
        <ele>1129.6</ele>
        <time>2023-01-21T10:14:54.000Z</time>
      </trkpt>
      <trkpt lat="46.27275" lon="6.55723">
        <ele>1129.9</ele>
        <time>2023-01-21T10:14:55.000Z</time>
      </trkpt>
      <trkpt lat="46.27275" lon="6.55725">
        <ele>1130.2</ele>
        <time>2023-01-21T10:14:56.000Z</time>
      </trkpt>
      <trkpt lat="46.27275" lon="6.55726">
        <ele>1130.5</ele>
        <time>2023-01-21T10:14:57.000Z</time>
      </trkpt>
      <trkpt lat="46.27275" lon="6.55728">
        <ele>1131</ele>
        <time>2023-01-21T10:14:58.000Z</time>
      </trkpt>
      <trkpt lat="46.27276" lon="6.55729">
        <ele>1131.2</ele>
        <time>2023-01-21T10:14:59.000Z</time>
      </trkpt>
      <trkpt lat="46.27277" lon="6.5573">
        <ele>1131.5</ele>
        <time>2023-01-21T10:15:00.000Z</time>
      </trkpt>
      <trkpt lat="46.27277" lon="6.55731">
        <ele>1131.6</ele>
        <time>2023-01-21T10:15:01.000Z</time>
      </trkpt>
      <trkpt lat="46.27278" lon="6.55731">
        <ele>1131.9</ele>
        <time>2023-01-21T10:15:02.000Z</time>
      </trkpt>
      <trkpt lat="46.27279" lon="6.55732">
        <ele>1132.2</ele>
        <time>2023-01-21T10:15:03.000Z</time>
      </trkpt>
      <trkpt lat="46.2728" lon="6.55734">
        <ele>1132.5</ele>
        <time>2023-01-21T10:15:04.000Z</time>
      </trkpt>
      <trkpt lat="46.2728" lon="6.55735">
        <ele>1133</ele>
        <time>2023-01-21T10:15:05.000Z</time>
      </trkpt>
      <trkpt lat="46.2728" lon="6.55736">
        <ele>1133.5</ele>
        <time>2023-01-21T10:15:06.000Z</time>
      </trkpt>
      <trkpt lat="46.27281" lon="6.55736">
        <ele>1134.1</ele>
        <time>2023-01-21T10:15:07.000Z</time>
      </trkpt>
      <trkpt lat="46.27282" lon="6.55737">
        <ele>1134.8</ele>
        <time>2023-01-21T10:15:08.000Z</time>
      </trkpt>
      <trkpt lat="46.27282" lon="6.55737">
        <ele>1135.5</ele>
        <time>2023-01-21T10:15:09.000Z</time>
      </trkpt>
      <trkpt lat="46.27283" lon="6.55738">
        <ele>1136.2</ele>
        <time>2023-01-21T10:15:10.000Z</time>
      </trkpt>
      <trkpt lat="46.27283" lon="6.55738">
        <ele>1136.3</ele>
        <time>2023-01-21T10:15:11.000Z</time>
      </trkpt>
      <trkpt lat="46.27283" lon="6.55738">
        <ele>1136.6</ele>
        <time>2023-01-21T10:15:12.000Z</time>
      </trkpt>
      <trkpt lat="46.27283" lon="6.55738">
        <ele>1136.6</ele>
        <time>2023-01-21T10:15:13.000Z</time>
      </trkpt>
      <trkpt lat="46.27284" lon="6.55738">
        <ele>1136.8</ele>
        <time>2023-01-21T10:15:14.000Z</time>
      </trkpt>
      <trkpt lat="46.27284" lon="6.55739">
        <ele>1137.1</ele>
        <time>2023-01-21T10:15:15.000Z</time>
      </trkpt>
      <trkpt lat="46.27284" lon="6.55739">
        <ele>1137.1</ele>
        <time>2023-01-21T10:15:16.000Z</time>
      </trkpt>
      <trkpt lat="46.27284" lon="6.5574">
        <ele>1137.3</ele>
        <time>2023-01-21T10:15:17.000Z</time>
      </trkpt>
      <trkpt lat="46.27284" lon="6.5574">
        <ele>1137.6</ele>
        <time>2023-01-21T10:15:18.000Z</time>
      </trkpt>
      <trkpt lat="46.27284" lon="6.55741">
        <ele>1137.8</ele>
        <time>2023-01-21T10:15:19.000Z</time>
      </trkpt>
      <trkpt lat="46.27284" lon="6.55742">
        <ele>1138.1</ele>
        <time>2023-01-21T10:15:20.000Z</time>
      </trkpt>
      <trkpt lat="46.27284" lon="6.55743">
        <ele>1138.4</ele>
        <time>2023-01-21T10:15:21.000Z</time>
      </trkpt>
      <trkpt lat="46.27284" lon="6.55744">
        <ele>1138.7</ele>
        <time>2023-01-21T10:15:22.000Z</time>
      </trkpt>
      <trkpt lat="46.27285" lon="6.55744">
        <ele>1139</ele>
        <time>2023-01-21T10:15:23.000Z</time>
      </trkpt>
      <trkpt lat="46.27285" lon="6.55745">
        <ele>1139.3</ele>
        <time>2023-01-21T10:15:24.000Z</time>
      </trkpt>
      <trkpt lat="46.27286" lon="6.55746">
        <ele>1139.6</ele>
        <time>2023-01-21T10:15:25.000Z</time>
      </trkpt>
      <trkpt lat="46.27286" lon="6.55746">
        <ele>1140</ele>
        <time>2023-01-21T10:15:26.000Z</time>
      </trkpt>
      <trkpt lat="46.27286" lon="6.55746">
        <ele>1140.3</ele>
        <time>2023-01-21T10:15:27.000Z</time>
      </trkpt>
      <trkpt lat="46.27286" lon="6.55747">
        <ele>1140.6</ele>
        <time>2023-01-21T10:15:28.000Z</time>
      </trkpt>
      <trkpt lat="46.27286" lon="6.55747">
        <ele>1140.8</ele>
        <time>2023-01-21T10:15:29.000Z</time>
      </trkpt>
      <trkpt lat="46.27287" lon="6.55747">
        <ele>1140.9</ele>
        <time>2023-01-21T10:15:30.000Z</time>
      </trkpt>
      <trkpt lat="46.27286" lon="6.55748">
        <ele>1140.8</ele>
        <time>2023-01-21T10:15:31.000Z</time>
      </trkpt>
      <trkpt lat="46.27286" lon="6.55748">
        <ele>1140.9</ele>
        <time>2023-01-21T10:15:32.000Z</time>
      </trkpt>
      <trkpt lat="46.27286" lon="6.55748">
        <ele>1141</ele>
        <time>2023-01-21T10:15:33.000Z</time>
      </trkpt>
      <trkpt lat="46.27287" lon="6.55748">
        <ele>1140.9</ele>
        <time>2023-01-21T10:15:34.000Z</time>
      </trkpt>
      <trkpt lat="46.27287" lon="6.55748">
        <ele>1140.9</ele>
        <time>2023-01-21T10:15:35.000Z</time>
      </trkpt>
      <trkpt lat="46.27286" lon="6.55748">
        <ele>1140.5</ele>
        <time>2023-01-21T10:15:36.000Z</time>
      </trkpt>
      <trkpt lat="46.27286" lon="6.55748">
        <ele>1140.5</ele>
        <time>2023-01-21T10:15:37.000Z</time>
      </trkpt>
      <trkpt lat="46.27286" lon="6.55748">
        <ele>1140.5</ele>
        <time>2023-01-21T10:15:38.000Z</time>
      </trkpt>
      <trkpt lat="46.27286" lon="6.55748">
        <ele>1140.5</ele>
        <time>2023-01-21T10:15:39.000Z</time>
      </trkpt>
      <trkpt lat="46.27286" lon="6.55748">
        <ele>1140.5</ele>
        <time>2023-01-21T10:15:40.000Z</time>
      </trkpt>
      <trkpt lat="46.27286" lon="6.55748">
        <ele>1140.5</ele>
        <time>2023-01-21T10:15:41.000Z</time>
      </trkpt>
      <trkpt lat="46.27285" lon="6.5575">
        <ele>1140.3</ele>
        <time>2023-01-21T10:15:42.000Z</time>
      </trkpt>
      <trkpt lat="46.27285" lon="6.55751">
        <ele>1140.4</ele>
        <time>2023-01-21T10:15:43.000Z</time>
      </trkpt>
      <trkpt lat="46.27285" lon="6.55751">
        <ele>1140.7</ele>
        <time>2023-01-21T10:15:44.000Z</time>
      </trkpt>
      <trkpt lat="46.27284" lon="6.55751">
        <ele>1140.9</ele>
        <time>2023-01-21T10:15:45.000Z</time>
      </trkpt>
      <trkpt lat="46.27284" lon="6.55751">
        <ele>1141</ele>
        <time>2023-01-21T10:15:46.000Z</time>
      </trkpt>
      <trkpt lat="46.27284" lon="6.55751">
        <ele>1141</ele>
        <time>2023-01-21T10:15:47.000Z</time>
      </trkpt>
      <trkpt lat="46.27284" lon="6.55751">
        <ele>1141</ele>
        <time>2023-01-21T10:15:48.000Z</time>
      </trkpt>
      <trkpt lat="46.27284" lon="6.55751">
        <ele>1141</ele>
        <time>2023-01-21T10:15:49.000Z</time>
      </trkpt>
      <trkpt lat="46.27284" lon="6.55751">
        <ele>1141</ele>
        <time>2023-01-21T10:15:50.000Z</time>
      </trkpt>
      <trkpt lat="46.27284" lon="6.55751">
        <ele>1141</ele>
        <time>2023-01-21T10:15:51.000Z</time>
      </trkpt>
      <trkpt lat="46.27284" lon="6.55751">
        <ele>1141</ele>
        <time>2023-01-21T10:15:52.000Z</time>
      </trkpt>
      <trkpt lat="46.27284" lon="6.55751">
        <ele>1141</ele>
        <time>2023-01-21T10:15:53.000Z</time>
      </trkpt>
      <trkpt lat="46.27284" lon="6.55751">
        <ele>1141</ele>
        <time>2023-01-21T10:15:54.000Z</time>
      </trkpt>
      <trkpt lat="46.27284" lon="6.55751">
        <ele>1141</ele>
        <time>2023-01-21T10:15:55.000Z</time>
      </trkpt>
      <trkpt lat="46.27284" lon="6.55751">
        <ele>1141</ele>
        <time>2023-01-21T10:15:56.000Z</time>
      </trkpt>
      <trkpt lat="46.27284" lon="6.55751">
        <ele>1141</ele>
        <time>2023-01-21T10:15:57.000Z</time>
      </trkpt>
      <trkpt lat="46.27284" lon="6.55751">
        <ele>1141</ele>
        <time>2023-01-21T10:15:58.000Z</time>
      </trkpt>
      <trkpt lat="46.27285" lon="6.55765">
        <ele>1140.9</ele>
        <time>2023-01-21T10:15:59.000Z</time>
      </trkpt>
      <trkpt lat="46.27285" lon="6.55766">
        <ele>1140.7</ele>
        <time>2023-01-21T10:16:00.000Z</time>
      </trkpt>
      <trkpt lat="46.27285" lon="6.55767">
        <ele>1140.5</ele>
        <time>2023-01-21T10:16:01.000Z</time>
      </trkpt>
      <trkpt lat="46.27286" lon="6.55768">
        <ele>1140.3</ele>
        <time>2023-01-21T10:16:02.000Z</time>
      </trkpt>
      <trkpt lat="46.27286" lon="6.55768">
        <ele>1140.3</ele>
        <time>2023-01-21T10:16:03.000Z</time>
      </trkpt>
      <trkpt lat="46.27286" lon="6.55768">
        <ele>1140.3</ele>
        <time>2023-01-21T10:16:04.000Z</time>
      </trkpt>
      <trkpt lat="46.27286" lon="6.55768">
        <ele>1140.3</ele>
        <time>2023-01-21T10:16:05.000Z</time>
      </trkpt>
      <trkpt lat="46.27286" lon="6.55768">
        <ele>1140.3</ele>
        <time>2023-01-21T10:16:06.000Z</time>
      </trkpt>
      <trkpt lat="46.27286" lon="6.55768">
        <ele>1140.3</ele>
        <time>2023-01-21T10:16:07.000Z</time>
      </trkpt>
      <trkpt lat="46.27286" lon="6.55768">
        <ele>1140.3</ele>
        <time>2023-01-21T10:16:08.000Z</time>
      </trkpt>
      <trkpt lat="46.27286" lon="6.55768">
        <ele>1140.3</ele>
        <time>2023-01-21T10:16:09.000Z</time>
      </trkpt>
      <trkpt lat="46.27286" lon="6.55768">
        <ele>1140.3</ele>
        <time>2023-01-21T10:16:10.000Z</time>
      </trkpt>
      <trkpt lat="46.27286" lon="6.55768">
        <ele>1140.3</ele>
        <time>2023-01-21T10:16:11.000Z</time>
      </trkpt>
      <trkpt lat="46.27286" lon="6.55768">
        <ele>1140.3</ele>
        <time>2023-01-21T10:16:12.000Z</time>
      </trkpt>
      <trkpt lat="46.27286" lon="6.55768">
        <ele>1140.3</ele>
        <time>2023-01-21T10:16:13.000Z</time>
      </trkpt>
      <trkpt lat="46.27288" lon="6.55776">
        <ele>1141.5</ele>
        <time>2023-01-21T10:16:14.000Z</time>
      </trkpt>
      <trkpt lat="46.27288" lon="6.55777">
        <ele>1141.8</ele>
        <time>2023-01-21T10:16:15.000Z</time>
      </trkpt>
      <trkpt lat="46.27287" lon="6.55778">
        <ele>1142</ele>
        <time>2023-01-21T10:16:16.000Z</time>
      </trkpt>
      <trkpt lat="46.27286" lon="6.55778">
        <ele>1142.2</ele>
        <time>2023-01-21T10:16:17.000Z</time>
      </trkpt>
      <trkpt lat="46.27286" lon="6.55779">
        <ele>1142.5</ele>
        <time>2023-01-21T10:16:18.000Z</time>
      </trkpt>
      <trkpt lat="46.27286" lon="6.5578">
        <ele>1142.5</ele>
        <time>2023-01-21T10:16:19.000Z</time>
      </trkpt>
      <trkpt lat="46.27286" lon="6.5578">
        <ele>1142.5</ele>
        <time>2023-01-21T10:16:20.000Z</time>
      </trkpt>
      <trkpt lat="46.27286" lon="6.55782">
        <ele>1142.4</ele>
        <time>2023-01-21T10:16:21.000Z</time>
      </trkpt>
      <trkpt lat="46.27286" lon="6.55783">
        <ele>1142.3</ele>
        <time>2023-01-21T10:16:22.000Z</time>
      </trkpt>
      <trkpt lat="46.27286" lon="6.55784">
        <ele>1142.4</ele>
        <time>2023-01-21T10:16:23.000Z</time>
      </trkpt>
      <trkpt lat="46.27287" lon="6.55785">
        <ele>1142.4</ele>
        <time>2023-01-21T10:16:24.000Z</time>
      </trkpt>
      <trkpt lat="46.27286" lon="6.55786">
        <ele>1142.5</ele>
        <time>2023-01-21T10:16:25.000Z</time>
      </trkpt>
      <trkpt lat="46.27286" lon="6.55787">
        <ele>1142.4</ele>
        <time>2023-01-21T10:16:26.000Z</time>
      </trkpt>
      <trkpt lat="46.27286" lon="6.55789">
        <ele>1142.5</ele>
        <time>2023-01-21T10:16:27.000Z</time>
      </trkpt>
      <trkpt lat="46.27286" lon="6.5579">
        <ele>1142.6</ele>
        <time>2023-01-21T10:16:28.000Z</time>
      </trkpt>
      <trkpt lat="46.27286" lon="6.5579">
        <ele>1143</ele>
        <time>2023-01-21T10:16:29.000Z</time>
      </trkpt>
      <trkpt lat="46.27285" lon="6.55791">
        <ele>1143.1</ele>
        <time>2023-01-21T10:16:30.000Z</time>
      </trkpt>
      <trkpt lat="46.27285" lon="6.55791">
        <ele>1143.5</ele>
        <time>2023-01-21T10:16:31.000Z</time>
      </trkpt>
      <trkpt lat="46.27284" lon="6.55793">
        <ele>1143.7</ele>
        <time>2023-01-21T10:16:32.000Z</time>
      </trkpt>
      <trkpt lat="46.27284" lon="6.55794">
        <ele>1143.7</ele>
        <time>2023-01-21T10:16:33.000Z</time>
      </trkpt>
      <trkpt lat="46.27283" lon="6.55794">
        <ele>1143.9</ele>
        <time>2023-01-21T10:16:34.000Z</time>
      </trkpt>
      <trkpt lat="46.27283" lon="6.55795">
        <ele>1143.8</ele>
        <time>2023-01-21T10:16:35.000Z</time>
      </trkpt>
      <trkpt lat="46.27283" lon="6.55795">
        <ele>1143.7</ele>
        <time>2023-01-21T10:16:36.000Z</time>
      </trkpt>
      <trkpt lat="46.27283" lon="6.55796">
        <ele>1143.7</ele>
        <time>2023-01-21T10:16:37.000Z</time>
      </trkpt>
      <trkpt lat="46.27283" lon="6.55797">
        <ele>1143.9</ele>
        <time>2023-01-21T10:16:38.000Z</time>
      </trkpt>
      <trkpt lat="46.27283" lon="6.55797">
        <ele>1143.9</ele>
        <time>2023-01-21T10:16:39.000Z</time>
      </trkpt>
      <trkpt lat="46.27283" lon="6.55798">
        <ele>1144.1</ele>
        <time>2023-01-21T10:16:40.000Z</time>
      </trkpt>
      <trkpt lat="46.27283" lon="6.55798">
        <ele>1144.2</ele>
        <time>2023-01-21T10:16:41.000Z</time>
      </trkpt>
      <trkpt lat="46.27282" lon="6.55799">
        <ele>1144.3</ele>
        <time>2023-01-21T10:16:42.000Z</time>
      </trkpt>
      <trkpt lat="46.27282" lon="6.55799">
        <ele>1144.5</ele>
        <time>2023-01-21T10:16:43.000Z</time>
      </trkpt>
      <trkpt lat="46.27282" lon="6.55799">
        <ele>1144.6</ele>
        <time>2023-01-21T10:16:44.000Z</time>
      </trkpt>
      <trkpt lat="46.27282" lon="6.55799">
        <ele>1144.6</ele>
        <time>2023-01-21T10:16:45.000Z</time>
      </trkpt>
      <trkpt lat="46.27281" lon="6.55803">
        <ele>1144.5</ele>
        <time>2023-01-21T10:16:46.000Z</time>
      </trkpt>
      <trkpt lat="46.27281" lon="6.55804">
        <ele>1144.7</ele>
        <time>2023-01-21T10:16:47.000Z</time>
      </trkpt>
      <trkpt lat="46.27282" lon="6.55804">
        <ele>1145</ele>
        <time>2023-01-21T10:16:48.000Z</time>
      </trkpt>
      <trkpt lat="46.27281" lon="6.55805">
        <ele>1145.2</ele>
        <time>2023-01-21T10:16:49.000Z</time>
      </trkpt>
      <trkpt lat="46.27282" lon="6.55805">
        <ele>1145.6</ele>
        <time>2023-01-21T10:16:50.000Z</time>
      </trkpt>
      <trkpt lat="46.27281" lon="6.55806">
        <ele>1145.9</ele>
        <time>2023-01-21T10:16:51.000Z</time>
      </trkpt>
      <trkpt lat="46.27282" lon="6.55807">
        <ele>1146.1</ele>
        <time>2023-01-21T10:16:52.000Z</time>
      </trkpt>
      <trkpt lat="46.27283" lon="6.55808">
        <ele>1146.3</ele>
        <time>2023-01-21T10:16:53.000Z</time>
      </trkpt>
      <trkpt lat="46.27283" lon="6.55809">
        <ele>1146.7</ele>
        <time>2023-01-21T10:16:54.000Z</time>
      </trkpt>
      <trkpt lat="46.27283" lon="6.5581">
        <ele>1147.1</ele>
        <time>2023-01-21T10:16:55.000Z</time>
      </trkpt>
      <trkpt lat="46.27283" lon="6.55811">
        <ele>1147.3</ele>
        <time>2023-01-21T10:16:56.000Z</time>
      </trkpt>
      <trkpt lat="46.27283" lon="6.55812">
        <ele>1147.5</ele>
        <time>2023-01-21T10:16:57.000Z</time>
      </trkpt>
      <trkpt lat="46.27283" lon="6.55813">
        <ele>1147.4</ele>
        <time>2023-01-21T10:16:58.000Z</time>
      </trkpt>
      <trkpt lat="46.27283" lon="6.55814">
        <ele>1147.8</ele>
        <time>2023-01-21T10:16:59.000Z</time>
      </trkpt>
      <trkpt lat="46.27283" lon="6.55815">
        <ele>1147.8</ele>
        <time>2023-01-21T10:17:00.000Z</time>
      </trkpt>
      <trkpt lat="46.27284" lon="6.55817">
        <ele>1147.8</ele>
        <time>2023-01-21T10:17:01.000Z</time>
      </trkpt>
      <trkpt lat="46.27284" lon="6.55817">
        <ele>1147.9</ele>
        <time>2023-01-21T10:17:02.000Z</time>
      </trkpt>
      <trkpt lat="46.27283" lon="6.55819">
        <ele>1147.9</ele>
        <time>2023-01-21T10:17:03.000Z</time>
      </trkpt>
      <trkpt lat="46.27283" lon="6.5582">
        <ele>1148.1</ele>
        <time>2023-01-21T10:17:04.000Z</time>
      </trkpt>
      <trkpt lat="46.27284" lon="6.55821">
        <ele>1148</ele>
        <time>2023-01-21T10:17:05.000Z</time>
      </trkpt>
      <trkpt lat="46.27284" lon="6.55822">
        <ele>1148.3</ele>
        <time>2023-01-21T10:17:06.000Z</time>
      </trkpt>
      <trkpt lat="46.27283" lon="6.55823">
        <ele>1148.3</ele>
        <time>2023-01-21T10:17:07.000Z</time>
      </trkpt>
      <trkpt lat="46.27284" lon="6.55824">
        <ele>1148.5</ele>
        <time>2023-01-21T10:17:08.000Z</time>
      </trkpt>
      <trkpt lat="46.27284" lon="6.55825">
        <ele>1148.5</ele>
        <time>2023-01-21T10:17:09.000Z</time>
      </trkpt>
      <trkpt lat="46.27284" lon="6.55826">
        <ele>1148.5</ele>
        <time>2023-01-21T10:17:10.000Z</time>
      </trkpt>
      <trkpt lat="46.27285" lon="6.55827">
        <ele>1148.5</ele>
        <time>2023-01-21T10:17:11.000Z</time>
      </trkpt>
      <trkpt lat="46.27284" lon="6.55828">
        <ele>1148.7</ele>
        <time>2023-01-21T10:17:12.000Z</time>
      </trkpt>
      <trkpt lat="46.27284" lon="6.55829">
        <ele>1148.8</ele>
        <time>2023-01-21T10:17:13.000Z</time>
      </trkpt>
      <trkpt lat="46.27284" lon="6.5583">
        <ele>1148.8</ele>
        <time>2023-01-21T10:17:14.000Z</time>
      </trkpt>
      <trkpt lat="46.27283" lon="6.55829">
        <ele>1148.9</ele>
        <time>2023-01-21T10:17:15.000Z</time>
      </trkpt>
      <trkpt lat="46.27282" lon="6.5583">
        <ele>1149.2</ele>
        <time>2023-01-21T10:17:16.000Z</time>
      </trkpt>
      <trkpt lat="46.27283" lon="6.5583">
        <ele>1149.3</ele>
        <time>2023-01-21T10:17:17.000Z</time>
      </trkpt>
      <trkpt lat="46.27283" lon="6.55831">
        <ele>1149.5</ele>
        <time>2023-01-21T10:17:18.000Z</time>
      </trkpt>
      <trkpt lat="46.27282" lon="6.55831">
        <ele>1149.7</ele>
        <time>2023-01-21T10:17:19.000Z</time>
      </trkpt>
      <trkpt lat="46.27282" lon="6.55831">
        <ele>1149.7</ele>
        <time>2023-01-21T10:17:20.000Z</time>
      </trkpt>
      <trkpt lat="46.27282" lon="6.55831">
        <ele>1149.7</ele>
        <time>2023-01-21T10:17:21.000Z</time>
      </trkpt>
      <trkpt lat="46.27282" lon="6.55831">
        <ele>1149.7</ele>
        <time>2023-01-21T10:17:22.000Z</time>
      </trkpt>
      <trkpt lat="46.27282" lon="6.55831">
        <ele>1149.7</ele>
        <time>2023-01-21T10:17:23.000Z</time>
      </trkpt>
      <trkpt lat="46.27282" lon="6.55831">
        <ele>1149.7</ele>
        <time>2023-01-21T10:17:24.000Z</time>
      </trkpt>
      <trkpt lat="46.27282" lon="6.55831">
        <ele>1149.7</ele>
        <time>2023-01-21T10:17:25.000Z</time>
      </trkpt>
      <trkpt lat="46.27282" lon="6.55831">
        <ele>1149.7</ele>
        <time>2023-01-21T10:17:26.000Z</time>
      </trkpt>
      <trkpt lat="46.27282" lon="6.55831">
        <ele>1149.7</ele>
        <time>2023-01-21T10:17:27.000Z</time>
      </trkpt>
      <trkpt lat="46.27282" lon="6.55831">
        <ele>1149.7</ele>
        <time>2023-01-21T10:17:28.000Z</time>
      </trkpt>
      <trkpt lat="46.27282" lon="6.55831">
        <ele>1149.7</ele>
        <time>2023-01-21T10:17:29.000Z</time>
      </trkpt>
      <trkpt lat="46.27282" lon="6.55831">
        <ele>1149.7</ele>
        <time>2023-01-21T10:17:30.000Z</time>
      </trkpt>
      <trkpt lat="46.27282" lon="6.55831">
        <ele>1149.7</ele>
        <time>2023-01-21T10:17:31.000Z</time>
      </trkpt>
      <trkpt lat="46.27282" lon="6.55831">
        <ele>1149.7</ele>
        <time>2023-01-21T10:17:32.000Z</time>
      </trkpt>
      <trkpt lat="46.27282" lon="6.55831">
        <ele>1149.7</ele>
        <time>2023-01-21T10:17:33.000Z</time>
      </trkpt>
      <trkpt lat="46.27282" lon="6.55831">
        <ele>1149.7</ele>
        <time>2023-01-21T10:17:34.000Z</time>
      </trkpt>
      <trkpt lat="46.27282" lon="6.5584">
        <ele>1155.1</ele>
        <time>2023-01-21T10:17:35.000Z</time>
      </trkpt>
      <trkpt lat="46.27282" lon="6.5584">
        <ele>1155.4</ele>
        <time>2023-01-21T10:17:36.000Z</time>
      </trkpt>
      <trkpt lat="46.27283" lon="6.5584">
        <ele>1155.9</ele>
        <time>2023-01-21T10:17:37.000Z</time>
      </trkpt>
      <trkpt lat="46.27282" lon="6.55841">
        <ele>1156.2</ele>
        <time>2023-01-21T10:17:38.000Z</time>
      </trkpt>
      <trkpt lat="46.27282" lon="6.55841">
        <ele>1156.2</ele>
        <time>2023-01-21T10:17:39.000Z</time>
      </trkpt>
      <trkpt lat="46.27282" lon="6.55841">
        <ele>1156.2</ele>
        <time>2023-01-21T10:17:40.000Z</time>
      </trkpt>
      <trkpt lat="46.27282" lon="6.55841">
        <ele>1156.2</ele>
        <time>2023-01-21T10:17:41.000Z</time>
      </trkpt>
      <trkpt lat="46.27282" lon="6.55841">
        <ele>1156.2</ele>
        <time>2023-01-21T10:17:42.000Z</time>
      </trkpt>
      <trkpt lat="46.27282" lon="6.55841">
        <ele>1156.2</ele>
        <time>2023-01-21T10:17:43.000Z</time>
      </trkpt>
      <trkpt lat="46.27282" lon="6.55841">
        <ele>1156.2</ele>
        <time>2023-01-21T10:17:44.000Z</time>
      </trkpt>
      <trkpt lat="46.27282" lon="6.55841">
        <ele>1156.2</ele>
        <time>2023-01-21T10:17:45.000Z</time>
      </trkpt>
      <trkpt lat="46.27282" lon="6.55841">
        <ele>1156.2</ele>
        <time>2023-01-21T10:17:46.000Z</time>
      </trkpt>
      <trkpt lat="46.27282" lon="6.55841">
        <ele>1156.2</ele>
        <time>2023-01-21T10:17:47.000Z</time>
      </trkpt>
      <trkpt lat="46.27282" lon="6.55841">
        <ele>1156.2</ele>
        <time>2023-01-21T10:17:48.000Z</time>
      </trkpt>
      <trkpt lat="46.27282" lon="6.55841">
        <ele>1156.2</ele>
        <time>2023-01-21T10:17:49.000Z</time>
      </trkpt>
      <trkpt lat="46.27282" lon="6.55841">
        <ele>1156.2</ele>
        <time>2023-01-21T10:17:50.000Z</time>
      </trkpt>
      <trkpt lat="46.27282" lon="6.55841">
        <ele>1156.2</ele>
        <time>2023-01-21T10:17:51.000Z</time>
      </trkpt>
      <trkpt lat="46.27282" lon="6.55841">
        <ele>1156.2</ele>
        <time>2023-01-21T10:17:52.000Z</time>
      </trkpt>
      <trkpt lat="46.27282" lon="6.55841">
        <ele>1156.2</ele>
        <time>2023-01-21T10:17:53.000Z</time>
      </trkpt>
      <trkpt lat="46.27287" lon="6.55852">
        <ele>1161.9</ele>
        <time>2023-01-21T10:17:54.000Z</time>
      </trkpt>
      <trkpt lat="46.27287" lon="6.55852">
        <ele>1162.4</ele>
        <time>2023-01-21T10:17:55.000Z</time>
      </trkpt>
      <trkpt lat="46.27287" lon="6.55853">
        <ele>1162.6</ele>
        <time>2023-01-21T10:17:56.000Z</time>
      </trkpt>
      <trkpt lat="46.27287" lon="6.55853">
        <ele>1163.1</ele>
        <time>2023-01-21T10:17:57.000Z</time>
      </trkpt>
      <trkpt lat="46.27287" lon="6.55853">
        <ele>1163.1</ele>
        <time>2023-01-21T10:17:58.000Z</time>
      </trkpt>
      <trkpt lat="46.27287" lon="6.55853">
        <ele>1163.1</ele>
        <time>2023-01-21T10:17:59.000Z</time>
      </trkpt>
      <trkpt lat="46.27287" lon="6.55853">
        <ele>1163.1</ele>
        <time>2023-01-21T10:18:00.000Z</time>
      </trkpt>
      <trkpt lat="46.27287" lon="6.55853">
        <ele>1163.1</ele>
        <time>2023-01-21T10:18:01.000Z</time>
      </trkpt>
      <trkpt lat="46.27287" lon="6.55853">
        <ele>1163.1</ele>
        <time>2023-01-21T10:18:02.000Z</time>
      </trkpt>
      <trkpt lat="46.27287" lon="6.55853">
        <ele>1163.1</ele>
        <time>2023-01-21T10:18:03.000Z</time>
      </trkpt>
      <trkpt lat="46.27287" lon="6.55853">
        <ele>1163.1</ele>
        <time>2023-01-21T10:18:04.000Z</time>
      </trkpt>
      <trkpt lat="46.27287" lon="6.55853">
        <ele>1163.1</ele>
        <time>2023-01-21T10:18:05.000Z</time>
      </trkpt>
      <trkpt lat="46.27287" lon="6.55853">
        <ele>1163.1</ele>
        <time>2023-01-21T10:18:06.000Z</time>
      </trkpt>
      <trkpt lat="46.27287" lon="6.55853">
        <ele>1163.1</ele>
        <time>2023-01-21T10:18:07.000Z</time>
      </trkpt>
      <trkpt lat="46.27288" lon="6.55858">
        <ele>1166.3</ele>
        <time>2023-01-21T10:18:08.000Z</time>
      </trkpt>
      <trkpt lat="46.27289" lon="6.5586">
        <ele>1166.5</ele>
        <time>2023-01-21T10:18:09.000Z</time>
      </trkpt>
      <trkpt lat="46.27289" lon="6.55861">
        <ele>1166.8</ele>
        <time>2023-01-21T10:18:10.000Z</time>
      </trkpt>
      <trkpt lat="46.2729" lon="6.55862">
        <ele>1167</ele>
        <time>2023-01-21T10:18:11.000Z</time>
      </trkpt>
      <trkpt lat="46.27289" lon="6.55862">
        <ele>1167.2</ele>
        <time>2023-01-21T10:18:12.000Z</time>
      </trkpt>
      <trkpt lat="46.27289" lon="6.55863">
        <ele>1167.5</ele>
        <time>2023-01-21T10:18:13.000Z</time>
      </trkpt>
      <trkpt lat="46.27289" lon="6.55863">
        <ele>1167.7</ele>
        <time>2023-01-21T10:18:14.000Z</time>
      </trkpt>
      <trkpt lat="46.27289" lon="6.55864">
        <ele>1167.9</ele>
        <time>2023-01-21T10:18:15.000Z</time>
      </trkpt>
      <trkpt lat="46.2729" lon="6.55864">
        <ele>1168.2</ele>
        <time>2023-01-21T10:18:16.000Z</time>
      </trkpt>
      <trkpt lat="46.2729" lon="6.55864">
        <ele>1168.2</ele>
        <time>2023-01-21T10:18:17.000Z</time>
      </trkpt>
      <trkpt lat="46.27291" lon="6.55864">
        <ele>1168.3</ele>
        <time>2023-01-21T10:18:18.000Z</time>
      </trkpt>
      <trkpt lat="46.27291" lon="6.55864">
        <ele>1168.4</ele>
        <time>2023-01-21T10:18:19.000Z</time>
      </trkpt>
      <trkpt lat="46.27291" lon="6.55864">
        <ele>1168.7</ele>
        <time>2023-01-21T10:18:20.000Z</time>
      </trkpt>
      <trkpt lat="46.27291" lon="6.55865">
        <ele>1168.9</ele>
        <time>2023-01-21T10:18:21.000Z</time>
      </trkpt>
      <trkpt lat="46.27291" lon="6.55866">
        <ele>1169</ele>
        <time>2023-01-21T10:18:22.000Z</time>
      </trkpt>
      <trkpt lat="46.27291" lon="6.55866">
        <ele>1169</ele>
        <time>2023-01-21T10:18:23.000Z</time>
      </trkpt>
      <trkpt lat="46.27291" lon="6.55866">
        <ele>1169.1</ele>
        <time>2023-01-21T10:18:24.000Z</time>
      </trkpt>
      <trkpt lat="46.27292" lon="6.55867">
        <ele>1169.3</ele>
        <time>2023-01-21T10:18:25.000Z</time>
      </trkpt>
      <trkpt lat="46.27292" lon="6.55867">
        <ele>1169.3</ele>
        <time>2023-01-21T10:18:26.000Z</time>
      </trkpt>
      <trkpt lat="46.27293" lon="6.55867">
        <ele>1169.6</ele>
        <time>2023-01-21T10:18:27.000Z</time>
      </trkpt>
      <trkpt lat="46.27293" lon="6.55868">
        <ele>1169.7</ele>
        <time>2023-01-21T10:18:28.000Z</time>
      </trkpt>
      <trkpt lat="46.27293" lon="6.55868">
        <ele>1169.8</ele>
        <time>2023-01-21T10:18:29.000Z</time>
      </trkpt>
      <trkpt lat="46.27294" lon="6.55868">
        <ele>1170.2</ele>
        <time>2023-01-21T10:18:30.000Z</time>
      </trkpt>
      <trkpt lat="46.27294" lon="6.55868">
        <ele>1170.2</ele>
        <time>2023-01-21T10:18:31.000Z</time>
      </trkpt>
      <trkpt lat="46.27294" lon="6.55868">
        <ele>1170.2</ele>
        <time>2023-01-21T10:18:32.000Z</time>
      </trkpt>
      <trkpt lat="46.27294" lon="6.55869">
        <ele>1170.4</ele>
        <time>2023-01-21T10:18:33.000Z</time>
      </trkpt>
      <trkpt lat="46.27294" lon="6.5587">
        <ele>1170.6</ele>
        <time>2023-01-21T10:18:34.000Z</time>
      </trkpt>
      <trkpt lat="46.27294" lon="6.55871">
        <ele>1170.6</ele>
        <time>2023-01-21T10:18:35.000Z</time>
      </trkpt>
      <trkpt lat="46.27294" lon="6.55872">
        <ele>1170.8</ele>
        <time>2023-01-21T10:18:36.000Z</time>
      </trkpt>
      <trkpt lat="46.27293" lon="6.55872">
        <ele>1171</ele>
        <time>2023-01-21T10:18:37.000Z</time>
      </trkpt>
      <trkpt lat="46.27293" lon="6.55874">
        <ele>1171</ele>
        <time>2023-01-21T10:18:38.000Z</time>
      </trkpt>
      <trkpt lat="46.27292" lon="6.55875">
        <ele>1171.2</ele>
        <time>2023-01-21T10:18:39.000Z</time>
      </trkpt>
      <trkpt lat="46.27292" lon="6.55876">
        <ele>1171.5</ele>
        <time>2023-01-21T10:18:40.000Z</time>
      </trkpt>
      <trkpt lat="46.2729" lon="6.55877">
        <ele>1171.5</ele>
        <time>2023-01-21T10:18:41.000Z</time>
      </trkpt>
      <trkpt lat="46.27289" lon="6.55877">
        <ele>1172</ele>
        <time>2023-01-21T10:18:42.000Z</time>
      </trkpt>
      <trkpt lat="46.27288" lon="6.55878">
        <ele>1172.3</ele>
        <time>2023-01-21T10:18:43.000Z</time>
      </trkpt>
      <trkpt lat="46.27287" lon="6.55879">
        <ele>1172.5</ele>
        <time>2023-01-21T10:18:44.000Z</time>
      </trkpt>
      <trkpt lat="46.27286" lon="6.55879">
        <ele>1172.7</ele>
        <time>2023-01-21T10:18:45.000Z</time>
      </trkpt>
      <trkpt lat="46.27286" lon="6.5588">
        <ele>1172.7</ele>
        <time>2023-01-21T10:18:46.000Z</time>
      </trkpt>
      <trkpt lat="46.27286" lon="6.5588">
        <ele>1172.8</ele>
        <time>2023-01-21T10:18:47.000Z</time>
      </trkpt>
      <trkpt lat="46.27287" lon="6.55879">
        <ele>1172.9</ele>
        <time>2023-01-21T10:18:48.000Z</time>
      </trkpt>
      <trkpt lat="46.27286" lon="6.5588">
        <ele>1173</ele>
        <time>2023-01-21T10:18:49.000Z</time>
      </trkpt>
      <trkpt lat="46.27286" lon="6.55882">
        <ele>1172.9</ele>
        <time>2023-01-21T10:18:50.000Z</time>
      </trkpt>
      <trkpt lat="46.27286" lon="6.55883">
        <ele>1172.8</ele>
        <time>2023-01-21T10:18:51.000Z</time>
      </trkpt>
      <trkpt lat="46.27286" lon="6.55885">
        <ele>1172.7</ele>
        <time>2023-01-21T10:18:52.000Z</time>
      </trkpt>
      <trkpt lat="46.27286" lon="6.55887">
        <ele>1172.5</ele>
        <time>2023-01-21T10:18:53.000Z</time>
      </trkpt>
      <trkpt lat="46.27286" lon="6.55888">
        <ele>1172.1</ele>
        <time>2023-01-21T10:18:54.000Z</time>
      </trkpt>
      <trkpt lat="46.27285" lon="6.55889">
        <ele>1171.6</ele>
        <time>2023-01-21T10:18:55.000Z</time>
      </trkpt>
      <trkpt lat="46.27285" lon="6.5589">
        <ele>1171.5</ele>
        <time>2023-01-21T10:18:56.000Z</time>
      </trkpt>
      <trkpt lat="46.27285" lon="6.55891">
        <ele>1171.2</ele>
        <time>2023-01-21T10:18:57.000Z</time>
      </trkpt>
      <trkpt lat="46.27285" lon="6.55891">
        <ele>1171</ele>
        <time>2023-01-21T10:18:58.000Z</time>
      </trkpt>
      <trkpt lat="46.27284" lon="6.55892">
        <ele>1171.2</ele>
        <time>2023-01-21T10:18:59.000Z</time>
      </trkpt>
      <trkpt lat="46.27284" lon="6.55892">
        <ele>1171.9</ele>
        <time>2023-01-21T10:19:00.000Z</time>
      </trkpt>
      <trkpt lat="46.27285" lon="6.55892">
        <ele>1172</ele>
        <time>2023-01-21T10:19:01.000Z</time>
      </trkpt>
      <trkpt lat="46.27285" lon="6.5589">
        <ele>1172.2</ele>
        <time>2023-01-21T10:19:02.000Z</time>
      </trkpt>
      <trkpt lat="46.27286" lon="6.5589">
        <ele>1172.5</ele>
        <time>2023-01-21T10:19:03.000Z</time>
      </trkpt>
      <trkpt lat="46.27286" lon="6.55892">
        <ele>1172.8</ele>
        <time>2023-01-21T10:19:04.000Z</time>
      </trkpt>
      <trkpt lat="46.27286" lon="6.55892">
        <ele>1173</ele>
        <time>2023-01-21T10:19:05.000Z</time>
      </trkpt>
      <trkpt lat="46.27286" lon="6.55892">
        <ele>1173.5</ele>
        <time>2023-01-21T10:19:06.000Z</time>
      </trkpt>
      <trkpt lat="46.27287" lon="6.55892">
        <ele>1174.4</ele>
        <time>2023-01-21T10:19:07.000Z</time>
      </trkpt>
      <trkpt lat="46.27287" lon="6.55892">
        <ele>1174.5</ele>
        <time>2023-01-21T10:19:08.000Z</time>
      </trkpt>
      <trkpt lat="46.27287" lon="6.55891">
        <ele>1174.3</ele>
        <time>2023-01-21T10:19:09.000Z</time>
      </trkpt>
      <trkpt lat="46.27287" lon="6.55891">
        <ele>1174.6</ele>
        <time>2023-01-21T10:19:10.000Z</time>
      </trkpt>
      <trkpt lat="46.27287" lon="6.5589">
        <ele>1174.8</ele>
        <time>2023-01-21T10:19:11.000Z</time>
      </trkpt>
      <trkpt lat="46.27287" lon="6.5589">
        <ele>1175</ele>
        <time>2023-01-21T10:19:12.000Z</time>
      </trkpt>
      <trkpt lat="46.27286" lon="6.55889">
        <ele>1175</ele>
        <time>2023-01-21T10:19:13.000Z</time>
      </trkpt>
      <trkpt lat="46.27286" lon="6.55889">
        <ele>1175</ele>
        <time>2023-01-21T10:19:14.000Z</time>
      </trkpt>
      <trkpt lat="46.27286" lon="6.55889">
        <ele>1175</ele>
        <time>2023-01-21T10:19:15.000Z</time>
      </trkpt>
      <trkpt lat="46.27286" lon="6.55889">
        <ele>1175</ele>
        <time>2023-01-21T10:19:16.000Z</time>
      </trkpt>
      <trkpt lat="46.27286" lon="6.55889">
        <ele>1175</ele>
        <time>2023-01-21T10:19:17.000Z</time>
      </trkpt>
      <trkpt lat="46.27286" lon="6.55889">
        <ele>1175</ele>
        <time>2023-01-21T10:19:18.000Z</time>
      </trkpt>
      <trkpt lat="46.27285" lon="6.5589">
        <ele>1174.8</ele>
        <time>2023-01-21T10:19:19.000Z</time>
      </trkpt>
      <trkpt lat="46.27285" lon="6.5589">
        <ele>1174.7</ele>
        <time>2023-01-21T10:19:20.000Z</time>
      </trkpt>
      <trkpt lat="46.27286" lon="6.5589">
        <ele>1174.8</ele>
        <time>2023-01-21T10:19:21.000Z</time>
      </trkpt>
      <trkpt lat="46.27286" lon="6.55889">
        <ele>1175.2</ele>
        <time>2023-01-21T10:19:22.000Z</time>
      </trkpt>
      <trkpt lat="46.27286" lon="6.55889">
        <ele>1175.1</ele>
        <time>2023-01-21T10:19:23.000Z</time>
      </trkpt>
      <trkpt lat="46.27286" lon="6.55889">
        <ele>1175.1</ele>
        <time>2023-01-21T10:19:24.000Z</time>
      </trkpt>
      <trkpt lat="46.27286" lon="6.55889">
        <ele>1175.1</ele>
        <time>2023-01-21T10:19:25.000Z</time>
      </trkpt>
      <trkpt lat="46.27286" lon="6.55889">
        <ele>1175.1</ele>
        <time>2023-01-21T10:19:26.000Z</time>
      </trkpt>
      <trkpt lat="46.27286" lon="6.55889">
        <ele>1175.1</ele>
        <time>2023-01-21T10:19:27.000Z</time>
      </trkpt>
      <trkpt lat="46.27286" lon="6.55889">
        <ele>1175.1</ele>
        <time>2023-01-21T10:19:28.000Z</time>
      </trkpt>
      <trkpt lat="46.27286" lon="6.55889">
        <ele>1175.1</ele>
        <time>2023-01-21T10:19:29.000Z</time>
      </trkpt>
      <trkpt lat="46.27286" lon="6.55889">
        <ele>1175.1</ele>
        <time>2023-01-21T10:19:30.000Z</time>
      </trkpt>
      <trkpt lat="46.27286" lon="6.55889">
        <ele>1175.1</ele>
        <time>2023-01-21T10:19:31.000Z</time>
      </trkpt>
      <trkpt lat="46.27286" lon="6.55889">
        <ele>1175.1</ele>
        <time>2023-01-21T10:19:32.000Z</time>
      </trkpt>
      <trkpt lat="46.27286" lon="6.55889">
        <ele>1175.1</ele>
        <time>2023-01-21T10:19:33.000Z</time>
      </trkpt>
      <trkpt lat="46.27286" lon="6.55889">
        <ele>1175.1</ele>
        <time>2023-01-21T10:19:34.000Z</time>
      </trkpt>
      <trkpt lat="46.27286" lon="6.55889">
        <ele>1175.1</ele>
        <time>2023-01-21T10:19:35.000Z</time>
      </trkpt>
      <trkpt lat="46.27286" lon="6.55889">
        <ele>1175.1</ele>
        <time>2023-01-21T10:19:36.000Z</time>
      </trkpt>
      <trkpt lat="46.27286" lon="6.55889">
        <ele>1175.1</ele>
        <time>2023-01-21T10:19:37.000Z</time>
      </trkpt>
      <trkpt lat="46.27284" lon="6.5589">
        <ele>1173.6</ele>
        <time>2023-01-21T10:19:38.000Z</time>
      </trkpt>
      <trkpt lat="46.27284" lon="6.55891">
        <ele>1174.1</ele>
        <time>2023-01-21T10:19:39.000Z</time>
      </trkpt>
      <trkpt lat="46.27284" lon="6.55891">
        <ele>1174.6</ele>
        <time>2023-01-21T10:19:40.000Z</time>
      </trkpt>
      <trkpt lat="46.27285" lon="6.55892">
        <ele>1175.1</ele>
        <time>2023-01-21T10:19:41.000Z</time>
      </trkpt>
      <trkpt lat="46.27284" lon="6.55893">
        <ele>1175.5</ele>
        <time>2023-01-21T10:19:42.000Z</time>
      </trkpt>
      <trkpt lat="46.27285" lon="6.55894">
        <ele>1176</ele>
        <time>2023-01-21T10:19:43.000Z</time>
      </trkpt>
      <trkpt lat="46.27285" lon="6.55895">
        <ele>1176.2</ele>
        <time>2023-01-21T10:19:44.000Z</time>
      </trkpt>
      <trkpt lat="46.27284" lon="6.55897">
        <ele>1176.7</ele>
        <time>2023-01-21T10:19:45.000Z</time>
      </trkpt>
      <trkpt lat="46.27284" lon="6.55897">
        <ele>1176.9</ele>
        <time>2023-01-21T10:19:46.000Z</time>
      </trkpt>
      <trkpt lat="46.27284" lon="6.55899">
        <ele>1177.4</ele>
        <time>2023-01-21T10:19:47.000Z</time>
      </trkpt>
      <trkpt lat="46.27285" lon="6.559">
        <ele>1177.6</ele>
        <time>2023-01-21T10:19:48.000Z</time>
      </trkpt>
      <trkpt lat="46.27285" lon="6.559">
        <ele>1177.9</ele>
        <time>2023-01-21T10:19:49.000Z</time>
      </trkpt>
      <trkpt lat="46.27286" lon="6.559">
        <ele>1178.2</ele>
        <time>2023-01-21T10:19:50.000Z</time>
      </trkpt>
      <trkpt lat="46.27286" lon="6.55901">
        <ele>1178.5</ele>
        <time>2023-01-21T10:19:51.000Z</time>
      </trkpt>
      <trkpt lat="46.27286" lon="6.55901">
        <ele>1178.9</ele>
        <time>2023-01-21T10:19:52.000Z</time>
      </trkpt>
      <trkpt lat="46.27287" lon="6.55902">
        <ele>1179.4</ele>
        <time>2023-01-21T10:19:53.000Z</time>
      </trkpt>
      <trkpt lat="46.27287" lon="6.55902">
        <ele>1179.5</ele>
        <time>2023-01-21T10:19:54.000Z</time>
      </trkpt>
      <trkpt lat="46.27287" lon="6.55902">
        <ele>1179.8</ele>
        <time>2023-01-21T10:19:55.000Z</time>
      </trkpt>
      <trkpt lat="46.27287" lon="6.55902">
        <ele>1180.3</ele>
        <time>2023-01-21T10:19:56.000Z</time>
      </trkpt>
      <trkpt lat="46.27287" lon="6.55902">
        <ele>1180.8</ele>
        <time>2023-01-21T10:19:57.000Z</time>
      </trkpt>
      <trkpt lat="46.27287" lon="6.55902">
        <ele>1181.3</ele>
        <time>2023-01-21T10:19:58.000Z</time>
      </trkpt>
      <trkpt lat="46.27287" lon="6.55903">
        <ele>1181.2</ele>
        <time>2023-01-21T10:19:59.000Z</time>
      </trkpt>
      <trkpt lat="46.27287" lon="6.55902">
        <ele>1181</ele>
        <time>2023-01-21T10:20:00.000Z</time>
      </trkpt>
      <trkpt lat="46.27287" lon="6.55902">
        <ele>1181</ele>
        <time>2023-01-21T10:20:01.000Z</time>
      </trkpt>
      <trkpt lat="46.27288" lon="6.55902">
        <ele>1180.9</ele>
        <time>2023-01-21T10:20:02.000Z</time>
      </trkpt>
      <trkpt lat="46.27288" lon="6.55902">
        <ele>1180.7</ele>
        <time>2023-01-21T10:20:03.000Z</time>
      </trkpt>
      <trkpt lat="46.27288" lon="6.55902">
        <ele>1180.7</ele>
        <time>2023-01-21T10:20:04.000Z</time>
      </trkpt>
      <trkpt lat="46.27288" lon="6.55902">
        <ele>1180.7</ele>
        <time>2023-01-21T10:20:05.000Z</time>
      </trkpt>
      <trkpt lat="46.27288" lon="6.55902">
        <ele>1180.7</ele>
        <time>2023-01-21T10:20:06.000Z</time>
      </trkpt>
      <trkpt lat="46.27288" lon="6.55902">
        <ele>1180.7</ele>
        <time>2023-01-21T10:20:07.000Z</time>
      </trkpt>
      <trkpt lat="46.27288" lon="6.55902">
        <ele>1181.5</ele>
        <time>2023-01-21T10:20:08.000Z</time>
      </trkpt>
      <trkpt lat="46.27288" lon="6.55902">
        <ele>1181.8</ele>
        <time>2023-01-21T10:20:09.000Z</time>
      </trkpt>
      <trkpt lat="46.27289" lon="6.55902">
        <ele>1182.2</ele>
        <time>2023-01-21T10:20:10.000Z</time>
      </trkpt>
      <trkpt lat="46.2729" lon="6.55903">
        <ele>1182.8</ele>
        <time>2023-01-21T10:20:11.000Z</time>
      </trkpt>
      <trkpt lat="46.2729" lon="6.55904">
        <ele>1183.1</ele>
        <time>2023-01-21T10:20:12.000Z</time>
      </trkpt>
      <trkpt lat="46.27291" lon="6.55904">
        <ele>1183.7</ele>
        <time>2023-01-21T10:20:13.000Z</time>
      </trkpt>
      <trkpt lat="46.27291" lon="6.55905">
        <ele>1183.9</ele>
        <time>2023-01-21T10:20:14.000Z</time>
      </trkpt>
      <trkpt lat="46.27291" lon="6.55906">
        <ele>1184.1</ele>
        <time>2023-01-21T10:20:15.000Z</time>
      </trkpt>
      <trkpt lat="46.27291" lon="6.55907">
        <ele>1184.4</ele>
        <time>2023-01-21T10:20:16.000Z</time>
      </trkpt>
      <trkpt lat="46.27291" lon="6.55906">
        <ele>1184.7</ele>
        <time>2023-01-21T10:20:17.000Z</time>
      </trkpt>
      <trkpt lat="46.27291" lon="6.55906">
        <ele>1184.6</ele>
        <time>2023-01-21T10:20:18.000Z</time>
      </trkpt>
      <trkpt lat="46.27292" lon="6.55906">
        <ele>1184.6</ele>
        <time>2023-01-21T10:20:19.000Z</time>
      </trkpt>
      <trkpt lat="46.27292" lon="6.55905">
        <ele>1184.3</ele>
        <time>2023-01-21T10:20:20.000Z</time>
      </trkpt>
      <trkpt lat="46.27292" lon="6.55905">
        <ele>1184.1</ele>
        <time>2023-01-21T10:20:21.000Z</time>
      </trkpt>
      <trkpt lat="46.27293" lon="6.55906">
        <ele>1183.7</ele>
        <time>2023-01-21T10:20:22.000Z</time>
      </trkpt>
      <trkpt lat="46.27293" lon="6.55905">
        <ele>1183.6</ele>
        <time>2023-01-21T10:20:23.000Z</time>
      </trkpt>
      <trkpt lat="46.27293" lon="6.55906">
        <ele>1183.4</ele>
        <time>2023-01-21T10:20:24.000Z</time>
      </trkpt>
      <trkpt lat="46.27293" lon="6.55907">
        <ele>1183.5</ele>
        <time>2023-01-21T10:20:25.000Z</time>
      </trkpt>
      <trkpt lat="46.27293" lon="6.55907">
        <ele>1183.5</ele>
        <time>2023-01-21T10:20:26.000Z</time>
      </trkpt>
      <trkpt lat="46.27293" lon="6.55908">
        <ele>1183.3</ele>
        <time>2023-01-21T10:20:27.000Z</time>
      </trkpt>
      <trkpt lat="46.27293" lon="6.55909">
        <ele>1183.3</ele>
        <time>2023-01-21T10:20:28.000Z</time>
      </trkpt>
      <trkpt lat="46.27293" lon="6.5591">
        <ele>1183.5</ele>
        <time>2023-01-21T10:20:29.000Z</time>
      </trkpt>
      <trkpt lat="46.27293" lon="6.55912">
        <ele>1183.6</ele>
        <time>2023-01-21T10:20:30.000Z</time>
      </trkpt>
      <trkpt lat="46.27293" lon="6.55913">
        <ele>1183.8</ele>
        <time>2023-01-21T10:20:31.000Z</time>
      </trkpt>
      <trkpt lat="46.27293" lon="6.55914">
        <ele>1184</ele>
        <time>2023-01-21T10:20:32.000Z</time>
      </trkpt>
      <trkpt lat="46.27293" lon="6.55914">
        <ele>1184</ele>
        <time>2023-01-21T10:20:33.000Z</time>
      </trkpt>
      <trkpt lat="46.27293" lon="6.55915">
        <ele>1184</ele>
        <time>2023-01-21T10:20:34.000Z</time>
      </trkpt>
      <trkpt lat="46.27293" lon="6.55916">
        <ele>1183.9</ele>
        <time>2023-01-21T10:20:35.000Z</time>
      </trkpt>
      <trkpt lat="46.27293" lon="6.55916">
        <ele>1183.9</ele>
        <time>2023-01-21T10:20:36.000Z</time>
      </trkpt>
      <trkpt lat="46.27294" lon="6.55917">
        <ele>1183.8</ele>
        <time>2023-01-21T10:20:37.000Z</time>
      </trkpt>
      <trkpt lat="46.27294" lon="6.55918">
        <ele>1183.7</ele>
        <time>2023-01-21T10:20:38.000Z</time>
      </trkpt>
      <trkpt lat="46.27294" lon="6.55918">
        <ele>1183.7</ele>
        <time>2023-01-21T10:20:39.000Z</time>
      </trkpt>
      <trkpt lat="46.27294" lon="6.55919">
        <ele>1183.6</ele>
        <time>2023-01-21T10:20:40.000Z</time>
      </trkpt>
      <trkpt lat="46.27295" lon="6.55919">
        <ele>1183.4</ele>
        <time>2023-01-21T10:20:41.000Z</time>
      </trkpt>
      <trkpt lat="46.27295" lon="6.5592">
        <ele>1183.3</ele>
        <time>2023-01-21T10:20:42.000Z</time>
      </trkpt>
      <trkpt lat="46.27294" lon="6.55921">
        <ele>1183.2</ele>
        <time>2023-01-21T10:20:43.000Z</time>
      </trkpt>
      <trkpt lat="46.27294" lon="6.55921">
        <ele>1183</ele>
        <time>2023-01-21T10:20:44.000Z</time>
      </trkpt>
      <trkpt lat="46.27294" lon="6.55922">
        <ele>1182.7</ele>
        <time>2023-01-21T10:20:45.000Z</time>
      </trkpt>
      <trkpt lat="46.27294" lon="6.55923">
        <ele>1182.3</ele>
        <time>2023-01-21T10:20:46.000Z</time>
      </trkpt>
      <trkpt lat="46.27293" lon="6.55923">
        <ele>1182.1</ele>
        <time>2023-01-21T10:20:47.000Z</time>
      </trkpt>
      <trkpt lat="46.27293" lon="6.55923">
        <ele>1181.9</ele>
        <time>2023-01-21T10:20:48.000Z</time>
      </trkpt>
      <trkpt lat="46.27293" lon="6.55923">
        <ele>1181.9</ele>
        <time>2023-01-21T10:20:49.000Z</time>
      </trkpt>
      <trkpt lat="46.27293" lon="6.55925">
        <ele>1182.3</ele>
        <time>2023-01-21T10:20:50.000Z</time>
      </trkpt>
      <trkpt lat="46.27293" lon="6.55926">
        <ele>1182.1</ele>
        <time>2023-01-21T10:20:51.000Z</time>
      </trkpt>
      <trkpt lat="46.27293" lon="6.55927">
        <ele>1181.9</ele>
        <time>2023-01-21T10:20:52.000Z</time>
      </trkpt>
      <trkpt lat="46.27293" lon="6.55928">
        <ele>1181.9</ele>
        <time>2023-01-21T10:20:53.000Z</time>
      </trkpt>
      <trkpt lat="46.27293" lon="6.55929">
        <ele>1182</ele>
        <time>2023-01-21T10:20:54.000Z</time>
      </trkpt>
      <trkpt lat="46.27293" lon="6.55931">
        <ele>1182</ele>
        <time>2023-01-21T10:20:55.000Z</time>
      </trkpt>
      <trkpt lat="46.27293" lon="6.55932">
        <ele>1182</ele>
        <time>2023-01-21T10:20:56.000Z</time>
      </trkpt>
      <trkpt lat="46.27293" lon="6.55934">
        <ele>1182.1</ele>
        <time>2023-01-21T10:20:57.000Z</time>
      </trkpt>
      <trkpt lat="46.27293" lon="6.55935">
        <ele>1181.9</ele>
        <time>2023-01-21T10:20:58.000Z</time>
      </trkpt>
      <trkpt lat="46.27293" lon="6.55937">
        <ele>1182</ele>
        <time>2023-01-21T10:20:59.000Z</time>
      </trkpt>
      <trkpt lat="46.27294" lon="6.55938">
        <ele>1182.1</ele>
        <time>2023-01-21T10:21:00.000Z</time>
      </trkpt>
      <trkpt lat="46.27294" lon="6.55938">
        <ele>1182.2</ele>
        <time>2023-01-21T10:21:01.000Z</time>
      </trkpt>
      <trkpt lat="46.27294" lon="6.55939">
        <ele>1182.3</ele>
        <time>2023-01-21T10:21:02.000Z</time>
      </trkpt>
      <trkpt lat="46.27294" lon="6.5594">
        <ele>1182.6</ele>
        <time>2023-01-21T10:21:03.000Z</time>
      </trkpt>
      <trkpt lat="46.27294" lon="6.55941">
        <ele>1183</ele>
        <time>2023-01-21T10:21:04.000Z</time>
      </trkpt>
      <trkpt lat="46.27295" lon="6.55942">
        <ele>1183.4</ele>
        <time>2023-01-21T10:21:05.000Z</time>
      </trkpt>
      <trkpt lat="46.27295" lon="6.55943">
        <ele>1183.8</ele>
        <time>2023-01-21T10:21:06.000Z</time>
      </trkpt>
      <trkpt lat="46.27295" lon="6.55944">
        <ele>1183.7</ele>
        <time>2023-01-21T10:21:07.000Z</time>
      </trkpt>
      <trkpt lat="46.27295" lon="6.55945">
        <ele>1183.5</ele>
        <time>2023-01-21T10:21:08.000Z</time>
      </trkpt>
      <trkpt lat="46.27295" lon="6.55946">
        <ele>1183.2</ele>
        <time>2023-01-21T10:21:09.000Z</time>
      </trkpt>
      <trkpt lat="46.27296" lon="6.55946">
        <ele>1183.4</ele>
        <time>2023-01-21T10:21:10.000Z</time>
      </trkpt>
      <trkpt lat="46.27296" lon="6.55946">
        <ele>1183.3</ele>
        <time>2023-01-21T10:21:11.000Z</time>
      </trkpt>
      <trkpt lat="46.27296" lon="6.55946">
        <ele>1183.1</ele>
        <time>2023-01-21T10:21:12.000Z</time>
      </trkpt>
      <trkpt lat="46.27297" lon="6.55945">
        <ele>1183.1</ele>
        <time>2023-01-21T10:21:13.000Z</time>
      </trkpt>
      <trkpt lat="46.27297" lon="6.55945">
        <ele>1183.2</ele>
        <time>2023-01-21T10:21:14.000Z</time>
      </trkpt>
      <trkpt lat="46.27297" lon="6.55944">
        <ele>1183.2</ele>
        <time>2023-01-21T10:21:15.000Z</time>
      </trkpt>
      <trkpt lat="46.27297" lon="6.55945">
        <ele>1183.2</ele>
        <time>2023-01-21T10:21:16.000Z</time>
      </trkpt>
      <trkpt lat="46.27296" lon="6.55946">
        <ele>1183.1</ele>
        <time>2023-01-21T10:21:17.000Z</time>
      </trkpt>
      <trkpt lat="46.27296" lon="6.55946">
        <ele>1182.7</ele>
        <time>2023-01-21T10:21:18.000Z</time>
      </trkpt>
      <trkpt lat="46.27296" lon="6.55946">
        <ele>1182.7</ele>
        <time>2023-01-21T10:21:19.000Z</time>
      </trkpt>
      <trkpt lat="46.27295" lon="6.55946">
        <ele>1182.3</ele>
        <time>2023-01-21T10:21:20.000Z</time>
      </trkpt>
      <trkpt lat="46.27294" lon="6.55946">
        <ele>1182</ele>
        <time>2023-01-21T10:21:21.000Z</time>
      </trkpt>
      <trkpt lat="46.27295" lon="6.55947">
        <ele>1182.2</ele>
        <time>2023-01-21T10:21:22.000Z</time>
      </trkpt>
      <trkpt lat="46.27296" lon="6.55947">
        <ele>1182.7</ele>
        <time>2023-01-21T10:21:23.000Z</time>
      </trkpt>
      <trkpt lat="46.27297" lon="6.55947">
        <ele>1183</ele>
        <time>2023-01-21T10:21:24.000Z</time>
      </trkpt>
      <trkpt lat="46.27297" lon="6.55947">
        <ele>1183.4</ele>
        <time>2023-01-21T10:21:25.000Z</time>
      </trkpt>
      <trkpt lat="46.27297" lon="6.55946">
        <ele>1183.8</ele>
        <time>2023-01-21T10:21:26.000Z</time>
      </trkpt>
      <trkpt lat="46.27297" lon="6.55946">
        <ele>1184.1</ele>
        <time>2023-01-21T10:21:27.000Z</time>
      </trkpt>
      <trkpt lat="46.27297" lon="6.55946">
        <ele>1184.1</ele>
        <time>2023-01-21T10:21:28.000Z</time>
      </trkpt>
      <trkpt lat="46.27298" lon="6.55946">
        <ele>1184.4</ele>
        <time>2023-01-21T10:21:29.000Z</time>
      </trkpt>
      <trkpt lat="46.27298" lon="6.55946">
        <ele>1184.4</ele>
        <time>2023-01-21T10:21:30.000Z</time>
      </trkpt>
      <trkpt lat="46.27299" lon="6.55946">
        <ele>1184.6</ele>
        <time>2023-01-21T10:21:31.000Z</time>
      </trkpt>
      <trkpt lat="46.27299" lon="6.55946">
        <ele>1184.3</ele>
        <time>2023-01-21T10:21:32.000Z</time>
      </trkpt>
      <trkpt lat="46.27299" lon="6.55946">
        <ele>1184.3</ele>
        <time>2023-01-21T10:21:33.000Z</time>
      </trkpt>
      <trkpt lat="46.27299" lon="6.55946">
        <ele>1184.3</ele>
        <time>2023-01-21T10:21:34.000Z</time>
      </trkpt>
      <trkpt lat="46.27299" lon="6.55946">
        <ele>1184.3</ele>
        <time>2023-01-21T10:21:35.000Z</time>
      </trkpt>
      <trkpt lat="46.27299" lon="6.55946">
        <ele>1184.3</ele>
        <time>2023-01-21T10:21:36.000Z</time>
      </trkpt>
      <trkpt lat="46.27299" lon="6.55946">
        <ele>1184.3</ele>
        <time>2023-01-21T10:21:37.000Z</time>
      </trkpt>
      <trkpt lat="46.27299" lon="6.55946">
        <ele>1184.3</ele>
        <time>2023-01-21T10:21:38.000Z</time>
      </trkpt>
      <trkpt lat="46.27299" lon="6.55946">
        <ele>1187.6</ele>
        <time>2023-01-21T10:21:39.000Z</time>
      </trkpt>
      <trkpt lat="46.27299" lon="6.55946">
        <ele>1187.6</ele>
        <time>2023-01-21T10:21:40.000Z</time>
      </trkpt>
      <trkpt lat="46.27299" lon="6.55946">
        <ele>1187.6</ele>
        <time>2023-01-21T10:21:41.000Z</time>
      </trkpt>
      <trkpt lat="46.27299" lon="6.55946">
        <ele>1187.6</ele>
        <time>2023-01-21T10:21:42.000Z</time>
      </trkpt>
      <trkpt lat="46.27299" lon="6.55946">
        <ele>1187.6</ele>
        <time>2023-01-21T10:21:43.000Z</time>
      </trkpt>
      <trkpt lat="46.27299" lon="6.55946">
        <ele>1190.9</ele>
        <time>2023-01-21T10:21:44.000Z</time>
      </trkpt>
      <trkpt lat="46.27299" lon="6.55946">
        <ele>1190.9</ele>
        <time>2023-01-21T10:21:45.000Z</time>
      </trkpt>
      <trkpt lat="46.27299" lon="6.55946">
        <ele>1190.9</ele>
        <time>2023-01-21T10:21:46.000Z</time>
      </trkpt>
      <trkpt lat="46.27299" lon="6.55946">
        <ele>1190.9</ele>
        <time>2023-01-21T10:21:47.000Z</time>
      </trkpt>
      <trkpt lat="46.27299" lon="6.55946">
        <ele>1190.9</ele>
        <time>2023-01-21T10:21:48.000Z</time>
      </trkpt>
      <trkpt lat="46.27299" lon="6.55946">
        <ele>1190.9</ele>
        <time>2023-01-21T10:21:49.000Z</time>
      </trkpt>
      <trkpt lat="46.27299" lon="6.55946">
        <ele>1190.9</ele>
        <time>2023-01-21T10:21:50.000Z</time>
      </trkpt>
      <trkpt lat="46.27299" lon="6.55946">
        <ele>1190.9</ele>
        <time>2023-01-21T10:21:51.000Z</time>
      </trkpt>
      <trkpt lat="46.27299" lon="6.55946">
        <ele>1190.9</ele>
        <time>2023-01-21T10:21:52.000Z</time>
      </trkpt>
      <trkpt lat="46.27299" lon="6.55946">
        <ele>1190.9</ele>
        <time>2023-01-21T10:21:53.000Z</time>
      </trkpt>
      <trkpt lat="46.27299" lon="6.55946">
        <ele>1190.9</ele>
        <time>2023-01-21T10:21:54.000Z</time>
      </trkpt>
      <trkpt lat="46.27299" lon="6.55946">
        <ele>1190.9</ele>
        <time>2023-01-21T10:21:55.000Z</time>
      </trkpt>
      <trkpt lat="46.27299" lon="6.55946">
        <ele>1190.9</ele>
        <time>2023-01-21T10:21:56.000Z</time>
      </trkpt>
      <trkpt lat="46.27299" lon="6.55946">
        <ele>1190.9</ele>
        <time>2023-01-21T10:21:57.000Z</time>
      </trkpt>
      <trkpt lat="46.27299" lon="6.55946">
        <ele>1190.9</ele>
        <time>2023-01-21T10:21:58.000Z</time>
      </trkpt>
      <trkpt lat="46.27299" lon="6.55946">
        <ele>1190.9</ele>
        <time>2023-01-21T10:21:59.000Z</time>
      </trkpt>
      <trkpt lat="46.27299" lon="6.55946">
        <ele>1190.9</ele>
        <time>2023-01-21T10:22:00.000Z</time>
      </trkpt>
      <trkpt lat="46.27299" lon="6.55946">
        <ele>1190.9</ele>
        <time>2023-01-21T10:22:01.000Z</time>
      </trkpt>
      <trkpt lat="46.27299" lon="6.55946">
        <ele>1190.9</ele>
        <time>2023-01-21T10:22:02.000Z</time>
      </trkpt>
      <trkpt lat="46.27299" lon="6.55946">
        <ele>1190.9</ele>
        <time>2023-01-21T10:22:03.000Z</time>
      </trkpt>
      <trkpt lat="46.27299" lon="6.55946">
        <ele>1190.9</ele>
        <time>2023-01-21T10:22:04.000Z</time>
      </trkpt>
      <trkpt lat="46.27299" lon="6.55946">
        <ele>1190.9</ele>
        <time>2023-01-21T10:22:05.000Z</time>
      </trkpt>
      <trkpt lat="46.27299" lon="6.55946">
        <ele>1190.9</ele>
        <time>2023-01-21T10:22:06.000Z</time>
      </trkpt>
      <trkpt lat="46.27299" lon="6.55946">
        <ele>1190.9</ele>
        <time>2023-01-21T10:22:07.000Z</time>
      </trkpt>
      <trkpt lat="46.27299" lon="6.55946">
        <ele>1190.9</ele>
        <time>2023-01-21T10:22:08.000Z</time>
      </trkpt>
      <trkpt lat="46.27299" lon="6.55946">
        <ele>1190.9</ele>
        <time>2023-01-21T10:22:09.000Z</time>
      </trkpt>
      <trkpt lat="46.27299" lon="6.55946">
        <ele>1190.9</ele>
        <time>2023-01-21T10:22:10.000Z</time>
      </trkpt>
      <trkpt lat="46.27299" lon="6.55946">
        <ele>1190.9</ele>
        <time>2023-01-21T10:22:11.000Z</time>
      </trkpt>
      <trkpt lat="46.27299" lon="6.55946">
        <ele>1190.9</ele>
        <time>2023-01-21T10:22:12.000Z</time>
      </trkpt>
      <trkpt lat="46.27299" lon="6.55946">
        <ele>1190.9</ele>
        <time>2023-01-21T10:22:13.000Z</time>
      </trkpt>
      <trkpt lat="46.27299" lon="6.55946">
        <ele>1190.9</ele>
        <time>2023-01-21T10:22:14.000Z</time>
      </trkpt>
      <trkpt lat="46.27299" lon="6.55946">
        <ele>1190.9</ele>
        <time>2023-01-21T10:22:15.000Z</time>
      </trkpt>
      <trkpt lat="46.27299" lon="6.55946">
        <ele>1190.9</ele>
        <time>2023-01-21T10:22:16.000Z</time>
      </trkpt>
      <trkpt lat="46.27299" lon="6.55946">
        <ele>1190.9</ele>
        <time>2023-01-21T10:22:17.000Z</time>
      </trkpt>
      <trkpt lat="46.27299" lon="6.55946">
        <ele>1190.9</ele>
        <time>2023-01-21T10:22:18.000Z</time>
      </trkpt>
      <trkpt lat="46.27299" lon="6.55946">
        <ele>1190.9</ele>
        <time>2023-01-21T10:22:19.000Z</time>
      </trkpt>
      <trkpt lat="46.27299" lon="6.55946">
        <ele>1190.9</ele>
        <time>2023-01-21T10:22:20.000Z</time>
      </trkpt>
      <trkpt lat="46.27299" lon="6.55946">
        <ele>1190.9</ele>
        <time>2023-01-21T10:22:21.000Z</time>
      </trkpt>
      <trkpt lat="46.27299" lon="6.55946">
        <ele>1187.7</ele>
        <time>2023-01-21T10:22:22.000Z</time>
      </trkpt>
      <trkpt lat="46.27299" lon="6.55946">
        <ele>1187.7</ele>
        <time>2023-01-21T10:22:23.000Z</time>
      </trkpt>
      <trkpt lat="46.27299" lon="6.55946">
        <ele>1187.7</ele>
        <time>2023-01-21T10:22:24.000Z</time>
      </trkpt>
      <trkpt lat="46.27299" lon="6.55946">
        <ele>1187.7</ele>
        <time>2023-01-21T10:22:25.000Z</time>
      </trkpt>
      <trkpt lat="46.27299" lon="6.55946">
        <ele>1187.7</ele>
        <time>2023-01-21T10:22:26.000Z</time>
      </trkpt>
      <trkpt lat="46.27299" lon="6.55946">
        <ele>1187.7</ele>
        <time>2023-01-21T10:22:27.000Z</time>
      </trkpt>
      <trkpt lat="46.27299" lon="6.55946">
        <ele>1187.7</ele>
        <time>2023-01-21T10:22:28.000Z</time>
      </trkpt>
      <trkpt lat="46.27299" lon="6.55946">
        <ele>1187.7</ele>
        <time>2023-01-21T10:22:29.000Z</time>
      </trkpt>
      <trkpt lat="46.27299" lon="6.55946">
        <ele>1187.7</ele>
        <time>2023-01-21T10:22:30.000Z</time>
      </trkpt>
      <trkpt lat="46.27299" lon="6.55946">
        <ele>1187.7</ele>
        <time>2023-01-21T10:22:31.000Z</time>
      </trkpt>
      <trkpt lat="46.27299" lon="6.55946">
        <ele>1187.7</ele>
        <time>2023-01-21T10:22:32.000Z</time>
      </trkpt>
      <trkpt lat="46.27299" lon="6.55946">
        <ele>1187.7</ele>
        <time>2023-01-21T10:22:33.000Z</time>
      </trkpt>
      <trkpt lat="46.27299" lon="6.55946">
        <ele>1187.7</ele>
        <time>2023-01-21T10:22:34.000Z</time>
      </trkpt>
      <trkpt lat="46.27299" lon="6.55946">
        <ele>1187.7</ele>
        <time>2023-01-21T10:22:35.000Z</time>
      </trkpt>
      <trkpt lat="46.27299" lon="6.55946">
        <ele>1187.7</ele>
        <time>2023-01-21T10:22:36.000Z</time>
      </trkpt>
      <trkpt lat="46.27299" lon="6.55946">
        <ele>1187.7</ele>
        <time>2023-01-21T10:22:37.000Z</time>
      </trkpt>
      <trkpt lat="46.27299" lon="6.55946">
        <ele>1187.7</ele>
        <time>2023-01-21T10:22:38.000Z</time>
      </trkpt>
      <trkpt lat="46.27299" lon="6.55946">
        <ele>1187.7</ele>
        <time>2023-01-21T10:22:39.000Z</time>
      </trkpt>
      <trkpt lat="46.27299" lon="6.55946">
        <ele>1187.7</ele>
        <time>2023-01-21T10:22:40.000Z</time>
      </trkpt>
      <trkpt lat="46.27299" lon="6.55946">
        <ele>1187.7</ele>
        <time>2023-01-21T10:22:41.000Z</time>
      </trkpt>
      <trkpt lat="46.27296" lon="6.55949">
        <ele>1186.5</ele>
        <time>2023-01-21T10:22:42.000Z</time>
      </trkpt>
      <trkpt lat="46.27297" lon="6.55949">
        <ele>1186.8</ele>
        <time>2023-01-21T10:22:43.000Z</time>
      </trkpt>
      <trkpt lat="46.27297" lon="6.55949">
        <ele>1187.2</ele>
        <time>2023-01-21T10:22:44.000Z</time>
      </trkpt>
      <trkpt lat="46.27298" lon="6.55948">
        <ele>1187.3</ele>
        <time>2023-01-21T10:22:45.000Z</time>
      </trkpt>
      <trkpt lat="46.27298" lon="6.55948">
        <ele>1187.3</ele>
        <time>2023-01-21T10:22:46.000Z</time>
      </trkpt>
      <trkpt lat="46.27298" lon="6.55948">
        <ele>1187.3</ele>
        <time>2023-01-21T10:22:47.000Z</time>
      </trkpt>
      <trkpt lat="46.27298" lon="6.55948">
        <ele>1187.3</ele>
        <time>2023-01-21T10:22:48.000Z</time>
      </trkpt>
      <trkpt lat="46.27298" lon="6.55948">
        <ele>1187.3</ele>
        <time>2023-01-21T10:22:49.000Z</time>
      </trkpt>
      <trkpt lat="46.27298" lon="6.55948">
        <ele>1187.3</ele>
        <time>2023-01-21T10:22:50.000Z</time>
      </trkpt>
      <trkpt lat="46.27298" lon="6.55948">
        <ele>1187.3</ele>
        <time>2023-01-21T10:22:51.000Z</time>
      </trkpt>
      <trkpt lat="46.27298" lon="6.55948">
        <ele>1187.3</ele>
        <time>2023-01-21T10:22:52.000Z</time>
      </trkpt>
      <trkpt lat="46.27298" lon="6.55948">
        <ele>1187.3</ele>
        <time>2023-01-21T10:22:53.000Z</time>
      </trkpt>
      <trkpt lat="46.27298" lon="6.55948">
        <ele>1187.3</ele>
        <time>2023-01-21T10:22:54.000Z</time>
      </trkpt>
      <trkpt lat="46.27298" lon="6.55948">
        <ele>1187.3</ele>
        <time>2023-01-21T10:22:55.000Z</time>
      </trkpt>
      <trkpt lat="46.27298" lon="6.55948">
        <ele>1187.3</ele>
        <time>2023-01-21T10:22:56.000Z</time>
      </trkpt>
      <trkpt lat="46.27298" lon="6.55948">
        <ele>1187.3</ele>
        <time>2023-01-21T10:22:57.000Z</time>
      </trkpt>
      <trkpt lat="46.27298" lon="6.55948">
        <ele>1187.3</ele>
        <time>2023-01-21T10:22:58.000Z</time>
      </trkpt>
      <trkpt lat="46.27298" lon="6.55948">
        <ele>1187.3</ele>
        <time>2023-01-21T10:22:59.000Z</time>
      </trkpt>
      <trkpt lat="46.27298" lon="6.55948">
        <ele>1187.3</ele>
        <time>2023-01-21T10:23:00.000Z</time>
      </trkpt>
      <trkpt lat="46.27298" lon="6.55948">
        <ele>1187.3</ele>
        <time>2023-01-21T10:23:01.000Z</time>
      </trkpt>
      <trkpt lat="46.27298" lon="6.55948">
        <ele>1187.3</ele>
        <time>2023-01-21T10:23:02.000Z</time>
      </trkpt>
      <trkpt lat="46.27298" lon="6.55948">
        <ele>1187.3</ele>
        <time>2023-01-21T10:23:03.000Z</time>
      </trkpt>
      <trkpt lat="46.27298" lon="6.55948">
        <ele>1187.3</ele>
        <time>2023-01-21T10:23:04.000Z</time>
      </trkpt>
      <trkpt lat="46.27298" lon="6.55948">
        <ele>1187.3</ele>
        <time>2023-01-21T10:23:05.000Z</time>
      </trkpt>
      <trkpt lat="46.27298" lon="6.55948">
        <ele>1187.3</ele>
        <time>2023-01-21T10:23:06.000Z</time>
      </trkpt>
      <trkpt lat="46.27298" lon="6.55948">
        <ele>1187.3</ele>
        <time>2023-01-21T10:23:07.000Z</time>
      </trkpt>
      <trkpt lat="46.27298" lon="6.55948">
        <ele>1187.3</ele>
        <time>2023-01-21T10:23:08.000Z</time>
      </trkpt>
      <trkpt lat="46.27298" lon="6.55948">
        <ele>1187.3</ele>
        <time>2023-01-21T10:23:09.000Z</time>
      </trkpt>
      <trkpt lat="46.27298" lon="6.55948">
        <ele>1187.3</ele>
        <time>2023-01-21T10:23:10.000Z</time>
      </trkpt>
      <trkpt lat="46.27298" lon="6.55948">
        <ele>1187.3</ele>
        <time>2023-01-21T10:23:11.000Z</time>
      </trkpt>
      <trkpt lat="46.27298" lon="6.55948">
        <ele>1187.3</ele>
        <time>2023-01-21T10:23:12.000Z</time>
      </trkpt>
      <trkpt lat="46.27298" lon="6.55948">
        <ele>1187.3</ele>
        <time>2023-01-21T10:23:13.000Z</time>
      </trkpt>
      <trkpt lat="46.27298" lon="6.55948">
        <ele>1187.3</ele>
        <time>2023-01-21T10:23:14.000Z</time>
      </trkpt>
      <trkpt lat="46.27298" lon="6.55948">
        <ele>1187.3</ele>
        <time>2023-01-21T10:23:15.000Z</time>
      </trkpt>
      <trkpt lat="46.27298" lon="6.55948">
        <ele>1187.3</ele>
        <time>2023-01-21T10:23:16.000Z</time>
      </trkpt>
      <trkpt lat="46.27298" lon="6.55948">
        <ele>1187.3</ele>
        <time>2023-01-21T10:23:17.000Z</time>
      </trkpt>
      <trkpt lat="46.27298" lon="6.55948">
        <ele>1187.3</ele>
        <time>2023-01-21T10:23:18.000Z</time>
      </trkpt>
      <trkpt lat="46.27298" lon="6.55948">
        <ele>1187.3</ele>
        <time>2023-01-21T10:23:19.000Z</time>
      </trkpt>
      <trkpt lat="46.27298" lon="6.55948">
        <ele>1187.3</ele>
        <time>2023-01-21T10:23:20.000Z</time>
      </trkpt>
      <trkpt lat="46.27298" lon="6.55948">
        <ele>1187.3</ele>
        <time>2023-01-21T10:23:21.000Z</time>
      </trkpt>
      <trkpt lat="46.27298" lon="6.55948">
        <ele>1187.3</ele>
        <time>2023-01-21T10:23:22.000Z</time>
      </trkpt>
      <trkpt lat="46.27298" lon="6.55948">
        <ele>1187.3</ele>
        <time>2023-01-21T10:23:23.000Z</time>
      </trkpt>
      <trkpt lat="46.27298" lon="6.55948">
        <ele>1187.3</ele>
        <time>2023-01-21T10:23:24.000Z</time>
      </trkpt>
      <trkpt lat="46.27298" lon="6.55948">
        <ele>1187.3</ele>
        <time>2023-01-21T10:23:25.000Z</time>
      </trkpt>
      <trkpt lat="46.27298" lon="6.55948">
        <ele>1187.3</ele>
        <time>2023-01-21T10:23:26.000Z</time>
      </trkpt>
      <trkpt lat="46.27298" lon="6.55948">
        <ele>1187.3</ele>
        <time>2023-01-21T10:23:27.000Z</time>
      </trkpt>
      <trkpt lat="46.27298" lon="6.55948">
        <ele>1187.3</ele>
        <time>2023-01-21T10:23:28.000Z</time>
      </trkpt>
      <trkpt lat="46.27298" lon="6.55948">
        <ele>1187.3</ele>
        <time>2023-01-21T10:23:29.000Z</time>
      </trkpt>
      <trkpt lat="46.27298" lon="6.55948">
        <ele>1187.3</ele>
        <time>2023-01-21T10:23:30.000Z</time>
      </trkpt>
      <trkpt lat="46.27298" lon="6.55948">
        <ele>1187.3</ele>
        <time>2023-01-21T10:23:31.000Z</time>
      </trkpt>
      <trkpt lat="46.27298" lon="6.55948">
        <ele>1187.3</ele>
        <time>2023-01-21T10:23:32.000Z</time>
      </trkpt>
      <trkpt lat="46.27298" lon="6.55948">
        <ele>1187.3</ele>
        <time>2023-01-21T10:23:33.000Z</time>
      </trkpt>
      <trkpt lat="46.27298" lon="6.55948">
        <ele>1187.3</ele>
        <time>2023-01-21T10:23:34.000Z</time>
      </trkpt>
      <trkpt lat="46.27298" lon="6.55948">
        <ele>1187.3</ele>
        <time>2023-01-21T10:23:35.000Z</time>
      </trkpt>
      <trkpt lat="46.27298" lon="6.55948">
        <ele>1187.3</ele>
        <time>2023-01-21T10:23:36.000Z</time>
      </trkpt>
      <trkpt lat="46.27298" lon="6.55948">
        <ele>1187.3</ele>
        <time>2023-01-21T10:23:37.000Z</time>
      </trkpt>
      <trkpt lat="46.27298" lon="6.55948">
        <ele>1187.3</ele>
        <time>2023-01-21T10:23:38.000Z</time>
      </trkpt>
      <trkpt lat="46.27298" lon="6.55948">
        <ele>1187.3</ele>
        <time>2023-01-21T10:23:39.000Z</time>
      </trkpt>
      <trkpt lat="46.27298" lon="6.55948">
        <ele>1187.3</ele>
        <time>2023-01-21T10:23:40.000Z</time>
      </trkpt>
      <trkpt lat="46.27298" lon="6.55948">
        <ele>1187.3</ele>
        <time>2023-01-21T10:23:41.000Z</time>
      </trkpt>
      <trkpt lat="46.27298" lon="6.55948">
        <ele>1184.3</ele>
        <time>2023-01-21T10:23:42.000Z</time>
      </trkpt>
      <trkpt lat="46.27298" lon="6.55948">
        <ele>1184.3</ele>
        <time>2023-01-21T10:23:43.000Z</time>
      </trkpt>
      <trkpt lat="46.27298" lon="6.55948">
        <ele>1184.3</ele>
        <time>2023-01-21T10:23:44.000Z</time>
      </trkpt>
      <trkpt lat="46.27298" lon="6.55948">
        <ele>1184.3</ele>
        <time>2023-01-21T10:23:45.000Z</time>
      </trkpt>
      <trkpt lat="46.27298" lon="6.55948">
        <ele>1184.3</ele>
        <time>2023-01-21T10:23:46.000Z</time>
      </trkpt>
      <trkpt lat="46.27298" lon="6.55948">
        <ele>1184.3</ele>
        <time>2023-01-21T10:23:47.000Z</time>
      </trkpt>
      <trkpt lat="46.27298" lon="6.55948">
        <ele>1184.3</ele>
        <time>2023-01-21T10:23:48.000Z</time>
      </trkpt>
      <trkpt lat="46.27298" lon="6.55948">
        <ele>1184.3</ele>
        <time>2023-01-21T10:23:49.000Z</time>
      </trkpt>
      <trkpt lat="46.27298" lon="6.55948">
        <ele>1184.3</ele>
        <time>2023-01-21T10:23:50.000Z</time>
      </trkpt>
      <trkpt lat="46.27298" lon="6.55948">
        <ele>1184.3</ele>
        <time>2023-01-21T10:23:51.000Z</time>
      </trkpt>
      <trkpt lat="46.27298" lon="6.55948">
        <ele>1184.3</ele>
        <time>2023-01-21T10:23:52.000Z</time>
      </trkpt>
      <trkpt lat="46.27298" lon="6.55948">
        <ele>1184.3</ele>
        <time>2023-01-21T10:23:53.000Z</time>
      </trkpt>
      <trkpt lat="46.27298" lon="6.55948">
        <ele>1184.3</ele>
        <time>2023-01-21T10:23:54.000Z</time>
      </trkpt>
      <trkpt lat="46.27298" lon="6.55948">
        <ele>1184.3</ele>
        <time>2023-01-21T10:23:55.000Z</time>
      </trkpt>
      <trkpt lat="46.27298" lon="6.55948">
        <ele>1184.3</ele>
        <time>2023-01-21T10:23:56.000Z</time>
      </trkpt>
      <trkpt lat="46.27298" lon="6.55948">
        <ele>1184.3</ele>
        <time>2023-01-21T10:23:57.000Z</time>
      </trkpt>
      <trkpt lat="46.27298" lon="6.55948">
        <ele>1184.3</ele>
        <time>2023-01-21T10:23:58.000Z</time>
      </trkpt>
      <trkpt lat="46.27298" lon="6.55948">
        <ele>1184.3</ele>
        <time>2023-01-21T10:23:59.000Z</time>
      </trkpt>
      <trkpt lat="46.27298" lon="6.55948">
        <ele>1184.3</ele>
        <time>2023-01-21T10:24:00.000Z</time>
      </trkpt>
      <trkpt lat="46.27298" lon="6.55948">
        <ele>1184.3</ele>
        <time>2023-01-21T10:24:01.000Z</time>
      </trkpt>
      <trkpt lat="46.27298" lon="6.55948">
        <ele>1184.3</ele>
        <time>2023-01-21T10:24:02.000Z</time>
      </trkpt>
      <trkpt lat="46.27298" lon="6.55948">
        <ele>1184.3</ele>
        <time>2023-01-21T10:24:03.000Z</time>
      </trkpt>
      <trkpt lat="46.27298" lon="6.55948">
        <ele>1184.3</ele>
        <time>2023-01-21T10:24:04.000Z</time>
      </trkpt>
      <trkpt lat="46.27298" lon="6.55948">
        <ele>1184.3</ele>
        <time>2023-01-21T10:24:05.000Z</time>
      </trkpt>
      <trkpt lat="46.27298" lon="6.55948">
        <ele>1184.3</ele>
        <time>2023-01-21T10:24:06.000Z</time>
      </trkpt>
      <trkpt lat="46.27298" lon="6.55948">
        <ele>1184.3</ele>
        <time>2023-01-21T10:24:07.000Z</time>
      </trkpt>
      <trkpt lat="46.27297" lon="6.55946">
        <ele>1182.8</ele>
        <time>2023-01-21T10:24:08.000Z</time>
      </trkpt>
      <trkpt lat="46.27297" lon="6.55947">
        <ele>1182.7</ele>
        <time>2023-01-21T10:24:09.000Z</time>
      </trkpt>
      <trkpt lat="46.27297" lon="6.55948">
        <ele>1182.9</ele>
        <time>2023-01-21T10:24:10.000Z</time>
      </trkpt>
      <trkpt lat="46.27297" lon="6.55949">
        <ele>1183</ele>
        <time>2023-01-21T10:24:11.000Z</time>
      </trkpt>
      <trkpt lat="46.27298" lon="6.5595">
        <ele>1183</ele>
        <time>2023-01-21T10:24:12.000Z</time>
      </trkpt>
      <trkpt lat="46.27298" lon="6.55951">
        <ele>1183.1</ele>
        <time>2023-01-21T10:24:13.000Z</time>
      </trkpt>
      <trkpt lat="46.27299" lon="6.55952">
        <ele>1183.1</ele>
        <time>2023-01-21T10:24:14.000Z</time>
      </trkpt>
      <trkpt lat="46.27299" lon="6.55953">
        <ele>1183.2</ele>
        <time>2023-01-21T10:24:15.000Z</time>
      </trkpt>
      <trkpt lat="46.273" lon="6.55955">
        <ele>1183.2</ele>
        <time>2023-01-21T10:24:16.000Z</time>
      </trkpt>
      <trkpt lat="46.27299" lon="6.55956">
        <ele>1183.2</ele>
        <time>2023-01-21T10:24:17.000Z</time>
      </trkpt>
      <trkpt lat="46.27299" lon="6.55957">
        <ele>1183.1</ele>
        <time>2023-01-21T10:24:18.000Z</time>
      </trkpt>
      <trkpt lat="46.273" lon="6.55958">
        <ele>1183.2</ele>
        <time>2023-01-21T10:24:19.000Z</time>
      </trkpt>
      <trkpt lat="46.273" lon="6.55959">
        <ele>1183.2</ele>
        <time>2023-01-21T10:24:20.000Z</time>
      </trkpt>
      <trkpt lat="46.27301" lon="6.5596">
        <ele>1183.1</ele>
        <time>2023-01-21T10:24:21.000Z</time>
      </trkpt>
      <trkpt lat="46.27301" lon="6.5596">
        <ele>1182.4</ele>
        <time>2023-01-21T10:24:22.000Z</time>
      </trkpt>
      <trkpt lat="46.27302" lon="6.55961">
        <ele>1182.4</ele>
        <time>2023-01-21T10:24:23.000Z</time>
      </trkpt>
      <trkpt lat="46.27303" lon="6.55962">
        <ele>1182.3</ele>
        <time>2023-01-21T10:24:24.000Z</time>
      </trkpt>
      <trkpt lat="46.27304" lon="6.55963">
        <ele>1182.3</ele>
        <time>2023-01-21T10:24:25.000Z</time>
      </trkpt>
      <trkpt lat="46.27305" lon="6.55963">
        <ele>1181.8</ele>
        <time>2023-01-21T10:24:26.000Z</time>
      </trkpt>
      <trkpt lat="46.27305" lon="6.55965">
        <ele>1181.7</ele>
        <time>2023-01-21T10:24:27.000Z</time>
      </trkpt>
      <trkpt lat="46.27306" lon="6.55965">
        <ele>1181.4</ele>
        <time>2023-01-21T10:24:28.000Z</time>
      </trkpt>
      <trkpt lat="46.27306" lon="6.55966">
        <ele>1181.3</ele>
        <time>2023-01-21T10:24:29.000Z</time>
      </trkpt>
      <trkpt lat="46.27306" lon="6.55967">
        <ele>1181.3</ele>
        <time>2023-01-21T10:24:30.000Z</time>
      </trkpt>
      <trkpt lat="46.27307" lon="6.55967">
        <ele>1181.2</ele>
        <time>2023-01-21T10:24:31.000Z</time>
      </trkpt>
      <trkpt lat="46.27307" lon="6.55967">
        <ele>1180.8</ele>
        <time>2023-01-21T10:24:32.000Z</time>
      </trkpt>
      <trkpt lat="46.27307" lon="6.55967">
        <ele>1180.6</ele>
        <time>2023-01-21T10:24:33.000Z</time>
      </trkpt>
      <trkpt lat="46.27306" lon="6.55968">
        <ele>1180.3</ele>
        <time>2023-01-21T10:24:34.000Z</time>
      </trkpt>
      <trkpt lat="46.27306" lon="6.55969">
        <ele>1179.9</ele>
        <time>2023-01-21T10:24:35.000Z</time>
      </trkpt>
      <trkpt lat="46.27306" lon="6.5597">
        <ele>1179.6</ele>
        <time>2023-01-21T10:24:36.000Z</time>
      </trkpt>
      <trkpt lat="46.27307" lon="6.55971">
        <ele>1179.3</ele>
        <time>2023-01-21T10:24:37.000Z</time>
      </trkpt>
      <trkpt lat="46.27306" lon="6.55971">
        <ele>1178.9</ele>
        <time>2023-01-21T10:24:38.000Z</time>
      </trkpt>
      <trkpt lat="46.27306" lon="6.55972">
        <ele>1178.4</ele>
        <time>2023-01-21T10:24:39.000Z</time>
      </trkpt>
      <trkpt lat="46.27306" lon="6.55972">
        <ele>1178.1</ele>
        <time>2023-01-21T10:24:40.000Z</time>
      </trkpt>
      <trkpt lat="46.27306" lon="6.55973">
        <ele>1177.9</ele>
        <time>2023-01-21T10:24:41.000Z</time>
      </trkpt>
      <trkpt lat="46.27307" lon="6.55974">
        <ele>1177.6</ele>
        <time>2023-01-21T10:24:42.000Z</time>
      </trkpt>
      <trkpt lat="46.27306" lon="6.55974">
        <ele>1177.1</ele>
        <time>2023-01-21T10:24:43.000Z</time>
      </trkpt>
      <trkpt lat="46.27307" lon="6.55976">
        <ele>1176.6</ele>
        <time>2023-01-21T10:24:44.000Z</time>
      </trkpt>
      <trkpt lat="46.27307" lon="6.55977">
        <ele>1176.6</ele>
        <time>2023-01-21T10:24:45.000Z</time>
      </trkpt>
      <trkpt lat="46.27307" lon="6.55978">
        <ele>1176.4</ele>
        <time>2023-01-21T10:24:46.000Z</time>
      </trkpt>
      <trkpt lat="46.27307" lon="6.55979">
        <ele>1176.3</ele>
        <time>2023-01-21T10:24:47.000Z</time>
      </trkpt>
      <trkpt lat="46.27307" lon="6.5598">
        <ele>1176.2</ele>
        <time>2023-01-21T10:24:48.000Z</time>
      </trkpt>
      <trkpt lat="46.27307" lon="6.5598">
        <ele>1176</ele>
        <time>2023-01-21T10:24:49.000Z</time>
      </trkpt>
      <trkpt lat="46.27307" lon="6.55981">
        <ele>1175.9</ele>
        <time>2023-01-21T10:24:50.000Z</time>
      </trkpt>
      <trkpt lat="46.27306" lon="6.55982">
        <ele>1175.7</ele>
        <time>2023-01-21T10:24:51.000Z</time>
      </trkpt>
      <trkpt lat="46.27307" lon="6.55983">
        <ele>1175.5</ele>
        <time>2023-01-21T10:24:52.000Z</time>
      </trkpt>
      <trkpt lat="46.27307" lon="6.55984">
        <ele>1175.6</ele>
        <time>2023-01-21T10:24:53.000Z</time>
      </trkpt>
      <trkpt lat="46.27306" lon="6.55985">
        <ele>1175.3</ele>
        <time>2023-01-21T10:24:54.000Z</time>
      </trkpt>
      <trkpt lat="46.27306" lon="6.55986">
        <ele>1175</ele>
        <time>2023-01-21T10:24:55.000Z</time>
      </trkpt>
      <trkpt lat="46.27306" lon="6.55986">
        <ele>1174.9</ele>
        <time>2023-01-21T10:24:56.000Z</time>
      </trkpt>
      <trkpt lat="46.27306" lon="6.55987">
        <ele>1174.8</ele>
        <time>2023-01-21T10:24:57.000Z</time>
      </trkpt>
      <trkpt lat="46.27306" lon="6.55987">
        <ele>1174.9</ele>
        <time>2023-01-21T10:24:58.000Z</time>
      </trkpt>
      <trkpt lat="46.27307" lon="6.55988">
        <ele>1175</ele>
        <time>2023-01-21T10:24:59.000Z</time>
      </trkpt>
      <trkpt lat="46.27307" lon="6.55988">
        <ele>1175.2</ele>
        <time>2023-01-21T10:25:00.000Z</time>
      </trkpt>
      <trkpt lat="46.27307" lon="6.55988">
        <ele>1175.2</ele>
        <time>2023-01-21T10:25:01.000Z</time>
      </trkpt>
      <trkpt lat="46.27307" lon="6.55989">
        <ele>1175.3</ele>
        <time>2023-01-21T10:25:02.000Z</time>
      </trkpt>
      <trkpt lat="46.27307" lon="6.55989">
        <ele>1175.4</ele>
        <time>2023-01-21T10:25:03.000Z</time>
      </trkpt>
      <trkpt lat="46.27308" lon="6.55989">
        <ele>1175.6</ele>
        <time>2023-01-21T10:25:04.000Z</time>
      </trkpt>
      <trkpt lat="46.27309" lon="6.5599">
        <ele>1175.8</ele>
        <time>2023-01-21T10:25:05.000Z</time>
      </trkpt>
      <trkpt lat="46.2731" lon="6.55991">
        <ele>1175.8</ele>
        <time>2023-01-21T10:25:06.000Z</time>
      </trkpt>
      <trkpt lat="46.2731" lon="6.55993">
        <ele>1176.2</ele>
        <time>2023-01-21T10:25:07.000Z</time>
      </trkpt>
      <trkpt lat="46.27311" lon="6.55993">
        <ele>1176.4</ele>
        <time>2023-01-21T10:25:08.000Z</time>
      </trkpt>
      <trkpt lat="46.27312" lon="6.55994">
        <ele>1176.6</ele>
        <time>2023-01-21T10:25:09.000Z</time>
      </trkpt>
      <trkpt lat="46.27312" lon="6.55995">
        <ele>1176.8</ele>
        <time>2023-01-21T10:25:10.000Z</time>
      </trkpt>
      <trkpt lat="46.27313" lon="6.55996">
        <ele>1177.1</ele>
        <time>2023-01-21T10:25:11.000Z</time>
      </trkpt>
      <trkpt lat="46.27314" lon="6.55997">
        <ele>1177.1</ele>
        <time>2023-01-21T10:25:12.000Z</time>
      </trkpt>
      <trkpt lat="46.27314" lon="6.55998">
        <ele>1177.3</ele>
        <time>2023-01-21T10:25:13.000Z</time>
      </trkpt>
      <trkpt lat="46.27314" lon="6.55998">
        <ele>1177.4</ele>
        <time>2023-01-21T10:25:14.000Z</time>
      </trkpt>
      <trkpt lat="46.27315" lon="6.55999">
        <ele>1177.5</ele>
        <time>2023-01-21T10:25:15.000Z</time>
      </trkpt>
      <trkpt lat="46.27316" lon="6.55999">
        <ele>1177.6</ele>
        <time>2023-01-21T10:25:16.000Z</time>
      </trkpt>
      <trkpt lat="46.27318" lon="6.56">
        <ele>1177.7</ele>
        <time>2023-01-21T10:25:17.000Z</time>
      </trkpt>
      <trkpt lat="46.27319" lon="6.56001">
        <ele>1177.8</ele>
        <time>2023-01-21T10:25:18.000Z</time>
      </trkpt>
      <trkpt lat="46.2732" lon="6.56002">
        <ele>1178</ele>
        <time>2023-01-21T10:25:19.000Z</time>
      </trkpt>
      <trkpt lat="46.27321" lon="6.56002">
        <ele>1178.2</ele>
        <time>2023-01-21T10:25:20.000Z</time>
      </trkpt>
      <trkpt lat="46.27321" lon="6.56002">
        <ele>1178.2</ele>
        <time>2023-01-21T10:25:21.000Z</time>
      </trkpt>
      <trkpt lat="46.27322" lon="6.56003">
        <ele>1178.2</ele>
        <time>2023-01-21T10:25:22.000Z</time>
      </trkpt>
      <trkpt lat="46.27321" lon="6.56003">
        <ele>1178</ele>
        <time>2023-01-21T10:25:23.000Z</time>
      </trkpt>
      <trkpt lat="46.27322" lon="6.56003">
        <ele>1178</ele>
        <time>2023-01-21T10:25:24.000Z</time>
      </trkpt>
      <trkpt lat="46.27322" lon="6.56003">
        <ele>1177.9</ele>
        <time>2023-01-21T10:25:25.000Z</time>
      </trkpt>
      <trkpt lat="46.27322" lon="6.56004">
        <ele>1177.7</ele>
        <time>2023-01-21T10:25:26.000Z</time>
      </trkpt>
      <trkpt lat="46.27322" lon="6.56004">
        <ele>1177.4</ele>
        <time>2023-01-21T10:25:27.000Z</time>
      </trkpt>
      <trkpt lat="46.27322" lon="6.56005">
        <ele>1177.3</ele>
        <time>2023-01-21T10:25:28.000Z</time>
      </trkpt>
      <trkpt lat="46.27322" lon="6.56006">
        <ele>1177.1</ele>
        <time>2023-01-21T10:25:29.000Z</time>
      </trkpt>
      <trkpt lat="46.27322" lon="6.56006">
        <ele>1177.2</ele>
        <time>2023-01-21T10:25:30.000Z</time>
      </trkpt>
      <trkpt lat="46.27323" lon="6.56006">
        <ele>1177.2</ele>
        <time>2023-01-21T10:25:31.000Z</time>
      </trkpt>
      <trkpt lat="46.27324" lon="6.56006">
        <ele>1177.2</ele>
        <time>2023-01-21T10:25:32.000Z</time>
      </trkpt>
      <trkpt lat="46.27325" lon="6.56006">
        <ele>1177.1</ele>
        <time>2023-01-21T10:25:33.000Z</time>
      </trkpt>
      <trkpt lat="46.27325" lon="6.56006">
        <ele>1177.1</ele>
        <time>2023-01-21T10:25:34.000Z</time>
      </trkpt>
      <trkpt lat="46.27326" lon="6.56006">
        <ele>1177.2</ele>
        <time>2023-01-21T10:25:35.000Z</time>
      </trkpt>
      <trkpt lat="46.27327" lon="6.56006">
        <ele>1177.4</ele>
        <time>2023-01-21T10:25:36.000Z</time>
      </trkpt>
      <trkpt lat="46.27327" lon="6.56006">
        <ele>1177.5</ele>
        <time>2023-01-21T10:25:37.000Z</time>
      </trkpt>
      <trkpt lat="46.27327" lon="6.56006">
        <ele>1177.6</ele>
        <time>2023-01-21T10:25:38.000Z</time>
      </trkpt>
      <trkpt lat="46.27327" lon="6.56006">
        <ele>1177.5</ele>
        <time>2023-01-21T10:25:39.000Z</time>
      </trkpt>
      <trkpt lat="46.27327" lon="6.56007">
        <ele>1177.5</ele>
        <time>2023-01-21T10:25:40.000Z</time>
      </trkpt>
      <trkpt lat="46.27326" lon="6.56008">
        <ele>1177.5</ele>
        <time>2023-01-21T10:25:41.000Z</time>
      </trkpt>
      <trkpt lat="46.27326" lon="6.56008">
        <ele>1177.6</ele>
        <time>2023-01-21T10:25:42.000Z</time>
      </trkpt>
      <trkpt lat="46.27326" lon="6.56007">
        <ele>1177.9</ele>
        <time>2023-01-21T10:25:43.000Z</time>
      </trkpt>
      <trkpt lat="46.27327" lon="6.56006">
        <ele>1178.4</ele>
        <time>2023-01-21T10:25:44.000Z</time>
      </trkpt>
      <trkpt lat="46.27327" lon="6.56006">
        <ele>1178.5</ele>
        <time>2023-01-21T10:25:45.000Z</time>
      </trkpt>
      <trkpt lat="46.27327" lon="6.56006">
        <ele>1178.5</ele>
        <time>2023-01-21T10:25:46.000Z</time>
      </trkpt>
      <trkpt lat="46.27327" lon="6.56006">
        <ele>1178.5</ele>
        <time>2023-01-21T10:25:47.000Z</time>
      </trkpt>
      <trkpt lat="46.27327" lon="6.56006">
        <ele>1178.5</ele>
        <time>2023-01-21T10:25:48.000Z</time>
      </trkpt>
      <trkpt lat="46.27327" lon="6.56006">
        <ele>1178.5</ele>
        <time>2023-01-21T10:25:49.000Z</time>
      </trkpt>
      <trkpt lat="46.27327" lon="6.56006">
        <ele>1178.5</ele>
        <time>2023-01-21T10:25:50.000Z</time>
      </trkpt>
      <trkpt lat="46.27327" lon="6.56006">
        <ele>1178.5</ele>
        <time>2023-01-21T10:25:51.000Z</time>
      </trkpt>
      <trkpt lat="46.27327" lon="6.56006">
        <ele>1178.5</ele>
        <time>2023-01-21T10:25:52.000Z</time>
      </trkpt>
      <trkpt lat="46.27327" lon="6.56006">
        <ele>1178.5</ele>
        <time>2023-01-21T10:25:53.000Z</time>
      </trkpt>
      <trkpt lat="46.27327" lon="6.56006">
        <ele>1178.5</ele>
        <time>2023-01-21T10:25:54.000Z</time>
      </trkpt>
      <trkpt lat="46.27327" lon="6.56006">
        <ele>1178.5</ele>
        <time>2023-01-21T10:25:55.000Z</time>
      </trkpt>
      <trkpt lat="46.27327" lon="6.56006">
        <ele>1178.5</ele>
        <time>2023-01-21T10:25:56.000Z</time>
      </trkpt>
      <trkpt lat="46.27327" lon="6.56006">
        <ele>1178.5</ele>
        <time>2023-01-21T10:25:57.000Z</time>
      </trkpt>
      <trkpt lat="46.27327" lon="6.56006">
        <ele>1178.5</ele>
        <time>2023-01-21T10:25:58.000Z</time>
      </trkpt>
      <trkpt lat="46.27327" lon="6.56006">
        <ele>1178.5</ele>
        <time>2023-01-21T10:25:59.000Z</time>
      </trkpt>
      <trkpt lat="46.27327" lon="6.56006">
        <ele>1178.5</ele>
        <time>2023-01-21T10:26:00.000Z</time>
      </trkpt>
      <trkpt lat="46.27327" lon="6.56006">
        <ele>1178.5</ele>
        <time>2023-01-21T10:26:01.000Z</time>
      </trkpt>
      <trkpt lat="46.27327" lon="6.56006">
        <ele>1182.1</ele>
        <time>2023-01-21T10:26:02.000Z</time>
      </trkpt>
      <trkpt lat="46.27327" lon="6.56006">
        <ele>1182.1</ele>
        <time>2023-01-21T10:26:03.000Z</time>
      </trkpt>
      <trkpt lat="46.27331" lon="6.56013">
        <ele>1182.8</ele>
        <time>2023-01-21T10:26:04.000Z</time>
      </trkpt>
      <trkpt lat="46.27332" lon="6.56013">
        <ele>1183.2</ele>
        <time>2023-01-21T10:26:05.000Z</time>
      </trkpt>
      <trkpt lat="46.27332" lon="6.56014">
        <ele>1183.7</ele>
        <time>2023-01-21T10:26:06.000Z</time>
      </trkpt>
      <trkpt lat="46.27332" lon="6.56014">
        <ele>1184.1</ele>
        <time>2023-01-21T10:26:07.000Z</time>
      </trkpt>
      <trkpt lat="46.27332" lon="6.56013">
        <ele>1184.4</ele>
        <time>2023-01-21T10:26:08.000Z</time>
      </trkpt>
      <trkpt lat="46.27332" lon="6.56013">
        <ele>1184.4</ele>
        <time>2023-01-21T10:26:09.000Z</time>
      </trkpt>
      <trkpt lat="46.27332" lon="6.56013">
        <ele>1184.4</ele>
        <time>2023-01-21T10:26:10.000Z</time>
      </trkpt>
      <trkpt lat="46.27332" lon="6.56013">
        <ele>1184.4</ele>
        <time>2023-01-21T10:26:11.000Z</time>
      </trkpt>
      <trkpt lat="46.27332" lon="6.56013">
        <ele>1184.4</ele>
        <time>2023-01-21T10:26:12.000Z</time>
      </trkpt>
      <trkpt lat="46.27332" lon="6.56013">
        <ele>1184.4</ele>
        <time>2023-01-21T10:26:13.000Z</time>
      </trkpt>
      <trkpt lat="46.27332" lon="6.56013">
        <ele>1186</ele>
        <time>2023-01-21T10:26:14.000Z</time>
      </trkpt>
      <trkpt lat="46.27332" lon="6.56014">
        <ele>1186</ele>
        <time>2023-01-21T10:26:15.000Z</time>
      </trkpt>
      <trkpt lat="46.27331" lon="6.56014">
        <ele>1186.1</ele>
        <time>2023-01-21T10:26:16.000Z</time>
      </trkpt>
      <trkpt lat="46.27331" lon="6.56014">
        <ele>1186.1</ele>
        <time>2023-01-21T10:26:17.000Z</time>
      </trkpt>
      <trkpt lat="46.27331" lon="6.56014">
        <ele>1186.1</ele>
        <time>2023-01-21T10:26:18.000Z</time>
      </trkpt>
      <trkpt lat="46.27331" lon="6.56014">
        <ele>1186.1</ele>
        <time>2023-01-21T10:26:19.000Z</time>
      </trkpt>
      <trkpt lat="46.27331" lon="6.56014">
        <ele>1186.1</ele>
        <time>2023-01-21T10:26:20.000Z</time>
      </trkpt>
      <trkpt lat="46.27331" lon="6.56014">
        <ele>1186.1</ele>
        <time>2023-01-21T10:26:21.000Z</time>
      </trkpt>
      <trkpt lat="46.27331" lon="6.56014">
        <ele>1186.1</ele>
        <time>2023-01-21T10:26:22.000Z</time>
      </trkpt>
      <trkpt lat="46.27331" lon="6.56014">
        <ele>1186.1</ele>
        <time>2023-01-21T10:26:23.000Z</time>
      </trkpt>
      <trkpt lat="46.27331" lon="6.56014">
        <ele>1186.1</ele>
        <time>2023-01-21T10:26:24.000Z</time>
      </trkpt>
      <trkpt lat="46.27331" lon="6.56014">
        <ele>1186.1</ele>
        <time>2023-01-21T10:26:25.000Z</time>
      </trkpt>
      <trkpt lat="46.27331" lon="6.56014">
        <ele>1186.1</ele>
        <time>2023-01-21T10:26:26.000Z</time>
      </trkpt>
      <trkpt lat="46.27332" lon="6.56015">
        <ele>1187.1</ele>
        <time>2023-01-21T10:26:27.000Z</time>
      </trkpt>
      <trkpt lat="46.27332" lon="6.56014">
        <ele>1187</ele>
        <time>2023-01-21T10:26:28.000Z</time>
      </trkpt>
      <trkpt lat="46.27331" lon="6.56014">
        <ele>1186.3</ele>
        <time>2023-01-21T10:26:29.000Z</time>
      </trkpt>
      <trkpt lat="46.27331" lon="6.56014">
        <ele>1186.5</ele>
        <time>2023-01-21T10:26:30.000Z</time>
      </trkpt>
      <trkpt lat="46.27331" lon="6.56014">
        <ele>1186.5</ele>
        <time>2023-01-21T10:26:31.000Z</time>
      </trkpt>
      <trkpt lat="46.27331" lon="6.56014">
        <ele>1186.5</ele>
        <time>2023-01-21T10:26:32.000Z</time>
      </trkpt>
      <trkpt lat="46.27331" lon="6.56014">
        <ele>1186.5</ele>
        <time>2023-01-21T10:26:33.000Z</time>
      </trkpt>
      <trkpt lat="46.27331" lon="6.56014">
        <ele>1186.5</ele>
        <time>2023-01-21T10:26:34.000Z</time>
      </trkpt>
      <trkpt lat="46.27331" lon="6.56014">
        <ele>1186.5</ele>
        <time>2023-01-21T10:26:35.000Z</time>
      </trkpt>
      <trkpt lat="46.27334" lon="6.56013">
        <ele>1186.4</ele>
        <time>2023-01-21T10:26:36.000Z</time>
      </trkpt>
      <trkpt lat="46.27334" lon="6.56013">
        <ele>1186.5</ele>
        <time>2023-01-21T10:26:37.000Z</time>
      </trkpt>
      <trkpt lat="46.27335" lon="6.56013">
        <ele>1186.7</ele>
        <time>2023-01-21T10:26:38.000Z</time>
      </trkpt>
      <trkpt lat="46.27335" lon="6.56012">
        <ele>1186.9</ele>
        <time>2023-01-21T10:26:39.000Z</time>
      </trkpt>
      <trkpt lat="46.27335" lon="6.56012">
        <ele>1186.9</ele>
        <time>2023-01-21T10:26:40.000Z</time>
      </trkpt>
      <trkpt lat="46.27335" lon="6.56012">
        <ele>1186.9</ele>
        <time>2023-01-21T10:26:41.000Z</time>
      </trkpt>
      <trkpt lat="46.27335" lon="6.56012">
        <ele>1186.9</ele>
        <time>2023-01-21T10:26:42.000Z</time>
      </trkpt>
      <trkpt lat="46.27335" lon="6.56012">
        <ele>1186.9</ele>
        <time>2023-01-21T10:26:43.000Z</time>
      </trkpt>
      <trkpt lat="46.27333" lon="6.56016">
        <ele>1186.4</ele>
        <time>2023-01-21T10:26:44.000Z</time>
      </trkpt>
      <trkpt lat="46.27333" lon="6.56017">
        <ele>1186.4</ele>
        <time>2023-01-21T10:26:45.000Z</time>
      </trkpt>
      <trkpt lat="46.27335" lon="6.56017">
        <ele>1186.3</ele>
        <time>2023-01-21T10:26:46.000Z</time>
      </trkpt>
      <trkpt lat="46.27335" lon="6.56017">
        <ele>1186.3</ele>
        <time>2023-01-21T10:26:47.000Z</time>
      </trkpt>
      <trkpt lat="46.27335" lon="6.56018">
        <ele>1186.3</ele>
        <time>2023-01-21T10:26:48.000Z</time>
      </trkpt>
      <trkpt lat="46.27335" lon="6.56018">
        <ele>1186.2</ele>
        <time>2023-01-21T10:26:49.000Z</time>
      </trkpt>
      <trkpt lat="46.27336" lon="6.56019">
        <ele>1186.2</ele>
        <time>2023-01-21T10:26:50.000Z</time>
      </trkpt>
      <trkpt lat="46.27336" lon="6.5602">
        <ele>1186.2</ele>
        <time>2023-01-21T10:26:51.000Z</time>
      </trkpt>
      <trkpt lat="46.27336" lon="6.56021">
        <ele>1186.3</ele>
        <time>2023-01-21T10:26:52.000Z</time>
      </trkpt>
      <trkpt lat="46.27335" lon="6.56023">
        <ele>1186.5</ele>
        <time>2023-01-21T10:26:53.000Z</time>
      </trkpt>
      <trkpt lat="46.27335" lon="6.56023">
        <ele>1186.5</ele>
        <time>2023-01-21T10:26:54.000Z</time>
      </trkpt>
      <trkpt lat="46.27336" lon="6.56023">
        <ele>1186.3</ele>
        <time>2023-01-21T10:26:55.000Z</time>
      </trkpt>
      <trkpt lat="46.27336" lon="6.56023">
        <ele>1186</ele>
        <time>2023-01-21T10:26:56.000Z</time>
      </trkpt>
      <trkpt lat="46.27336" lon="6.56023">
        <ele>1185.7</ele>
        <time>2023-01-21T10:26:57.000Z</time>
      </trkpt>
      <trkpt lat="46.27336" lon="6.56024">
        <ele>1185.5</ele>
        <time>2023-01-21T10:26:58.000Z</time>
      </trkpt>
      <trkpt lat="46.27336" lon="6.56025">
        <ele>1185.4</ele>
        <time>2023-01-21T10:26:59.000Z</time>
      </trkpt>
      <trkpt lat="46.27336" lon="6.56026">
        <ele>1185.6</ele>
        <time>2023-01-21T10:27:00.000Z</time>
      </trkpt>
      <trkpt lat="46.27336" lon="6.56027">
        <ele>1185.9</ele>
        <time>2023-01-21T10:27:01.000Z</time>
      </trkpt>
      <trkpt lat="46.27336" lon="6.56027">
        <ele>1185.9</ele>
        <time>2023-01-21T10:27:02.000Z</time>
      </trkpt>
      <trkpt lat="46.27336" lon="6.56027">
        <ele>1185.9</ele>
        <time>2023-01-21T10:27:03.000Z</time>
      </trkpt>
      <trkpt lat="46.27336" lon="6.56027">
        <ele>1185.9</ele>
        <time>2023-01-21T10:27:04.000Z</time>
      </trkpt>
      <trkpt lat="46.27336" lon="6.56027">
        <ele>1185.9</ele>
        <time>2023-01-21T10:27:05.000Z</time>
      </trkpt>
      <trkpt lat="46.27336" lon="6.56027">
        <ele>1185.9</ele>
        <time>2023-01-21T10:27:06.000Z</time>
      </trkpt>
      <trkpt lat="46.27336" lon="6.56027">
        <ele>1185.9</ele>
        <time>2023-01-21T10:27:07.000Z</time>
      </trkpt>
      <trkpt lat="46.27336" lon="6.56027">
        <ele>1185.9</ele>
        <time>2023-01-21T10:27:08.000Z</time>
      </trkpt>
      <trkpt lat="46.27336" lon="6.56027">
        <ele>1185.9</ele>
        <time>2023-01-21T10:27:09.000Z</time>
      </trkpt>
      <trkpt lat="46.27336" lon="6.56027">
        <ele>1185.9</ele>
        <time>2023-01-21T10:27:10.000Z</time>
      </trkpt>
      <trkpt lat="46.27336" lon="6.56027">
        <ele>1185.9</ele>
        <time>2023-01-21T10:27:11.000Z</time>
      </trkpt>
      <trkpt lat="46.27336" lon="6.56027">
        <ele>1185.9</ele>
        <time>2023-01-21T10:27:12.000Z</time>
      </trkpt>
      <trkpt lat="46.27336" lon="6.56027">
        <ele>1185.9</ele>
        <time>2023-01-21T10:27:13.000Z</time>
      </trkpt>
      <trkpt lat="46.27336" lon="6.56027">
        <ele>1185.9</ele>
        <time>2023-01-21T10:27:14.000Z</time>
      </trkpt>
      <trkpt lat="46.27336" lon="6.56027">
        <ele>1185.9</ele>
        <time>2023-01-21T10:27:15.000Z</time>
      </trkpt>
      <trkpt lat="46.27336" lon="6.56027">
        <ele>1185.9</ele>
        <time>2023-01-21T10:27:16.000Z</time>
      </trkpt>
      <trkpt lat="46.27336" lon="6.56027">
        <ele>1185.9</ele>
        <time>2023-01-21T10:27:17.000Z</time>
      </trkpt>
      <trkpt lat="46.27337" lon="6.56028">
        <ele>1186</ele>
        <time>2023-01-21T10:27:18.000Z</time>
      </trkpt>
      <trkpt lat="46.27338" lon="6.56029">
        <ele>1186</ele>
        <time>2023-01-21T10:27:19.000Z</time>
      </trkpt>
      <trkpt lat="46.27338" lon="6.5603">
        <ele>1186</ele>
        <time>2023-01-21T10:27:20.000Z</time>
      </trkpt>
      <trkpt lat="46.27338" lon="6.56032">
        <ele>1186.2</ele>
        <time>2023-01-21T10:27:21.000Z</time>
      </trkpt>
      <trkpt lat="46.27338" lon="6.56032">
        <ele>1186.4</ele>
        <time>2023-01-21T10:27:22.000Z</time>
      </trkpt>
      <trkpt lat="46.27338" lon="6.56033">
        <ele>1186.5</ele>
        <time>2023-01-21T10:27:23.000Z</time>
      </trkpt>
      <trkpt lat="46.27338" lon="6.56033">
        <ele>1186.7</ele>
        <time>2023-01-21T10:27:24.000Z</time>
      </trkpt>
      <trkpt lat="46.27338" lon="6.56034">
        <ele>1186.8</ele>
        <time>2023-01-21T10:27:25.000Z</time>
      </trkpt>
      <trkpt lat="46.27338" lon="6.56035">
        <ele>1186.8</ele>
        <time>2023-01-21T10:27:26.000Z</time>
      </trkpt>
      <trkpt lat="46.27338" lon="6.56034">
        <ele>1187</ele>
        <time>2023-01-21T10:27:27.000Z</time>
      </trkpt>
      <trkpt lat="46.27338" lon="6.56035">
        <ele>1187.2</ele>
        <time>2023-01-21T10:27:28.000Z</time>
      </trkpt>
      <trkpt lat="46.27338" lon="6.56036">
        <ele>1187.2</ele>
        <time>2023-01-21T10:27:29.000Z</time>
      </trkpt>
      <trkpt lat="46.27338" lon="6.56037">
        <ele>1187.4</ele>
        <time>2023-01-21T10:27:30.000Z</time>
      </trkpt>
      <trkpt lat="46.27339" lon="6.56037">
        <ele>1187.6</ele>
        <time>2023-01-21T10:27:31.000Z</time>
      </trkpt>
      <trkpt lat="46.27339" lon="6.56038">
        <ele>1187.7</ele>
        <time>2023-01-21T10:27:32.000Z</time>
      </trkpt>
      <trkpt lat="46.2734" lon="6.56039">
        <ele>1187.7</ele>
        <time>2023-01-21T10:27:33.000Z</time>
      </trkpt>
      <trkpt lat="46.2734" lon="6.5604">
        <ele>1188</ele>
        <time>2023-01-21T10:27:34.000Z</time>
      </trkpt>
      <trkpt lat="46.2734" lon="6.5604">
        <ele>1188.1</ele>
        <time>2023-01-21T10:27:35.000Z</time>
      </trkpt>
      <trkpt lat="46.27341" lon="6.56041">
        <ele>1188.3</ele>
        <time>2023-01-21T10:27:36.000Z</time>
      </trkpt>
      <trkpt lat="46.27341" lon="6.56042">
        <ele>1188.7</ele>
        <time>2023-01-21T10:27:37.000Z</time>
      </trkpt>
      <trkpt lat="46.27341" lon="6.56042">
        <ele>1188.8</ele>
        <time>2023-01-21T10:27:38.000Z</time>
      </trkpt>
      <trkpt lat="46.27341" lon="6.56043">
        <ele>1189</ele>
        <time>2023-01-21T10:27:39.000Z</time>
      </trkpt>
      <trkpt lat="46.27342" lon="6.56043">
        <ele>1189.1</ele>
        <time>2023-01-21T10:27:40.000Z</time>
      </trkpt>
      <trkpt lat="46.27344" lon="6.56043">
        <ele>1189.7</ele>
        <time>2023-01-21T10:27:41.000Z</time>
      </trkpt>
      <trkpt lat="46.27345" lon="6.56044">
        <ele>1189.9</ele>
        <time>2023-01-21T10:27:42.000Z</time>
      </trkpt>
      <trkpt lat="46.27346" lon="6.56045">
        <ele>1190.7</ele>
        <time>2023-01-21T10:27:43.000Z</time>
      </trkpt>
      <trkpt lat="46.27345" lon="6.56045">
        <ele>1190.9</ele>
        <time>2023-01-21T10:27:44.000Z</time>
      </trkpt>
      <trkpt lat="46.27345" lon="6.56046">
        <ele>1191.3</ele>
        <time>2023-01-21T10:27:45.000Z</time>
      </trkpt>
      <trkpt lat="46.27344" lon="6.56047">
        <ele>1191.7</ele>
        <time>2023-01-21T10:27:46.000Z</time>
      </trkpt>
      <trkpt lat="46.27344" lon="6.56048">
        <ele>1191.9</ele>
        <time>2023-01-21T10:27:47.000Z</time>
      </trkpt>
      <trkpt lat="46.27344" lon="6.56049">
        <ele>1192.3</ele>
        <time>2023-01-21T10:27:48.000Z</time>
      </trkpt>
      <trkpt lat="46.27344" lon="6.56049">
        <ele>1192.6</ele>
        <time>2023-01-21T10:27:49.000Z</time>
      </trkpt>
      <trkpt lat="46.27345" lon="6.56049">
        <ele>1193.1</ele>
        <time>2023-01-21T10:27:50.000Z</time>
      </trkpt>
      <trkpt lat="46.27346" lon="6.56049">
        <ele>1193.3</ele>
        <time>2023-01-21T10:27:51.000Z</time>
      </trkpt>
      <trkpt lat="46.27347" lon="6.56049">
        <ele>1193.9</ele>
        <time>2023-01-21T10:27:52.000Z</time>
      </trkpt>
      <trkpt lat="46.27347" lon="6.5605">
        <ele>1194.2</ele>
        <time>2023-01-21T10:27:53.000Z</time>
      </trkpt>
      <trkpt lat="46.27346" lon="6.56051">
        <ele>1194.6</ele>
        <time>2023-01-21T10:27:54.000Z</time>
      </trkpt>
      <trkpt lat="46.27346" lon="6.56052">
        <ele>1195.1</ele>
        <time>2023-01-21T10:27:55.000Z</time>
      </trkpt>
      <trkpt lat="46.27346" lon="6.56053">
        <ele>1195.2</ele>
        <time>2023-01-21T10:27:56.000Z</time>
      </trkpt>
      <trkpt lat="46.27346" lon="6.56053">
        <ele>1195.6</ele>
        <time>2023-01-21T10:27:57.000Z</time>
      </trkpt>
      <trkpt lat="46.27346" lon="6.56053">
        <ele>1195.8</ele>
        <time>2023-01-21T10:27:58.000Z</time>
      </trkpt>
      <trkpt lat="46.27346" lon="6.56054">
        <ele>1196</ele>
        <time>2023-01-21T10:27:59.000Z</time>
      </trkpt>
      <trkpt lat="46.27345" lon="6.56055">
        <ele>1196.2</ele>
        <time>2023-01-21T10:28:00.000Z</time>
      </trkpt>
      <trkpt lat="46.27345" lon="6.56056">
        <ele>1196.6</ele>
        <time>2023-01-21T10:28:01.000Z</time>
      </trkpt>
      <trkpt lat="46.27345" lon="6.56057">
        <ele>1197.1</ele>
        <time>2023-01-21T10:28:02.000Z</time>
      </trkpt>
      <trkpt lat="46.27345" lon="6.56059">
        <ele>1197.7</ele>
        <time>2023-01-21T10:28:03.000Z</time>
      </trkpt>
      <trkpt lat="46.27344" lon="6.56059">
        <ele>1197.7</ele>
        <time>2023-01-21T10:28:04.000Z</time>
      </trkpt>
      <trkpt lat="46.27344" lon="6.56059">
        <ele>1197.7</ele>
        <time>2023-01-21T10:28:05.000Z</time>
      </trkpt>
      <trkpt lat="46.27344" lon="6.56059">
        <ele>1197.7</ele>
        <time>2023-01-21T10:28:06.000Z</time>
      </trkpt>
      <trkpt lat="46.27344" lon="6.56059">
        <ele>1197.7</ele>
        <time>2023-01-21T10:28:07.000Z</time>
      </trkpt>
      <trkpt lat="46.27344" lon="6.56059">
        <ele>1197.7</ele>
        <time>2023-01-21T10:28:08.000Z</time>
      </trkpt>
      <trkpt lat="46.27344" lon="6.56059">
        <ele>1197.7</ele>
        <time>2023-01-21T10:28:09.000Z</time>
      </trkpt>
      <trkpt lat="46.27344" lon="6.56059">
        <ele>1197.7</ele>
        <time>2023-01-21T10:28:10.000Z</time>
      </trkpt>
      <trkpt lat="46.27344" lon="6.56059">
        <ele>1197.7</ele>
        <time>2023-01-21T10:28:11.000Z</time>
      </trkpt>
      <trkpt lat="46.27344" lon="6.56059">
        <ele>1197.7</ele>
        <time>2023-01-21T10:28:12.000Z</time>
      </trkpt>
      <trkpt lat="46.27344" lon="6.56059">
        <ele>1197.7</ele>
        <time>2023-01-21T10:28:13.000Z</time>
      </trkpt>
      <trkpt lat="46.27344" lon="6.56059">
        <ele>1197.7</ele>
        <time>2023-01-21T10:28:14.000Z</time>
      </trkpt>
      <trkpt lat="46.27342" lon="6.56064">
        <ele>1199.2</ele>
        <time>2023-01-21T10:28:15.000Z</time>
      </trkpt>
      <trkpt lat="46.27344" lon="6.56066">
        <ele>1198.6</ele>
        <time>2023-01-21T10:28:16.000Z</time>
      </trkpt>
      <trkpt lat="46.27344" lon="6.56067">
        <ele>1198.5</ele>
        <time>2023-01-21T10:28:17.000Z</time>
      </trkpt>
      <trkpt lat="46.27344" lon="6.56068">
        <ele>1198.4</ele>
        <time>2023-01-21T10:28:18.000Z</time>
      </trkpt>
      <trkpt lat="46.27343" lon="6.56069">
        <ele>1197.3</ele>
        <time>2023-01-21T10:28:19.000Z</time>
      </trkpt>
      <trkpt lat="46.27344" lon="6.5607">
        <ele>1196.9</ele>
        <time>2023-01-21T10:28:20.000Z</time>
      </trkpt>
      <trkpt lat="46.27344" lon="6.5607">
        <ele>1196.2</ele>
        <time>2023-01-21T10:28:21.000Z</time>
      </trkpt>
      <trkpt lat="46.27344" lon="6.5607">
        <ele>1195.6</ele>
        <time>2023-01-21T10:28:22.000Z</time>
      </trkpt>
      <trkpt lat="46.27343" lon="6.5607">
        <ele>1195.4</ele>
        <time>2023-01-21T10:28:23.000Z</time>
      </trkpt>
      <trkpt lat="46.27343" lon="6.56071">
        <ele>1195.1</ele>
        <time>2023-01-21T10:28:24.000Z</time>
      </trkpt>
      <trkpt lat="46.27343" lon="6.56071">
        <ele>1194.8</ele>
        <time>2023-01-21T10:28:25.000Z</time>
      </trkpt>
      <trkpt lat="46.27343" lon="6.56072">
        <ele>1194.5</ele>
        <time>2023-01-21T10:28:26.000Z</time>
      </trkpt>
      <trkpt lat="46.27343" lon="6.56073">
        <ele>1194.1</ele>
        <time>2023-01-21T10:28:27.000Z</time>
      </trkpt>
      <trkpt lat="46.27344" lon="6.56074">
        <ele>1193.8</ele>
        <time>2023-01-21T10:28:28.000Z</time>
      </trkpt>
      <trkpt lat="46.27344" lon="6.56075">
        <ele>1193.5</ele>
        <time>2023-01-21T10:28:29.000Z</time>
      </trkpt>
      <trkpt lat="46.27344" lon="6.56076">
        <ele>1193</ele>
        <time>2023-01-21T10:28:30.000Z</time>
      </trkpt>
      <trkpt lat="46.27344" lon="6.56076">
        <ele>1192.6</ele>
        <time>2023-01-21T10:28:31.000Z</time>
      </trkpt>
      <trkpt lat="46.27344" lon="6.56075">
        <ele>1192.8</ele>
        <time>2023-01-21T10:28:32.000Z</time>
      </trkpt>
      <trkpt lat="46.27345" lon="6.56076">
        <ele>1193</ele>
        <time>2023-01-21T10:28:33.000Z</time>
      </trkpt>
      <trkpt lat="46.27345" lon="6.56077">
        <ele>1193.1</ele>
        <time>2023-01-21T10:28:34.000Z</time>
      </trkpt>
      <trkpt lat="46.27347" lon="6.56077">
        <ele>1193.2</ele>
        <time>2023-01-21T10:28:35.000Z</time>
      </trkpt>
      <trkpt lat="46.27346" lon="6.56077">
        <ele>1193.3</ele>
        <time>2023-01-21T10:28:36.000Z</time>
      </trkpt>
      <trkpt lat="46.27346" lon="6.56078">
        <ele>1193.7</ele>
        <time>2023-01-21T10:28:37.000Z</time>
      </trkpt>
      <trkpt lat="46.27345" lon="6.56078">
        <ele>1193.7</ele>
        <time>2023-01-21T10:28:38.000Z</time>
      </trkpt>
      <trkpt lat="46.27346" lon="6.56078">
        <ele>1194</ele>
        <time>2023-01-21T10:28:39.000Z</time>
      </trkpt>
      <trkpt lat="46.27346" lon="6.56079">
        <ele>1194.2</ele>
        <time>2023-01-21T10:28:40.000Z</time>
      </trkpt>
      <trkpt lat="46.27346" lon="6.5608">
        <ele>1194.6</ele>
        <time>2023-01-21T10:28:41.000Z</time>
      </trkpt>
      <trkpt lat="46.27345" lon="6.5608">
        <ele>1195</ele>
        <time>2023-01-21T10:28:42.000Z</time>
      </trkpt>
      <trkpt lat="46.27345" lon="6.56081">
        <ele>1195.4</ele>
        <time>2023-01-21T10:28:43.000Z</time>
      </trkpt>
      <trkpt lat="46.27345" lon="6.56081">
        <ele>1195.6</ele>
        <time>2023-01-21T10:28:44.000Z</time>
      </trkpt>
      <trkpt lat="46.27344" lon="6.56082">
        <ele>1195.9</ele>
        <time>2023-01-21T10:28:45.000Z</time>
      </trkpt>
      <trkpt lat="46.27344" lon="6.56084">
        <ele>1197.1</ele>
        <time>2023-01-21T10:28:46.000Z</time>
      </trkpt>
      <trkpt lat="46.27345" lon="6.56085">
        <ele>1197</ele>
        <time>2023-01-21T10:28:47.000Z</time>
      </trkpt>
      <trkpt lat="46.27346" lon="6.56085">
        <ele>1196.6</ele>
        <time>2023-01-21T10:28:48.000Z</time>
      </trkpt>
      <trkpt lat="46.27346" lon="6.56086">
        <ele>1196.5</ele>
        <time>2023-01-21T10:28:49.000Z</time>
      </trkpt>
      <trkpt lat="46.27346" lon="6.56086">
        <ele>1196.7</ele>
        <time>2023-01-21T10:28:50.000Z</time>
      </trkpt>
      <trkpt lat="46.27345" lon="6.56087">
        <ele>1196.3</ele>
        <time>2023-01-21T10:28:51.000Z</time>
      </trkpt>
      <trkpt lat="46.27346" lon="6.56088">
        <ele>1195.8</ele>
        <time>2023-01-21T10:28:52.000Z</time>
      </trkpt>
      <trkpt lat="46.27345" lon="6.5609">
        <ele>1195.8</ele>
        <time>2023-01-21T10:28:53.000Z</time>
      </trkpt>
      <trkpt lat="46.27344" lon="6.56091">
        <ele>1195.5</ele>
        <time>2023-01-21T10:28:54.000Z</time>
      </trkpt>
      <trkpt lat="46.27345" lon="6.56092">
        <ele>1195.4</ele>
        <time>2023-01-21T10:28:55.000Z</time>
      </trkpt>
      <trkpt lat="46.27346" lon="6.56092">
        <ele>1195.2</ele>
        <time>2023-01-21T10:28:56.000Z</time>
      </trkpt>
      <trkpt lat="46.27346" lon="6.56093">
        <ele>1195</ele>
        <time>2023-01-21T10:28:57.000Z</time>
      </trkpt>
      <trkpt lat="46.27346" lon="6.56095">
        <ele>1194.9</ele>
        <time>2023-01-21T10:28:58.000Z</time>
      </trkpt>
      <trkpt lat="46.27346" lon="6.56096">
        <ele>1195</ele>
        <time>2023-01-21T10:28:59.000Z</time>
      </trkpt>
      <trkpt lat="46.27346" lon="6.56097">
        <ele>1194.6</ele>
        <time>2023-01-21T10:29:00.000Z</time>
      </trkpt>
      <trkpt lat="46.27346" lon="6.56097">
        <ele>1194.5</ele>
        <time>2023-01-21T10:29:01.000Z</time>
      </trkpt>
      <trkpt lat="46.27346" lon="6.56097">
        <ele>1194.6</ele>
        <time>2023-01-21T10:29:02.000Z</time>
      </trkpt>
      <trkpt lat="46.27346" lon="6.56098">
        <ele>1194.8</ele>
        <time>2023-01-21T10:29:03.000Z</time>
      </trkpt>
      <trkpt lat="46.27346" lon="6.56097">
        <ele>1194.9</ele>
        <time>2023-01-21T10:29:04.000Z</time>
      </trkpt>
      <trkpt lat="46.27346" lon="6.56098">
        <ele>1195.3</ele>
        <time>2023-01-21T10:29:05.000Z</time>
      </trkpt>
      <trkpt lat="46.27345" lon="6.56098">
        <ele>1195.4</ele>
        <time>2023-01-21T10:29:06.000Z</time>
      </trkpt>
      <trkpt lat="46.27344" lon="6.56099">
        <ele>1195.6</ele>
        <time>2023-01-21T10:29:07.000Z</time>
      </trkpt>
      <trkpt lat="46.27344" lon="6.56099">
        <ele>1195.6</ele>
        <time>2023-01-21T10:29:08.000Z</time>
      </trkpt>
      <trkpt lat="46.27343" lon="6.561">
        <ele>1195.7</ele>
        <time>2023-01-21T10:29:09.000Z</time>
      </trkpt>
      <trkpt lat="46.27343" lon="6.56101">
        <ele>1195.7</ele>
        <time>2023-01-21T10:29:10.000Z</time>
      </trkpt>
      <trkpt lat="46.27343" lon="6.56101">
        <ele>1196</ele>
        <time>2023-01-21T10:29:11.000Z</time>
      </trkpt>
      <trkpt lat="46.27343" lon="6.56101">
        <ele>1196.1</ele>
        <time>2023-01-21T10:29:12.000Z</time>
      </trkpt>
      <trkpt lat="46.27344" lon="6.56102">
        <ele>1196.3</ele>
        <time>2023-01-21T10:29:13.000Z</time>
      </trkpt>
      <trkpt lat="46.27343" lon="6.56102">
        <ele>1196.5</ele>
        <time>2023-01-21T10:29:14.000Z</time>
      </trkpt>
      <trkpt lat="46.27342" lon="6.56104">
        <ele>1196.6</ele>
        <time>2023-01-21T10:29:15.000Z</time>
      </trkpt>
      <trkpt lat="46.27342" lon="6.56104">
        <ele>1196.8</ele>
        <time>2023-01-21T10:29:16.000Z</time>
      </trkpt>
      <trkpt lat="46.27341" lon="6.56106">
        <ele>1196.9</ele>
        <time>2023-01-21T10:29:17.000Z</time>
      </trkpt>
      <trkpt lat="46.27341" lon="6.56107">
        <ele>1197.2</ele>
        <time>2023-01-21T10:29:18.000Z</time>
      </trkpt>
      <trkpt lat="46.27342" lon="6.56107">
        <ele>1197.4</ele>
        <time>2023-01-21T10:29:19.000Z</time>
      </trkpt>
      <trkpt lat="46.27342" lon="6.56108">
        <ele>1197.4</ele>
        <time>2023-01-21T10:29:20.000Z</time>
      </trkpt>
      <trkpt lat="46.27343" lon="6.56108">
        <ele>1197.7</ele>
        <time>2023-01-21T10:29:21.000Z</time>
      </trkpt>
      <trkpt lat="46.27342" lon="6.56109">
        <ele>1197.6</ele>
        <time>2023-01-21T10:29:22.000Z</time>
      </trkpt>
      <trkpt lat="46.27344" lon="6.56109">
        <ele>1197.9</ele>
        <time>2023-01-21T10:29:23.000Z</time>
      </trkpt>
      <trkpt lat="46.27345" lon="6.56109">
        <ele>1198.1</ele>
        <time>2023-01-21T10:29:24.000Z</time>
      </trkpt>
      <trkpt lat="46.27345" lon="6.5611">
        <ele>1198.3</ele>
        <time>2023-01-21T10:29:25.000Z</time>
      </trkpt>
      <trkpt lat="46.27345" lon="6.5611">
        <ele>1198.5</ele>
        <time>2023-01-21T10:29:26.000Z</time>
      </trkpt>
      <trkpt lat="46.27344" lon="6.56111">
        <ele>1198.8</ele>
        <time>2023-01-21T10:29:27.000Z</time>
      </trkpt>
      <trkpt lat="46.27344" lon="6.56112">
        <ele>1199.2</ele>
        <time>2023-01-21T10:29:28.000Z</time>
      </trkpt>
      <trkpt lat="46.27343" lon="6.56113">
        <ele>1199.4</ele>
        <time>2023-01-21T10:29:29.000Z</time>
      </trkpt>
      <trkpt lat="46.27341" lon="6.56114">
        <ele>1199.6</ele>
        <time>2023-01-21T10:29:30.000Z</time>
      </trkpt>
      <trkpt lat="46.2734" lon="6.56115">
        <ele>1199.9</ele>
        <time>2023-01-21T10:29:31.000Z</time>
      </trkpt>
      <trkpt lat="46.2734" lon="6.56116">
        <ele>1200.2</ele>
        <time>2023-01-21T10:29:32.000Z</time>
      </trkpt>
      <trkpt lat="46.2734" lon="6.56117">
        <ele>1200.4</ele>
        <time>2023-01-21T10:29:33.000Z</time>
      </trkpt>
      <trkpt lat="46.2734" lon="6.56117">
        <ele>1201.2</ele>
        <time>2023-01-21T10:29:34.000Z</time>
      </trkpt>
      <trkpt lat="46.2734" lon="6.56117">
        <ele>1201.8</ele>
        <time>2023-01-21T10:29:35.000Z</time>
      </trkpt>
      <trkpt lat="46.2734" lon="6.56118">
        <ele>1202.2</ele>
        <time>2023-01-21T10:29:36.000Z</time>
      </trkpt>
      <trkpt lat="46.27341" lon="6.56119">
        <ele>1202.5</ele>
        <time>2023-01-21T10:29:37.000Z</time>
      </trkpt>
      <trkpt lat="46.27341" lon="6.56119">
        <ele>1202.9</ele>
        <time>2023-01-21T10:29:38.000Z</time>
      </trkpt>
      <trkpt lat="46.27341" lon="6.5612">
        <ele>1203.4</ele>
        <time>2023-01-21T10:29:39.000Z</time>
      </trkpt>
      <trkpt lat="46.27341" lon="6.56122">
        <ele>1204</ele>
        <time>2023-01-21T10:29:40.000Z</time>
      </trkpt>
      <trkpt lat="46.27341" lon="6.56123">
        <ele>1204.8</ele>
        <time>2023-01-21T10:29:41.000Z</time>
      </trkpt>
      <trkpt lat="46.27341" lon="6.56124">
        <ele>1205.5</ele>
        <time>2023-01-21T10:29:42.000Z</time>
      </trkpt>
      <trkpt lat="46.27342" lon="6.56125">
        <ele>1205.8</ele>
        <time>2023-01-21T10:29:43.000Z</time>
      </trkpt>
      <trkpt lat="46.27341" lon="6.56126">
        <ele>1206.3</ele>
        <time>2023-01-21T10:29:44.000Z</time>
      </trkpt>
      <trkpt lat="46.27342" lon="6.56126">
        <ele>1206.6</ele>
        <time>2023-01-21T10:29:45.000Z</time>
      </trkpt>
      <trkpt lat="46.27341" lon="6.56127">
        <ele>1207</ele>
        <time>2023-01-21T10:29:46.000Z</time>
      </trkpt>
      <trkpt lat="46.27342" lon="6.56128">
        <ele>1207.2</ele>
        <time>2023-01-21T10:29:47.000Z</time>
      </trkpt>
      <trkpt lat="46.27342" lon="6.56129">
        <ele>1207.6</ele>
        <time>2023-01-21T10:29:48.000Z</time>
      </trkpt>
      <trkpt lat="46.27342" lon="6.5613">
        <ele>1207.8</ele>
        <time>2023-01-21T10:29:49.000Z</time>
      </trkpt>
      <trkpt lat="46.27342" lon="6.56131">
        <ele>1208.1</ele>
        <time>2023-01-21T10:29:50.000Z</time>
      </trkpt>
      <trkpt lat="46.27342" lon="6.56132">
        <ele>1208.2</ele>
        <time>2023-01-21T10:29:51.000Z</time>
      </trkpt>
      <trkpt lat="46.27342" lon="6.56133">
        <ele>1208.7</ele>
        <time>2023-01-21T10:29:52.000Z</time>
      </trkpt>
      <trkpt lat="46.27342" lon="6.56134">
        <ele>1209</ele>
        <time>2023-01-21T10:29:53.000Z</time>
      </trkpt>
      <trkpt lat="46.27342" lon="6.56135">
        <ele>1209.2</ele>
        <time>2023-01-21T10:29:54.000Z</time>
      </trkpt>
      <trkpt lat="46.27342" lon="6.56135">
        <ele>1209.3</ele>
        <time>2023-01-21T10:29:55.000Z</time>
      </trkpt>
      <trkpt lat="46.27342" lon="6.56136">
        <ele>1209.6</ele>
        <time>2023-01-21T10:29:56.000Z</time>
      </trkpt>
      <trkpt lat="46.27342" lon="6.56137">
        <ele>1209.9</ele>
        <time>2023-01-21T10:29:57.000Z</time>
      </trkpt>
      <trkpt lat="46.27342" lon="6.56138">
        <ele>1210.3</ele>
        <time>2023-01-21T10:29:58.000Z</time>
      </trkpt>
      <trkpt lat="46.27341" lon="6.56139">
        <ele>1210.5</ele>
        <time>2023-01-21T10:29:59.000Z</time>
      </trkpt>
      <trkpt lat="46.27341" lon="6.5614">
        <ele>1210.5</ele>
        <time>2023-01-21T10:30:00.000Z</time>
      </trkpt>
      <trkpt lat="46.27341" lon="6.5614">
        <ele>1210.5</ele>
        <time>2023-01-21T10:30:01.000Z</time>
      </trkpt>
      <trkpt lat="46.27341" lon="6.5614">
        <ele>1210.6</ele>
        <time>2023-01-21T10:30:02.000Z</time>
      </trkpt>
      <trkpt lat="46.27341" lon="6.5614">
        <ele>1210.5</ele>
        <time>2023-01-21T10:30:03.000Z</time>
      </trkpt>
      <trkpt lat="46.27342" lon="6.56141">
        <ele>1210.7</ele>
        <time>2023-01-21T10:30:04.000Z</time>
      </trkpt>
      <trkpt lat="46.27343" lon="6.56142">
        <ele>1210.9</ele>
        <time>2023-01-21T10:30:05.000Z</time>
      </trkpt>
      <trkpt lat="46.27344" lon="6.56143">
        <ele>1211.1</ele>
        <time>2023-01-21T10:30:06.000Z</time>
      </trkpt>
      <trkpt lat="46.27344" lon="6.56144">
        <ele>1211.7</ele>
        <time>2023-01-21T10:30:07.000Z</time>
      </trkpt>
      <trkpt lat="46.27344" lon="6.56145">
        <ele>1212</ele>
        <time>2023-01-21T10:30:08.000Z</time>
      </trkpt>
      <trkpt lat="46.27344" lon="6.56145">
        <ele>1212.4</ele>
        <time>2023-01-21T10:30:09.000Z</time>
      </trkpt>
      <trkpt lat="46.27344" lon="6.56146">
        <ele>1212.6</ele>
        <time>2023-01-21T10:30:10.000Z</time>
      </trkpt>
      <trkpt lat="46.27344" lon="6.56147">
        <ele>1213.3</ele>
        <time>2023-01-21T10:30:11.000Z</time>
      </trkpt>
      <trkpt lat="46.27345" lon="6.56148">
        <ele>1213.8</ele>
        <time>2023-01-21T10:30:12.000Z</time>
      </trkpt>
      <trkpt lat="46.27345" lon="6.56148">
        <ele>1214</ele>
        <time>2023-01-21T10:30:13.000Z</time>
      </trkpt>
      <trkpt lat="46.27344" lon="6.56149">
        <ele>1214.4</ele>
        <time>2023-01-21T10:30:14.000Z</time>
      </trkpt>
      <trkpt lat="46.27344" lon="6.56149">
        <ele>1214.6</ele>
        <time>2023-01-21T10:30:15.000Z</time>
      </trkpt>
      <trkpt lat="46.27344" lon="6.56149">
        <ele>1214.8</ele>
        <time>2023-01-21T10:30:16.000Z</time>
      </trkpt>
      <trkpt lat="46.27345" lon="6.5615">
        <ele>1215.2</ele>
        <time>2023-01-21T10:30:17.000Z</time>
      </trkpt>
      <trkpt lat="46.27344" lon="6.5615">
        <ele>1216.3</ele>
        <time>2023-01-21T10:30:18.000Z</time>
      </trkpt>
      <trkpt lat="46.27345" lon="6.5615">
        <ele>1216.5</ele>
        <time>2023-01-21T10:30:19.000Z</time>
      </trkpt>
      <trkpt lat="46.27345" lon="6.56151">
        <ele>1217.2</ele>
        <time>2023-01-21T10:30:20.000Z</time>
      </trkpt>
      <trkpt lat="46.27346" lon="6.56152">
        <ele>1217.6</ele>
        <time>2023-01-21T10:30:21.000Z</time>
      </trkpt>
      <trkpt lat="46.27346" lon="6.56153">
        <ele>1217.9</ele>
        <time>2023-01-21T10:30:22.000Z</time>
      </trkpt>
      <trkpt lat="46.27347" lon="6.56153">
        <ele>1218.5</ele>
        <time>2023-01-21T10:30:23.000Z</time>
      </trkpt>
      <trkpt lat="46.27347" lon="6.56154">
        <ele>1218.7</ele>
        <time>2023-01-21T10:30:24.000Z</time>
      </trkpt>
      <trkpt lat="46.27348" lon="6.56155">
        <ele>1218.8</ele>
        <time>2023-01-21T10:30:25.000Z</time>
      </trkpt>
      <trkpt lat="46.27348" lon="6.56156">
        <ele>1219.1</ele>
        <time>2023-01-21T10:30:26.000Z</time>
      </trkpt>
      <trkpt lat="46.27348" lon="6.56156">
        <ele>1219.2</ele>
        <time>2023-01-21T10:30:27.000Z</time>
      </trkpt>
      <trkpt lat="46.27348" lon="6.56156">
        <ele>1219.5</ele>
        <time>2023-01-21T10:30:28.000Z</time>
      </trkpt>
      <trkpt lat="46.27349" lon="6.56156">
        <ele>1219.8</ele>
        <time>2023-01-21T10:30:29.000Z</time>
      </trkpt>
      <trkpt lat="46.27348" lon="6.56157">
        <ele>1220</ele>
        <time>2023-01-21T10:30:30.000Z</time>
      </trkpt>
      <trkpt lat="46.27348" lon="6.56157">
        <ele>1220.2</ele>
        <time>2023-01-21T10:30:31.000Z</time>
      </trkpt>
      <trkpt lat="46.27348" lon="6.56158">
        <ele>1220.2</ele>
        <time>2023-01-21T10:30:32.000Z</time>
      </trkpt>
      <trkpt lat="46.27348" lon="6.56158">
        <ele>1220.2</ele>
        <time>2023-01-21T10:30:33.000Z</time>
      </trkpt>
      <trkpt lat="46.27347" lon="6.56159">
        <ele>1220.3</ele>
        <time>2023-01-21T10:30:34.000Z</time>
      </trkpt>
      <trkpt lat="46.27347" lon="6.56159">
        <ele>1220.6</ele>
        <time>2023-01-21T10:30:35.000Z</time>
      </trkpt>
      <trkpt lat="46.27347" lon="6.56159">
        <ele>1220.6</ele>
        <time>2023-01-21T10:30:36.000Z</time>
      </trkpt>
      <trkpt lat="46.27347" lon="6.5616">
        <ele>1220.7</ele>
        <time>2023-01-21T10:30:37.000Z</time>
      </trkpt>
      <trkpt lat="46.27347" lon="6.5616">
        <ele>1220.7</ele>
        <time>2023-01-21T10:30:38.000Z</time>
      </trkpt>
      <trkpt lat="46.27348" lon="6.5616">
        <ele>1220.7</ele>
        <time>2023-01-21T10:30:39.000Z</time>
      </trkpt>
      <trkpt lat="46.27348" lon="6.5616">
        <ele>1220.5</ele>
        <time>2023-01-21T10:30:40.000Z</time>
      </trkpt>
      <trkpt lat="46.27348" lon="6.56161">
        <ele>1220.4</ele>
        <time>2023-01-21T10:30:41.000Z</time>
      </trkpt>
      <trkpt lat="46.27347" lon="6.56162">
        <ele>1220.6</ele>
        <time>2023-01-21T10:30:42.000Z</time>
      </trkpt>
      <trkpt lat="46.27347" lon="6.56162">
        <ele>1220.7</ele>
        <time>2023-01-21T10:30:43.000Z</time>
      </trkpt>
      <trkpt lat="46.27346" lon="6.56163">
        <ele>1220.8</ele>
        <time>2023-01-21T10:30:44.000Z</time>
      </trkpt>
      <trkpt lat="46.27346" lon="6.56163">
        <ele>1220.8</ele>
        <time>2023-01-21T10:30:45.000Z</time>
      </trkpt>
      <trkpt lat="46.27346" lon="6.56163">
        <ele>1220.8</ele>
        <time>2023-01-21T10:30:46.000Z</time>
      </trkpt>
      <trkpt lat="46.27346" lon="6.56163">
        <ele>1220.8</ele>
        <time>2023-01-21T10:30:47.000Z</time>
      </trkpt>
      <trkpt lat="46.27346" lon="6.56163">
        <ele>1220.8</ele>
        <time>2023-01-21T10:30:48.000Z</time>
      </trkpt>
      <trkpt lat="46.27346" lon="6.56163">
        <ele>1220.8</ele>
        <time>2023-01-21T10:30:49.000Z</time>
      </trkpt>
      <trkpt lat="46.27346" lon="6.56163">
        <ele>1220.8</ele>
        <time>2023-01-21T10:30:50.000Z</time>
      </trkpt>
      <trkpt lat="46.27346" lon="6.56163">
        <ele>1220.8</ele>
        <time>2023-01-21T10:30:51.000Z</time>
      </trkpt>
      <trkpt lat="46.27346" lon="6.56163">
        <ele>1220.8</ele>
        <time>2023-01-21T10:30:52.000Z</time>
      </trkpt>
      <trkpt lat="46.27346" lon="6.56167">
        <ele>1221.9</ele>
        <time>2023-01-21T10:30:53.000Z</time>
      </trkpt>
      <trkpt lat="46.27347" lon="6.56167">
        <ele>1222.1</ele>
        <time>2023-01-21T10:30:54.000Z</time>
      </trkpt>
      <trkpt lat="46.27347" lon="6.56169">
        <ele>1222.2</ele>
        <time>2023-01-21T10:30:55.000Z</time>
      </trkpt>
      <trkpt lat="46.27347" lon="6.56169">
        <ele>1222.6</ele>
        <time>2023-01-21T10:30:56.000Z</time>
      </trkpt>
      <trkpt lat="46.27346" lon="6.5617">
        <ele>1222.8</ele>
        <time>2023-01-21T10:30:57.000Z</time>
      </trkpt>
      <trkpt lat="46.27347" lon="6.56171">
        <ele>1222.9</ele>
        <time>2023-01-21T10:30:58.000Z</time>
      </trkpt>
      <trkpt lat="46.27347" lon="6.56172">
        <ele>1222.9</ele>
        <time>2023-01-21T10:30:59.000Z</time>
      </trkpt>
      <trkpt lat="46.27347" lon="6.56173">
        <ele>1223</ele>
        <time>2023-01-21T10:31:00.000Z</time>
      </trkpt>
      <trkpt lat="46.27347" lon="6.56174">
        <ele>1223.1</ele>
        <time>2023-01-21T10:31:01.000Z</time>
      </trkpt>
      <trkpt lat="46.27347" lon="6.56175">
        <ele>1223.2</ele>
        <time>2023-01-21T10:31:02.000Z</time>
      </trkpt>
      <trkpt lat="46.27348" lon="6.56176">
        <ele>1223.2</ele>
        <time>2023-01-21T10:31:03.000Z</time>
      </trkpt>
      <trkpt lat="46.27348" lon="6.56178">
        <ele>1223.3</ele>
        <time>2023-01-21T10:31:04.000Z</time>
      </trkpt>
      <trkpt lat="46.27349" lon="6.56178">
        <ele>1223.4</ele>
        <time>2023-01-21T10:31:05.000Z</time>
      </trkpt>
      <trkpt lat="46.27348" lon="6.5618">
        <ele>1223.6</ele>
        <time>2023-01-21T10:31:06.000Z</time>
      </trkpt>
      <trkpt lat="46.27348" lon="6.5618">
        <ele>1223.6</ele>
        <time>2023-01-21T10:31:07.000Z</time>
      </trkpt>
      <trkpt lat="46.27348" lon="6.56181">
        <ele>1223.6</ele>
        <time>2023-01-21T10:31:08.000Z</time>
      </trkpt>
      <trkpt lat="46.27348" lon="6.56182">
        <ele>1223.7</ele>
        <time>2023-01-21T10:31:09.000Z</time>
      </trkpt>
      <trkpt lat="46.27347" lon="6.56183">
        <ele>1223.9</ele>
        <time>2023-01-21T10:31:10.000Z</time>
      </trkpt>
      <trkpt lat="46.27347" lon="6.56183">
        <ele>1224.1</ele>
        <time>2023-01-21T10:31:11.000Z</time>
      </trkpt>
      <trkpt lat="46.27347" lon="6.56183">
        <ele>1224.3</ele>
        <time>2023-01-21T10:31:12.000Z</time>
      </trkpt>
      <trkpt lat="46.27347" lon="6.56184">
        <ele>1224.4</ele>
        <time>2023-01-21T10:31:13.000Z</time>
      </trkpt>
      <trkpt lat="46.27347" lon="6.56184">
        <ele>1224.4</ele>
        <time>2023-01-21T10:31:14.000Z</time>
      </trkpt>
      <trkpt lat="46.27347" lon="6.56185">
        <ele>1224.5</ele>
        <time>2023-01-21T10:31:15.000Z</time>
      </trkpt>
      <trkpt lat="46.27348" lon="6.56186">
        <ele>1224.4</ele>
        <time>2023-01-21T10:31:16.000Z</time>
      </trkpt>
      <trkpt lat="46.27348" lon="6.56187">
        <ele>1224.6</ele>
        <time>2023-01-21T10:31:17.000Z</time>
      </trkpt>
      <trkpt lat="46.27348" lon="6.56188">
        <ele>1224.9</ele>
        <time>2023-01-21T10:31:18.000Z</time>
      </trkpt>
      <trkpt lat="46.27347" lon="6.56189">
        <ele>1225</ele>
        <time>2023-01-21T10:31:19.000Z</time>
      </trkpt>
      <trkpt lat="46.27347" lon="6.5619">
        <ele>1225.2</ele>
        <time>2023-01-21T10:31:20.000Z</time>
      </trkpt>
      <trkpt lat="46.27347" lon="6.56192">
        <ele>1225.5</ele>
        <time>2023-01-21T10:31:21.000Z</time>
      </trkpt>
      <trkpt lat="46.27346" lon="6.56193">
        <ele>1225.7</ele>
        <time>2023-01-21T10:31:22.000Z</time>
      </trkpt>
      <trkpt lat="46.27347" lon="6.56193">
        <ele>1226</ele>
        <time>2023-01-21T10:31:23.000Z</time>
      </trkpt>
      <trkpt lat="46.27346" lon="6.56193">
        <ele>1226.3</ele>
        <time>2023-01-21T10:31:24.000Z</time>
      </trkpt>
      <trkpt lat="46.27347" lon="6.56193">
        <ele>1226.4</ele>
        <time>2023-01-21T10:31:25.000Z</time>
      </trkpt>
      <trkpt lat="46.27346" lon="6.56193">
        <ele>1226.9</ele>
        <time>2023-01-21T10:31:26.000Z</time>
      </trkpt>
      <trkpt lat="46.27347" lon="6.56193">
        <ele>1227.3</ele>
        <time>2023-01-21T10:31:27.000Z</time>
      </trkpt>
      <trkpt lat="46.27347" lon="6.56194">
        <ele>1227.5</ele>
        <time>2023-01-21T10:31:28.000Z</time>
      </trkpt>
      <trkpt lat="46.27347" lon="6.56194">
        <ele>1227.8</ele>
        <time>2023-01-21T10:31:29.000Z</time>
      </trkpt>
      <trkpt lat="46.27347" lon="6.56195">
        <ele>1228</ele>
        <time>2023-01-21T10:31:30.000Z</time>
      </trkpt>
      <trkpt lat="46.27347" lon="6.56196">
        <ele>1228.3</ele>
        <time>2023-01-21T10:31:31.000Z</time>
      </trkpt>
      <trkpt lat="46.27347" lon="6.56196">
        <ele>1228.7</ele>
        <time>2023-01-21T10:31:32.000Z</time>
      </trkpt>
      <trkpt lat="46.27347" lon="6.56197">
        <ele>1229.2</ele>
        <time>2023-01-21T10:31:33.000Z</time>
      </trkpt>
      <trkpt lat="46.27347" lon="6.56197">
        <ele>1229.7</ele>
        <time>2023-01-21T10:31:34.000Z</time>
      </trkpt>
      <trkpt lat="46.27347" lon="6.56197">
        <ele>1229.7</ele>
        <time>2023-01-21T10:31:35.000Z</time>
      </trkpt>
      <trkpt lat="46.27347" lon="6.56197">
        <ele>1229.7</ele>
        <time>2023-01-21T10:31:36.000Z</time>
      </trkpt>
      <trkpt lat="46.27347" lon="6.56197">
        <ele>1229.7</ele>
        <time>2023-01-21T10:31:37.000Z</time>
      </trkpt>
      <trkpt lat="46.27347" lon="6.56197">
        <ele>1229.7</ele>
        <time>2023-01-21T10:31:38.000Z</time>
      </trkpt>
      <trkpt lat="46.27347" lon="6.56197">
        <ele>1229.7</ele>
        <time>2023-01-21T10:31:39.000Z</time>
      </trkpt>
      <trkpt lat="46.27347" lon="6.56197">
        <ele>1229.7</ele>
        <time>2023-01-21T10:31:40.000Z</time>
      </trkpt>
      <trkpt lat="46.27347" lon="6.56197">
        <ele>1229.7</ele>
        <time>2023-01-21T10:31:41.000Z</time>
      </trkpt>
      <trkpt lat="46.27347" lon="6.56197">
        <ele>1229.7</ele>
        <time>2023-01-21T10:31:42.000Z</time>
      </trkpt>
      <trkpt lat="46.2735" lon="6.56204">
        <ele>1231</ele>
        <time>2023-01-21T10:31:43.000Z</time>
      </trkpt>
      <trkpt lat="46.2735" lon="6.56204">
        <ele>1230.8</ele>
        <time>2023-01-21T10:31:44.000Z</time>
      </trkpt>
      <trkpt lat="46.2735" lon="6.56205">
        <ele>1230.7</ele>
        <time>2023-01-21T10:31:45.000Z</time>
      </trkpt>
      <trkpt lat="46.2735" lon="6.56205">
        <ele>1230.8</ele>
        <time>2023-01-21T10:31:46.000Z</time>
      </trkpt>
      <trkpt lat="46.2735" lon="6.56205">
        <ele>1230.8</ele>
        <time>2023-01-21T10:31:47.000Z</time>
      </trkpt>
      <trkpt lat="46.27351" lon="6.56206">
        <ele>1230.8</ele>
        <time>2023-01-21T10:31:48.000Z</time>
      </trkpt>
      <trkpt lat="46.27351" lon="6.56206">
        <ele>1230.8</ele>
        <time>2023-01-21T10:31:49.000Z</time>
      </trkpt>
      <trkpt lat="46.27351" lon="6.56207">
        <ele>1230.8</ele>
        <time>2023-01-21T10:31:50.000Z</time>
      </trkpt>
      <trkpt lat="46.2735" lon="6.56208">
        <ele>1230.8</ele>
        <time>2023-01-21T10:31:51.000Z</time>
      </trkpt>
      <trkpt lat="46.2735" lon="6.56209">
        <ele>1230.6</ele>
        <time>2023-01-21T10:31:52.000Z</time>
      </trkpt>
      <trkpt lat="46.2735" lon="6.56209">
        <ele>1230.6</ele>
        <time>2023-01-21T10:31:53.000Z</time>
      </trkpt>
      <trkpt lat="46.27349" lon="6.5621">
        <ele>1230.6</ele>
        <time>2023-01-21T10:31:54.000Z</time>
      </trkpt>
      <trkpt lat="46.27349" lon="6.56211">
        <ele>1230.4</ele>
        <time>2023-01-21T10:31:55.000Z</time>
      </trkpt>
      <trkpt lat="46.27349" lon="6.56212">
        <ele>1230.3</ele>
        <time>2023-01-21T10:31:56.000Z</time>
      </trkpt>
      <trkpt lat="46.27349" lon="6.56212">
        <ele>1230.3</ele>
        <time>2023-01-21T10:31:57.000Z</time>
      </trkpt>
      <trkpt lat="46.27349" lon="6.56212">
        <ele>1230.3</ele>
        <time>2023-01-21T10:31:58.000Z</time>
      </trkpt>
      <trkpt lat="46.27349" lon="6.56212">
        <ele>1230.3</ele>
        <time>2023-01-21T10:31:59.000Z</time>
      </trkpt>
      <trkpt lat="46.27349" lon="6.56212">
        <ele>1230.3</ele>
        <time>2023-01-21T10:32:00.000Z</time>
      </trkpt>
      <trkpt lat="46.27349" lon="6.56212">
        <ele>1230.3</ele>
        <time>2023-01-21T10:32:01.000Z</time>
      </trkpt>
      <trkpt lat="46.27349" lon="6.56212">
        <ele>1230.3</ele>
        <time>2023-01-21T10:32:02.000Z</time>
      </trkpt>
      <trkpt lat="46.27349" lon="6.56212">
        <ele>1230.3</ele>
        <time>2023-01-21T10:32:03.000Z</time>
      </trkpt>
      <trkpt lat="46.27349" lon="6.56212">
        <ele>1230.3</ele>
        <time>2023-01-21T10:32:04.000Z</time>
      </trkpt>
      <trkpt lat="46.27349" lon="6.56212">
        <ele>1230.3</ele>
        <time>2023-01-21T10:32:05.000Z</time>
      </trkpt>
      <trkpt lat="46.27349" lon="6.56212">
        <ele>1233.3</ele>
        <time>2023-01-21T10:32:06.000Z</time>
      </trkpt>
      <trkpt lat="46.27349" lon="6.56212">
        <ele>1233.3</ele>
        <time>2023-01-21T10:32:07.000Z</time>
      </trkpt>
      <trkpt lat="46.27349" lon="6.56212">
        <ele>1233.3</ele>
        <time>2023-01-21T10:32:08.000Z</time>
      </trkpt>
      <trkpt lat="46.27349" lon="6.56212">
        <ele>1233.3</ele>
        <time>2023-01-21T10:32:09.000Z</time>
      </trkpt>
      <trkpt lat="46.27349" lon="6.56212">
        <ele>1233.3</ele>
        <time>2023-01-21T10:32:10.000Z</time>
      </trkpt>
      <trkpt lat="46.27349" lon="6.56212">
        <ele>1233.3</ele>
        <time>2023-01-21T10:32:11.000Z</time>
      </trkpt>
      <trkpt lat="46.27349" lon="6.56212">
        <ele>1233.3</ele>
        <time>2023-01-21T10:32:12.000Z</time>
      </trkpt>
      <trkpt lat="46.27349" lon="6.56212">
        <ele>1233.3</ele>
        <time>2023-01-21T10:32:13.000Z</time>
      </trkpt>
      <trkpt lat="46.27349" lon="6.56212">
        <ele>1236.7</ele>
        <time>2023-01-21T10:32:14.000Z</time>
      </trkpt>
      <trkpt lat="46.27349" lon="6.56212">
        <ele>1236.7</ele>
        <time>2023-01-21T10:32:15.000Z</time>
      </trkpt>
      <trkpt lat="46.27349" lon="6.56212">
        <ele>1236.7</ele>
        <time>2023-01-21T10:32:16.000Z</time>
      </trkpt>
      <trkpt lat="46.27349" lon="6.56212">
        <ele>1236.7</ele>
        <time>2023-01-21T10:32:17.000Z</time>
      </trkpt>
      <trkpt lat="46.27349" lon="6.56212">
        <ele>1236.7</ele>
        <time>2023-01-21T10:32:18.000Z</time>
      </trkpt>
      <trkpt lat="46.27349" lon="6.56212">
        <ele>1236.7</ele>
        <time>2023-01-21T10:32:19.000Z</time>
      </trkpt>
      <trkpt lat="46.27349" lon="6.56212">
        <ele>1236.7</ele>
        <time>2023-01-21T10:32:20.000Z</time>
      </trkpt>
      <trkpt lat="46.27349" lon="6.56212">
        <ele>1236.7</ele>
        <time>2023-01-21T10:32:21.000Z</time>
      </trkpt>
      <trkpt lat="46.27349" lon="6.56212">
        <ele>1236.7</ele>
        <time>2023-01-21T10:32:22.000Z</time>
      </trkpt>
      <trkpt lat="46.27349" lon="6.56212">
        <ele>1236.7</ele>
        <time>2023-01-21T10:32:23.000Z</time>
      </trkpt>
      <trkpt lat="46.27349" lon="6.56212">
        <ele>1236.7</ele>
        <time>2023-01-21T10:32:24.000Z</time>
      </trkpt>
      <trkpt lat="46.27349" lon="6.56212">
        <ele>1236.7</ele>
        <time>2023-01-21T10:32:25.000Z</time>
      </trkpt>
      <trkpt lat="46.27349" lon="6.56212">
        <ele>1236.7</ele>
        <time>2023-01-21T10:32:26.000Z</time>
      </trkpt>
      <trkpt lat="46.27349" lon="6.56212">
        <ele>1236.7</ele>
        <time>2023-01-21T10:32:27.000Z</time>
      </trkpt>
      <trkpt lat="46.27349" lon="6.56212">
        <ele>1236.7</ele>
        <time>2023-01-21T10:32:28.000Z</time>
      </trkpt>
      <trkpt lat="46.27349" lon="6.56212">
        <ele>1236.7</ele>
        <time>2023-01-21T10:32:29.000Z</time>
      </trkpt>
      <trkpt lat="46.27349" lon="6.56212">
        <ele>1236.7</ele>
        <time>2023-01-21T10:32:30.000Z</time>
      </trkpt>
      <trkpt lat="46.27349" lon="6.56212">
        <ele>1236.7</ele>
        <time>2023-01-21T10:32:31.000Z</time>
      </trkpt>
      <trkpt lat="46.27349" lon="6.56212">
        <ele>1236.7</ele>
        <time>2023-01-21T10:32:32.000Z</time>
      </trkpt>
      <trkpt lat="46.27349" lon="6.56212">
        <ele>1236.7</ele>
        <time>2023-01-21T10:32:33.000Z</time>
      </trkpt>
      <trkpt lat="46.27349" lon="6.56212">
        <ele>1236.7</ele>
        <time>2023-01-21T10:32:34.000Z</time>
      </trkpt>
      <trkpt lat="46.27349" lon="6.56212">
        <ele>1236.7</ele>
        <time>2023-01-21T10:32:35.000Z</time>
      </trkpt>
      <trkpt lat="46.27349" lon="6.56212">
        <ele>1236.7</ele>
        <time>2023-01-21T10:32:36.000Z</time>
      </trkpt>
      <trkpt lat="46.27349" lon="6.56212">
        <ele>1236.7</ele>
        <time>2023-01-21T10:32:37.000Z</time>
      </trkpt>
      <trkpt lat="46.27349" lon="6.56212">
        <ele>1236.7</ele>
        <time>2023-01-21T10:32:38.000Z</time>
      </trkpt>
      <trkpt lat="46.27349" lon="6.56212">
        <ele>1236.7</ele>
        <time>2023-01-21T10:32:39.000Z</time>
      </trkpt>
      <trkpt lat="46.27349" lon="6.56212">
        <ele>1236.7</ele>
        <time>2023-01-21T10:32:40.000Z</time>
      </trkpt>
      <trkpt lat="46.27349" lon="6.56212">
        <ele>1236.7</ele>
        <time>2023-01-21T10:32:41.000Z</time>
      </trkpt>
      <trkpt lat="46.27349" lon="6.56212">
        <ele>1236.7</ele>
        <time>2023-01-21T10:32:42.000Z</time>
      </trkpt>
      <trkpt lat="46.27349" lon="6.56212">
        <ele>1236.7</ele>
        <time>2023-01-21T10:32:43.000Z</time>
      </trkpt>
      <trkpt lat="46.27349" lon="6.56212">
        <ele>1236.7</ele>
        <time>2023-01-21T10:32:44.000Z</time>
      </trkpt>
      <trkpt lat="46.27349" lon="6.56212">
        <ele>1236.7</ele>
        <time>2023-01-21T10:32:45.000Z</time>
      </trkpt>
      <trkpt lat="46.27351" lon="6.56217">
        <ele>1238.2</ele>
        <time>2023-01-21T10:32:46.000Z</time>
      </trkpt>
      <trkpt lat="46.27351" lon="6.56217">
        <ele>1238.5</ele>
        <time>2023-01-21T10:32:47.000Z</time>
      </trkpt>
      <trkpt lat="46.27352" lon="6.56217">
        <ele>1238.7</ele>
        <time>2023-01-21T10:32:48.000Z</time>
      </trkpt>
      <trkpt lat="46.27352" lon="6.56217">
        <ele>1239</ele>
        <time>2023-01-21T10:32:49.000Z</time>
      </trkpt>
      <trkpt lat="46.27352" lon="6.56217">
        <ele>1239</ele>
        <time>2023-01-21T10:32:50.000Z</time>
      </trkpt>
      <trkpt lat="46.27352" lon="6.56217">
        <ele>1239</ele>
        <time>2023-01-21T10:32:51.000Z</time>
      </trkpt>
      <trkpt lat="46.27352" lon="6.56217">
        <ele>1239</ele>
        <time>2023-01-21T10:32:52.000Z</time>
      </trkpt>
      <trkpt lat="46.27352" lon="6.56217">
        <ele>1239</ele>
        <time>2023-01-21T10:32:53.000Z</time>
      </trkpt>
      <trkpt lat="46.27352" lon="6.56217">
        <ele>1239</ele>
        <time>2023-01-21T10:32:54.000Z</time>
      </trkpt>
      <trkpt lat="46.27352" lon="6.56217">
        <ele>1239</ele>
        <time>2023-01-21T10:32:55.000Z</time>
      </trkpt>
      <trkpt lat="46.27352" lon="6.56217">
        <ele>1239</ele>
        <time>2023-01-21T10:32:56.000Z</time>
      </trkpt>
      <trkpt lat="46.27352" lon="6.56217">
        <ele>1239</ele>
        <time>2023-01-21T10:32:57.000Z</time>
      </trkpt>
      <trkpt lat="46.27352" lon="6.56217">
        <ele>1239</ele>
        <time>2023-01-21T10:32:58.000Z</time>
      </trkpt>
      <trkpt lat="46.27352" lon="6.56217">
        <ele>1239</ele>
        <time>2023-01-21T10:32:59.000Z</time>
      </trkpt>
      <trkpt lat="46.27352" lon="6.56217">
        <ele>1239</ele>
        <time>2023-01-21T10:33:00.000Z</time>
      </trkpt>
      <trkpt lat="46.27352" lon="6.56217">
        <ele>1239</ele>
        <time>2023-01-21T10:33:01.000Z</time>
      </trkpt>
      <trkpt lat="46.27352" lon="6.56217">
        <ele>1239</ele>
        <time>2023-01-21T10:33:02.000Z</time>
      </trkpt>
      <trkpt lat="46.27352" lon="6.56217">
        <ele>1239</ele>
        <time>2023-01-21T10:33:03.000Z</time>
      </trkpt>
      <trkpt lat="46.27352" lon="6.56217">
        <ele>1239</ele>
        <time>2023-01-21T10:33:04.000Z</time>
      </trkpt>
      <trkpt lat="46.27352" lon="6.56217">
        <ele>1239</ele>
        <time>2023-01-21T10:33:05.000Z</time>
      </trkpt>
      <trkpt lat="46.27352" lon="6.56217">
        <ele>1239</ele>
        <time>2023-01-21T10:33:06.000Z</time>
      </trkpt>
      <trkpt lat="46.27352" lon="6.56217">
        <ele>1239</ele>
        <time>2023-01-21T10:33:07.000Z</time>
      </trkpt>
      <trkpt lat="46.27352" lon="6.56217">
        <ele>1239</ele>
        <time>2023-01-21T10:33:08.000Z</time>
      </trkpt>
      <trkpt lat="46.27352" lon="6.56217">
        <ele>1239</ele>
        <time>2023-01-21T10:33:09.000Z</time>
      </trkpt>
      <trkpt lat="46.27352" lon="6.56217">
        <ele>1235.9</ele>
        <time>2023-01-21T10:33:10.000Z</time>
      </trkpt>
      <trkpt lat="46.27352" lon="6.56217">
        <ele>1235.9</ele>
        <time>2023-01-21T10:33:11.000Z</time>
      </trkpt>
      <trkpt lat="46.27352" lon="6.56217">
        <ele>1235.9</ele>
        <time>2023-01-21T10:33:12.000Z</time>
      </trkpt>
      <trkpt lat="46.27352" lon="6.56217">
        <ele>1235.9</ele>
        <time>2023-01-21T10:33:13.000Z</time>
      </trkpt>
      <trkpt lat="46.27352" lon="6.56217">
        <ele>1235.9</ele>
        <time>2023-01-21T10:33:14.000Z</time>
      </trkpt>
      <trkpt lat="46.27352" lon="6.56217">
        <ele>1235.9</ele>
        <time>2023-01-21T10:33:15.000Z</time>
      </trkpt>
      <trkpt lat="46.27352" lon="6.56217">
        <ele>1235.9</ele>
        <time>2023-01-21T10:33:16.000Z</time>
      </trkpt>
      <trkpt lat="46.27352" lon="6.56217">
        <ele>1235.9</ele>
        <time>2023-01-21T10:33:17.000Z</time>
      </trkpt>
      <trkpt lat="46.27352" lon="6.56217">
        <ele>1235.9</ele>
        <time>2023-01-21T10:33:18.000Z</time>
      </trkpt>
      <trkpt lat="46.27352" lon="6.56217">
        <ele>1235.9</ele>
        <time>2023-01-21T10:33:19.000Z</time>
      </trkpt>
      <trkpt lat="46.27352" lon="6.56217">
        <ele>1235.9</ele>
        <time>2023-01-21T10:33:20.000Z</time>
      </trkpt>
      <trkpt lat="46.27352" lon="6.56217">
        <ele>1235.9</ele>
        <time>2023-01-21T10:33:21.000Z</time>
      </trkpt>
      <trkpt lat="46.27352" lon="6.56217">
        <ele>1235.9</ele>
        <time>2023-01-21T10:33:22.000Z</time>
      </trkpt>
      <trkpt lat="46.27352" lon="6.56217">
        <ele>1235.9</ele>
        <time>2023-01-21T10:33:23.000Z</time>
      </trkpt>
      <trkpt lat="46.27352" lon="6.56217">
        <ele>1235.9</ele>
        <time>2023-01-21T10:33:24.000Z</time>
      </trkpt>
      <trkpt lat="46.27352" lon="6.56217">
        <ele>1235.9</ele>
        <time>2023-01-21T10:33:25.000Z</time>
      </trkpt>
      <trkpt lat="46.27352" lon="6.56217">
        <ele>1235.9</ele>
        <time>2023-01-21T10:33:26.000Z</time>
      </trkpt>
      <trkpt lat="46.27352" lon="6.56217">
        <ele>1235.9</ele>
        <time>2023-01-21T10:33:27.000Z</time>
      </trkpt>
      <trkpt lat="46.27352" lon="6.56217">
        <ele>1235.9</ele>
        <time>2023-01-21T10:33:28.000Z</time>
      </trkpt>
      <trkpt lat="46.27352" lon="6.56217">
        <ele>1235.9</ele>
        <time>2023-01-21T10:33:29.000Z</time>
      </trkpt>
      <trkpt lat="46.27352" lon="6.56217">
        <ele>1235.9</ele>
        <time>2023-01-21T10:33:30.000Z</time>
      </trkpt>
      <trkpt lat="46.27352" lon="6.56217">
        <ele>1235.9</ele>
        <time>2023-01-21T10:33:31.000Z</time>
      </trkpt>
      <trkpt lat="46.27352" lon="6.56217">
        <ele>1235.9</ele>
        <time>2023-01-21T10:33:32.000Z</time>
      </trkpt>
      <trkpt lat="46.27352" lon="6.56217">
        <ele>1235.9</ele>
        <time>2023-01-21T10:33:33.000Z</time>
      </trkpt>
      <trkpt lat="46.27352" lon="6.56217">
        <ele>1235.9</ele>
        <time>2023-01-21T10:33:34.000Z</time>
      </trkpt>
      <trkpt lat="46.27352" lon="6.56217">
        <ele>1235.9</ele>
        <time>2023-01-21T10:33:35.000Z</time>
      </trkpt>
      <trkpt lat="46.27352" lon="6.56217">
        <ele>1235.9</ele>
        <time>2023-01-21T10:33:36.000Z</time>
      </trkpt>
      <trkpt lat="46.27352" lon="6.56217">
        <ele>1235.9</ele>
        <time>2023-01-21T10:33:37.000Z</time>
      </trkpt>
      <trkpt lat="46.27352" lon="6.56217">
        <ele>1235.9</ele>
        <time>2023-01-21T10:33:38.000Z</time>
      </trkpt>
      <trkpt lat="46.27352" lon="6.56217">
        <ele>1235.9</ele>
        <time>2023-01-21T10:33:39.000Z</time>
      </trkpt>
      <trkpt lat="46.27352" lon="6.56217">
        <ele>1235.9</ele>
        <time>2023-01-21T10:33:40.000Z</time>
      </trkpt>
      <trkpt lat="46.27352" lon="6.56217">
        <ele>1235.9</ele>
        <time>2023-01-21T10:33:41.000Z</time>
      </trkpt>
      <trkpt lat="46.27352" lon="6.56217">
        <ele>1235.9</ele>
        <time>2023-01-21T10:33:42.000Z</time>
      </trkpt>
      <trkpt lat="46.27352" lon="6.56217">
        <ele>1235.9</ele>
        <time>2023-01-21T10:33:43.000Z</time>
      </trkpt>
      <trkpt lat="46.27352" lon="6.56217">
        <ele>1235.9</ele>
        <time>2023-01-21T10:33:44.000Z</time>
      </trkpt>
      <trkpt lat="46.27352" lon="6.56217">
        <ele>1235.9</ele>
        <time>2023-01-21T10:33:45.000Z</time>
      </trkpt>
      <trkpt lat="46.27352" lon="6.56217">
        <ele>1235.9</ele>
        <time>2023-01-21T10:33:46.000Z</time>
      </trkpt>
      <trkpt lat="46.27352" lon="6.56217">
        <ele>1235.9</ele>
        <time>2023-01-21T10:33:47.000Z</time>
      </trkpt>
      <trkpt lat="46.27355" lon="6.56218">
        <ele>1234.5</ele>
        <time>2023-01-21T10:33:48.000Z</time>
      </trkpt>
      <trkpt lat="46.27355" lon="6.56217">
        <ele>1234.4</ele>
        <time>2023-01-21T10:33:49.000Z</time>
      </trkpt>
      <trkpt lat="46.27356" lon="6.56217">
        <ele>1234.3</ele>
        <time>2023-01-21T10:33:50.000Z</time>
      </trkpt>
      <trkpt lat="46.27356" lon="6.56217">
        <ele>1234.2</ele>
        <time>2023-01-21T10:33:51.000Z</time>
      </trkpt>
      <trkpt lat="46.27356" lon="6.56217">
        <ele>1234.1</ele>
        <time>2023-01-21T10:33:52.000Z</time>
      </trkpt>
      <trkpt lat="46.27356" lon="6.56217">
        <ele>1234</ele>
        <time>2023-01-21T10:33:53.000Z</time>
      </trkpt>
      <trkpt lat="46.27356" lon="6.56217">
        <ele>1234.3</ele>
        <time>2023-01-21T10:33:54.000Z</time>
      </trkpt>
      <trkpt lat="46.27356" lon="6.56217">
        <ele>1234.3</ele>
        <time>2023-01-21T10:33:55.000Z</time>
      </trkpt>
      <trkpt lat="46.27356" lon="6.56217">
        <ele>1234.3</ele>
        <time>2023-01-21T10:33:56.000Z</time>
      </trkpt>
      <trkpt lat="46.27356" lon="6.56217">
        <ele>1234.3</ele>
        <time>2023-01-21T10:33:57.000Z</time>
      </trkpt>
      <trkpt lat="46.27356" lon="6.56217">
        <ele>1234.3</ele>
        <time>2023-01-21T10:33:58.000Z</time>
      </trkpt>
      <trkpt lat="46.27358" lon="6.56217">
        <ele>1234.9</ele>
        <time>2023-01-21T10:33:59.000Z</time>
      </trkpt>
      <trkpt lat="46.27358" lon="6.56217">
        <ele>1234.7</ele>
        <time>2023-01-21T10:34:00.000Z</time>
      </trkpt>
      <trkpt lat="46.27358" lon="6.56217">
        <ele>1234.7</ele>
        <time>2023-01-21T10:34:01.000Z</time>
      </trkpt>
      <trkpt lat="46.27359" lon="6.56217">
        <ele>1234.8</ele>
        <time>2023-01-21T10:34:02.000Z</time>
      </trkpt>
      <trkpt lat="46.27359" lon="6.56218">
        <ele>1234.7</ele>
        <time>2023-01-21T10:34:03.000Z</time>
      </trkpt>
      <trkpt lat="46.27359" lon="6.56218">
        <ele>1234.7</ele>
        <time>2023-01-21T10:34:04.000Z</time>
      </trkpt>
      <trkpt lat="46.27359" lon="6.56218">
        <ele>1234.7</ele>
        <time>2023-01-21T10:34:05.000Z</time>
      </trkpt>
      <trkpt lat="46.27359" lon="6.56219">
        <ele>1234.7</ele>
        <time>2023-01-21T10:34:06.000Z</time>
      </trkpt>
      <trkpt lat="46.27359" lon="6.5622">
        <ele>1234.7</ele>
        <time>2023-01-21T10:34:07.000Z</time>
      </trkpt>
      <trkpt lat="46.27359" lon="6.56221">
        <ele>1234.7</ele>
        <time>2023-01-21T10:34:08.000Z</time>
      </trkpt>
      <trkpt lat="46.2736" lon="6.56221">
        <ele>1234.7</ele>
        <time>2023-01-21T10:34:09.000Z</time>
      </trkpt>
      <trkpt lat="46.27359" lon="6.56223">
        <ele>1234.7</ele>
        <time>2023-01-21T10:34:10.000Z</time>
      </trkpt>
      <trkpt lat="46.27359" lon="6.56224">
        <ele>1234.7</ele>
        <time>2023-01-21T10:34:11.000Z</time>
      </trkpt>
      <trkpt lat="46.27359" lon="6.56224">
        <ele>1234.9</ele>
        <time>2023-01-21T10:34:12.000Z</time>
      </trkpt>
      <trkpt lat="46.27358" lon="6.56226">
        <ele>1235.2</ele>
        <time>2023-01-21T10:34:13.000Z</time>
      </trkpt>
      <trkpt lat="46.27358" lon="6.56226">
        <ele>1235.3</ele>
        <time>2023-01-21T10:34:14.000Z</time>
      </trkpt>
      <trkpt lat="46.27358" lon="6.56226">
        <ele>1235.5</ele>
        <time>2023-01-21T10:34:15.000Z</time>
      </trkpt>
      <trkpt lat="46.27359" lon="6.56226">
        <ele>1235.6</ele>
        <time>2023-01-21T10:34:16.000Z</time>
      </trkpt>
      <trkpt lat="46.2736" lon="6.56226">
        <ele>1235.9</ele>
        <time>2023-01-21T10:34:17.000Z</time>
      </trkpt>
      <trkpt lat="46.2736" lon="6.56226">
        <ele>1236</ele>
        <time>2023-01-21T10:34:18.000Z</time>
      </trkpt>
      <trkpt lat="46.27361" lon="6.56226">
        <ele>1236.2</ele>
        <time>2023-01-21T10:34:19.000Z</time>
      </trkpt>
      <trkpt lat="46.27361" lon="6.56226">
        <ele>1236.3</ele>
        <time>2023-01-21T10:34:20.000Z</time>
      </trkpt>
      <trkpt lat="46.27361" lon="6.56227">
        <ele>1236.3</ele>
        <time>2023-01-21T10:34:21.000Z</time>
      </trkpt>
      <trkpt lat="46.27361" lon="6.56227">
        <ele>1236.3</ele>
        <time>2023-01-21T10:34:22.000Z</time>
      </trkpt>
      <trkpt lat="46.27361" lon="6.56228">
        <ele>1236.5</ele>
        <time>2023-01-21T10:34:23.000Z</time>
      </trkpt>
      <trkpt lat="46.27362" lon="6.56229">
        <ele>1236.6</ele>
        <time>2023-01-21T10:34:24.000Z</time>
      </trkpt>
      <trkpt lat="46.27362" lon="6.5623">
        <ele>1236.7</ele>
        <time>2023-01-21T10:34:25.000Z</time>
      </trkpt>
      <trkpt lat="46.27362" lon="6.56231">
        <ele>1236.7</ele>
        <time>2023-01-21T10:34:26.000Z</time>
      </trkpt>
      <trkpt lat="46.27363" lon="6.56231">
        <ele>1236.7</ele>
        <time>2023-01-21T10:34:27.000Z</time>
      </trkpt>
      <trkpt lat="46.27363" lon="6.56231">
        <ele>1236.9</ele>
        <time>2023-01-21T10:34:28.000Z</time>
      </trkpt>
      <trkpt lat="46.27364" lon="6.56232">
        <ele>1237.2</ele>
        <time>2023-01-21T10:34:29.000Z</time>
      </trkpt>
      <trkpt lat="46.27364" lon="6.56232">
        <ele>1237.4</ele>
        <time>2023-01-21T10:34:30.000Z</time>
      </trkpt>
      <trkpt lat="46.27365" lon="6.56231">
        <ele>1237.7</ele>
        <time>2023-01-21T10:34:31.000Z</time>
      </trkpt>
      <trkpt lat="46.27365" lon="6.56232">
        <ele>1238</ele>
        <time>2023-01-21T10:34:32.000Z</time>
      </trkpt>
      <trkpt lat="46.27365" lon="6.56233">
        <ele>1238.2</ele>
        <time>2023-01-21T10:34:33.000Z</time>
      </trkpt>
      <trkpt lat="46.27365" lon="6.56234">
        <ele>1238.4</ele>
        <time>2023-01-21T10:34:34.000Z</time>
      </trkpt>
      <trkpt lat="46.27365" lon="6.56235">
        <ele>1238.7</ele>
        <time>2023-01-21T10:34:35.000Z</time>
      </trkpt>
      <trkpt lat="46.27366" lon="6.56235">
        <ele>1238.9</ele>
        <time>2023-01-21T10:34:36.000Z</time>
      </trkpt>
      <trkpt lat="46.27366" lon="6.56236">
        <ele>1239.2</ele>
        <time>2023-01-21T10:34:37.000Z</time>
      </trkpt>
      <trkpt lat="46.27366" lon="6.56236">
        <ele>1239.6</ele>
        <time>2023-01-21T10:34:38.000Z</time>
      </trkpt>
      <trkpt lat="46.27367" lon="6.56236">
        <ele>1239.8</ele>
        <time>2023-01-21T10:34:39.000Z</time>
      </trkpt>
      <trkpt lat="46.27367" lon="6.56235">
        <ele>1240.1</ele>
        <time>2023-01-21T10:34:40.000Z</time>
      </trkpt>
      <trkpt lat="46.27367" lon="6.56236">
        <ele>1240.4</ele>
        <time>2023-01-21T10:34:41.000Z</time>
      </trkpt>
      <trkpt lat="46.27368" lon="6.56236">
        <ele>1240.7</ele>
        <time>2023-01-21T10:34:42.000Z</time>
      </trkpt>
      <trkpt lat="46.27369" lon="6.56237">
        <ele>1241.2</ele>
        <time>2023-01-21T10:34:43.000Z</time>
      </trkpt>
      <trkpt lat="46.2737" lon="6.56237">
        <ele>1241.7</ele>
        <time>2023-01-21T10:34:44.000Z</time>
      </trkpt>
      <trkpt lat="46.2737" lon="6.56237">
        <ele>1242.1</ele>
        <time>2023-01-21T10:34:45.000Z</time>
      </trkpt>
      <trkpt lat="46.27371" lon="6.56237">
        <ele>1242.6</ele>
        <time>2023-01-21T10:34:46.000Z</time>
      </trkpt>
      <trkpt lat="46.27372" lon="6.56236">
        <ele>1243.1</ele>
        <time>2023-01-21T10:34:47.000Z</time>
      </trkpt>
      <trkpt lat="46.27373" lon="6.56236">
        <ele>1243.6</ele>
        <time>2023-01-21T10:34:48.000Z</time>
      </trkpt>
      <trkpt lat="46.27373" lon="6.56236">
        <ele>1244</ele>
        <time>2023-01-21T10:34:49.000Z</time>
      </trkpt>
      <trkpt lat="46.27374" lon="6.56237">
        <ele>1244.3</ele>
        <time>2023-01-21T10:34:50.000Z</time>
      </trkpt>
      <trkpt lat="46.27375" lon="6.56237">
        <ele>1244.9</ele>
        <time>2023-01-21T10:34:51.000Z</time>
      </trkpt>
      <trkpt lat="46.27375" lon="6.56237">
        <ele>1245.2</ele>
        <time>2023-01-21T10:34:52.000Z</time>
      </trkpt>
      <trkpt lat="46.27376" lon="6.56237">
        <ele>1245.7</ele>
        <time>2023-01-21T10:34:53.000Z</time>
      </trkpt>
      <trkpt lat="46.27375" lon="6.56237">
        <ele>1245.9</ele>
        <time>2023-01-21T10:34:54.000Z</time>
      </trkpt>
      <trkpt lat="46.27376" lon="6.56237">
        <ele>1246.2</ele>
        <time>2023-01-21T10:34:55.000Z</time>
      </trkpt>
      <trkpt lat="46.27376" lon="6.56238">
        <ele>1246.5</ele>
        <time>2023-01-21T10:34:56.000Z</time>
      </trkpt>
      <trkpt lat="46.27377" lon="6.56237">
        <ele>1246.8</ele>
        <time>2023-01-21T10:34:57.000Z</time>
      </trkpt>
      <trkpt lat="46.27377" lon="6.56237">
        <ele>1247.1</ele>
        <time>2023-01-21T10:34:58.000Z</time>
      </trkpt>
      <trkpt lat="46.27378" lon="6.56238">
        <ele>1247.1</ele>
        <time>2023-01-21T10:34:59.000Z</time>
      </trkpt>
      <trkpt lat="46.27378" lon="6.56238">
        <ele>1247.2</ele>
        <time>2023-01-21T10:35:00.000Z</time>
      </trkpt>
      <trkpt lat="46.27379" lon="6.56239">
        <ele>1247.4</ele>
        <time>2023-01-21T10:35:01.000Z</time>
      </trkpt>
      <trkpt lat="46.27379" lon="6.5624">
        <ele>1247.6</ele>
        <time>2023-01-21T10:35:02.000Z</time>
      </trkpt>
      <trkpt lat="46.27379" lon="6.56241">
        <ele>1247.9</ele>
        <time>2023-01-21T10:35:03.000Z</time>
      </trkpt>
      <trkpt lat="46.27379" lon="6.56242">
        <ele>1248.2</ele>
        <time>2023-01-21T10:35:04.000Z</time>
      </trkpt>
      <trkpt lat="46.27379" lon="6.56243">
        <ele>1248.4</ele>
        <time>2023-01-21T10:35:05.000Z</time>
      </trkpt>
      <trkpt lat="46.27379" lon="6.56243">
        <ele>1248.7</ele>
        <time>2023-01-21T10:35:06.000Z</time>
      </trkpt>
      <trkpt lat="46.27379" lon="6.56245">
        <ele>1248.9</ele>
        <time>2023-01-21T10:35:07.000Z</time>
      </trkpt>
      <trkpt lat="46.27378" lon="6.56245">
        <ele>1249.1</ele>
        <time>2023-01-21T10:35:08.000Z</time>
      </trkpt>
      <trkpt lat="46.27378" lon="6.56246">
        <ele>1249.4</ele>
        <time>2023-01-21T10:35:09.000Z</time>
      </trkpt>
      <trkpt lat="46.27378" lon="6.56246">
        <ele>1249.4</ele>
        <time>2023-01-21T10:35:10.000Z</time>
      </trkpt>
      <trkpt lat="46.27378" lon="6.56248">
        <ele>1249.4</ele>
        <time>2023-01-21T10:35:11.000Z</time>
      </trkpt>
      <trkpt lat="46.27378" lon="6.56249">
        <ele>1249.5</ele>
        <time>2023-01-21T10:35:12.000Z</time>
      </trkpt>
      <trkpt lat="46.27379" lon="6.56249">
        <ele>1249.5</ele>
        <time>2023-01-21T10:35:13.000Z</time>
      </trkpt>
      <trkpt lat="46.27379" lon="6.56249">
        <ele>1249.7</ele>
        <time>2023-01-21T10:35:14.000Z</time>
      </trkpt>
      <trkpt lat="46.27379" lon="6.5625">
        <ele>1249.7</ele>
        <time>2023-01-21T10:35:15.000Z</time>
      </trkpt>
      <trkpt lat="46.2738" lon="6.56251">
        <ele>1249.7</ele>
        <time>2023-01-21T10:35:16.000Z</time>
      </trkpt>
      <trkpt lat="46.2738" lon="6.56251">
        <ele>1249.7</ele>
        <time>2023-01-21T10:35:17.000Z</time>
      </trkpt>
      <trkpt lat="46.2738" lon="6.56251">
        <ele>1249.7</ele>
        <time>2023-01-21T10:35:18.000Z</time>
      </trkpt>
      <trkpt lat="46.2738" lon="6.56251">
        <ele>1249.7</ele>
        <time>2023-01-21T10:35:19.000Z</time>
      </trkpt>
      <trkpt lat="46.2738" lon="6.56252">
        <ele>1249.8</ele>
        <time>2023-01-21T10:35:20.000Z</time>
      </trkpt>
      <trkpt lat="46.2738" lon="6.56253">
        <ele>1250.1</ele>
        <time>2023-01-21T10:35:21.000Z</time>
      </trkpt>
      <trkpt lat="46.2738" lon="6.56253">
        <ele>1250.2</ele>
        <time>2023-01-21T10:35:22.000Z</time>
      </trkpt>
      <trkpt lat="46.27379" lon="6.56254">
        <ele>1250.5</ele>
        <time>2023-01-21T10:35:23.000Z</time>
      </trkpt>
      <trkpt lat="46.27379" lon="6.56255">
        <ele>1251</ele>
        <time>2023-01-21T10:35:24.000Z</time>
      </trkpt>
      <trkpt lat="46.27379" lon="6.56256">
        <ele>1251.2</ele>
        <time>2023-01-21T10:35:25.000Z</time>
      </trkpt>
      <trkpt lat="46.27378" lon="6.56257">
        <ele>1251.7</ele>
        <time>2023-01-21T10:35:26.000Z</time>
      </trkpt>
      <trkpt lat="46.27378" lon="6.56258">
        <ele>1251.9</ele>
        <time>2023-01-21T10:35:27.000Z</time>
      </trkpt>
      <trkpt lat="46.27378" lon="6.56259">
        <ele>1252.1</ele>
        <time>2023-01-21T10:35:28.000Z</time>
      </trkpt>
      <trkpt lat="46.27378" lon="6.5626">
        <ele>1252.2</ele>
        <time>2023-01-21T10:35:29.000Z</time>
      </trkpt>
      <trkpt lat="46.27379" lon="6.56261">
        <ele>1252.5</ele>
        <time>2023-01-21T10:35:30.000Z</time>
      </trkpt>
      <trkpt lat="46.2738" lon="6.56262">
        <ele>1252.5</ele>
        <time>2023-01-21T10:35:31.000Z</time>
      </trkpt>
      <trkpt lat="46.2738" lon="6.56263">
        <ele>1252.5</ele>
        <time>2023-01-21T10:35:32.000Z</time>
      </trkpt>
      <trkpt lat="46.2738" lon="6.56263">
        <ele>1252.6</ele>
        <time>2023-01-21T10:35:33.000Z</time>
      </trkpt>
      <trkpt lat="46.2738" lon="6.56264">
        <ele>1252.6</ele>
        <time>2023-01-21T10:35:34.000Z</time>
      </trkpt>
      <trkpt lat="46.2738" lon="6.56264">
        <ele>1252.7</ele>
        <time>2023-01-21T10:35:35.000Z</time>
      </trkpt>
      <trkpt lat="46.2738" lon="6.56265">
        <ele>1252.7</ele>
        <time>2023-01-21T10:35:36.000Z</time>
      </trkpt>
      <trkpt lat="46.2738" lon="6.56265">
        <ele>1252.8</ele>
        <time>2023-01-21T10:35:37.000Z</time>
      </trkpt>
      <trkpt lat="46.2738" lon="6.56266">
        <ele>1252.5</ele>
        <time>2023-01-21T10:35:38.000Z</time>
      </trkpt>
      <trkpt lat="46.2738" lon="6.56266">
        <ele>1252.4</ele>
        <time>2023-01-21T10:35:39.000Z</time>
      </trkpt>
      <trkpt lat="46.2738" lon="6.56265">
        <ele>1252</ele>
        <time>2023-01-21T10:35:40.000Z</time>
      </trkpt>
      <trkpt lat="46.2738" lon="6.56266">
        <ele>1251.9</ele>
        <time>2023-01-21T10:35:41.000Z</time>
      </trkpt>
      <trkpt lat="46.27381" lon="6.56266">
        <ele>1251.8</ele>
        <time>2023-01-21T10:35:42.000Z</time>
      </trkpt>
      <trkpt lat="46.27381" lon="6.56266">
        <ele>1251.4</ele>
        <time>2023-01-21T10:35:43.000Z</time>
      </trkpt>
      <trkpt lat="46.27381" lon="6.56266">
        <ele>1251.5</ele>
        <time>2023-01-21T10:35:44.000Z</time>
      </trkpt>
      <trkpt lat="46.27381" lon="6.56266">
        <ele>1251.5</ele>
        <time>2023-01-21T10:35:45.000Z</time>
      </trkpt>
      <trkpt lat="46.27382" lon="6.56266">
        <ele>1251.3</ele>
        <time>2023-01-21T10:35:46.000Z</time>
      </trkpt>
      <trkpt lat="46.27382" lon="6.56265">
        <ele>1251.3</ele>
        <time>2023-01-21T10:35:47.000Z</time>
      </trkpt>
      <trkpt lat="46.27381" lon="6.56267">
        <ele>1251.3</ele>
        <time>2023-01-21T10:35:48.000Z</time>
      </trkpt>
      <trkpt lat="46.27381" lon="6.56267">
        <ele>1251.2</ele>
        <time>2023-01-21T10:35:49.000Z</time>
      </trkpt>
      <trkpt lat="46.27381" lon="6.56268">
        <ele>1251.3</ele>
        <time>2023-01-21T10:35:50.000Z</time>
      </trkpt>
      <trkpt lat="46.2738" lon="6.56268">
        <ele>1251.5</ele>
        <time>2023-01-21T10:35:51.000Z</time>
      </trkpt>
      <trkpt lat="46.27381" lon="6.56269">
        <ele>1251.5</ele>
        <time>2023-01-21T10:35:52.000Z</time>
      </trkpt>
      <trkpt lat="46.27381" lon="6.56269">
        <ele>1251.5</ele>
        <time>2023-01-21T10:35:53.000Z</time>
      </trkpt>
      <trkpt lat="46.27381" lon="6.5627">
        <ele>1251.5</ele>
        <time>2023-01-21T10:35:54.000Z</time>
      </trkpt>
      <trkpt lat="46.27382" lon="6.56271">
        <ele>1251.5</ele>
        <time>2023-01-21T10:35:55.000Z</time>
      </trkpt>
      <trkpt lat="46.27382" lon="6.56272">
        <ele>1251.6</ele>
        <time>2023-01-21T10:35:56.000Z</time>
      </trkpt>
      <trkpt lat="46.27382" lon="6.56273">
        <ele>1251.9</ele>
        <time>2023-01-21T10:35:57.000Z</time>
      </trkpt>
      <trkpt lat="46.27383" lon="6.56273">
        <ele>1251.9</ele>
        <time>2023-01-21T10:35:58.000Z</time>
      </trkpt>
      <trkpt lat="46.27382" lon="6.56274">
        <ele>1252.1</ele>
        <time>2023-01-21T10:35:59.000Z</time>
      </trkpt>
      <trkpt lat="46.27382" lon="6.56274">
        <ele>1252.2</ele>
        <time>2023-01-21T10:36:00.000Z</time>
      </trkpt>
      <trkpt lat="46.27382" lon="6.56275">
        <ele>1252.5</ele>
        <time>2023-01-21T10:36:01.000Z</time>
      </trkpt>
      <trkpt lat="46.27383" lon="6.56276">
        <ele>1252.8</ele>
        <time>2023-01-21T10:36:02.000Z</time>
      </trkpt>
      <trkpt lat="46.27382" lon="6.56277">
        <ele>1253.1</ele>
        <time>2023-01-21T10:36:03.000Z</time>
      </trkpt>
      <trkpt lat="46.27383" lon="6.56277">
        <ele>1253.3</ele>
        <time>2023-01-21T10:36:04.000Z</time>
      </trkpt>
      <trkpt lat="46.27383" lon="6.56278">
        <ele>1253.5</ele>
        <time>2023-01-21T10:36:05.000Z</time>
      </trkpt>
      <trkpt lat="46.27383" lon="6.56279">
        <ele>1253.6</ele>
        <time>2023-01-21T10:36:06.000Z</time>
      </trkpt>
      <trkpt lat="46.27383" lon="6.5628">
        <ele>1253.9</ele>
        <time>2023-01-21T10:36:07.000Z</time>
      </trkpt>
      <trkpt lat="46.27382" lon="6.56282">
        <ele>1254.2</ele>
        <time>2023-01-21T10:36:08.000Z</time>
      </trkpt>
      <trkpt lat="46.27382" lon="6.56283">
        <ele>1254.3</ele>
        <time>2023-01-21T10:36:09.000Z</time>
      </trkpt>
      <trkpt lat="46.27382" lon="6.56284">
        <ele>1254.7</ele>
        <time>2023-01-21T10:36:10.000Z</time>
      </trkpt>
      <trkpt lat="46.27382" lon="6.56285">
        <ele>1254.8</ele>
        <time>2023-01-21T10:36:11.000Z</time>
      </trkpt>
      <trkpt lat="46.27382" lon="6.56285">
        <ele>1255.1</ele>
        <time>2023-01-21T10:36:12.000Z</time>
      </trkpt>
      <trkpt lat="46.27382" lon="6.56285">
        <ele>1255.1</ele>
        <time>2023-01-21T10:36:13.000Z</time>
      </trkpt>
      <trkpt lat="46.27382" lon="6.56286">
        <ele>1255.2</ele>
        <time>2023-01-21T10:36:14.000Z</time>
      </trkpt>
      <trkpt lat="46.27382" lon="6.56286">
        <ele>1255.3</ele>
        <time>2023-01-21T10:36:15.000Z</time>
      </trkpt>
      <trkpt lat="46.27382" lon="6.56287">
        <ele>1255.4</ele>
        <time>2023-01-21T10:36:16.000Z</time>
      </trkpt>
      <trkpt lat="46.27382" lon="6.56287">
        <ele>1255.5</ele>
        <time>2023-01-21T10:36:17.000Z</time>
      </trkpt>
      <trkpt lat="46.27382" lon="6.56288">
        <ele>1255.7</ele>
        <time>2023-01-21T10:36:18.000Z</time>
      </trkpt>
      <trkpt lat="46.27383" lon="6.56287">
        <ele>1255.6</ele>
        <time>2023-01-21T10:36:19.000Z</time>
      </trkpt>
      <trkpt lat="46.27383" lon="6.56288">
        <ele>1255.6</ele>
        <time>2023-01-21T10:36:20.000Z</time>
      </trkpt>
      <trkpt lat="46.27383" lon="6.56288">
        <ele>1255.6</ele>
        <time>2023-01-21T10:36:21.000Z</time>
      </trkpt>
      <trkpt lat="46.27383" lon="6.56288">
        <ele>1255.6</ele>
        <time>2023-01-21T10:36:22.000Z</time>
      </trkpt>
      <trkpt lat="46.27383" lon="6.56288">
        <ele>1255.6</ele>
        <time>2023-01-21T10:36:23.000Z</time>
      </trkpt>
      <trkpt lat="46.27383" lon="6.56288">
        <ele>1255.6</ele>
        <time>2023-01-21T10:36:24.000Z</time>
      </trkpt>
      <trkpt lat="46.27382" lon="6.56292">
        <ele>1256.4</ele>
        <time>2023-01-21T10:36:25.000Z</time>
      </trkpt>
      <trkpt lat="46.27381" lon="6.56293">
        <ele>1256.4</ele>
        <time>2023-01-21T10:36:26.000Z</time>
      </trkpt>
      <trkpt lat="46.27382" lon="6.56293">
        <ele>1256.6</ele>
        <time>2023-01-21T10:36:27.000Z</time>
      </trkpt>
      <trkpt lat="46.27382" lon="6.56293">
        <ele>1256.7</ele>
        <time>2023-01-21T10:36:28.000Z</time>
      </trkpt>
      <trkpt lat="46.27382" lon="6.56293">
        <ele>1256.7</ele>
        <time>2023-01-21T10:36:29.000Z</time>
      </trkpt>
      <trkpt lat="46.27382" lon="6.56293">
        <ele>1256.7</ele>
        <time>2023-01-21T10:36:30.000Z</time>
      </trkpt>
      <trkpt lat="46.27382" lon="6.56293">
        <ele>1256.7</ele>
        <time>2023-01-21T10:36:31.000Z</time>
      </trkpt>
      <trkpt lat="46.27382" lon="6.56293">
        <ele>1256.7</ele>
        <time>2023-01-21T10:36:32.000Z</time>
      </trkpt>
      <trkpt lat="46.27382" lon="6.56293">
        <ele>1256.7</ele>
        <time>2023-01-21T10:36:33.000Z</time>
      </trkpt>
      <trkpt lat="46.27382" lon="6.56293">
        <ele>1256.7</ele>
        <time>2023-01-21T10:36:34.000Z</time>
      </trkpt>
      <trkpt lat="46.27382" lon="6.56293">
        <ele>1256.7</ele>
        <time>2023-01-21T10:36:35.000Z</time>
      </trkpt>
      <trkpt lat="46.27382" lon="6.56293">
        <ele>1256.7</ele>
        <time>2023-01-21T10:36:36.000Z</time>
      </trkpt>
      <trkpt lat="46.27382" lon="6.56293">
        <ele>1256.7</ele>
        <time>2023-01-21T10:36:37.000Z</time>
      </trkpt>
      <trkpt lat="46.27382" lon="6.56293">
        <ele>1256.7</ele>
        <time>2023-01-21T10:36:38.000Z</time>
      </trkpt>
      <trkpt lat="46.27382" lon="6.56293">
        <ele>1256.7</ele>
        <time>2023-01-21T10:36:39.000Z</time>
      </trkpt>
      <trkpt lat="46.27382" lon="6.56293">
        <ele>1256.7</ele>
        <time>2023-01-21T10:36:40.000Z</time>
      </trkpt>
      <trkpt lat="46.27382" lon="6.56293">
        <ele>1256.7</ele>
        <time>2023-01-21T10:36:41.000Z</time>
      </trkpt>
      <trkpt lat="46.27382" lon="6.56293">
        <ele>1256.7</ele>
        <time>2023-01-21T10:36:42.000Z</time>
      </trkpt>
      <trkpt lat="46.27381" lon="6.56298">
        <ele>1259.6</ele>
        <time>2023-01-21T10:36:43.000Z</time>
      </trkpt>
      <trkpt lat="46.27382" lon="6.56299">
        <ele>1259.9</ele>
        <time>2023-01-21T10:36:44.000Z</time>
      </trkpt>
      <trkpt lat="46.27381" lon="6.56302">
        <ele>1260.1</ele>
        <time>2023-01-21T10:36:45.000Z</time>
      </trkpt>
      <trkpt lat="46.2738" lon="6.56303">
        <ele>1260.4</ele>
        <time>2023-01-21T10:36:46.000Z</time>
      </trkpt>
      <trkpt lat="46.2738" lon="6.56304">
        <ele>1260.8</ele>
        <time>2023-01-21T10:36:47.000Z</time>
      </trkpt>
      <trkpt lat="46.27379" lon="6.56305">
        <ele>1261</ele>
        <time>2023-01-21T10:36:48.000Z</time>
      </trkpt>
      <trkpt lat="46.27379" lon="6.56306">
        <ele>1261.6</ele>
        <time>2023-01-21T10:36:49.000Z</time>
      </trkpt>
      <trkpt lat="46.2738" lon="6.56305">
        <ele>1262</ele>
        <time>2023-01-21T10:36:50.000Z</time>
      </trkpt>
      <trkpt lat="46.2738" lon="6.56304">
        <ele>1262.1</ele>
        <time>2023-01-21T10:36:51.000Z</time>
      </trkpt>
      <trkpt lat="46.27381" lon="6.56303">
        <ele>1262.3</ele>
        <time>2023-01-21T10:36:52.000Z</time>
      </trkpt>
      <trkpt lat="46.27382" lon="6.56303">
        <ele>1262.2</ele>
        <time>2023-01-21T10:36:53.000Z</time>
      </trkpt>
      <trkpt lat="46.27382" lon="6.56303">
        <ele>1262.3</ele>
        <time>2023-01-21T10:36:54.000Z</time>
      </trkpt>
      <trkpt lat="46.27382" lon="6.56303">
        <ele>1262.4</ele>
        <time>2023-01-21T10:36:55.000Z</time>
      </trkpt>
      <trkpt lat="46.27381" lon="6.56304">
        <ele>1262.3</ele>
        <time>2023-01-21T10:36:56.000Z</time>
      </trkpt>
      <trkpt lat="46.27381" lon="6.56304">
        <ele>1262.3</ele>
        <time>2023-01-21T10:36:57.000Z</time>
      </trkpt>
      <trkpt lat="46.27381" lon="6.56304">
        <ele>1262.3</ele>
        <time>2023-01-21T10:36:58.000Z</time>
      </trkpt>
      <trkpt lat="46.27381" lon="6.56304">
        <ele>1262.3</ele>
        <time>2023-01-21T10:36:59.000Z</time>
      </trkpt>
      <trkpt lat="46.27381" lon="6.56304">
        <ele>1262.3</ele>
        <time>2023-01-21T10:37:00.000Z</time>
      </trkpt>
      <trkpt lat="46.27381" lon="6.56304">
        <ele>1262.3</ele>
        <time>2023-01-21T10:37:01.000Z</time>
      </trkpt>
      <trkpt lat="46.27381" lon="6.56304">
        <ele>1262.3</ele>
        <time>2023-01-21T10:37:02.000Z</time>
      </trkpt>
      <trkpt lat="46.27381" lon="6.56304">
        <ele>1262.3</ele>
        <time>2023-01-21T10:37:03.000Z</time>
      </trkpt>
      <trkpt lat="46.27381" lon="6.56304">
        <ele>1262.3</ele>
        <time>2023-01-21T10:37:04.000Z</time>
      </trkpt>
      <trkpt lat="46.27381" lon="6.56304">
        <ele>1262.3</ele>
        <time>2023-01-21T10:37:05.000Z</time>
      </trkpt>
      <trkpt lat="46.27381" lon="6.56304">
        <ele>1262.3</ele>
        <time>2023-01-21T10:37:06.000Z</time>
      </trkpt>
      <trkpt lat="46.27381" lon="6.56304">
        <ele>1262.3</ele>
        <time>2023-01-21T10:37:07.000Z</time>
      </trkpt>
      <trkpt lat="46.27381" lon="6.56304">
        <ele>1262.3</ele>
        <time>2023-01-21T10:37:08.000Z</time>
      </trkpt>
      <trkpt lat="46.27383" lon="6.56307">
        <ele>1262.8</ele>
        <time>2023-01-21T10:37:09.000Z</time>
      </trkpt>
      <trkpt lat="46.27384" lon="6.56307">
        <ele>1262.9</ele>
        <time>2023-01-21T10:37:10.000Z</time>
      </trkpt>
      <trkpt lat="46.27384" lon="6.56308">
        <ele>1263</ele>
        <time>2023-01-21T10:37:11.000Z</time>
      </trkpt>
      <trkpt lat="46.27384" lon="6.56308">
        <ele>1263.2</ele>
        <time>2023-01-21T10:37:12.000Z</time>
      </trkpt>
      <trkpt lat="46.27385" lon="6.56309">
        <ele>1263.4</ele>
        <time>2023-01-21T10:37:13.000Z</time>
      </trkpt>
      <trkpt lat="46.27385" lon="6.56309">
        <ele>1263.5</ele>
        <time>2023-01-21T10:37:14.000Z</time>
      </trkpt>
      <trkpt lat="46.27386" lon="6.5631">
        <ele>1263.8</ele>
        <time>2023-01-21T10:37:15.000Z</time>
      </trkpt>
      <trkpt lat="46.27386" lon="6.5631">
        <ele>1264</ele>
        <time>2023-01-21T10:37:16.000Z</time>
      </trkpt>
      <trkpt lat="46.27385" lon="6.56311">
        <ele>1264.2</ele>
        <time>2023-01-21T10:37:17.000Z</time>
      </trkpt>
      <trkpt lat="46.27385" lon="6.56312">
        <ele>1264.4</ele>
        <time>2023-01-21T10:37:18.000Z</time>
      </trkpt>
      <trkpt lat="46.27386" lon="6.56313">
        <ele>1264.6</ele>
        <time>2023-01-21T10:37:19.000Z</time>
      </trkpt>
      <trkpt lat="46.27386" lon="6.56313">
        <ele>1264.8</ele>
        <time>2023-01-21T10:37:20.000Z</time>
      </trkpt>
      <trkpt lat="46.27386" lon="6.56313">
        <ele>1265.1</ele>
        <time>2023-01-21T10:37:21.000Z</time>
      </trkpt>
      <trkpt lat="46.27386" lon="6.56313">
        <ele>1265.3</ele>
        <time>2023-01-21T10:37:22.000Z</time>
      </trkpt>
      <trkpt lat="46.27386" lon="6.56314">
        <ele>1265.4</ele>
        <time>2023-01-21T10:37:23.000Z</time>
      </trkpt>
      <trkpt lat="46.27386" lon="6.56314">
        <ele>1265.6</ele>
        <time>2023-01-21T10:37:24.000Z</time>
      </trkpt>
      <trkpt lat="46.27387" lon="6.56313">
        <ele>1265.7</ele>
        <time>2023-01-21T10:37:25.000Z</time>
      </trkpt>
      <trkpt lat="46.27387" lon="6.56314">
        <ele>1265.9</ele>
        <time>2023-01-21T10:37:26.000Z</time>
      </trkpt>
      <trkpt lat="46.27388" lon="6.56313">
        <ele>1266.1</ele>
        <time>2023-01-21T10:37:27.000Z</time>
      </trkpt>
      <trkpt lat="46.27387" lon="6.56314">
        <ele>1266.3</ele>
        <time>2023-01-21T10:37:28.000Z</time>
      </trkpt>
      <trkpt lat="46.27387" lon="6.56314">
        <ele>1266.7</ele>
        <time>2023-01-21T10:37:29.000Z</time>
      </trkpt>
      <trkpt lat="46.27387" lon="6.56315">
        <ele>1266.9</ele>
        <time>2023-01-21T10:37:30.000Z</time>
      </trkpt>
      <trkpt lat="46.27387" lon="6.56316">
        <ele>1267</ele>
        <time>2023-01-21T10:37:31.000Z</time>
      </trkpt>
      <trkpt lat="46.27387" lon="6.56316">
        <ele>1267</ele>
        <time>2023-01-21T10:37:32.000Z</time>
      </trkpt>
      <trkpt lat="46.27387" lon="6.56317">
        <ele>1267.2</ele>
        <time>2023-01-21T10:37:33.000Z</time>
      </trkpt>
      <trkpt lat="46.27388" lon="6.56317">
        <ele>1267.3</ele>
        <time>2023-01-21T10:37:34.000Z</time>
      </trkpt>
      <trkpt lat="46.27388" lon="6.56317">
        <ele>1267.4</ele>
        <time>2023-01-21T10:37:35.000Z</time>
      </trkpt>
      <trkpt lat="46.27389" lon="6.56317">
        <ele>1267.7</ele>
        <time>2023-01-21T10:37:36.000Z</time>
      </trkpt>
      <trkpt lat="46.27389" lon="6.56317">
        <ele>1267.9</ele>
        <time>2023-01-21T10:37:37.000Z</time>
      </trkpt>
      <trkpt lat="46.2739" lon="6.56317">
        <ele>1268.1</ele>
        <time>2023-01-21T10:37:38.000Z</time>
      </trkpt>
      <trkpt lat="46.2739" lon="6.56317">
        <ele>1268.2</ele>
        <time>2023-01-21T10:37:39.000Z</time>
      </trkpt>
      <trkpt lat="46.27391" lon="6.56318">
        <ele>1268.4</ele>
        <time>2023-01-21T10:37:40.000Z</time>
      </trkpt>
      <trkpt lat="46.27392" lon="6.56318">
        <ele>1268.6</ele>
        <time>2023-01-21T10:37:41.000Z</time>
      </trkpt>
      <trkpt lat="46.27392" lon="6.56319">
        <ele>1268.8</ele>
        <time>2023-01-21T10:37:42.000Z</time>
      </trkpt>
      <trkpt lat="46.27392" lon="6.5632">
        <ele>1268.9</ele>
        <time>2023-01-21T10:37:43.000Z</time>
      </trkpt>
      <trkpt lat="46.27391" lon="6.56322">
        <ele>1269.2</ele>
        <time>2023-01-21T10:37:44.000Z</time>
      </trkpt>
      <trkpt lat="46.27391" lon="6.56323">
        <ele>1269.5</ele>
        <time>2023-01-21T10:37:45.000Z</time>
      </trkpt>
      <trkpt lat="46.27391" lon="6.56323">
        <ele>1269.5</ele>
        <time>2023-01-21T10:37:46.000Z</time>
      </trkpt>
      <trkpt lat="46.27391" lon="6.56324">
        <ele>1269.8</ele>
        <time>2023-01-21T10:37:47.000Z</time>
      </trkpt>
      <trkpt lat="46.27391" lon="6.56325">
        <ele>1270.4</ele>
        <time>2023-01-21T10:37:48.000Z</time>
      </trkpt>
      <trkpt lat="46.27391" lon="6.56325">
        <ele>1270.5</ele>
        <time>2023-01-21T10:37:49.000Z</time>
      </trkpt>
      <trkpt lat="46.27392" lon="6.56325">
        <ele>1270.9</ele>
        <time>2023-01-21T10:37:50.000Z</time>
      </trkpt>
      <trkpt lat="46.27392" lon="6.56326">
        <ele>1271.2</ele>
        <time>2023-01-21T10:37:51.000Z</time>
      </trkpt>
      <trkpt lat="46.27392" lon="6.56326">
        <ele>1271.6</ele>
        <time>2023-01-21T10:37:52.000Z</time>
      </trkpt>
      <trkpt lat="46.27392" lon="6.56326">
        <ele>1271.9</ele>
        <time>2023-01-21T10:37:53.000Z</time>
      </trkpt>
      <trkpt lat="46.27392" lon="6.56328">
        <ele>1272.1</ele>
        <time>2023-01-21T10:37:54.000Z</time>
      </trkpt>
      <trkpt lat="46.27392" lon="6.56328">
        <ele>1272.2</ele>
        <time>2023-01-21T10:37:55.000Z</time>
      </trkpt>
      <trkpt lat="46.27392" lon="6.56329">
        <ele>1272.2</ele>
        <time>2023-01-21T10:37:56.000Z</time>
      </trkpt>
      <trkpt lat="46.27392" lon="6.56329">
        <ele>1272.2</ele>
        <time>2023-01-21T10:37:57.000Z</time>
      </trkpt>
      <trkpt lat="46.27393" lon="6.5633">
        <ele>1272.3</ele>
        <time>2023-01-21T10:37:58.000Z</time>
      </trkpt>
      <trkpt lat="46.27393" lon="6.56331">
        <ele>1272.5</ele>
        <time>2023-01-21T10:37:59.000Z</time>
      </trkpt>
      <trkpt lat="46.27394" lon="6.56331">
        <ele>1272.6</ele>
        <time>2023-01-21T10:38:00.000Z</time>
      </trkpt>
      <trkpt lat="46.27395" lon="6.56331">
        <ele>1272.6</ele>
        <time>2023-01-21T10:38:01.000Z</time>
      </trkpt>
      <trkpt lat="46.27394" lon="6.56331">
        <ele>1272.7</ele>
        <time>2023-01-21T10:38:02.000Z</time>
      </trkpt>
      <trkpt lat="46.27395" lon="6.56331">
        <ele>1272.8</ele>
        <time>2023-01-21T10:38:03.000Z</time>
      </trkpt>
      <trkpt lat="46.27395" lon="6.56332">
        <ele>1272.9</ele>
        <time>2023-01-21T10:38:04.000Z</time>
      </trkpt>
      <trkpt lat="46.27395" lon="6.56332">
        <ele>1273.1</ele>
        <time>2023-01-21T10:38:05.000Z</time>
      </trkpt>
      <trkpt lat="46.27395" lon="6.56334">
        <ele>1273.5</ele>
        <time>2023-01-21T10:38:06.000Z</time>
      </trkpt>
      <trkpt lat="46.27395" lon="6.56335">
        <ele>1273.9</ele>
        <time>2023-01-21T10:38:07.000Z</time>
      </trkpt>
      <trkpt lat="46.27395" lon="6.56336">
        <ele>1274</ele>
        <time>2023-01-21T10:38:08.000Z</time>
      </trkpt>
      <trkpt lat="46.27396" lon="6.56336">
        <ele>1274.3</ele>
        <time>2023-01-21T10:38:09.000Z</time>
      </trkpt>
      <trkpt lat="46.27396" lon="6.56336">
        <ele>1274.7</ele>
        <time>2023-01-21T10:38:10.000Z</time>
      </trkpt>
      <trkpt lat="46.27397" lon="6.56337">
        <ele>1274.8</ele>
        <time>2023-01-21T10:38:11.000Z</time>
      </trkpt>
      <trkpt lat="46.27397" lon="6.56338">
        <ele>1275</ele>
        <time>2023-01-21T10:38:12.000Z</time>
      </trkpt>
      <trkpt lat="46.27397" lon="6.56339">
        <ele>1275.1</ele>
        <time>2023-01-21T10:38:13.000Z</time>
      </trkpt>
      <trkpt lat="46.27397" lon="6.5634">
        <ele>1275.2</ele>
        <time>2023-01-21T10:38:14.000Z</time>
      </trkpt>
      <trkpt lat="46.27397" lon="6.56341">
        <ele>1275.1</ele>
        <time>2023-01-21T10:38:15.000Z</time>
      </trkpt>
      <trkpt lat="46.27396" lon="6.56341">
        <ele>1274.9</ele>
        <time>2023-01-21T10:38:16.000Z</time>
      </trkpt>
      <trkpt lat="46.27396" lon="6.56341">
        <ele>1274.9</ele>
        <time>2023-01-21T10:38:17.000Z</time>
      </trkpt>
      <trkpt lat="46.27396" lon="6.56342">
        <ele>1275</ele>
        <time>2023-01-21T10:38:18.000Z</time>
      </trkpt>
      <trkpt lat="46.27396" lon="6.56342">
        <ele>1275</ele>
        <time>2023-01-21T10:38:19.000Z</time>
      </trkpt>
      <trkpt lat="46.27396" lon="6.56343">
        <ele>1275.3</ele>
        <time>2023-01-21T10:38:20.000Z</time>
      </trkpt>
      <trkpt lat="46.27396" lon="6.56343">
        <ele>1275.2</ele>
        <time>2023-01-21T10:38:21.000Z</time>
      </trkpt>
      <trkpt lat="46.27396" lon="6.56343">
        <ele>1275.2</ele>
        <time>2023-01-21T10:38:22.000Z</time>
      </trkpt>
      <trkpt lat="46.27396" lon="6.56344">
        <ele>1275.5</ele>
        <time>2023-01-21T10:38:23.000Z</time>
      </trkpt>
      <trkpt lat="46.27396" lon="6.56345">
        <ele>1275.5</ele>
        <time>2023-01-21T10:38:24.000Z</time>
      </trkpt>
      <trkpt lat="46.27395" lon="6.56346">
        <ele>1275.7</ele>
        <time>2023-01-21T10:38:25.000Z</time>
      </trkpt>
      <trkpt lat="46.27395" lon="6.56347">
        <ele>1276</ele>
        <time>2023-01-21T10:38:26.000Z</time>
      </trkpt>
      <trkpt lat="46.27395" lon="6.56348">
        <ele>1276.4</ele>
        <time>2023-01-21T10:38:27.000Z</time>
      </trkpt>
      <trkpt lat="46.27395" lon="6.56348">
        <ele>1276.6</ele>
        <time>2023-01-21T10:38:28.000Z</time>
      </trkpt>
      <trkpt lat="46.27395" lon="6.56349">
        <ele>1276.7</ele>
        <time>2023-01-21T10:38:29.000Z</time>
      </trkpt>
      <trkpt lat="46.27396" lon="6.5635">
        <ele>1276.8</ele>
        <time>2023-01-21T10:38:30.000Z</time>
      </trkpt>
      <trkpt lat="46.27397" lon="6.5635">
        <ele>1276.9</ele>
        <time>2023-01-21T10:38:31.000Z</time>
      </trkpt>
      <trkpt lat="46.27397" lon="6.5635">
        <ele>1277.2</ele>
        <time>2023-01-21T10:38:32.000Z</time>
      </trkpt>
      <trkpt lat="46.27397" lon="6.56351">
        <ele>1277.2</ele>
        <time>2023-01-21T10:38:33.000Z</time>
      </trkpt>
      <trkpt lat="46.27397" lon="6.56351">
        <ele>1277.2</ele>
        <time>2023-01-21T10:38:34.000Z</time>
      </trkpt>
      <trkpt lat="46.27397" lon="6.56352">
        <ele>1277.2</ele>
        <time>2023-01-21T10:38:35.000Z</time>
      </trkpt>
      <trkpt lat="46.27397" lon="6.56352">
        <ele>1277.2</ele>
        <time>2023-01-21T10:38:36.000Z</time>
      </trkpt>
      <trkpt lat="46.27397" lon="6.56353">
        <ele>1277.3</ele>
        <time>2023-01-21T10:38:37.000Z</time>
      </trkpt>
      <trkpt lat="46.27398" lon="6.56354">
        <ele>1277.3</ele>
        <time>2023-01-21T10:38:38.000Z</time>
      </trkpt>
      <trkpt lat="46.27398" lon="6.56355">
        <ele>1277.3</ele>
        <time>2023-01-21T10:38:39.000Z</time>
      </trkpt>
      <trkpt lat="46.27398" lon="6.56355">
        <ele>1277.4</ele>
        <time>2023-01-21T10:38:40.000Z</time>
      </trkpt>
      <trkpt lat="46.27399" lon="6.56356">
        <ele>1277.3</ele>
        <time>2023-01-21T10:38:41.000Z</time>
      </trkpt>
      <trkpt lat="46.27399" lon="6.56357">
        <ele>1277.4</ele>
        <time>2023-01-21T10:38:42.000Z</time>
      </trkpt>
      <trkpt lat="46.27399" lon="6.56357">
        <ele>1277.8</ele>
        <time>2023-01-21T10:38:43.000Z</time>
      </trkpt>
      <trkpt lat="46.274" lon="6.56357">
        <ele>1278</ele>
        <time>2023-01-21T10:38:44.000Z</time>
      </trkpt>
      <trkpt lat="46.274" lon="6.56356">
        <ele>1278.5</ele>
        <time>2023-01-21T10:38:45.000Z</time>
      </trkpt>
      <trkpt lat="46.274" lon="6.56357">
        <ele>1278.6</ele>
        <time>2023-01-21T10:38:46.000Z</time>
      </trkpt>
      <trkpt lat="46.274" lon="6.56357">
        <ele>1278.9</ele>
        <time>2023-01-21T10:38:47.000Z</time>
      </trkpt>
      <trkpt lat="46.27399" lon="6.56357">
        <ele>1279.4</ele>
        <time>2023-01-21T10:38:48.000Z</time>
      </trkpt>
      <trkpt lat="46.27399" lon="6.56357">
        <ele>1279.4</ele>
        <time>2023-01-21T10:38:49.000Z</time>
      </trkpt>
      <trkpt lat="46.274" lon="6.56356">
        <ele>1279.4</ele>
        <time>2023-01-21T10:38:50.000Z</time>
      </trkpt>
      <trkpt lat="46.274" lon="6.56356">
        <ele>1279.4</ele>
        <time>2023-01-21T10:38:51.000Z</time>
      </trkpt>
      <trkpt lat="46.274" lon="6.56356">
        <ele>1279.4</ele>
        <time>2023-01-21T10:38:52.000Z</time>
      </trkpt>
      <trkpt lat="46.274" lon="6.56356">
        <ele>1279.4</ele>
        <time>2023-01-21T10:38:53.000Z</time>
      </trkpt>
      <trkpt lat="46.274" lon="6.56356">
        <ele>1279.4</ele>
        <time>2023-01-21T10:38:54.000Z</time>
      </trkpt>
      <trkpt lat="46.27401" lon="6.56353">
        <ele>1279.2</ele>
        <time>2023-01-21T10:38:55.000Z</time>
      </trkpt>
      <trkpt lat="46.27401" lon="6.56354">
        <ele>1279.4</ele>
        <time>2023-01-21T10:38:56.000Z</time>
      </trkpt>
      <trkpt lat="46.27402" lon="6.56354">
        <ele>1279.5</ele>
        <time>2023-01-21T10:38:57.000Z</time>
      </trkpt>
      <trkpt lat="46.27402" lon="6.56354">
        <ele>1279.8</ele>
        <time>2023-01-21T10:38:58.000Z</time>
      </trkpt>
      <trkpt lat="46.27402" lon="6.56354">
        <ele>1279.9</ele>
        <time>2023-01-21T10:38:59.000Z</time>
      </trkpt>
      <trkpt lat="46.27403" lon="6.56355">
        <ele>1280.1</ele>
        <time>2023-01-21T10:39:00.000Z</time>
      </trkpt>
      <trkpt lat="46.27403" lon="6.56355">
        <ele>1280</ele>
        <time>2023-01-21T10:39:01.000Z</time>
      </trkpt>
      <trkpt lat="46.27403" lon="6.56354">
        <ele>1280.3</ele>
        <time>2023-01-21T10:39:02.000Z</time>
      </trkpt>
      <trkpt lat="46.27403" lon="6.56354">
        <ele>1280.5</ele>
        <time>2023-01-21T10:39:03.000Z</time>
      </trkpt>
      <trkpt lat="46.27404" lon="6.56353">
        <ele>1280.8</ele>
        <time>2023-01-21T10:39:04.000Z</time>
      </trkpt>
      <trkpt lat="46.27404" lon="6.56353">
        <ele>1280.8</ele>
        <time>2023-01-21T10:39:05.000Z</time>
      </trkpt>
      <trkpt lat="46.27405" lon="6.56352">
        <ele>1280.7</ele>
        <time>2023-01-21T10:39:06.000Z</time>
      </trkpt>
      <trkpt lat="46.27406" lon="6.56351">
        <ele>1281</ele>
        <time>2023-01-21T10:39:07.000Z</time>
      </trkpt>
      <trkpt lat="46.27407" lon="6.5635">
        <ele>1280.9</ele>
        <time>2023-01-21T10:39:08.000Z</time>
      </trkpt>
      <trkpt lat="46.27408" lon="6.5635">
        <ele>1281.2</ele>
        <time>2023-01-21T10:39:09.000Z</time>
      </trkpt>
      <trkpt lat="46.27408" lon="6.56349">
        <ele>1281.2</ele>
        <time>2023-01-21T10:39:10.000Z</time>
      </trkpt>
      <trkpt lat="46.27409" lon="6.5635">
        <ele>1281.5</ele>
        <time>2023-01-21T10:39:11.000Z</time>
      </trkpt>
      <trkpt lat="46.27409" lon="6.56349">
        <ele>1281.5</ele>
        <time>2023-01-21T10:39:12.000Z</time>
      </trkpt>
      <trkpt lat="46.27409" lon="6.56349">
        <ele>1281.8</ele>
        <time>2023-01-21T10:39:13.000Z</time>
      </trkpt>
      <trkpt lat="46.2741" lon="6.56348">
        <ele>1282.2</ele>
        <time>2023-01-21T10:39:14.000Z</time>
      </trkpt>
      <trkpt lat="46.2741" lon="6.56347">
        <ele>1282.4</ele>
        <time>2023-01-21T10:39:15.000Z</time>
      </trkpt>
      <trkpt lat="46.2741" lon="6.56347">
        <ele>1282.6</ele>
        <time>2023-01-21T10:39:16.000Z</time>
      </trkpt>
      <trkpt lat="46.2741" lon="6.56347">
        <ele>1282.9</ele>
        <time>2023-01-21T10:39:17.000Z</time>
      </trkpt>
      <trkpt lat="46.2741" lon="6.56347">
        <ele>1283.2</ele>
        <time>2023-01-21T10:39:18.000Z</time>
      </trkpt>
      <trkpt lat="46.2741" lon="6.56346">
        <ele>1283.4</ele>
        <time>2023-01-21T10:39:19.000Z</time>
      </trkpt>
      <trkpt lat="46.27411" lon="6.56346">
        <ele>1283.7</ele>
        <time>2023-01-21T10:39:20.000Z</time>
      </trkpt>
      <trkpt lat="46.27411" lon="6.56345">
        <ele>1284</ele>
        <time>2023-01-21T10:39:21.000Z</time>
      </trkpt>
      <trkpt lat="46.27411" lon="6.56344">
        <ele>1284.2</ele>
        <time>2023-01-21T10:39:22.000Z</time>
      </trkpt>
      <trkpt lat="46.27411" lon="6.56343">
        <ele>1284.5</ele>
        <time>2023-01-21T10:39:23.000Z</time>
      </trkpt>
      <trkpt lat="46.27412" lon="6.56343">
        <ele>1284.6</ele>
        <time>2023-01-21T10:39:24.000Z</time>
      </trkpt>
      <trkpt lat="46.27413" lon="6.56342">
        <ele>1284.9</ele>
        <time>2023-01-21T10:39:25.000Z</time>
      </trkpt>
      <trkpt lat="46.27413" lon="6.56341">
        <ele>1285</ele>
        <time>2023-01-21T10:39:26.000Z</time>
      </trkpt>
      <trkpt lat="46.27413" lon="6.56341">
        <ele>1285.1</ele>
        <time>2023-01-21T10:39:27.000Z</time>
      </trkpt>
      <trkpt lat="46.27414" lon="6.5634">
        <ele>1285.2</ele>
        <time>2023-01-21T10:39:28.000Z</time>
      </trkpt>
      <trkpt lat="46.27414" lon="6.56339">
        <ele>1285.5</ele>
        <time>2023-01-21T10:39:29.000Z</time>
      </trkpt>
      <trkpt lat="46.27415" lon="6.56339">
        <ele>1285.6</ele>
        <time>2023-01-21T10:39:30.000Z</time>
      </trkpt>
      <trkpt lat="46.27415" lon="6.56339">
        <ele>1285.8</ele>
        <time>2023-01-21T10:39:31.000Z</time>
      </trkpt>
      <trkpt lat="46.27415" lon="6.56338">
        <ele>1285.8</ele>
        <time>2023-01-21T10:39:32.000Z</time>
      </trkpt>
      <trkpt lat="46.27415" lon="6.56338">
        <ele>1286</ele>
        <time>2023-01-21T10:39:33.000Z</time>
      </trkpt>
      <trkpt lat="46.27416" lon="6.56338">
        <ele>1286.1</ele>
        <time>2023-01-21T10:39:34.000Z</time>
      </trkpt>
      <trkpt lat="46.27416" lon="6.56338">
        <ele>1286.2</ele>
        <time>2023-01-21T10:39:35.000Z</time>
      </trkpt>
      <trkpt lat="46.27416" lon="6.56338">
        <ele>1286.3</ele>
        <time>2023-01-21T10:39:36.000Z</time>
      </trkpt>
      <trkpt lat="46.27416" lon="6.56337">
        <ele>1286.7</ele>
        <time>2023-01-21T10:39:37.000Z</time>
      </trkpt>
      <trkpt lat="46.27416" lon="6.56336">
        <ele>1287.3</ele>
        <time>2023-01-21T10:39:38.000Z</time>
      </trkpt>
      <trkpt lat="46.27416" lon="6.56335">
        <ele>1287.4</ele>
        <time>2023-01-21T10:39:39.000Z</time>
      </trkpt>
      <trkpt lat="46.27416" lon="6.56334">
        <ele>1287.7</ele>
        <time>2023-01-21T10:39:40.000Z</time>
      </trkpt>
      <trkpt lat="46.27417" lon="6.56334">
        <ele>1287.8</ele>
        <time>2023-01-21T10:39:41.000Z</time>
      </trkpt>
      <trkpt lat="46.27418" lon="6.56333">
        <ele>1288.2</ele>
        <time>2023-01-21T10:39:42.000Z</time>
      </trkpt>
      <trkpt lat="46.27419" lon="6.56333">
        <ele>1288.4</ele>
        <time>2023-01-21T10:39:43.000Z</time>
      </trkpt>
      <trkpt lat="46.27419" lon="6.56333">
        <ele>1288.6</ele>
        <time>2023-01-21T10:39:44.000Z</time>
      </trkpt>
      <trkpt lat="46.27419" lon="6.56333">
        <ele>1288.7</ele>
        <time>2023-01-21T10:39:45.000Z</time>
      </trkpt>
      <trkpt lat="46.2742" lon="6.56333">
        <ele>1289</ele>
        <time>2023-01-21T10:39:46.000Z</time>
      </trkpt>
      <trkpt lat="46.2742" lon="6.56333">
        <ele>1289.3</ele>
        <time>2023-01-21T10:39:47.000Z</time>
      </trkpt>
      <trkpt lat="46.27421" lon="6.56333">
        <ele>1289.6</ele>
        <time>2023-01-21T10:39:48.000Z</time>
      </trkpt>
      <trkpt lat="46.27421" lon="6.56333">
        <ele>1289.8</ele>
        <time>2023-01-21T10:39:49.000Z</time>
      </trkpt>
      <trkpt lat="46.27421" lon="6.56333">
        <ele>1289.9</ele>
        <time>2023-01-21T10:39:50.000Z</time>
      </trkpt>
      <trkpt lat="46.27422" lon="6.56333">
        <ele>1290.3</ele>
        <time>2023-01-21T10:39:51.000Z</time>
      </trkpt>
      <trkpt lat="46.27422" lon="6.56333">
        <ele>1290.6</ele>
        <time>2023-01-21T10:39:52.000Z</time>
      </trkpt>
      <trkpt lat="46.27422" lon="6.56333">
        <ele>1290.8</ele>
        <time>2023-01-21T10:39:53.000Z</time>
      </trkpt>
      <trkpt lat="46.27423" lon="6.56333">
        <ele>1291.1</ele>
        <time>2023-01-21T10:39:54.000Z</time>
      </trkpt>
      <trkpt lat="46.27423" lon="6.56332">
        <ele>1291.4</ele>
        <time>2023-01-21T10:39:55.000Z</time>
      </trkpt>
      <trkpt lat="46.27423" lon="6.56332">
        <ele>1291.4</ele>
        <time>2023-01-21T10:39:56.000Z</time>
      </trkpt>
      <trkpt lat="46.27424" lon="6.56331">
        <ele>1291.6</ele>
        <time>2023-01-21T10:39:57.000Z</time>
      </trkpt>
      <trkpt lat="46.27424" lon="6.56331">
        <ele>1291.7</ele>
        <time>2023-01-21T10:39:58.000Z</time>
      </trkpt>
      <trkpt lat="46.27424" lon="6.5633">
        <ele>1291.6</ele>
        <time>2023-01-21T10:39:59.000Z</time>
      </trkpt>
      <trkpt lat="46.27424" lon="6.5633">
        <ele>1291.6</ele>
        <time>2023-01-21T10:40:00.000Z</time>
      </trkpt>
      <trkpt lat="46.27425" lon="6.5633">
        <ele>1291.6</ele>
        <time>2023-01-21T10:40:01.000Z</time>
      </trkpt>
      <trkpt lat="46.27425" lon="6.5633">
        <ele>1291.6</ele>
        <time>2023-01-21T10:40:02.000Z</time>
      </trkpt>
      <trkpt lat="46.27426" lon="6.56329">
        <ele>1291.7</ele>
        <time>2023-01-21T10:40:03.000Z</time>
      </trkpt>
      <trkpt lat="46.27426" lon="6.5633">
        <ele>1291.7</ele>
        <time>2023-01-21T10:40:04.000Z</time>
      </trkpt>
      <trkpt lat="46.27426" lon="6.5633">
        <ele>1291.7</ele>
        <time>2023-01-21T10:40:05.000Z</time>
      </trkpt>
      <trkpt lat="46.27426" lon="6.5633">
        <ele>1291.7</ele>
        <time>2023-01-21T10:40:06.000Z</time>
      </trkpt>
      <trkpt lat="46.27426" lon="6.5633">
        <ele>1291.7</ele>
        <time>2023-01-21T10:40:07.000Z</time>
      </trkpt>
      <trkpt lat="46.27426" lon="6.5633">
        <ele>1291.7</ele>
        <time>2023-01-21T10:40:08.000Z</time>
      </trkpt>
      <trkpt lat="46.27426" lon="6.5633">
        <ele>1291.7</ele>
        <time>2023-01-21T10:40:09.000Z</time>
      </trkpt>
      <trkpt lat="46.27426" lon="6.5633">
        <ele>1291.7</ele>
        <time>2023-01-21T10:40:10.000Z</time>
      </trkpt>
      <trkpt lat="46.27426" lon="6.56329">
        <ele>1292.8</ele>
        <time>2023-01-21T10:40:11.000Z</time>
      </trkpt>
      <trkpt lat="46.27428" lon="6.56329">
        <ele>1293.1</ele>
        <time>2023-01-21T10:40:12.000Z</time>
      </trkpt>
      <trkpt lat="46.27428" lon="6.56329">
        <ele>1293.2</ele>
        <time>2023-01-21T10:40:13.000Z</time>
      </trkpt>
      <trkpt lat="46.2743" lon="6.56328">
        <ele>1293.6</ele>
        <time>2023-01-21T10:40:14.000Z</time>
      </trkpt>
      <trkpt lat="46.2743" lon="6.56327">
        <ele>1293.7</ele>
        <time>2023-01-21T10:40:15.000Z</time>
      </trkpt>
      <trkpt lat="46.27431" lon="6.56327">
        <ele>1293.8</ele>
        <time>2023-01-21T10:40:16.000Z</time>
      </trkpt>
      <trkpt lat="46.27432" lon="6.56327">
        <ele>1294</ele>
        <time>2023-01-21T10:40:17.000Z</time>
      </trkpt>
      <trkpt lat="46.27433" lon="6.56327">
        <ele>1294.1</ele>
        <time>2023-01-21T10:40:18.000Z</time>
      </trkpt>
      <trkpt lat="46.27433" lon="6.56327">
        <ele>1294.5</ele>
        <time>2023-01-21T10:40:19.000Z</time>
      </trkpt>
      <trkpt lat="46.27434" lon="6.56327">
        <ele>1294.8</ele>
        <time>2023-01-21T10:40:20.000Z</time>
      </trkpt>
      <trkpt lat="46.27434" lon="6.56327">
        <ele>1295.1</ele>
        <time>2023-01-21T10:40:21.000Z</time>
      </trkpt>
      <trkpt lat="46.27434" lon="6.56327">
        <ele>1295.4</ele>
        <time>2023-01-21T10:40:22.000Z</time>
      </trkpt>
      <trkpt lat="46.27435" lon="6.56326">
        <ele>1295.6</ele>
        <time>2023-01-21T10:40:23.000Z</time>
      </trkpt>
      <trkpt lat="46.27435" lon="6.56326">
        <ele>1295.9</ele>
        <time>2023-01-21T10:40:24.000Z</time>
      </trkpt>
      <trkpt lat="46.27435" lon="6.56327">
        <ele>1296.1</ele>
        <time>2023-01-21T10:40:25.000Z</time>
      </trkpt>
      <trkpt lat="46.27435" lon="6.56328">
        <ele>1296.3</ele>
        <time>2023-01-21T10:40:26.000Z</time>
      </trkpt>
      <trkpt lat="46.27436" lon="6.56328">
        <ele>1296.4</ele>
        <time>2023-01-21T10:40:27.000Z</time>
      </trkpt>
      <trkpt lat="46.27436" lon="6.56329">
        <ele>1296.5</ele>
        <time>2023-01-21T10:40:28.000Z</time>
      </trkpt>
      <trkpt lat="46.27436" lon="6.56329">
        <ele>1296.5</ele>
        <time>2023-01-21T10:40:29.000Z</time>
      </trkpt>
      <trkpt lat="46.27436" lon="6.56329">
        <ele>1296.4</ele>
        <time>2023-01-21T10:40:30.000Z</time>
      </trkpt>
      <trkpt lat="46.27436" lon="6.56329">
        <ele>1296.4</ele>
        <time>2023-01-21T10:40:31.000Z</time>
      </trkpt>
      <trkpt lat="46.27436" lon="6.56329">
        <ele>1296.4</ele>
        <time>2023-01-21T10:40:32.000Z</time>
      </trkpt>
      <trkpt lat="46.27436" lon="6.56329">
        <ele>1296.4</ele>
        <time>2023-01-21T10:40:33.000Z</time>
      </trkpt>
      <trkpt lat="46.27436" lon="6.56329">
        <ele>1296.4</ele>
        <time>2023-01-21T10:40:34.000Z</time>
      </trkpt>
      <trkpt lat="46.27436" lon="6.56329">
        <ele>1296.4</ele>
        <time>2023-01-21T10:40:35.000Z</time>
      </trkpt>
      <trkpt lat="46.27436" lon="6.56329">
        <ele>1296.4</ele>
        <time>2023-01-21T10:40:36.000Z</time>
      </trkpt>
      <trkpt lat="46.27436" lon="6.56329">
        <ele>1296.4</ele>
        <time>2023-01-21T10:40:37.000Z</time>
      </trkpt>
      <trkpt lat="46.27436" lon="6.56329">
        <ele>1296.4</ele>
        <time>2023-01-21T10:40:38.000Z</time>
      </trkpt>
      <trkpt lat="46.27436" lon="6.56329">
        <ele>1296.4</ele>
        <time>2023-01-21T10:40:39.000Z</time>
      </trkpt>
      <trkpt lat="46.27437" lon="6.56335">
        <ele>1298.5</ele>
        <time>2023-01-21T10:40:40.000Z</time>
      </trkpt>
      <trkpt lat="46.27438" lon="6.56335">
        <ele>1298.5</ele>
        <time>2023-01-21T10:40:41.000Z</time>
      </trkpt>
      <trkpt lat="46.27437" lon="6.56335">
        <ele>1298.8</ele>
        <time>2023-01-21T10:40:42.000Z</time>
      </trkpt>
      <trkpt lat="46.27437" lon="6.56336">
        <ele>1299</ele>
        <time>2023-01-21T10:40:43.000Z</time>
      </trkpt>
      <trkpt lat="46.27437" lon="6.56337">
        <ele>1299.3</ele>
        <time>2023-01-21T10:40:44.000Z</time>
      </trkpt>
      <trkpt lat="46.27437" lon="6.56338">
        <ele>1299.6</ele>
        <time>2023-01-21T10:40:45.000Z</time>
      </trkpt>
      <trkpt lat="46.27438" lon="6.56338">
        <ele>1299.6</ele>
        <time>2023-01-21T10:40:46.000Z</time>
      </trkpt>
      <trkpt lat="46.27438" lon="6.56339">
        <ele>1299.7</ele>
        <time>2023-01-21T10:40:47.000Z</time>
      </trkpt>
      <trkpt lat="46.27438" lon="6.5634">
        <ele>1299.7</ele>
        <time>2023-01-21T10:40:48.000Z</time>
      </trkpt>
      <trkpt lat="46.27439" lon="6.5634">
        <ele>1300</ele>
        <time>2023-01-21T10:40:49.000Z</time>
      </trkpt>
      <trkpt lat="46.27439" lon="6.5634">
        <ele>1300.3</ele>
        <time>2023-01-21T10:40:50.000Z</time>
      </trkpt>
      <trkpt lat="46.27439" lon="6.5634">
        <ele>1300.3</ele>
        <time>2023-01-21T10:40:51.000Z</time>
      </trkpt>
      <trkpt lat="46.27439" lon="6.5634">
        <ele>1300.3</ele>
        <time>2023-01-21T10:40:52.000Z</time>
      </trkpt>
      <trkpt lat="46.27439" lon="6.5634">
        <ele>1300.3</ele>
        <time>2023-01-21T10:40:53.000Z</time>
      </trkpt>
      <trkpt lat="46.27439" lon="6.5634">
        <ele>1300.3</ele>
        <time>2023-01-21T10:40:54.000Z</time>
      </trkpt>
      <trkpt lat="46.27439" lon="6.5634">
        <ele>1300.3</ele>
        <time>2023-01-21T10:40:55.000Z</time>
      </trkpt>
      <trkpt lat="46.27439" lon="6.5634">
        <ele>1300.3</ele>
        <time>2023-01-21T10:40:56.000Z</time>
      </trkpt>
      <trkpt lat="46.27439" lon="6.5634">
        <ele>1300.3</ele>
        <time>2023-01-21T10:40:57.000Z</time>
      </trkpt>
      <trkpt lat="46.27439" lon="6.5634">
        <ele>1300.3</ele>
        <time>2023-01-21T10:40:58.000Z</time>
      </trkpt>
      <trkpt lat="46.27439" lon="6.5634">
        <ele>1300.3</ele>
        <time>2023-01-21T10:40:59.000Z</time>
      </trkpt>
      <trkpt lat="46.27437" lon="6.56342">
        <ele>1300.3</ele>
        <time>2023-01-21T10:41:00.000Z</time>
      </trkpt>
      <trkpt lat="46.27437" lon="6.56342">
        <ele>1299.8</ele>
        <time>2023-01-21T10:41:01.000Z</time>
      </trkpt>
      <trkpt lat="46.27437" lon="6.56341">
        <ele>1299.3</ele>
        <time>2023-01-21T10:41:02.000Z</time>
      </trkpt>
      <trkpt lat="46.27437" lon="6.5634">
        <ele>1299.5</ele>
        <time>2023-01-21T10:41:03.000Z</time>
      </trkpt>
      <trkpt lat="46.27438" lon="6.56338">
        <ele>1299.9</ele>
        <time>2023-01-21T10:41:04.000Z</time>
      </trkpt>
      <trkpt lat="46.27438" lon="6.56338">
        <ele>1301</ele>
        <time>2023-01-21T10:41:05.000Z</time>
      </trkpt>
      <trkpt lat="46.27437" lon="6.56338">
        <ele>1301.5</ele>
        <time>2023-01-21T10:41:06.000Z</time>
      </trkpt>
      <trkpt lat="46.27437" lon="6.56338">
        <ele>1301.6</ele>
        <time>2023-01-21T10:41:07.000Z</time>
      </trkpt>
      <trkpt lat="46.27437" lon="6.56337">
        <ele>1301.8</ele>
        <time>2023-01-21T10:41:08.000Z</time>
      </trkpt>
      <trkpt lat="46.27438" lon="6.56338">
        <ele>1302</ele>
        <time>2023-01-21T10:41:09.000Z</time>
      </trkpt>
      <trkpt lat="46.27437" lon="6.56338">
        <ele>1302.4</ele>
        <time>2023-01-21T10:41:10.000Z</time>
      </trkpt>
      <trkpt lat="46.27437" lon="6.56338">
        <ele>1302.4</ele>
        <time>2023-01-21T10:41:11.000Z</time>
      </trkpt>
      <trkpt lat="46.27437" lon="6.56338">
        <ele>1301.8</ele>
        <time>2023-01-21T10:41:12.000Z</time>
      </trkpt>
      <trkpt lat="46.27437" lon="6.56337">
        <ele>1301.8</ele>
        <time>2023-01-21T10:41:13.000Z</time>
      </trkpt>
      <trkpt lat="46.27436" lon="6.56337">
        <ele>1301.3</ele>
        <time>2023-01-21T10:41:14.000Z</time>
      </trkpt>
      <trkpt lat="46.27436" lon="6.56337">
        <ele>1301.2</ele>
        <time>2023-01-21T10:41:15.000Z</time>
      </trkpt>
      <trkpt lat="46.27436" lon="6.56337">
        <ele>1301.2</ele>
        <time>2023-01-21T10:41:16.000Z</time>
      </trkpt>
      <trkpt lat="46.27436" lon="6.56337">
        <ele>1301.2</ele>
        <time>2023-01-21T10:41:17.000Z</time>
      </trkpt>
      <trkpt lat="46.27436" lon="6.56337">
        <ele>1301.2</ele>
        <time>2023-01-21T10:41:18.000Z</time>
      </trkpt>
      <trkpt lat="46.27436" lon="6.56337">
        <ele>1301.2</ele>
        <time>2023-01-21T10:41:19.000Z</time>
      </trkpt>
      <trkpt lat="46.27436" lon="6.56337">
        <ele>1301.2</ele>
        <time>2023-01-21T10:41:20.000Z</time>
      </trkpt>
      <trkpt lat="46.27436" lon="6.56337">
        <ele>1301.2</ele>
        <time>2023-01-21T10:41:21.000Z</time>
      </trkpt>
      <trkpt lat="46.27435" lon="6.56336">
        <ele>1301.8</ele>
        <time>2023-01-21T10:41:22.000Z</time>
      </trkpt>
      <trkpt lat="46.27434" lon="6.56336">
        <ele>1302.3</ele>
        <time>2023-01-21T10:41:23.000Z</time>
      </trkpt>
      <trkpt lat="46.27432" lon="6.56335">
        <ele>1303.1</ele>
        <time>2023-01-21T10:41:24.000Z</time>
      </trkpt>
      <trkpt lat="46.27431" lon="6.56334">
        <ele>1304.3</ele>
        <time>2023-01-21T10:41:25.000Z</time>
      </trkpt>
      <trkpt lat="46.2743" lon="6.56335">
        <ele>1305.8</ele>
        <time>2023-01-21T10:41:26.000Z</time>
      </trkpt>
      <trkpt lat="46.2743" lon="6.56336">
        <ele>1307.1</ele>
        <time>2023-01-21T10:41:27.000Z</time>
      </trkpt>
      <trkpt lat="46.27431" lon="6.56337">
        <ele>1308</ele>
        <time>2023-01-21T10:41:28.000Z</time>
      </trkpt>
      <trkpt lat="46.27431" lon="6.56338">
        <ele>1308.8</ele>
        <time>2023-01-21T10:41:29.000Z</time>
      </trkpt>
      <trkpt lat="46.27433" lon="6.56338">
        <ele>1308.6</ele>
        <time>2023-01-21T10:41:30.000Z</time>
      </trkpt>
      <trkpt lat="46.27435" lon="6.56339">
        <ele>1308.6</ele>
        <time>2023-01-21T10:41:31.000Z</time>
      </trkpt>
      <trkpt lat="46.27436" lon="6.5634">
        <ele>1307.8</ele>
        <time>2023-01-21T10:41:32.000Z</time>
      </trkpt>
      <trkpt lat="46.27439" lon="6.56338">
        <ele>1307.5</ele>
        <time>2023-01-21T10:41:33.000Z</time>
      </trkpt>
      <trkpt lat="46.2744" lon="6.56336">
        <ele>1306.1</ele>
        <time>2023-01-21T10:41:34.000Z</time>
      </trkpt>
      <trkpt lat="46.2744" lon="6.56338">
        <ele>1306.8</ele>
        <time>2023-01-21T10:41:35.000Z</time>
      </trkpt>
      <trkpt lat="46.2744" lon="6.56337">
        <ele>1307.5</ele>
        <time>2023-01-21T10:41:36.000Z</time>
      </trkpt>
      <trkpt lat="46.2744" lon="6.56338">
        <ele>1307.3</ele>
        <time>2023-01-21T10:41:37.000Z</time>
      </trkpt>
      <trkpt lat="46.27439" lon="6.56338">
        <ele>1307.6</ele>
        <time>2023-01-21T10:41:38.000Z</time>
      </trkpt>
      <trkpt lat="46.27439" lon="6.56338">
        <ele>1307.7</ele>
        <time>2023-01-21T10:41:39.000Z</time>
      </trkpt>
      <trkpt lat="46.27438" lon="6.56339">
        <ele>1307.6</ele>
        <time>2023-01-21T10:41:40.000Z</time>
      </trkpt>
      <trkpt lat="46.27437" lon="6.56339">
        <ele>1307.4</ele>
        <time>2023-01-21T10:41:41.000Z</time>
      </trkpt>
      <trkpt lat="46.27437" lon="6.56338">
        <ele>1307.9</ele>
        <time>2023-01-21T10:41:42.000Z</time>
      </trkpt>
      <trkpt lat="46.27437" lon="6.56338">
        <ele>1307.7</ele>
        <time>2023-01-21T10:41:43.000Z</time>
      </trkpt>
      <trkpt lat="46.27436" lon="6.56338">
        <ele>1307.8</ele>
        <time>2023-01-21T10:41:44.000Z</time>
      </trkpt>
      <trkpt lat="46.27437" lon="6.56338">
        <ele>1306.8</ele>
        <time>2023-01-21T10:41:45.000Z</time>
      </trkpt>
      <trkpt lat="46.27437" lon="6.56338">
        <ele>1306.6</ele>
        <time>2023-01-21T10:41:46.000Z</time>
      </trkpt>
      <trkpt lat="46.27436" lon="6.56338">
        <ele>1305.9</ele>
        <time>2023-01-21T10:41:47.000Z</time>
      </trkpt>
      <trkpt lat="46.27434" lon="6.5634">
        <ele>1306.2</ele>
        <time>2023-01-21T10:41:48.000Z</time>
      </trkpt>
      <trkpt lat="46.27434" lon="6.56339">
        <ele>1306.4</ele>
        <time>2023-01-21T10:41:49.000Z</time>
      </trkpt>
      <trkpt lat="46.27435" lon="6.5634">
        <ele>1306.8</ele>
        <time>2023-01-21T10:41:50.000Z</time>
      </trkpt>
      <trkpt lat="46.27437" lon="6.56341">
        <ele>1307.9</ele>
        <time>2023-01-21T10:41:51.000Z</time>
      </trkpt>
      <trkpt lat="46.27437" lon="6.56341">
        <ele>1310</ele>
        <time>2023-01-21T10:41:52.000Z</time>
      </trkpt>
      <trkpt lat="46.27436" lon="6.56339">
        <ele>1309.6</ele>
        <time>2023-01-21T10:41:53.000Z</time>
      </trkpt>
      <trkpt lat="46.27437" lon="6.5634">
        <ele>1309.1</ele>
        <time>2023-01-21T10:41:54.000Z</time>
      </trkpt>
      <trkpt lat="46.27435" lon="6.56343">
        <ele>1308.6</ele>
        <time>2023-01-21T10:41:55.000Z</time>
      </trkpt>
      <trkpt lat="46.27433" lon="6.56346">
        <ele>1309.3</ele>
        <time>2023-01-21T10:41:56.000Z</time>
      </trkpt>
      <trkpt lat="46.27433" lon="6.56346">
        <ele>1308.7</ele>
        <time>2023-01-21T10:41:57.000Z</time>
      </trkpt>
      <trkpt lat="46.27433" lon="6.56345">
        <ele>1308.1</ele>
        <time>2023-01-21T10:41:58.000Z</time>
      </trkpt>
      <trkpt lat="46.27433" lon="6.56345">
        <ele>1306.2</ele>
        <time>2023-01-21T10:41:59.000Z</time>
      </trkpt>
      <trkpt lat="46.27433" lon="6.56346">
        <ele>1306</ele>
        <time>2023-01-21T10:42:00.000Z</time>
      </trkpt>
      <trkpt lat="46.27433" lon="6.56346">
        <ele>1306</ele>
        <time>2023-01-21T10:42:01.000Z</time>
      </trkpt>
      <trkpt lat="46.27433" lon="6.56346">
        <ele>1306.3</ele>
        <time>2023-01-21T10:42:02.000Z</time>
      </trkpt>
      <trkpt lat="46.27433" lon="6.56346">
        <ele>1306.6</ele>
        <time>2023-01-21T10:42:03.000Z</time>
      </trkpt>
      <trkpt lat="46.27432" lon="6.56346">
        <ele>1306.8</ele>
        <time>2023-01-21T10:42:04.000Z</time>
      </trkpt>
      <trkpt lat="46.27431" lon="6.56346">
        <ele>1306.5</ele>
        <time>2023-01-21T10:42:05.000Z</time>
      </trkpt>
      <trkpt lat="46.27431" lon="6.56347">
        <ele>1306.4</ele>
        <time>2023-01-21T10:42:06.000Z</time>
      </trkpt>
      <trkpt lat="46.27431" lon="6.56346">
        <ele>1305.7</ele>
        <time>2023-01-21T10:42:07.000Z</time>
      </trkpt>
      <trkpt lat="46.27431" lon="6.56346">
        <ele>1305.6</ele>
        <time>2023-01-21T10:42:08.000Z</time>
      </trkpt>
      <trkpt lat="46.27431" lon="6.56345">
        <ele>1304</ele>
        <time>2023-01-21T10:42:09.000Z</time>
      </trkpt>
      <trkpt lat="46.27429" lon="6.56345">
        <ele>1303.9</ele>
        <time>2023-01-21T10:42:10.000Z</time>
      </trkpt>
      <trkpt lat="46.2743" lon="6.56342">
        <ele>1303.5</ele>
        <time>2023-01-21T10:42:11.000Z</time>
      </trkpt>
      <trkpt lat="46.27432" lon="6.56338">
        <ele>1302.5</ele>
        <time>2023-01-21T10:42:12.000Z</time>
      </trkpt>
      <trkpt lat="46.27433" lon="6.56337">
        <ele>1303.1</ele>
        <time>2023-01-21T10:42:13.000Z</time>
      </trkpt>
      <trkpt lat="46.27433" lon="6.56336">
        <ele>1302.4</ele>
        <time>2023-01-21T10:42:14.000Z</time>
      </trkpt>
      <trkpt lat="46.27433" lon="6.56337">
        <ele>1301.9</ele>
        <time>2023-01-21T10:42:15.000Z</time>
      </trkpt>
      <trkpt lat="46.27433" lon="6.56337">
        <ele>1301.4</ele>
        <time>2023-01-21T10:42:16.000Z</time>
      </trkpt>
      <trkpt lat="46.27435" lon="6.56336">
        <ele>1302</ele>
        <time>2023-01-21T10:42:17.000Z</time>
      </trkpt>
      <trkpt lat="46.27435" lon="6.56335">
        <ele>1302.4</ele>
        <time>2023-01-21T10:42:18.000Z</time>
      </trkpt>
      <trkpt lat="46.27437" lon="6.56335">
        <ele>1301.8</ele>
        <time>2023-01-21T10:42:19.000Z</time>
      </trkpt>
      <trkpt lat="46.27438" lon="6.56334">
        <ele>1301.8</ele>
        <time>2023-01-21T10:42:20.000Z</time>
      </trkpt>
      <trkpt lat="46.27438" lon="6.56334">
        <ele>1301.9</ele>
        <time>2023-01-21T10:42:21.000Z</time>
      </trkpt>
      <trkpt lat="46.27438" lon="6.56334">
        <ele>1301.9</ele>
        <time>2023-01-21T10:42:22.000Z</time>
      </trkpt>
      <trkpt lat="46.27437" lon="6.56334">
        <ele>1302.3</ele>
        <time>2023-01-21T10:42:23.000Z</time>
      </trkpt>
      <trkpt lat="46.27437" lon="6.56335">
        <ele>1302.7</ele>
        <time>2023-01-21T10:42:24.000Z</time>
      </trkpt>
      <trkpt lat="46.27437" lon="6.56336">
        <ele>1303.4</ele>
        <time>2023-01-21T10:42:25.000Z</time>
      </trkpt>
      <trkpt lat="46.27437" lon="6.56336">
        <ele>1303.9</ele>
        <time>2023-01-21T10:42:26.000Z</time>
      </trkpt>
      <trkpt lat="46.27437" lon="6.56337">
        <ele>1304.1</ele>
        <time>2023-01-21T10:42:27.000Z</time>
      </trkpt>
      <trkpt lat="46.27437" lon="6.56337">
        <ele>1304</ele>
        <time>2023-01-21T10:42:28.000Z</time>
      </trkpt>
      <trkpt lat="46.27437" lon="6.56338">
        <ele>1303.8</ele>
        <time>2023-01-21T10:42:29.000Z</time>
      </trkpt>
      <trkpt lat="46.27437" lon="6.56338">
        <ele>1304</ele>
        <time>2023-01-21T10:42:30.000Z</time>
      </trkpt>
      <trkpt lat="46.27437" lon="6.56338">
        <ele>1304</ele>
        <time>2023-01-21T10:42:31.000Z</time>
      </trkpt>
      <trkpt lat="46.27437" lon="6.56338">
        <ele>1304</ele>
        <time>2023-01-21T10:42:32.000Z</time>
      </trkpt>
      <trkpt lat="46.27437" lon="6.56337">
        <ele>1304.5</ele>
        <time>2023-01-21T10:42:33.000Z</time>
      </trkpt>
      <trkpt lat="46.27437" lon="6.56337">
        <ele>1304.2</ele>
        <time>2023-01-21T10:42:34.000Z</time>
      </trkpt>
      <trkpt lat="46.27438" lon="6.56337">
        <ele>1303.4</ele>
        <time>2023-01-21T10:42:35.000Z</time>
      </trkpt>
      <trkpt lat="46.27438" lon="6.56337">
        <ele>1303.4</ele>
        <time>2023-01-21T10:42:36.000Z</time>
      </trkpt>
      <trkpt lat="46.27438" lon="6.56337">
        <ele>1303.4</ele>
        <time>2023-01-21T10:42:37.000Z</time>
      </trkpt>
      <trkpt lat="46.27438" lon="6.56337">
        <ele>1303.4</ele>
        <time>2023-01-21T10:42:38.000Z</time>
      </trkpt>
      <trkpt lat="46.27438" lon="6.56337">
        <ele>1303.4</ele>
        <time>2023-01-21T10:42:39.000Z</time>
      </trkpt>
      <trkpt lat="46.27438" lon="6.56337">
        <ele>1303.4</ele>
        <time>2023-01-21T10:42:40.000Z</time>
      </trkpt>
      <trkpt lat="46.27438" lon="6.56337">
        <ele>1303.4</ele>
        <time>2023-01-21T10:42:41.000Z</time>
      </trkpt>
      <trkpt lat="46.27438" lon="6.56337">
        <ele>1303.4</ele>
        <time>2023-01-21T10:42:42.000Z</time>
      </trkpt>
      <trkpt lat="46.27438" lon="6.56337">
        <ele>1303.4</ele>
        <time>2023-01-21T10:42:43.000Z</time>
      </trkpt>
      <trkpt lat="46.27438" lon="6.56337">
        <ele>1303.4</ele>
        <time>2023-01-21T10:42:44.000Z</time>
      </trkpt>
      <trkpt lat="46.27438" lon="6.56337">
        <ele>1303.4</ele>
        <time>2023-01-21T10:42:45.000Z</time>
      </trkpt>
      <trkpt lat="46.27436" lon="6.56337">
        <ele>1303</ele>
        <time>2023-01-21T10:42:46.000Z</time>
      </trkpt>
      <trkpt lat="46.27436" lon="6.56338">
        <ele>1302.4</ele>
        <time>2023-01-21T10:42:47.000Z</time>
      </trkpt>
      <trkpt lat="46.27436" lon="6.56338">
        <ele>1301.6</ele>
        <time>2023-01-21T10:42:48.000Z</time>
      </trkpt>
      <trkpt lat="46.27435" lon="6.56337">
        <ele>1301.4</ele>
        <time>2023-01-21T10:42:49.000Z</time>
      </trkpt>
      <trkpt lat="46.27435" lon="6.56338">
        <ele>1301.7</ele>
        <time>2023-01-21T10:42:50.000Z</time>
      </trkpt>
      <trkpt lat="46.27435" lon="6.56337">
        <ele>1301.8</ele>
        <time>2023-01-21T10:42:51.000Z</time>
      </trkpt>
      <trkpt lat="46.27436" lon="6.56337">
        <ele>1301.8</ele>
        <time>2023-01-21T10:42:52.000Z</time>
      </trkpt>
      <trkpt lat="46.27436" lon="6.56335">
        <ele>1302</ele>
        <time>2023-01-21T10:42:53.000Z</time>
      </trkpt>
      <trkpt lat="46.27435" lon="6.56333">
        <ele>1302</ele>
        <time>2023-01-21T10:42:54.000Z</time>
      </trkpt>
      <trkpt lat="46.27435" lon="6.56333">
        <ele>1302.2</ele>
        <time>2023-01-21T10:42:55.000Z</time>
      </trkpt>
      <trkpt lat="46.27436" lon="6.56326">
        <ele>1302.8</ele>
        <time>2023-01-21T10:42:56.000Z</time>
      </trkpt>
      <trkpt lat="46.27436" lon="6.56321">
        <ele>1302</ele>
        <time>2023-01-21T10:42:57.000Z</time>
      </trkpt>
      <trkpt lat="46.27435" lon="6.56321">
        <ele>1300.1</ele>
        <time>2023-01-21T10:42:58.000Z</time>
      </trkpt>
      <trkpt lat="46.27435" lon="6.56321">
        <ele>1298.8</ele>
        <time>2023-01-21T10:42:59.000Z</time>
      </trkpt>
      <trkpt lat="46.27436" lon="6.56323">
        <ele>1298.2</ele>
        <time>2023-01-21T10:43:00.000Z</time>
      </trkpt>
      <trkpt lat="46.27436" lon="6.56323">
        <ele>1298</ele>
        <time>2023-01-21T10:43:01.000Z</time>
      </trkpt>
      <trkpt lat="46.27437" lon="6.56324">
        <ele>1297.7</ele>
        <time>2023-01-21T10:43:02.000Z</time>
      </trkpt>
      <trkpt lat="46.27437" lon="6.56324">
        <ele>1297.4</ele>
        <time>2023-01-21T10:43:03.000Z</time>
      </trkpt>
      <trkpt lat="46.27437" lon="6.56324">
        <ele>1297.4</ele>
        <time>2023-01-21T10:43:04.000Z</time>
      </trkpt>
      <trkpt lat="46.27437" lon="6.56325">
        <ele>1297.1</ele>
        <time>2023-01-21T10:43:05.000Z</time>
      </trkpt>
      <trkpt lat="46.27437" lon="6.56325">
        <ele>1296.8</ele>
        <time>2023-01-21T10:43:06.000Z</time>
      </trkpt>
      <trkpt lat="46.27436" lon="6.56326">
        <ele>1296.8</ele>
        <time>2023-01-21T10:43:07.000Z</time>
      </trkpt>
      <trkpt lat="46.27435" lon="6.56326">
        <ele>1296.8</ele>
        <time>2023-01-21T10:43:08.000Z</time>
      </trkpt>
      <trkpt lat="46.27434" lon="6.56327">
        <ele>1296.7</ele>
        <time>2023-01-21T10:43:09.000Z</time>
      </trkpt>
      <trkpt lat="46.27434" lon="6.56327">
        <ele>1296.7</ele>
        <time>2023-01-21T10:43:10.000Z</time>
      </trkpt>
      <trkpt lat="46.27434" lon="6.56327">
        <ele>1296.7</ele>
        <time>2023-01-21T10:43:11.000Z</time>
      </trkpt>
      <trkpt lat="46.27434" lon="6.56327">
        <ele>1296.7</ele>
        <time>2023-01-21T10:43:12.000Z</time>
      </trkpt>
      <trkpt lat="46.27434" lon="6.56329">
        <ele>1296.9</ele>
        <time>2023-01-21T10:43:13.000Z</time>
      </trkpt>
      <trkpt lat="46.27435" lon="6.56329">
        <ele>1297</ele>
        <time>2023-01-21T10:43:14.000Z</time>
      </trkpt>
      <trkpt lat="46.27436" lon="6.56329">
        <ele>1297.6</ele>
        <time>2023-01-21T10:43:15.000Z</time>
      </trkpt>
      <trkpt lat="46.27436" lon="6.5633">
        <ele>1298.4</ele>
        <time>2023-01-21T10:43:16.000Z</time>
      </trkpt>
      <trkpt lat="46.27436" lon="6.5633">
        <ele>1298.4</ele>
        <time>2023-01-21T10:43:17.000Z</time>
      </trkpt>
      <trkpt lat="46.27436" lon="6.5633">
        <ele>1298.4</ele>
        <time>2023-01-21T10:43:18.000Z</time>
      </trkpt>
      <trkpt lat="46.27436" lon="6.5633">
        <ele>1298.4</ele>
        <time>2023-01-21T10:43:19.000Z</time>
      </trkpt>
      <trkpt lat="46.27436" lon="6.5633">
        <ele>1301.4</ele>
        <time>2023-01-21T10:43:20.000Z</time>
      </trkpt>
      <trkpt lat="46.27436" lon="6.5633">
        <ele>1301.4</ele>
        <time>2023-01-21T10:43:21.000Z</time>
      </trkpt>
      <trkpt lat="46.27436" lon="6.5633">
        <ele>1301.4</ele>
        <time>2023-01-21T10:43:22.000Z</time>
      </trkpt>
      <trkpt lat="46.27436" lon="6.5633">
        <ele>1301.4</ele>
        <time>2023-01-21T10:43:23.000Z</time>
      </trkpt>
      <trkpt lat="46.27436" lon="6.5633">
        <ele>1301.4</ele>
        <time>2023-01-21T10:43:24.000Z</time>
      </trkpt>
      <trkpt lat="46.27439" lon="6.56332">
        <ele>1302.2</ele>
        <time>2023-01-21T10:43:25.000Z</time>
      </trkpt>
      <trkpt lat="46.2744" lon="6.56332">
        <ele>1302.2</ele>
        <time>2023-01-21T10:43:26.000Z</time>
      </trkpt>
      <trkpt lat="46.27441" lon="6.56332">
        <ele>1302.2</ele>
        <time>2023-01-21T10:43:27.000Z</time>
      </trkpt>
      <trkpt lat="46.27441" lon="6.56333">
        <ele>1302</ele>
        <time>2023-01-21T10:43:28.000Z</time>
      </trkpt>
      <trkpt lat="46.27442" lon="6.56335">
        <ele>1301.9</ele>
        <time>2023-01-21T10:43:29.000Z</time>
      </trkpt>
      <trkpt lat="46.27442" lon="6.56336">
        <ele>1302.1</ele>
        <time>2023-01-21T10:43:30.000Z</time>
      </trkpt>
      <trkpt lat="46.27442" lon="6.56338">
        <ele>1301.8</ele>
        <time>2023-01-21T10:43:31.000Z</time>
      </trkpt>
      <trkpt lat="46.27441" lon="6.56339">
        <ele>1302.1</ele>
        <time>2023-01-21T10:43:32.000Z</time>
      </trkpt>
      <trkpt lat="46.27441" lon="6.5634">
        <ele>1302.3</ele>
        <time>2023-01-21T10:43:33.000Z</time>
      </trkpt>
      <trkpt lat="46.27441" lon="6.5634">
        <ele>1302.7</ele>
        <time>2023-01-21T10:43:34.000Z</time>
      </trkpt>
      <trkpt lat="46.27441" lon="6.5634">
        <ele>1303</ele>
        <time>2023-01-21T10:43:35.000Z</time>
      </trkpt>
      <trkpt lat="46.2744" lon="6.5634">
        <ele>1303.4</ele>
        <time>2023-01-21T10:43:36.000Z</time>
      </trkpt>
      <trkpt lat="46.2744" lon="6.5634">
        <ele>1303.9</ele>
        <time>2023-01-21T10:43:37.000Z</time>
      </trkpt>
      <trkpt lat="46.2744" lon="6.5634">
        <ele>1304.3</ele>
        <time>2023-01-21T10:43:38.000Z</time>
      </trkpt>
      <trkpt lat="46.2744" lon="6.5634">
        <ele>1304.7</ele>
        <time>2023-01-21T10:43:39.000Z</time>
      </trkpt>
      <trkpt lat="46.2744" lon="6.5634">
        <ele>1305</ele>
        <time>2023-01-21T10:43:40.000Z</time>
      </trkpt>
      <trkpt lat="46.2744" lon="6.56339">
        <ele>1305.4</ele>
        <time>2023-01-21T10:43:41.000Z</time>
      </trkpt>
      <trkpt lat="46.2744" lon="6.56339">
        <ele>1305.9</ele>
        <time>2023-01-21T10:43:42.000Z</time>
      </trkpt>
      <trkpt lat="46.27439" lon="6.5634">
        <ele>1305.6</ele>
        <time>2023-01-21T10:43:43.000Z</time>
      </trkpt>
      <trkpt lat="46.27439" lon="6.5634">
        <ele>1306.1</ele>
        <time>2023-01-21T10:43:44.000Z</time>
      </trkpt>
      <trkpt lat="46.27438" lon="6.56341">
        <ele>1306.4</ele>
        <time>2023-01-21T10:43:45.000Z</time>
      </trkpt>
      <trkpt lat="46.27437" lon="6.56341">
        <ele>1306.5</ele>
        <time>2023-01-21T10:43:46.000Z</time>
      </trkpt>
      <trkpt lat="46.27437" lon="6.56341">
        <ele>1306.3</ele>
        <time>2023-01-21T10:43:47.000Z</time>
      </trkpt>
      <trkpt lat="46.27437" lon="6.56342">
        <ele>1306.1</ele>
        <time>2023-01-21T10:43:48.000Z</time>
      </trkpt>
      <trkpt lat="46.27437" lon="6.56342">
        <ele>1306</ele>
        <time>2023-01-21T10:43:49.000Z</time>
      </trkpt>
      <trkpt lat="46.27437" lon="6.56341">
        <ele>1305.5</ele>
        <time>2023-01-21T10:43:50.000Z</time>
      </trkpt>
      <trkpt lat="46.27437" lon="6.56342">
        <ele>1305.4</ele>
        <time>2023-01-21T10:43:51.000Z</time>
      </trkpt>
      <trkpt lat="46.27437" lon="6.56342">
        <ele>1305.1</ele>
        <time>2023-01-21T10:43:52.000Z</time>
      </trkpt>
      <trkpt lat="46.27437" lon="6.56343">
        <ele>1305.1</ele>
        <time>2023-01-21T10:43:53.000Z</time>
      </trkpt>
      <trkpt lat="46.27437" lon="6.56344">
        <ele>1305</ele>
        <time>2023-01-21T10:43:54.000Z</time>
      </trkpt>
      <trkpt lat="46.27436" lon="6.56345">
        <ele>1305.1</ele>
        <time>2023-01-21T10:43:55.000Z</time>
      </trkpt>
      <trkpt lat="46.27436" lon="6.56347">
        <ele>1305.1</ele>
        <time>2023-01-21T10:43:56.000Z</time>
      </trkpt>
      <trkpt lat="46.27435" lon="6.56347">
        <ele>1305</ele>
        <time>2023-01-21T10:43:57.000Z</time>
      </trkpt>
      <trkpt lat="46.27435" lon="6.56348">
        <ele>1305</ele>
        <time>2023-01-21T10:43:58.000Z</time>
      </trkpt>
      <trkpt lat="46.27435" lon="6.56349">
        <ele>1305.2</ele>
        <time>2023-01-21T10:43:59.000Z</time>
      </trkpt>
      <trkpt lat="46.27435" lon="6.56349">
        <ele>1305.4</ele>
        <time>2023-01-21T10:44:00.000Z</time>
      </trkpt>
      <trkpt lat="46.27436" lon="6.56349">
        <ele>1305.9</ele>
        <time>2023-01-21T10:44:01.000Z</time>
      </trkpt>
      <trkpt lat="46.27436" lon="6.56349">
        <ele>1306.1</ele>
        <time>2023-01-21T10:44:02.000Z</time>
      </trkpt>
      <trkpt lat="46.27436" lon="6.56349">
        <ele>1306.3</ele>
        <time>2023-01-21T10:44:03.000Z</time>
      </trkpt>
      <trkpt lat="46.27437" lon="6.56348">
        <ele>1306.4</ele>
        <time>2023-01-21T10:44:04.000Z</time>
      </trkpt>
      <trkpt lat="46.27437" lon="6.56348">
        <ele>1306.2</ele>
        <time>2023-01-21T10:44:05.000Z</time>
      </trkpt>
      <trkpt lat="46.27437" lon="6.56348">
        <ele>1306.2</ele>
        <time>2023-01-21T10:44:06.000Z</time>
      </trkpt>
      <trkpt lat="46.27437" lon="6.56348">
        <ele>1306.2</ele>
        <time>2023-01-21T10:44:07.000Z</time>
      </trkpt>
      <trkpt lat="46.27437" lon="6.56348">
        <ele>1306.2</ele>
        <time>2023-01-21T10:44:08.000Z</time>
      </trkpt>
      <trkpt lat="46.27437" lon="6.56351">
        <ele>1306.6</ele>
        <time>2023-01-21T10:44:09.000Z</time>
      </trkpt>
      <trkpt lat="46.27437" lon="6.56351">
        <ele>1306.7</ele>
        <time>2023-01-21T10:44:10.000Z</time>
      </trkpt>
      <trkpt lat="46.27437" lon="6.56352">
        <ele>1306.8</ele>
        <time>2023-01-21T10:44:11.000Z</time>
      </trkpt>
      <trkpt lat="46.27438" lon="6.56352">
        <ele>1306.9</ele>
        <time>2023-01-21T10:44:12.000Z</time>
      </trkpt>
      <trkpt lat="46.27438" lon="6.56352">
        <ele>1306.9</ele>
        <time>2023-01-21T10:44:13.000Z</time>
      </trkpt>
      <trkpt lat="46.27438" lon="6.56352">
        <ele>1307</ele>
        <time>2023-01-21T10:44:14.000Z</time>
      </trkpt>
      <trkpt lat="46.27438" lon="6.56353">
        <ele>1307.1</ele>
        <time>2023-01-21T10:44:15.000Z</time>
      </trkpt>
      <trkpt lat="46.27437" lon="6.56354">
        <ele>1307.3</ele>
        <time>2023-01-21T10:44:16.000Z</time>
      </trkpt>
      <trkpt lat="46.27437" lon="6.56354">
        <ele>1307.4</ele>
        <time>2023-01-21T10:44:17.000Z</time>
      </trkpt>
      <trkpt lat="46.27437" lon="6.56355">
        <ele>1307.4</ele>
        <time>2023-01-21T10:44:18.000Z</time>
      </trkpt>
      <trkpt lat="46.27437" lon="6.56356">
        <ele>1307.5</ele>
        <time>2023-01-21T10:44:19.000Z</time>
      </trkpt>
      <trkpt lat="46.27438" lon="6.56357">
        <ele>1307.6</ele>
        <time>2023-01-21T10:44:20.000Z</time>
      </trkpt>
      <trkpt lat="46.27439" lon="6.56356">
        <ele>1307.8</ele>
        <time>2023-01-21T10:44:21.000Z</time>
      </trkpt>
      <trkpt lat="46.27439" lon="6.56356">
        <ele>1307.9</ele>
        <time>2023-01-21T10:44:22.000Z</time>
      </trkpt>
      <trkpt lat="46.27439" lon="6.56356">
        <ele>1308.1</ele>
        <time>2023-01-21T10:44:23.000Z</time>
      </trkpt>
      <trkpt lat="46.2744" lon="6.56356">
        <ele>1308.3</ele>
        <time>2023-01-21T10:44:24.000Z</time>
      </trkpt>
      <trkpt lat="46.27441" lon="6.56357">
        <ele>1308.5</ele>
        <time>2023-01-21T10:44:25.000Z</time>
      </trkpt>
      <trkpt lat="46.27441" lon="6.56357">
        <ele>1308.6</ele>
        <time>2023-01-21T10:44:26.000Z</time>
      </trkpt>
      <trkpt lat="46.27441" lon="6.56358">
        <ele>1308.6</ele>
        <time>2023-01-21T10:44:27.000Z</time>
      </trkpt>
      <trkpt lat="46.27442" lon="6.56358">
        <ele>1308.6</ele>
        <time>2023-01-21T10:44:28.000Z</time>
      </trkpt>
      <trkpt lat="46.27442" lon="6.56359">
        <ele>1308.7</ele>
        <time>2023-01-21T10:44:29.000Z</time>
      </trkpt>
      <trkpt lat="46.27443" lon="6.5636">
        <ele>1308.7</ele>
        <time>2023-01-21T10:44:30.000Z</time>
      </trkpt>
      <trkpt lat="46.27442" lon="6.5636">
        <ele>1308.8</ele>
        <time>2023-01-21T10:44:31.000Z</time>
      </trkpt>
      <trkpt lat="46.27443" lon="6.56361">
        <ele>1309</ele>
        <time>2023-01-21T10:44:32.000Z</time>
      </trkpt>
      <trkpt lat="46.27443" lon="6.56362">
        <ele>1309.3</ele>
        <time>2023-01-21T10:44:33.000Z</time>
      </trkpt>
      <trkpt lat="46.27443" lon="6.56362">
        <ele>1309.4</ele>
        <time>2023-01-21T10:44:34.000Z</time>
      </trkpt>
      <trkpt lat="46.27443" lon="6.56362">
        <ele>1309.4</ele>
        <time>2023-01-21T10:44:35.000Z</time>
      </trkpt>
      <trkpt lat="46.27443" lon="6.56363">
        <ele>1309.6</ele>
        <time>2023-01-21T10:44:36.000Z</time>
      </trkpt>
      <trkpt lat="46.27443" lon="6.56363">
        <ele>1309.6</ele>
        <time>2023-01-21T10:44:37.000Z</time>
      </trkpt>
      <trkpt lat="46.27443" lon="6.56363">
        <ele>1309.8</ele>
        <time>2023-01-21T10:44:38.000Z</time>
      </trkpt>
      <trkpt lat="46.27444" lon="6.56364">
        <ele>1309.8</ele>
        <time>2023-01-21T10:44:39.000Z</time>
      </trkpt>
      <trkpt lat="46.27444" lon="6.56365">
        <ele>1310</ele>
        <time>2023-01-21T10:44:40.000Z</time>
      </trkpt>
      <trkpt lat="46.27444" lon="6.56366">
        <ele>1309.9</ele>
        <time>2023-01-21T10:44:41.000Z</time>
      </trkpt>
      <trkpt lat="46.27444" lon="6.56367">
        <ele>1310.2</ele>
        <time>2023-01-21T10:44:42.000Z</time>
      </trkpt>
      <trkpt lat="46.27445" lon="6.56368">
        <ele>1310.4</ele>
        <time>2023-01-21T10:44:43.000Z</time>
      </trkpt>
      <trkpt lat="46.27445" lon="6.56368">
        <ele>1310.5</ele>
        <time>2023-01-21T10:44:44.000Z</time>
      </trkpt>
      <trkpt lat="46.27445" lon="6.56369">
        <ele>1310.6</ele>
        <time>2023-01-21T10:44:45.000Z</time>
      </trkpt>
      <trkpt lat="46.27446" lon="6.56369">
        <ele>1310.7</ele>
        <time>2023-01-21T10:44:46.000Z</time>
      </trkpt>
      <trkpt lat="46.27446" lon="6.5637">
        <ele>1310.8</ele>
        <time>2023-01-21T10:44:47.000Z</time>
      </trkpt>
      <trkpt lat="46.27446" lon="6.5637">
        <ele>1310.8</ele>
        <time>2023-01-21T10:44:48.000Z</time>
      </trkpt>
      <trkpt lat="46.27446" lon="6.56371">
        <ele>1310.8</ele>
        <time>2023-01-21T10:44:49.000Z</time>
      </trkpt>
      <trkpt lat="46.27446" lon="6.56372">
        <ele>1310.6</ele>
        <time>2023-01-21T10:44:50.000Z</time>
      </trkpt>
      <trkpt lat="46.27446" lon="6.56372">
        <ele>1310.5</ele>
        <time>2023-01-21T10:44:51.000Z</time>
      </trkpt>
      <trkpt lat="46.27446" lon="6.56372">
        <ele>1310.5</ele>
        <time>2023-01-21T10:44:52.000Z</time>
      </trkpt>
      <trkpt lat="46.27446" lon="6.56373">
        <ele>1310.5</ele>
        <time>2023-01-21T10:44:53.000Z</time>
      </trkpt>
      <trkpt lat="46.27446" lon="6.56373">
        <ele>1310.5</ele>
        <time>2023-01-21T10:44:54.000Z</time>
      </trkpt>
      <trkpt lat="46.27446" lon="6.56373">
        <ele>1310.6</ele>
        <time>2023-01-21T10:44:55.000Z</time>
      </trkpt>
      <trkpt lat="46.27446" lon="6.56374">
        <ele>1310.7</ele>
        <time>2023-01-21T10:44:56.000Z</time>
      </trkpt>
      <trkpt lat="46.27447" lon="6.56374">
        <ele>1310.9</ele>
        <time>2023-01-21T10:44:57.000Z</time>
      </trkpt>
      <trkpt lat="46.27448" lon="6.56373">
        <ele>1311.2</ele>
        <time>2023-01-21T10:44:58.000Z</time>
      </trkpt>
      <trkpt lat="46.27448" lon="6.56373">
        <ele>1311.4</ele>
        <time>2023-01-21T10:44:59.000Z</time>
      </trkpt>
      <trkpt lat="46.27449" lon="6.56374">
        <ele>1311.5</ele>
        <time>2023-01-21T10:45:00.000Z</time>
      </trkpt>
      <trkpt lat="46.27448" lon="6.56375">
        <ele>1311.6</ele>
        <time>2023-01-21T10:45:01.000Z</time>
      </trkpt>
      <trkpt lat="46.27449" lon="6.56376">
        <ele>1311.5</ele>
        <time>2023-01-21T10:45:02.000Z</time>
      </trkpt>
      <trkpt lat="46.27449" lon="6.56377">
        <ele>1311.6</ele>
        <time>2023-01-21T10:45:03.000Z</time>
      </trkpt>
      <trkpt lat="46.27448" lon="6.56377">
        <ele>1311.9</ele>
        <time>2023-01-21T10:45:04.000Z</time>
      </trkpt>
      <trkpt lat="46.27448" lon="6.56378">
        <ele>1311.9</ele>
        <time>2023-01-21T10:45:05.000Z</time>
      </trkpt>
      <trkpt lat="46.27449" lon="6.56379">
        <ele>1312</ele>
        <time>2023-01-21T10:45:06.000Z</time>
      </trkpt>
      <trkpt lat="46.27449" lon="6.5638">
        <ele>1312</ele>
        <time>2023-01-21T10:45:07.000Z</time>
      </trkpt>
      <trkpt lat="46.27449" lon="6.5638">
        <ele>1312</ele>
        <time>2023-01-21T10:45:08.000Z</time>
      </trkpt>
      <trkpt lat="46.27449" lon="6.56381">
        <ele>1312.2</ele>
        <time>2023-01-21T10:45:09.000Z</time>
      </trkpt>
      <trkpt lat="46.27449" lon="6.56382">
        <ele>1312.2</ele>
        <time>2023-01-21T10:45:10.000Z</time>
      </trkpt>
      <trkpt lat="46.27449" lon="6.56383">
        <ele>1312.2</ele>
        <time>2023-01-21T10:45:11.000Z</time>
      </trkpt>
      <trkpt lat="46.27449" lon="6.56384">
        <ele>1312.4</ele>
        <time>2023-01-21T10:45:12.000Z</time>
      </trkpt>
      <trkpt lat="46.27449" lon="6.56385">
        <ele>1312.6</ele>
        <time>2023-01-21T10:45:13.000Z</time>
      </trkpt>
      <trkpt lat="46.27449" lon="6.56385">
        <ele>1312.7</ele>
        <time>2023-01-21T10:45:14.000Z</time>
      </trkpt>
      <trkpt lat="46.2745" lon="6.56386">
        <ele>1313.2</ele>
        <time>2023-01-21T10:45:15.000Z</time>
      </trkpt>
      <trkpt lat="46.27449" lon="6.56386">
        <ele>1313.5</ele>
        <time>2023-01-21T10:45:16.000Z</time>
      </trkpt>
      <trkpt lat="46.2745" lon="6.56387">
        <ele>1313.9</ele>
        <time>2023-01-21T10:45:17.000Z</time>
      </trkpt>
      <trkpt lat="46.27449" lon="6.56388">
        <ele>1314.1</ele>
        <time>2023-01-21T10:45:18.000Z</time>
      </trkpt>
      <trkpt lat="46.27449" lon="6.56389">
        <ele>1314.2</ele>
        <time>2023-01-21T10:45:19.000Z</time>
      </trkpt>
      <trkpt lat="46.27449" lon="6.56389">
        <ele>1314.1</ele>
        <time>2023-01-21T10:45:20.000Z</time>
      </trkpt>
      <trkpt lat="46.27449" lon="6.5639">
        <ele>1314.3</ele>
        <time>2023-01-21T10:45:21.000Z</time>
      </trkpt>
      <trkpt lat="46.2745" lon="6.5639">
        <ele>1314.4</ele>
        <time>2023-01-21T10:45:22.000Z</time>
      </trkpt>
      <trkpt lat="46.2745" lon="6.56391">
        <ele>1314.4</ele>
        <time>2023-01-21T10:45:23.000Z</time>
      </trkpt>
      <trkpt lat="46.2745" lon="6.56391">
        <ele>1314.4</ele>
        <time>2023-01-21T10:45:24.000Z</time>
      </trkpt>
      <trkpt lat="46.27451" lon="6.56391">
        <ele>1314.5</ele>
        <time>2023-01-21T10:45:25.000Z</time>
      </trkpt>
      <trkpt lat="46.27452" lon="6.56391">
        <ele>1314.6</ele>
        <time>2023-01-21T10:45:26.000Z</time>
      </trkpt>
      <trkpt lat="46.27452" lon="6.56391">
        <ele>1314.6</ele>
        <time>2023-01-21T10:45:27.000Z</time>
      </trkpt>
      <trkpt lat="46.27452" lon="6.56391">
        <ele>1314.9</ele>
        <time>2023-01-21T10:45:28.000Z</time>
      </trkpt>
      <trkpt lat="46.27452" lon="6.56392">
        <ele>1315.1</ele>
        <time>2023-01-21T10:45:29.000Z</time>
      </trkpt>
      <trkpt lat="46.27452" lon="6.56392">
        <ele>1315.4</ele>
        <time>2023-01-21T10:45:30.000Z</time>
      </trkpt>
      <trkpt lat="46.27452" lon="6.56393">
        <ele>1315.6</ele>
        <time>2023-01-21T10:45:31.000Z</time>
      </trkpt>
      <trkpt lat="46.27453" lon="6.56393">
        <ele>1315.8</ele>
        <time>2023-01-21T10:45:32.000Z</time>
      </trkpt>
      <trkpt lat="46.27453" lon="6.56394">
        <ele>1315.8</ele>
        <time>2023-01-21T10:45:33.000Z</time>
      </trkpt>
      <trkpt lat="46.27453" lon="6.56394">
        <ele>1316</ele>
        <time>2023-01-21T10:45:34.000Z</time>
      </trkpt>
      <trkpt lat="46.27454" lon="6.56395">
        <ele>1316.2</ele>
        <time>2023-01-21T10:45:35.000Z</time>
      </trkpt>
      <trkpt lat="46.27454" lon="6.56395">
        <ele>1316.4</ele>
        <time>2023-01-21T10:45:36.000Z</time>
      </trkpt>
      <trkpt lat="46.27455" lon="6.56395">
        <ele>1316.6</ele>
        <time>2023-01-21T10:45:37.000Z</time>
      </trkpt>
      <trkpt lat="46.27455" lon="6.56395">
        <ele>1316.8</ele>
        <time>2023-01-21T10:45:38.000Z</time>
      </trkpt>
      <trkpt lat="46.27455" lon="6.56395">
        <ele>1317</ele>
        <time>2023-01-21T10:45:39.000Z</time>
      </trkpt>
      <trkpt lat="46.27455" lon="6.56396">
        <ele>1317.2</ele>
        <time>2023-01-21T10:45:40.000Z</time>
      </trkpt>
      <trkpt lat="46.27456" lon="6.56397">
        <ele>1317.4</ele>
        <time>2023-01-21T10:45:41.000Z</time>
      </trkpt>
      <trkpt lat="46.27456" lon="6.56397">
        <ele>1317.6</ele>
        <time>2023-01-21T10:45:42.000Z</time>
      </trkpt>
      <trkpt lat="46.27457" lon="6.56398">
        <ele>1317.8</ele>
        <time>2023-01-21T10:45:43.000Z</time>
      </trkpt>
      <trkpt lat="46.27457" lon="6.56399">
        <ele>1318.1</ele>
        <time>2023-01-21T10:45:44.000Z</time>
      </trkpt>
      <trkpt lat="46.27457" lon="6.564">
        <ele>1318.3</ele>
        <time>2023-01-21T10:45:45.000Z</time>
      </trkpt>
      <trkpt lat="46.27457" lon="6.56401">
        <ele>1318.6</ele>
        <time>2023-01-21T10:45:46.000Z</time>
      </trkpt>
      <trkpt lat="46.27457" lon="6.56403">
        <ele>1318.9</ele>
        <time>2023-01-21T10:45:47.000Z</time>
      </trkpt>
      <trkpt lat="46.27457" lon="6.56403">
        <ele>1319.4</ele>
        <time>2023-01-21T10:45:48.000Z</time>
      </trkpt>
      <trkpt lat="46.27457" lon="6.56404">
        <ele>1319.6</ele>
        <time>2023-01-21T10:45:49.000Z</time>
      </trkpt>
      <trkpt lat="46.27458" lon="6.56405">
        <ele>1319.8</ele>
        <time>2023-01-21T10:45:50.000Z</time>
      </trkpt>
      <trkpt lat="46.27458" lon="6.56405">
        <ele>1320.1</ele>
        <time>2023-01-21T10:45:51.000Z</time>
      </trkpt>
      <trkpt lat="46.27458" lon="6.56406">
        <ele>1320.3</ele>
        <time>2023-01-21T10:45:52.000Z</time>
      </trkpt>
      <trkpt lat="46.27458" lon="6.56406">
        <ele>1320.7</ele>
        <time>2023-01-21T10:45:53.000Z</time>
      </trkpt>
      <trkpt lat="46.27459" lon="6.56407">
        <ele>1320.8</ele>
        <time>2023-01-21T10:45:54.000Z</time>
      </trkpt>
      <trkpt lat="46.2746" lon="6.56407">
        <ele>1321</ele>
        <time>2023-01-21T10:45:55.000Z</time>
      </trkpt>
      <trkpt lat="46.2746" lon="6.56407">
        <ele>1321.1</ele>
        <time>2023-01-21T10:45:56.000Z</time>
      </trkpt>
      <trkpt lat="46.27461" lon="6.56407">
        <ele>1321.3</ele>
        <time>2023-01-21T10:45:57.000Z</time>
      </trkpt>
      <trkpt lat="46.27462" lon="6.56407">
        <ele>1321.6</ele>
        <time>2023-01-21T10:45:58.000Z</time>
      </trkpt>
      <trkpt lat="46.27462" lon="6.56407">
        <ele>1321.9</ele>
        <time>2023-01-21T10:45:59.000Z</time>
      </trkpt>
      <trkpt lat="46.27462" lon="6.56407">
        <ele>1322</ele>
        <time>2023-01-21T10:46:00.000Z</time>
      </trkpt>
      <trkpt lat="46.27463" lon="6.56407">
        <ele>1322.5</ele>
        <time>2023-01-21T10:46:01.000Z</time>
      </trkpt>
      <trkpt lat="46.27463" lon="6.56407">
        <ele>1322.7</ele>
        <time>2023-01-21T10:46:02.000Z</time>
      </trkpt>
      <trkpt lat="46.27463" lon="6.56408">
        <ele>1322.8</ele>
        <time>2023-01-21T10:46:03.000Z</time>
      </trkpt>
      <trkpt lat="46.27463" lon="6.56409">
        <ele>1323</ele>
        <time>2023-01-21T10:46:04.000Z</time>
      </trkpt>
      <trkpt lat="46.27463" lon="6.56409">
        <ele>1323.2</ele>
        <time>2023-01-21T10:46:05.000Z</time>
      </trkpt>
      <trkpt lat="46.27462" lon="6.56411">
        <ele>1323.3</ele>
        <time>2023-01-21T10:46:06.000Z</time>
      </trkpt>
      <trkpt lat="46.27462" lon="6.56411">
        <ele>1323.3</ele>
        <time>2023-01-21T10:46:07.000Z</time>
      </trkpt>
      <trkpt lat="46.27462" lon="6.56411">
        <ele>1323.3</ele>
        <time>2023-01-21T10:46:08.000Z</time>
      </trkpt>
      <trkpt lat="46.27462" lon="6.56411">
        <ele>1323.3</ele>
        <time>2023-01-21T10:46:09.000Z</time>
      </trkpt>
      <trkpt lat="46.27462" lon="6.56411">
        <ele>1323.3</ele>
        <time>2023-01-21T10:46:10.000Z</time>
      </trkpt>
      <trkpt lat="46.27462" lon="6.56411">
        <ele>1323.3</ele>
        <time>2023-01-21T10:46:11.000Z</time>
      </trkpt>
      <trkpt lat="46.27462" lon="6.56411">
        <ele>1323.3</ele>
        <time>2023-01-21T10:46:12.000Z</time>
      </trkpt>
      <trkpt lat="46.27462" lon="6.56411">
        <ele>1323.3</ele>
        <time>2023-01-21T10:46:13.000Z</time>
      </trkpt>
      <trkpt lat="46.27464" lon="6.56415">
        <ele>1324.4</ele>
        <time>2023-01-21T10:46:14.000Z</time>
      </trkpt>
      <trkpt lat="46.27465" lon="6.56415">
        <ele>1324.6</ele>
        <time>2023-01-21T10:46:15.000Z</time>
      </trkpt>
      <trkpt lat="46.27466" lon="6.56416">
        <ele>1324.7</ele>
        <time>2023-01-21T10:46:16.000Z</time>
      </trkpt>
      <trkpt lat="46.27467" lon="6.56417">
        <ele>1324.9</ele>
        <time>2023-01-21T10:46:17.000Z</time>
      </trkpt>
      <trkpt lat="46.27467" lon="6.56417">
        <ele>1325.2</ele>
        <time>2023-01-21T10:46:18.000Z</time>
      </trkpt>
      <trkpt lat="46.27467" lon="6.56418">
        <ele>1325.5</ele>
        <time>2023-01-21T10:46:19.000Z</time>
      </trkpt>
      <trkpt lat="46.27468" lon="6.56418">
        <ele>1325.5</ele>
        <time>2023-01-21T10:46:20.000Z</time>
      </trkpt>
      <trkpt lat="46.27469" lon="6.56418">
        <ele>1325.7</ele>
        <time>2023-01-21T10:46:21.000Z</time>
      </trkpt>
      <trkpt lat="46.27469" lon="6.56418">
        <ele>1325.8</ele>
        <time>2023-01-21T10:46:22.000Z</time>
      </trkpt>
      <trkpt lat="46.27469" lon="6.56419">
        <ele>1325.9</ele>
        <time>2023-01-21T10:46:23.000Z</time>
      </trkpt>
      <trkpt lat="46.2747" lon="6.56419">
        <ele>1325.9</ele>
        <time>2023-01-21T10:46:24.000Z</time>
      </trkpt>
      <trkpt lat="46.2747" lon="6.5642">
        <ele>1325.8</ele>
        <time>2023-01-21T10:46:25.000Z</time>
      </trkpt>
      <trkpt lat="46.2747" lon="6.5642">
        <ele>1326.1</ele>
        <time>2023-01-21T10:46:26.000Z</time>
      </trkpt>
      <trkpt lat="46.27469" lon="6.56421">
        <ele>1326.2</ele>
        <time>2023-01-21T10:46:27.000Z</time>
      </trkpt>
      <trkpt lat="46.27469" lon="6.56421">
        <ele>1326.3</ele>
        <time>2023-01-21T10:46:28.000Z</time>
      </trkpt>
      <trkpt lat="46.27469" lon="6.56422">
        <ele>1326.4</ele>
        <time>2023-01-21T10:46:29.000Z</time>
      </trkpt>
      <trkpt lat="46.2747" lon="6.56423">
        <ele>1326.1</ele>
        <time>2023-01-21T10:46:30.000Z</time>
      </trkpt>
      <trkpt lat="46.2747" lon="6.56423">
        <ele>1326.2</ele>
        <time>2023-01-21T10:46:31.000Z</time>
      </trkpt>
      <trkpt lat="46.2747" lon="6.56424">
        <ele>1326.3</ele>
        <time>2023-01-21T10:46:32.000Z</time>
      </trkpt>
      <trkpt lat="46.27471" lon="6.56426">
        <ele>1326.4</ele>
        <time>2023-01-21T10:46:33.000Z</time>
      </trkpt>
      <trkpt lat="46.27472" lon="6.56427">
        <ele>1326.4</ele>
        <time>2023-01-21T10:46:34.000Z</time>
      </trkpt>
      <trkpt lat="46.27472" lon="6.56427">
        <ele>1326.5</ele>
        <time>2023-01-21T10:46:35.000Z</time>
      </trkpt>
      <trkpt lat="46.27473" lon="6.56428">
        <ele>1326.4</ele>
        <time>2023-01-21T10:46:36.000Z</time>
      </trkpt>
      <trkpt lat="46.27473" lon="6.56428">
        <ele>1326.7</ele>
        <time>2023-01-21T10:46:37.000Z</time>
      </trkpt>
      <trkpt lat="46.27474" lon="6.56429">
        <ele>1327.1</ele>
        <time>2023-01-21T10:46:38.000Z</time>
      </trkpt>
      <trkpt lat="46.27475" lon="6.56429">
        <ele>1327.2</ele>
        <time>2023-01-21T10:46:39.000Z</time>
      </trkpt>
      <trkpt lat="46.27475" lon="6.56429">
        <ele>1327.6</ele>
        <time>2023-01-21T10:46:40.000Z</time>
      </trkpt>
      <trkpt lat="46.27475" lon="6.56429">
        <ele>1327.9</ele>
        <time>2023-01-21T10:46:41.000Z</time>
      </trkpt>
      <trkpt lat="46.27476" lon="6.5643">
        <ele>1328.3</ele>
        <time>2023-01-21T10:46:42.000Z</time>
      </trkpt>
      <trkpt lat="46.27476" lon="6.5643">
        <ele>1328.7</ele>
        <time>2023-01-21T10:46:43.000Z</time>
      </trkpt>
      <trkpt lat="46.27477" lon="6.5643">
        <ele>1328.9</ele>
        <time>2023-01-21T10:46:44.000Z</time>
      </trkpt>
      <trkpt lat="46.27477" lon="6.5643">
        <ele>1329.1</ele>
        <time>2023-01-21T10:46:45.000Z</time>
      </trkpt>
      <trkpt lat="46.27478" lon="6.56431">
        <ele>1329.2</ele>
        <time>2023-01-21T10:46:46.000Z</time>
      </trkpt>
      <trkpt lat="46.27478" lon="6.56431">
        <ele>1329.4</ele>
        <time>2023-01-21T10:46:47.000Z</time>
      </trkpt>
      <trkpt lat="46.27479" lon="6.56431">
        <ele>1329.4</ele>
        <time>2023-01-21T10:46:48.000Z</time>
      </trkpt>
      <trkpt lat="46.27479" lon="6.56432">
        <ele>1329.6</ele>
        <time>2023-01-21T10:46:49.000Z</time>
      </trkpt>
      <trkpt lat="46.27479" lon="6.56433">
        <ele>1329.8</ele>
        <time>2023-01-21T10:46:50.000Z</time>
      </trkpt>
      <trkpt lat="46.2748" lon="6.56433">
        <ele>1330</ele>
        <time>2023-01-21T10:46:51.000Z</time>
      </trkpt>
      <trkpt lat="46.2748" lon="6.56434">
        <ele>1330.3</ele>
        <time>2023-01-21T10:46:52.000Z</time>
      </trkpt>
      <trkpt lat="46.2748" lon="6.56434">
        <ele>1330.5</ele>
        <time>2023-01-21T10:46:53.000Z</time>
      </trkpt>
      <trkpt lat="46.2748" lon="6.56435">
        <ele>1330.5</ele>
        <time>2023-01-21T10:46:54.000Z</time>
      </trkpt>
      <trkpt lat="46.2748" lon="6.56436">
        <ele>1330.6</ele>
        <time>2023-01-21T10:46:55.000Z</time>
      </trkpt>
      <trkpt lat="46.2748" lon="6.56437">
        <ele>1330.7</ele>
        <time>2023-01-21T10:46:56.000Z</time>
      </trkpt>
      <trkpt lat="46.2748" lon="6.56437">
        <ele>1330.7</ele>
        <time>2023-01-21T10:46:57.000Z</time>
      </trkpt>
      <trkpt lat="46.2748" lon="6.56438">
        <ele>1330.8</ele>
        <time>2023-01-21T10:46:58.000Z</time>
      </trkpt>
      <trkpt lat="46.2748" lon="6.56438">
        <ele>1330.9</ele>
        <time>2023-01-21T10:46:59.000Z</time>
      </trkpt>
      <trkpt lat="46.27481" lon="6.56438">
        <ele>1331.1</ele>
        <time>2023-01-21T10:47:00.000Z</time>
      </trkpt>
      <trkpt lat="46.27481" lon="6.56438">
        <ele>1331.2</ele>
        <time>2023-01-21T10:47:01.000Z</time>
      </trkpt>
      <trkpt lat="46.2748" lon="6.56438">
        <ele>1331.4</ele>
        <time>2023-01-21T10:47:02.000Z</time>
      </trkpt>
      <trkpt lat="46.2748" lon="6.56438">
        <ele>1331.4</ele>
        <time>2023-01-21T10:47:03.000Z</time>
      </trkpt>
      <trkpt lat="46.2748" lon="6.56438">
        <ele>1331.4</ele>
        <time>2023-01-21T10:47:04.000Z</time>
      </trkpt>
      <trkpt lat="46.2748" lon="6.56438">
        <ele>1331.4</ele>
        <time>2023-01-21T10:47:05.000Z</time>
      </trkpt>
      <trkpt lat="46.2748" lon="6.56438">
        <ele>1331.4</ele>
        <time>2023-01-21T10:47:06.000Z</time>
      </trkpt>
      <trkpt lat="46.2748" lon="6.56438">
        <ele>1331.4</ele>
        <time>2023-01-21T10:47:07.000Z</time>
      </trkpt>
      <trkpt lat="46.2748" lon="6.56438">
        <ele>1331.4</ele>
        <time>2023-01-21T10:47:08.000Z</time>
      </trkpt>
      <trkpt lat="46.2748" lon="6.56438">
        <ele>1331.4</ele>
        <time>2023-01-21T10:47:09.000Z</time>
      </trkpt>
      <trkpt lat="46.2748" lon="6.56438">
        <ele>1331.4</ele>
        <time>2023-01-21T10:47:10.000Z</time>
      </trkpt>
      <trkpt lat="46.2748" lon="6.56438">
        <ele>1331.4</ele>
        <time>2023-01-21T10:47:11.000Z</time>
      </trkpt>
      <trkpt lat="46.2748" lon="6.56438">
        <ele>1331.4</ele>
        <time>2023-01-21T10:47:12.000Z</time>
      </trkpt>
      <trkpt lat="46.2748" lon="6.56438">
        <ele>1331.4</ele>
        <time>2023-01-21T10:47:13.000Z</time>
      </trkpt>
      <trkpt lat="46.27482" lon="6.5644">
        <ele>1331.9</ele>
        <time>2023-01-21T10:47:14.000Z</time>
      </trkpt>
      <trkpt lat="46.27482" lon="6.5644">
        <ele>1331.9</ele>
        <time>2023-01-21T10:47:15.000Z</time>
      </trkpt>
      <trkpt lat="46.27482" lon="6.5644">
        <ele>1331.9</ele>
        <time>2023-01-21T10:47:16.000Z</time>
      </trkpt>
      <trkpt lat="46.27482" lon="6.56441">
        <ele>1331.9</ele>
        <time>2023-01-21T10:47:17.000Z</time>
      </trkpt>
      <trkpt lat="46.27482" lon="6.56442">
        <ele>1331.8</ele>
        <time>2023-01-21T10:47:18.000Z</time>
      </trkpt>
      <trkpt lat="46.27482" lon="6.56442">
        <ele>1331.9</ele>
        <time>2023-01-21T10:47:19.000Z</time>
      </trkpt>
      <trkpt lat="46.27482" lon="6.56443">
        <ele>1331.7</ele>
        <time>2023-01-21T10:47:20.000Z</time>
      </trkpt>
      <trkpt lat="46.27482" lon="6.56444">
        <ele>1331.7</ele>
        <time>2023-01-21T10:47:21.000Z</time>
      </trkpt>
      <trkpt lat="46.27483" lon="6.56445">
        <ele>1331.6</ele>
        <time>2023-01-21T10:47:22.000Z</time>
      </trkpt>
      <trkpt lat="46.27483" lon="6.56445">
        <ele>1331.6</ele>
        <time>2023-01-21T10:47:23.000Z</time>
      </trkpt>
      <trkpt lat="46.27483" lon="6.56445">
        <ele>1331.6</ele>
        <time>2023-01-21T10:47:24.000Z</time>
      </trkpt>
      <trkpt lat="46.27484" lon="6.56445">
        <ele>1331.6</ele>
        <time>2023-01-21T10:47:25.000Z</time>
      </trkpt>
      <trkpt lat="46.27484" lon="6.56446">
        <ele>1331.4</ele>
        <time>2023-01-21T10:47:26.000Z</time>
      </trkpt>
      <trkpt lat="46.27484" lon="6.56446">
        <ele>1331.4</ele>
        <time>2023-01-21T10:47:27.000Z</time>
      </trkpt>
      <trkpt lat="46.27484" lon="6.56446">
        <ele>1331.4</ele>
        <time>2023-01-21T10:47:28.000Z</time>
      </trkpt>
      <trkpt lat="46.27484" lon="6.56449">
        <ele>1331.8</ele>
        <time>2023-01-21T10:47:29.000Z</time>
      </trkpt>
      <trkpt lat="46.27484" lon="6.56449">
        <ele>1331.8</ele>
        <time>2023-01-21T10:47:30.000Z</time>
      </trkpt>
      <trkpt lat="46.27484" lon="6.56449">
        <ele>1332</ele>
        <time>2023-01-21T10:47:31.000Z</time>
      </trkpt>
      <trkpt lat="46.27484" lon="6.56451">
        <ele>1331.8</ele>
        <time>2023-01-21T10:47:32.000Z</time>
      </trkpt>
      <trkpt lat="46.27485" lon="6.56451">
        <ele>1331.9</ele>
        <time>2023-01-21T10:47:33.000Z</time>
      </trkpt>
      <trkpt lat="46.27485" lon="6.56451">
        <ele>1332.1</ele>
        <time>2023-01-21T10:47:34.000Z</time>
      </trkpt>
      <trkpt lat="46.27486" lon="6.56451">
        <ele>1332.2</ele>
        <time>2023-01-21T10:47:35.000Z</time>
      </trkpt>
      <trkpt lat="46.27486" lon="6.56452">
        <ele>1332.3</ele>
        <time>2023-01-21T10:47:36.000Z</time>
      </trkpt>
      <trkpt lat="46.27487" lon="6.56452">
        <ele>1332.3</ele>
        <time>2023-01-21T10:47:37.000Z</time>
      </trkpt>
      <trkpt lat="46.27487" lon="6.56453">
        <ele>1332.3</ele>
        <time>2023-01-21T10:47:38.000Z</time>
      </trkpt>
      <trkpt lat="46.27488" lon="6.56453">
        <ele>1332.4</ele>
        <time>2023-01-21T10:47:39.000Z</time>
      </trkpt>
      <trkpt lat="46.27488" lon="6.56453">
        <ele>1332.4</ele>
        <time>2023-01-21T10:47:40.000Z</time>
      </trkpt>
      <trkpt lat="46.27489" lon="6.56454">
        <ele>1332.5</ele>
        <time>2023-01-21T10:47:41.000Z</time>
      </trkpt>
      <trkpt lat="46.27489" lon="6.56454">
        <ele>1332.6</ele>
        <time>2023-01-21T10:47:42.000Z</time>
      </trkpt>
      <trkpt lat="46.2749" lon="6.56454">
        <ele>1332.5</ele>
        <time>2023-01-21T10:47:43.000Z</time>
      </trkpt>
      <trkpt lat="46.2749" lon="6.56454">
        <ele>1332.5</ele>
        <time>2023-01-21T10:47:44.000Z</time>
      </trkpt>
      <trkpt lat="46.27491" lon="6.56455">
        <ele>1332.4</ele>
        <time>2023-01-21T10:47:45.000Z</time>
      </trkpt>
      <trkpt lat="46.27491" lon="6.56455">
        <ele>1332.2</ele>
        <time>2023-01-21T10:47:46.000Z</time>
      </trkpt>
      <trkpt lat="46.27491" lon="6.56456">
        <ele>1332.2</ele>
        <time>2023-01-21T10:47:47.000Z</time>
      </trkpt>
      <trkpt lat="46.27492" lon="6.56456">
        <ele>1332.1</ele>
        <time>2023-01-21T10:47:48.000Z</time>
      </trkpt>
      <trkpt lat="46.27492" lon="6.56456">
        <ele>1332</ele>
        <time>2023-01-21T10:47:49.000Z</time>
      </trkpt>
      <trkpt lat="46.27492" lon="6.56457">
        <ele>1331.7</ele>
        <time>2023-01-21T10:47:50.000Z</time>
      </trkpt>
      <trkpt lat="46.27492" lon="6.56457">
        <ele>1331.8</ele>
        <time>2023-01-21T10:47:51.000Z</time>
      </trkpt>
      <trkpt lat="46.27493" lon="6.56457">
        <ele>1331.8</ele>
        <time>2023-01-21T10:47:52.000Z</time>
      </trkpt>
      <trkpt lat="46.27493" lon="6.56458">
        <ele>1331.9</ele>
        <time>2023-01-21T10:47:53.000Z</time>
      </trkpt>
      <trkpt lat="46.27493" lon="6.56458">
        <ele>1331.7</ele>
        <time>2023-01-21T10:47:54.000Z</time>
      </trkpt>
      <trkpt lat="46.27493" lon="6.56459">
        <ele>1331.7</ele>
        <time>2023-01-21T10:47:55.000Z</time>
      </trkpt>
      <trkpt lat="46.27493" lon="6.5646">
        <ele>1331.6</ele>
        <time>2023-01-21T10:47:56.000Z</time>
      </trkpt>
      <trkpt lat="46.27493" lon="6.56462">
        <ele>1331.6</ele>
        <time>2023-01-21T10:47:57.000Z</time>
      </trkpt>
      <trkpt lat="46.27493" lon="6.56463">
        <ele>1331.8</ele>
        <time>2023-01-21T10:47:58.000Z</time>
      </trkpt>
      <trkpt lat="46.27493" lon="6.56463">
        <ele>1332</ele>
        <time>2023-01-21T10:47:59.000Z</time>
      </trkpt>
      <trkpt lat="46.27493" lon="6.56464">
        <ele>1332.1</ele>
        <time>2023-01-21T10:48:00.000Z</time>
      </trkpt>
      <trkpt lat="46.27493" lon="6.56465">
        <ele>1332.1</ele>
        <time>2023-01-21T10:48:01.000Z</time>
      </trkpt>
      <trkpt lat="46.27494" lon="6.56466">
        <ele>1332.2</ele>
        <time>2023-01-21T10:48:02.000Z</time>
      </trkpt>
      <trkpt lat="46.27494" lon="6.56466">
        <ele>1332.3</ele>
        <time>2023-01-21T10:48:03.000Z</time>
      </trkpt>
      <trkpt lat="46.27494" lon="6.56466">
        <ele>1332.5</ele>
        <time>2023-01-21T10:48:04.000Z</time>
      </trkpt>
      <trkpt lat="46.27495" lon="6.56467">
        <ele>1332.9</ele>
        <time>2023-01-21T10:48:05.000Z</time>
      </trkpt>
      <trkpt lat="46.27495" lon="6.56467">
        <ele>1333.3</ele>
        <time>2023-01-21T10:48:06.000Z</time>
      </trkpt>
      <trkpt lat="46.27495" lon="6.56467">
        <ele>1333.3</ele>
        <time>2023-01-21T10:48:07.000Z</time>
      </trkpt>
      <trkpt lat="46.27495" lon="6.56467">
        <ele>1333.4</ele>
        <time>2023-01-21T10:48:08.000Z</time>
      </trkpt>
      <trkpt lat="46.27495" lon="6.56467">
        <ele>1333.4</ele>
        <time>2023-01-21T10:48:09.000Z</time>
      </trkpt>
      <trkpt lat="46.27497" lon="6.56468">
        <ele>1333.8</ele>
        <time>2023-01-21T10:48:10.000Z</time>
      </trkpt>
      <trkpt lat="46.27497" lon="6.56468">
        <ele>1334</ele>
        <time>2023-01-21T10:48:11.000Z</time>
      </trkpt>
      <trkpt lat="46.27497" lon="6.56469">
        <ele>1334.2</ele>
        <time>2023-01-21T10:48:12.000Z</time>
      </trkpt>
      <trkpt lat="46.27498" lon="6.5647">
        <ele>1334.3</ele>
        <time>2023-01-21T10:48:13.000Z</time>
      </trkpt>
      <trkpt lat="46.27499" lon="6.5647">
        <ele>1334.2</ele>
        <time>2023-01-21T10:48:14.000Z</time>
      </trkpt>
      <trkpt lat="46.27499" lon="6.56471">
        <ele>1334.3</ele>
        <time>2023-01-21T10:48:15.000Z</time>
      </trkpt>
      <trkpt lat="46.275" lon="6.56471">
        <ele>1334.1</ele>
        <time>2023-01-21T10:48:16.000Z</time>
      </trkpt>
      <trkpt lat="46.275" lon="6.56471">
        <ele>1334.1</ele>
        <time>2023-01-21T10:48:17.000Z</time>
      </trkpt>
      <trkpt lat="46.27499" lon="6.56471">
        <ele>1334.2</ele>
        <time>2023-01-21T10:48:18.000Z</time>
      </trkpt>
      <trkpt lat="46.27499" lon="6.56471">
        <ele>1334.4</ele>
        <time>2023-01-21T10:48:19.000Z</time>
      </trkpt>
      <trkpt lat="46.27499" lon="6.56471">
        <ele>1334.7</ele>
        <time>2023-01-21T10:48:20.000Z</time>
      </trkpt>
      <trkpt lat="46.27499" lon="6.56471">
        <ele>1334.7</ele>
        <time>2023-01-21T10:48:21.000Z</time>
      </trkpt>
      <trkpt lat="46.27499" lon="6.56471">
        <ele>1334.7</ele>
        <time>2023-01-21T10:48:22.000Z</time>
      </trkpt>
      <trkpt lat="46.27499" lon="6.56471">
        <ele>1334.7</ele>
        <time>2023-01-21T10:48:23.000Z</time>
      </trkpt>
      <trkpt lat="46.27499" lon="6.56471">
        <ele>1334.7</ele>
        <time>2023-01-21T10:48:24.000Z</time>
      </trkpt>
      <trkpt lat="46.27499" lon="6.56471">
        <ele>1334.7</ele>
        <time>2023-01-21T10:48:25.000Z</time>
      </trkpt>
      <trkpt lat="46.275" lon="6.56476">
        <ele>1335.4</ele>
        <time>2023-01-21T10:48:26.000Z</time>
      </trkpt>
      <trkpt lat="46.27501" lon="6.56476">
        <ele>1335.3</ele>
        <time>2023-01-21T10:48:27.000Z</time>
      </trkpt>
      <trkpt lat="46.27502" lon="6.56477">
        <ele>1335.2</ele>
        <time>2023-01-21T10:48:28.000Z</time>
      </trkpt>
      <trkpt lat="46.27502" lon="6.56477">
        <ele>1335</ele>
        <time>2023-01-21T10:48:29.000Z</time>
      </trkpt>
      <trkpt lat="46.27503" lon="6.56477">
        <ele>1335.1</ele>
        <time>2023-01-21T10:48:30.000Z</time>
      </trkpt>
      <trkpt lat="46.27504" lon="6.56478">
        <ele>1335.2</ele>
        <time>2023-01-21T10:48:31.000Z</time>
      </trkpt>
      <trkpt lat="46.27505" lon="6.56478">
        <ele>1335.2</ele>
        <time>2023-01-21T10:48:32.000Z</time>
      </trkpt>
      <trkpt lat="46.27507" lon="6.56479">
        <ele>1335.4</ele>
        <time>2023-01-21T10:48:33.000Z</time>
      </trkpt>
      <trkpt lat="46.27507" lon="6.5648">
        <ele>1335.4</ele>
        <time>2023-01-21T10:48:34.000Z</time>
      </trkpt>
      <trkpt lat="46.27507" lon="6.5648">
        <ele>1335.6</ele>
        <time>2023-01-21T10:48:35.000Z</time>
      </trkpt>
      <trkpt lat="46.27508" lon="6.56481">
        <ele>1335.7</ele>
        <time>2023-01-21T10:48:36.000Z</time>
      </trkpt>
      <trkpt lat="46.27508" lon="6.56482">
        <ele>1336</ele>
        <time>2023-01-21T10:48:37.000Z</time>
      </trkpt>
      <trkpt lat="46.27508" lon="6.56483">
        <ele>1336.3</ele>
        <time>2023-01-21T10:48:38.000Z</time>
      </trkpt>
      <trkpt lat="46.27508" lon="6.56483">
        <ele>1336.6</ele>
        <time>2023-01-21T10:48:39.000Z</time>
      </trkpt>
      <trkpt lat="46.27509" lon="6.56484">
        <ele>1336.8</ele>
        <time>2023-01-21T10:48:40.000Z</time>
      </trkpt>
      <trkpt lat="46.27509" lon="6.56485">
        <ele>1337.3</ele>
        <time>2023-01-21T10:48:41.000Z</time>
      </trkpt>
      <trkpt lat="46.27509" lon="6.56485">
        <ele>1337.7</ele>
        <time>2023-01-21T10:48:42.000Z</time>
      </trkpt>
      <trkpt lat="46.2751" lon="6.56486">
        <ele>1338.2</ele>
        <time>2023-01-21T10:48:43.000Z</time>
      </trkpt>
      <trkpt lat="46.27511" lon="6.56487">
        <ele>1338.5</ele>
        <time>2023-01-21T10:48:44.000Z</time>
      </trkpt>
      <trkpt lat="46.27511" lon="6.56489">
        <ele>1339</ele>
        <time>2023-01-21T10:48:45.000Z</time>
      </trkpt>
      <trkpt lat="46.27511" lon="6.56489">
        <ele>1339.4</ele>
        <time>2023-01-21T10:48:46.000Z</time>
      </trkpt>
      <trkpt lat="46.2751" lon="6.5649">
        <ele>1339.9</ele>
        <time>2023-01-21T10:48:47.000Z</time>
      </trkpt>
      <trkpt lat="46.27511" lon="6.5649">
        <ele>1340.3</ele>
        <time>2023-01-21T10:48:48.000Z</time>
      </trkpt>
      <trkpt lat="46.27511" lon="6.56491">
        <ele>1340.7</ele>
        <time>2023-01-21T10:48:49.000Z</time>
      </trkpt>
      <trkpt lat="46.27511" lon="6.56491">
        <ele>1341.2</ele>
        <time>2023-01-21T10:48:50.000Z</time>
      </trkpt>
      <trkpt lat="46.27512" lon="6.56492">
        <ele>1341.8</ele>
        <time>2023-01-21T10:48:51.000Z</time>
      </trkpt>
      <trkpt lat="46.27512" lon="6.56493">
        <ele>1342.1</ele>
        <time>2023-01-21T10:48:52.000Z</time>
      </trkpt>
      <trkpt lat="46.27513" lon="6.56494">
        <ele>1342.3</ele>
        <time>2023-01-21T10:48:53.000Z</time>
      </trkpt>
      <trkpt lat="46.27513" lon="6.56495">
        <ele>1342.5</ele>
        <time>2023-01-21T10:48:54.000Z</time>
      </trkpt>
      <trkpt lat="46.27513" lon="6.56495">
        <ele>1342.9</ele>
        <time>2023-01-21T10:48:55.000Z</time>
      </trkpt>
      <trkpt lat="46.27514" lon="6.56497">
        <ele>1343.1</ele>
        <time>2023-01-21T10:48:56.000Z</time>
      </trkpt>
      <trkpt lat="46.27514" lon="6.56497">
        <ele>1343.5</ele>
        <time>2023-01-21T10:48:57.000Z</time>
      </trkpt>
      <trkpt lat="46.27514" lon="6.56498">
        <ele>1343.8</ele>
        <time>2023-01-21T10:48:58.000Z</time>
      </trkpt>
      <trkpt lat="46.27514" lon="6.565">
        <ele>1344.4</ele>
        <time>2023-01-21T10:48:59.000Z</time>
      </trkpt>
      <trkpt lat="46.27515" lon="6.565">
        <ele>1344.7</ele>
        <time>2023-01-21T10:49:00.000Z</time>
      </trkpt>
      <trkpt lat="46.27515" lon="6.56501">
        <ele>1345</ele>
        <time>2023-01-21T10:49:01.000Z</time>
      </trkpt>
      <trkpt lat="46.27515" lon="6.56501">
        <ele>1345.2</ele>
        <time>2023-01-21T10:49:02.000Z</time>
      </trkpt>
      <trkpt lat="46.27516" lon="6.56501">
        <ele>1345.5</ele>
        <time>2023-01-21T10:49:03.000Z</time>
      </trkpt>
      <trkpt lat="46.27516" lon="6.56502">
        <ele>1345.7</ele>
        <time>2023-01-21T10:49:04.000Z</time>
      </trkpt>
      <trkpt lat="46.27517" lon="6.56502">
        <ele>1345.6</ele>
        <time>2023-01-21T10:49:05.000Z</time>
      </trkpt>
      <trkpt lat="46.27517" lon="6.56503">
        <ele>1345.9</ele>
        <time>2023-01-21T10:49:06.000Z</time>
      </trkpt>
      <trkpt lat="46.27517" lon="6.56503">
        <ele>1346</ele>
        <time>2023-01-21T10:49:07.000Z</time>
      </trkpt>
      <trkpt lat="46.27517" lon="6.56504">
        <ele>1346.2</ele>
        <time>2023-01-21T10:49:08.000Z</time>
      </trkpt>
      <trkpt lat="46.27517" lon="6.56505">
        <ele>1346.2</ele>
        <time>2023-01-21T10:49:09.000Z</time>
      </trkpt>
      <trkpt lat="46.27516" lon="6.56505">
        <ele>1346.3</ele>
        <time>2023-01-21T10:49:10.000Z</time>
      </trkpt>
      <trkpt lat="46.27517" lon="6.56505">
        <ele>1346.4</ele>
        <time>2023-01-21T10:49:11.000Z</time>
      </trkpt>
      <trkpt lat="46.27517" lon="6.56505">
        <ele>1346.4</ele>
        <time>2023-01-21T10:49:12.000Z</time>
      </trkpt>
      <trkpt lat="46.27517" lon="6.56505">
        <ele>1346.4</ele>
        <time>2023-01-21T10:49:13.000Z</time>
      </trkpt>
      <trkpt lat="46.27517" lon="6.56505">
        <ele>1346.4</ele>
        <time>2023-01-21T10:49:14.000Z</time>
      </trkpt>
      <trkpt lat="46.27517" lon="6.56505">
        <ele>1346.4</ele>
        <time>2023-01-21T10:49:15.000Z</time>
      </trkpt>
      <trkpt lat="46.27517" lon="6.56505">
        <ele>1346.4</ele>
        <time>2023-01-21T10:49:16.000Z</time>
      </trkpt>
      <trkpt lat="46.27517" lon="6.56505">
        <ele>1346.4</ele>
        <time>2023-01-21T10:49:17.000Z</time>
      </trkpt>
      <trkpt lat="46.27517" lon="6.56508">
        <ele>1346.3</ele>
        <time>2023-01-21T10:49:19.000Z</time>
      </trkpt>
      <trkpt lat="46.27515" lon="6.56508">
        <ele>1344.2</ele>
        <time>2023-01-21T10:49:20.000Z</time>
      </trkpt>
      <trkpt lat="46.27515" lon="6.56507">
        <ele>1344.2</ele>
        <time>2023-01-21T10:49:21.000Z</time>
      </trkpt>
      <trkpt lat="46.27514" lon="6.56507">
        <ele>1344.7</ele>
        <time>2023-01-21T10:49:22.000Z</time>
      </trkpt>
      <trkpt lat="46.27514" lon="6.56507">
        <ele>1344.6</ele>
        <time>2023-01-21T10:49:23.000Z</time>
      </trkpt>
      <trkpt lat="46.27514" lon="6.56507">
        <ele>1344.6</ele>
        <time>2023-01-21T10:49:24.000Z</time>
      </trkpt>
      <trkpt lat="46.27514" lon="6.56507">
        <ele>1344.6</ele>
        <time>2023-01-21T10:49:25.000Z</time>
      </trkpt>
      <trkpt lat="46.27514" lon="6.56507">
        <ele>1344.6</ele>
        <time>2023-01-21T10:49:26.000Z</time>
      </trkpt>
      <trkpt lat="46.27515" lon="6.56506">
        <ele>1346.1</ele>
        <time>2023-01-21T10:49:27.000Z</time>
      </trkpt>
      <trkpt lat="46.27515" lon="6.56506">
        <ele>1346.3</ele>
        <time>2023-01-21T10:49:28.000Z</time>
      </trkpt>
      <trkpt lat="46.27515" lon="6.56506">
        <ele>1346.7</ele>
        <time>2023-01-21T10:49:29.000Z</time>
      </trkpt>
      <trkpt lat="46.27516" lon="6.56507">
        <ele>1347.2</ele>
        <time>2023-01-21T10:49:30.000Z</time>
      </trkpt>
      <trkpt lat="46.27516" lon="6.56507">
        <ele>1347.2</ele>
        <time>2023-01-21T10:49:31.000Z</time>
      </trkpt>
      <trkpt lat="46.27516" lon="6.56507">
        <ele>1347.2</ele>
        <time>2023-01-21T10:49:32.000Z</time>
      </trkpt>
      <trkpt lat="46.27516" lon="6.56507">
        <ele>1347.2</ele>
        <time>2023-01-21T10:49:33.000Z</time>
      </trkpt>
      <trkpt lat="46.27516" lon="6.56507">
        <ele>1347.2</ele>
        <time>2023-01-21T10:49:34.000Z</time>
      </trkpt>
      <trkpt lat="46.27516" lon="6.56507">
        <ele>1347.2</ele>
        <time>2023-01-21T10:49:35.000Z</time>
      </trkpt>
      <trkpt lat="46.27516" lon="6.56507">
        <ele>1347.2</ele>
        <time>2023-01-21T10:49:36.000Z</time>
      </trkpt>
      <trkpt lat="46.27516" lon="6.56507">
        <ele>1347.2</ele>
        <time>2023-01-21T10:49:37.000Z</time>
      </trkpt>
      <trkpt lat="46.27516" lon="6.56507">
        <ele>1347.2</ele>
        <time>2023-01-21T10:49:38.000Z</time>
      </trkpt>
      <trkpt lat="46.27516" lon="6.56507">
        <ele>1347.2</ele>
        <time>2023-01-21T10:49:39.000Z</time>
      </trkpt>
      <trkpt lat="46.27516" lon="6.56507">
        <ele>1347.2</ele>
        <time>2023-01-21T10:49:40.000Z</time>
      </trkpt>
      <trkpt lat="46.27516" lon="6.56507">
        <ele>1347.2</ele>
        <time>2023-01-21T10:49:41.000Z</time>
      </trkpt>
      <trkpt lat="46.27516" lon="6.56507">
        <ele>1347.2</ele>
        <time>2023-01-21T10:49:42.000Z</time>
      </trkpt>
      <trkpt lat="46.27516" lon="6.56507">
        <ele>1347.2</ele>
        <time>2023-01-21T10:49:43.000Z</time>
      </trkpt>
      <trkpt lat="46.27516" lon="6.56507">
        <ele>1347.2</ele>
        <time>2023-01-21T10:49:44.000Z</time>
      </trkpt>
      <trkpt lat="46.27516" lon="6.56507">
        <ele>1347.2</ele>
        <time>2023-01-21T10:49:45.000Z</time>
      </trkpt>
      <trkpt lat="46.27516" lon="6.56506">
        <ele>1350.2</ele>
        <time>2023-01-21T10:49:46.000Z</time>
      </trkpt>
      <trkpt lat="46.27517" lon="6.56507">
        <ele>1350.6</ele>
        <time>2023-01-21T10:49:47.000Z</time>
      </trkpt>
      <trkpt lat="46.27517" lon="6.56507">
        <ele>1351.3</ele>
        <time>2023-01-21T10:49:48.000Z</time>
      </trkpt>
      <trkpt lat="46.27517" lon="6.56507">
        <ele>1352</ele>
        <time>2023-01-21T10:49:49.000Z</time>
      </trkpt>
      <trkpt lat="46.27517" lon="6.56508">
        <ele>1352.7</ele>
        <time>2023-01-21T10:49:50.000Z</time>
      </trkpt>
      <trkpt lat="46.27517" lon="6.56508">
        <ele>1352.9</ele>
        <time>2023-01-21T10:49:51.000Z</time>
      </trkpt>
      <trkpt lat="46.27517" lon="6.56508">
        <ele>1352.9</ele>
        <time>2023-01-21T10:49:52.000Z</time>
      </trkpt>
      <trkpt lat="46.27517" lon="6.56508">
        <ele>1352.8</ele>
        <time>2023-01-21T10:49:53.000Z</time>
      </trkpt>
      <trkpt lat="46.27517" lon="6.56508">
        <ele>1352.9</ele>
        <time>2023-01-21T10:49:54.000Z</time>
      </trkpt>
      <trkpt lat="46.27517" lon="6.56508">
        <ele>1353.1</ele>
        <time>2023-01-21T10:49:55.000Z</time>
      </trkpt>
      <trkpt lat="46.27517" lon="6.56508">
        <ele>1353.1</ele>
        <time>2023-01-21T10:49:56.000Z</time>
      </trkpt>
      <trkpt lat="46.27517" lon="6.56508">
        <ele>1353.2</ele>
        <time>2023-01-21T10:49:57.000Z</time>
      </trkpt>
      <trkpt lat="46.27517" lon="6.56508">
        <ele>1353.2</ele>
        <time>2023-01-21T10:49:58.000Z</time>
      </trkpt>
      <trkpt lat="46.27517" lon="6.56508">
        <ele>1353.2</ele>
        <time>2023-01-21T10:49:59.000Z</time>
      </trkpt>
      <trkpt lat="46.27517" lon="6.56508">
        <ele>1353.2</ele>
        <time>2023-01-21T10:50:00.000Z</time>
      </trkpt>
      <trkpt lat="46.27517" lon="6.56508">
        <ele>1353.2</ele>
        <time>2023-01-21T10:50:01.000Z</time>
      </trkpt>
      <trkpt lat="46.27517" lon="6.56508">
        <ele>1353.2</ele>
        <time>2023-01-21T10:50:02.000Z</time>
      </trkpt>
      <trkpt lat="46.27517" lon="6.56508">
        <ele>1353.2</ele>
        <time>2023-01-21T10:50:03.000Z</time>
      </trkpt>
      <trkpt lat="46.27517" lon="6.56508">
        <ele>1353.2</ele>
        <time>2023-01-21T10:50:04.000Z</time>
      </trkpt>
      <trkpt lat="46.27517" lon="6.56508">
        <ele>1353.2</ele>
        <time>2023-01-21T10:50:05.000Z</time>
      </trkpt>
      <trkpt lat="46.27517" lon="6.56508">
        <ele>1353.2</ele>
        <time>2023-01-21T10:50:06.000Z</time>
      </trkpt>
      <trkpt lat="46.27517" lon="6.56508">
        <ele>1353.2</ele>
        <time>2023-01-21T10:50:07.000Z</time>
      </trkpt>
      <trkpt lat="46.27517" lon="6.56508">
        <ele>1353.2</ele>
        <time>2023-01-21T10:50:08.000Z</time>
      </trkpt>
      <trkpt lat="46.27517" lon="6.56508">
        <ele>1353.2</ele>
        <time>2023-01-21T10:50:09.000Z</time>
      </trkpt>
      <trkpt lat="46.27517" lon="6.56508">
        <ele>1353.2</ele>
        <time>2023-01-21T10:50:10.000Z</time>
      </trkpt>
      <trkpt lat="46.27517" lon="6.56508">
        <ele>1353.3</ele>
        <time>2023-01-21T10:50:11.000Z</time>
      </trkpt>
      <trkpt lat="46.27518" lon="6.56508">
        <ele>1353.5</ele>
        <time>2023-01-21T10:50:12.000Z</time>
      </trkpt>
      <trkpt lat="46.27518" lon="6.56508">
        <ele>1353.7</ele>
        <time>2023-01-21T10:50:13.000Z</time>
      </trkpt>
      <trkpt lat="46.27518" lon="6.56508">
        <ele>1353.7</ele>
        <time>2023-01-21T10:50:14.000Z</time>
      </trkpt>
      <trkpt lat="46.27517" lon="6.56508">
        <ele>1353.7</ele>
        <time>2023-01-21T10:50:15.000Z</time>
      </trkpt>
      <trkpt lat="46.27517" lon="6.56508">
        <ele>1353.4</ele>
        <time>2023-01-21T10:50:16.000Z</time>
      </trkpt>
      <trkpt lat="46.27517" lon="6.56508">
        <ele>1353.4</ele>
        <time>2023-01-21T10:50:17.000Z</time>
      </trkpt>
      <trkpt lat="46.27517" lon="6.56508">
        <ele>1353.4</ele>
        <time>2023-01-21T10:50:18.000Z</time>
      </trkpt>
      <trkpt lat="46.27517" lon="6.56508">
        <ele>1353.4</ele>
        <time>2023-01-21T10:50:19.000Z</time>
      </trkpt>
      <trkpt lat="46.27517" lon="6.56508">
        <ele>1353.4</ele>
        <time>2023-01-21T10:50:20.000Z</time>
      </trkpt>
      <trkpt lat="46.27517" lon="6.56508">
        <ele>1353.4</ele>
        <time>2023-01-21T10:50:21.000Z</time>
      </trkpt>
      <trkpt lat="46.27517" lon="6.56508">
        <ele>1353.4</ele>
        <time>2023-01-21T10:50:22.000Z</time>
      </trkpt>
      <trkpt lat="46.27517" lon="6.56508">
        <ele>1353.4</ele>
        <time>2023-01-21T10:50:23.000Z</time>
      </trkpt>
      <trkpt lat="46.27517" lon="6.56508">
        <ele>1353.4</ele>
        <time>2023-01-21T10:50:24.000Z</time>
      </trkpt>
      <trkpt lat="46.27517" lon="6.56508">
        <ele>1353.4</ele>
        <time>2023-01-21T10:50:25.000Z</time>
      </trkpt>
      <trkpt lat="46.27518" lon="6.56509">
        <ele>1352.8</ele>
        <time>2023-01-21T10:50:26.000Z</time>
      </trkpt>
      <trkpt lat="46.27518" lon="6.5651">
        <ele>1352.8</ele>
        <time>2023-01-21T10:50:27.000Z</time>
      </trkpt>
      <trkpt lat="46.27518" lon="6.5651">
        <ele>1352.7</ele>
        <time>2023-01-21T10:50:28.000Z</time>
      </trkpt>
      <trkpt lat="46.27518" lon="6.56511">
        <ele>1352.7</ele>
        <time>2023-01-21T10:50:29.000Z</time>
      </trkpt>
      <trkpt lat="46.27519" lon="6.56511">
        <ele>1352.6</ele>
        <time>2023-01-21T10:50:30.000Z</time>
      </trkpt>
      <trkpt lat="46.27519" lon="6.56512">
        <ele>1352.6</ele>
        <time>2023-01-21T10:50:31.000Z</time>
      </trkpt>
      <trkpt lat="46.2752" lon="6.56512">
        <ele>1352.7</ele>
        <time>2023-01-21T10:50:32.000Z</time>
      </trkpt>
      <trkpt lat="46.2752" lon="6.56512">
        <ele>1352.8</ele>
        <time>2023-01-21T10:50:33.000Z</time>
      </trkpt>
      <trkpt lat="46.27521" lon="6.56512">
        <ele>1352.8</ele>
        <time>2023-01-21T10:50:34.000Z</time>
      </trkpt>
      <trkpt lat="46.27521" lon="6.56511">
        <ele>1352.5</ele>
        <time>2023-01-21T10:50:35.000Z</time>
      </trkpt>
      <trkpt lat="46.27521" lon="6.56511">
        <ele>1352.5</ele>
        <time>2023-01-21T10:50:36.000Z</time>
      </trkpt>
      <trkpt lat="46.27521" lon="6.5651">
        <ele>1352.5</ele>
        <time>2023-01-21T10:50:37.000Z</time>
      </trkpt>
      <trkpt lat="46.27522" lon="6.56509">
        <ele>1352.4</ele>
        <time>2023-01-21T10:50:38.000Z</time>
      </trkpt>
      <trkpt lat="46.27522" lon="6.56509">
        <ele>1352.1</ele>
        <time>2023-01-21T10:50:39.000Z</time>
      </trkpt>
      <trkpt lat="46.27523" lon="6.56508">
        <ele>1352.1</ele>
        <time>2023-01-21T10:50:40.000Z</time>
      </trkpt>
      <trkpt lat="46.27523" lon="6.56507">
        <ele>1352.2</ele>
        <time>2023-01-21T10:50:41.000Z</time>
      </trkpt>
      <trkpt lat="46.27524" lon="6.56506">
        <ele>1352.3</ele>
        <time>2023-01-21T10:50:42.000Z</time>
      </trkpt>
      <trkpt lat="46.27525" lon="6.56505">
        <ele>1352.3</ele>
        <time>2023-01-21T10:50:43.000Z</time>
      </trkpt>
      <trkpt lat="46.27525" lon="6.56505">
        <ele>1352</ele>
        <time>2023-01-21T10:50:44.000Z</time>
      </trkpt>
      <trkpt lat="46.27526" lon="6.56504">
        <ele>1351.8</ele>
        <time>2023-01-21T10:50:45.000Z</time>
      </trkpt>
      <trkpt lat="46.27527" lon="6.56503">
        <ele>1351.7</ele>
        <time>2023-01-21T10:50:46.000Z</time>
      </trkpt>
      <trkpt lat="46.27527" lon="6.56504">
        <ele>1351.7</ele>
        <time>2023-01-21T10:50:47.000Z</time>
      </trkpt>
      <trkpt lat="46.27527" lon="6.56503">
        <ele>1351.7</ele>
        <time>2023-01-21T10:50:48.000Z</time>
      </trkpt>
      <trkpt lat="46.27528" lon="6.56503">
        <ele>1351.6</ele>
        <time>2023-01-21T10:50:49.000Z</time>
      </trkpt>
      <trkpt lat="46.27529" lon="6.56502">
        <ele>1351.4</ele>
        <time>2023-01-21T10:50:50.000Z</time>
      </trkpt>
      <trkpt lat="46.27529" lon="6.56501">
        <ele>1351.5</ele>
        <time>2023-01-21T10:50:51.000Z</time>
      </trkpt>
      <trkpt lat="46.27529" lon="6.56501">
        <ele>1351.7</ele>
        <time>2023-01-21T10:50:52.000Z</time>
      </trkpt>
      <trkpt lat="46.27529" lon="6.56502">
        <ele>1351.7</ele>
        <time>2023-01-21T10:50:53.000Z</time>
      </trkpt>
      <trkpt lat="46.27529" lon="6.56502">
        <ele>1351.9</ele>
        <time>2023-01-21T10:50:54.000Z</time>
      </trkpt>
      <trkpt lat="46.27529" lon="6.56502">
        <ele>1351.8</ele>
        <time>2023-01-21T10:50:55.000Z</time>
      </trkpt>
      <trkpt lat="46.27529" lon="6.56503">
        <ele>1351.9</ele>
        <time>2023-01-21T10:50:56.000Z</time>
      </trkpt>
      <trkpt lat="46.2753" lon="6.56504">
        <ele>1351.8</ele>
        <time>2023-01-21T10:50:57.000Z</time>
      </trkpt>
      <trkpt lat="46.2753" lon="6.56505">
        <ele>1351.7</ele>
        <time>2023-01-21T10:50:58.000Z</time>
      </trkpt>
      <trkpt lat="46.2753" lon="6.56506">
        <ele>1351.8</ele>
        <time>2023-01-21T10:50:59.000Z</time>
      </trkpt>
      <trkpt lat="46.2753" lon="6.56507">
        <ele>1352</ele>
        <time>2023-01-21T10:51:00.000Z</time>
      </trkpt>
      <trkpt lat="46.2753" lon="6.56508">
        <ele>1352.2</ele>
        <time>2023-01-21T10:51:01.000Z</time>
      </trkpt>
      <trkpt lat="46.27531" lon="6.56508">
        <ele>1352.4</ele>
        <time>2023-01-21T10:51:02.000Z</time>
      </trkpt>
      <trkpt lat="46.27532" lon="6.56508">
        <ele>1352.5</ele>
        <time>2023-01-21T10:51:03.000Z</time>
      </trkpt>
      <trkpt lat="46.27532" lon="6.56509">
        <ele>1353</ele>
        <time>2023-01-21T10:51:04.000Z</time>
      </trkpt>
      <trkpt lat="46.27533" lon="6.5651">
        <ele>1353.1</ele>
        <time>2023-01-21T10:51:05.000Z</time>
      </trkpt>
      <trkpt lat="46.27532" lon="6.56511">
        <ele>1353.6</ele>
        <time>2023-01-21T10:51:06.000Z</time>
      </trkpt>
      <trkpt lat="46.27532" lon="6.56512">
        <ele>1353.6</ele>
        <time>2023-01-21T10:51:07.000Z</time>
      </trkpt>
      <trkpt lat="46.27532" lon="6.56513">
        <ele>1354.1</ele>
        <time>2023-01-21T10:51:08.000Z</time>
      </trkpt>
      <trkpt lat="46.27532" lon="6.56514">
        <ele>1354.5</ele>
        <time>2023-01-21T10:51:09.000Z</time>
      </trkpt>
      <trkpt lat="46.27532" lon="6.56514">
        <ele>1354.9</ele>
        <time>2023-01-21T10:51:10.000Z</time>
      </trkpt>
      <trkpt lat="46.27531" lon="6.56515">
        <ele>1355.1</ele>
        <time>2023-01-21T10:51:11.000Z</time>
      </trkpt>
      <trkpt lat="46.27531" lon="6.56516">
        <ele>1355.5</ele>
        <time>2023-01-21T10:51:12.000Z</time>
      </trkpt>
      <trkpt lat="46.27532" lon="6.56517">
        <ele>1355.6</ele>
        <time>2023-01-21T10:51:13.000Z</time>
      </trkpt>
      <trkpt lat="46.27532" lon="6.56517">
        <ele>1355.7</ele>
        <time>2023-01-21T10:51:14.000Z</time>
      </trkpt>
      <trkpt lat="46.27533" lon="6.56517">
        <ele>1356</ele>
        <time>2023-01-21T10:51:15.000Z</time>
      </trkpt>
      <trkpt lat="46.27534" lon="6.56518">
        <ele>1356.3</ele>
        <time>2023-01-21T10:51:16.000Z</time>
      </trkpt>
      <trkpt lat="46.27535" lon="6.56519">
        <ele>1356.5</ele>
        <time>2023-01-21T10:51:17.000Z</time>
      </trkpt>
      <trkpt lat="46.27535" lon="6.56519">
        <ele>1356.9</ele>
        <time>2023-01-21T10:51:18.000Z</time>
      </trkpt>
      <trkpt lat="46.27536" lon="6.56519">
        <ele>1357.1</ele>
        <time>2023-01-21T10:51:19.000Z</time>
      </trkpt>
      <trkpt lat="46.27535" lon="6.5652">
        <ele>1357.3</ele>
        <time>2023-01-21T10:51:20.000Z</time>
      </trkpt>
      <trkpt lat="46.27535" lon="6.5652">
        <ele>1357.6</ele>
        <time>2023-01-21T10:51:21.000Z</time>
      </trkpt>
      <trkpt lat="46.27536" lon="6.56521">
        <ele>1357.8</ele>
        <time>2023-01-21T10:51:22.000Z</time>
      </trkpt>
      <trkpt lat="46.27536" lon="6.56521">
        <ele>1358</ele>
        <time>2023-01-21T10:51:23.000Z</time>
      </trkpt>
      <trkpt lat="46.27536" lon="6.56522">
        <ele>1358.2</ele>
        <time>2023-01-21T10:51:24.000Z</time>
      </trkpt>
      <trkpt lat="46.27536" lon="6.56522">
        <ele>1358.4</ele>
        <time>2023-01-21T10:51:25.000Z</time>
      </trkpt>
      <trkpt lat="46.27536" lon="6.56523">
        <ele>1358.5</ele>
        <time>2023-01-21T10:51:26.000Z</time>
      </trkpt>
      <trkpt lat="46.27536" lon="6.56523">
        <ele>1358.5</ele>
        <time>2023-01-21T10:51:27.000Z</time>
      </trkpt>
      <trkpt lat="46.27536" lon="6.56523">
        <ele>1358.5</ele>
        <time>2023-01-21T10:51:28.000Z</time>
      </trkpt>
      <trkpt lat="46.27536" lon="6.56523">
        <ele>1358.5</ele>
        <time>2023-01-21T10:51:29.000Z</time>
      </trkpt>
      <trkpt lat="46.27536" lon="6.56523">
        <ele>1358.5</ele>
        <time>2023-01-21T10:51:30.000Z</time>
      </trkpt>
      <trkpt lat="46.27538" lon="6.56526">
        <ele>1359.2</ele>
        <time>2023-01-21T10:51:31.000Z</time>
      </trkpt>
      <trkpt lat="46.27539" lon="6.56526">
        <ele>1359.5</ele>
        <time>2023-01-21T10:51:32.000Z</time>
      </trkpt>
      <trkpt lat="46.27539" lon="6.56527">
        <ele>1359.6</ele>
        <time>2023-01-21T10:51:33.000Z</time>
      </trkpt>
      <trkpt lat="46.27539" lon="6.56528">
        <ele>1359.8</ele>
        <time>2023-01-21T10:51:34.000Z</time>
      </trkpt>
      <trkpt lat="46.27539" lon="6.56529">
        <ele>1360</ele>
        <time>2023-01-21T10:51:35.000Z</time>
      </trkpt>
      <trkpt lat="46.27539" lon="6.56529">
        <ele>1360.2</ele>
        <time>2023-01-21T10:51:36.000Z</time>
      </trkpt>
      <trkpt lat="46.27539" lon="6.5653">
        <ele>1360.1</ele>
        <time>2023-01-21T10:51:37.000Z</time>
      </trkpt>
      <trkpt lat="46.27539" lon="6.5653">
        <ele>1359.9</ele>
        <time>2023-01-21T10:51:38.000Z</time>
      </trkpt>
      <trkpt lat="46.27539" lon="6.56531">
        <ele>1359.9</ele>
        <time>2023-01-21T10:51:39.000Z</time>
      </trkpt>
      <trkpt lat="46.27539" lon="6.56531">
        <ele>1360.2</ele>
        <time>2023-01-21T10:51:40.000Z</time>
      </trkpt>
      <trkpt lat="46.27539" lon="6.56531">
        <ele>1360.3</ele>
        <time>2023-01-21T10:51:41.000Z</time>
      </trkpt>
      <trkpt lat="46.27539" lon="6.56532">
        <ele>1360.4</ele>
        <time>2023-01-21T10:51:42.000Z</time>
      </trkpt>
      <trkpt lat="46.27539" lon="6.56532">
        <ele>1360.5</ele>
        <time>2023-01-21T10:51:43.000Z</time>
      </trkpt>
      <trkpt lat="46.27539" lon="6.56533">
        <ele>1360.7</ele>
        <time>2023-01-21T10:51:44.000Z</time>
      </trkpt>
      <trkpt lat="46.27539" lon="6.56534">
        <ele>1360.9</ele>
        <time>2023-01-21T10:51:45.000Z</time>
      </trkpt>
      <trkpt lat="46.27539" lon="6.56534">
        <ele>1361.1</ele>
        <time>2023-01-21T10:51:46.000Z</time>
      </trkpt>
      <trkpt lat="46.27539" lon="6.56534">
        <ele>1361.1</ele>
        <time>2023-01-21T10:51:47.000Z</time>
      </trkpt>
      <trkpt lat="46.27539" lon="6.56534">
        <ele>1361.1</ele>
        <time>2023-01-21T10:51:48.000Z</time>
      </trkpt>
      <trkpt lat="46.27539" lon="6.56534">
        <ele>1361.1</ele>
        <time>2023-01-21T10:51:49.000Z</time>
      </trkpt>
      <trkpt lat="46.27539" lon="6.56534">
        <ele>1361.1</ele>
        <time>2023-01-21T10:51:50.000Z</time>
      </trkpt>
      <trkpt lat="46.27539" lon="6.56534">
        <ele>1361.1</ele>
        <time>2023-01-21T10:51:51.000Z</time>
      </trkpt>
      <trkpt lat="46.27539" lon="6.56534">
        <ele>1361.1</ele>
        <time>2023-01-21T10:51:52.000Z</time>
      </trkpt>
      <trkpt lat="46.27539" lon="6.56534">
        <ele>1361.1</ele>
        <time>2023-01-21T10:51:53.000Z</time>
      </trkpt>
      <trkpt lat="46.27539" lon="6.56534">
        <ele>1361.1</ele>
        <time>2023-01-21T10:51:54.000Z</time>
      </trkpt>
      <trkpt lat="46.27539" lon="6.56534">
        <ele>1361.1</ele>
        <time>2023-01-21T10:51:55.000Z</time>
      </trkpt>
      <trkpt lat="46.27539" lon="6.56534">
        <ele>1361.1</ele>
        <time>2023-01-21T10:51:56.000Z</time>
      </trkpt>
      <trkpt lat="46.27539" lon="6.56534">
        <ele>1361.1</ele>
        <time>2023-01-21T10:51:57.000Z</time>
      </trkpt>
      <trkpt lat="46.27539" lon="6.56534">
        <ele>1361.1</ele>
        <time>2023-01-21T10:51:58.000Z</time>
      </trkpt>
      <trkpt lat="46.27539" lon="6.56534">
        <ele>1361.1</ele>
        <time>2023-01-21T10:51:59.000Z</time>
      </trkpt>
      <trkpt lat="46.27539" lon="6.56534">
        <ele>1361.1</ele>
        <time>2023-01-21T10:52:00.000Z</time>
      </trkpt>
      <trkpt lat="46.27539" lon="6.56534">
        <ele>1364.2</ele>
        <time>2023-01-21T10:52:01.000Z</time>
      </trkpt>
      <trkpt lat="46.27539" lon="6.56534">
        <ele>1364.2</ele>
        <time>2023-01-21T10:52:02.000Z</time>
      </trkpt>
      <trkpt lat="46.27539" lon="6.56534">
        <ele>1364.2</ele>
        <time>2023-01-21T10:52:03.000Z</time>
      </trkpt>
      <trkpt lat="46.27539" lon="6.56534">
        <ele>1364.2</ele>
        <time>2023-01-21T10:52:04.000Z</time>
      </trkpt>
      <trkpt lat="46.27539" lon="6.56534">
        <ele>1364.2</ele>
        <time>2023-01-21T10:52:05.000Z</time>
      </trkpt>
      <trkpt lat="46.27539" lon="6.56534">
        <ele>1364.2</ele>
        <time>2023-01-21T10:52:06.000Z</time>
      </trkpt>
      <trkpt lat="46.27539" lon="6.56534">
        <ele>1364.2</ele>
        <time>2023-01-21T10:52:07.000Z</time>
      </trkpt>
      <trkpt lat="46.27539" lon="6.56534">
        <ele>1364.2</ele>
        <time>2023-01-21T10:52:08.000Z</time>
      </trkpt>
      <trkpt lat="46.27539" lon="6.56534">
        <ele>1364.2</ele>
        <time>2023-01-21T10:52:09.000Z</time>
      </trkpt>
      <trkpt lat="46.27539" lon="6.56534">
        <ele>1364.2</ele>
        <time>2023-01-21T10:52:10.000Z</time>
      </trkpt>
      <trkpt lat="46.27539" lon="6.56534">
        <ele>1364.2</ele>
        <time>2023-01-21T10:52:11.000Z</time>
      </trkpt>
      <trkpt lat="46.27543" lon="6.56546">
        <ele>1365.5</ele>
        <time>2023-01-21T10:52:12.000Z</time>
      </trkpt>
      <trkpt lat="46.27543" lon="6.56547">
        <ele>1365.8</ele>
        <time>2023-01-21T10:52:13.000Z</time>
      </trkpt>
      <trkpt lat="46.27543" lon="6.56547">
        <ele>1365.9</ele>
        <time>2023-01-21T10:52:14.000Z</time>
      </trkpt>
      <trkpt lat="46.27543" lon="6.56547">
        <ele>1366.1</ele>
        <time>2023-01-21T10:52:15.000Z</time>
      </trkpt>
      <trkpt lat="46.27544" lon="6.56548">
        <ele>1366</ele>
        <time>2023-01-21T10:52:16.000Z</time>
      </trkpt>
      <trkpt lat="46.27544" lon="6.56548">
        <ele>1366.1</ele>
        <time>2023-01-21T10:52:17.000Z</time>
      </trkpt>
      <trkpt lat="46.27544" lon="6.56549">
        <ele>1366.1</ele>
        <time>2023-01-21T10:52:18.000Z</time>
      </trkpt>
      <trkpt lat="46.27543" lon="6.56549">
        <ele>1366.4</ele>
        <time>2023-01-21T10:52:19.000Z</time>
      </trkpt>
      <trkpt lat="46.27544" lon="6.5655">
        <ele>1366.4</ele>
        <time>2023-01-21T10:52:20.000Z</time>
      </trkpt>
      <trkpt lat="46.27544" lon="6.5655">
        <ele>1366.4</ele>
        <time>2023-01-21T10:52:21.000Z</time>
      </trkpt>
      <trkpt lat="46.27544" lon="6.5655">
        <ele>1366.3</ele>
        <time>2023-01-21T10:52:22.000Z</time>
      </trkpt>
      <trkpt lat="46.27544" lon="6.5655">
        <ele>1366.3</ele>
        <time>2023-01-21T10:52:23.000Z</time>
      </trkpt>
      <trkpt lat="46.27545" lon="6.5655">
        <ele>1366.2</ele>
        <time>2023-01-21T10:52:24.000Z</time>
      </trkpt>
      <trkpt lat="46.27545" lon="6.5655">
        <ele>1366.1</ele>
        <time>2023-01-21T10:52:25.000Z</time>
      </trkpt>
      <trkpt lat="46.27545" lon="6.5655">
        <ele>1365.9</ele>
        <time>2023-01-21T10:52:26.000Z</time>
      </trkpt>
      <trkpt lat="46.27545" lon="6.5655">
        <ele>1365.7</ele>
        <time>2023-01-21T10:52:27.000Z</time>
      </trkpt>
      <trkpt lat="46.27545" lon="6.5655">
        <ele>1365.8</ele>
        <time>2023-01-21T10:52:28.000Z</time>
      </trkpt>
      <trkpt lat="46.27545" lon="6.5655">
        <ele>1366.3</ele>
        <time>2023-01-21T10:52:29.000Z</time>
      </trkpt>
      <trkpt lat="46.27545" lon="6.5655">
        <ele>1366.3</ele>
        <time>2023-01-21T10:52:30.000Z</time>
      </trkpt>
      <trkpt lat="46.27545" lon="6.5655">
        <ele>1366.3</ele>
        <time>2023-01-21T10:52:31.000Z</time>
      </trkpt>
      <trkpt lat="46.27545" lon="6.5655">
        <ele>1366.3</ele>
        <time>2023-01-21T10:52:32.000Z</time>
      </trkpt>
      <trkpt lat="46.27545" lon="6.5655">
        <ele>1366.3</ele>
        <time>2023-01-21T10:52:33.000Z</time>
      </trkpt>
      <trkpt lat="46.27545" lon="6.5655">
        <ele>1366.3</ele>
        <time>2023-01-21T10:52:34.000Z</time>
      </trkpt>
      <trkpt lat="46.27545" lon="6.5655">
        <ele>1366.3</ele>
        <time>2023-01-21T10:52:35.000Z</time>
      </trkpt>
      <trkpt lat="46.27545" lon="6.5655">
        <ele>1366.3</ele>
        <time>2023-01-21T10:52:36.000Z</time>
      </trkpt>
      <trkpt lat="46.27545" lon="6.5655">
        <ele>1366.3</ele>
        <time>2023-01-21T10:52:37.000Z</time>
      </trkpt>
      <trkpt lat="46.27545" lon="6.5655">
        <ele>1366.3</ele>
        <time>2023-01-21T10:52:38.000Z</time>
      </trkpt>
      <trkpt lat="46.27545" lon="6.5655">
        <ele>1366.3</ele>
        <time>2023-01-21T10:52:39.000Z</time>
      </trkpt>
      <trkpt lat="46.27545" lon="6.5655">
        <ele>1366.3</ele>
        <time>2023-01-21T10:52:40.000Z</time>
      </trkpt>
      <trkpt lat="46.27545" lon="6.5655">
        <ele>1366.3</ele>
        <time>2023-01-21T10:52:41.000Z</time>
      </trkpt>
      <trkpt lat="46.27545" lon="6.5655">
        <ele>1370.5</ele>
        <time>2023-01-21T10:52:42.000Z</time>
      </trkpt>
      <trkpt lat="46.27545" lon="6.5655">
        <ele>1370.5</ele>
        <time>2023-01-21T10:52:43.000Z</time>
      </trkpt>
      <trkpt lat="46.27545" lon="6.5655">
        <ele>1370.5</ele>
        <time>2023-01-21T10:52:44.000Z</time>
      </trkpt>
      <trkpt lat="46.27545" lon="6.5655">
        <ele>1370.5</ele>
        <time>2023-01-21T10:52:45.000Z</time>
      </trkpt>
      <trkpt lat="46.27545" lon="6.5655">
        <ele>1370.5</ele>
        <time>2023-01-21T10:52:46.000Z</time>
      </trkpt>
      <trkpt lat="46.27547" lon="6.56556">
        <ele>1371.2</ele>
        <time>2023-01-21T10:52:47.000Z</time>
      </trkpt>
      <trkpt lat="46.27547" lon="6.56556">
        <ele>1371.4</ele>
        <time>2023-01-21T10:52:48.000Z</time>
      </trkpt>
      <trkpt lat="46.27547" lon="6.56557">
        <ele>1371.4</ele>
        <time>2023-01-21T10:52:49.000Z</time>
      </trkpt>
      <trkpt lat="46.27548" lon="6.56558">
        <ele>1371.4</ele>
        <time>2023-01-21T10:52:50.000Z</time>
      </trkpt>
      <trkpt lat="46.27548" lon="6.56558">
        <ele>1371.7</ele>
        <time>2023-01-21T10:52:51.000Z</time>
      </trkpt>
      <trkpt lat="46.27548" lon="6.56559">
        <ele>1371.8</ele>
        <time>2023-01-21T10:52:52.000Z</time>
      </trkpt>
      <trkpt lat="46.27548" lon="6.56559">
        <ele>1371.9</ele>
        <time>2023-01-21T10:52:53.000Z</time>
      </trkpt>
      <trkpt lat="46.27547" lon="6.56559">
        <ele>1372</ele>
        <time>2023-01-21T10:52:54.000Z</time>
      </trkpt>
      <trkpt lat="46.27547" lon="6.56559">
        <ele>1372.1</ele>
        <time>2023-01-21T10:52:55.000Z</time>
      </trkpt>
      <trkpt lat="46.27547" lon="6.56559">
        <ele>1372.3</ele>
        <time>2023-01-21T10:52:56.000Z</time>
      </trkpt>
      <trkpt lat="46.27546" lon="6.56559">
        <ele>1372.3</ele>
        <time>2023-01-21T10:52:57.000Z</time>
      </trkpt>
      <trkpt lat="46.27546" lon="6.56559">
        <ele>1372.7</ele>
        <time>2023-01-21T10:52:58.000Z</time>
      </trkpt>
      <trkpt lat="46.27546" lon="6.5656">
        <ele>1372.9</ele>
        <time>2023-01-21T10:52:59.000Z</time>
      </trkpt>
      <trkpt lat="46.27546" lon="6.5656">
        <ele>1372.9</ele>
        <time>2023-01-21T10:53:00.000Z</time>
      </trkpt>
      <trkpt lat="46.27546" lon="6.5656">
        <ele>1372.9</ele>
        <time>2023-01-21T10:53:01.000Z</time>
      </trkpt>
      <trkpt lat="46.27546" lon="6.5656">
        <ele>1372.9</ele>
        <time>2023-01-21T10:53:02.000Z</time>
      </trkpt>
      <trkpt lat="46.27546" lon="6.5656">
        <ele>1372.9</ele>
        <time>2023-01-21T10:53:03.000Z</time>
      </trkpt>
      <trkpt lat="46.27546" lon="6.56561">
        <ele>1374</ele>
        <time>2023-01-21T10:53:04.000Z</time>
      </trkpt>
      <trkpt lat="46.27546" lon="6.56561">
        <ele>1374.1</ele>
        <time>2023-01-21T10:53:05.000Z</time>
      </trkpt>
      <trkpt lat="46.27546" lon="6.56561">
        <ele>1374.1</ele>
        <time>2023-01-21T10:53:06.000Z</time>
      </trkpt>
      <trkpt lat="46.27546" lon="6.56562">
        <ele>1374</ele>
        <time>2023-01-21T10:53:07.000Z</time>
      </trkpt>
      <trkpt lat="46.27545" lon="6.56562">
        <ele>1373.6</ele>
        <time>2023-01-21T10:53:08.000Z</time>
      </trkpt>
      <trkpt lat="46.27545" lon="6.56562">
        <ele>1373.4</ele>
        <time>2023-01-21T10:53:09.000Z</time>
      </trkpt>
      <trkpt lat="46.27545" lon="6.56563">
        <ele>1373.1</ele>
        <time>2023-01-21T10:53:10.000Z</time>
      </trkpt>
      <trkpt lat="46.27545" lon="6.56563">
        <ele>1372.9</ele>
        <time>2023-01-21T10:53:11.000Z</time>
      </trkpt>
      <trkpt lat="46.27545" lon="6.56563">
        <ele>1372.7</ele>
        <time>2023-01-21T10:53:12.000Z</time>
      </trkpt>
      <trkpt lat="46.27545" lon="6.56564">
        <ele>1372.5</ele>
        <time>2023-01-21T10:53:13.000Z</time>
      </trkpt>
      <trkpt lat="46.27544" lon="6.56564">
        <ele>1372.2</ele>
        <time>2023-01-21T10:53:14.000Z</time>
      </trkpt>
      <trkpt lat="46.27544" lon="6.56564">
        <ele>1372.2</ele>
        <time>2023-01-21T10:53:15.000Z</time>
      </trkpt>
      <trkpt lat="46.27544" lon="6.56565">
        <ele>1372.1</ele>
        <time>2023-01-21T10:53:16.000Z</time>
      </trkpt>
      <trkpt lat="46.27544" lon="6.56565">
        <ele>1372.1</ele>
        <time>2023-01-21T10:53:17.000Z</time>
      </trkpt>
      <trkpt lat="46.27545" lon="6.56566">
        <ele>1372</ele>
        <time>2023-01-21T10:53:18.000Z</time>
      </trkpt>
      <trkpt lat="46.27546" lon="6.56566">
        <ele>1371.7</ele>
        <time>2023-01-21T10:53:19.000Z</time>
      </trkpt>
      <trkpt lat="46.27545" lon="6.56566">
        <ele>1371.7</ele>
        <time>2023-01-21T10:53:20.000Z</time>
      </trkpt>
      <trkpt lat="46.27545" lon="6.56566">
        <ele>1371.7</ele>
        <time>2023-01-21T10:53:21.000Z</time>
      </trkpt>
      <trkpt lat="46.27545" lon="6.56566">
        <ele>1371.6</ele>
        <time>2023-01-21T10:53:22.000Z</time>
      </trkpt>
      <trkpt lat="46.27545" lon="6.56566">
        <ele>1371.7</ele>
        <time>2023-01-21T10:53:23.000Z</time>
      </trkpt>
      <trkpt lat="46.27545" lon="6.56566">
        <ele>1371.8</ele>
        <time>2023-01-21T10:53:24.000Z</time>
      </trkpt>
      <trkpt lat="46.27544" lon="6.56566">
        <ele>1371.9</ele>
        <time>2023-01-21T10:53:25.000Z</time>
      </trkpt>
      <trkpt lat="46.27543" lon="6.56566">
        <ele>1371.9</ele>
        <time>2023-01-21T10:53:26.000Z</time>
      </trkpt>
      <trkpt lat="46.27543" lon="6.56566">
        <ele>1372</ele>
        <time>2023-01-21T10:53:27.000Z</time>
      </trkpt>
      <trkpt lat="46.27542" lon="6.56564">
        <ele>1371.8</ele>
        <time>2023-01-21T10:53:28.000Z</time>
      </trkpt>
      <trkpt lat="46.27543" lon="6.56564">
        <ele>1372.2</ele>
        <time>2023-01-21T10:53:29.000Z</time>
      </trkpt>
      <trkpt lat="46.27543" lon="6.56565">
        <ele>1372.3</ele>
        <time>2023-01-21T10:53:30.000Z</time>
      </trkpt>
      <trkpt lat="46.27543" lon="6.56566">
        <ele>1372.8</ele>
        <time>2023-01-21T10:53:31.000Z</time>
      </trkpt>
      <trkpt lat="46.27543" lon="6.56566">
        <ele>1372.8</ele>
        <time>2023-01-21T10:53:32.000Z</time>
      </trkpt>
      <trkpt lat="46.27542" lon="6.56566">
        <ele>1372.8</ele>
        <time>2023-01-21T10:53:33.000Z</time>
      </trkpt>
      <trkpt lat="46.27542" lon="6.56566">
        <ele>1373.2</ele>
        <time>2023-01-21T10:53:34.000Z</time>
      </trkpt>
      <trkpt lat="46.27542" lon="6.56566">
        <ele>1373.6</ele>
        <time>2023-01-21T10:53:35.000Z</time>
      </trkpt>
      <trkpt lat="46.27542" lon="6.56566">
        <ele>1373.8</ele>
        <time>2023-01-21T10:53:36.000Z</time>
      </trkpt>
      <trkpt lat="46.27542" lon="6.56568">
        <ele>1373.8</ele>
        <time>2023-01-21T10:53:37.000Z</time>
      </trkpt>
      <trkpt lat="46.27542" lon="6.56569">
        <ele>1373.9</ele>
        <time>2023-01-21T10:53:38.000Z</time>
      </trkpt>
      <trkpt lat="46.27542" lon="6.5657">
        <ele>1374.1</ele>
        <time>2023-01-21T10:53:39.000Z</time>
      </trkpt>
      <trkpt lat="46.27541" lon="6.56571">
        <ele>1374.2</ele>
        <time>2023-01-21T10:53:40.000Z</time>
      </trkpt>
      <trkpt lat="46.2754" lon="6.56573">
        <ele>1374.2</ele>
        <time>2023-01-21T10:53:41.000Z</time>
      </trkpt>
      <trkpt lat="46.2754" lon="6.56573">
        <ele>1374.4</ele>
        <time>2023-01-21T10:53:42.000Z</time>
      </trkpt>
      <trkpt lat="46.2754" lon="6.56574">
        <ele>1374.5</ele>
        <time>2023-01-21T10:53:43.000Z</time>
      </trkpt>
      <trkpt lat="46.2754" lon="6.56575">
        <ele>1374.9</ele>
        <time>2023-01-21T10:53:44.000Z</time>
      </trkpt>
      <trkpt lat="46.27539" lon="6.56575">
        <ele>1375</ele>
        <time>2023-01-21T10:53:45.000Z</time>
      </trkpt>
      <trkpt lat="46.2754" lon="6.56577">
        <ele>1375.2</ele>
        <time>2023-01-21T10:53:46.000Z</time>
      </trkpt>
      <trkpt lat="46.27539" lon="6.56578">
        <ele>1375.3</ele>
        <time>2023-01-21T10:53:47.000Z</time>
      </trkpt>
      <trkpt lat="46.2754" lon="6.56579">
        <ele>1375.7</ele>
        <time>2023-01-21T10:53:48.000Z</time>
      </trkpt>
      <trkpt lat="46.27539" lon="6.56579">
        <ele>1376</ele>
        <time>2023-01-21T10:53:49.000Z</time>
      </trkpt>
      <trkpt lat="46.27539" lon="6.56579">
        <ele>1376.2</ele>
        <time>2023-01-21T10:53:50.000Z</time>
      </trkpt>
      <trkpt lat="46.27539" lon="6.5658">
        <ele>1376.3</ele>
        <time>2023-01-21T10:53:51.000Z</time>
      </trkpt>
      <trkpt lat="46.27539" lon="6.5658">
        <ele>1376.4</ele>
        <time>2023-01-21T10:53:52.000Z</time>
      </trkpt>
      <trkpt lat="46.27539" lon="6.56581">
        <ele>1376.7</ele>
        <time>2023-01-21T10:53:53.000Z</time>
      </trkpt>
      <trkpt lat="46.27539" lon="6.56581">
        <ele>1377.1</ele>
        <time>2023-01-21T10:53:54.000Z</time>
      </trkpt>
      <trkpt lat="46.27539" lon="6.56582">
        <ele>1377.3</ele>
        <time>2023-01-21T10:53:55.000Z</time>
      </trkpt>
      <trkpt lat="46.27539" lon="6.56582">
        <ele>1377.6</ele>
        <time>2023-01-21T10:53:56.000Z</time>
      </trkpt>
      <trkpt lat="46.27538" lon="6.56583">
        <ele>1378.1</ele>
        <time>2023-01-21T10:53:57.000Z</time>
      </trkpt>
      <trkpt lat="46.27538" lon="6.56584">
        <ele>1378.8</ele>
        <time>2023-01-21T10:53:58.000Z</time>
      </trkpt>
      <trkpt lat="46.27538" lon="6.56584">
        <ele>1379.2</ele>
        <time>2023-01-21T10:53:59.000Z</time>
      </trkpt>
      <trkpt lat="46.27538" lon="6.56584">
        <ele>1379.4</ele>
        <time>2023-01-21T10:54:00.000Z</time>
      </trkpt>
      <trkpt lat="46.27538" lon="6.56584">
        <ele>1380</ele>
        <time>2023-01-21T10:54:01.000Z</time>
      </trkpt>
      <trkpt lat="46.27538" lon="6.56583">
        <ele>1380.5</ele>
        <time>2023-01-21T10:54:02.000Z</time>
      </trkpt>
      <trkpt lat="46.27538" lon="6.56584">
        <ele>1380.6</ele>
        <time>2023-01-21T10:54:03.000Z</time>
      </trkpt>
      <trkpt lat="46.27538" lon="6.56584">
        <ele>1380.6</ele>
        <time>2023-01-21T10:54:04.000Z</time>
      </trkpt>
      <trkpt lat="46.27538" lon="6.56584">
        <ele>1380.6</ele>
        <time>2023-01-21T10:54:05.000Z</time>
      </trkpt>
      <trkpt lat="46.27538" lon="6.56584">
        <ele>1380.6</ele>
        <time>2023-01-21T10:54:06.000Z</time>
      </trkpt>
      <trkpt lat="46.27538" lon="6.56584">
        <ele>1380.6</ele>
        <time>2023-01-21T10:54:07.000Z</time>
      </trkpt>
      <trkpt lat="46.27538" lon="6.56584">
        <ele>1380.6</ele>
        <time>2023-01-21T10:54:08.000Z</time>
      </trkpt>
      <trkpt lat="46.27538" lon="6.56584">
        <ele>1380.6</ele>
        <time>2023-01-21T10:54:09.000Z</time>
      </trkpt>
      <trkpt lat="46.27538" lon="6.56584">
        <ele>1380.6</ele>
        <time>2023-01-21T10:54:10.000Z</time>
      </trkpt>
      <trkpt lat="46.27538" lon="6.56584">
        <ele>1380.6</ele>
        <time>2023-01-21T10:54:11.000Z</time>
      </trkpt>
      <trkpt lat="46.27538" lon="6.56584">
        <ele>1380.6</ele>
        <time>2023-01-21T10:54:12.000Z</time>
      </trkpt>
      <trkpt lat="46.27538" lon="6.56584">
        <ele>1380.6</ele>
        <time>2023-01-21T10:54:13.000Z</time>
      </trkpt>
      <trkpt lat="46.27538" lon="6.56584">
        <ele>1380.6</ele>
        <time>2023-01-21T10:54:14.000Z</time>
      </trkpt>
      <trkpt lat="46.27538" lon="6.56584">
        <ele>1380.6</ele>
        <time>2023-01-21T10:54:15.000Z</time>
      </trkpt>
      <trkpt lat="46.27538" lon="6.56584">
        <ele>1380.6</ele>
        <time>2023-01-21T10:54:16.000Z</time>
      </trkpt>
      <trkpt lat="46.27538" lon="6.56584">
        <ele>1380.6</ele>
        <time>2023-01-21T10:54:17.000Z</time>
      </trkpt>
      <trkpt lat="46.27538" lon="6.56584">
        <ele>1380.6</ele>
        <time>2023-01-21T10:54:18.000Z</time>
      </trkpt>
      <trkpt lat="46.27538" lon="6.56584">
        <ele>1380.6</ele>
        <time>2023-01-21T10:54:19.000Z</time>
      </trkpt>
      <trkpt lat="46.27538" lon="6.56584">
        <ele>1380.6</ele>
        <time>2023-01-21T10:54:20.000Z</time>
      </trkpt>
      <trkpt lat="46.27538" lon="6.56584">
        <ele>1380.6</ele>
        <time>2023-01-21T10:54:21.000Z</time>
      </trkpt>
      <trkpt lat="46.27538" lon="6.56584">
        <ele>1380.6</ele>
        <time>2023-01-21T10:54:22.000Z</time>
      </trkpt>
      <trkpt lat="46.27538" lon="6.56584">
        <ele>1380.6</ele>
        <time>2023-01-21T10:54:23.000Z</time>
      </trkpt>
      <trkpt lat="46.27538" lon="6.56584">
        <ele>1380.6</ele>
        <time>2023-01-21T10:54:24.000Z</time>
      </trkpt>
      <trkpt lat="46.27538" lon="6.56584">
        <ele>1380.6</ele>
        <time>2023-01-21T10:54:25.000Z</time>
      </trkpt>
      <trkpt lat="46.27538" lon="6.56584">
        <ele>1380.6</ele>
        <time>2023-01-21T10:54:26.000Z</time>
      </trkpt>
      <trkpt lat="46.27538" lon="6.56584">
        <ele>1380.6</ele>
        <time>2023-01-21T10:54:27.000Z</time>
      </trkpt>
      <trkpt lat="46.27538" lon="6.56584">
        <ele>1380.6</ele>
        <time>2023-01-21T10:54:28.000Z</time>
      </trkpt>
      <trkpt lat="46.27538" lon="6.56584">
        <ele>1380.6</ele>
        <time>2023-01-21T10:54:29.000Z</time>
      </trkpt>
      <trkpt lat="46.27538" lon="6.56584">
        <ele>1380.6</ele>
        <time>2023-01-21T10:54:30.000Z</time>
      </trkpt>
      <trkpt lat="46.27538" lon="6.56584">
        <ele>1380.6</ele>
        <time>2023-01-21T10:54:31.000Z</time>
      </trkpt>
      <trkpt lat="46.27538" lon="6.56584">
        <ele>1380.6</ele>
        <time>2023-01-21T10:54:32.000Z</time>
      </trkpt>
      <trkpt lat="46.27538" lon="6.56584">
        <ele>1380.6</ele>
        <time>2023-01-21T10:54:33.000Z</time>
      </trkpt>
      <trkpt lat="46.27538" lon="6.56584">
        <ele>1380.6</ele>
        <time>2023-01-21T10:54:34.000Z</time>
      </trkpt>
      <trkpt lat="46.27538" lon="6.56584">
        <ele>1380.6</ele>
        <time>2023-01-21T10:54:35.000Z</time>
      </trkpt>
      <trkpt lat="46.27538" lon="6.56584">
        <ele>1380.6</ele>
        <time>2023-01-21T10:54:36.000Z</time>
      </trkpt>
      <trkpt lat="46.27538" lon="6.56584">
        <ele>1380.6</ele>
        <time>2023-01-21T10:54:37.000Z</time>
      </trkpt>
      <trkpt lat="46.27536" lon="6.56583">
        <ele>1382.9</ele>
        <time>2023-01-21T10:54:38.000Z</time>
      </trkpt>
      <trkpt lat="46.27536" lon="6.56582">
        <ele>1382.6</ele>
        <time>2023-01-21T10:54:39.000Z</time>
      </trkpt>
      <trkpt lat="46.27536" lon="6.56582">
        <ele>1382.4</ele>
        <time>2023-01-21T10:54:40.000Z</time>
      </trkpt>
      <trkpt lat="46.27537" lon="6.56582">
        <ele>1382.3</ele>
        <time>2023-01-21T10:54:41.000Z</time>
      </trkpt>
      <trkpt lat="46.27537" lon="6.56582">
        <ele>1382.3</ele>
        <time>2023-01-21T10:54:42.000Z</time>
      </trkpt>
      <trkpt lat="46.27537" lon="6.56582">
        <ele>1382.4</ele>
        <time>2023-01-21T10:54:43.000Z</time>
      </trkpt>
      <trkpt lat="46.27538" lon="6.56581">
        <ele>1382.4</ele>
        <time>2023-01-21T10:54:44.000Z</time>
      </trkpt>
      <trkpt lat="46.27538" lon="6.56581">
        <ele>1382.5</ele>
        <time>2023-01-21T10:54:45.000Z</time>
      </trkpt>
      <trkpt lat="46.27538" lon="6.56582">
        <ele>1382.7</ele>
        <time>2023-01-21T10:54:46.000Z</time>
      </trkpt>
      <trkpt lat="46.27538" lon="6.56582">
        <ele>1383</ele>
        <time>2023-01-21T10:54:47.000Z</time>
      </trkpt>
      <trkpt lat="46.27538" lon="6.56583">
        <ele>1383.3</ele>
        <time>2023-01-21T10:54:48.000Z</time>
      </trkpt>
      <trkpt lat="46.27538" lon="6.56584">
        <ele>1383.3</ele>
        <time>2023-01-21T10:54:49.000Z</time>
      </trkpt>
      <trkpt lat="46.27537" lon="6.56584">
        <ele>1383.1</ele>
        <time>2023-01-21T10:54:50.000Z</time>
      </trkpt>
      <trkpt lat="46.27537" lon="6.56584">
        <ele>1383.1</ele>
        <time>2023-01-21T10:54:51.000Z</time>
      </trkpt>
      <trkpt lat="46.27537" lon="6.56584">
        <ele>1383.1</ele>
        <time>2023-01-21T10:54:52.000Z</time>
      </trkpt>
      <trkpt lat="46.27537" lon="6.56584">
        <ele>1383.1</ele>
        <time>2023-01-21T10:54:53.000Z</time>
      </trkpt>
      <trkpt lat="46.27537" lon="6.56584">
        <ele>1383.1</ele>
        <time>2023-01-21T10:54:54.000Z</time>
      </trkpt>
      <trkpt lat="46.27537" lon="6.56584">
        <ele>1383.1</ele>
        <time>2023-01-21T10:54:55.000Z</time>
      </trkpt>
      <trkpt lat="46.27537" lon="6.56584">
        <ele>1383.1</ele>
        <time>2023-01-21T10:54:56.000Z</time>
      </trkpt>
      <trkpt lat="46.27537" lon="6.56584">
        <ele>1383.1</ele>
        <time>2023-01-21T10:54:57.000Z</time>
      </trkpt>
      <trkpt lat="46.27537" lon="6.56584">
        <ele>1383.1</ele>
        <time>2023-01-21T10:54:58.000Z</time>
      </trkpt>
      <trkpt lat="46.27537" lon="6.56584">
        <ele>1383.1</ele>
        <time>2023-01-21T10:54:59.000Z</time>
      </trkpt>
      <trkpt lat="46.27537" lon="6.56584">
        <ele>1383.1</ele>
        <time>2023-01-21T10:55:00.000Z</time>
      </trkpt>
      <trkpt lat="46.27537" lon="6.56584">
        <ele>1383.1</ele>
        <time>2023-01-21T10:55:01.000Z</time>
      </trkpt>
      <trkpt lat="46.27537" lon="6.56584">
        <ele>1383.1</ele>
        <time>2023-01-21T10:55:02.000Z</time>
      </trkpt>
      <trkpt lat="46.27537" lon="6.56584">
        <ele>1383.1</ele>
        <time>2023-01-21T10:55:03.000Z</time>
      </trkpt>
      <trkpt lat="46.27537" lon="6.56584">
        <ele>1383.1</ele>
        <time>2023-01-21T10:55:04.000Z</time>
      </trkpt>
      <trkpt lat="46.27537" lon="6.56584">
        <ele>1383.1</ele>
        <time>2023-01-21T10:55:05.000Z</time>
      </trkpt>
      <trkpt lat="46.27537" lon="6.56584">
        <ele>1383.1</ele>
        <time>2023-01-21T10:55:06.000Z</time>
      </trkpt>
      <trkpt lat="46.27537" lon="6.56584">
        <ele>1383.1</ele>
        <time>2023-01-21T10:55:07.000Z</time>
      </trkpt>
      <trkpt lat="46.27537" lon="6.56584">
        <ele>1383.1</ele>
        <time>2023-01-21T10:55:08.000Z</time>
      </trkpt>
      <trkpt lat="46.27536" lon="6.56584">
        <ele>1383</ele>
        <time>2023-01-21T10:55:09.000Z</time>
      </trkpt>
      <trkpt lat="46.27536" lon="6.56584">
        <ele>1382.9</ele>
        <time>2023-01-21T10:55:10.000Z</time>
      </trkpt>
      <trkpt lat="46.27536" lon="6.56582">
        <ele>1382.7</ele>
        <time>2023-01-21T10:55:11.000Z</time>
      </trkpt>
      <trkpt lat="46.27536" lon="6.56582">
        <ele>1382.5</ele>
        <time>2023-01-21T10:55:12.000Z</time>
      </trkpt>
      <trkpt lat="46.27535" lon="6.56582">
        <ele>1382.4</ele>
        <time>2023-01-21T10:55:13.000Z</time>
      </trkpt>
      <trkpt lat="46.27535" lon="6.56582">
        <ele>1382.4</ele>
        <time>2023-01-21T10:55:14.000Z</time>
      </trkpt>
      <trkpt lat="46.27535" lon="6.56582">
        <ele>1382.4</ele>
        <time>2023-01-21T10:55:15.000Z</time>
      </trkpt>
      <trkpt lat="46.27535" lon="6.56582">
        <ele>1382.4</ele>
        <time>2023-01-21T10:55:16.000Z</time>
      </trkpt>
      <trkpt lat="46.27535" lon="6.56582">
        <ele>1382.4</ele>
        <time>2023-01-21T10:55:17.000Z</time>
      </trkpt>
      <trkpt lat="46.27534" lon="6.56586">
        <ele>1382.5</ele>
        <time>2023-01-21T10:55:18.000Z</time>
      </trkpt>
      <trkpt lat="46.27533" lon="6.56587">
        <ele>1382.3</ele>
        <time>2023-01-21T10:55:19.000Z</time>
      </trkpt>
      <trkpt lat="46.27533" lon="6.56588">
        <ele>1382.6</ele>
        <time>2023-01-21T10:55:20.000Z</time>
      </trkpt>
      <trkpt lat="46.27533" lon="6.56589">
        <ele>1382.6</ele>
        <time>2023-01-21T10:55:21.000Z</time>
      </trkpt>
      <trkpt lat="46.27532" lon="6.5659">
        <ele>1382.6</ele>
        <time>2023-01-21T10:55:22.000Z</time>
      </trkpt>
      <trkpt lat="46.27532" lon="6.5659">
        <ele>1382.4</ele>
        <time>2023-01-21T10:55:23.000Z</time>
      </trkpt>
      <trkpt lat="46.27532" lon="6.5659">
        <ele>1382.4</ele>
        <time>2023-01-21T10:55:24.000Z</time>
      </trkpt>
      <trkpt lat="46.27532" lon="6.56589">
        <ele>1382.2</ele>
        <time>2023-01-21T10:55:25.000Z</time>
      </trkpt>
      <trkpt lat="46.27534" lon="6.56588">
        <ele>1382.2</ele>
        <time>2023-01-21T10:55:26.000Z</time>
      </trkpt>
      <trkpt lat="46.27535" lon="6.56589">
        <ele>1382.1</ele>
        <time>2023-01-21T10:55:27.000Z</time>
      </trkpt>
      <trkpt lat="46.27535" lon="6.56589">
        <ele>1382.1</ele>
        <time>2023-01-21T10:55:28.000Z</time>
      </trkpt>
      <trkpt lat="46.27535" lon="6.5659">
        <ele>1382.1</ele>
        <time>2023-01-21T10:55:29.000Z</time>
      </trkpt>
      <trkpt lat="46.27534" lon="6.5659">
        <ele>1382</ele>
        <time>2023-01-21T10:55:30.000Z</time>
      </trkpt>
      <trkpt lat="46.27534" lon="6.56589">
        <ele>1381.8</ele>
        <time>2023-01-21T10:55:31.000Z</time>
      </trkpt>
      <trkpt lat="46.27535" lon="6.56588">
        <ele>1382.2</ele>
        <time>2023-01-21T10:55:32.000Z</time>
      </trkpt>
      <trkpt lat="46.27535" lon="6.56588">
        <ele>1382.7</ele>
        <time>2023-01-21T10:55:33.000Z</time>
      </trkpt>
      <trkpt lat="46.27535" lon="6.56588">
        <ele>1383.2</ele>
        <time>2023-01-21T10:55:34.000Z</time>
      </trkpt>
      <trkpt lat="46.27535" lon="6.56588">
        <ele>1383.2</ele>
        <time>2023-01-21T10:55:35.000Z</time>
      </trkpt>
      <trkpt lat="46.27535" lon="6.56588">
        <ele>1383.2</ele>
        <time>2023-01-21T10:55:36.000Z</time>
      </trkpt>
      <trkpt lat="46.27535" lon="6.56588">
        <ele>1383.2</ele>
        <time>2023-01-21T10:55:37.000Z</time>
      </trkpt>
      <trkpt lat="46.27535" lon="6.56588">
        <ele>1383.2</ele>
        <time>2023-01-21T10:55:38.000Z</time>
      </trkpt>
      <trkpt lat="46.27535" lon="6.56588">
        <ele>1383.2</ele>
        <time>2023-01-21T10:55:39.000Z</time>
      </trkpt>
      <trkpt lat="46.27535" lon="6.56588">
        <ele>1383.2</ele>
        <time>2023-01-21T10:55:40.000Z</time>
      </trkpt>
      <trkpt lat="46.27535" lon="6.56588">
        <ele>1383.2</ele>
        <time>2023-01-21T10:55:41.000Z</time>
      </trkpt>
      <trkpt lat="46.27535" lon="6.56588">
        <ele>1383.2</ele>
        <time>2023-01-21T10:55:42.000Z</time>
      </trkpt>
      <trkpt lat="46.27535" lon="6.56588">
        <ele>1383.2</ele>
        <time>2023-01-21T10:55:43.000Z</time>
      </trkpt>
      <trkpt lat="46.27535" lon="6.56588">
        <ele>1383.2</ele>
        <time>2023-01-21T10:55:44.000Z</time>
      </trkpt>
      <trkpt lat="46.27535" lon="6.56588">
        <ele>1383.2</ele>
        <time>2023-01-21T10:55:45.000Z</time>
      </trkpt>
      <trkpt lat="46.27535" lon="6.56588">
        <ele>1383.2</ele>
        <time>2023-01-21T10:55:46.000Z</time>
      </trkpt>
      <trkpt lat="46.27535" lon="6.56588">
        <ele>1383.2</ele>
        <time>2023-01-21T10:55:47.000Z</time>
      </trkpt>
      <trkpt lat="46.27535" lon="6.56588">
        <ele>1383.2</ele>
        <time>2023-01-21T10:55:48.000Z</time>
      </trkpt>
      <trkpt lat="46.27535" lon="6.56588">
        <ele>1383.2</ele>
        <time>2023-01-21T10:55:49.000Z</time>
      </trkpt>
      <trkpt lat="46.27535" lon="6.56588">
        <ele>1383.2</ele>
        <time>2023-01-21T10:55:50.000Z</time>
      </trkpt>
      <trkpt lat="46.27535" lon="6.56588">
        <ele>1383.2</ele>
        <time>2023-01-21T10:55:51.000Z</time>
      </trkpt>
      <trkpt lat="46.27535" lon="6.56588">
        <ele>1383.2</ele>
        <time>2023-01-21T10:55:52.000Z</time>
      </trkpt>
      <trkpt lat="46.27535" lon="6.56588">
        <ele>1383.2</ele>
        <time>2023-01-21T10:55:53.000Z</time>
      </trkpt>
      <trkpt lat="46.27535" lon="6.56588">
        <ele>1383.2</ele>
        <time>2023-01-21T10:55:54.000Z</time>
      </trkpt>
      <trkpt lat="46.27535" lon="6.56588">
        <ele>1383.2</ele>
        <time>2023-01-21T10:55:55.000Z</time>
      </trkpt>
      <trkpt lat="46.27535" lon="6.56588">
        <ele>1383.2</ele>
        <time>2023-01-21T10:55:56.000Z</time>
      </trkpt>
      <trkpt lat="46.27535" lon="6.56588">
        <ele>1383.2</ele>
        <time>2023-01-21T10:55:57.000Z</time>
      </trkpt>
      <trkpt lat="46.27535" lon="6.56588">
        <ele>1383.2</ele>
        <time>2023-01-21T10:55:58.000Z</time>
      </trkpt>
      <trkpt lat="46.27535" lon="6.56588">
        <ele>1383.2</ele>
        <time>2023-01-21T10:55:59.000Z</time>
      </trkpt>
      <trkpt lat="46.27535" lon="6.56588">
        <ele>1383.2</ele>
        <time>2023-01-21T10:56:00.000Z</time>
      </trkpt>
      <trkpt lat="46.27535" lon="6.56588">
        <ele>1383.2</ele>
        <time>2023-01-21T10:56:01.000Z</time>
      </trkpt>
      <trkpt lat="46.27535" lon="6.56588">
        <ele>1383.2</ele>
        <time>2023-01-21T10:56:02.000Z</time>
      </trkpt>
      <trkpt lat="46.27535" lon="6.56588">
        <ele>1383.2</ele>
        <time>2023-01-21T10:56:03.000Z</time>
      </trkpt>
      <trkpt lat="46.27535" lon="6.56588">
        <ele>1383.2</ele>
        <time>2023-01-21T10:56:04.000Z</time>
      </trkpt>
      <trkpt lat="46.27535" lon="6.56588">
        <ele>1383.2</ele>
        <time>2023-01-21T10:56:05.000Z</time>
      </trkpt>
      <trkpt lat="46.27535" lon="6.56588">
        <ele>1383.2</ele>
        <time>2023-01-21T10:56:06.000Z</time>
      </trkpt>
      <trkpt lat="46.27535" lon="6.56588">
        <ele>1383.2</ele>
        <time>2023-01-21T10:56:07.000Z</time>
      </trkpt>
      <trkpt lat="46.27535" lon="6.56588">
        <ele>1383.2</ele>
        <time>2023-01-21T10:56:08.000Z</time>
      </trkpt>
      <trkpt lat="46.27535" lon="6.56588">
        <ele>1383.2</ele>
        <time>2023-01-21T10:56:09.000Z</time>
      </trkpt>
      <trkpt lat="46.27535" lon="6.56588">
        <ele>1383.2</ele>
        <time>2023-01-21T10:56:10.000Z</time>
      </trkpt>
      <trkpt lat="46.27535" lon="6.56588">
        <ele>1383.2</ele>
        <time>2023-01-21T10:56:11.000Z</time>
      </trkpt>
      <trkpt lat="46.27535" lon="6.56588">
        <ele>1383.2</ele>
        <time>2023-01-21T10:56:12.000Z</time>
      </trkpt>
      <trkpt lat="46.27535" lon="6.56588">
        <ele>1383.2</ele>
        <time>2023-01-21T10:56:13.000Z</time>
      </trkpt>
      <trkpt lat="46.27535" lon="6.56588">
        <ele>1383.2</ele>
        <time>2023-01-21T10:56:14.000Z</time>
      </trkpt>
      <trkpt lat="46.27535" lon="6.56588">
        <ele>1383.2</ele>
        <time>2023-01-21T10:56:15.000Z</time>
      </trkpt>
      <trkpt lat="46.27535" lon="6.56588">
        <ele>1383.2</ele>
        <time>2023-01-21T10:56:16.000Z</time>
      </trkpt>
      <trkpt lat="46.27535" lon="6.56586">
        <ele>1384.5</ele>
        <time>2023-01-21T10:56:17.000Z</time>
      </trkpt>
      <trkpt lat="46.27535" lon="6.56585">
        <ele>1384.5</ele>
        <time>2023-01-21T10:56:18.000Z</time>
      </trkpt>
      <trkpt lat="46.27535" lon="6.56585">
        <ele>1384.7</ele>
        <time>2023-01-21T10:56:19.000Z</time>
      </trkpt>
      <trkpt lat="46.27534" lon="6.56586">
        <ele>1384.9</ele>
        <time>2023-01-21T10:56:20.000Z</time>
      </trkpt>
      <trkpt lat="46.27534" lon="6.56586">
        <ele>1384.9</ele>
        <time>2023-01-21T10:56:21.000Z</time>
      </trkpt>
      <trkpt lat="46.27534" lon="6.56586">
        <ele>1384.9</ele>
        <time>2023-01-21T10:56:22.000Z</time>
      </trkpt>
      <trkpt lat="46.27533" lon="6.56585">
        <ele>1385.1</ele>
        <time>2023-01-21T10:56:23.000Z</time>
      </trkpt>
      <trkpt lat="46.27533" lon="6.56586">
        <ele>1385</ele>
        <time>2023-01-21T10:56:24.000Z</time>
      </trkpt>
      <trkpt lat="46.27532" lon="6.56586">
        <ele>1385</ele>
        <time>2023-01-21T10:56:25.000Z</time>
      </trkpt>
      <trkpt lat="46.27532" lon="6.56587">
        <ele>1384.9</ele>
        <time>2023-01-21T10:56:26.000Z</time>
      </trkpt>
      <trkpt lat="46.27531" lon="6.56588">
        <ele>1385</ele>
        <time>2023-01-21T10:56:27.000Z</time>
      </trkpt>
      <trkpt lat="46.27531" lon="6.56588">
        <ele>1385.1</ele>
        <time>2023-01-21T10:56:28.000Z</time>
      </trkpt>
      <trkpt lat="46.2753" lon="6.56588">
        <ele>1385.3</ele>
        <time>2023-01-21T10:56:29.000Z</time>
      </trkpt>
      <trkpt lat="46.2753" lon="6.56588">
        <ele>1385.5</ele>
        <time>2023-01-21T10:56:30.000Z</time>
      </trkpt>
      <trkpt lat="46.2753" lon="6.56588">
        <ele>1385.6</ele>
        <time>2023-01-21T10:56:31.000Z</time>
      </trkpt>
      <trkpt lat="46.2753" lon="6.56587">
        <ele>1385.7</ele>
        <time>2023-01-21T10:56:32.000Z</time>
      </trkpt>
      <trkpt lat="46.2753" lon="6.56587">
        <ele>1385.6</ele>
        <time>2023-01-21T10:56:33.000Z</time>
      </trkpt>
      <trkpt lat="46.2753" lon="6.56586">
        <ele>1385.6</ele>
        <time>2023-01-21T10:56:34.000Z</time>
      </trkpt>
      <trkpt lat="46.27532" lon="6.56587">
        <ele>1385.5</ele>
        <time>2023-01-21T10:56:35.000Z</time>
      </trkpt>
      <trkpt lat="46.27534" lon="6.56586">
        <ele>1385.5</ele>
        <time>2023-01-21T10:56:36.000Z</time>
      </trkpt>
      <trkpt lat="46.27536" lon="6.56587">
        <ele>1385.4</ele>
        <time>2023-01-21T10:56:37.000Z</time>
      </trkpt>
      <trkpt lat="46.27536" lon="6.56586">
        <ele>1385</ele>
        <time>2023-01-21T10:56:38.000Z</time>
      </trkpt>
      <trkpt lat="46.27536" lon="6.56585">
        <ele>1385.2</ele>
        <time>2023-01-21T10:56:39.000Z</time>
      </trkpt>
      <trkpt lat="46.27536" lon="6.56585">
        <ele>1384.9</ele>
        <time>2023-01-21T10:56:40.000Z</time>
      </trkpt>
      <trkpt lat="46.27535" lon="6.56584">
        <ele>1384.3</ele>
        <time>2023-01-21T10:56:41.000Z</time>
      </trkpt>
      <trkpt lat="46.27535" lon="6.56584">
        <ele>1383.7</ele>
        <time>2023-01-21T10:56:42.000Z</time>
      </trkpt>
      <trkpt lat="46.27535" lon="6.56584">
        <ele>1383.9</ele>
        <time>2023-01-21T10:56:43.000Z</time>
      </trkpt>
      <trkpt lat="46.27535" lon="6.56584">
        <ele>1383.9</ele>
        <time>2023-01-21T10:56:44.000Z</time>
      </trkpt>
      <trkpt lat="46.27534" lon="6.56585">
        <ele>1384</ele>
        <time>2023-01-21T10:56:45.000Z</time>
      </trkpt>
      <trkpt lat="46.27534" lon="6.56586">
        <ele>1384.3</ele>
        <time>2023-01-21T10:56:46.000Z</time>
      </trkpt>
      <trkpt lat="46.27534" lon="6.56587">
        <ele>1384.5</ele>
        <time>2023-01-21T10:56:47.000Z</time>
      </trkpt>
      <trkpt lat="46.27533" lon="6.56588">
        <ele>1384.8</ele>
        <time>2023-01-21T10:56:48.000Z</time>
      </trkpt>
      <trkpt lat="46.27533" lon="6.56587">
        <ele>1385.1</ele>
        <time>2023-01-21T10:56:49.000Z</time>
      </trkpt>
      <trkpt lat="46.27532" lon="6.56588">
        <ele>1385.2</ele>
        <time>2023-01-21T10:56:50.000Z</time>
      </trkpt>
      <trkpt lat="46.27533" lon="6.56588">
        <ele>1385.3</ele>
        <time>2023-01-21T10:56:51.000Z</time>
      </trkpt>
      <trkpt lat="46.27533" lon="6.56588">
        <ele>1384.7</ele>
        <time>2023-01-21T10:56:52.000Z</time>
      </trkpt>
      <trkpt lat="46.27533" lon="6.56588">
        <ele>1384.9</ele>
        <time>2023-01-21T10:56:53.000Z</time>
      </trkpt>
      <trkpt lat="46.27533" lon="6.56588">
        <ele>1385.4</ele>
        <time>2023-01-21T10:56:54.000Z</time>
      </trkpt>
      <trkpt lat="46.27533" lon="6.56588">
        <ele>1385.8</ele>
        <time>2023-01-21T10:56:55.000Z</time>
      </trkpt>
      <trkpt lat="46.27532" lon="6.56587">
        <ele>1386.3</ele>
        <time>2023-01-21T10:56:56.000Z</time>
      </trkpt>
      <trkpt lat="46.27531" lon="6.56588">
        <ele>1387.1</ele>
        <time>2023-01-21T10:56:57.000Z</time>
      </trkpt>
      <trkpt lat="46.27531" lon="6.56588">
        <ele>1387.4</ele>
        <time>2023-01-21T10:56:58.000Z</time>
      </trkpt>
      <trkpt lat="46.27531" lon="6.56587">
        <ele>1387.6</ele>
        <time>2023-01-21T10:56:59.000Z</time>
      </trkpt>
      <trkpt lat="46.2753" lon="6.56587">
        <ele>1387.4</ele>
        <time>2023-01-21T10:57:00.000Z</time>
      </trkpt>
      <trkpt lat="46.2753" lon="6.56587">
        <ele>1387</ele>
        <time>2023-01-21T10:57:01.000Z</time>
      </trkpt>
      <trkpt lat="46.2753" lon="6.56587">
        <ele>1386.1</ele>
        <time>2023-01-21T10:57:02.000Z</time>
      </trkpt>
      <trkpt lat="46.2753" lon="6.56587">
        <ele>1385.3</ele>
        <time>2023-01-21T10:57:03.000Z</time>
      </trkpt>
      <trkpt lat="46.2753" lon="6.56587">
        <ele>1384.5</ele>
        <time>2023-01-21T10:57:04.000Z</time>
      </trkpt>
      <trkpt lat="46.27531" lon="6.56587">
        <ele>1384.1</ele>
        <time>2023-01-21T10:57:05.000Z</time>
      </trkpt>
      <trkpt lat="46.27531" lon="6.56587">
        <ele>1384.1</ele>
        <time>2023-01-21T10:57:06.000Z</time>
      </trkpt>
      <trkpt lat="46.27531" lon="6.56587">
        <ele>1384.1</ele>
        <time>2023-01-21T10:57:07.000Z</time>
      </trkpt>
      <trkpt lat="46.27531" lon="6.56587">
        <ele>1384.1</ele>
        <time>2023-01-21T10:57:08.000Z</time>
      </trkpt>
      <trkpt lat="46.27531" lon="6.56587">
        <ele>1384.1</ele>
        <time>2023-01-21T10:57:09.000Z</time>
      </trkpt>
      <trkpt lat="46.27531" lon="6.56587">
        <ele>1384.1</ele>
        <time>2023-01-21T10:57:10.000Z</time>
      </trkpt>
      <trkpt lat="46.27528" lon="6.56587">
        <ele>1382.8</ele>
        <time>2023-01-21T10:57:11.000Z</time>
      </trkpt>
      <trkpt lat="46.27528" lon="6.56587">
        <ele>1382.8</ele>
        <time>2023-01-21T10:57:12.000Z</time>
      </trkpt>
      <trkpt lat="46.27528" lon="6.56587">
        <ele>1382.8</ele>
        <time>2023-01-21T10:57:13.000Z</time>
      </trkpt>
      <trkpt lat="46.27527" lon="6.56587">
        <ele>1383</ele>
        <time>2023-01-21T10:57:14.000Z</time>
      </trkpt>
      <trkpt lat="46.27527" lon="6.56588">
        <ele>1383.2</ele>
        <time>2023-01-21T10:57:15.000Z</time>
      </trkpt>
      <trkpt lat="46.27526" lon="6.56588">
        <ele>1383.4</ele>
        <time>2023-01-21T10:57:16.000Z</time>
      </trkpt>
      <trkpt lat="46.27525" lon="6.56589">
        <ele>1383.8</ele>
        <time>2023-01-21T10:57:17.000Z</time>
      </trkpt>
      <trkpt lat="46.27524" lon="6.56589">
        <ele>1384.3</ele>
        <time>2023-01-21T10:57:18.000Z</time>
      </trkpt>
      <trkpt lat="46.27524" lon="6.5659">
        <ele>1384.2</ele>
        <time>2023-01-21T10:57:19.000Z</time>
      </trkpt>
      <trkpt lat="46.27523" lon="6.56591">
        <ele>1383.9</ele>
        <time>2023-01-21T10:57:20.000Z</time>
      </trkpt>
      <trkpt lat="46.27522" lon="6.56592">
        <ele>1383.6</ele>
        <time>2023-01-21T10:57:21.000Z</time>
      </trkpt>
      <trkpt lat="46.27521" lon="6.56593">
        <ele>1383.4</ele>
        <time>2023-01-21T10:57:22.000Z</time>
      </trkpt>
      <trkpt lat="46.27521" lon="6.56593">
        <ele>1383.2</ele>
        <time>2023-01-21T10:57:23.000Z</time>
      </trkpt>
      <trkpt lat="46.2752" lon="6.56594">
        <ele>1382.9</ele>
        <time>2023-01-21T10:57:24.000Z</time>
      </trkpt>
      <trkpt lat="46.27519" lon="6.56593">
        <ele>1382.9</ele>
        <time>2023-01-21T10:57:25.000Z</time>
      </trkpt>
      <trkpt lat="46.27518" lon="6.56593">
        <ele>1382.9</ele>
        <time>2023-01-21T10:57:26.000Z</time>
      </trkpt>
      <trkpt lat="46.27517" lon="6.56593">
        <ele>1382.9</ele>
        <time>2023-01-21T10:57:27.000Z</time>
      </trkpt>
      <trkpt lat="46.27516" lon="6.56593">
        <ele>1383.2</ele>
        <time>2023-01-21T10:57:28.000Z</time>
      </trkpt>
      <trkpt lat="46.27516" lon="6.56593">
        <ele>1383.3</ele>
        <time>2023-01-21T10:57:29.000Z</time>
      </trkpt>
      <trkpt lat="46.27515" lon="6.56593">
        <ele>1383.5</ele>
        <time>2023-01-21T10:57:30.000Z</time>
      </trkpt>
      <trkpt lat="46.27515" lon="6.56593">
        <ele>1383.6</ele>
        <time>2023-01-21T10:57:31.000Z</time>
      </trkpt>
      <trkpt lat="46.27514" lon="6.56594">
        <ele>1383.4</ele>
        <time>2023-01-21T10:57:32.000Z</time>
      </trkpt>
      <trkpt lat="46.27514" lon="6.56594">
        <ele>1383.3</ele>
        <time>2023-01-21T10:57:33.000Z</time>
      </trkpt>
      <trkpt lat="46.27513" lon="6.56594">
        <ele>1383.3</ele>
        <time>2023-01-21T10:57:34.000Z</time>
      </trkpt>
      <trkpt lat="46.27513" lon="6.56594">
        <ele>1383.4</ele>
        <time>2023-01-21T10:57:35.000Z</time>
      </trkpt>
      <trkpt lat="46.27512" lon="6.56594">
        <ele>1383.4</ele>
        <time>2023-01-21T10:57:36.000Z</time>
      </trkpt>
      <trkpt lat="46.27512" lon="6.56594">
        <ele>1383.4</ele>
        <time>2023-01-21T10:57:37.000Z</time>
      </trkpt>
      <trkpt lat="46.27511" lon="6.56595">
        <ele>1383.3</ele>
        <time>2023-01-21T10:57:38.000Z</time>
      </trkpt>
      <trkpt lat="46.2751" lon="6.56597">
        <ele>1383.4</ele>
        <time>2023-01-21T10:57:39.000Z</time>
      </trkpt>
      <trkpt lat="46.27509" lon="6.56597">
        <ele>1383.6</ele>
        <time>2023-01-21T10:57:40.000Z</time>
      </trkpt>
      <trkpt lat="46.27509" lon="6.56598">
        <ele>1383.8</ele>
        <time>2023-01-21T10:57:41.000Z</time>
      </trkpt>
      <trkpt lat="46.27508" lon="6.56598">
        <ele>1384.1</ele>
        <time>2023-01-21T10:57:42.000Z</time>
      </trkpt>
      <trkpt lat="46.27507" lon="6.56598">
        <ele>1384.2</ele>
        <time>2023-01-21T10:57:43.000Z</time>
      </trkpt>
      <trkpt lat="46.27506" lon="6.56599">
        <ele>1384.3</ele>
        <time>2023-01-21T10:57:44.000Z</time>
      </trkpt>
      <trkpt lat="46.27506" lon="6.566">
        <ele>1384.4</ele>
        <time>2023-01-21T10:57:45.000Z</time>
      </trkpt>
      <trkpt lat="46.27505" lon="6.566">
        <ele>1384.6</ele>
        <time>2023-01-21T10:57:46.000Z</time>
      </trkpt>
      <trkpt lat="46.27504" lon="6.56601">
        <ele>1384.6</ele>
        <time>2023-01-21T10:57:47.000Z</time>
      </trkpt>
      <trkpt lat="46.27504" lon="6.56602">
        <ele>1384.4</ele>
        <time>2023-01-21T10:57:48.000Z</time>
      </trkpt>
      <trkpt lat="46.27504" lon="6.56604">
        <ele>1384</ele>
        <time>2023-01-21T10:57:49.000Z</time>
      </trkpt>
      <trkpt lat="46.27504" lon="6.56605">
        <ele>1383.8</ele>
        <time>2023-01-21T10:57:50.000Z</time>
      </trkpt>
      <trkpt lat="46.27504" lon="6.56605">
        <ele>1383.4</ele>
        <time>2023-01-21T10:57:51.000Z</time>
      </trkpt>
      <trkpt lat="46.27504" lon="6.56605">
        <ele>1383.2</ele>
        <time>2023-01-21T10:57:52.000Z</time>
      </trkpt>
      <trkpt lat="46.27504" lon="6.56605">
        <ele>1383.2</ele>
        <time>2023-01-21T10:57:53.000Z</time>
      </trkpt>
      <trkpt lat="46.27503" lon="6.56605">
        <ele>1383.1</ele>
        <time>2023-01-21T10:57:54.000Z</time>
      </trkpt>
      <trkpt lat="46.27503" lon="6.56605">
        <ele>1383.1</ele>
        <time>2023-01-21T10:57:55.000Z</time>
      </trkpt>
      <trkpt lat="46.27502" lon="6.56605">
        <ele>1383.4</ele>
        <time>2023-01-21T10:57:56.000Z</time>
      </trkpt>
      <trkpt lat="46.27501" lon="6.56606">
        <ele>1383.7</ele>
        <time>2023-01-21T10:57:57.000Z</time>
      </trkpt>
      <trkpt lat="46.275" lon="6.56606">
        <ele>1384.1</ele>
        <time>2023-01-21T10:57:58.000Z</time>
      </trkpt>
      <trkpt lat="46.27499" lon="6.56607">
        <ele>1384.5</ele>
        <time>2023-01-21T10:57:59.000Z</time>
      </trkpt>
      <trkpt lat="46.27499" lon="6.56608">
        <ele>1384.6</ele>
        <time>2023-01-21T10:58:00.000Z</time>
      </trkpt>
      <trkpt lat="46.27499" lon="6.56611">
        <ele>1384.6</ele>
        <time>2023-01-21T10:58:01.000Z</time>
      </trkpt>
      <trkpt lat="46.275" lon="6.56612">
        <ele>1384.4</ele>
        <time>2023-01-21T10:58:02.000Z</time>
      </trkpt>
      <trkpt lat="46.27499" lon="6.56613">
        <ele>1384.3</ele>
        <time>2023-01-21T10:58:03.000Z</time>
      </trkpt>
      <trkpt lat="46.27499" lon="6.56613">
        <ele>1384.3</ele>
        <time>2023-01-21T10:58:04.000Z</time>
      </trkpt>
      <trkpt lat="46.27498" lon="6.56614">
        <ele>1384.3</ele>
        <time>2023-01-21T10:58:05.000Z</time>
      </trkpt>
      <trkpt lat="46.27497" lon="6.56615">
        <ele>1384.2</ele>
        <time>2023-01-21T10:58:06.000Z</time>
      </trkpt>
      <trkpt lat="46.27496" lon="6.56615">
        <ele>1384.1</ele>
        <time>2023-01-21T10:58:07.000Z</time>
      </trkpt>
      <trkpt lat="46.27494" lon="6.56615">
        <ele>1384</ele>
        <time>2023-01-21T10:58:08.000Z</time>
      </trkpt>
      <trkpt lat="46.27493" lon="6.56616">
        <ele>1384.1</ele>
        <time>2023-01-21T10:58:09.000Z</time>
      </trkpt>
      <trkpt lat="46.27492" lon="6.56617">
        <ele>1384.2</ele>
        <time>2023-01-21T10:58:10.000Z</time>
      </trkpt>
      <trkpt lat="46.27492" lon="6.56618">
        <ele>1384.3</ele>
        <time>2023-01-21T10:58:11.000Z</time>
      </trkpt>
      <trkpt lat="46.27491" lon="6.56618">
        <ele>1384.3</ele>
        <time>2023-01-21T10:58:12.000Z</time>
      </trkpt>
      <trkpt lat="46.27491" lon="6.56619">
        <ele>1384.2</ele>
        <time>2023-01-21T10:58:13.000Z</time>
      </trkpt>
      <trkpt lat="46.27491" lon="6.56619">
        <ele>1384.2</ele>
        <time>2023-01-21T10:58:14.000Z</time>
      </trkpt>
      <trkpt lat="46.27491" lon="6.5662">
        <ele>1384.2</ele>
        <time>2023-01-21T10:58:15.000Z</time>
      </trkpt>
      <trkpt lat="46.27491" lon="6.56621">
        <ele>1384.3</ele>
        <time>2023-01-21T10:58:16.000Z</time>
      </trkpt>
      <trkpt lat="46.2749" lon="6.56623">
        <ele>1384.2</ele>
        <time>2023-01-21T10:58:17.000Z</time>
      </trkpt>
      <trkpt lat="46.2749" lon="6.56624">
        <ele>1384</ele>
        <time>2023-01-21T10:58:18.000Z</time>
      </trkpt>
      <trkpt lat="46.27489" lon="6.56625">
        <ele>1384</ele>
        <time>2023-01-21T10:58:19.000Z</time>
      </trkpt>
      <trkpt lat="46.27489" lon="6.56626">
        <ele>1383.8</ele>
        <time>2023-01-21T10:58:20.000Z</time>
      </trkpt>
      <trkpt lat="46.27489" lon="6.56626">
        <ele>1383.7</ele>
        <time>2023-01-21T10:58:21.000Z</time>
      </trkpt>
      <trkpt lat="46.27489" lon="6.56627">
        <ele>1383.8</ele>
        <time>2023-01-21T10:58:22.000Z</time>
      </trkpt>
      <trkpt lat="46.27489" lon="6.56627">
        <ele>1383.8</ele>
        <time>2023-01-21T10:58:23.000Z</time>
      </trkpt>
      <trkpt lat="46.27489" lon="6.56628">
        <ele>1383.9</ele>
        <time>2023-01-21T10:58:24.000Z</time>
      </trkpt>
      <trkpt lat="46.27488" lon="6.5663">
        <ele>1384</ele>
        <time>2023-01-21T10:58:25.000Z</time>
      </trkpt>
      <trkpt lat="46.27488" lon="6.56631">
        <ele>1384.2</ele>
        <time>2023-01-21T10:58:26.000Z</time>
      </trkpt>
      <trkpt lat="46.27488" lon="6.56632">
        <ele>1384.2</ele>
        <time>2023-01-21T10:58:27.000Z</time>
      </trkpt>
      <trkpt lat="46.27488" lon="6.56633">
        <ele>1384.2</ele>
        <time>2023-01-21T10:58:28.000Z</time>
      </trkpt>
      <trkpt lat="46.27487" lon="6.56634">
        <ele>1384.1</ele>
        <time>2023-01-21T10:58:29.000Z</time>
      </trkpt>
      <trkpt lat="46.27487" lon="6.56635">
        <ele>1384.1</ele>
        <time>2023-01-21T10:58:30.000Z</time>
      </trkpt>
      <trkpt lat="46.27486" lon="6.56637">
        <ele>1383.6</ele>
        <time>2023-01-21T10:58:31.000Z</time>
      </trkpt>
      <trkpt lat="46.27486" lon="6.56638">
        <ele>1383.4</ele>
        <time>2023-01-21T10:58:32.000Z</time>
      </trkpt>
      <trkpt lat="46.27486" lon="6.56639">
        <ele>1383.3</ele>
        <time>2023-01-21T10:58:33.000Z</time>
      </trkpt>
      <trkpt lat="46.27485" lon="6.5664">
        <ele>1383.2</ele>
        <time>2023-01-21T10:58:34.000Z</time>
      </trkpt>
      <trkpt lat="46.27484" lon="6.56641">
        <ele>1383.2</ele>
        <time>2023-01-21T10:58:35.000Z</time>
      </trkpt>
      <trkpt lat="46.27483" lon="6.56642">
        <ele>1383.3</ele>
        <time>2023-01-21T10:58:36.000Z</time>
      </trkpt>
      <trkpt lat="46.27483" lon="6.56643">
        <ele>1383.3</ele>
        <time>2023-01-21T10:58:37.000Z</time>
      </trkpt>
      <trkpt lat="46.27482" lon="6.56644">
        <ele>1383.1</ele>
        <time>2023-01-21T10:58:38.000Z</time>
      </trkpt>
      <trkpt lat="46.27482" lon="6.56645">
        <ele>1383</ele>
        <time>2023-01-21T10:58:39.000Z</time>
      </trkpt>
      <trkpt lat="46.27481" lon="6.56646">
        <ele>1383</ele>
        <time>2023-01-21T10:58:40.000Z</time>
      </trkpt>
      <trkpt lat="46.27481" lon="6.56646">
        <ele>1383.1</ele>
        <time>2023-01-21T10:58:41.000Z</time>
      </trkpt>
      <trkpt lat="46.2748" lon="6.56646">
        <ele>1383.3</ele>
        <time>2023-01-21T10:58:42.000Z</time>
      </trkpt>
      <trkpt lat="46.2748" lon="6.56647">
        <ele>1383.3</ele>
        <time>2023-01-21T10:58:43.000Z</time>
      </trkpt>
      <trkpt lat="46.27479" lon="6.56648">
        <ele>1383.3</ele>
        <time>2023-01-21T10:58:44.000Z</time>
      </trkpt>
      <trkpt lat="46.27478" lon="6.56649">
        <ele>1383.2</ele>
        <time>2023-01-21T10:58:45.000Z</time>
      </trkpt>
      <trkpt lat="46.27476" lon="6.56649">
        <ele>1383.3</ele>
        <time>2023-01-21T10:58:46.000Z</time>
      </trkpt>
      <trkpt lat="46.27476" lon="6.5665">
        <ele>1383.5</ele>
        <time>2023-01-21T10:58:47.000Z</time>
      </trkpt>
      <trkpt lat="46.27475" lon="6.5665">
        <ele>1383.6</ele>
        <time>2023-01-21T10:58:48.000Z</time>
      </trkpt>
      <trkpt lat="46.27475" lon="6.56651">
        <ele>1383.7</ele>
        <time>2023-01-21T10:58:49.000Z</time>
      </trkpt>
      <trkpt lat="46.27474" lon="6.56651">
        <ele>1383.8</ele>
        <time>2023-01-21T10:58:50.000Z</time>
      </trkpt>
      <trkpt lat="46.27474" lon="6.56651">
        <ele>1384.3</ele>
        <time>2023-01-21T10:58:51.000Z</time>
      </trkpt>
      <trkpt lat="46.27474" lon="6.56652">
        <ele>1384.4</ele>
        <time>2023-01-21T10:58:52.000Z</time>
      </trkpt>
      <trkpt lat="46.27473" lon="6.56653">
        <ele>1384.6</ele>
        <time>2023-01-21T10:58:53.000Z</time>
      </trkpt>
      <trkpt lat="46.27472" lon="6.56654">
        <ele>1384.9</ele>
        <time>2023-01-21T10:58:54.000Z</time>
      </trkpt>
      <trkpt lat="46.27471" lon="6.56654">
        <ele>1384.9</ele>
        <time>2023-01-21T10:58:55.000Z</time>
      </trkpt>
      <trkpt lat="46.2747" lon="6.56655">
        <ele>1385.4</ele>
        <time>2023-01-21T10:58:56.000Z</time>
      </trkpt>
      <trkpt lat="46.27468" lon="6.56655">
        <ele>1385.6</ele>
        <time>2023-01-21T10:58:57.000Z</time>
      </trkpt>
      <trkpt lat="46.27468" lon="6.56655">
        <ele>1385.6</ele>
        <time>2023-01-21T10:58:58.000Z</time>
      </trkpt>
      <trkpt lat="46.27467" lon="6.56655">
        <ele>1385.7</ele>
        <time>2023-01-21T10:58:59.000Z</time>
      </trkpt>
      <trkpt lat="46.27466" lon="6.56655">
        <ele>1385.8</ele>
        <time>2023-01-21T10:59:00.000Z</time>
      </trkpt>
      <trkpt lat="46.27465" lon="6.56655">
        <ele>1385.9</ele>
        <time>2023-01-21T10:59:01.000Z</time>
      </trkpt>
      <trkpt lat="46.27464" lon="6.56656">
        <ele>1386.2</ele>
        <time>2023-01-21T10:59:02.000Z</time>
      </trkpt>
      <trkpt lat="46.27463" lon="6.56657">
        <ele>1386.3</ele>
        <time>2023-01-21T10:59:03.000Z</time>
      </trkpt>
      <trkpt lat="46.27462" lon="6.56657">
        <ele>1386.3</ele>
        <time>2023-01-21T10:59:04.000Z</time>
      </trkpt>
      <trkpt lat="46.27461" lon="6.56657">
        <ele>1386.4</ele>
        <time>2023-01-21T10:59:05.000Z</time>
      </trkpt>
      <trkpt lat="46.2746" lon="6.56658">
        <ele>1386.5</ele>
        <time>2023-01-21T10:59:06.000Z</time>
      </trkpt>
      <trkpt lat="46.27459" lon="6.56659">
        <ele>1386.4</ele>
        <time>2023-01-21T10:59:07.000Z</time>
      </trkpt>
      <trkpt lat="46.27458" lon="6.56659">
        <ele>1386.3</ele>
        <time>2023-01-21T10:59:08.000Z</time>
      </trkpt>
      <trkpt lat="46.27459" lon="6.56661">
        <ele>1386.8</ele>
        <time>2023-01-21T10:59:09.000Z</time>
      </trkpt>
      <trkpt lat="46.27458" lon="6.56662">
        <ele>1386.8</ele>
        <time>2023-01-21T10:59:10.000Z</time>
      </trkpt>
      <trkpt lat="46.27458" lon="6.56662">
        <ele>1387.2</ele>
        <time>2023-01-21T10:59:11.000Z</time>
      </trkpt>
      <trkpt lat="46.27458" lon="6.56662">
        <ele>1387.4</ele>
        <time>2023-01-21T10:59:12.000Z</time>
      </trkpt>
      <trkpt lat="46.27458" lon="6.56663">
        <ele>1387.5</ele>
        <time>2023-01-21T10:59:13.000Z</time>
      </trkpt>
      <trkpt lat="46.27459" lon="6.56665">
        <ele>1388.2</ele>
        <time>2023-01-21T10:59:14.000Z</time>
      </trkpt>
      <trkpt lat="46.27458" lon="6.56666">
        <ele>1388.4</ele>
        <time>2023-01-21T10:59:15.000Z</time>
      </trkpt>
      <trkpt lat="46.27458" lon="6.56667">
        <ele>1388.7</ele>
        <time>2023-01-21T10:59:16.000Z</time>
      </trkpt>
      <trkpt lat="46.27457" lon="6.56667">
        <ele>1389.1</ele>
        <time>2023-01-21T10:59:17.000Z</time>
      </trkpt>
      <trkpt lat="46.27456" lon="6.56668">
        <ele>1389.3</ele>
        <time>2023-01-21T10:59:18.000Z</time>
      </trkpt>
      <trkpt lat="46.27455" lon="6.56669">
        <ele>1389.6</ele>
        <time>2023-01-21T10:59:19.000Z</time>
      </trkpt>
      <trkpt lat="46.27453" lon="6.5667">
        <ele>1390.1</ele>
        <time>2023-01-21T10:59:20.000Z</time>
      </trkpt>
      <trkpt lat="46.27452" lon="6.56671">
        <ele>1390.2</ele>
        <time>2023-01-21T10:59:21.000Z</time>
      </trkpt>
      <trkpt lat="46.27451" lon="6.56672">
        <ele>1390.6</ele>
        <time>2023-01-21T10:59:22.000Z</time>
      </trkpt>
      <trkpt lat="46.2745" lon="6.56673">
        <ele>1390.8</ele>
        <time>2023-01-21T10:59:23.000Z</time>
      </trkpt>
      <trkpt lat="46.27449" lon="6.56674">
        <ele>1391</ele>
        <time>2023-01-21T10:59:24.000Z</time>
      </trkpt>
      <trkpt lat="46.27449" lon="6.56674">
        <ele>1391.4</ele>
        <time>2023-01-21T10:59:25.000Z</time>
      </trkpt>
      <trkpt lat="46.27448" lon="6.56673">
        <ele>1391.8</ele>
        <time>2023-01-21T10:59:26.000Z</time>
      </trkpt>
      <trkpt lat="46.27447" lon="6.56673">
        <ele>1392.6</ele>
        <time>2023-01-21T10:59:27.000Z</time>
      </trkpt>
      <trkpt lat="46.27446" lon="6.56673">
        <ele>1393.1</ele>
        <time>2023-01-21T10:59:28.000Z</time>
      </trkpt>
      <trkpt lat="46.27445" lon="6.56673">
        <ele>1393.6</ele>
        <time>2023-01-21T10:59:29.000Z</time>
      </trkpt>
      <trkpt lat="46.27445" lon="6.56673">
        <ele>1394</ele>
        <time>2023-01-21T10:59:30.000Z</time>
      </trkpt>
      <trkpt lat="46.27444" lon="6.56673">
        <ele>1394.4</ele>
        <time>2023-01-21T10:59:31.000Z</time>
      </trkpt>
      <trkpt lat="46.27444" lon="6.56674">
        <ele>1394.8</ele>
        <time>2023-01-21T10:59:32.000Z</time>
      </trkpt>
      <trkpt lat="46.27443" lon="6.56675">
        <ele>1395.1</ele>
        <time>2023-01-21T10:59:33.000Z</time>
      </trkpt>
      <trkpt lat="46.27442" lon="6.56675">
        <ele>1395.5</ele>
        <time>2023-01-21T10:59:34.000Z</time>
      </trkpt>
      <trkpt lat="46.27441" lon="6.56675">
        <ele>1395.9</ele>
        <time>2023-01-21T10:59:35.000Z</time>
      </trkpt>
      <trkpt lat="46.27439" lon="6.56676">
        <ele>1396.2</ele>
        <time>2023-01-21T10:59:36.000Z</time>
      </trkpt>
      <trkpt lat="46.27438" lon="6.56677">
        <ele>1396.9</ele>
        <time>2023-01-21T10:59:37.000Z</time>
      </trkpt>
      <trkpt lat="46.27437" lon="6.56678">
        <ele>1397.2</ele>
        <time>2023-01-21T10:59:38.000Z</time>
      </trkpt>
      <trkpt lat="46.27436" lon="6.56679">
        <ele>1397.5</ele>
        <time>2023-01-21T10:59:39.000Z</time>
      </trkpt>
      <trkpt lat="46.27435" lon="6.56679">
        <ele>1398</ele>
        <time>2023-01-21T10:59:40.000Z</time>
      </trkpt>
      <trkpt lat="46.27435" lon="6.5668">
        <ele>1398.1</ele>
        <time>2023-01-21T10:59:41.000Z</time>
      </trkpt>
      <trkpt lat="46.27434" lon="6.56681">
        <ele>1398.5</ele>
        <time>2023-01-21T10:59:42.000Z</time>
      </trkpt>
      <trkpt lat="46.27434" lon="6.56682">
        <ele>1399</ele>
        <time>2023-01-21T10:59:43.000Z</time>
      </trkpt>
      <trkpt lat="46.27433" lon="6.56682">
        <ele>1399.2</ele>
        <time>2023-01-21T10:59:44.000Z</time>
      </trkpt>
      <trkpt lat="46.27433" lon="6.56683">
        <ele>1399.5</ele>
        <time>2023-01-21T10:59:45.000Z</time>
      </trkpt>
      <trkpt lat="46.27432" lon="6.56684">
        <ele>1399.7</ele>
        <time>2023-01-21T10:59:46.000Z</time>
      </trkpt>
      <trkpt lat="46.27431" lon="6.56685">
        <ele>1400.1</ele>
        <time>2023-01-21T10:59:47.000Z</time>
      </trkpt>
      <trkpt lat="46.2743" lon="6.56685">
        <ele>1400.6</ele>
        <time>2023-01-21T10:59:48.000Z</time>
      </trkpt>
      <trkpt lat="46.27429" lon="6.56686">
        <ele>1400.7</ele>
        <time>2023-01-21T10:59:49.000Z</time>
      </trkpt>
      <trkpt lat="46.27429" lon="6.56686">
        <ele>1400.7</ele>
        <time>2023-01-21T10:59:50.000Z</time>
      </trkpt>
      <trkpt lat="46.27428" lon="6.56686">
        <ele>1400.7</ele>
        <time>2023-01-21T10:59:51.000Z</time>
      </trkpt>
      <trkpt lat="46.27427" lon="6.56688">
        <ele>1400.2</ele>
        <time>2023-01-21T10:59:52.000Z</time>
      </trkpt>
      <trkpt lat="46.27426" lon="6.56689">
        <ele>1400.1</ele>
        <time>2023-01-21T10:59:53.000Z</time>
      </trkpt>
      <trkpt lat="46.27425" lon="6.56689">
        <ele>1400.2</ele>
        <time>2023-01-21T10:59:54.000Z</time>
      </trkpt>
      <trkpt lat="46.27425" lon="6.5669">
        <ele>1400.5</ele>
        <time>2023-01-21T10:59:55.000Z</time>
      </trkpt>
      <trkpt lat="46.27423" lon="6.56689">
        <ele>1400.2</ele>
        <time>2023-01-21T10:59:56.000Z</time>
      </trkpt>
      <trkpt lat="46.27422" lon="6.5669">
        <ele>1399.9</ele>
        <time>2023-01-21T10:59:57.000Z</time>
      </trkpt>
      <trkpt lat="46.27421" lon="6.56691">
        <ele>1400</ele>
        <time>2023-01-21T10:59:58.000Z</time>
      </trkpt>
      <trkpt lat="46.27419" lon="6.56689">
        <ele>1399.4</ele>
        <time>2023-01-21T10:59:59.000Z</time>
      </trkpt>
      <trkpt lat="46.2742" lon="6.56689">
        <ele>1399.3</ele>
        <time>2023-01-21T11:00:00.000Z</time>
      </trkpt>
      <trkpt lat="46.27419" lon="6.5669">
        <ele>1398.8</ele>
        <time>2023-01-21T11:00:01.000Z</time>
      </trkpt>
      <trkpt lat="46.27418" lon="6.56692">
        <ele>1398.4</ele>
        <time>2023-01-21T11:00:02.000Z</time>
      </trkpt>
      <trkpt lat="46.27418" lon="6.56692">
        <ele>1398</ele>
        <time>2023-01-21T11:00:03.000Z</time>
      </trkpt>
      <trkpt lat="46.27417" lon="6.56693">
        <ele>1397.6</ele>
        <time>2023-01-21T11:00:04.000Z</time>
      </trkpt>
      <trkpt lat="46.27417" lon="6.56694">
        <ele>1397.5</ele>
        <time>2023-01-21T11:00:05.000Z</time>
      </trkpt>
      <trkpt lat="46.27416" lon="6.56694">
        <ele>1397.3</ele>
        <time>2023-01-21T11:00:06.000Z</time>
      </trkpt>
      <trkpt lat="46.27415" lon="6.56694">
        <ele>1397</ele>
        <time>2023-01-21T11:00:07.000Z</time>
      </trkpt>
      <trkpt lat="46.27414" lon="6.56695">
        <ele>1396.4</ele>
        <time>2023-01-21T11:00:08.000Z</time>
      </trkpt>
      <trkpt lat="46.27414" lon="6.56697">
        <ele>1396.1</ele>
        <time>2023-01-21T11:00:09.000Z</time>
      </trkpt>
      <trkpt lat="46.27413" lon="6.56699">
        <ele>1395.9</ele>
        <time>2023-01-21T11:00:10.000Z</time>
      </trkpt>
      <trkpt lat="46.27413" lon="6.56699">
        <ele>1395.9</ele>
        <time>2023-01-21T11:00:11.000Z</time>
      </trkpt>
      <trkpt lat="46.27412" lon="6.56699">
        <ele>1395.7</ele>
        <time>2023-01-21T11:00:12.000Z</time>
      </trkpt>
      <trkpt lat="46.27411" lon="6.56698">
        <ele>1395.6</ele>
        <time>2023-01-21T11:00:13.000Z</time>
      </trkpt>
      <trkpt lat="46.2741" lon="6.56698">
        <ele>1395.3</ele>
        <time>2023-01-21T11:00:14.000Z</time>
      </trkpt>
      <trkpt lat="46.27409" lon="6.56697">
        <ele>1395.3</ele>
        <time>2023-01-21T11:00:15.000Z</time>
      </trkpt>
      <trkpt lat="46.27408" lon="6.56697">
        <ele>1395.4</ele>
        <time>2023-01-21T11:00:16.000Z</time>
      </trkpt>
      <trkpt lat="46.27408" lon="6.56697">
        <ele>1395.3</ele>
        <time>2023-01-21T11:00:17.000Z</time>
      </trkpt>
      <trkpt lat="46.27406" lon="6.56698">
        <ele>1395.2</ele>
        <time>2023-01-21T11:00:18.000Z</time>
      </trkpt>
      <trkpt lat="46.27405" lon="6.56698">
        <ele>1395.5</ele>
        <time>2023-01-21T11:00:19.000Z</time>
      </trkpt>
      <trkpt lat="46.27404" lon="6.56698">
        <ele>1395.7</ele>
        <time>2023-01-21T11:00:20.000Z</time>
      </trkpt>
      <trkpt lat="46.27403" lon="6.56697">
        <ele>1395.8</ele>
        <time>2023-01-21T11:00:21.000Z</time>
      </trkpt>
      <trkpt lat="46.27402" lon="6.56697">
        <ele>1395.7</ele>
        <time>2023-01-21T11:00:22.000Z</time>
      </trkpt>
      <trkpt lat="46.27401" lon="6.56695">
        <ele>1395.9</ele>
        <time>2023-01-21T11:00:23.000Z</time>
      </trkpt>
      <trkpt lat="46.274" lon="6.56694">
        <ele>1396.4</ele>
        <time>2023-01-21T11:00:24.000Z</time>
      </trkpt>
      <trkpt lat="46.274" lon="6.56694">
        <ele>1396.5</ele>
        <time>2023-01-21T11:00:25.000Z</time>
      </trkpt>
      <trkpt lat="46.274" lon="6.56694">
        <ele>1397</ele>
        <time>2023-01-21T11:00:26.000Z</time>
      </trkpt>
      <trkpt lat="46.27399" lon="6.56693">
        <ele>1396.9</ele>
        <time>2023-01-21T11:00:27.000Z</time>
      </trkpt>
      <trkpt lat="46.27398" lon="6.56693">
        <ele>1397.1</ele>
        <time>2023-01-21T11:00:28.000Z</time>
      </trkpt>
      <trkpt lat="46.27399" lon="6.56692">
        <ele>1398.9</ele>
        <time>2023-01-21T11:00:29.000Z</time>
      </trkpt>
      <trkpt lat="46.27398" lon="6.56691">
        <ele>1399.2</ele>
        <time>2023-01-21T11:00:30.000Z</time>
      </trkpt>
      <trkpt lat="46.27397" lon="6.5669">
        <ele>1399.2</ele>
        <time>2023-01-21T11:00:31.000Z</time>
      </trkpt>
      <trkpt lat="46.27397" lon="6.56689">
        <ele>1399.1</ele>
        <time>2023-01-21T11:00:32.000Z</time>
      </trkpt>
      <trkpt lat="46.27396" lon="6.56689">
        <ele>1398.9</ele>
        <time>2023-01-21T11:00:33.000Z</time>
      </trkpt>
      <trkpt lat="46.27395" lon="6.56689">
        <ele>1398.6</ele>
        <time>2023-01-21T11:00:34.000Z</time>
      </trkpt>
      <trkpt lat="46.27394" lon="6.56688">
        <ele>1398.5</ele>
        <time>2023-01-21T11:00:35.000Z</time>
      </trkpt>
      <trkpt lat="46.27393" lon="6.56687">
        <ele>1398.2</ele>
        <time>2023-01-21T11:00:36.000Z</time>
      </trkpt>
      <trkpt lat="46.27392" lon="6.56686">
        <ele>1398.4</ele>
        <time>2023-01-21T11:00:37.000Z</time>
      </trkpt>
      <trkpt lat="46.27392" lon="6.56685">
        <ele>1398.7</ele>
        <time>2023-01-21T11:00:38.000Z</time>
      </trkpt>
      <trkpt lat="46.27391" lon="6.56686">
        <ele>1398.9</ele>
        <time>2023-01-21T11:00:39.000Z</time>
      </trkpt>
      <trkpt lat="46.2739" lon="6.56685">
        <ele>1399.1</ele>
        <time>2023-01-21T11:00:40.000Z</time>
      </trkpt>
      <trkpt lat="46.2739" lon="6.56686">
        <ele>1399.1</ele>
        <time>2023-01-21T11:00:41.000Z</time>
      </trkpt>
      <trkpt lat="46.27389" lon="6.56685">
        <ele>1399.5</ele>
        <time>2023-01-21T11:00:42.000Z</time>
      </trkpt>
      <trkpt lat="46.27388" lon="6.56686">
        <ele>1399.9</ele>
        <time>2023-01-21T11:00:43.000Z</time>
      </trkpt>
      <trkpt lat="46.27387" lon="6.56686">
        <ele>1400.4</ele>
        <time>2023-01-21T11:00:44.000Z</time>
      </trkpt>
      <trkpt lat="46.27386" lon="6.56685">
        <ele>1400.7</ele>
        <time>2023-01-21T11:00:45.000Z</time>
      </trkpt>
      <trkpt lat="46.27386" lon="6.56685">
        <ele>1400.7</ele>
        <time>2023-01-21T11:00:46.000Z</time>
      </trkpt>
      <trkpt lat="46.27385" lon="6.56685">
        <ele>1400.9</ele>
        <time>2023-01-21T11:00:47.000Z</time>
      </trkpt>
      <trkpt lat="46.27384" lon="6.56684">
        <ele>1401.4</ele>
        <time>2023-01-21T11:00:48.000Z</time>
      </trkpt>
      <trkpt lat="46.27384" lon="6.56683">
        <ele>1401.9</ele>
        <time>2023-01-21T11:00:49.000Z</time>
      </trkpt>
      <trkpt lat="46.27383" lon="6.56682">
        <ele>1402.3</ele>
        <time>2023-01-21T11:00:50.000Z</time>
      </trkpt>
      <trkpt lat="46.27383" lon="6.56681">
        <ele>1402.7</ele>
        <time>2023-01-21T11:00:51.000Z</time>
      </trkpt>
      <trkpt lat="46.27382" lon="6.5668">
        <ele>1403.4</ele>
        <time>2023-01-21T11:00:52.000Z</time>
      </trkpt>
      <trkpt lat="46.27381" lon="6.5668">
        <ele>1404.1</ele>
        <time>2023-01-21T11:00:53.000Z</time>
      </trkpt>
      <trkpt lat="46.2738" lon="6.5668">
        <ele>1404.7</ele>
        <time>2023-01-21T11:00:54.000Z</time>
      </trkpt>
      <trkpt lat="46.27379" lon="6.56679">
        <ele>1405.2</ele>
        <time>2023-01-21T11:00:55.000Z</time>
      </trkpt>
      <trkpt lat="46.27378" lon="6.56679">
        <ele>1405.6</ele>
        <time>2023-01-21T11:00:56.000Z</time>
      </trkpt>
      <trkpt lat="46.27378" lon="6.56678">
        <ele>1405.9</ele>
        <time>2023-01-21T11:00:57.000Z</time>
      </trkpt>
      <trkpt lat="46.27377" lon="6.56677">
        <ele>1406.2</ele>
        <time>2023-01-21T11:00:58.000Z</time>
      </trkpt>
      <trkpt lat="46.27377" lon="6.56677">
        <ele>1406.5</ele>
        <time>2023-01-21T11:00:59.000Z</time>
      </trkpt>
      <trkpt lat="46.27376" lon="6.56676">
        <ele>1406.9</ele>
        <time>2023-01-21T11:01:00.000Z</time>
      </trkpt>
      <trkpt lat="46.27375" lon="6.56675">
        <ele>1407.6</ele>
        <time>2023-01-21T11:01:01.000Z</time>
      </trkpt>
      <trkpt lat="46.27374" lon="6.56676">
        <ele>1407.6</ele>
        <time>2023-01-21T11:01:02.000Z</time>
      </trkpt>
      <trkpt lat="46.27374" lon="6.56676">
        <ele>1408.2</ele>
        <time>2023-01-21T11:01:03.000Z</time>
      </trkpt>
      <trkpt lat="46.27373" lon="6.56676">
        <ele>1408.9</ele>
        <time>2023-01-21T11:01:04.000Z</time>
      </trkpt>
      <trkpt lat="46.27373" lon="6.56676">
        <ele>1409.3</ele>
        <time>2023-01-21T11:01:05.000Z</time>
      </trkpt>
      <trkpt lat="46.27371" lon="6.56676">
        <ele>1410.1</ele>
        <time>2023-01-21T11:01:06.000Z</time>
      </trkpt>
      <trkpt lat="46.2737" lon="6.56675">
        <ele>1410.6</ele>
        <time>2023-01-21T11:01:07.000Z</time>
      </trkpt>
      <trkpt lat="46.27369" lon="6.56674">
        <ele>1411</ele>
        <time>2023-01-21T11:01:08.000Z</time>
      </trkpt>
      <trkpt lat="46.27368" lon="6.56674">
        <ele>1411.6</ele>
        <time>2023-01-21T11:01:09.000Z</time>
      </trkpt>
      <trkpt lat="46.27367" lon="6.56674">
        <ele>1412.1</ele>
        <time>2023-01-21T11:01:10.000Z</time>
      </trkpt>
      <trkpt lat="46.27366" lon="6.56673">
        <ele>1412.4</ele>
        <time>2023-01-21T11:01:11.000Z</time>
      </trkpt>
      <trkpt lat="46.27365" lon="6.56673">
        <ele>1412.7</ele>
        <time>2023-01-21T11:01:12.000Z</time>
      </trkpt>
      <trkpt lat="46.27365" lon="6.56673">
        <ele>1412.9</ele>
        <time>2023-01-21T11:01:13.000Z</time>
      </trkpt>
      <trkpt lat="46.27364" lon="6.56674">
        <ele>1413</ele>
        <time>2023-01-21T11:01:14.000Z</time>
      </trkpt>
      <trkpt lat="46.27363" lon="6.56675">
        <ele>1412.9</ele>
        <time>2023-01-21T11:01:15.000Z</time>
      </trkpt>
      <trkpt lat="46.27362" lon="6.56675">
        <ele>1413</ele>
        <time>2023-01-21T11:01:16.000Z</time>
      </trkpt>
      <trkpt lat="46.27361" lon="6.56674">
        <ele>1413.1</ele>
        <time>2023-01-21T11:01:17.000Z</time>
      </trkpt>
      <trkpt lat="46.27361" lon="6.56674">
        <ele>1413.4</ele>
        <time>2023-01-21T11:01:18.000Z</time>
      </trkpt>
      <trkpt lat="46.27359" lon="6.56673">
        <ele>1413.5</ele>
        <time>2023-01-21T11:01:19.000Z</time>
      </trkpt>
      <trkpt lat="46.27359" lon="6.56672">
        <ele>1413.8</ele>
        <time>2023-01-21T11:01:20.000Z</time>
      </trkpt>
      <trkpt lat="46.27357" lon="6.56671">
        <ele>1414.1</ele>
        <time>2023-01-21T11:01:21.000Z</time>
      </trkpt>
      <trkpt lat="46.27356" lon="6.56671">
        <ele>1414.1</ele>
        <time>2023-01-21T11:01:22.000Z</time>
      </trkpt>
      <trkpt lat="46.27356" lon="6.5667">
        <ele>1414.5</ele>
        <time>2023-01-21T11:01:23.000Z</time>
      </trkpt>
      <trkpt lat="46.27355" lon="6.56669">
        <ele>1414.8</ele>
        <time>2023-01-21T11:01:24.000Z</time>
      </trkpt>
      <trkpt lat="46.27353" lon="6.56668">
        <ele>1414.9</ele>
        <time>2023-01-21T11:01:25.000Z</time>
      </trkpt>
      <trkpt lat="46.27353" lon="6.56668">
        <ele>1414.5</ele>
        <time>2023-01-21T11:01:26.000Z</time>
      </trkpt>
      <trkpt lat="46.27353" lon="6.56667">
        <ele>1414.3</ele>
        <time>2023-01-21T11:01:27.000Z</time>
      </trkpt>
      <trkpt lat="46.27353" lon="6.56667">
        <ele>1413.9</ele>
        <time>2023-01-21T11:01:28.000Z</time>
      </trkpt>
      <trkpt lat="46.27353" lon="6.56666">
        <ele>1414.1</ele>
        <time>2023-01-21T11:01:29.000Z</time>
      </trkpt>
      <trkpt lat="46.27353" lon="6.56666">
        <ele>1414.2</ele>
        <time>2023-01-21T11:01:30.000Z</time>
      </trkpt>
      <trkpt lat="46.27353" lon="6.56665">
        <ele>1414.3</ele>
        <time>2023-01-21T11:01:31.000Z</time>
      </trkpt>
      <trkpt lat="46.27353" lon="6.56665">
        <ele>1414.1</ele>
        <time>2023-01-21T11:01:32.000Z</time>
      </trkpt>
      <trkpt lat="46.27353" lon="6.56665">
        <ele>1414.1</ele>
        <time>2023-01-21T11:01:33.000Z</time>
      </trkpt>
      <trkpt lat="46.27352" lon="6.56665">
        <ele>1414.1</ele>
        <time>2023-01-21T11:01:34.000Z</time>
      </trkpt>
      <trkpt lat="46.27352" lon="6.56666">
        <ele>1414</ele>
        <time>2023-01-21T11:01:35.000Z</time>
      </trkpt>
      <trkpt lat="46.27351" lon="6.56665">
        <ele>1413.9</ele>
        <time>2023-01-21T11:01:36.000Z</time>
      </trkpt>
      <trkpt lat="46.27351" lon="6.56665">
        <ele>1413.9</ele>
        <time>2023-01-21T11:01:37.000Z</time>
      </trkpt>
      <trkpt lat="46.27351" lon="6.56665">
        <ele>1413.9</ele>
        <time>2023-01-21T11:01:38.000Z</time>
      </trkpt>
      <trkpt lat="46.27351" lon="6.56665">
        <ele>1413.9</ele>
        <time>2023-01-21T11:01:39.000Z</time>
      </trkpt>
      <trkpt lat="46.27351" lon="6.56665">
        <ele>1413.9</ele>
        <time>2023-01-21T11:01:40.000Z</time>
      </trkpt>
      <trkpt lat="46.27351" lon="6.56665">
        <ele>1413.9</ele>
        <time>2023-01-21T11:01:41.000Z</time>
      </trkpt>
      <trkpt lat="46.27351" lon="6.56665">
        <ele>1413.9</ele>
        <time>2023-01-21T11:01:42.000Z</time>
      </trkpt>
      <trkpt lat="46.27351" lon="6.56665">
        <ele>1413.9</ele>
        <time>2023-01-21T11:01:43.000Z</time>
      </trkpt>
      <trkpt lat="46.27351" lon="6.56665">
        <ele>1413.9</ele>
        <time>2023-01-21T11:01:44.000Z</time>
      </trkpt>
      <trkpt lat="46.27351" lon="6.56665">
        <ele>1413.9</ele>
        <time>2023-01-21T11:01:45.000Z</time>
      </trkpt>
      <trkpt lat="46.27351" lon="6.56665">
        <ele>1413.9</ele>
        <time>2023-01-21T11:01:46.000Z</time>
      </trkpt>
      <trkpt lat="46.27351" lon="6.56665">
        <ele>1413.9</ele>
        <time>2023-01-21T11:01:47.000Z</time>
      </trkpt>
      <trkpt lat="46.27351" lon="6.56665">
        <ele>1413.9</ele>
        <time>2023-01-21T11:01:48.000Z</time>
      </trkpt>
      <trkpt lat="46.27351" lon="6.56665">
        <ele>1413.9</ele>
        <time>2023-01-21T11:01:49.000Z</time>
      </trkpt>
      <trkpt lat="46.27351" lon="6.56665">
        <ele>1413.9</ele>
        <time>2023-01-21T11:01:50.000Z</time>
      </trkpt>
      <trkpt lat="46.27351" lon="6.56665">
        <ele>1413.9</ele>
        <time>2023-01-21T11:01:51.000Z</time>
      </trkpt>
      <trkpt lat="46.27351" lon="6.56665">
        <ele>1413.9</ele>
        <time>2023-01-21T11:01:52.000Z</time>
      </trkpt>
      <trkpt lat="46.27351" lon="6.56665">
        <ele>1413.9</ele>
        <time>2023-01-21T11:01:53.000Z</time>
      </trkpt>
      <trkpt lat="46.27351" lon="6.56665">
        <ele>1413.9</ele>
        <time>2023-01-21T11:01:54.000Z</time>
      </trkpt>
      <trkpt lat="46.27351" lon="6.56665">
        <ele>1413.9</ele>
        <time>2023-01-21T11:01:55.000Z</time>
      </trkpt>
      <trkpt lat="46.27351" lon="6.56665">
        <ele>1413.9</ele>
        <time>2023-01-21T11:01:56.000Z</time>
      </trkpt>
      <trkpt lat="46.27351" lon="6.56665">
        <ele>1413.9</ele>
        <time>2023-01-21T11:01:57.000Z</time>
      </trkpt>
      <trkpt lat="46.27351" lon="6.56665">
        <ele>1413.9</ele>
        <time>2023-01-21T11:01:58.000Z</time>
      </trkpt>
      <trkpt lat="46.27351" lon="6.56665">
        <ele>1413.9</ele>
        <time>2023-01-21T11:01:59.000Z</time>
      </trkpt>
      <trkpt lat="46.27351" lon="6.56665">
        <ele>1413.9</ele>
        <time>2023-01-21T11:02:00.000Z</time>
      </trkpt>
      <trkpt lat="46.27351" lon="6.56665">
        <ele>1413.9</ele>
        <time>2023-01-21T11:02:01.000Z</time>
      </trkpt>
      <trkpt lat="46.27351" lon="6.56665">
        <ele>1413.9</ele>
        <time>2023-01-21T11:02:02.000Z</time>
      </trkpt>
      <trkpt lat="46.27351" lon="6.56665">
        <ele>1413.9</ele>
        <time>2023-01-21T11:02:03.000Z</time>
      </trkpt>
      <trkpt lat="46.27351" lon="6.56665">
        <ele>1413.9</ele>
        <time>2023-01-21T11:02:04.000Z</time>
      </trkpt>
      <trkpt lat="46.27351" lon="6.56665">
        <ele>1413.9</ele>
        <time>2023-01-21T11:02:05.000Z</time>
      </trkpt>
      <trkpt lat="46.27351" lon="6.56665">
        <ele>1413.9</ele>
        <time>2023-01-21T11:02:06.000Z</time>
      </trkpt>
      <trkpt lat="46.27351" lon="6.56665">
        <ele>1413.9</ele>
        <time>2023-01-21T11:02:07.000Z</time>
      </trkpt>
      <trkpt lat="46.27351" lon="6.56665">
        <ele>1413.9</ele>
        <time>2023-01-21T11:02:08.000Z</time>
      </trkpt>
      <trkpt lat="46.27351" lon="6.56665">
        <ele>1413.9</ele>
        <time>2023-01-21T11:02:09.000Z</time>
      </trkpt>
      <trkpt lat="46.27351" lon="6.56665">
        <ele>1413.9</ele>
        <time>2023-01-21T11:02:10.000Z</time>
      </trkpt>
      <trkpt lat="46.27351" lon="6.56665">
        <ele>1413.9</ele>
        <time>2023-01-21T11:02:11.000Z</time>
      </trkpt>
      <trkpt lat="46.27351" lon="6.56665">
        <ele>1413.9</ele>
        <time>2023-01-21T11:02:12.000Z</time>
      </trkpt>
      <trkpt lat="46.27351" lon="6.56665">
        <ele>1413.9</ele>
        <time>2023-01-21T11:02:13.000Z</time>
      </trkpt>
      <trkpt lat="46.27351" lon="6.56665">
        <ele>1413.9</ele>
        <time>2023-01-21T11:02:14.000Z</time>
      </trkpt>
      <trkpt lat="46.27351" lon="6.56665">
        <ele>1413.9</ele>
        <time>2023-01-21T11:02:15.000Z</time>
      </trkpt>
      <trkpt lat="46.27351" lon="6.56665">
        <ele>1413.9</ele>
        <time>2023-01-21T11:02:16.000Z</time>
      </trkpt>
      <trkpt lat="46.27351" lon="6.56665">
        <ele>1413.9</ele>
        <time>2023-01-21T11:02:17.000Z</time>
      </trkpt>
      <trkpt lat="46.27346" lon="6.56665">
        <ele>1415.6</ele>
        <time>2023-01-21T11:02:18.000Z</time>
      </trkpt>
      <trkpt lat="46.27346" lon="6.56665">
        <ele>1415.6</ele>
        <time>2023-01-21T11:02:19.000Z</time>
      </trkpt>
      <trkpt lat="46.27345" lon="6.56665">
        <ele>1415.6</ele>
        <time>2023-01-21T11:02:20.000Z</time>
      </trkpt>
      <trkpt lat="46.27345" lon="6.56665">
        <ele>1415.4</ele>
        <time>2023-01-21T11:02:21.000Z</time>
      </trkpt>
      <trkpt lat="46.27344" lon="6.56665">
        <ele>1415.4</ele>
        <time>2023-01-21T11:02:22.000Z</time>
      </trkpt>
      <trkpt lat="46.27344" lon="6.56664">
        <ele>1415.2</ele>
        <time>2023-01-21T11:02:23.000Z</time>
      </trkpt>
      <trkpt lat="46.27344" lon="6.56664">
        <ele>1415</ele>
        <time>2023-01-21T11:02:24.000Z</time>
      </trkpt>
      <trkpt lat="46.27343" lon="6.56664">
        <ele>1414.6</ele>
        <time>2023-01-21T11:02:25.000Z</time>
      </trkpt>
      <trkpt lat="46.27342" lon="6.56663">
        <ele>1414.4</ele>
        <time>2023-01-21T11:02:26.000Z</time>
      </trkpt>
      <trkpt lat="46.27342" lon="6.56662">
        <ele>1414.5</ele>
        <time>2023-01-21T11:02:27.000Z</time>
      </trkpt>
      <trkpt lat="46.27341" lon="6.56661">
        <ele>1414.2</ele>
        <time>2023-01-21T11:02:28.000Z</time>
      </trkpt>
      <trkpt lat="46.27341" lon="6.56661">
        <ele>1414</ele>
        <time>2023-01-21T11:02:29.000Z</time>
      </trkpt>
      <trkpt lat="46.2734" lon="6.5666">
        <ele>1413.8</ele>
        <time>2023-01-21T11:02:30.000Z</time>
      </trkpt>
      <trkpt lat="46.27339" lon="6.5666">
        <ele>1413.8</ele>
        <time>2023-01-21T11:02:31.000Z</time>
      </trkpt>
      <trkpt lat="46.27339" lon="6.5666">
        <ele>1413.8</ele>
        <time>2023-01-21T11:02:32.000Z</time>
      </trkpt>
      <trkpt lat="46.27339" lon="6.56658">
        <ele>1413.8</ele>
        <time>2023-01-21T11:02:33.000Z</time>
      </trkpt>
      <trkpt lat="46.27339" lon="6.56658">
        <ele>1413.8</ele>
        <time>2023-01-21T11:02:34.000Z</time>
      </trkpt>
      <trkpt lat="46.27338" lon="6.56657">
        <ele>1413.7</ele>
        <time>2023-01-21T11:02:35.000Z</time>
      </trkpt>
      <trkpt lat="46.27338" lon="6.56656">
        <ele>1413.7</ele>
        <time>2023-01-21T11:02:36.000Z</time>
      </trkpt>
      <trkpt lat="46.27337" lon="6.56655">
        <ele>1413.8</ele>
        <time>2023-01-21T11:02:37.000Z</time>
      </trkpt>
      <trkpt lat="46.27336" lon="6.56655">
        <ele>1413.8</ele>
        <time>2023-01-21T11:02:38.000Z</time>
      </trkpt>
      <trkpt lat="46.27336" lon="6.56654">
        <ele>1413.8</ele>
        <time>2023-01-21T11:02:39.000Z</time>
      </trkpt>
      <trkpt lat="46.27335" lon="6.56653">
        <ele>1413.8</ele>
        <time>2023-01-21T11:02:40.000Z</time>
      </trkpt>
      <trkpt lat="46.27333" lon="6.56653">
        <ele>1413.9</ele>
        <time>2023-01-21T11:02:41.000Z</time>
      </trkpt>
      <trkpt lat="46.27332" lon="6.56652">
        <ele>1413.9</ele>
        <time>2023-01-21T11:02:42.000Z</time>
      </trkpt>
      <trkpt lat="46.27332" lon="6.56651">
        <ele>1413.7</ele>
        <time>2023-01-21T11:02:43.000Z</time>
      </trkpt>
      <trkpt lat="46.27331" lon="6.56651">
        <ele>1413.6</ele>
        <time>2023-01-21T11:02:44.000Z</time>
      </trkpt>
      <trkpt lat="46.27331" lon="6.56651">
        <ele>1413.6</ele>
        <time>2023-01-21T11:02:45.000Z</time>
      </trkpt>
      <trkpt lat="46.27331" lon="6.56651">
        <ele>1413.7</ele>
        <time>2023-01-21T11:02:46.000Z</time>
      </trkpt>
      <trkpt lat="46.27331" lon="6.5665">
        <ele>1413.9</ele>
        <time>2023-01-21T11:02:47.000Z</time>
      </trkpt>
      <trkpt lat="46.27331" lon="6.56651">
        <ele>1413.9</ele>
        <time>2023-01-21T11:02:48.000Z</time>
      </trkpt>
      <trkpt lat="46.27331" lon="6.5665">
        <ele>1413.8</ele>
        <time>2023-01-21T11:02:49.000Z</time>
      </trkpt>
      <trkpt lat="46.27331" lon="6.5665">
        <ele>1413.7</ele>
        <time>2023-01-21T11:02:50.000Z</time>
      </trkpt>
      <trkpt lat="46.2733" lon="6.56651">
        <ele>1413.7</ele>
        <time>2023-01-21T11:02:51.000Z</time>
      </trkpt>
      <trkpt lat="46.2733" lon="6.56651">
        <ele>1413.9</ele>
        <time>2023-01-21T11:02:52.000Z</time>
      </trkpt>
      <trkpt lat="46.27329" lon="6.56651">
        <ele>1413.9</ele>
        <time>2023-01-21T11:02:53.000Z</time>
      </trkpt>
      <trkpt lat="46.27329" lon="6.56651">
        <ele>1414</ele>
        <time>2023-01-21T11:02:54.000Z</time>
      </trkpt>
      <trkpt lat="46.27328" lon="6.5665">
        <ele>1414.3</ele>
        <time>2023-01-21T11:02:55.000Z</time>
      </trkpt>
      <trkpt lat="46.27327" lon="6.5665">
        <ele>1414.3</ele>
        <time>2023-01-21T11:02:56.000Z</time>
      </trkpt>
      <trkpt lat="46.27327" lon="6.56649">
        <ele>1414.2</ele>
        <time>2023-01-21T11:02:57.000Z</time>
      </trkpt>
      <trkpt lat="46.27326" lon="6.56649">
        <ele>1414.2</ele>
        <time>2023-01-21T11:02:58.000Z</time>
      </trkpt>
      <trkpt lat="46.27325" lon="6.56648">
        <ele>1414.1</ele>
        <time>2023-01-21T11:02:59.000Z</time>
      </trkpt>
      <trkpt lat="46.27325" lon="6.56648">
        <ele>1414.1</ele>
        <time>2023-01-21T11:03:00.000Z</time>
      </trkpt>
      <trkpt lat="46.27324" lon="6.56648">
        <ele>1413.9</ele>
        <time>2023-01-21T11:03:01.000Z</time>
      </trkpt>
      <trkpt lat="46.27324" lon="6.56647">
        <ele>1413.9</ele>
        <time>2023-01-21T11:03:02.000Z</time>
      </trkpt>
      <trkpt lat="46.27323" lon="6.56646">
        <ele>1414.1</ele>
        <time>2023-01-21T11:03:03.000Z</time>
      </trkpt>
      <trkpt lat="46.27323" lon="6.56646">
        <ele>1414.7</ele>
        <time>2023-01-21T11:03:04.000Z</time>
      </trkpt>
      <trkpt lat="46.27322" lon="6.56646">
        <ele>1414.7</ele>
        <time>2023-01-21T11:03:05.000Z</time>
      </trkpt>
      <trkpt lat="46.27321" lon="6.56645">
        <ele>1414.7</ele>
        <time>2023-01-21T11:03:06.000Z</time>
      </trkpt>
      <trkpt lat="46.2732" lon="6.56645">
        <ele>1414.6</ele>
        <time>2023-01-21T11:03:07.000Z</time>
      </trkpt>
      <trkpt lat="46.27319" lon="6.56644">
        <ele>1414.8</ele>
        <time>2023-01-21T11:03:08.000Z</time>
      </trkpt>
      <trkpt lat="46.27319" lon="6.56643">
        <ele>1415.1</ele>
        <time>2023-01-21T11:03:09.000Z</time>
      </trkpt>
      <trkpt lat="46.27318" lon="6.56642">
        <ele>1415</ele>
        <time>2023-01-21T11:03:10.000Z</time>
      </trkpt>
      <trkpt lat="46.27317" lon="6.5664">
        <ele>1415.2</ele>
        <time>2023-01-21T11:03:11.000Z</time>
      </trkpt>
      <trkpt lat="46.27316" lon="6.56639">
        <ele>1415.4</ele>
        <time>2023-01-21T11:03:12.000Z</time>
      </trkpt>
      <trkpt lat="46.27315" lon="6.56638">
        <ele>1415.4</ele>
        <time>2023-01-21T11:03:13.000Z</time>
      </trkpt>
      <trkpt lat="46.27314" lon="6.56636">
        <ele>1415.6</ele>
        <time>2023-01-21T11:03:14.000Z</time>
      </trkpt>
      <trkpt lat="46.27312" lon="6.56634">
        <ele>1415.6</ele>
        <time>2023-01-21T11:03:15.000Z</time>
      </trkpt>
      <trkpt lat="46.2731" lon="6.56631">
        <ele>1416.1</ele>
        <time>2023-01-21T11:03:16.000Z</time>
      </trkpt>
      <trkpt lat="46.2731" lon="6.56631">
        <ele>1415.9</ele>
        <time>2023-01-21T11:03:17.000Z</time>
      </trkpt>
      <trkpt lat="46.2731" lon="6.56631">
        <ele>1416.1</ele>
        <time>2023-01-21T11:03:18.000Z</time>
      </trkpt>
      <trkpt lat="46.27309" lon="6.56632">
        <ele>1416.1</ele>
        <time>2023-01-21T11:03:19.000Z</time>
      </trkpt>
      <trkpt lat="46.27308" lon="6.56632">
        <ele>1416.5</ele>
        <time>2023-01-21T11:03:20.000Z</time>
      </trkpt>
      <trkpt lat="46.27307" lon="6.56632">
        <ele>1417</ele>
        <time>2023-01-21T11:03:21.000Z</time>
      </trkpt>
      <trkpt lat="46.27306" lon="6.56631">
        <ele>1417.3</ele>
        <time>2023-01-21T11:03:22.000Z</time>
      </trkpt>
      <trkpt lat="46.27306" lon="6.56631">
        <ele>1417.5</ele>
        <time>2023-01-21T11:03:23.000Z</time>
      </trkpt>
      <trkpt lat="46.27305" lon="6.56631">
        <ele>1417.6</ele>
        <time>2023-01-21T11:03:24.000Z</time>
      </trkpt>
      <trkpt lat="46.27304" lon="6.56631">
        <ele>1417.9</ele>
        <time>2023-01-21T11:03:25.000Z</time>
      </trkpt>
      <trkpt lat="46.27302" lon="6.56632">
        <ele>1418</ele>
        <time>2023-01-21T11:03:26.000Z</time>
      </trkpt>
      <trkpt lat="46.27301" lon="6.56631">
        <ele>1418.3</ele>
        <time>2023-01-21T11:03:27.000Z</time>
      </trkpt>
      <trkpt lat="46.27301" lon="6.56631">
        <ele>1418.7</ele>
        <time>2023-01-21T11:03:28.000Z</time>
      </trkpt>
      <trkpt lat="46.273" lon="6.5663">
        <ele>1418.9</ele>
        <time>2023-01-21T11:03:29.000Z</time>
      </trkpt>
      <trkpt lat="46.273" lon="6.5663">
        <ele>1419.2</ele>
        <time>2023-01-21T11:03:30.000Z</time>
      </trkpt>
      <trkpt lat="46.27299" lon="6.5663">
        <ele>1419.4</ele>
        <time>2023-01-21T11:03:31.000Z</time>
      </trkpt>
      <trkpt lat="46.273" lon="6.56631">
        <ele>1419.3</ele>
        <time>2023-01-21T11:03:32.000Z</time>
      </trkpt>
      <trkpt lat="46.27299" lon="6.56631">
        <ele>1419.5</ele>
        <time>2023-01-21T11:03:33.000Z</time>
      </trkpt>
      <trkpt lat="46.27298" lon="6.56632">
        <ele>1419.7</ele>
        <time>2023-01-21T11:03:34.000Z</time>
      </trkpt>
      <trkpt lat="46.27297" lon="6.56632">
        <ele>1419.6</ele>
        <time>2023-01-21T11:03:35.000Z</time>
      </trkpt>
      <trkpt lat="46.27296" lon="6.56632">
        <ele>1420.1</ele>
        <time>2023-01-21T11:03:36.000Z</time>
      </trkpt>
      <trkpt lat="46.27296" lon="6.56632">
        <ele>1420.5</ele>
        <time>2023-01-21T11:03:37.000Z</time>
      </trkpt>
      <trkpt lat="46.27296" lon="6.56632">
        <ele>1420.6</ele>
        <time>2023-01-21T11:03:38.000Z</time>
      </trkpt>
      <trkpt lat="46.27296" lon="6.56632">
        <ele>1420.8</ele>
        <time>2023-01-21T11:03:39.000Z</time>
      </trkpt>
      <trkpt lat="46.27295" lon="6.56632">
        <ele>1420.8</ele>
        <time>2023-01-21T11:03:40.000Z</time>
      </trkpt>
      <trkpt lat="46.27294" lon="6.56631">
        <ele>1421.2</ele>
        <time>2023-01-21T11:03:41.000Z</time>
      </trkpt>
      <trkpt lat="46.27293" lon="6.5663">
        <ele>1421.6</ele>
        <time>2023-01-21T11:03:42.000Z</time>
      </trkpt>
      <trkpt lat="46.27293" lon="6.56629">
        <ele>1421.8</ele>
        <time>2023-01-21T11:03:43.000Z</time>
      </trkpt>
      <trkpt lat="46.27292" lon="6.56628">
        <ele>1421.8</ele>
        <time>2023-01-21T11:03:44.000Z</time>
      </trkpt>
      <trkpt lat="46.27292" lon="6.56628">
        <ele>1422.1</ele>
        <time>2023-01-21T11:03:45.000Z</time>
      </trkpt>
      <trkpt lat="46.27292" lon="6.56626">
        <ele>1422.4</ele>
        <time>2023-01-21T11:03:46.000Z</time>
      </trkpt>
      <trkpt lat="46.27291" lon="6.56625">
        <ele>1422.5</ele>
        <time>2023-01-21T11:03:47.000Z</time>
      </trkpt>
      <trkpt lat="46.27291" lon="6.56624">
        <ele>1422.5</ele>
        <time>2023-01-21T11:03:48.000Z</time>
      </trkpt>
      <trkpt lat="46.2729" lon="6.56624">
        <ele>1422.8</ele>
        <time>2023-01-21T11:03:49.000Z</time>
      </trkpt>
      <trkpt lat="46.27289" lon="6.56624">
        <ele>1422.9</ele>
        <time>2023-01-21T11:03:50.000Z</time>
      </trkpt>
      <trkpt lat="46.27289" lon="6.56624">
        <ele>1423.1</ele>
        <time>2023-01-21T11:03:51.000Z</time>
      </trkpt>
      <trkpt lat="46.27288" lon="6.56624">
        <ele>1423.4</ele>
        <time>2023-01-21T11:03:52.000Z</time>
      </trkpt>
      <trkpt lat="46.27288" lon="6.56624">
        <ele>1423.5</ele>
        <time>2023-01-21T11:03:53.000Z</time>
      </trkpt>
      <trkpt lat="46.27287" lon="6.56623">
        <ele>1423.7</ele>
        <time>2023-01-21T11:03:54.000Z</time>
      </trkpt>
      <trkpt lat="46.27286" lon="6.56621">
        <ele>1423.9</ele>
        <time>2023-01-21T11:03:55.000Z</time>
      </trkpt>
      <trkpt lat="46.27286" lon="6.5662">
        <ele>1424.1</ele>
        <time>2023-01-21T11:03:56.000Z</time>
      </trkpt>
      <trkpt lat="46.27286" lon="6.56619">
        <ele>1423.9</ele>
        <time>2023-01-21T11:03:57.000Z</time>
      </trkpt>
      <trkpt lat="46.27284" lon="6.56618">
        <ele>1424</ele>
        <time>2023-01-21T11:03:58.000Z</time>
      </trkpt>
      <trkpt lat="46.27283" lon="6.56617">
        <ele>1424.3</ele>
        <time>2023-01-21T11:03:59.000Z</time>
      </trkpt>
      <trkpt lat="46.27283" lon="6.56616">
        <ele>1424.7</ele>
        <time>2023-01-21T11:04:00.000Z</time>
      </trkpt>
      <trkpt lat="46.27282" lon="6.56616">
        <ele>1424.8</ele>
        <time>2023-01-21T11:04:01.000Z</time>
      </trkpt>
      <trkpt lat="46.27282" lon="6.56615">
        <ele>1424.9</ele>
        <time>2023-01-21T11:04:02.000Z</time>
      </trkpt>
      <trkpt lat="46.27281" lon="6.56616">
        <ele>1425.1</ele>
        <time>2023-01-21T11:04:03.000Z</time>
      </trkpt>
      <trkpt lat="46.2728" lon="6.56616">
        <ele>1425.2</ele>
        <time>2023-01-21T11:04:04.000Z</time>
      </trkpt>
      <trkpt lat="46.27279" lon="6.56616">
        <ele>1425.4</ele>
        <time>2023-01-21T11:04:05.000Z</time>
      </trkpt>
      <trkpt lat="46.27279" lon="6.56616">
        <ele>1425.5</ele>
        <time>2023-01-21T11:04:06.000Z</time>
      </trkpt>
      <trkpt lat="46.27278" lon="6.56617">
        <ele>1425.7</ele>
        <time>2023-01-21T11:04:07.000Z</time>
      </trkpt>
      <trkpt lat="46.27277" lon="6.56616">
        <ele>1425.4</ele>
        <time>2023-01-21T11:04:08.000Z</time>
      </trkpt>
      <trkpt lat="46.27276" lon="6.56616">
        <ele>1425.4</ele>
        <time>2023-01-21T11:04:09.000Z</time>
      </trkpt>
      <trkpt lat="46.27276" lon="6.56616">
        <ele>1425.4</ele>
        <time>2023-01-21T11:04:10.000Z</time>
      </trkpt>
      <trkpt lat="46.27275" lon="6.56616">
        <ele>1425.4</ele>
        <time>2023-01-21T11:04:11.000Z</time>
      </trkpt>
      <trkpt lat="46.27274" lon="6.56615">
        <ele>1425.5</ele>
        <time>2023-01-21T11:04:12.000Z</time>
      </trkpt>
      <trkpt lat="46.27273" lon="6.56615">
        <ele>1425.6</ele>
        <time>2023-01-21T11:04:13.000Z</time>
      </trkpt>
      <trkpt lat="46.27272" lon="6.56615">
        <ele>1425.5</ele>
        <time>2023-01-21T11:04:14.000Z</time>
      </trkpt>
      <trkpt lat="46.27271" lon="6.56615">
        <ele>1425.7</ele>
        <time>2023-01-21T11:04:15.000Z</time>
      </trkpt>
      <trkpt lat="46.2727" lon="6.56615">
        <ele>1425.8</ele>
        <time>2023-01-21T11:04:16.000Z</time>
      </trkpt>
      <trkpt lat="46.2727" lon="6.56614">
        <ele>1426.2</ele>
        <time>2023-01-21T11:04:17.000Z</time>
      </trkpt>
      <trkpt lat="46.27269" lon="6.56614">
        <ele>1426.3</ele>
        <time>2023-01-21T11:04:18.000Z</time>
      </trkpt>
      <trkpt lat="46.27268" lon="6.56614">
        <ele>1426.4</ele>
        <time>2023-01-21T11:04:19.000Z</time>
      </trkpt>
      <trkpt lat="46.27268" lon="6.56614">
        <ele>1426.5</ele>
        <time>2023-01-21T11:04:20.000Z</time>
      </trkpt>
      <trkpt lat="46.27268" lon="6.56614">
        <ele>1426.6</ele>
        <time>2023-01-21T11:04:21.000Z</time>
      </trkpt>
      <trkpt lat="46.27268" lon="6.56615">
        <ele>1426.7</ele>
        <time>2023-01-21T11:04:22.000Z</time>
      </trkpt>
      <trkpt lat="46.27267" lon="6.56614">
        <ele>1426.9</ele>
        <time>2023-01-21T11:04:23.000Z</time>
      </trkpt>
      <trkpt lat="46.27266" lon="6.56614">
        <ele>1426.8</ele>
        <time>2023-01-21T11:04:24.000Z</time>
      </trkpt>
      <trkpt lat="46.27265" lon="6.56614">
        <ele>1426.9</ele>
        <time>2023-01-21T11:04:25.000Z</time>
      </trkpt>
      <trkpt lat="46.27264" lon="6.56613">
        <ele>1427.5</ele>
        <time>2023-01-21T11:04:26.000Z</time>
      </trkpt>
      <trkpt lat="46.27264" lon="6.56613">
        <ele>1428.1</ele>
        <time>2023-01-21T11:04:27.000Z</time>
      </trkpt>
      <trkpt lat="46.27263" lon="6.56613">
        <ele>1428.5</ele>
        <time>2023-01-21T11:04:28.000Z</time>
      </trkpt>
      <trkpt lat="46.27263" lon="6.56613">
        <ele>1429.1</ele>
        <time>2023-01-21T11:04:29.000Z</time>
      </trkpt>
      <trkpt lat="46.27262" lon="6.56613">
        <ele>1429.6</ele>
        <time>2023-01-21T11:04:30.000Z</time>
      </trkpt>
      <trkpt lat="46.27261" lon="6.56613">
        <ele>1429.9</ele>
        <time>2023-01-21T11:04:31.000Z</time>
      </trkpt>
      <trkpt lat="46.27261" lon="6.56613">
        <ele>1430</ele>
        <time>2023-01-21T11:04:32.000Z</time>
      </trkpt>
      <trkpt lat="46.27261" lon="6.56613">
        <ele>1430.3</ele>
        <time>2023-01-21T11:04:33.000Z</time>
      </trkpt>
      <trkpt lat="46.27261" lon="6.56614">
        <ele>1430.3</ele>
        <time>2023-01-21T11:04:34.000Z</time>
      </trkpt>
      <trkpt lat="46.27261" lon="6.56614">
        <ele>1430.3</ele>
        <time>2023-01-21T11:04:35.000Z</time>
      </trkpt>
      <trkpt lat="46.27261" lon="6.56612">
        <ele>1430</ele>
        <time>2023-01-21T11:04:36.000Z</time>
      </trkpt>
      <trkpt lat="46.2726" lon="6.56612">
        <ele>1429.6</ele>
        <time>2023-01-21T11:04:37.000Z</time>
      </trkpt>
      <trkpt lat="46.2726" lon="6.56612">
        <ele>1429.6</ele>
        <time>2023-01-21T11:04:38.000Z</time>
      </trkpt>
      <trkpt lat="46.27259" lon="6.56611">
        <ele>1429.6</ele>
        <time>2023-01-21T11:04:39.000Z</time>
      </trkpt>
      <trkpt lat="46.27258" lon="6.56611">
        <ele>1429.8</ele>
        <time>2023-01-21T11:04:40.000Z</time>
      </trkpt>
      <trkpt lat="46.27257" lon="6.56611">
        <ele>1429.8</ele>
        <time>2023-01-21T11:04:41.000Z</time>
      </trkpt>
      <trkpt lat="46.27256" lon="6.56611">
        <ele>1429.8</ele>
        <time>2023-01-21T11:04:42.000Z</time>
      </trkpt>
      <trkpt lat="46.27255" lon="6.56612">
        <ele>1429.7</ele>
        <time>2023-01-21T11:04:43.000Z</time>
      </trkpt>
      <trkpt lat="46.27253" lon="6.56612">
        <ele>1429.7</ele>
        <time>2023-01-21T11:04:44.000Z</time>
      </trkpt>
      <trkpt lat="46.27252" lon="6.56611">
        <ele>1429.7</ele>
        <time>2023-01-21T11:04:45.000Z</time>
      </trkpt>
      <trkpt lat="46.2725" lon="6.56611">
        <ele>1429.4</ele>
        <time>2023-01-21T11:04:46.000Z</time>
      </trkpt>
      <trkpt lat="46.27249" lon="6.5661">
        <ele>1429.7</ele>
        <time>2023-01-21T11:04:47.000Z</time>
      </trkpt>
      <trkpt lat="46.27249" lon="6.5661">
        <ele>1430.1</ele>
        <time>2023-01-21T11:04:48.000Z</time>
      </trkpt>
      <trkpt lat="46.27248" lon="6.5661">
        <ele>1430.1</ele>
        <time>2023-01-21T11:04:49.000Z</time>
      </trkpt>
      <trkpt lat="46.27248" lon="6.56609">
        <ele>1430.1</ele>
        <time>2023-01-21T11:04:50.000Z</time>
      </trkpt>
      <trkpt lat="46.27247" lon="6.56608">
        <ele>1429.7</ele>
        <time>2023-01-21T11:04:51.000Z</time>
      </trkpt>
      <trkpt lat="46.27246" lon="6.56607">
        <ele>1429.7</ele>
        <time>2023-01-21T11:04:52.000Z</time>
      </trkpt>
      <trkpt lat="46.27246" lon="6.56606">
        <ele>1430</ele>
        <time>2023-01-21T11:04:53.000Z</time>
      </trkpt>
      <trkpt lat="46.27246" lon="6.56606">
        <ele>1430.5</ele>
        <time>2023-01-21T11:04:54.000Z</time>
      </trkpt>
      <trkpt lat="46.27245" lon="6.56605">
        <ele>1430.9</ele>
        <time>2023-01-21T11:04:55.000Z</time>
      </trkpt>
      <trkpt lat="46.27243" lon="6.56605">
        <ele>1431.5</ele>
        <time>2023-01-21T11:04:56.000Z</time>
      </trkpt>
      <trkpt lat="46.27242" lon="6.56606">
        <ele>1432.2</ele>
        <time>2023-01-21T11:04:57.000Z</time>
      </trkpt>
      <trkpt lat="46.27241" lon="6.56606">
        <ele>1432.5</ele>
        <time>2023-01-21T11:04:58.000Z</time>
      </trkpt>
      <trkpt lat="46.27239" lon="6.56606">
        <ele>1433.1</ele>
        <time>2023-01-21T11:04:59.000Z</time>
      </trkpt>
      <trkpt lat="46.27238" lon="6.56606">
        <ele>1433.4</ele>
        <time>2023-01-21T11:05:00.000Z</time>
      </trkpt>
      <trkpt lat="46.27237" lon="6.56606">
        <ele>1433.7</ele>
        <time>2023-01-21T11:05:01.000Z</time>
      </trkpt>
      <trkpt lat="46.27237" lon="6.56605">
        <ele>1433.9</ele>
        <time>2023-01-21T11:05:02.000Z</time>
      </trkpt>
      <trkpt lat="46.27237" lon="6.56604">
        <ele>1433.7</ele>
        <time>2023-01-21T11:05:03.000Z</time>
      </trkpt>
      <trkpt lat="46.27236" lon="6.56603">
        <ele>1433.8</ele>
        <time>2023-01-21T11:05:04.000Z</time>
      </trkpt>
      <trkpt lat="46.27234" lon="6.56602">
        <ele>1433.9</ele>
        <time>2023-01-21T11:05:05.000Z</time>
      </trkpt>
      <trkpt lat="46.27234" lon="6.56601">
        <ele>1434.4</ele>
        <time>2023-01-21T11:05:06.000Z</time>
      </trkpt>
      <trkpt lat="46.27233" lon="6.566">
        <ele>1434.8</ele>
        <time>2023-01-21T11:05:07.000Z</time>
      </trkpt>
      <trkpt lat="46.27232" lon="6.56599">
        <ele>1435.3</ele>
        <time>2023-01-21T11:05:08.000Z</time>
      </trkpt>
      <trkpt lat="46.27232" lon="6.56599">
        <ele>1435.1</ele>
        <time>2023-01-21T11:05:09.000Z</time>
      </trkpt>
      <trkpt lat="46.27231" lon="6.56599">
        <ele>1435.3</ele>
        <time>2023-01-21T11:05:10.000Z</time>
      </trkpt>
      <trkpt lat="46.2723" lon="6.56599">
        <ele>1435.7</ele>
        <time>2023-01-21T11:05:11.000Z</time>
      </trkpt>
      <trkpt lat="46.27229" lon="6.56599">
        <ele>1435.9</ele>
        <time>2023-01-21T11:05:12.000Z</time>
      </trkpt>
      <trkpt lat="46.27228" lon="6.56599">
        <ele>1436.1</ele>
        <time>2023-01-21T11:05:13.000Z</time>
      </trkpt>
      <trkpt lat="46.27228" lon="6.56599">
        <ele>1436.9</ele>
        <time>2023-01-21T11:05:14.000Z</time>
      </trkpt>
      <trkpt lat="46.27227" lon="6.56601">
        <ele>1437.2</ele>
        <time>2023-01-21T11:05:15.000Z</time>
      </trkpt>
      <trkpt lat="46.27227" lon="6.566">
        <ele>1437.3</ele>
        <time>2023-01-21T11:05:16.000Z</time>
      </trkpt>
      <trkpt lat="46.27226" lon="6.56601">
        <ele>1437.6</ele>
        <time>2023-01-21T11:05:17.000Z</time>
      </trkpt>
      <trkpt lat="46.27226" lon="6.566">
        <ele>1438</ele>
        <time>2023-01-21T11:05:18.000Z</time>
      </trkpt>
      <trkpt lat="46.27225" lon="6.566">
        <ele>1438.3</ele>
        <time>2023-01-21T11:05:19.000Z</time>
      </trkpt>
      <trkpt lat="46.27225" lon="6.56599">
        <ele>1438.9</ele>
        <time>2023-01-21T11:05:20.000Z</time>
      </trkpt>
      <trkpt lat="46.27224" lon="6.56598">
        <ele>1439.3</ele>
        <time>2023-01-21T11:05:21.000Z</time>
      </trkpt>
      <trkpt lat="46.27224" lon="6.56597">
        <ele>1439.3</ele>
        <time>2023-01-21T11:05:22.000Z</time>
      </trkpt>
      <trkpt lat="46.27223" lon="6.56596">
        <ele>1439.6</ele>
        <time>2023-01-21T11:05:23.000Z</time>
      </trkpt>
      <trkpt lat="46.27222" lon="6.56595">
        <ele>1439.4</ele>
        <time>2023-01-21T11:05:24.000Z</time>
      </trkpt>
      <trkpt lat="46.27222" lon="6.56595">
        <ele>1439.3</ele>
        <time>2023-01-21T11:05:25.000Z</time>
      </trkpt>
      <trkpt lat="46.27221" lon="6.56595">
        <ele>1439.4</ele>
        <time>2023-01-21T11:05:26.000Z</time>
      </trkpt>
      <trkpt lat="46.2722" lon="6.56595">
        <ele>1439.8</ele>
        <time>2023-01-21T11:05:27.000Z</time>
      </trkpt>
      <trkpt lat="46.27219" lon="6.56594">
        <ele>1440.4</ele>
        <time>2023-01-21T11:05:28.000Z</time>
      </trkpt>
      <trkpt lat="46.27218" lon="6.56594">
        <ele>1440.6</ele>
        <time>2023-01-21T11:05:29.000Z</time>
      </trkpt>
      <trkpt lat="46.27218" lon="6.56595">
        <ele>1440.9</ele>
        <time>2023-01-21T11:05:30.000Z</time>
      </trkpt>
      <trkpt lat="46.27217" lon="6.56595">
        <ele>1441.3</ele>
        <time>2023-01-21T11:05:31.000Z</time>
      </trkpt>
      <trkpt lat="46.27216" lon="6.56596">
        <ele>1441.5</ele>
        <time>2023-01-21T11:05:32.000Z</time>
      </trkpt>
      <trkpt lat="46.27216" lon="6.56595">
        <ele>1442</ele>
        <time>2023-01-21T11:05:33.000Z</time>
      </trkpt>
      <trkpt lat="46.27215" lon="6.56595">
        <ele>1442</ele>
        <time>2023-01-21T11:05:34.000Z</time>
      </trkpt>
      <trkpt lat="46.27214" lon="6.56595">
        <ele>1442.1</ele>
        <time>2023-01-21T11:05:35.000Z</time>
      </trkpt>
      <trkpt lat="46.27213" lon="6.56595">
        <ele>1441.9</ele>
        <time>2023-01-21T11:05:36.000Z</time>
      </trkpt>
      <trkpt lat="46.27212" lon="6.56595">
        <ele>1442</ele>
        <time>2023-01-21T11:05:37.000Z</time>
      </trkpt>
      <trkpt lat="46.2721" lon="6.56595">
        <ele>1442.4</ele>
        <time>2023-01-21T11:05:38.000Z</time>
      </trkpt>
      <trkpt lat="46.2721" lon="6.56594">
        <ele>1442.4</ele>
        <time>2023-01-21T11:05:39.000Z</time>
      </trkpt>
      <trkpt lat="46.27208" lon="6.56594">
        <ele>1442.5</ele>
        <time>2023-01-21T11:05:40.000Z</time>
      </trkpt>
      <trkpt lat="46.27208" lon="6.56594">
        <ele>1442.3</ele>
        <time>2023-01-21T11:05:41.000Z</time>
      </trkpt>
      <trkpt lat="46.27207" lon="6.56594">
        <ele>1442</ele>
        <time>2023-01-21T11:05:42.000Z</time>
      </trkpt>
      <trkpt lat="46.27207" lon="6.56594">
        <ele>1442.1</ele>
        <time>2023-01-21T11:05:43.000Z</time>
      </trkpt>
      <trkpt lat="46.27206" lon="6.56594">
        <ele>1442.4</ele>
        <time>2023-01-21T11:05:44.000Z</time>
      </trkpt>
      <trkpt lat="46.27206" lon="6.56594">
        <ele>1442.4</ele>
        <time>2023-01-21T11:05:45.000Z</time>
      </trkpt>
      <trkpt lat="46.27205" lon="6.56594">
        <ele>1442.3</ele>
        <time>2023-01-21T11:05:46.000Z</time>
      </trkpt>
      <trkpt lat="46.27205" lon="6.56594">
        <ele>1442.4</ele>
        <time>2023-01-21T11:05:47.000Z</time>
      </trkpt>
      <trkpt lat="46.27204" lon="6.56593">
        <ele>1442.3</ele>
        <time>2023-01-21T11:05:48.000Z</time>
      </trkpt>
      <trkpt lat="46.27204" lon="6.56593">
        <ele>1442.3</ele>
        <time>2023-01-21T11:05:49.000Z</time>
      </trkpt>
      <trkpt lat="46.27203" lon="6.56593">
        <ele>1442.5</ele>
        <time>2023-01-21T11:05:50.000Z</time>
      </trkpt>
      <trkpt lat="46.27203" lon="6.56593">
        <ele>1442.6</ele>
        <time>2023-01-21T11:05:51.000Z</time>
      </trkpt>
      <trkpt lat="46.27202" lon="6.56592">
        <ele>1442.8</ele>
        <time>2023-01-21T11:05:52.000Z</time>
      </trkpt>
      <trkpt lat="46.27201" lon="6.56592">
        <ele>1443.1</ele>
        <time>2023-01-21T11:05:53.000Z</time>
      </trkpt>
      <trkpt lat="46.272" lon="6.56592">
        <ele>1443</ele>
        <time>2023-01-21T11:05:54.000Z</time>
      </trkpt>
      <trkpt lat="46.27199" lon="6.56592">
        <ele>1443.2</ele>
        <time>2023-01-21T11:05:55.000Z</time>
      </trkpt>
      <trkpt lat="46.27198" lon="6.56592">
        <ele>1443.2</ele>
        <time>2023-01-21T11:05:56.000Z</time>
      </trkpt>
      <trkpt lat="46.27198" lon="6.56593">
        <ele>1443.2</ele>
        <time>2023-01-21T11:05:57.000Z</time>
      </trkpt>
      <trkpt lat="46.27197" lon="6.56592">
        <ele>1443.1</ele>
        <time>2023-01-21T11:05:58.000Z</time>
      </trkpt>
      <trkpt lat="46.27196" lon="6.56592">
        <ele>1443</ele>
        <time>2023-01-21T11:05:59.000Z</time>
      </trkpt>
      <trkpt lat="46.27195" lon="6.56591">
        <ele>1443.1</ele>
        <time>2023-01-21T11:06:00.000Z</time>
      </trkpt>
      <trkpt lat="46.27195" lon="6.56591">
        <ele>1443</ele>
        <time>2023-01-21T11:06:01.000Z</time>
      </trkpt>
      <trkpt lat="46.27194" lon="6.56591">
        <ele>1443.1</ele>
        <time>2023-01-21T11:06:02.000Z</time>
      </trkpt>
      <trkpt lat="46.27192" lon="6.5659">
        <ele>1443.3</ele>
        <time>2023-01-21T11:06:03.000Z</time>
      </trkpt>
      <trkpt lat="46.27192" lon="6.56591">
        <ele>1443.5</ele>
        <time>2023-01-21T11:06:04.000Z</time>
      </trkpt>
      <trkpt lat="46.27191" lon="6.5659">
        <ele>1443.7</ele>
        <time>2023-01-21T11:06:05.000Z</time>
      </trkpt>
      <trkpt lat="46.2719" lon="6.5659">
        <ele>1444.2</ele>
        <time>2023-01-21T11:06:06.000Z</time>
      </trkpt>
      <trkpt lat="46.2719" lon="6.5659">
        <ele>1444.4</ele>
        <time>2023-01-21T11:06:07.000Z</time>
      </trkpt>
      <trkpt lat="46.27189" lon="6.5659">
        <ele>1444.7</ele>
        <time>2023-01-21T11:06:08.000Z</time>
      </trkpt>
      <trkpt lat="46.27188" lon="6.56589">
        <ele>1444.8</ele>
        <time>2023-01-21T11:06:09.000Z</time>
      </trkpt>
      <trkpt lat="46.27188" lon="6.56588">
        <ele>1445.1</ele>
        <time>2023-01-21T11:06:10.000Z</time>
      </trkpt>
      <trkpt lat="46.27188" lon="6.56588">
        <ele>1445.2</ele>
        <time>2023-01-21T11:06:11.000Z</time>
      </trkpt>
      <trkpt lat="46.27187" lon="6.56587">
        <ele>1445.4</ele>
        <time>2023-01-21T11:06:12.000Z</time>
      </trkpt>
      <trkpt lat="46.27186" lon="6.56587">
        <ele>1445.4</ele>
        <time>2023-01-21T11:06:13.000Z</time>
      </trkpt>
      <trkpt lat="46.27186" lon="6.56587">
        <ele>1445.4</ele>
        <time>2023-01-21T11:06:14.000Z</time>
      </trkpt>
      <trkpt lat="46.27185" lon="6.56586">
        <ele>1445.3</ele>
        <time>2023-01-21T11:06:15.000Z</time>
      </trkpt>
      <trkpt lat="46.27184" lon="6.56585">
        <ele>1445.7</ele>
        <time>2023-01-21T11:06:16.000Z</time>
      </trkpt>
      <trkpt lat="46.27183" lon="6.56584">
        <ele>1445.6</ele>
        <time>2023-01-21T11:06:17.000Z</time>
      </trkpt>
      <trkpt lat="46.27182" lon="6.56584">
        <ele>1445.5</ele>
        <time>2023-01-21T11:06:18.000Z</time>
      </trkpt>
      <trkpt lat="46.27181" lon="6.56584">
        <ele>1445.4</ele>
        <time>2023-01-21T11:06:19.000Z</time>
      </trkpt>
      <trkpt lat="46.27181" lon="6.56584">
        <ele>1445.2</ele>
        <time>2023-01-21T11:06:20.000Z</time>
      </trkpt>
      <trkpt lat="46.27182" lon="6.56585">
        <ele>1444.9</ele>
        <time>2023-01-21T11:06:21.000Z</time>
      </trkpt>
      <trkpt lat="46.27181" lon="6.56585">
        <ele>1444.8</ele>
        <time>2023-01-21T11:06:22.000Z</time>
      </trkpt>
      <trkpt lat="46.2718" lon="6.56585">
        <ele>1444.7</ele>
        <time>2023-01-21T11:06:23.000Z</time>
      </trkpt>
      <trkpt lat="46.2718" lon="6.56585">
        <ele>1444.8</ele>
        <time>2023-01-21T11:06:24.000Z</time>
      </trkpt>
      <trkpt lat="46.27179" lon="6.56585">
        <ele>1444.5</ele>
        <time>2023-01-21T11:06:25.000Z</time>
      </trkpt>
      <trkpt lat="46.27178" lon="6.56585">
        <ele>1444.5</ele>
        <time>2023-01-21T11:06:26.000Z</time>
      </trkpt>
      <trkpt lat="46.27178" lon="6.56585">
        <ele>1444.3</ele>
        <time>2023-01-21T11:06:27.000Z</time>
      </trkpt>
      <trkpt lat="46.27177" lon="6.56586">
        <ele>1444.1</ele>
        <time>2023-01-21T11:06:28.000Z</time>
      </trkpt>
      <trkpt lat="46.27177" lon="6.56586">
        <ele>1443.8</ele>
        <time>2023-01-21T11:06:29.000Z</time>
      </trkpt>
      <trkpt lat="46.27177" lon="6.56585">
        <ele>1444</ele>
        <time>2023-01-21T11:06:30.000Z</time>
      </trkpt>
      <trkpt lat="46.27177" lon="6.56585">
        <ele>1444</ele>
        <time>2023-01-21T11:06:31.000Z</time>
      </trkpt>
      <trkpt lat="46.27177" lon="6.56585">
        <ele>1444</ele>
        <time>2023-01-21T11:06:32.000Z</time>
      </trkpt>
      <trkpt lat="46.27177" lon="6.56585">
        <ele>1444</ele>
        <time>2023-01-21T11:06:33.000Z</time>
      </trkpt>
      <trkpt lat="46.27177" lon="6.56585">
        <ele>1444</ele>
        <time>2023-01-21T11:06:34.000Z</time>
      </trkpt>
      <trkpt lat="46.27177" lon="6.56585">
        <ele>1444</ele>
        <time>2023-01-21T11:06:35.000Z</time>
      </trkpt>
      <trkpt lat="46.27177" lon="6.56585">
        <ele>1444</ele>
        <time>2023-01-21T11:06:36.000Z</time>
      </trkpt>
      <trkpt lat="46.27177" lon="6.56585">
        <ele>1444</ele>
        <time>2023-01-21T11:06:37.000Z</time>
      </trkpt>
      <trkpt lat="46.27173" lon="6.56584">
        <ele>1444.3</ele>
        <time>2023-01-21T11:06:38.000Z</time>
      </trkpt>
      <trkpt lat="46.27172" lon="6.56583">
        <ele>1444.4</ele>
        <time>2023-01-21T11:06:39.000Z</time>
      </trkpt>
      <trkpt lat="46.27171" lon="6.56582">
        <ele>1444.6</ele>
        <time>2023-01-21T11:06:40.000Z</time>
      </trkpt>
      <trkpt lat="46.2717" lon="6.56582">
        <ele>1444.4</ele>
        <time>2023-01-21T11:06:41.000Z</time>
      </trkpt>
      <trkpt lat="46.27169" lon="6.56581">
        <ele>1444.3</ele>
        <time>2023-01-21T11:06:42.000Z</time>
      </trkpt>
      <trkpt lat="46.27168" lon="6.5658">
        <ele>1443.9</ele>
        <time>2023-01-21T11:06:43.000Z</time>
      </trkpt>
      <trkpt lat="46.27168" lon="6.56579">
        <ele>1443.7</ele>
        <time>2023-01-21T11:06:44.000Z</time>
      </trkpt>
      <trkpt lat="46.27167" lon="6.56578">
        <ele>1443.8</ele>
        <time>2023-01-21T11:06:45.000Z</time>
      </trkpt>
      <trkpt lat="46.27167" lon="6.56577">
        <ele>1443.8</ele>
        <time>2023-01-21T11:06:46.000Z</time>
      </trkpt>
      <trkpt lat="46.27166" lon="6.56577">
        <ele>1443.9</ele>
        <time>2023-01-21T11:06:47.000Z</time>
      </trkpt>
      <trkpt lat="46.27165" lon="6.56575">
        <ele>1444.1</ele>
        <time>2023-01-21T11:06:48.000Z</time>
      </trkpt>
      <trkpt lat="46.27165" lon="6.56575">
        <ele>1444.2</ele>
        <time>2023-01-21T11:06:49.000Z</time>
      </trkpt>
      <trkpt lat="46.27164" lon="6.56574">
        <ele>1444.2</ele>
        <time>2023-01-21T11:06:50.000Z</time>
      </trkpt>
      <trkpt lat="46.27163" lon="6.56573">
        <ele>1444.3</ele>
        <time>2023-01-21T11:06:51.000Z</time>
      </trkpt>
      <trkpt lat="46.27163" lon="6.56573">
        <ele>1444.4</ele>
        <time>2023-01-21T11:06:52.000Z</time>
      </trkpt>
      <trkpt lat="46.27162" lon="6.56573">
        <ele>1444.3</ele>
        <time>2023-01-21T11:06:53.000Z</time>
      </trkpt>
      <trkpt lat="46.27161" lon="6.56574">
        <ele>1444.1</ele>
        <time>2023-01-21T11:06:54.000Z</time>
      </trkpt>
      <trkpt lat="46.27161" lon="6.56574">
        <ele>1444.4</ele>
        <time>2023-01-21T11:06:55.000Z</time>
      </trkpt>
      <trkpt lat="46.2716" lon="6.56574">
        <ele>1444.4</ele>
        <time>2023-01-21T11:06:56.000Z</time>
      </trkpt>
      <trkpt lat="46.2716" lon="6.56574">
        <ele>1444.3</ele>
        <time>2023-01-21T11:06:57.000Z</time>
      </trkpt>
      <trkpt lat="46.2716" lon="6.56576">
        <ele>1444.1</ele>
        <time>2023-01-21T11:06:58.000Z</time>
      </trkpt>
      <trkpt lat="46.27159" lon="6.56575">
        <ele>1444.1</ele>
        <time>2023-01-21T11:06:59.000Z</time>
      </trkpt>
      <trkpt lat="46.27159" lon="6.56575">
        <ele>1444.2</ele>
        <time>2023-01-21T11:07:00.000Z</time>
      </trkpt>
      <trkpt lat="46.27158" lon="6.56575">
        <ele>1444.3</ele>
        <time>2023-01-21T11:07:01.000Z</time>
      </trkpt>
      <trkpt lat="46.27157" lon="6.56574">
        <ele>1444.2</ele>
        <time>2023-01-21T11:07:02.000Z</time>
      </trkpt>
      <trkpt lat="46.27157" lon="6.56574">
        <ele>1444.5</ele>
        <time>2023-01-21T11:07:03.000Z</time>
      </trkpt>
      <trkpt lat="46.27156" lon="6.56574">
        <ele>1444.4</ele>
        <time>2023-01-21T11:07:04.000Z</time>
      </trkpt>
      <trkpt lat="46.27156" lon="6.56574">
        <ele>1444.4</ele>
        <time>2023-01-21T11:07:05.000Z</time>
      </trkpt>
      <trkpt lat="46.27156" lon="6.56574">
        <ele>1443.9</ele>
        <time>2023-01-21T11:07:06.000Z</time>
      </trkpt>
      <trkpt lat="46.27156" lon="6.56574">
        <ele>1443.7</ele>
        <time>2023-01-21T11:07:07.000Z</time>
      </trkpt>
      <trkpt lat="46.27156" lon="6.56574">
        <ele>1443.4</ele>
        <time>2023-01-21T11:07:08.000Z</time>
      </trkpt>
      <trkpt lat="46.27155" lon="6.56573">
        <ele>1443.1</ele>
        <time>2023-01-21T11:07:09.000Z</time>
      </trkpt>
      <trkpt lat="46.27154" lon="6.56572">
        <ele>1443</ele>
        <time>2023-01-21T11:07:10.000Z</time>
      </trkpt>
      <trkpt lat="46.27153" lon="6.56572">
        <ele>1442.7</ele>
        <time>2023-01-21T11:07:11.000Z</time>
      </trkpt>
      <trkpt lat="46.27152" lon="6.56571">
        <ele>1442.6</ele>
        <time>2023-01-21T11:07:12.000Z</time>
      </trkpt>
      <trkpt lat="46.27151" lon="6.5657">
        <ele>1442</ele>
        <time>2023-01-21T11:07:13.000Z</time>
      </trkpt>
      <trkpt lat="46.2715" lon="6.56569">
        <ele>1441.6</ele>
        <time>2023-01-21T11:07:14.000Z</time>
      </trkpt>
      <trkpt lat="46.2715" lon="6.56568">
        <ele>1441.1</ele>
        <time>2023-01-21T11:07:15.000Z</time>
      </trkpt>
      <trkpt lat="46.27149" lon="6.56568">
        <ele>1440.8</ele>
        <time>2023-01-21T11:07:16.000Z</time>
      </trkpt>
      <trkpt lat="46.27148" lon="6.56567">
        <ele>1440.8</ele>
        <time>2023-01-21T11:07:17.000Z</time>
      </trkpt>
      <trkpt lat="46.27147" lon="6.56567">
        <ele>1440.7</ele>
        <time>2023-01-21T11:07:18.000Z</time>
      </trkpt>
      <trkpt lat="46.27146" lon="6.56566">
        <ele>1440.5</ele>
        <time>2023-01-21T11:07:19.000Z</time>
      </trkpt>
      <trkpt lat="46.27145" lon="6.56566">
        <ele>1440.3</ele>
        <time>2023-01-21T11:07:20.000Z</time>
      </trkpt>
      <trkpt lat="46.27144" lon="6.56565">
        <ele>1440.3</ele>
        <time>2023-01-21T11:07:21.000Z</time>
      </trkpt>
      <trkpt lat="46.27144" lon="6.56566">
        <ele>1440.3</ele>
        <time>2023-01-21T11:07:22.000Z</time>
      </trkpt>
      <trkpt lat="46.27143" lon="6.56567">
        <ele>1440.4</ele>
        <time>2023-01-21T11:07:23.000Z</time>
      </trkpt>
      <trkpt lat="46.27142" lon="6.56567">
        <ele>1440.4</ele>
        <time>2023-01-21T11:07:24.000Z</time>
      </trkpt>
      <trkpt lat="46.27141" lon="6.56567">
        <ele>1440.1</ele>
        <time>2023-01-21T11:07:25.000Z</time>
      </trkpt>
      <trkpt lat="46.2714" lon="6.56566">
        <ele>1440.1</ele>
        <time>2023-01-21T11:07:26.000Z</time>
      </trkpt>
      <trkpt lat="46.2714" lon="6.56565">
        <ele>1440.3</ele>
        <time>2023-01-21T11:07:27.000Z</time>
      </trkpt>
      <trkpt lat="46.2714" lon="6.56565">
        <ele>1440.6</ele>
        <time>2023-01-21T11:07:28.000Z</time>
      </trkpt>
      <trkpt lat="46.27139" lon="6.56564">
        <ele>1440.9</ele>
        <time>2023-01-21T11:07:29.000Z</time>
      </trkpt>
      <trkpt lat="46.27138" lon="6.56563">
        <ele>1441.3</ele>
        <time>2023-01-21T11:07:30.000Z</time>
      </trkpt>
      <trkpt lat="46.27137" lon="6.56562">
        <ele>1441.5</ele>
        <time>2023-01-21T11:07:31.000Z</time>
      </trkpt>
      <trkpt lat="46.27136" lon="6.56562">
        <ele>1441.8</ele>
        <time>2023-01-21T11:07:32.000Z</time>
      </trkpt>
      <trkpt lat="46.27136" lon="6.56562">
        <ele>1441.9</ele>
        <time>2023-01-21T11:07:33.000Z</time>
      </trkpt>
      <trkpt lat="46.27135" lon="6.56562">
        <ele>1441.9</ele>
        <time>2023-01-21T11:07:34.000Z</time>
      </trkpt>
      <trkpt lat="46.27135" lon="6.56562">
        <ele>1441.9</ele>
        <time>2023-01-21T11:07:35.000Z</time>
      </trkpt>
      <trkpt lat="46.27134" lon="6.56562">
        <ele>1442.1</ele>
        <time>2023-01-21T11:07:36.000Z</time>
      </trkpt>
      <trkpt lat="46.27134" lon="6.56562">
        <ele>1442.4</ele>
        <time>2023-01-21T11:07:37.000Z</time>
      </trkpt>
      <trkpt lat="46.27133" lon="6.56562">
        <ele>1442.5</ele>
        <time>2023-01-21T11:07:38.000Z</time>
      </trkpt>
      <trkpt lat="46.27132" lon="6.56562">
        <ele>1442.5</ele>
        <time>2023-01-21T11:07:39.000Z</time>
      </trkpt>
      <trkpt lat="46.27131" lon="6.56561">
        <ele>1442.5</ele>
        <time>2023-01-21T11:07:40.000Z</time>
      </trkpt>
      <trkpt lat="46.2713" lon="6.56561">
        <ele>1442.7</ele>
        <time>2023-01-21T11:07:41.000Z</time>
      </trkpt>
      <trkpt lat="46.27129" lon="6.56561">
        <ele>1442.8</ele>
        <time>2023-01-21T11:07:42.000Z</time>
      </trkpt>
      <trkpt lat="46.27128" lon="6.56561">
        <ele>1443.2</ele>
        <time>2023-01-21T11:07:43.000Z</time>
      </trkpt>
      <trkpt lat="46.27127" lon="6.5656">
        <ele>1443.5</ele>
        <time>2023-01-21T11:07:44.000Z</time>
      </trkpt>
      <trkpt lat="46.27126" lon="6.5656">
        <ele>1443.6</ele>
        <time>2023-01-21T11:07:45.000Z</time>
      </trkpt>
      <trkpt lat="46.27126" lon="6.5656">
        <ele>1443.8</ele>
        <time>2023-01-21T11:07:46.000Z</time>
      </trkpt>
      <trkpt lat="46.27126" lon="6.56561">
        <ele>1443.9</ele>
        <time>2023-01-21T11:07:47.000Z</time>
      </trkpt>
      <trkpt lat="46.27126" lon="6.5656">
        <ele>1444.2</ele>
        <time>2023-01-21T11:07:48.000Z</time>
      </trkpt>
      <trkpt lat="46.27125" lon="6.56559">
        <ele>1444.7</ele>
        <time>2023-01-21T11:07:49.000Z</time>
      </trkpt>
      <trkpt lat="46.27124" lon="6.56559">
        <ele>1444.9</ele>
        <time>2023-01-21T11:07:50.000Z</time>
      </trkpt>
      <trkpt lat="46.27124" lon="6.56558">
        <ele>1445.4</ele>
        <time>2023-01-21T11:07:51.000Z</time>
      </trkpt>
      <trkpt lat="46.27123" lon="6.56557">
        <ele>1445.5</ele>
        <time>2023-01-21T11:07:52.000Z</time>
      </trkpt>
      <trkpt lat="46.27123" lon="6.56556">
        <ele>1445.7</ele>
        <time>2023-01-21T11:07:53.000Z</time>
      </trkpt>
      <trkpt lat="46.27123" lon="6.56556">
        <ele>1445.8</ele>
        <time>2023-01-21T11:07:54.000Z</time>
      </trkpt>
      <trkpt lat="46.27122" lon="6.56555">
        <ele>1445.9</ele>
        <time>2023-01-21T11:07:55.000Z</time>
      </trkpt>
      <trkpt lat="46.27121" lon="6.56554">
        <ele>1446.2</ele>
        <time>2023-01-21T11:07:56.000Z</time>
      </trkpt>
      <trkpt lat="46.27121" lon="6.56553">
        <ele>1446.3</ele>
        <time>2023-01-21T11:07:57.000Z</time>
      </trkpt>
      <trkpt lat="46.2712" lon="6.56552">
        <ele>1446.5</ele>
        <time>2023-01-21T11:07:58.000Z</time>
      </trkpt>
      <trkpt lat="46.2712" lon="6.56551">
        <ele>1446.8</ele>
        <time>2023-01-21T11:07:59.000Z</time>
      </trkpt>
      <trkpt lat="46.27119" lon="6.5655">
        <ele>1446.7</ele>
        <time>2023-01-21T11:08:00.000Z</time>
      </trkpt>
      <trkpt lat="46.27118" lon="6.56549">
        <ele>1446.7</ele>
        <time>2023-01-21T11:08:01.000Z</time>
      </trkpt>
      <trkpt lat="46.27117" lon="6.56548">
        <ele>1446.7</ele>
        <time>2023-01-21T11:08:02.000Z</time>
      </trkpt>
      <trkpt lat="46.27117" lon="6.56546">
        <ele>1446.9</ele>
        <time>2023-01-21T11:08:03.000Z</time>
      </trkpt>
      <trkpt lat="46.27116" lon="6.56545">
        <ele>1447</ele>
        <time>2023-01-21T11:08:04.000Z</time>
      </trkpt>
      <trkpt lat="46.27116" lon="6.56544">
        <ele>1447.1</ele>
        <time>2023-01-21T11:08:05.000Z</time>
      </trkpt>
      <trkpt lat="46.27115" lon="6.56544">
        <ele>1447.2</ele>
        <time>2023-01-21T11:08:06.000Z</time>
      </trkpt>
      <trkpt lat="46.27115" lon="6.56542">
        <ele>1447.1</ele>
        <time>2023-01-21T11:08:07.000Z</time>
      </trkpt>
      <trkpt lat="46.27114" lon="6.56541">
        <ele>1447.3</ele>
        <time>2023-01-21T11:08:08.000Z</time>
      </trkpt>
      <trkpt lat="46.27113" lon="6.56541">
        <ele>1447.2</ele>
        <time>2023-01-21T11:08:09.000Z</time>
      </trkpt>
      <trkpt lat="46.27113" lon="6.56541">
        <ele>1447.3</ele>
        <time>2023-01-21T11:08:10.000Z</time>
      </trkpt>
      <trkpt lat="46.27112" lon="6.5654">
        <ele>1447.3</ele>
        <time>2023-01-21T11:08:11.000Z</time>
      </trkpt>
      <trkpt lat="46.27112" lon="6.56541">
        <ele>1447.7</ele>
        <time>2023-01-21T11:08:12.000Z</time>
      </trkpt>
      <trkpt lat="46.27112" lon="6.56542">
        <ele>1447.8</ele>
        <time>2023-01-21T11:08:13.000Z</time>
      </trkpt>
      <trkpt lat="46.27112" lon="6.56545">
        <ele>1447.1</ele>
        <time>2023-01-21T11:08:14.000Z</time>
      </trkpt>
      <trkpt lat="46.27111" lon="6.56544">
        <ele>1447.1</ele>
        <time>2023-01-21T11:08:15.000Z</time>
      </trkpt>
      <trkpt lat="46.27111" lon="6.56545">
        <ele>1446.4</ele>
        <time>2023-01-21T11:08:16.000Z</time>
      </trkpt>
      <trkpt lat="46.2711" lon="6.56546">
        <ele>1446.3</ele>
        <time>2023-01-21T11:08:17.000Z</time>
      </trkpt>
      <trkpt lat="46.2711" lon="6.56545">
        <ele>1446.4</ele>
        <time>2023-01-21T11:08:18.000Z</time>
      </trkpt>
      <trkpt lat="46.2711" lon="6.56543">
        <ele>1446.4</ele>
        <time>2023-01-21T11:08:19.000Z</time>
      </trkpt>
      <trkpt lat="46.27109" lon="6.56543">
        <ele>1446</ele>
        <time>2023-01-21T11:08:20.000Z</time>
      </trkpt>
      <trkpt lat="46.27109" lon="6.56541">
        <ele>1446</ele>
        <time>2023-01-21T11:08:21.000Z</time>
      </trkpt>
      <trkpt lat="46.27109" lon="6.56539">
        <ele>1446.2</ele>
        <time>2023-01-21T11:08:22.000Z</time>
      </trkpt>
      <trkpt lat="46.27109" lon="6.56538">
        <ele>1446.3</ele>
        <time>2023-01-21T11:08:23.000Z</time>
      </trkpt>
      <trkpt lat="46.27108" lon="6.56535">
        <ele>1446.5</ele>
        <time>2023-01-21T11:08:24.000Z</time>
      </trkpt>
      <trkpt lat="46.27107" lon="6.56533">
        <ele>1446.6</ele>
        <time>2023-01-21T11:08:25.000Z</time>
      </trkpt>
      <trkpt lat="46.27106" lon="6.5653">
        <ele>1447.3</ele>
        <time>2023-01-21T11:08:26.000Z</time>
      </trkpt>
      <trkpt lat="46.27106" lon="6.56529">
        <ele>1447.8</ele>
        <time>2023-01-21T11:08:27.000Z</time>
      </trkpt>
      <trkpt lat="46.27105" lon="6.56526">
        <ele>1448.7</ele>
        <time>2023-01-21T11:08:28.000Z</time>
      </trkpt>
      <trkpt lat="46.27104" lon="6.56525">
        <ele>1449.5</ele>
        <time>2023-01-21T11:08:29.000Z</time>
      </trkpt>
      <trkpt lat="46.27102" lon="6.56525">
        <ele>1450.4</ele>
        <time>2023-01-21T11:08:30.000Z</time>
      </trkpt>
      <trkpt lat="46.27101" lon="6.56524">
        <ele>1451.4</ele>
        <time>2023-01-21T11:08:31.000Z</time>
      </trkpt>
      <trkpt lat="46.27101" lon="6.56524">
        <ele>1452.3</ele>
        <time>2023-01-21T11:08:32.000Z</time>
      </trkpt>
      <trkpt lat="46.27101" lon="6.56523">
        <ele>1454</ele>
        <time>2023-01-21T11:08:33.000Z</time>
      </trkpt>
      <trkpt lat="46.271" lon="6.56523">
        <ele>1455.2</ele>
        <time>2023-01-21T11:08:34.000Z</time>
      </trkpt>
      <trkpt lat="46.271" lon="6.56521">
        <ele>1456.6</ele>
        <time>2023-01-21T11:08:35.000Z</time>
      </trkpt>
      <trkpt lat="46.27099" lon="6.56519">
        <ele>1457.2</ele>
        <time>2023-01-21T11:08:36.000Z</time>
      </trkpt>
      <trkpt lat="46.27099" lon="6.56518">
        <ele>1457.7</ele>
        <time>2023-01-21T11:08:37.000Z</time>
      </trkpt>
      <trkpt lat="46.27098" lon="6.56517">
        <ele>1458.3</ele>
        <time>2023-01-21T11:08:38.000Z</time>
      </trkpt>
      <trkpt lat="46.27099" lon="6.56518">
        <ele>1459</ele>
        <time>2023-01-21T11:08:39.000Z</time>
      </trkpt>
      <trkpt lat="46.27099" lon="6.56516">
        <ele>1459.7</ele>
        <time>2023-01-21T11:08:40.000Z</time>
      </trkpt>
      <trkpt lat="46.27098" lon="6.56514">
        <ele>1460.2</ele>
        <time>2023-01-21T11:08:41.000Z</time>
      </trkpt>
      <trkpt lat="46.27097" lon="6.56515">
        <ele>1460.7</ele>
        <time>2023-01-21T11:08:42.000Z</time>
      </trkpt>
      <trkpt lat="46.27096" lon="6.56515">
        <ele>1461</ele>
        <time>2023-01-21T11:08:43.000Z</time>
      </trkpt>
      <trkpt lat="46.27095" lon="6.56515">
        <ele>1461.9</ele>
        <time>2023-01-21T11:08:44.000Z</time>
      </trkpt>
      <trkpt lat="46.27095" lon="6.56514">
        <ele>1462.4</ele>
        <time>2023-01-21T11:08:45.000Z</time>
      </trkpt>
      <trkpt lat="46.27094" lon="6.56513">
        <ele>1463.4</ele>
        <time>2023-01-21T11:08:46.000Z</time>
      </trkpt>
      <trkpt lat="46.27093" lon="6.56512">
        <ele>1463.3</ele>
        <time>2023-01-21T11:08:47.000Z</time>
      </trkpt>
      <trkpt lat="46.27093" lon="6.56511">
        <ele>1464.2</ele>
        <time>2023-01-21T11:08:48.000Z</time>
      </trkpt>
      <trkpt lat="46.27093" lon="6.56511">
        <ele>1464.9</ele>
        <time>2023-01-21T11:08:49.000Z</time>
      </trkpt>
      <trkpt lat="46.27092" lon="6.5651">
        <ele>1465.3</ele>
        <time>2023-01-21T11:08:50.000Z</time>
      </trkpt>
      <trkpt lat="46.27091" lon="6.56509">
        <ele>1465.9</ele>
        <time>2023-01-21T11:08:51.000Z</time>
      </trkpt>
      <trkpt lat="46.27091" lon="6.56509">
        <ele>1465.7</ele>
        <time>2023-01-21T11:08:52.000Z</time>
      </trkpt>
      <trkpt lat="46.27091" lon="6.5651">
        <ele>1466.1</ele>
        <time>2023-01-21T11:08:53.000Z</time>
      </trkpt>
      <trkpt lat="46.2709" lon="6.5651">
        <ele>1466.2</ele>
        <time>2023-01-21T11:08:54.000Z</time>
      </trkpt>
      <trkpt lat="46.27089" lon="6.56509">
        <ele>1467</ele>
        <time>2023-01-21T11:08:55.000Z</time>
      </trkpt>
      <trkpt lat="46.27089" lon="6.56509">
        <ele>1467.2</ele>
        <time>2023-01-21T11:08:56.000Z</time>
      </trkpt>
      <trkpt lat="46.27088" lon="6.56509">
        <ele>1467.4</ele>
        <time>2023-01-21T11:08:57.000Z</time>
      </trkpt>
      <trkpt lat="46.27088" lon="6.56507">
        <ele>1468.2</ele>
        <time>2023-01-21T11:08:58.000Z</time>
      </trkpt>
      <trkpt lat="46.27088" lon="6.56504">
        <ele>1468.9</ele>
        <time>2023-01-21T11:08:59.000Z</time>
      </trkpt>
      <trkpt lat="46.27088" lon="6.56505">
        <ele>1467.8</ele>
        <time>2023-01-21T11:09:00.000Z</time>
      </trkpt>
      <trkpt lat="46.27088" lon="6.56505">
        <ele>1466.9</ele>
        <time>2023-01-21T11:09:01.000Z</time>
      </trkpt>
      <trkpt lat="46.27088" lon="6.56504">
        <ele>1466.3</ele>
        <time>2023-01-21T11:09:02.000Z</time>
      </trkpt>
      <trkpt lat="46.27087" lon="6.56504">
        <ele>1465.5</ele>
        <time>2023-01-21T11:09:03.000Z</time>
      </trkpt>
      <trkpt lat="46.27087" lon="6.56504">
        <ele>1465</ele>
        <time>2023-01-21T11:09:04.000Z</time>
      </trkpt>
      <trkpt lat="46.27087" lon="6.56503">
        <ele>1464.7</ele>
        <time>2023-01-21T11:09:05.000Z</time>
      </trkpt>
      <trkpt lat="46.27087" lon="6.56502">
        <ele>1463.9</ele>
        <time>2023-01-21T11:09:06.000Z</time>
      </trkpt>
      <trkpt lat="46.27087" lon="6.56502">
        <ele>1463.6</ele>
        <time>2023-01-21T11:09:07.000Z</time>
      </trkpt>
      <trkpt lat="46.27087" lon="6.565">
        <ele>1463.4</ele>
        <time>2023-01-21T11:09:08.000Z</time>
      </trkpt>
      <trkpt lat="46.27087" lon="6.56499">
        <ele>1463.1</ele>
        <time>2023-01-21T11:09:09.000Z</time>
      </trkpt>
      <trkpt lat="46.27086" lon="6.56498">
        <ele>1462.3</ele>
        <time>2023-01-21T11:09:10.000Z</time>
      </trkpt>
      <trkpt lat="46.27085" lon="6.56498">
        <ele>1461.5</ele>
        <time>2023-01-21T11:09:11.000Z</time>
      </trkpt>
      <trkpt lat="46.27085" lon="6.56497">
        <ele>1461.5</ele>
        <time>2023-01-21T11:09:12.000Z</time>
      </trkpt>
      <trkpt lat="46.27084" lon="6.56495">
        <ele>1461.4</ele>
        <time>2023-01-21T11:09:13.000Z</time>
      </trkpt>
      <trkpt lat="46.27084" lon="6.56494">
        <ele>1461.2</ele>
        <time>2023-01-21T11:09:14.000Z</time>
      </trkpt>
      <trkpt lat="46.27083" lon="6.56493">
        <ele>1460.9</ele>
        <time>2023-01-21T11:09:15.000Z</time>
      </trkpt>
      <trkpt lat="46.27082" lon="6.56492">
        <ele>1460.6</ele>
        <time>2023-01-21T11:09:16.000Z</time>
      </trkpt>
      <trkpt lat="46.27081" lon="6.56492">
        <ele>1460.7</ele>
        <time>2023-01-21T11:09:17.000Z</time>
      </trkpt>
      <trkpt lat="46.2708" lon="6.56491">
        <ele>1460.8</ele>
        <time>2023-01-21T11:09:18.000Z</time>
      </trkpt>
      <trkpt lat="46.2708" lon="6.56491">
        <ele>1460.9</ele>
        <time>2023-01-21T11:09:19.000Z</time>
      </trkpt>
      <trkpt lat="46.27079" lon="6.5649">
        <ele>1460.8</ele>
        <time>2023-01-21T11:09:20.000Z</time>
      </trkpt>
      <trkpt lat="46.27078" lon="6.56489">
        <ele>1460.5</ele>
        <time>2023-01-21T11:09:21.000Z</time>
      </trkpt>
      <trkpt lat="46.27078" lon="6.56489">
        <ele>1460.5</ele>
        <time>2023-01-21T11:09:22.000Z</time>
      </trkpt>
      <trkpt lat="46.27077" lon="6.56488">
        <ele>1460</ele>
        <time>2023-01-21T11:09:23.000Z</time>
      </trkpt>
      <trkpt lat="46.27077" lon="6.56487">
        <ele>1460</ele>
        <time>2023-01-21T11:09:24.000Z</time>
      </trkpt>
      <trkpt lat="46.27076" lon="6.56487">
        <ele>1459.8</ele>
        <time>2023-01-21T11:09:25.000Z</time>
      </trkpt>
      <trkpt lat="46.27075" lon="6.56486">
        <ele>1459.6</ele>
        <time>2023-01-21T11:09:26.000Z</time>
      </trkpt>
      <trkpt lat="46.27074" lon="6.56486">
        <ele>1459.8</ele>
        <time>2023-01-21T11:09:27.000Z</time>
      </trkpt>
      <trkpt lat="46.27073" lon="6.56486">
        <ele>1459.9</ele>
        <time>2023-01-21T11:09:28.000Z</time>
      </trkpt>
      <trkpt lat="46.27072" lon="6.56485">
        <ele>1460</ele>
        <time>2023-01-21T11:09:29.000Z</time>
      </trkpt>
      <trkpt lat="46.27071" lon="6.56484">
        <ele>1460</ele>
        <time>2023-01-21T11:09:30.000Z</time>
      </trkpt>
      <trkpt lat="46.2707" lon="6.56484">
        <ele>1460</ele>
        <time>2023-01-21T11:09:31.000Z</time>
      </trkpt>
      <trkpt lat="46.2707" lon="6.56483">
        <ele>1460.3</ele>
        <time>2023-01-21T11:09:32.000Z</time>
      </trkpt>
      <trkpt lat="46.27068" lon="6.56483">
        <ele>1460.3</ele>
        <time>2023-01-21T11:09:33.000Z</time>
      </trkpt>
      <trkpt lat="46.27068" lon="6.56483">
        <ele>1460.4</ele>
        <time>2023-01-21T11:09:34.000Z</time>
      </trkpt>
      <trkpt lat="46.27067" lon="6.56483">
        <ele>1460.5</ele>
        <time>2023-01-21T11:09:35.000Z</time>
      </trkpt>
      <trkpt lat="46.27066" lon="6.56483">
        <ele>1460.8</ele>
        <time>2023-01-21T11:09:36.000Z</time>
      </trkpt>
      <trkpt lat="46.27066" lon="6.56482">
        <ele>1461.2</ele>
        <time>2023-01-21T11:09:37.000Z</time>
      </trkpt>
      <trkpt lat="46.27064" lon="6.56481">
        <ele>1461.4</ele>
        <time>2023-01-21T11:09:38.000Z</time>
      </trkpt>
      <trkpt lat="46.27063" lon="6.5648">
        <ele>1461.5</ele>
        <time>2023-01-21T11:09:39.000Z</time>
      </trkpt>
      <trkpt lat="46.27062" lon="6.56479">
        <ele>1461.6</ele>
        <time>2023-01-21T11:09:40.000Z</time>
      </trkpt>
      <trkpt lat="46.27061" lon="6.56477">
        <ele>1462</ele>
        <time>2023-01-21T11:09:41.000Z</time>
      </trkpt>
      <trkpt lat="46.2706" lon="6.56476">
        <ele>1462.1</ele>
        <time>2023-01-21T11:09:42.000Z</time>
      </trkpt>
      <trkpt lat="46.27059" lon="6.56475">
        <ele>1462.5</ele>
        <time>2023-01-21T11:09:43.000Z</time>
      </trkpt>
      <trkpt lat="46.27059" lon="6.56475">
        <ele>1462.8</ele>
        <time>2023-01-21T11:09:44.000Z</time>
      </trkpt>
      <trkpt lat="46.27059" lon="6.56474">
        <ele>1462.7</ele>
        <time>2023-01-21T11:09:45.000Z</time>
      </trkpt>
      <trkpt lat="46.27059" lon="6.56473">
        <ele>1462.8</ele>
        <time>2023-01-21T11:09:46.000Z</time>
      </trkpt>
      <trkpt lat="46.27059" lon="6.56473">
        <ele>1462.9</ele>
        <time>2023-01-21T11:09:47.000Z</time>
      </trkpt>
      <trkpt lat="46.27058" lon="6.56473">
        <ele>1463.1</ele>
        <time>2023-01-21T11:09:48.000Z</time>
      </trkpt>
      <trkpt lat="46.27058" lon="6.56473">
        <ele>1463.4</ele>
        <time>2023-01-21T11:09:49.000Z</time>
      </trkpt>
      <trkpt lat="46.27059" lon="6.56473">
        <ele>1464</ele>
        <time>2023-01-21T11:09:50.000Z</time>
      </trkpt>
      <trkpt lat="46.27059" lon="6.56473">
        <ele>1464.6</ele>
        <time>2023-01-21T11:09:51.000Z</time>
      </trkpt>
      <trkpt lat="46.27059" lon="6.56473">
        <ele>1464.8</ele>
        <time>2023-01-21T11:09:52.000Z</time>
      </trkpt>
      <trkpt lat="46.27059" lon="6.56472">
        <ele>1464.7</ele>
        <time>2023-01-21T11:09:53.000Z</time>
      </trkpt>
      <trkpt lat="46.27059" lon="6.56472">
        <ele>1464.7</ele>
        <time>2023-01-21T11:09:54.000Z</time>
      </trkpt>
      <trkpt lat="46.27059" lon="6.56472">
        <ele>1464.7</ele>
        <time>2023-01-21T11:09:55.000Z</time>
      </trkpt>
      <trkpt lat="46.27059" lon="6.56469">
        <ele>1465.4</ele>
        <time>2023-01-21T11:09:56.000Z</time>
      </trkpt>
      <trkpt lat="46.27059" lon="6.56467">
        <ele>1465.6</ele>
        <time>2023-01-21T11:09:57.000Z</time>
      </trkpt>
      <trkpt lat="46.27059" lon="6.56467">
        <ele>1465.7</ele>
        <time>2023-01-21T11:09:58.000Z</time>
      </trkpt>
      <trkpt lat="46.27059" lon="6.56466">
        <ele>1465.7</ele>
        <time>2023-01-21T11:09:59.000Z</time>
      </trkpt>
      <trkpt lat="46.2706" lon="6.56467">
        <ele>1465.7</ele>
        <time>2023-01-21T11:10:00.000Z</time>
      </trkpt>
      <trkpt lat="46.27061" lon="6.56468">
        <ele>1465.7</ele>
        <time>2023-01-21T11:10:01.000Z</time>
      </trkpt>
      <trkpt lat="46.27061" lon="6.56469">
        <ele>1465.2</ele>
        <time>2023-01-21T11:10:02.000Z</time>
      </trkpt>
      <trkpt lat="46.2706" lon="6.56468">
        <ele>1465.1</ele>
        <time>2023-01-21T11:10:03.000Z</time>
      </trkpt>
      <trkpt lat="46.27062" lon="6.56473">
        <ele>1464.2</ele>
        <time>2023-01-21T11:10:04.000Z</time>
      </trkpt>
      <trkpt lat="46.27062" lon="6.56476">
        <ele>1464.1</ele>
        <time>2023-01-21T11:10:05.000Z</time>
      </trkpt>
      <trkpt lat="46.27062" lon="6.56477">
        <ele>1464.1</ele>
        <time>2023-01-21T11:10:06.000Z</time>
      </trkpt>
      <trkpt lat="46.27063" lon="6.56478">
        <ele>1464.1</ele>
        <time>2023-01-21T11:10:07.000Z</time>
      </trkpt>
      <trkpt lat="46.27063" lon="6.56477">
        <ele>1464.3</ele>
        <time>2023-01-21T11:10:08.000Z</time>
      </trkpt>
      <trkpt lat="46.27062" lon="6.56477">
        <ele>1464.4</ele>
        <time>2023-01-21T11:10:09.000Z</time>
      </trkpt>
      <trkpt lat="46.27062" lon="6.56477">
        <ele>1464.4</ele>
        <time>2023-01-21T11:10:10.000Z</time>
      </trkpt>
      <trkpt lat="46.27062" lon="6.56477">
        <ele>1464.3</ele>
        <time>2023-01-21T11:10:11.000Z</time>
      </trkpt>
      <trkpt lat="46.27062" lon="6.56477">
        <ele>1464.4</ele>
        <time>2023-01-21T11:10:12.000Z</time>
      </trkpt>
      <trkpt lat="46.27062" lon="6.56476">
        <ele>1464.3</ele>
        <time>2023-01-21T11:10:13.000Z</time>
      </trkpt>
      <trkpt lat="46.27062" lon="6.56476">
        <ele>1464.8</ele>
        <time>2023-01-21T11:10:14.000Z</time>
      </trkpt>
      <trkpt lat="46.27062" lon="6.56476">
        <ele>1464.7</ele>
        <time>2023-01-21T11:10:15.000Z</time>
      </trkpt>
      <trkpt lat="46.27062" lon="6.56477">
        <ele>1464.5</ele>
        <time>2023-01-21T11:10:16.000Z</time>
      </trkpt>
      <trkpt lat="46.27062" lon="6.56475">
        <ele>1464.1</ele>
        <time>2023-01-21T11:10:17.000Z</time>
      </trkpt>
      <trkpt lat="46.27062" lon="6.56474">
        <ele>1464.1</ele>
        <time>2023-01-21T11:10:18.000Z</time>
      </trkpt>
      <trkpt lat="46.27062" lon="6.56474">
        <ele>1464</ele>
        <time>2023-01-21T11:10:19.000Z</time>
      </trkpt>
      <trkpt lat="46.27063" lon="6.56474">
        <ele>1463.9</ele>
        <time>2023-01-21T11:10:20.000Z</time>
      </trkpt>
      <trkpt lat="46.27062" lon="6.56475">
        <ele>1463.1</ele>
        <time>2023-01-21T11:10:21.000Z</time>
      </trkpt>
      <trkpt lat="46.27062" lon="6.56477">
        <ele>1463.7</ele>
        <time>2023-01-21T11:10:22.000Z</time>
      </trkpt>
      <trkpt lat="46.27062" lon="6.56477">
        <ele>1463.3</ele>
        <time>2023-01-21T11:10:23.000Z</time>
      </trkpt>
      <trkpt lat="46.27063" lon="6.56476">
        <ele>1462.8</ele>
        <time>2023-01-21T11:10:24.000Z</time>
      </trkpt>
      <trkpt lat="46.27061" lon="6.56477">
        <ele>1462.2</ele>
        <time>2023-01-21T11:10:25.000Z</time>
      </trkpt>
      <trkpt lat="46.27061" lon="6.56478">
        <ele>1462.8</ele>
        <time>2023-01-21T11:10:26.000Z</time>
      </trkpt>
      <trkpt lat="46.27061" lon="6.56482">
        <ele>1461.6</ele>
        <time>2023-01-21T11:10:27.000Z</time>
      </trkpt>
      <trkpt lat="46.27061" lon="6.56485">
        <ele>1461.1</ele>
        <time>2023-01-21T11:10:28.000Z</time>
      </trkpt>
      <trkpt lat="46.27063" lon="6.56481">
        <ele>1459.5</ele>
        <time>2023-01-21T11:10:29.000Z</time>
      </trkpt>
      <trkpt lat="46.27063" lon="6.56481">
        <ele>1459.5</ele>
        <time>2023-01-21T11:10:30.000Z</time>
      </trkpt>
      <trkpt lat="46.2706" lon="6.56477">
        <ele>1459.7</ele>
        <time>2023-01-21T11:10:31.000Z</time>
      </trkpt>
      <trkpt lat="46.2706" lon="6.56477">
        <ele>1459.5</ele>
        <time>2023-01-21T11:10:32.000Z</time>
      </trkpt>
      <trkpt lat="46.2706" lon="6.56476">
        <ele>1461.3</ele>
        <time>2023-01-21T11:10:33.000Z</time>
      </trkpt>
      <trkpt lat="46.27059" lon="6.56476">
        <ele>1460.7</ele>
        <time>2023-01-21T11:10:34.000Z</time>
      </trkpt>
      <trkpt lat="46.27059" lon="6.56476">
        <ele>1461.4</ele>
        <time>2023-01-21T11:10:35.000Z</time>
      </trkpt>
      <trkpt lat="46.27058" lon="6.56476">
        <ele>1462</ele>
        <time>2023-01-21T11:10:36.000Z</time>
      </trkpt>
      <trkpt lat="46.27058" lon="6.56476">
        <ele>1463.5</ele>
        <time>2023-01-21T11:10:37.000Z</time>
      </trkpt>
      <trkpt lat="46.2706" lon="6.56475">
        <ele>1464.3</ele>
        <time>2023-01-21T11:10:38.000Z</time>
      </trkpt>
      <trkpt lat="46.27062" lon="6.56475">
        <ele>1465.5</ele>
        <time>2023-01-21T11:10:39.000Z</time>
      </trkpt>
      <trkpt lat="46.27062" lon="6.56475">
        <ele>1465.8</ele>
        <time>2023-01-21T11:10:40.000Z</time>
      </trkpt>
      <trkpt lat="46.27063" lon="6.56475">
        <ele>1465.2</ele>
        <time>2023-01-21T11:10:41.000Z</time>
      </trkpt>
      <trkpt lat="46.27063" lon="6.56476">
        <ele>1466</ele>
        <time>2023-01-21T11:10:42.000Z</time>
      </trkpt>
      <trkpt lat="46.27064" lon="6.56477">
        <ele>1466.7</ele>
        <time>2023-01-21T11:10:43.000Z</time>
      </trkpt>
      <trkpt lat="46.27064" lon="6.56478">
        <ele>1467.2</ele>
        <time>2023-01-21T11:10:44.000Z</time>
      </trkpt>
      <trkpt lat="46.27064" lon="6.5648">
        <ele>1466.7</ele>
        <time>2023-01-21T11:10:45.000Z</time>
      </trkpt>
      <trkpt lat="46.27065" lon="6.5648">
        <ele>1466.1</ele>
        <time>2023-01-21T11:10:46.000Z</time>
      </trkpt>
      <trkpt lat="46.27065" lon="6.5648">
        <ele>1464.6</ele>
        <time>2023-01-21T11:10:47.000Z</time>
      </trkpt>
      <trkpt lat="46.27065" lon="6.5648">
        <ele>1463.3</ele>
        <time>2023-01-21T11:10:48.000Z</time>
      </trkpt>
      <trkpt lat="46.27065" lon="6.56481">
        <ele>1462.7</ele>
        <time>2023-01-21T11:10:49.000Z</time>
      </trkpt>
      <trkpt lat="46.27065" lon="6.56482">
        <ele>1461.8</ele>
        <time>2023-01-21T11:10:50.000Z</time>
      </trkpt>
      <trkpt lat="46.27065" lon="6.56481">
        <ele>1461.2</ele>
        <time>2023-01-21T11:10:51.000Z</time>
      </trkpt>
      <trkpt lat="46.27065" lon="6.56481">
        <ele>1461.1</ele>
        <time>2023-01-21T11:10:52.000Z</time>
      </trkpt>
      <trkpt lat="46.27065" lon="6.56482">
        <ele>1460.3</ele>
        <time>2023-01-21T11:10:53.000Z</time>
      </trkpt>
      <trkpt lat="46.27064" lon="6.56482">
        <ele>1459.9</ele>
        <time>2023-01-21T11:10:54.000Z</time>
      </trkpt>
      <trkpt lat="46.27064" lon="6.56482">
        <ele>1459.9</ele>
        <time>2023-01-21T11:10:55.000Z</time>
      </trkpt>
      <trkpt lat="46.27064" lon="6.56482">
        <ele>1459.9</ele>
        <time>2023-01-21T11:10:56.000Z</time>
      </trkpt>
      <trkpt lat="46.27064" lon="6.56482">
        <ele>1459.9</ele>
        <time>2023-01-21T11:10:57.000Z</time>
      </trkpt>
      <trkpt lat="46.27064" lon="6.56482">
        <ele>1459.9</ele>
        <time>2023-01-21T11:10:58.000Z</time>
      </trkpt>
      <trkpt lat="46.27064" lon="6.56482">
        <ele>1459.9</ele>
        <time>2023-01-21T11:10:59.000Z</time>
      </trkpt>
      <trkpt lat="46.27064" lon="6.56482">
        <ele>1459.9</ele>
        <time>2023-01-21T11:11:00.000Z</time>
      </trkpt>
      <trkpt lat="46.27064" lon="6.56482">
        <ele>1459.9</ele>
        <time>2023-01-21T11:11:01.000Z</time>
      </trkpt>
      <trkpt lat="46.27064" lon="6.56482">
        <ele>1459.9</ele>
        <time>2023-01-21T11:11:02.000Z</time>
      </trkpt>
      <trkpt lat="46.27064" lon="6.56482">
        <ele>1459.9</ele>
        <time>2023-01-21T11:11:03.000Z</time>
      </trkpt>
      <trkpt lat="46.27064" lon="6.56482">
        <ele>1459.9</ele>
        <time>2023-01-21T11:11:04.000Z</time>
      </trkpt>
      <trkpt lat="46.27064" lon="6.56482">
        <ele>1459.9</ele>
        <time>2023-01-21T11:11:05.000Z</time>
      </trkpt>
      <trkpt lat="46.27064" lon="6.56482">
        <ele>1459.9</ele>
        <time>2023-01-21T11:11:06.000Z</time>
      </trkpt>
      <trkpt lat="46.27064" lon="6.56482">
        <ele>1459.9</ele>
        <time>2023-01-21T11:11:07.000Z</time>
      </trkpt>
      <trkpt lat="46.27064" lon="6.56482">
        <ele>1459.9</ele>
        <time>2023-01-21T11:11:08.000Z</time>
      </trkpt>
      <trkpt lat="46.27064" lon="6.56482">
        <ele>1459.9</ele>
        <time>2023-01-21T11:11:09.000Z</time>
      </trkpt>
      <trkpt lat="46.27064" lon="6.56482">
        <ele>1459.9</ele>
        <time>2023-01-21T11:11:10.000Z</time>
      </trkpt>
      <trkpt lat="46.27059" lon="6.5648">
        <ele>1462.5</ele>
        <time>2023-01-21T11:11:11.000Z</time>
      </trkpt>
      <trkpt lat="46.27059" lon="6.56479">
        <ele>1463</ele>
        <time>2023-01-21T11:11:12.000Z</time>
      </trkpt>
      <trkpt lat="46.27059" lon="6.56478">
        <ele>1463.4</ele>
        <time>2023-01-21T11:11:13.000Z</time>
      </trkpt>
      <trkpt lat="46.27059" lon="6.56479">
        <ele>1463.3</ele>
        <time>2023-01-21T11:11:14.000Z</time>
      </trkpt>
      <trkpt lat="46.27059" lon="6.56479">
        <ele>1463.4</ele>
        <time>2023-01-21T11:11:15.000Z</time>
      </trkpt>
      <trkpt lat="46.27059" lon="6.56478">
        <ele>1463.3</ele>
        <time>2023-01-21T11:11:16.000Z</time>
      </trkpt>
      <trkpt lat="46.27059" lon="6.56479">
        <ele>1463.8</ele>
        <time>2023-01-21T11:11:17.000Z</time>
      </trkpt>
      <trkpt lat="46.27059" lon="6.56479">
        <ele>1464</ele>
        <time>2023-01-21T11:11:18.000Z</time>
      </trkpt>
      <trkpt lat="46.2706" lon="6.56479">
        <ele>1464.8</ele>
        <time>2023-01-21T11:11:19.000Z</time>
      </trkpt>
      <trkpt lat="46.2706" lon="6.56478">
        <ele>1464.9</ele>
        <time>2023-01-21T11:11:20.000Z</time>
      </trkpt>
      <trkpt lat="46.2706" lon="6.56478">
        <ele>1464.9</ele>
        <time>2023-01-21T11:11:21.000Z</time>
      </trkpt>
      <trkpt lat="46.2706" lon="6.56477">
        <ele>1464.9</ele>
        <time>2023-01-21T11:11:22.000Z</time>
      </trkpt>
      <trkpt lat="46.2706" lon="6.56477">
        <ele>1464.3</ele>
        <time>2023-01-21T11:11:23.000Z</time>
      </trkpt>
      <trkpt lat="46.2706" lon="6.56477">
        <ele>1464.7</ele>
        <time>2023-01-21T11:11:24.000Z</time>
      </trkpt>
      <trkpt lat="46.2706" lon="6.56477">
        <ele>1464.6</ele>
        <time>2023-01-21T11:11:25.000Z</time>
      </trkpt>
      <trkpt lat="46.27061" lon="6.56477">
        <ele>1464.5</ele>
        <time>2023-01-21T11:11:26.000Z</time>
      </trkpt>
      <trkpt lat="46.27061" lon="6.56478">
        <ele>1464.9</ele>
        <time>2023-01-21T11:11:27.000Z</time>
      </trkpt>
      <trkpt lat="46.27062" lon="6.56477">
        <ele>1465</ele>
        <time>2023-01-21T11:11:28.000Z</time>
      </trkpt>
      <trkpt lat="46.27062" lon="6.56477">
        <ele>1465.1</ele>
        <time>2023-01-21T11:11:29.000Z</time>
      </trkpt>
      <trkpt lat="46.27062" lon="6.56478">
        <ele>1464.4</ele>
        <time>2023-01-21T11:11:30.000Z</time>
      </trkpt>
      <trkpt lat="46.27061" lon="6.56476">
        <ele>1464.6</ele>
        <time>2023-01-21T11:11:31.000Z</time>
      </trkpt>
      <trkpt lat="46.27061" lon="6.56476">
        <ele>1464.9</ele>
        <time>2023-01-21T11:11:32.000Z</time>
      </trkpt>
      <trkpt lat="46.27062" lon="6.56477">
        <ele>1465</ele>
        <time>2023-01-21T11:11:33.000Z</time>
      </trkpt>
      <trkpt lat="46.27063" lon="6.56476">
        <ele>1465.3</ele>
        <time>2023-01-21T11:11:34.000Z</time>
      </trkpt>
      <trkpt lat="46.27063" lon="6.56476">
        <ele>1466</ele>
        <time>2023-01-21T11:11:35.000Z</time>
      </trkpt>
      <trkpt lat="46.27062" lon="6.56476">
        <ele>1466.1</ele>
        <time>2023-01-21T11:11:36.000Z</time>
      </trkpt>
      <trkpt lat="46.27062" lon="6.56476">
        <ele>1466.5</ele>
        <time>2023-01-21T11:11:37.000Z</time>
      </trkpt>
      <trkpt lat="46.27062" lon="6.56478">
        <ele>1465.8</ele>
        <time>2023-01-21T11:11:38.000Z</time>
      </trkpt>
      <trkpt lat="46.27063" lon="6.5648">
        <ele>1465.8</ele>
        <time>2023-01-21T11:11:39.000Z</time>
      </trkpt>
      <trkpt lat="46.27064" lon="6.56481">
        <ele>1466.4</ele>
        <time>2023-01-21T11:11:40.000Z</time>
      </trkpt>
      <trkpt lat="46.27063" lon="6.56482">
        <ele>1465.9</ele>
        <time>2023-01-21T11:11:41.000Z</time>
      </trkpt>
      <trkpt lat="46.27064" lon="6.5648">
        <ele>1466.7</ele>
        <time>2023-01-21T11:11:42.000Z</time>
      </trkpt>
      <trkpt lat="46.27064" lon="6.56479">
        <ele>1463.3</ele>
        <time>2023-01-21T11:11:43.000Z</time>
      </trkpt>
      <trkpt lat="46.27064" lon="6.56479">
        <ele>1461.6</ele>
        <time>2023-01-21T11:11:44.000Z</time>
      </trkpt>
      <trkpt lat="46.27064" lon="6.56478">
        <ele>1461</ele>
        <time>2023-01-21T11:11:45.000Z</time>
      </trkpt>
      <trkpt lat="46.27063" lon="6.56477">
        <ele>1460.2</ele>
        <time>2023-01-21T11:11:46.000Z</time>
      </trkpt>
      <trkpt lat="46.27062" lon="6.56478">
        <ele>1459.8</ele>
        <time>2023-01-21T11:11:47.000Z</time>
      </trkpt>
      <trkpt lat="46.27061" lon="6.56479">
        <ele>1459.7</ele>
        <time>2023-01-21T11:11:48.000Z</time>
      </trkpt>
      <trkpt lat="46.2706" lon="6.56479">
        <ele>1459.5</ele>
        <time>2023-01-21T11:11:49.000Z</time>
      </trkpt>
      <trkpt lat="46.2706" lon="6.56477">
        <ele>1459.2</ele>
        <time>2023-01-21T11:11:50.000Z</time>
      </trkpt>
      <trkpt lat="46.2706" lon="6.56476">
        <ele>1459.3</ele>
        <time>2023-01-21T11:11:51.000Z</time>
      </trkpt>
      <trkpt lat="46.2706" lon="6.56475">
        <ele>1460.3</ele>
        <time>2023-01-21T11:11:52.000Z</time>
      </trkpt>
      <trkpt lat="46.27062" lon="6.56479">
        <ele>1458.1</ele>
        <time>2023-01-21T11:11:53.000Z</time>
      </trkpt>
      <trkpt lat="46.27065" lon="6.5648">
        <ele>1455.3</ele>
        <time>2023-01-21T11:11:54.000Z</time>
      </trkpt>
      <trkpt lat="46.27063" lon="6.56477">
        <ele>1456</ele>
        <time>2023-01-21T11:11:55.000Z</time>
      </trkpt>
      <trkpt lat="46.27063" lon="6.56477">
        <ele>1455.5</ele>
        <time>2023-01-21T11:11:56.000Z</time>
      </trkpt>
      <trkpt lat="46.27065" lon="6.56479">
        <ele>1457.1</ele>
        <time>2023-01-21T11:11:57.000Z</time>
      </trkpt>
      <trkpt lat="46.27066" lon="6.5648">
        <ele>1458.8</ele>
        <time>2023-01-21T11:11:58.000Z</time>
      </trkpt>
      <trkpt lat="46.27066" lon="6.56479">
        <ele>1459.3</ele>
        <time>2023-01-21T11:11:59.000Z</time>
      </trkpt>
      <trkpt lat="46.27066" lon="6.56478">
        <ele>1459.5</ele>
        <time>2023-01-21T11:12:00.000Z</time>
      </trkpt>
      <trkpt lat="46.27065" lon="6.56478">
        <ele>1459.7</ele>
        <time>2023-01-21T11:12:01.000Z</time>
      </trkpt>
      <trkpt lat="46.27065" lon="6.56477">
        <ele>1459.6</ele>
        <time>2023-01-21T11:12:02.000Z</time>
      </trkpt>
      <trkpt lat="46.27065" lon="6.56477">
        <ele>1459.5</ele>
        <time>2023-01-21T11:12:03.000Z</time>
      </trkpt>
      <trkpt lat="46.27065" lon="6.56477">
        <ele>1459.7</ele>
        <time>2023-01-21T11:12:04.000Z</time>
      </trkpt>
      <trkpt lat="46.27066" lon="6.56478">
        <ele>1459.1</ele>
        <time>2023-01-21T11:12:05.000Z</time>
      </trkpt>
      <trkpt lat="46.27065" lon="6.56479">
        <ele>1457.9</ele>
        <time>2023-01-21T11:12:06.000Z</time>
      </trkpt>
      <trkpt lat="46.27065" lon="6.56477">
        <ele>1457.9</ele>
        <time>2023-01-21T11:12:07.000Z</time>
      </trkpt>
      <trkpt lat="46.27066" lon="6.56478">
        <ele>1457.5</ele>
        <time>2023-01-21T11:12:08.000Z</time>
      </trkpt>
      <trkpt lat="46.27066" lon="6.56479">
        <ele>1457.4</ele>
        <time>2023-01-21T11:12:09.000Z</time>
      </trkpt>
      <trkpt lat="46.27067" lon="6.5648">
        <ele>1457.2</ele>
        <time>2023-01-21T11:12:10.000Z</time>
      </trkpt>
      <trkpt lat="46.27068" lon="6.56481">
        <ele>1457</ele>
        <time>2023-01-21T11:12:11.000Z</time>
      </trkpt>
      <trkpt lat="46.27068" lon="6.56482">
        <ele>1456.2</ele>
        <time>2023-01-21T11:12:12.000Z</time>
      </trkpt>
      <trkpt lat="46.27068" lon="6.56483">
        <ele>1456.1</ele>
        <time>2023-01-21T11:12:13.000Z</time>
      </trkpt>
      <trkpt lat="46.27068" lon="6.56485">
        <ele>1455.7</ele>
        <time>2023-01-21T11:12:14.000Z</time>
      </trkpt>
      <trkpt lat="46.27068" lon="6.56486">
        <ele>1455.5</ele>
        <time>2023-01-21T11:12:15.000Z</time>
      </trkpt>
      <trkpt lat="46.27069" lon="6.56488">
        <ele>1455.7</ele>
        <time>2023-01-21T11:12:16.000Z</time>
      </trkpt>
      <trkpt lat="46.27069" lon="6.56489">
        <ele>1455.7</ele>
        <time>2023-01-21T11:12:17.000Z</time>
      </trkpt>
      <trkpt lat="46.27069" lon="6.56488">
        <ele>1455</ele>
        <time>2023-01-21T11:12:18.000Z</time>
      </trkpt>
      <trkpt lat="46.27069" lon="6.56486">
        <ele>1455.2</ele>
        <time>2023-01-21T11:12:19.000Z</time>
      </trkpt>
      <trkpt lat="46.2707" lon="6.56485">
        <ele>1454.9</ele>
        <time>2023-01-21T11:12:20.000Z</time>
      </trkpt>
      <trkpt lat="46.27069" lon="6.56485">
        <ele>1454.4</ele>
        <time>2023-01-21T11:12:21.000Z</time>
      </trkpt>
      <trkpt lat="46.27069" lon="6.56484">
        <ele>1454</ele>
        <time>2023-01-21T11:12:22.000Z</time>
      </trkpt>
      <trkpt lat="46.2707" lon="6.56484">
        <ele>1453.4</ele>
        <time>2023-01-21T11:12:23.000Z</time>
      </trkpt>
      <trkpt lat="46.27069" lon="6.56483">
        <ele>1453.1</ele>
        <time>2023-01-21T11:12:24.000Z</time>
      </trkpt>
      <trkpt lat="46.27069" lon="6.56482">
        <ele>1453.3</ele>
        <time>2023-01-21T11:12:25.000Z</time>
      </trkpt>
      <trkpt lat="46.27069" lon="6.56482">
        <ele>1453.6</ele>
        <time>2023-01-21T11:12:26.000Z</time>
      </trkpt>
      <trkpt lat="46.2707" lon="6.56481">
        <ele>1453.6</ele>
        <time>2023-01-21T11:12:27.000Z</time>
      </trkpt>
      <trkpt lat="46.2707" lon="6.56481">
        <ele>1453.5</ele>
        <time>2023-01-21T11:12:28.000Z</time>
      </trkpt>
      <trkpt lat="46.2707" lon="6.5648">
        <ele>1453.2</ele>
        <time>2023-01-21T11:12:29.000Z</time>
      </trkpt>
      <trkpt lat="46.27069" lon="6.5648">
        <ele>1452.9</ele>
        <time>2023-01-21T11:12:30.000Z</time>
      </trkpt>
      <trkpt lat="46.27069" lon="6.56479">
        <ele>1452.5</ele>
        <time>2023-01-21T11:12:31.000Z</time>
      </trkpt>
      <trkpt lat="46.27069" lon="6.56479">
        <ele>1452.4</ele>
        <time>2023-01-21T11:12:32.000Z</time>
      </trkpt>
      <trkpt lat="46.27069" lon="6.5648">
        <ele>1452.2</ele>
        <time>2023-01-21T11:12:33.000Z</time>
      </trkpt>
      <trkpt lat="46.27068" lon="6.56479">
        <ele>1452.3</ele>
        <time>2023-01-21T11:12:34.000Z</time>
      </trkpt>
      <trkpt lat="46.27068" lon="6.56481">
        <ele>1451.3</ele>
        <time>2023-01-21T11:12:35.000Z</time>
      </trkpt>
      <trkpt lat="46.27068" lon="6.5648">
        <ele>1452</ele>
        <time>2023-01-21T11:12:36.000Z</time>
      </trkpt>
      <trkpt lat="46.27068" lon="6.5648">
        <ele>1452.4</ele>
        <time>2023-01-21T11:12:37.000Z</time>
      </trkpt>
      <trkpt lat="46.27067" lon="6.56479">
        <ele>1451.6</ele>
        <time>2023-01-21T11:12:38.000Z</time>
      </trkpt>
      <trkpt lat="46.27066" lon="6.56477">
        <ele>1451.2</ele>
        <time>2023-01-21T11:12:39.000Z</time>
      </trkpt>
      <trkpt lat="46.27065" lon="6.56477">
        <ele>1450.1</ele>
        <time>2023-01-21T11:12:40.000Z</time>
      </trkpt>
      <trkpt lat="46.27064" lon="6.56477">
        <ele>1449.5</ele>
        <time>2023-01-21T11:12:41.000Z</time>
      </trkpt>
      <trkpt lat="46.27064" lon="6.56477">
        <ele>1449.2</ele>
        <time>2023-01-21T11:12:42.000Z</time>
      </trkpt>
      <trkpt lat="46.27064" lon="6.56478">
        <ele>1448.9</ele>
        <time>2023-01-21T11:12:43.000Z</time>
      </trkpt>
      <trkpt lat="46.27064" lon="6.56479">
        <ele>1448.7</ele>
        <time>2023-01-21T11:12:44.000Z</time>
      </trkpt>
      <trkpt lat="46.27064" lon="6.56479">
        <ele>1448.8</ele>
        <time>2023-01-21T11:12:45.000Z</time>
      </trkpt>
      <trkpt lat="46.27064" lon="6.56479">
        <ele>1449.1</ele>
        <time>2023-01-21T11:12:46.000Z</time>
      </trkpt>
      <trkpt lat="46.27064" lon="6.56479">
        <ele>1449.2</ele>
        <time>2023-01-21T11:12:47.000Z</time>
      </trkpt>
      <trkpt lat="46.27064" lon="6.56479">
        <ele>1449.4</ele>
        <time>2023-01-21T11:12:48.000Z</time>
      </trkpt>
      <trkpt lat="46.27063" lon="6.56479">
        <ele>1449.7</ele>
        <time>2023-01-21T11:12:49.000Z</time>
      </trkpt>
      <trkpt lat="46.27063" lon="6.56479">
        <ele>1449.8</ele>
        <time>2023-01-21T11:12:50.000Z</time>
      </trkpt>
      <trkpt lat="46.27063" lon="6.56479">
        <ele>1450</ele>
        <time>2023-01-21T11:12:51.000Z</time>
      </trkpt>
      <trkpt lat="46.27062" lon="6.56479">
        <ele>1450.4</ele>
        <time>2023-01-21T11:12:52.000Z</time>
      </trkpt>
      <trkpt lat="46.27062" lon="6.56478">
        <ele>1450.3</ele>
        <time>2023-01-21T11:12:53.000Z</time>
      </trkpt>
      <trkpt lat="46.27061" lon="6.56477">
        <ele>1449.9</ele>
        <time>2023-01-21T11:12:54.000Z</time>
      </trkpt>
      <trkpt lat="46.27061" lon="6.56477">
        <ele>1449.7</ele>
        <time>2023-01-21T11:12:55.000Z</time>
      </trkpt>
      <trkpt lat="46.27062" lon="6.56479">
        <ele>1449</ele>
        <time>2023-01-21T11:12:56.000Z</time>
      </trkpt>
      <trkpt lat="46.27062" lon="6.56481">
        <ele>1448.5</ele>
        <time>2023-01-21T11:12:57.000Z</time>
      </trkpt>
      <trkpt lat="46.27063" lon="6.56481">
        <ele>1448.3</ele>
        <time>2023-01-21T11:12:58.000Z</time>
      </trkpt>
      <trkpt lat="46.27063" lon="6.5648">
        <ele>1448.7</ele>
        <time>2023-01-21T11:12:59.000Z</time>
      </trkpt>
      <trkpt lat="46.27063" lon="6.56479">
        <ele>1449.5</ele>
        <time>2023-01-21T11:13:00.000Z</time>
      </trkpt>
      <trkpt lat="46.27062" lon="6.56476">
        <ele>1450.1</ele>
        <time>2023-01-21T11:13:01.000Z</time>
      </trkpt>
      <trkpt lat="46.27061" lon="6.56474">
        <ele>1450.8</ele>
        <time>2023-01-21T11:13:02.000Z</time>
      </trkpt>
      <trkpt lat="46.2706" lon="6.56473">
        <ele>1451.5</ele>
        <time>2023-01-21T11:13:03.000Z</time>
      </trkpt>
      <trkpt lat="46.27059" lon="6.56471">
        <ele>1452.9</ele>
        <time>2023-01-21T11:13:04.000Z</time>
      </trkpt>
      <trkpt lat="46.27057" lon="6.5647">
        <ele>1453.4</ele>
        <time>2023-01-21T11:13:05.000Z</time>
      </trkpt>
      <trkpt lat="46.27057" lon="6.5647">
        <ele>1454.6</ele>
        <time>2023-01-21T11:13:06.000Z</time>
      </trkpt>
      <trkpt lat="46.27056" lon="6.5647">
        <ele>1455.4</ele>
        <time>2023-01-21T11:13:07.000Z</time>
      </trkpt>
      <trkpt lat="46.27056" lon="6.56471">
        <ele>1456.3</ele>
        <time>2023-01-21T11:13:08.000Z</time>
      </trkpt>
      <trkpt lat="46.27055" lon="6.56471">
        <ele>1456.9</ele>
        <time>2023-01-21T11:13:09.000Z</time>
      </trkpt>
      <trkpt lat="46.27054" lon="6.56471">
        <ele>1457.6</ele>
        <time>2023-01-21T11:13:10.000Z</time>
      </trkpt>
      <trkpt lat="46.27053" lon="6.56472">
        <ele>1458.7</ele>
        <time>2023-01-21T11:13:11.000Z</time>
      </trkpt>
      <trkpt lat="46.27052" lon="6.56472">
        <ele>1459.4</ele>
        <time>2023-01-21T11:13:12.000Z</time>
      </trkpt>
      <trkpt lat="46.27051" lon="6.56473">
        <ele>1460.1</ele>
        <time>2023-01-21T11:13:13.000Z</time>
      </trkpt>
      <trkpt lat="46.27051" lon="6.56474">
        <ele>1460.6</ele>
        <time>2023-01-21T11:13:14.000Z</time>
      </trkpt>
      <trkpt lat="46.27051" lon="6.56474">
        <ele>1461.2</ele>
        <time>2023-01-21T11:13:15.000Z</time>
      </trkpt>
      <trkpt lat="46.2705" lon="6.56474">
        <ele>1461.7</ele>
        <time>2023-01-21T11:13:16.000Z</time>
      </trkpt>
      <trkpt lat="46.27048" lon="6.56475">
        <ele>1462.2</ele>
        <time>2023-01-21T11:13:17.000Z</time>
      </trkpt>
      <trkpt lat="46.27048" lon="6.56475">
        <ele>1462.8</ele>
        <time>2023-01-21T11:13:18.000Z</time>
      </trkpt>
      <trkpt lat="46.27047" lon="6.56474">
        <ele>1463.1</ele>
        <time>2023-01-21T11:13:19.000Z</time>
      </trkpt>
      <trkpt lat="46.27046" lon="6.56475">
        <ele>1463.5</ele>
        <time>2023-01-21T11:13:20.000Z</time>
      </trkpt>
      <trkpt lat="46.27045" lon="6.56475">
        <ele>1464</ele>
        <time>2023-01-21T11:13:21.000Z</time>
      </trkpt>
      <trkpt lat="46.27045" lon="6.56475">
        <ele>1464.7</ele>
        <time>2023-01-21T11:13:22.000Z</time>
      </trkpt>
      <trkpt lat="46.27045" lon="6.56475">
        <ele>1464.5</ele>
        <time>2023-01-21T11:13:23.000Z</time>
      </trkpt>
      <trkpt lat="46.27044" lon="6.56475">
        <ele>1464.3</ele>
        <time>2023-01-21T11:13:24.000Z</time>
      </trkpt>
      <trkpt lat="46.27042" lon="6.56474">
        <ele>1464.6</ele>
        <time>2023-01-21T11:13:25.000Z</time>
      </trkpt>
      <trkpt lat="46.27041" lon="6.56472">
        <ele>1465.2</ele>
        <time>2023-01-21T11:13:26.000Z</time>
      </trkpt>
      <trkpt lat="46.27041" lon="6.56471">
        <ele>1465.4</ele>
        <time>2023-01-21T11:13:27.000Z</time>
      </trkpt>
      <trkpt lat="46.2704" lon="6.5647">
        <ele>1466.2</ele>
        <time>2023-01-21T11:13:28.000Z</time>
      </trkpt>
      <trkpt lat="46.27039" lon="6.56469">
        <ele>1466.8</ele>
        <time>2023-01-21T11:13:29.000Z</time>
      </trkpt>
      <trkpt lat="46.27038" lon="6.56467">
        <ele>1467.6</ele>
        <time>2023-01-21T11:13:30.000Z</time>
      </trkpt>
      <trkpt lat="46.27037" lon="6.56467">
        <ele>1468.2</ele>
        <time>2023-01-21T11:13:31.000Z</time>
      </trkpt>
      <trkpt lat="46.27037" lon="6.56465">
        <ele>1468.8</ele>
        <time>2023-01-21T11:13:32.000Z</time>
      </trkpt>
      <trkpt lat="46.27036" lon="6.56463">
        <ele>1468.9</ele>
        <time>2023-01-21T11:13:33.000Z</time>
      </trkpt>
      <trkpt lat="46.27035" lon="6.56462">
        <ele>1469.2</ele>
        <time>2023-01-21T11:13:34.000Z</time>
      </trkpt>
      <trkpt lat="46.27034" lon="6.56461">
        <ele>1469.7</ele>
        <time>2023-01-21T11:13:35.000Z</time>
      </trkpt>
      <trkpt lat="46.27033" lon="6.5646">
        <ele>1469.7</ele>
        <time>2023-01-21T11:13:36.000Z</time>
      </trkpt>
      <trkpt lat="46.27033" lon="6.56459">
        <ele>1469.7</ele>
        <time>2023-01-21T11:13:37.000Z</time>
      </trkpt>
      <trkpt lat="46.27033" lon="6.56458">
        <ele>1469.9</ele>
        <time>2023-01-21T11:13:38.000Z</time>
      </trkpt>
      <trkpt lat="46.27033" lon="6.56458">
        <ele>1470.1</ele>
        <time>2023-01-21T11:13:39.000Z</time>
      </trkpt>
      <trkpt lat="46.27033" lon="6.56458">
        <ele>1470.4</ele>
        <time>2023-01-21T11:13:40.000Z</time>
      </trkpt>
      <trkpt lat="46.27033" lon="6.56457">
        <ele>1470.3</ele>
        <time>2023-01-21T11:13:41.000Z</time>
      </trkpt>
      <trkpt lat="46.27032" lon="6.56455">
        <ele>1470.6</ele>
        <time>2023-01-21T11:13:42.000Z</time>
      </trkpt>
      <trkpt lat="46.27032" lon="6.56453">
        <ele>1470.5</ele>
        <time>2023-01-21T11:13:43.000Z</time>
      </trkpt>
      <trkpt lat="46.27031" lon="6.5645">
        <ele>1470.2</ele>
        <time>2023-01-21T11:13:44.000Z</time>
      </trkpt>
      <trkpt lat="46.2703" lon="6.56449">
        <ele>1470.5</ele>
        <time>2023-01-21T11:13:45.000Z</time>
      </trkpt>
      <trkpt lat="46.2703" lon="6.56447">
        <ele>1470.5</ele>
        <time>2023-01-21T11:13:46.000Z</time>
      </trkpt>
      <trkpt lat="46.2703" lon="6.56446">
        <ele>1470.5</ele>
        <time>2023-01-21T11:13:47.000Z</time>
      </trkpt>
      <trkpt lat="46.27029" lon="6.56444">
        <ele>1470.7</ele>
        <time>2023-01-21T11:13:48.000Z</time>
      </trkpt>
      <trkpt lat="46.27029" lon="6.56443">
        <ele>1470.8</ele>
        <time>2023-01-21T11:13:49.000Z</time>
      </trkpt>
      <trkpt lat="46.27029" lon="6.56442">
        <ele>1471.1</ele>
        <time>2023-01-21T11:13:50.000Z</time>
      </trkpt>
      <trkpt lat="46.27028" lon="6.56441">
        <ele>1471.4</ele>
        <time>2023-01-21T11:13:51.000Z</time>
      </trkpt>
      <trkpt lat="46.27027" lon="6.5644">
        <ele>1471.6</ele>
        <time>2023-01-21T11:13:52.000Z</time>
      </trkpt>
      <trkpt lat="46.27026" lon="6.56439">
        <ele>1472.1</ele>
        <time>2023-01-21T11:13:53.000Z</time>
      </trkpt>
      <trkpt lat="46.27024" lon="6.56439">
        <ele>1472.3</ele>
        <time>2023-01-21T11:13:54.000Z</time>
      </trkpt>
      <trkpt lat="46.27023" lon="6.56439">
        <ele>1472.4</ele>
        <time>2023-01-21T11:13:55.000Z</time>
      </trkpt>
      <trkpt lat="46.27023" lon="6.56439">
        <ele>1472.6</ele>
        <time>2023-01-21T11:13:56.000Z</time>
      </trkpt>
      <trkpt lat="46.27022" lon="6.56439">
        <ele>1473</ele>
        <time>2023-01-21T11:13:57.000Z</time>
      </trkpt>
      <trkpt lat="46.27021" lon="6.56439">
        <ele>1472.5</ele>
        <time>2023-01-21T11:13:58.000Z</time>
      </trkpt>
      <trkpt lat="46.2702" lon="6.56438">
        <ele>1472.4</ele>
        <time>2023-01-21T11:13:59.000Z</time>
      </trkpt>
      <trkpt lat="46.27019" lon="6.56438">
        <ele>1472.5</ele>
        <time>2023-01-21T11:14:00.000Z</time>
      </trkpt>
      <trkpt lat="46.27019" lon="6.56437">
        <ele>1472.2</ele>
        <time>2023-01-21T11:14:01.000Z</time>
      </trkpt>
      <trkpt lat="46.27018" lon="6.56438">
        <ele>1472.2</ele>
        <time>2023-01-21T11:14:02.000Z</time>
      </trkpt>
      <trkpt lat="46.27017" lon="6.56438">
        <ele>1472</ele>
        <time>2023-01-21T11:14:03.000Z</time>
      </trkpt>
      <trkpt lat="46.27016" lon="6.56438">
        <ele>1471.8</ele>
        <time>2023-01-21T11:14:04.000Z</time>
      </trkpt>
      <trkpt lat="46.27015" lon="6.56439">
        <ele>1471.9</ele>
        <time>2023-01-21T11:14:05.000Z</time>
      </trkpt>
      <trkpt lat="46.27015" lon="6.56439">
        <ele>1471.7</ele>
        <time>2023-01-21T11:14:06.000Z</time>
      </trkpt>
      <trkpt lat="46.27013" lon="6.56438">
        <ele>1471.6</ele>
        <time>2023-01-21T11:14:07.000Z</time>
      </trkpt>
      <trkpt lat="46.27012" lon="6.56438">
        <ele>1471.6</ele>
        <time>2023-01-21T11:14:08.000Z</time>
      </trkpt>
      <trkpt lat="46.27011" lon="6.56437">
        <ele>1471.7</ele>
        <time>2023-01-21T11:14:09.000Z</time>
      </trkpt>
      <trkpt lat="46.2701" lon="6.56436">
        <ele>1472.1</ele>
        <time>2023-01-21T11:14:10.000Z</time>
      </trkpt>
      <trkpt lat="46.2701" lon="6.56436">
        <ele>1471.9</ele>
        <time>2023-01-21T11:14:11.000Z</time>
      </trkpt>
      <trkpt lat="46.27009" lon="6.56435">
        <ele>1472.2</ele>
        <time>2023-01-21T11:14:12.000Z</time>
      </trkpt>
      <trkpt lat="46.27009" lon="6.56434">
        <ele>1472.1</ele>
        <time>2023-01-21T11:14:13.000Z</time>
      </trkpt>
      <trkpt lat="46.27008" lon="6.56433">
        <ele>1472.3</ele>
        <time>2023-01-21T11:14:14.000Z</time>
      </trkpt>
      <trkpt lat="46.27008" lon="6.56432">
        <ele>1472.4</ele>
        <time>2023-01-21T11:14:15.000Z</time>
      </trkpt>
      <trkpt lat="46.27008" lon="6.56432">
        <ele>1472.3</ele>
        <time>2023-01-21T11:14:16.000Z</time>
      </trkpt>
      <trkpt lat="46.27007" lon="6.56431">
        <ele>1472.5</ele>
        <time>2023-01-21T11:14:17.000Z</time>
      </trkpt>
      <trkpt lat="46.27008" lon="6.56431">
        <ele>1472.4</ele>
        <time>2023-01-21T11:14:18.000Z</time>
      </trkpt>
      <trkpt lat="46.27008" lon="6.56431">
        <ele>1472.1</ele>
        <time>2023-01-21T11:14:19.000Z</time>
      </trkpt>
      <trkpt lat="46.27008" lon="6.56431">
        <ele>1472</ele>
        <time>2023-01-21T11:14:20.000Z</time>
      </trkpt>
      <trkpt lat="46.27008" lon="6.56431">
        <ele>1472</ele>
        <time>2023-01-21T11:14:21.000Z</time>
      </trkpt>
      <trkpt lat="46.27008" lon="6.56431">
        <ele>1472.3</ele>
        <time>2023-01-21T11:14:22.000Z</time>
      </trkpt>
      <trkpt lat="46.27008" lon="6.5643">
        <ele>1472.4</ele>
        <time>2023-01-21T11:14:23.000Z</time>
      </trkpt>
      <trkpt lat="46.27007" lon="6.56429">
        <ele>1472.6</ele>
        <time>2023-01-21T11:14:24.000Z</time>
      </trkpt>
      <trkpt lat="46.27007" lon="6.56429">
        <ele>1472.8</ele>
        <time>2023-01-21T11:14:25.000Z</time>
      </trkpt>
      <trkpt lat="46.27007" lon="6.56429">
        <ele>1472.8</ele>
        <time>2023-01-21T11:14:26.000Z</time>
      </trkpt>
      <trkpt lat="46.27007" lon="6.56429">
        <ele>1472.8</ele>
        <time>2023-01-21T11:14:27.000Z</time>
      </trkpt>
      <trkpt lat="46.27007" lon="6.56429">
        <ele>1472.8</ele>
        <time>2023-01-21T11:14:28.000Z</time>
      </trkpt>
      <trkpt lat="46.27007" lon="6.56429">
        <ele>1472.8</ele>
        <time>2023-01-21T11:14:29.000Z</time>
      </trkpt>
      <trkpt lat="46.27007" lon="6.56429">
        <ele>1472.8</ele>
        <time>2023-01-21T11:14:30.000Z</time>
      </trkpt>
      <trkpt lat="46.27007" lon="6.56429">
        <ele>1472.8</ele>
        <time>2023-01-21T11:14:31.000Z</time>
      </trkpt>
      <trkpt lat="46.27007" lon="6.56429">
        <ele>1472.8</ele>
        <time>2023-01-21T11:14:32.000Z</time>
      </trkpt>
      <trkpt lat="46.27007" lon="6.56429">
        <ele>1472.8</ele>
        <time>2023-01-21T11:14:33.000Z</time>
      </trkpt>
      <trkpt lat="46.27007" lon="6.56429">
        <ele>1472.8</ele>
        <time>2023-01-21T11:14:34.000Z</time>
      </trkpt>
      <trkpt lat="46.27007" lon="6.56429">
        <ele>1472.8</ele>
        <time>2023-01-21T11:14:35.000Z</time>
      </trkpt>
      <trkpt lat="46.27007" lon="6.56429">
        <ele>1472.8</ele>
        <time>2023-01-21T11:14:36.000Z</time>
      </trkpt>
      <trkpt lat="46.27007" lon="6.56429">
        <ele>1472.8</ele>
        <time>2023-01-21T11:14:37.000Z</time>
      </trkpt>
      <trkpt lat="46.27007" lon="6.5643">
        <ele>1472.8</ele>
        <time>2023-01-21T11:14:38.000Z</time>
      </trkpt>
      <trkpt lat="46.27006" lon="6.5643">
        <ele>1472.7</ele>
        <time>2023-01-21T11:14:39.000Z</time>
      </trkpt>
      <trkpt lat="46.27007" lon="6.56431">
        <ele>1472.6</ele>
        <time>2023-01-21T11:14:40.000Z</time>
      </trkpt>
      <trkpt lat="46.27007" lon="6.56431">
        <ele>1472.5</ele>
        <time>2023-01-21T11:14:41.000Z</time>
      </trkpt>
      <trkpt lat="46.27007" lon="6.56431">
        <ele>1472.5</ele>
        <time>2023-01-21T11:14:42.000Z</time>
      </trkpt>
      <trkpt lat="46.27007" lon="6.56431">
        <ele>1472.5</ele>
        <time>2023-01-21T11:14:43.000Z</time>
      </trkpt>
      <trkpt lat="46.27007" lon="6.56431">
        <ele>1472.5</ele>
        <time>2023-01-21T11:14:44.000Z</time>
      </trkpt>
      <trkpt lat="46.27007" lon="6.56431">
        <ele>1472.5</ele>
        <time>2023-01-21T11:14:45.000Z</time>
      </trkpt>
      <trkpt lat="46.27007" lon="6.56431">
        <ele>1472.5</ele>
        <time>2023-01-21T11:14:46.000Z</time>
      </trkpt>
      <trkpt lat="46.27007" lon="6.56431">
        <ele>1472.5</ele>
        <time>2023-01-21T11:14:47.000Z</time>
      </trkpt>
      <trkpt lat="46.27007" lon="6.56431">
        <ele>1472.5</ele>
        <time>2023-01-21T11:14:48.000Z</time>
      </trkpt>
      <trkpt lat="46.27007" lon="6.56431">
        <ele>1472.5</ele>
        <time>2023-01-21T11:14:49.000Z</time>
      </trkpt>
      <trkpt lat="46.27007" lon="6.56431">
        <ele>1472.5</ele>
        <time>2023-01-21T11:14:50.000Z</time>
      </trkpt>
      <trkpt lat="46.27007" lon="6.56431">
        <ele>1472.5</ele>
        <time>2023-01-21T11:14:51.000Z</time>
      </trkpt>
      <trkpt lat="46.27007" lon="6.56431">
        <ele>1472.5</ele>
        <time>2023-01-21T11:14:52.000Z</time>
      </trkpt>
      <trkpt lat="46.27007" lon="6.56431">
        <ele>1472.5</ele>
        <time>2023-01-21T11:14:53.000Z</time>
      </trkpt>
      <trkpt lat="46.27007" lon="6.56431">
        <ele>1472.5</ele>
        <time>2023-01-21T11:14:54.000Z</time>
      </trkpt>
      <trkpt lat="46.27007" lon="6.56431">
        <ele>1472.5</ele>
        <time>2023-01-21T11:14:55.000Z</time>
      </trkpt>
      <trkpt lat="46.27007" lon="6.56431">
        <ele>1472.5</ele>
        <time>2023-01-21T11:14:56.000Z</time>
      </trkpt>
      <trkpt lat="46.27007" lon="6.56431">
        <ele>1472.5</ele>
        <time>2023-01-21T11:14:57.000Z</time>
      </trkpt>
      <trkpt lat="46.27007" lon="6.56431">
        <ele>1472.5</ele>
        <time>2023-01-21T11:14:58.000Z</time>
      </trkpt>
      <trkpt lat="46.27007" lon="6.56431">
        <ele>1472.5</ele>
        <time>2023-01-21T11:14:59.000Z</time>
      </trkpt>
      <trkpt lat="46.27007" lon="6.56431">
        <ele>1472.5</ele>
        <time>2023-01-21T11:15:00.000Z</time>
      </trkpt>
      <trkpt lat="46.27007" lon="6.56431">
        <ele>1472.5</ele>
        <time>2023-01-21T11:15:01.000Z</time>
      </trkpt>
      <trkpt lat="46.27007" lon="6.56431">
        <ele>1472.5</ele>
        <time>2023-01-21T11:15:02.000Z</time>
      </trkpt>
      <trkpt lat="46.27007" lon="6.56431">
        <ele>1472.5</ele>
        <time>2023-01-21T11:15:03.000Z</time>
      </trkpt>
      <trkpt lat="46.27007" lon="6.56431">
        <ele>1472.5</ele>
        <time>2023-01-21T11:15:04.000Z</time>
      </trkpt>
      <trkpt lat="46.27007" lon="6.56431">
        <ele>1472.5</ele>
        <time>2023-01-21T11:15:05.000Z</time>
      </trkpt>
      <trkpt lat="46.27007" lon="6.56431">
        <ele>1472.5</ele>
        <time>2023-01-21T11:15:06.000Z</time>
      </trkpt>
      <trkpt lat="46.27007" lon="6.56431">
        <ele>1472.5</ele>
        <time>2023-01-21T11:15:07.000Z</time>
      </trkpt>
      <trkpt lat="46.27007" lon="6.56431">
        <ele>1472.5</ele>
        <time>2023-01-21T11:15:08.000Z</time>
      </trkpt>
      <trkpt lat="46.27007" lon="6.56431">
        <ele>1472.5</ele>
        <time>2023-01-21T11:15:09.000Z</time>
      </trkpt>
      <trkpt lat="46.27007" lon="6.56431">
        <ele>1472.5</ele>
        <time>2023-01-21T11:15:10.000Z</time>
      </trkpt>
      <trkpt lat="46.27007" lon="6.56431">
        <ele>1472.5</ele>
        <time>2023-01-21T11:15:11.000Z</time>
      </trkpt>
      <trkpt lat="46.27007" lon="6.56431">
        <ele>1472.5</ele>
        <time>2023-01-21T11:15:12.000Z</time>
      </trkpt>
      <trkpt lat="46.27007" lon="6.56431">
        <ele>1472.5</ele>
        <time>2023-01-21T11:15:13.000Z</time>
      </trkpt>
      <trkpt lat="46.27007" lon="6.56431">
        <ele>1472.5</ele>
        <time>2023-01-21T11:15:14.000Z</time>
      </trkpt>
      <trkpt lat="46.27007" lon="6.56431">
        <ele>1472.5</ele>
        <time>2023-01-21T11:15:15.000Z</time>
      </trkpt>
      <trkpt lat="46.27007" lon="6.56431">
        <ele>1472.5</ele>
        <time>2023-01-21T11:15:16.000Z</time>
      </trkpt>
      <trkpt lat="46.27007" lon="6.56431">
        <ele>1472.5</ele>
        <time>2023-01-21T11:15:17.000Z</time>
      </trkpt>
      <trkpt lat="46.27007" lon="6.56431">
        <ele>1472.5</ele>
        <time>2023-01-21T11:15:18.000Z</time>
      </trkpt>
      <trkpt lat="46.27007" lon="6.56431">
        <ele>1472.5</ele>
        <time>2023-01-21T11:15:19.000Z</time>
      </trkpt>
      <trkpt lat="46.27007" lon="6.56431">
        <ele>1472.5</ele>
        <time>2023-01-21T11:15:20.000Z</time>
      </trkpt>
      <trkpt lat="46.27007" lon="6.56431">
        <ele>1472.5</ele>
        <time>2023-01-21T11:15:21.000Z</time>
      </trkpt>
      <trkpt lat="46.27007" lon="6.56431">
        <ele>1472.5</ele>
        <time>2023-01-21T11:15:22.000Z</time>
      </trkpt>
      <trkpt lat="46.27007" lon="6.56431">
        <ele>1472.5</ele>
        <time>2023-01-21T11:15:23.000Z</time>
      </trkpt>
      <trkpt lat="46.27007" lon="6.56431">
        <ele>1472.5</ele>
        <time>2023-01-21T11:15:24.000Z</time>
      </trkpt>
      <trkpt lat="46.27007" lon="6.56431">
        <ele>1469.1</ele>
        <time>2023-01-21T11:15:25.000Z</time>
      </trkpt>
      <trkpt lat="46.27007" lon="6.56431">
        <ele>1469.1</ele>
        <time>2023-01-21T11:15:26.000Z</time>
      </trkpt>
      <trkpt lat="46.27007" lon="6.56431">
        <ele>1469.1</ele>
        <time>2023-01-21T11:15:27.000Z</time>
      </trkpt>
      <trkpt lat="46.27007" lon="6.56431">
        <ele>1469.1</ele>
        <time>2023-01-21T11:15:28.000Z</time>
      </trkpt>
      <trkpt lat="46.27007" lon="6.56431">
        <ele>1469.1</ele>
        <time>2023-01-21T11:15:29.000Z</time>
      </trkpt>
      <trkpt lat="46.27007" lon="6.56431">
        <ele>1469.1</ele>
        <time>2023-01-21T11:15:30.000Z</time>
      </trkpt>
      <trkpt lat="46.27007" lon="6.56431">
        <ele>1469.1</ele>
        <time>2023-01-21T11:15:31.000Z</time>
      </trkpt>
      <trkpt lat="46.27007" lon="6.56431">
        <ele>1469.1</ele>
        <time>2023-01-21T11:15:32.000Z</time>
      </trkpt>
      <trkpt lat="46.27007" lon="6.56431">
        <ele>1469.1</ele>
        <time>2023-01-21T11:15:33.000Z</time>
      </trkpt>
      <trkpt lat="46.27008" lon="6.56431">
        <ele>1468.4</ele>
        <time>2023-01-21T11:15:34.000Z</time>
      </trkpt>
      <trkpt lat="46.27008" lon="6.56431">
        <ele>1468.4</ele>
        <time>2023-01-21T11:15:35.000Z</time>
      </trkpt>
      <trkpt lat="46.27008" lon="6.56431">
        <ele>1468.9</ele>
        <time>2023-01-21T11:15:36.000Z</time>
      </trkpt>
      <trkpt lat="46.27008" lon="6.56431">
        <ele>1469.1</ele>
        <time>2023-01-21T11:15:37.000Z</time>
      </trkpt>
      <trkpt lat="46.27008" lon="6.5643">
        <ele>1469.3</ele>
        <time>2023-01-21T11:15:38.000Z</time>
      </trkpt>
      <trkpt lat="46.27008" lon="6.56429">
        <ele>1469.4</ele>
        <time>2023-01-21T11:15:39.000Z</time>
      </trkpt>
      <trkpt lat="46.27008" lon="6.56428">
        <ele>1469.5</ele>
        <time>2023-01-21T11:15:40.000Z</time>
      </trkpt>
      <trkpt lat="46.27008" lon="6.56427">
        <ele>1469.5</ele>
        <time>2023-01-21T11:15:41.000Z</time>
      </trkpt>
      <trkpt lat="46.27008" lon="6.56427">
        <ele>1469.7</ele>
        <time>2023-01-21T11:15:42.000Z</time>
      </trkpt>
      <trkpt lat="46.27009" lon="6.56427">
        <ele>1469.8</ele>
        <time>2023-01-21T11:15:43.000Z</time>
      </trkpt>
      <trkpt lat="46.27009" lon="6.56427">
        <ele>1470</ele>
        <time>2023-01-21T11:15:44.000Z</time>
      </trkpt>
      <trkpt lat="46.27009" lon="6.56428">
        <ele>1470.2</ele>
        <time>2023-01-21T11:15:45.000Z</time>
      </trkpt>
      <trkpt lat="46.27008" lon="6.56428">
        <ele>1470.4</ele>
        <time>2023-01-21T11:15:46.000Z</time>
      </trkpt>
      <trkpt lat="46.27008" lon="6.56427">
        <ele>1470.6</ele>
        <time>2023-01-21T11:15:47.000Z</time>
      </trkpt>
      <trkpt lat="46.27008" lon="6.56426">
        <ele>1470.7</ele>
        <time>2023-01-21T11:15:48.000Z</time>
      </trkpt>
      <trkpt lat="46.27008" lon="6.56426">
        <ele>1470.9</ele>
        <time>2023-01-21T11:15:49.000Z</time>
      </trkpt>
      <trkpt lat="46.27008" lon="6.56426">
        <ele>1471.2</ele>
        <time>2023-01-21T11:15:50.000Z</time>
      </trkpt>
      <trkpt lat="46.27009" lon="6.56426">
        <ele>1471.5</ele>
        <time>2023-01-21T11:15:51.000Z</time>
      </trkpt>
      <trkpt lat="46.27009" lon="6.56427">
        <ele>1471.7</ele>
        <time>2023-01-21T11:15:52.000Z</time>
      </trkpt>
      <trkpt lat="46.27009" lon="6.56427">
        <ele>1471.8</ele>
        <time>2023-01-21T11:15:53.000Z</time>
      </trkpt>
      <trkpt lat="46.27008" lon="6.56427">
        <ele>1471.8</ele>
        <time>2023-01-21T11:15:54.000Z</time>
      </trkpt>
      <trkpt lat="46.27008" lon="6.56426">
        <ele>1471.9</ele>
        <time>2023-01-21T11:15:55.000Z</time>
      </trkpt>
      <trkpt lat="46.27009" lon="6.56426">
        <ele>1471.9</ele>
        <time>2023-01-21T11:15:56.000Z</time>
      </trkpt>
      <trkpt lat="46.27009" lon="6.56427">
        <ele>1471.8</ele>
        <time>2023-01-21T11:15:57.000Z</time>
      </trkpt>
      <trkpt lat="46.27009" lon="6.56427">
        <ele>1471.8</ele>
        <time>2023-01-21T11:15:58.000Z</time>
      </trkpt>
      <trkpt lat="46.27009" lon="6.56427">
        <ele>1471.8</ele>
        <time>2023-01-21T11:15:59.000Z</time>
      </trkpt>
      <trkpt lat="46.27009" lon="6.56427">
        <ele>1471.8</ele>
        <time>2023-01-21T11:16:00.000Z</time>
      </trkpt>
      <trkpt lat="46.27009" lon="6.56427">
        <ele>1471.8</ele>
        <time>2023-01-21T11:16:01.000Z</time>
      </trkpt>
      <trkpt lat="46.27009" lon="6.56427">
        <ele>1471.8</ele>
        <time>2023-01-21T11:16:02.000Z</time>
      </trkpt>
      <trkpt lat="46.27009" lon="6.56427">
        <ele>1471.8</ele>
        <time>2023-01-21T11:16:03.000Z</time>
      </trkpt>
      <trkpt lat="46.27009" lon="6.56427">
        <ele>1471.8</ele>
        <time>2023-01-21T11:16:04.000Z</time>
      </trkpt>
      <trkpt lat="46.27009" lon="6.56427">
        <ele>1471.8</ele>
        <time>2023-01-21T11:16:05.000Z</time>
      </trkpt>
      <trkpt lat="46.27009" lon="6.56427">
        <ele>1471.8</ele>
        <time>2023-01-21T11:16:06.000Z</time>
      </trkpt>
      <trkpt lat="46.27009" lon="6.56427">
        <ele>1471.8</ele>
        <time>2023-01-21T11:16:07.000Z</time>
      </trkpt>
      <trkpt lat="46.27009" lon="6.56427">
        <ele>1471.8</ele>
        <time>2023-01-21T11:16:08.000Z</time>
      </trkpt>
      <trkpt lat="46.27009" lon="6.56427">
        <ele>1471.8</ele>
        <time>2023-01-21T11:16:09.000Z</time>
      </trkpt>
      <trkpt lat="46.27009" lon="6.56427">
        <ele>1471.8</ele>
        <time>2023-01-21T11:16:10.000Z</time>
      </trkpt>
      <trkpt lat="46.27009" lon="6.56427">
        <ele>1471.8</ele>
        <time>2023-01-21T11:16:11.000Z</time>
      </trkpt>
      <trkpt lat="46.27009" lon="6.56427">
        <ele>1471.8</ele>
        <time>2023-01-21T11:16:12.000Z</time>
      </trkpt>
      <trkpt lat="46.2701" lon="6.56431">
        <ele>1469.3</ele>
        <time>2023-01-21T11:16:13.000Z</time>
      </trkpt>
      <trkpt lat="46.2701" lon="6.56433">
        <ele>1469</ele>
        <time>2023-01-21T11:16:14.000Z</time>
      </trkpt>
      <trkpt lat="46.27009" lon="6.56434">
        <ele>1469</ele>
        <time>2023-01-21T11:16:15.000Z</time>
      </trkpt>
      <trkpt lat="46.27009" lon="6.56434">
        <ele>1469</ele>
        <time>2023-01-21T11:16:16.000Z</time>
      </trkpt>
      <trkpt lat="46.27009" lon="6.56435">
        <ele>1469</ele>
        <time>2023-01-21T11:16:17.000Z</time>
      </trkpt>
      <trkpt lat="46.27009" lon="6.56435">
        <ele>1469</ele>
        <time>2023-01-21T11:16:18.000Z</time>
      </trkpt>
      <trkpt lat="46.27008" lon="6.56435">
        <ele>1469</ele>
        <time>2023-01-21T11:16:19.000Z</time>
      </trkpt>
      <trkpt lat="46.27008" lon="6.56435">
        <ele>1469</ele>
        <time>2023-01-21T11:16:20.000Z</time>
      </trkpt>
      <trkpt lat="46.27008" lon="6.56434">
        <ele>1469</ele>
        <time>2023-01-21T11:16:21.000Z</time>
      </trkpt>
      <trkpt lat="46.27008" lon="6.56434">
        <ele>1468.9</ele>
        <time>2023-01-21T11:16:22.000Z</time>
      </trkpt>
      <trkpt lat="46.27008" lon="6.56434">
        <ele>1469</ele>
        <time>2023-01-21T11:16:23.000Z</time>
      </trkpt>
      <trkpt lat="46.27008" lon="6.56433">
        <ele>1468.9</ele>
        <time>2023-01-21T11:16:24.000Z</time>
      </trkpt>
      <trkpt lat="46.27009" lon="6.56432">
        <ele>1469</ele>
        <time>2023-01-21T11:16:25.000Z</time>
      </trkpt>
      <trkpt lat="46.2701" lon="6.56433">
        <ele>1468.9</ele>
        <time>2023-01-21T11:16:26.000Z</time>
      </trkpt>
      <trkpt lat="46.27011" lon="6.56434">
        <ele>1468.8</ele>
        <time>2023-01-21T11:16:27.000Z</time>
      </trkpt>
      <trkpt lat="46.27011" lon="6.56434">
        <ele>1468.8</ele>
        <time>2023-01-21T11:16:28.000Z</time>
      </trkpt>
      <trkpt lat="46.27011" lon="6.56434">
        <ele>1468.8</ele>
        <time>2023-01-21T11:16:29.000Z</time>
      </trkpt>
      <trkpt lat="46.27012" lon="6.56433">
        <ele>1468.7</ele>
        <time>2023-01-21T11:16:30.000Z</time>
      </trkpt>
      <trkpt lat="46.27011" lon="6.56433">
        <ele>1468.7</ele>
        <time>2023-01-21T11:16:31.000Z</time>
      </trkpt>
      <trkpt lat="46.27012" lon="6.56434">
        <ele>1468.5</ele>
        <time>2023-01-21T11:16:32.000Z</time>
      </trkpt>
      <trkpt lat="46.27012" lon="6.56434">
        <ele>1468.3</ele>
        <time>2023-01-21T11:16:33.000Z</time>
      </trkpt>
      <trkpt lat="46.27012" lon="6.56434">
        <ele>1468.1</ele>
        <time>2023-01-21T11:16:34.000Z</time>
      </trkpt>
      <trkpt lat="46.27012" lon="6.56433">
        <ele>1467.9</ele>
        <time>2023-01-21T11:16:35.000Z</time>
      </trkpt>
      <trkpt lat="46.27012" lon="6.56432">
        <ele>1467.3</ele>
        <time>2023-01-21T11:16:36.000Z</time>
      </trkpt>
      <trkpt lat="46.27011" lon="6.56432">
        <ele>1466.4</ele>
        <time>2023-01-21T11:16:37.000Z</time>
      </trkpt>
      <trkpt lat="46.27012" lon="6.56432">
        <ele>1466</ele>
        <time>2023-01-21T11:16:38.000Z</time>
      </trkpt>
      <trkpt lat="46.27012" lon="6.56432">
        <ele>1465.6</ele>
        <time>2023-01-21T11:16:39.000Z</time>
      </trkpt>
      <trkpt lat="46.27012" lon="6.56432">
        <ele>1465.6</ele>
        <time>2023-01-21T11:16:40.000Z</time>
      </trkpt>
      <trkpt lat="46.27012" lon="6.56432">
        <ele>1465.6</ele>
        <time>2023-01-21T11:16:41.000Z</time>
      </trkpt>
      <trkpt lat="46.27012" lon="6.56432">
        <ele>1465.6</ele>
        <time>2023-01-21T11:16:42.000Z</time>
      </trkpt>
      <trkpt lat="46.27012" lon="6.56432">
        <ele>1465.6</ele>
        <time>2023-01-21T11:16:43.000Z</time>
      </trkpt>
      <trkpt lat="46.27012" lon="6.56432">
        <ele>1465.6</ele>
        <time>2023-01-21T11:16:44.000Z</time>
      </trkpt>
      <trkpt lat="46.27012" lon="6.56432">
        <ele>1465.6</ele>
        <time>2023-01-21T11:16:45.000Z</time>
      </trkpt>
      <trkpt lat="46.27012" lon="6.56432">
        <ele>1465.6</ele>
        <time>2023-01-21T11:16:46.000Z</time>
      </trkpt>
      <trkpt lat="46.27012" lon="6.56432">
        <ele>1465.6</ele>
        <time>2023-01-21T11:16:47.000Z</time>
      </trkpt>
      <trkpt lat="46.27012" lon="6.56432">
        <ele>1465.6</ele>
        <time>2023-01-21T11:16:48.000Z</time>
      </trkpt>
      <trkpt lat="46.27012" lon="6.56432">
        <ele>1465.6</ele>
        <time>2023-01-21T11:16:49.000Z</time>
      </trkpt>
      <trkpt lat="46.27012" lon="6.56432">
        <ele>1465.6</ele>
        <time>2023-01-21T11:16:50.000Z</time>
      </trkpt>
      <trkpt lat="46.27011" lon="6.56427">
        <ele>1463.5</ele>
        <time>2023-01-21T11:16:51.000Z</time>
      </trkpt>
      <trkpt lat="46.27011" lon="6.56427">
        <ele>1463.3</ele>
        <time>2023-01-21T11:16:52.000Z</time>
      </trkpt>
      <trkpt lat="46.27011" lon="6.56428">
        <ele>1463.2</ele>
        <time>2023-01-21T11:16:53.000Z</time>
      </trkpt>
      <trkpt lat="46.2701" lon="6.56428">
        <ele>1463.3</ele>
        <time>2023-01-21T11:16:54.000Z</time>
      </trkpt>
      <trkpt lat="46.2701" lon="6.56428">
        <ele>1463.3</ele>
        <time>2023-01-21T11:16:55.000Z</time>
      </trkpt>
      <trkpt lat="46.2701" lon="6.56428">
        <ele>1463.3</ele>
        <time>2023-01-21T11:16:56.000Z</time>
      </trkpt>
      <trkpt lat="46.2701" lon="6.56428">
        <ele>1463.3</ele>
        <time>2023-01-21T11:16:57.000Z</time>
      </trkpt>
      <trkpt lat="46.2701" lon="6.56428">
        <ele>1463.3</ele>
        <time>2023-01-21T11:16:58.000Z</time>
      </trkpt>
      <trkpt lat="46.2701" lon="6.56428">
        <ele>1463.3</ele>
        <time>2023-01-21T11:16:59.000Z</time>
      </trkpt>
      <trkpt lat="46.2701" lon="6.56428">
        <ele>1463.3</ele>
        <time>2023-01-21T11:17:00.000Z</time>
      </trkpt>
      <trkpt lat="46.2701" lon="6.56428">
        <ele>1463.3</ele>
        <time>2023-01-21T11:17:01.000Z</time>
      </trkpt>
      <trkpt lat="46.2701" lon="6.56428">
        <ele>1463.3</ele>
        <time>2023-01-21T11:17:02.000Z</time>
      </trkpt>
      <trkpt lat="46.2701" lon="6.56428">
        <ele>1463.3</ele>
        <time>2023-01-21T11:17:03.000Z</time>
      </trkpt>
      <trkpt lat="46.2701" lon="6.56428">
        <ele>1463.3</ele>
        <time>2023-01-21T11:17:04.000Z</time>
      </trkpt>
      <trkpt lat="46.2701" lon="6.56431">
        <ele>1462.8</ele>
        <time>2023-01-21T11:17:05.000Z</time>
      </trkpt>
      <trkpt lat="46.2701" lon="6.56431">
        <ele>1462.5</ele>
        <time>2023-01-21T11:17:06.000Z</time>
      </trkpt>
      <trkpt lat="46.27011" lon="6.56431">
        <ele>1462</ele>
        <time>2023-01-21T11:17:07.000Z</time>
      </trkpt>
      <trkpt lat="46.27011" lon="6.56432">
        <ele>1461.6</ele>
        <time>2023-01-21T11:17:08.000Z</time>
      </trkpt>
      <trkpt lat="46.27011" lon="6.56432">
        <ele>1461.2</ele>
        <time>2023-01-21T11:17:09.000Z</time>
      </trkpt>
      <trkpt lat="46.27011" lon="6.56432">
        <ele>1461.2</ele>
        <time>2023-01-21T11:17:10.000Z</time>
      </trkpt>
      <trkpt lat="46.27011" lon="6.56432">
        <ele>1461.2</ele>
        <time>2023-01-21T11:17:11.000Z</time>
      </trkpt>
      <trkpt lat="46.27011" lon="6.56432">
        <ele>1461.2</ele>
        <time>2023-01-21T11:17:12.000Z</time>
      </trkpt>
      <trkpt lat="46.27011" lon="6.56432">
        <ele>1461.2</ele>
        <time>2023-01-21T11:17:13.000Z</time>
      </trkpt>
      <trkpt lat="46.27011" lon="6.56432">
        <ele>1461.2</ele>
        <time>2023-01-21T11:17:14.000Z</time>
      </trkpt>
      <trkpt lat="46.27011" lon="6.56432">
        <ele>1461.2</ele>
        <time>2023-01-21T11:17:15.000Z</time>
      </trkpt>
      <trkpt lat="46.27011" lon="6.56432">
        <ele>1461.2</ele>
        <time>2023-01-21T11:17:16.000Z</time>
      </trkpt>
      <trkpt lat="46.27011" lon="6.56432">
        <ele>1461.2</ele>
        <time>2023-01-21T11:17:17.000Z</time>
      </trkpt>
      <trkpt lat="46.27011" lon="6.56432">
        <ele>1461.2</ele>
        <time>2023-01-21T11:17:18.000Z</time>
      </trkpt>
      <trkpt lat="46.27011" lon="6.56432">
        <ele>1461.2</ele>
        <time>2023-01-21T11:17:19.000Z</time>
      </trkpt>
      <trkpt lat="46.27011" lon="6.56432">
        <ele>1461.2</ele>
        <time>2023-01-21T11:17:20.000Z</time>
      </trkpt>
      <trkpt lat="46.27011" lon="6.56432">
        <ele>1461.2</ele>
        <time>2023-01-21T11:17:21.000Z</time>
      </trkpt>
      <trkpt lat="46.27011" lon="6.56432">
        <ele>1461.2</ele>
        <time>2023-01-21T11:17:22.000Z</time>
      </trkpt>
      <trkpt lat="46.27011" lon="6.56432">
        <ele>1461.2</ele>
        <time>2023-01-21T11:17:23.000Z</time>
      </trkpt>
      <trkpt lat="46.27011" lon="6.56432">
        <ele>1461.2</ele>
        <time>2023-01-21T11:17:24.000Z</time>
      </trkpt>
      <trkpt lat="46.27011" lon="6.56432">
        <ele>1461.2</ele>
        <time>2023-01-21T11:17:25.000Z</time>
      </trkpt>
      <trkpt lat="46.27011" lon="6.56432">
        <ele>1461.2</ele>
        <time>2023-01-21T11:17:26.000Z</time>
      </trkpt>
      <trkpt lat="46.27011" lon="6.56432">
        <ele>1461.2</ele>
        <time>2023-01-21T11:17:27.000Z</time>
      </trkpt>
      <trkpt lat="46.27011" lon="6.56432">
        <ele>1461.2</ele>
        <time>2023-01-21T11:17:28.000Z</time>
      </trkpt>
      <trkpt lat="46.27011" lon="6.56432">
        <ele>1461.2</ele>
        <time>2023-01-21T11:17:29.000Z</time>
      </trkpt>
      <trkpt lat="46.27011" lon="6.56432">
        <ele>1461.2</ele>
        <time>2023-01-21T11:17:30.000Z</time>
      </trkpt>
      <trkpt lat="46.27011" lon="6.56432">
        <ele>1461.2</ele>
        <time>2023-01-21T11:17:31.000Z</time>
      </trkpt>
      <trkpt lat="46.2701" lon="6.56429">
        <ele>1460.4</ele>
        <time>2023-01-21T11:17:32.000Z</time>
      </trkpt>
      <trkpt lat="46.27009" lon="6.56429">
        <ele>1461</ele>
        <time>2023-01-21T11:17:33.000Z</time>
      </trkpt>
      <trkpt lat="46.27009" lon="6.56428">
        <ele>1462.1</ele>
        <time>2023-01-21T11:17:34.000Z</time>
      </trkpt>
      <trkpt lat="46.27009" lon="6.56426">
        <ele>1462.3</ele>
        <time>2023-01-21T11:17:35.000Z</time>
      </trkpt>
      <trkpt lat="46.2701" lon="6.56428">
        <ele>1462.6</ele>
        <time>2023-01-21T11:17:36.000Z</time>
      </trkpt>
      <trkpt lat="46.27009" lon="6.5643">
        <ele>1464.3</ele>
        <time>2023-01-21T11:17:37.000Z</time>
      </trkpt>
      <trkpt lat="46.27009" lon="6.56431">
        <ele>1465.6</ele>
        <time>2023-01-21T11:17:38.000Z</time>
      </trkpt>
      <trkpt lat="46.27009" lon="6.5643">
        <ele>1467.6</ele>
        <time>2023-01-21T11:17:39.000Z</time>
      </trkpt>
      <trkpt lat="46.27008" lon="6.56431">
        <ele>1469.5</ele>
        <time>2023-01-21T11:17:40.000Z</time>
      </trkpt>
      <trkpt lat="46.27007" lon="6.56429">
        <ele>1469.1</ele>
        <time>2023-01-21T11:17:41.000Z</time>
      </trkpt>
      <trkpt lat="46.27008" lon="6.56431">
        <ele>1465.9</ele>
        <time>2023-01-21T11:17:42.000Z</time>
      </trkpt>
      <trkpt lat="46.27008" lon="6.56431">
        <ele>1467.9</ele>
        <time>2023-01-21T11:17:43.000Z</time>
      </trkpt>
      <trkpt lat="46.27009" lon="6.56431">
        <ele>1467.4</ele>
        <time>2023-01-21T11:17:44.000Z</time>
      </trkpt>
      <trkpt lat="46.27008" lon="6.56432">
        <ele>1467.6</ele>
        <time>2023-01-21T11:17:45.000Z</time>
      </trkpt>
      <trkpt lat="46.27008" lon="6.56433">
        <ele>1467.8</ele>
        <time>2023-01-21T11:17:46.000Z</time>
      </trkpt>
      <trkpt lat="46.27007" lon="6.56432">
        <ele>1468</ele>
        <time>2023-01-21T11:17:47.000Z</time>
      </trkpt>
      <trkpt lat="46.27008" lon="6.56432">
        <ele>1468.3</ele>
        <time>2023-01-21T11:17:48.000Z</time>
      </trkpt>
      <trkpt lat="46.27008" lon="6.56432">
        <ele>1468.3</ele>
        <time>2023-01-21T11:17:49.000Z</time>
      </trkpt>
      <trkpt lat="46.27007" lon="6.56432">
        <ele>1468.3</ele>
        <time>2023-01-21T11:17:50.000Z</time>
      </trkpt>
      <trkpt lat="46.27008" lon="6.56432">
        <ele>1468.2</ele>
        <time>2023-01-21T11:17:51.000Z</time>
      </trkpt>
      <trkpt lat="46.27008" lon="6.56432">
        <ele>1468.4</ele>
        <time>2023-01-21T11:17:52.000Z</time>
      </trkpt>
      <trkpt lat="46.27008" lon="6.56432">
        <ele>1468.3</ele>
        <time>2023-01-21T11:17:53.000Z</time>
      </trkpt>
      <trkpt lat="46.27008" lon="6.56432">
        <ele>1468.3</ele>
        <time>2023-01-21T11:17:54.000Z</time>
      </trkpt>
      <trkpt lat="46.27008" lon="6.56432">
        <ele>1468.3</ele>
        <time>2023-01-21T11:17:55.000Z</time>
      </trkpt>
      <trkpt lat="46.27008" lon="6.56432">
        <ele>1468.3</ele>
        <time>2023-01-21T11:17:56.000Z</time>
      </trkpt>
      <trkpt lat="46.27009" lon="6.56434">
        <ele>1471.7</ele>
        <time>2023-01-21T11:17:57.000Z</time>
      </trkpt>
      <trkpt lat="46.27009" lon="6.56435">
        <ele>1473.8</ele>
        <time>2023-01-21T11:17:58.000Z</time>
      </trkpt>
      <trkpt lat="46.27009" lon="6.56437">
        <ele>1475.5</ele>
        <time>2023-01-21T11:17:59.000Z</time>
      </trkpt>
      <trkpt lat="46.2701" lon="6.56438">
        <ele>1475.5</ele>
        <time>2023-01-21T11:18:00.000Z</time>
      </trkpt>
      <trkpt lat="46.27009" lon="6.5644">
        <ele>1473.6</ele>
        <time>2023-01-21T11:18:01.000Z</time>
      </trkpt>
      <trkpt lat="46.27009" lon="6.56439">
        <ele>1473.1</ele>
        <time>2023-01-21T11:18:02.000Z</time>
      </trkpt>
      <trkpt lat="46.27008" lon="6.56438">
        <ele>1473</ele>
        <time>2023-01-21T11:18:03.000Z</time>
      </trkpt>
      <trkpt lat="46.27008" lon="6.56437">
        <ele>1471.7</ele>
        <time>2023-01-21T11:18:04.000Z</time>
      </trkpt>
      <trkpt lat="46.27007" lon="6.56436">
        <ele>1471.4</ele>
        <time>2023-01-21T11:18:05.000Z</time>
      </trkpt>
      <trkpt lat="46.27007" lon="6.56436">
        <ele>1471.2</ele>
        <time>2023-01-21T11:18:06.000Z</time>
      </trkpt>
      <trkpt lat="46.27007" lon="6.56435">
        <ele>1471.5</ele>
        <time>2023-01-21T11:18:07.000Z</time>
      </trkpt>
      <trkpt lat="46.27007" lon="6.56434">
        <ele>1471.1</ele>
        <time>2023-01-21T11:18:08.000Z</time>
      </trkpt>
      <trkpt lat="46.27007" lon="6.56434">
        <ele>1470.9</ele>
        <time>2023-01-21T11:18:09.000Z</time>
      </trkpt>
      <trkpt lat="46.27007" lon="6.56433">
        <ele>1470.8</ele>
        <time>2023-01-21T11:18:10.000Z</time>
      </trkpt>
      <trkpt lat="46.27007" lon="6.56433">
        <ele>1471</ele>
        <time>2023-01-21T11:18:11.000Z</time>
      </trkpt>
      <trkpt lat="46.27007" lon="6.56433">
        <ele>1471.1</ele>
        <time>2023-01-21T11:18:12.000Z</time>
      </trkpt>
      <trkpt lat="46.27007" lon="6.56433">
        <ele>1471.1</ele>
        <time>2023-01-21T11:18:13.000Z</time>
      </trkpt>
      <trkpt lat="46.27007" lon="6.56433">
        <ele>1471.1</ele>
        <time>2023-01-21T11:18:14.000Z</time>
      </trkpt>
      <trkpt lat="46.27007" lon="6.56433">
        <ele>1471.1</ele>
        <time>2023-01-21T11:18:15.000Z</time>
      </trkpt>
      <trkpt lat="46.27007" lon="6.56433">
        <ele>1471.1</ele>
        <time>2023-01-21T11:18:16.000Z</time>
      </trkpt>
      <trkpt lat="46.27007" lon="6.56433">
        <ele>1471.1</ele>
        <time>2023-01-21T11:18:17.000Z</time>
      </trkpt>
      <trkpt lat="46.27007" lon="6.56433">
        <ele>1471.1</ele>
        <time>2023-01-21T11:18:18.000Z</time>
      </trkpt>
      <trkpt lat="46.27007" lon="6.56433">
        <ele>1471.1</ele>
        <time>2023-01-21T11:18:19.000Z</time>
      </trkpt>
      <trkpt lat="46.27007" lon="6.56433">
        <ele>1471.1</ele>
        <time>2023-01-21T11:18:20.000Z</time>
      </trkpt>
      <trkpt lat="46.27007" lon="6.56433">
        <ele>1467.7</ele>
        <time>2023-01-21T11:18:21.000Z</time>
      </trkpt>
      <trkpt lat="46.27007" lon="6.56433">
        <ele>1467.7</ele>
        <time>2023-01-21T11:18:22.000Z</time>
      </trkpt>
      <trkpt lat="46.27007" lon="6.56433">
        <ele>1467.7</ele>
        <time>2023-01-21T11:18:23.000Z</time>
      </trkpt>
      <trkpt lat="46.27007" lon="6.56433">
        <ele>1467.7</ele>
        <time>2023-01-21T11:18:24.000Z</time>
      </trkpt>
      <trkpt lat="46.27007" lon="6.56433">
        <ele>1467.7</ele>
        <time>2023-01-21T11:18:25.000Z</time>
      </trkpt>
      <trkpt lat="46.27007" lon="6.56433">
        <ele>1467.7</ele>
        <time>2023-01-21T11:18:26.000Z</time>
      </trkpt>
      <trkpt lat="46.27007" lon="6.56433">
        <ele>1467.7</ele>
        <time>2023-01-21T11:18:27.000Z</time>
      </trkpt>
      <trkpt lat="46.27007" lon="6.56433">
        <ele>1467.7</ele>
        <time>2023-01-21T11:18:28.000Z</time>
      </trkpt>
      <trkpt lat="46.27007" lon="6.56433">
        <ele>1467.7</ele>
        <time>2023-01-21T11:18:29.000Z</time>
      </trkpt>
      <trkpt lat="46.27007" lon="6.56433">
        <ele>1467.7</ele>
        <time>2023-01-21T11:18:30.000Z</time>
      </trkpt>
      <trkpt lat="46.27007" lon="6.5643">
        <ele>1470.5</ele>
        <time>2023-01-21T11:18:31.000Z</time>
      </trkpt>
      <trkpt lat="46.27007" lon="6.56431">
        <ele>1471.4</ele>
        <time>2023-01-21T11:18:32.000Z</time>
      </trkpt>
      <trkpt lat="46.27007" lon="6.5643">
        <ele>1471.7</ele>
        <time>2023-01-21T11:18:33.000Z</time>
      </trkpt>
      <trkpt lat="46.27007" lon="6.5643">
        <ele>1471.7</ele>
        <time>2023-01-21T11:18:34.000Z</time>
      </trkpt>
      <trkpt lat="46.27007" lon="6.5643">
        <ele>1471.7</ele>
        <time>2023-01-21T11:18:35.000Z</time>
      </trkpt>
      <trkpt lat="46.27007" lon="6.5643">
        <ele>1471.7</ele>
        <time>2023-01-21T11:18:36.000Z</time>
      </trkpt>
      <trkpt lat="46.27007" lon="6.5643">
        <ele>1471.7</ele>
        <time>2023-01-21T11:18:37.000Z</time>
      </trkpt>
      <trkpt lat="46.27007" lon="6.56431">
        <ele>1473.2</ele>
        <time>2023-01-21T11:18:38.000Z</time>
      </trkpt>
      <trkpt lat="46.27008" lon="6.56432">
        <ele>1473.4</ele>
        <time>2023-01-21T11:18:39.000Z</time>
      </trkpt>
      <trkpt lat="46.27008" lon="6.56431">
        <ele>1474.9</ele>
        <time>2023-01-21T11:18:40.000Z</time>
      </trkpt>
      <trkpt lat="46.27007" lon="6.56431">
        <ele>1475.7</ele>
        <time>2023-01-21T11:18:41.000Z</time>
      </trkpt>
      <trkpt lat="46.27008" lon="6.56431">
        <ele>1475.7</ele>
        <time>2023-01-21T11:18:42.000Z</time>
      </trkpt>
      <trkpt lat="46.27007" lon="6.56431">
        <ele>1476.1</ele>
        <time>2023-01-21T11:18:43.000Z</time>
      </trkpt>
      <trkpt lat="46.27007" lon="6.56432">
        <ele>1475.9</ele>
        <time>2023-01-21T11:18:44.000Z</time>
      </trkpt>
      <trkpt lat="46.27008" lon="6.56432">
        <ele>1476.2</ele>
        <time>2023-01-21T11:18:45.000Z</time>
      </trkpt>
      <trkpt lat="46.27008" lon="6.56432">
        <ele>1475.8</ele>
        <time>2023-01-21T11:18:46.000Z</time>
      </trkpt>
      <trkpt lat="46.27008" lon="6.56431">
        <ele>1475.3</ele>
        <time>2023-01-21T11:18:47.000Z</time>
      </trkpt>
      <trkpt lat="46.27008" lon="6.56431">
        <ele>1474.9</ele>
        <time>2023-01-21T11:18:48.000Z</time>
      </trkpt>
      <trkpt lat="46.27008" lon="6.56431">
        <ele>1474.2</ele>
        <time>2023-01-21T11:18:49.000Z</time>
      </trkpt>
      <trkpt lat="46.2701" lon="6.56431">
        <ele>1474.4</ele>
        <time>2023-01-21T11:18:50.000Z</time>
      </trkpt>
      <trkpt lat="46.27013" lon="6.56433">
        <ele>1474.4</ele>
        <time>2023-01-21T11:18:51.000Z</time>
      </trkpt>
      <trkpt lat="46.27015" lon="6.56434">
        <ele>1474.9</ele>
        <time>2023-01-21T11:18:52.000Z</time>
      </trkpt>
      <trkpt lat="46.27" lon="6.56439">
        <ele>1465</ele>
        <time>2023-01-21T11:35:28.000Z</time>
      </trkpt>
      <trkpt lat="46.27" lon="6.56439">
        <ele>1465</ele>
        <time>2023-01-21T11:35:29.000Z</time>
      </trkpt>
      <trkpt lat="46.27" lon="6.56439">
        <ele>1465</ele>
        <time>2023-01-21T11:35:30.000Z</time>
      </trkpt>
      <trkpt lat="46.27" lon="6.56439">
        <ele>1465</ele>
        <time>2023-01-21T11:35:31.000Z</time>
      </trkpt>
      <trkpt lat="46.27" lon="6.56439">
        <ele>1465</ele>
        <time>2023-01-21T11:35:32.000Z</time>
      </trkpt>
      <trkpt lat="46.27" lon="6.56439">
        <ele>1465</ele>
        <time>2023-01-21T11:35:33.000Z</time>
      </trkpt>
      <trkpt lat="46.27" lon="6.56439">
        <ele>1465</ele>
        <time>2023-01-21T11:35:34.000Z</time>
      </trkpt>
      <trkpt lat="46.27" lon="6.56439">
        <ele>1465</ele>
        <time>2023-01-21T11:35:35.000Z</time>
      </trkpt>
      <trkpt lat="46.27" lon="6.56439">
        <ele>1465</ele>
        <time>2023-01-21T11:35:36.000Z</time>
      </trkpt>
      <trkpt lat="46.27" lon="6.56439">
        <ele>1465</ele>
        <time>2023-01-21T11:35:37.000Z</time>
      </trkpt>
      <trkpt lat="46.27" lon="6.56439">
        <ele>1465</ele>
        <time>2023-01-21T11:35:38.000Z</time>
      </trkpt>
      <trkpt lat="46.27" lon="6.56439">
        <ele>1465</ele>
        <time>2023-01-21T11:35:39.000Z</time>
      </trkpt>
      <trkpt lat="46.27" lon="6.56439">
        <ele>1465</ele>
        <time>2023-01-21T11:35:40.000Z</time>
      </trkpt>
      <trkpt lat="46.27" lon="6.56439">
        <ele>1465</ele>
        <time>2023-01-21T11:35:41.000Z</time>
      </trkpt>
      <trkpt lat="46.27" lon="6.56439">
        <ele>1465</ele>
        <time>2023-01-21T11:35:42.000Z</time>
      </trkpt>
      <trkpt lat="46.27" lon="6.56439">
        <ele>1468.2</ele>
        <time>2023-01-21T11:35:43.000Z</time>
      </trkpt>
      <trkpt lat="46.27" lon="6.56439">
        <ele>1468.2</ele>
        <time>2023-01-21T11:35:44.000Z</time>
      </trkpt>
      <trkpt lat="46.27002" lon="6.56441">
        <ele>1469.3</ele>
        <time>2023-01-21T11:35:45.000Z</time>
      </trkpt>
      <trkpt lat="46.27001" lon="6.56442">
        <ele>1469.4</ele>
        <time>2023-01-21T11:35:46.000Z</time>
      </trkpt>
      <trkpt lat="46.27" lon="6.56442">
        <ele>1469.8</ele>
        <time>2023-01-21T11:35:47.000Z</time>
      </trkpt>
      <trkpt lat="46.26999" lon="6.56443">
        <ele>1470.1</ele>
        <time>2023-01-21T11:35:48.000Z</time>
      </trkpt>
      <trkpt lat="46.26999" lon="6.56444">
        <ele>1470.6</ele>
        <time>2023-01-21T11:35:49.000Z</time>
      </trkpt>
      <trkpt lat="46.26998" lon="6.56445">
        <ele>1470.9</ele>
        <time>2023-01-21T11:35:50.000Z</time>
      </trkpt>
      <trkpt lat="46.26997" lon="6.56446">
        <ele>1471.2</ele>
        <time>2023-01-21T11:35:51.000Z</time>
      </trkpt>
      <trkpt lat="46.26996" lon="6.56448">
        <ele>1471.6</ele>
        <time>2023-01-21T11:35:52.000Z</time>
      </trkpt>
      <trkpt lat="46.26995" lon="6.56449">
        <ele>1472</ele>
        <time>2023-01-21T11:35:53.000Z</time>
      </trkpt>
      <trkpt lat="46.26995" lon="6.56449">
        <ele>1472.6</ele>
        <time>2023-01-21T11:35:54.000Z</time>
      </trkpt>
      <trkpt lat="46.26994" lon="6.5645">
        <ele>1473.5</ele>
        <time>2023-01-21T11:35:55.000Z</time>
      </trkpt>
      <trkpt lat="46.26993" lon="6.5645">
        <ele>1474</ele>
        <time>2023-01-21T11:35:56.000Z</time>
      </trkpt>
      <trkpt lat="46.26992" lon="6.56451">
        <ele>1474.6</ele>
        <time>2023-01-21T11:35:57.000Z</time>
      </trkpt>
      <trkpt lat="46.26992" lon="6.56452">
        <ele>1475</ele>
        <time>2023-01-21T11:35:58.000Z</time>
      </trkpt>
      <trkpt lat="46.26991" lon="6.56453">
        <ele>1475.4</ele>
        <time>2023-01-21T11:35:59.000Z</time>
      </trkpt>
      <trkpt lat="46.2699" lon="6.56453">
        <ele>1475.8</ele>
        <time>2023-01-21T11:36:00.000Z</time>
      </trkpt>
      <trkpt lat="46.2699" lon="6.56453">
        <ele>1476.1</ele>
        <time>2023-01-21T11:36:01.000Z</time>
      </trkpt>
      <trkpt lat="46.2699" lon="6.56453">
        <ele>1476.1</ele>
        <time>2023-01-21T11:36:02.000Z</time>
      </trkpt>
      <trkpt lat="46.2699" lon="6.56453">
        <ele>1476.1</ele>
        <time>2023-01-21T11:36:03.000Z</time>
      </trkpt>
      <trkpt lat="46.2699" lon="6.56453">
        <ele>1476.1</ele>
        <time>2023-01-21T11:36:04.000Z</time>
      </trkpt>
      <trkpt lat="46.2699" lon="6.56453">
        <ele>1476.1</ele>
        <time>2023-01-21T11:36:05.000Z</time>
      </trkpt>
      <trkpt lat="46.2699" lon="6.56453">
        <ele>1476.1</ele>
        <time>2023-01-21T11:36:06.000Z</time>
      </trkpt>
      <trkpt lat="46.2699" lon="6.56453">
        <ele>1476.1</ele>
        <time>2023-01-21T11:36:07.000Z</time>
      </trkpt>
      <trkpt lat="46.26984" lon="6.56455">
        <ele>1478.9</ele>
        <time>2023-01-21T11:36:08.000Z</time>
      </trkpt>
      <trkpt lat="46.26983" lon="6.56455">
        <ele>1479.5</ele>
        <time>2023-01-21T11:36:09.000Z</time>
      </trkpt>
      <trkpt lat="46.26982" lon="6.56455">
        <ele>1479.9</ele>
        <time>2023-01-21T11:36:10.000Z</time>
      </trkpt>
      <trkpt lat="46.26982" lon="6.56456">
        <ele>1480.4</ele>
        <time>2023-01-21T11:36:11.000Z</time>
      </trkpt>
      <trkpt lat="46.26981" lon="6.56457">
        <ele>1480.9</ele>
        <time>2023-01-21T11:36:12.000Z</time>
      </trkpt>
      <trkpt lat="46.26981" lon="6.56457">
        <ele>1480.9</ele>
        <time>2023-01-21T11:36:13.000Z</time>
      </trkpt>
      <trkpt lat="46.26981" lon="6.56457">
        <ele>1480.9</ele>
        <time>2023-01-21T11:36:14.000Z</time>
      </trkpt>
      <trkpt lat="46.26981" lon="6.56457">
        <ele>1480.9</ele>
        <time>2023-01-21T11:36:15.000Z</time>
      </trkpt>
      <trkpt lat="46.26981" lon="6.56457">
        <ele>1480.9</ele>
        <time>2023-01-21T11:36:16.000Z</time>
      </trkpt>
      <trkpt lat="46.26981" lon="6.56457">
        <ele>1480.9</ele>
        <time>2023-01-21T11:36:17.000Z</time>
      </trkpt>
      <trkpt lat="46.26981" lon="6.56457">
        <ele>1480.9</ele>
        <time>2023-01-21T11:36:18.000Z</time>
      </trkpt>
      <trkpt lat="46.26981" lon="6.56457">
        <ele>1480.9</ele>
        <time>2023-01-21T11:36:19.000Z</time>
      </trkpt>
      <trkpt lat="46.26981" lon="6.56457">
        <ele>1480.9</ele>
        <time>2023-01-21T11:36:20.000Z</time>
      </trkpt>
      <trkpt lat="46.26978" lon="6.56468">
        <ele>1480.8</ele>
        <time>2023-01-21T11:36:21.000Z</time>
      </trkpt>
      <trkpt lat="46.26977" lon="6.56469">
        <ele>1480.7</ele>
        <time>2023-01-21T11:36:22.000Z</time>
      </trkpt>
      <trkpt lat="46.26977" lon="6.5647">
        <ele>1480.5</ele>
        <time>2023-01-21T11:36:23.000Z</time>
      </trkpt>
      <trkpt lat="46.26977" lon="6.56472">
        <ele>1480.6</ele>
        <time>2023-01-21T11:36:24.000Z</time>
      </trkpt>
      <trkpt lat="46.26977" lon="6.56473">
        <ele>1480.5</ele>
        <time>2023-01-21T11:36:25.000Z</time>
      </trkpt>
      <trkpt lat="46.26977" lon="6.56473">
        <ele>1480.5</ele>
        <time>2023-01-21T11:36:26.000Z</time>
      </trkpt>
      <trkpt lat="46.26977" lon="6.56473">
        <ele>1480.5</ele>
        <time>2023-01-21T11:36:27.000Z</time>
      </trkpt>
      <trkpt lat="46.26977" lon="6.56473">
        <ele>1480.5</ele>
        <time>2023-01-21T11:36:28.000Z</time>
      </trkpt>
      <trkpt lat="46.26971" lon="6.56476">
        <ele>1480.7</ele>
        <time>2023-01-21T11:36:29.000Z</time>
      </trkpt>
      <trkpt lat="46.26971" lon="6.56476">
        <ele>1480.6</ele>
        <time>2023-01-21T11:36:30.000Z</time>
      </trkpt>
      <trkpt lat="46.2697" lon="6.56476">
        <ele>1480.5</ele>
        <time>2023-01-21T11:36:31.000Z</time>
      </trkpt>
      <trkpt lat="46.2697" lon="6.56477">
        <ele>1480.5</ele>
        <time>2023-01-21T11:36:32.000Z</time>
      </trkpt>
      <trkpt lat="46.2697" lon="6.56477">
        <ele>1480.5</ele>
        <time>2023-01-21T11:36:33.000Z</time>
      </trkpt>
      <trkpt lat="46.2697" lon="6.56477">
        <ele>1480.3</ele>
        <time>2023-01-21T11:36:34.000Z</time>
      </trkpt>
      <trkpt lat="46.26969" lon="6.56476">
        <ele>1480.2</ele>
        <time>2023-01-21T11:36:35.000Z</time>
      </trkpt>
      <trkpt lat="46.26969" lon="6.56476">
        <ele>1480.2</ele>
        <time>2023-01-21T11:36:36.000Z</time>
      </trkpt>
      <trkpt lat="46.26969" lon="6.56476">
        <ele>1480.2</ele>
        <time>2023-01-21T11:36:37.000Z</time>
      </trkpt>
      <trkpt lat="46.26969" lon="6.56476">
        <ele>1480.2</ele>
        <time>2023-01-21T11:36:38.000Z</time>
      </trkpt>
      <trkpt lat="46.26969" lon="6.56476">
        <ele>1480.2</ele>
        <time>2023-01-21T11:36:39.000Z</time>
      </trkpt>
      <trkpt lat="46.26969" lon="6.56476">
        <ele>1480.2</ele>
        <time>2023-01-21T11:36:40.000Z</time>
      </trkpt>
      <trkpt lat="46.26969" lon="6.56476">
        <ele>1480.2</ele>
        <time>2023-01-21T11:36:41.000Z</time>
      </trkpt>
      <trkpt lat="46.26969" lon="6.56476">
        <ele>1480.2</ele>
        <time>2023-01-21T11:36:42.000Z</time>
      </trkpt>
      <trkpt lat="46.26969" lon="6.56476">
        <ele>1480.2</ele>
        <time>2023-01-21T11:36:43.000Z</time>
      </trkpt>
      <trkpt lat="46.26969" lon="6.56476">
        <ele>1480.2</ele>
        <time>2023-01-21T11:36:44.000Z</time>
      </trkpt>
      <trkpt lat="46.26964" lon="6.56487">
        <ele>1480.4</ele>
        <time>2023-01-21T11:36:45.000Z</time>
      </trkpt>
      <trkpt lat="46.26963" lon="6.56488">
        <ele>1480.2</ele>
        <time>2023-01-21T11:36:46.000Z</time>
      </trkpt>
      <trkpt lat="46.26963" lon="6.5649">
        <ele>1479.8</ele>
        <time>2023-01-21T11:36:47.000Z</time>
      </trkpt>
      <trkpt lat="46.26962" lon="6.56491">
        <ele>1479.7</ele>
        <time>2023-01-21T11:36:48.000Z</time>
      </trkpt>
      <trkpt lat="46.26962" lon="6.56491">
        <ele>1479.7</ele>
        <time>2023-01-21T11:36:49.000Z</time>
      </trkpt>
      <trkpt lat="46.26962" lon="6.56491">
        <ele>1479.7</ele>
        <time>2023-01-21T11:36:50.000Z</time>
      </trkpt>
      <trkpt lat="46.26962" lon="6.56491">
        <ele>1479.7</ele>
        <time>2023-01-21T11:36:51.000Z</time>
      </trkpt>
      <trkpt lat="46.26962" lon="6.56491">
        <ele>1479.7</ele>
        <time>2023-01-21T11:36:52.000Z</time>
      </trkpt>
      <trkpt lat="46.26962" lon="6.56491">
        <ele>1479.7</ele>
        <time>2023-01-21T11:36:53.000Z</time>
      </trkpt>
      <trkpt lat="46.26962" lon="6.56491">
        <ele>1479.7</ele>
        <time>2023-01-21T11:36:54.000Z</time>
      </trkpt>
      <trkpt lat="46.26962" lon="6.56491">
        <ele>1479.7</ele>
        <time>2023-01-21T11:36:55.000Z</time>
      </trkpt>
      <trkpt lat="46.26962" lon="6.56491">
        <ele>1479.7</ele>
        <time>2023-01-21T11:36:56.000Z</time>
      </trkpt>
      <trkpt lat="46.26962" lon="6.56491">
        <ele>1479.7</ele>
        <time>2023-01-21T11:36:57.000Z</time>
      </trkpt>
      <trkpt lat="46.26962" lon="6.56491">
        <ele>1479.7</ele>
        <time>2023-01-21T11:36:58.000Z</time>
      </trkpt>
      <trkpt lat="46.26954" lon="6.56497">
        <ele>1480.4</ele>
        <time>2023-01-21T11:36:59.000Z</time>
      </trkpt>
      <trkpt lat="46.26953" lon="6.56497">
        <ele>1480.4</ele>
        <time>2023-01-21T11:37:00.000Z</time>
      </trkpt>
      <trkpt lat="46.26953" lon="6.56498">
        <ele>1480.3</ele>
        <time>2023-01-21T11:37:01.000Z</time>
      </trkpt>
      <trkpt lat="46.26952" lon="6.56498">
        <ele>1480.3</ele>
        <time>2023-01-21T11:37:02.000Z</time>
      </trkpt>
      <trkpt lat="46.26952" lon="6.56498">
        <ele>1480.3</ele>
        <time>2023-01-21T11:37:03.000Z</time>
      </trkpt>
      <trkpt lat="46.26952" lon="6.56498">
        <ele>1480.3</ele>
        <time>2023-01-21T11:37:04.000Z</time>
      </trkpt>
      <trkpt lat="46.26952" lon="6.56498">
        <ele>1480.3</ele>
        <time>2023-01-21T11:37:05.000Z</time>
      </trkpt>
      <trkpt lat="46.26952" lon="6.56498">
        <ele>1480.3</ele>
        <time>2023-01-21T11:37:06.000Z</time>
      </trkpt>
      <trkpt lat="46.26952" lon="6.56498">
        <ele>1480.3</ele>
        <time>2023-01-21T11:37:07.000Z</time>
      </trkpt>
      <trkpt lat="46.26952" lon="6.56498">
        <ele>1480.3</ele>
        <time>2023-01-21T11:37:08.000Z</time>
      </trkpt>
      <trkpt lat="46.26952" lon="6.56498">
        <ele>1480.3</ele>
        <time>2023-01-21T11:37:09.000Z</time>
      </trkpt>
      <trkpt lat="46.26952" lon="6.56498">
        <ele>1480.3</ele>
        <time>2023-01-21T11:37:10.000Z</time>
      </trkpt>
      <trkpt lat="46.26952" lon="6.56498">
        <ele>1480.3</ele>
        <time>2023-01-21T11:37:11.000Z</time>
      </trkpt>
      <trkpt lat="46.26952" lon="6.56498">
        <ele>1480.3</ele>
        <time>2023-01-21T11:37:12.000Z</time>
      </trkpt>
      <trkpt lat="46.26952" lon="6.56498">
        <ele>1480.3</ele>
        <time>2023-01-21T11:37:13.000Z</time>
      </trkpt>
      <trkpt lat="46.26952" lon="6.56498">
        <ele>1480.3</ele>
        <time>2023-01-21T11:37:14.000Z</time>
      </trkpt>
      <trkpt lat="46.26952" lon="6.56498">
        <ele>1480.3</ele>
        <time>2023-01-21T11:37:15.000Z</time>
      </trkpt>
      <trkpt lat="46.26944" lon="6.56505">
        <ele>1480.8</ele>
        <time>2023-01-21T11:37:16.000Z</time>
      </trkpt>
      <trkpt lat="46.26944" lon="6.56506">
        <ele>1480.8</ele>
        <time>2023-01-21T11:37:17.000Z</time>
      </trkpt>
      <trkpt lat="46.26943" lon="6.56507">
        <ele>1480.8</ele>
        <time>2023-01-21T11:37:18.000Z</time>
      </trkpt>
      <trkpt lat="46.26942" lon="6.56508">
        <ele>1480.8</ele>
        <time>2023-01-21T11:37:19.000Z</time>
      </trkpt>
      <trkpt lat="46.26941" lon="6.5651">
        <ele>1480.8</ele>
        <time>2023-01-21T11:37:20.000Z</time>
      </trkpt>
      <trkpt lat="46.26941" lon="6.56512">
        <ele>1480.7</ele>
        <time>2023-01-21T11:37:21.000Z</time>
      </trkpt>
      <trkpt lat="46.2694" lon="6.56514">
        <ele>1480.6</ele>
        <time>2023-01-21T11:37:22.000Z</time>
      </trkpt>
      <trkpt lat="46.2694" lon="6.56516">
        <ele>1480.2</ele>
        <time>2023-01-21T11:37:23.000Z</time>
      </trkpt>
      <trkpt lat="46.26939" lon="6.56518">
        <ele>1479.7</ele>
        <time>2023-01-21T11:37:24.000Z</time>
      </trkpt>
      <trkpt lat="46.26938" lon="6.56519">
        <ele>1479.3</ele>
        <time>2023-01-21T11:37:25.000Z</time>
      </trkpt>
      <trkpt lat="46.26938" lon="6.5652">
        <ele>1478.8</ele>
        <time>2023-01-21T11:37:26.000Z</time>
      </trkpt>
      <trkpt lat="46.26937" lon="6.56522">
        <ele>1478.4</ele>
        <time>2023-01-21T11:37:27.000Z</time>
      </trkpt>
      <trkpt lat="46.26937" lon="6.56523">
        <ele>1478</ele>
        <time>2023-01-21T11:37:28.000Z</time>
      </trkpt>
      <trkpt lat="46.26937" lon="6.56523">
        <ele>1478</ele>
        <time>2023-01-21T11:37:29.000Z</time>
      </trkpt>
      <trkpt lat="46.26937" lon="6.56523">
        <ele>1478</ele>
        <time>2023-01-21T11:37:30.000Z</time>
      </trkpt>
      <trkpt lat="46.26937" lon="6.56523">
        <ele>1478</ele>
        <time>2023-01-21T11:37:31.000Z</time>
      </trkpt>
      <trkpt lat="46.26937" lon="6.56523">
        <ele>1478</ele>
        <time>2023-01-21T11:37:32.000Z</time>
      </trkpt>
      <trkpt lat="46.26937" lon="6.56523">
        <ele>1478</ele>
        <time>2023-01-21T11:37:33.000Z</time>
      </trkpt>
      <trkpt lat="46.26937" lon="6.56523">
        <ele>1478</ele>
        <time>2023-01-21T11:37:34.000Z</time>
      </trkpt>
      <trkpt lat="46.26937" lon="6.56523">
        <ele>1478</ele>
        <time>2023-01-21T11:37:35.000Z</time>
      </trkpt>
      <trkpt lat="46.26937" lon="6.56523">
        <ele>1478</ele>
        <time>2023-01-21T11:37:36.000Z</time>
      </trkpt>
      <trkpt lat="46.26937" lon="6.56523">
        <ele>1478</ele>
        <time>2023-01-21T11:37:37.000Z</time>
      </trkpt>
      <trkpt lat="46.26937" lon="6.56523">
        <ele>1478</ele>
        <time>2023-01-21T11:37:38.000Z</time>
      </trkpt>
      <trkpt lat="46.26937" lon="6.56523">
        <ele>1478</ele>
        <time>2023-01-21T11:37:39.000Z</time>
      </trkpt>
      <trkpt lat="46.26937" lon="6.56523">
        <ele>1478</ele>
        <time>2023-01-21T11:37:40.000Z</time>
      </trkpt>
      <trkpt lat="46.26937" lon="6.56523">
        <ele>1478</ele>
        <time>2023-01-21T11:37:41.000Z</time>
      </trkpt>
      <trkpt lat="46.26937" lon="6.56523">
        <ele>1478</ele>
        <time>2023-01-21T11:37:42.000Z</time>
      </trkpt>
      <trkpt lat="46.26929" lon="6.56528">
        <ele>1473.2</ele>
        <time>2023-01-21T11:37:43.000Z</time>
      </trkpt>
      <trkpt lat="46.26928" lon="6.56528">
        <ele>1473.1</ele>
        <time>2023-01-21T11:37:44.000Z</time>
      </trkpt>
      <trkpt lat="46.26927" lon="6.56528">
        <ele>1472.9</ele>
        <time>2023-01-21T11:37:45.000Z</time>
      </trkpt>
      <trkpt lat="46.26927" lon="6.56528">
        <ele>1472.8</ele>
        <time>2023-01-21T11:37:46.000Z</time>
      </trkpt>
      <trkpt lat="46.26927" lon="6.56528">
        <ele>1472.8</ele>
        <time>2023-01-21T11:37:47.000Z</time>
      </trkpt>
      <trkpt lat="46.26927" lon="6.56528">
        <ele>1472.8</ele>
        <time>2023-01-21T11:37:48.000Z</time>
      </trkpt>
      <trkpt lat="46.26927" lon="6.56528">
        <ele>1472.8</ele>
        <time>2023-01-21T11:37:49.000Z</time>
      </trkpt>
      <trkpt lat="46.26927" lon="6.56528">
        <ele>1472.8</ele>
        <time>2023-01-21T11:37:50.000Z</time>
      </trkpt>
      <trkpt lat="46.26927" lon="6.56528">
        <ele>1472.8</ele>
        <time>2023-01-21T11:37:51.000Z</time>
      </trkpt>
      <trkpt lat="46.26927" lon="6.56528">
        <ele>1472.8</ele>
        <time>2023-01-21T11:37:52.000Z</time>
      </trkpt>
      <trkpt lat="46.26927" lon="6.56528">
        <ele>1472.8</ele>
        <time>2023-01-21T11:37:53.000Z</time>
      </trkpt>
      <trkpt lat="46.26927" lon="6.56528">
        <ele>1472.8</ele>
        <time>2023-01-21T11:37:54.000Z</time>
      </trkpt>
      <trkpt lat="46.26927" lon="6.56528">
        <ele>1472.8</ele>
        <time>2023-01-21T11:37:55.000Z</time>
      </trkpt>
      <trkpt lat="46.26917" lon="6.56528">
        <ele>1472.5</ele>
        <time>2023-01-21T11:37:56.000Z</time>
      </trkpt>
      <trkpt lat="46.26916" lon="6.56529">
        <ele>1473</ele>
        <time>2023-01-21T11:37:57.000Z</time>
      </trkpt>
      <trkpt lat="46.26914" lon="6.56529">
        <ele>1473.2</ele>
        <time>2023-01-21T11:37:58.000Z</time>
      </trkpt>
      <trkpt lat="46.26913" lon="6.56529">
        <ele>1473.6</ele>
        <time>2023-01-21T11:37:59.000Z</time>
      </trkpt>
      <trkpt lat="46.26913" lon="6.56529">
        <ele>1473.6</ele>
        <time>2023-01-21T11:38:00.000Z</time>
      </trkpt>
      <trkpt lat="46.26913" lon="6.56529">
        <ele>1473.6</ele>
        <time>2023-01-21T11:38:01.000Z</time>
      </trkpt>
      <trkpt lat="46.26913" lon="6.56529">
        <ele>1473.6</ele>
        <time>2023-01-21T11:38:02.000Z</time>
      </trkpt>
      <trkpt lat="46.26913" lon="6.56529">
        <ele>1473.6</ele>
        <time>2023-01-21T11:38:03.000Z</time>
      </trkpt>
      <trkpt lat="46.26913" lon="6.56529">
        <ele>1473.6</ele>
        <time>2023-01-21T11:38:04.000Z</time>
      </trkpt>
      <trkpt lat="46.26913" lon="6.56529">
        <ele>1473.6</ele>
        <time>2023-01-21T11:38:05.000Z</time>
      </trkpt>
      <trkpt lat="46.26913" lon="6.56529">
        <ele>1473.6</ele>
        <time>2023-01-21T11:38:06.000Z</time>
      </trkpt>
      <trkpt lat="46.26913" lon="6.56529">
        <ele>1473.6</ele>
        <time>2023-01-21T11:38:07.000Z</time>
      </trkpt>
      <trkpt lat="46.26913" lon="6.56529">
        <ele>1473.6</ele>
        <time>2023-01-21T11:38:08.000Z</time>
      </trkpt>
      <trkpt lat="46.26913" lon="6.56529">
        <ele>1473.6</ele>
        <time>2023-01-21T11:38:09.000Z</time>
      </trkpt>
      <trkpt lat="46.26913" lon="6.56529">
        <ele>1473.6</ele>
        <time>2023-01-21T11:38:10.000Z</time>
      </trkpt>
      <trkpt lat="46.26913" lon="6.56529">
        <ele>1473.6</ele>
        <time>2023-01-21T11:38:11.000Z</time>
      </trkpt>
      <trkpt lat="46.26903" lon="6.56529">
        <ele>1476</ele>
        <time>2023-01-21T11:38:12.000Z</time>
      </trkpt>
      <trkpt lat="46.26902" lon="6.56529">
        <ele>1475.9</ele>
        <time>2023-01-21T11:38:13.000Z</time>
      </trkpt>
      <trkpt lat="46.26902" lon="6.5653">
        <ele>1475.9</ele>
        <time>2023-01-21T11:38:14.000Z</time>
      </trkpt>
      <trkpt lat="46.26901" lon="6.5653">
        <ele>1476</ele>
        <time>2023-01-21T11:38:15.000Z</time>
      </trkpt>
      <trkpt lat="46.26901" lon="6.5653">
        <ele>1476</ele>
        <time>2023-01-21T11:38:16.000Z</time>
      </trkpt>
      <trkpt lat="46.26901" lon="6.5653">
        <ele>1476</ele>
        <time>2023-01-21T11:38:17.000Z</time>
      </trkpt>
      <trkpt lat="46.26901" lon="6.5653">
        <ele>1476</ele>
        <time>2023-01-21T11:38:18.000Z</time>
      </trkpt>
      <trkpt lat="46.26901" lon="6.5653">
        <ele>1476</ele>
        <time>2023-01-21T11:38:19.000Z</time>
      </trkpt>
      <trkpt lat="46.26901" lon="6.5653">
        <ele>1476</ele>
        <time>2023-01-21T11:38:20.000Z</time>
      </trkpt>
      <trkpt lat="46.26901" lon="6.5653">
        <ele>1476</ele>
        <time>2023-01-21T11:38:21.000Z</time>
      </trkpt>
      <trkpt lat="46.26901" lon="6.5653">
        <ele>1476</ele>
        <time>2023-01-21T11:38:22.000Z</time>
      </trkpt>
      <trkpt lat="46.26901" lon="6.5653">
        <ele>1476</ele>
        <time>2023-01-21T11:38:23.000Z</time>
      </trkpt>
      <trkpt lat="46.26901" lon="6.5653">
        <ele>1476</ele>
        <time>2023-01-21T11:38:24.000Z</time>
      </trkpt>
      <trkpt lat="46.26901" lon="6.5653">
        <ele>1476</ele>
        <time>2023-01-21T11:38:25.000Z</time>
      </trkpt>
      <trkpt lat="46.26901" lon="6.5653">
        <ele>1476</ele>
        <time>2023-01-21T11:38:26.000Z</time>
      </trkpt>
      <trkpt lat="46.26901" lon="6.5653">
        <ele>1476</ele>
        <time>2023-01-21T11:38:27.000Z</time>
      </trkpt>
      <trkpt lat="46.26901" lon="6.5653">
        <ele>1476</ele>
        <time>2023-01-21T11:38:28.000Z</time>
      </trkpt>
      <trkpt lat="46.26901" lon="6.5653">
        <ele>1476</ele>
        <time>2023-01-21T11:38:29.000Z</time>
      </trkpt>
      <trkpt lat="46.26901" lon="6.5653">
        <ele>1479.5</ele>
        <time>2023-01-21T11:38:30.000Z</time>
      </trkpt>
      <trkpt lat="46.26901" lon="6.5653">
        <ele>1479.5</ele>
        <time>2023-01-21T11:38:31.000Z</time>
      </trkpt>
      <trkpt lat="46.26901" lon="6.5653">
        <ele>1479.5</ele>
        <time>2023-01-21T11:38:32.000Z</time>
      </trkpt>
      <trkpt lat="46.26901" lon="6.5653">
        <ele>1479.5</ele>
        <time>2023-01-21T11:38:33.000Z</time>
      </trkpt>
      <trkpt lat="46.26901" lon="6.5653">
        <ele>1479.5</ele>
        <time>2023-01-21T11:38:34.000Z</time>
      </trkpt>
      <trkpt lat="46.26901" lon="6.5653">
        <ele>1479.5</ele>
        <time>2023-01-21T11:38:35.000Z</time>
      </trkpt>
      <trkpt lat="46.26901" lon="6.5653">
        <ele>1479.5</ele>
        <time>2023-01-21T11:38:36.000Z</time>
      </trkpt>
      <trkpt lat="46.26901" lon="6.5653">
        <ele>1479.5</ele>
        <time>2023-01-21T11:38:37.000Z</time>
      </trkpt>
      <trkpt lat="46.26901" lon="6.5653">
        <ele>1479.5</ele>
        <time>2023-01-21T11:38:38.000Z</time>
      </trkpt>
      <trkpt lat="46.26901" lon="6.5653">
        <ele>1479.5</ele>
        <time>2023-01-21T11:38:39.000Z</time>
      </trkpt>
      <trkpt lat="46.26892" lon="6.56528">
        <ele>1481.9</ele>
        <time>2023-01-21T11:38:40.000Z</time>
      </trkpt>
      <trkpt lat="46.26891" lon="6.56529">
        <ele>1482</ele>
        <time>2023-01-21T11:38:41.000Z</time>
      </trkpt>
      <trkpt lat="46.26891" lon="6.56529">
        <ele>1482</ele>
        <time>2023-01-21T11:38:42.000Z</time>
      </trkpt>
      <trkpt lat="46.2689" lon="6.5653">
        <ele>1482.1</ele>
        <time>2023-01-21T11:38:43.000Z</time>
      </trkpt>
      <trkpt lat="46.2689" lon="6.5653">
        <ele>1482.1</ele>
        <time>2023-01-21T11:38:44.000Z</time>
      </trkpt>
      <trkpt lat="46.2689" lon="6.5653">
        <ele>1482.1</ele>
        <time>2023-01-21T11:38:45.000Z</time>
      </trkpt>
      <trkpt lat="46.2689" lon="6.5653">
        <ele>1482.1</ele>
        <time>2023-01-21T11:38:46.000Z</time>
      </trkpt>
      <trkpt lat="46.2689" lon="6.5653">
        <ele>1482.1</ele>
        <time>2023-01-21T11:38:47.000Z</time>
      </trkpt>
      <trkpt lat="46.2689" lon="6.5653">
        <ele>1482.1</ele>
        <time>2023-01-21T11:38:48.000Z</time>
      </trkpt>
      <trkpt lat="46.2689" lon="6.5653">
        <ele>1482.1</ele>
        <time>2023-01-21T11:38:49.000Z</time>
      </trkpt>
      <trkpt lat="46.2689" lon="6.5653">
        <ele>1482.1</ele>
        <time>2023-01-21T11:38:50.000Z</time>
      </trkpt>
      <trkpt lat="46.2689" lon="6.5653">
        <ele>1482.1</ele>
        <time>2023-01-21T11:38:51.000Z</time>
      </trkpt>
      <trkpt lat="46.2689" lon="6.5653">
        <ele>1482.1</ele>
        <time>2023-01-21T11:38:52.000Z</time>
      </trkpt>
      <trkpt lat="46.2689" lon="6.5653">
        <ele>1482.1</ele>
        <time>2023-01-21T11:38:53.000Z</time>
      </trkpt>
      <trkpt lat="46.26881" lon="6.56527">
        <ele>1484.3</ele>
        <time>2023-01-21T11:38:54.000Z</time>
      </trkpt>
      <trkpt lat="46.26881" lon="6.56527">
        <ele>1484.4</ele>
        <time>2023-01-21T11:38:55.000Z</time>
      </trkpt>
      <trkpt lat="46.2688" lon="6.56526">
        <ele>1484.6</ele>
        <time>2023-01-21T11:38:56.000Z</time>
      </trkpt>
      <trkpt lat="46.26879" lon="6.56526">
        <ele>1485</ele>
        <time>2023-01-21T11:38:57.000Z</time>
      </trkpt>
      <trkpt lat="46.26878" lon="6.56526">
        <ele>1485.3</ele>
        <time>2023-01-21T11:38:58.000Z</time>
      </trkpt>
      <trkpt lat="46.26877" lon="6.56525">
        <ele>1485.5</ele>
        <time>2023-01-21T11:38:59.000Z</time>
      </trkpt>
      <trkpt lat="46.26875" lon="6.56524">
        <ele>1486.1</ele>
        <time>2023-01-21T11:39:00.000Z</time>
      </trkpt>
      <trkpt lat="46.26874" lon="6.56522">
        <ele>1486.6</ele>
        <time>2023-01-21T11:39:01.000Z</time>
      </trkpt>
      <trkpt lat="46.26873" lon="6.56521">
        <ele>1487.1</ele>
        <time>2023-01-21T11:39:02.000Z</time>
      </trkpt>
      <trkpt lat="46.26872" lon="6.56521">
        <ele>1487.6</ele>
        <time>2023-01-21T11:39:03.000Z</time>
      </trkpt>
      <trkpt lat="46.26871" lon="6.5652">
        <ele>1488.1</ele>
        <time>2023-01-21T11:39:04.000Z</time>
      </trkpt>
      <trkpt lat="46.2687" lon="6.56518">
        <ele>1488.6</ele>
        <time>2023-01-21T11:39:05.000Z</time>
      </trkpt>
      <trkpt lat="46.26869" lon="6.56517">
        <ele>1489.4</ele>
        <time>2023-01-21T11:39:06.000Z</time>
      </trkpt>
      <trkpt lat="46.26868" lon="6.56516">
        <ele>1490.1</ele>
        <time>2023-01-21T11:39:07.000Z</time>
      </trkpt>
      <trkpt lat="46.26867" lon="6.56515">
        <ele>1490.6</ele>
        <time>2023-01-21T11:39:08.000Z</time>
      </trkpt>
      <trkpt lat="46.26867" lon="6.56515">
        <ele>1490.6</ele>
        <time>2023-01-21T11:39:09.000Z</time>
      </trkpt>
      <trkpt lat="46.26867" lon="6.56515">
        <ele>1490.6</ele>
        <time>2023-01-21T11:39:10.000Z</time>
      </trkpt>
      <trkpt lat="46.26867" lon="6.56515">
        <ele>1490.6</ele>
        <time>2023-01-21T11:39:11.000Z</time>
      </trkpt>
      <trkpt lat="46.26867" lon="6.56515">
        <ele>1490.6</ele>
        <time>2023-01-21T11:39:12.000Z</time>
      </trkpt>
      <trkpt lat="46.26867" lon="6.56515">
        <ele>1490.6</ele>
        <time>2023-01-21T11:39:13.000Z</time>
      </trkpt>
      <trkpt lat="46.26861" lon="6.5651">
        <ele>1493.8</ele>
        <time>2023-01-21T11:39:14.000Z</time>
      </trkpt>
      <trkpt lat="46.2686" lon="6.56508">
        <ele>1494.2</ele>
        <time>2023-01-21T11:39:15.000Z</time>
      </trkpt>
      <trkpt lat="46.26859" lon="6.56507">
        <ele>1494.8</ele>
        <time>2023-01-21T11:39:16.000Z</time>
      </trkpt>
      <trkpt lat="46.26857" lon="6.56506">
        <ele>1495.2</ele>
        <time>2023-01-21T11:39:17.000Z</time>
      </trkpt>
      <trkpt lat="46.26856" lon="6.56505">
        <ele>1495.7</ele>
        <time>2023-01-21T11:39:18.000Z</time>
      </trkpt>
      <trkpt lat="46.26854" lon="6.56504">
        <ele>1496.1</ele>
        <time>2023-01-21T11:39:19.000Z</time>
      </trkpt>
      <trkpt lat="46.26854" lon="6.56503">
        <ele>1496.3</ele>
        <time>2023-01-21T11:39:20.000Z</time>
      </trkpt>
      <trkpt lat="46.26853" lon="6.56504">
        <ele>1496.7</ele>
        <time>2023-01-21T11:39:21.000Z</time>
      </trkpt>
      <trkpt lat="46.26852" lon="6.56503">
        <ele>1496.9</ele>
        <time>2023-01-21T11:39:22.000Z</time>
      </trkpt>
      <trkpt lat="46.26851" lon="6.56503">
        <ele>1497.1</ele>
        <time>2023-01-21T11:39:23.000Z</time>
      </trkpt>
      <trkpt lat="46.2685" lon="6.56502">
        <ele>1497.5</ele>
        <time>2023-01-21T11:39:24.000Z</time>
      </trkpt>
      <trkpt lat="46.26848" lon="6.56502">
        <ele>1497.8</ele>
        <time>2023-01-21T11:39:25.000Z</time>
      </trkpt>
      <trkpt lat="46.26848" lon="6.56502">
        <ele>1498</ele>
        <time>2023-01-21T11:39:26.000Z</time>
      </trkpt>
      <trkpt lat="46.26847" lon="6.565">
        <ele>1498.3</ele>
        <time>2023-01-21T11:39:27.000Z</time>
      </trkpt>
      <trkpt lat="46.26847" lon="6.565">
        <ele>1498.3</ele>
        <time>2023-01-21T11:39:28.000Z</time>
      </trkpt>
      <trkpt lat="46.26847" lon="6.565">
        <ele>1498.3</ele>
        <time>2023-01-21T11:39:29.000Z</time>
      </trkpt>
      <trkpt lat="46.26847" lon="6.565">
        <ele>1498.3</ele>
        <time>2023-01-21T11:39:30.000Z</time>
      </trkpt>
      <trkpt lat="46.26843" lon="6.56497">
        <ele>1499.4</ele>
        <time>2023-01-21T11:39:31.000Z</time>
      </trkpt>
      <trkpt lat="46.26842" lon="6.56496">
        <ele>1499.5</ele>
        <time>2023-01-21T11:39:32.000Z</time>
      </trkpt>
      <trkpt lat="46.26841" lon="6.56495">
        <ele>1499.7</ele>
        <time>2023-01-21T11:39:33.000Z</time>
      </trkpt>
      <trkpt lat="46.2684" lon="6.56495">
        <ele>1499.9</ele>
        <time>2023-01-21T11:39:34.000Z</time>
      </trkpt>
      <trkpt lat="46.2684" lon="6.56495">
        <ele>1499.9</ele>
        <time>2023-01-21T11:39:35.000Z</time>
      </trkpt>
      <trkpt lat="46.2684" lon="6.56495">
        <ele>1499.9</ele>
        <time>2023-01-21T11:39:36.000Z</time>
      </trkpt>
      <trkpt lat="46.2684" lon="6.56495">
        <ele>1499.9</ele>
        <time>2023-01-21T11:39:37.000Z</time>
      </trkpt>
      <trkpt lat="46.2684" lon="6.56495">
        <ele>1499.9</ele>
        <time>2023-01-21T11:39:38.000Z</time>
      </trkpt>
      <trkpt lat="46.2684" lon="6.56495">
        <ele>1499.9</ele>
        <time>2023-01-21T11:39:39.000Z</time>
      </trkpt>
      <trkpt lat="46.2684" lon="6.56495">
        <ele>1499.9</ele>
        <time>2023-01-21T11:39:40.000Z</time>
      </trkpt>
      <trkpt lat="46.2684" lon="6.56495">
        <ele>1499.9</ele>
        <time>2023-01-21T11:39:41.000Z</time>
      </trkpt>
      <trkpt lat="46.2684" lon="6.56495">
        <ele>1499.9</ele>
        <time>2023-01-21T11:39:42.000Z</time>
      </trkpt>
      <trkpt lat="46.2684" lon="6.56495">
        <ele>1499.9</ele>
        <time>2023-01-21T11:39:43.000Z</time>
      </trkpt>
      <trkpt lat="46.2684" lon="6.56495">
        <ele>1499.9</ele>
        <time>2023-01-21T11:39:44.000Z</time>
      </trkpt>
      <trkpt lat="46.2684" lon="6.56495">
        <ele>1499.9</ele>
        <time>2023-01-21T11:39:45.000Z</time>
      </trkpt>
      <trkpt lat="46.26832" lon="6.56489">
        <ele>1501.6</ele>
        <time>2023-01-21T11:39:46.000Z</time>
      </trkpt>
      <trkpt lat="46.26831" lon="6.56488">
        <ele>1501.8</ele>
        <time>2023-01-21T11:39:47.000Z</time>
      </trkpt>
      <trkpt lat="46.2683" lon="6.56489">
        <ele>1501.9</ele>
        <time>2023-01-21T11:39:48.000Z</time>
      </trkpt>
      <trkpt lat="46.26829" lon="6.56488">
        <ele>1502.1</ele>
        <time>2023-01-21T11:39:49.000Z</time>
      </trkpt>
      <trkpt lat="46.26829" lon="6.56488">
        <ele>1502.1</ele>
        <time>2023-01-21T11:39:50.000Z</time>
      </trkpt>
      <trkpt lat="46.26826" lon="6.56487">
        <ele>1502.6</ele>
        <time>2023-01-21T11:39:51.000Z</time>
      </trkpt>
      <trkpt lat="46.26825" lon="6.56486">
        <ele>1502.8</ele>
        <time>2023-01-21T11:39:52.000Z</time>
      </trkpt>
      <trkpt lat="46.26824" lon="6.56485">
        <ele>1503</ele>
        <time>2023-01-21T11:39:53.000Z</time>
      </trkpt>
      <trkpt lat="46.26824" lon="6.56484">
        <ele>1503.1</ele>
        <time>2023-01-21T11:39:54.000Z</time>
      </trkpt>
      <trkpt lat="46.26824" lon="6.56484">
        <ele>1503.1</ele>
        <time>2023-01-21T11:39:55.000Z</time>
      </trkpt>
      <trkpt lat="46.26824" lon="6.56484">
        <ele>1503.1</ele>
        <time>2023-01-21T11:39:56.000Z</time>
      </trkpt>
      <trkpt lat="46.26824" lon="6.56484">
        <ele>1503.1</ele>
        <time>2023-01-21T11:39:57.000Z</time>
      </trkpt>
      <trkpt lat="46.26824" lon="6.56484">
        <ele>1503.1</ele>
        <time>2023-01-21T11:39:58.000Z</time>
      </trkpt>
      <trkpt lat="46.26824" lon="6.56484">
        <ele>1503.1</ele>
        <time>2023-01-21T11:39:59.000Z</time>
      </trkpt>
      <trkpt lat="46.26824" lon="6.56484">
        <ele>1503.1</ele>
        <time>2023-01-21T11:40:00.000Z</time>
      </trkpt>
      <trkpt lat="46.26824" lon="6.56484">
        <ele>1503.1</ele>
        <time>2023-01-21T11:40:01.000Z</time>
      </trkpt>
      <trkpt lat="46.26824" lon="6.56484">
        <ele>1503.1</ele>
        <time>2023-01-21T11:40:02.000Z</time>
      </trkpt>
      <trkpt lat="46.26824" lon="6.56484">
        <ele>1503.1</ele>
        <time>2023-01-21T11:40:03.000Z</time>
      </trkpt>
      <trkpt lat="46.26824" lon="6.56484">
        <ele>1503.1</ele>
        <time>2023-01-21T11:40:04.000Z</time>
      </trkpt>
      <trkpt lat="46.26824" lon="6.56484">
        <ele>1503.1</ele>
        <time>2023-01-21T11:40:05.000Z</time>
      </trkpt>
      <trkpt lat="46.26824" lon="6.56484">
        <ele>1503.1</ele>
        <time>2023-01-21T11:40:06.000Z</time>
      </trkpt>
      <trkpt lat="46.26824" lon="6.56484">
        <ele>1503.1</ele>
        <time>2023-01-21T11:40:07.000Z</time>
      </trkpt>
      <trkpt lat="46.26824" lon="6.56484">
        <ele>1503.1</ele>
        <time>2023-01-21T11:40:08.000Z</time>
      </trkpt>
      <trkpt lat="46.26824" lon="6.56484">
        <ele>1503.1</ele>
        <time>2023-01-21T11:40:09.000Z</time>
      </trkpt>
      <trkpt lat="46.26824" lon="6.56484">
        <ele>1503.1</ele>
        <time>2023-01-21T11:40:10.000Z</time>
      </trkpt>
      <trkpt lat="46.26824" lon="6.56484">
        <ele>1503.1</ele>
        <time>2023-01-21T11:40:11.000Z</time>
      </trkpt>
      <trkpt lat="46.26824" lon="6.56484">
        <ele>1503.1</ele>
        <time>2023-01-21T11:40:12.000Z</time>
      </trkpt>
      <trkpt lat="46.26824" lon="6.56484">
        <ele>1503.1</ele>
        <time>2023-01-21T11:40:13.000Z</time>
      </trkpt>
      <trkpt lat="46.26822" lon="6.56497">
        <ele>1505.3</ele>
        <time>2023-01-21T11:40:14.000Z</time>
      </trkpt>
      <trkpt lat="46.26823" lon="6.56498">
        <ele>1505.5</ele>
        <time>2023-01-21T11:40:15.000Z</time>
      </trkpt>
      <trkpt lat="46.26823" lon="6.56499">
        <ele>1505.5</ele>
        <time>2023-01-21T11:40:16.000Z</time>
      </trkpt>
      <trkpt lat="46.26823" lon="6.565">
        <ele>1505.4</ele>
        <time>2023-01-21T11:40:17.000Z</time>
      </trkpt>
      <trkpt lat="46.26823" lon="6.565">
        <ele>1505.4</ele>
        <time>2023-01-21T11:40:18.000Z</time>
      </trkpt>
      <trkpt lat="46.26823" lon="6.565">
        <ele>1505.4</ele>
        <time>2023-01-21T11:40:19.000Z</time>
      </trkpt>
      <trkpt lat="46.26823" lon="6.565">
        <ele>1505.4</ele>
        <time>2023-01-21T11:40:20.000Z</time>
      </trkpt>
      <trkpt lat="46.26823" lon="6.565">
        <ele>1505.4</ele>
        <time>2023-01-21T11:40:21.000Z</time>
      </trkpt>
      <trkpt lat="46.26823" lon="6.565">
        <ele>1505.4</ele>
        <time>2023-01-21T11:40:22.000Z</time>
      </trkpt>
      <trkpt lat="46.26823" lon="6.565">
        <ele>1505.4</ele>
        <time>2023-01-21T11:40:23.000Z</time>
      </trkpt>
      <trkpt lat="46.26823" lon="6.565">
        <ele>1505.4</ele>
        <time>2023-01-21T11:40:24.000Z</time>
      </trkpt>
      <trkpt lat="46.26827" lon="6.56511">
        <ele>1503.1</ele>
        <time>2023-01-21T11:40:25.000Z</time>
      </trkpt>
      <trkpt lat="46.26827" lon="6.56511">
        <ele>1503</ele>
        <time>2023-01-21T11:40:26.000Z</time>
      </trkpt>
      <trkpt lat="46.26829" lon="6.56515">
        <ele>1502.6</ele>
        <time>2023-01-21T11:40:27.000Z</time>
      </trkpt>
      <trkpt lat="46.2683" lon="6.5652">
        <ele>1502.4</ele>
        <time>2023-01-21T11:40:28.000Z</time>
      </trkpt>
      <trkpt lat="46.26831" lon="6.56518">
        <ele>1501.7</ele>
        <time>2023-01-21T11:40:29.000Z</time>
      </trkpt>
      <trkpt lat="46.26831" lon="6.56517">
        <ele>1501.4</ele>
        <time>2023-01-21T11:40:30.000Z</time>
      </trkpt>
      <trkpt lat="46.26832" lon="6.56516">
        <ele>1501.4</ele>
        <time>2023-01-21T11:40:31.000Z</time>
      </trkpt>
      <trkpt lat="46.26832" lon="6.56516">
        <ele>1501.3</ele>
        <time>2023-01-21T11:40:32.000Z</time>
      </trkpt>
      <trkpt lat="46.26832" lon="6.56516">
        <ele>1501.3</ele>
        <time>2023-01-21T11:40:33.000Z</time>
      </trkpt>
      <trkpt lat="46.26832" lon="6.56516">
        <ele>1501.3</ele>
        <time>2023-01-21T11:40:34.000Z</time>
      </trkpt>
      <trkpt lat="46.26832" lon="6.56516">
        <ele>1501.3</ele>
        <time>2023-01-21T11:40:35.000Z</time>
      </trkpt>
      <trkpt lat="46.26832" lon="6.56516">
        <ele>1501.3</ele>
        <time>2023-01-21T11:40:36.000Z</time>
      </trkpt>
      <trkpt lat="46.26832" lon="6.56516">
        <ele>1501.3</ele>
        <time>2023-01-21T11:40:37.000Z</time>
      </trkpt>
      <trkpt lat="46.26832" lon="6.56516">
        <ele>1501.3</ele>
        <time>2023-01-21T11:40:38.000Z</time>
      </trkpt>
      <trkpt lat="46.26832" lon="6.56516">
        <ele>1501.3</ele>
        <time>2023-01-21T11:40:39.000Z</time>
      </trkpt>
      <trkpt lat="46.26832" lon="6.56516">
        <ele>1501.3</ele>
        <time>2023-01-21T11:40:40.000Z</time>
      </trkpt>
      <trkpt lat="46.26832" lon="6.56516">
        <ele>1501.3</ele>
        <time>2023-01-21T11:40:41.000Z</time>
      </trkpt>
      <trkpt lat="46.26832" lon="6.56516">
        <ele>1501.3</ele>
        <time>2023-01-21T11:40:42.000Z</time>
      </trkpt>
      <trkpt lat="46.26832" lon="6.56516">
        <ele>1501.3</ele>
        <time>2023-01-21T11:40:43.000Z</time>
      </trkpt>
      <trkpt lat="46.26839" lon="6.56525">
        <ele>1496.7</ele>
        <time>2023-01-21T11:40:44.000Z</time>
      </trkpt>
      <trkpt lat="46.2684" lon="6.56524">
        <ele>1496.3</ele>
        <time>2023-01-21T11:40:45.000Z</time>
      </trkpt>
      <trkpt lat="46.26841" lon="6.56525">
        <ele>1496</ele>
        <time>2023-01-21T11:40:46.000Z</time>
      </trkpt>
      <trkpt lat="46.26841" lon="6.56526">
        <ele>1495.7</ele>
        <time>2023-01-21T11:40:47.000Z</time>
      </trkpt>
      <trkpt lat="46.26841" lon="6.56526">
        <ele>1495.7</ele>
        <time>2023-01-21T11:40:48.000Z</time>
      </trkpt>
      <trkpt lat="46.26843" lon="6.56526">
        <ele>1495.4</ele>
        <time>2023-01-21T11:40:49.000Z</time>
      </trkpt>
      <trkpt lat="46.26845" lon="6.56526">
        <ele>1495.9</ele>
        <time>2023-01-21T11:40:50.000Z</time>
      </trkpt>
      <trkpt lat="46.26846" lon="6.56526">
        <ele>1496.4</ele>
        <time>2023-01-21T11:40:51.000Z</time>
      </trkpt>
      <trkpt lat="46.26847" lon="6.56526">
        <ele>1496.9</ele>
        <time>2023-01-21T11:40:52.000Z</time>
      </trkpt>
      <trkpt lat="46.26848" lon="6.56526">
        <ele>1497.7</ele>
        <time>2023-01-21T11:40:53.000Z</time>
      </trkpt>
      <trkpt lat="46.2685" lon="6.56527">
        <ele>1498.5</ele>
        <time>2023-01-21T11:40:54.000Z</time>
      </trkpt>
      <trkpt lat="46.26851" lon="6.56528">
        <ele>1499.3</ele>
        <time>2023-01-21T11:40:55.000Z</time>
      </trkpt>
      <trkpt lat="46.26851" lon="6.56527">
        <ele>1500.3</ele>
        <time>2023-01-21T11:40:56.000Z</time>
      </trkpt>
      <trkpt lat="46.26852" lon="6.56526">
        <ele>1501.3</ele>
        <time>2023-01-21T11:40:57.000Z</time>
      </trkpt>
      <trkpt lat="46.26853" lon="6.56525">
        <ele>1502.1</ele>
        <time>2023-01-21T11:40:58.000Z</time>
      </trkpt>
      <trkpt lat="46.26854" lon="6.56526">
        <ele>1503.1</ele>
        <time>2023-01-21T11:40:59.000Z</time>
      </trkpt>
      <trkpt lat="46.26854" lon="6.56526">
        <ele>1504.1</ele>
        <time>2023-01-21T11:41:00.000Z</time>
      </trkpt>
      <trkpt lat="46.26854" lon="6.56527">
        <ele>1504.9</ele>
        <time>2023-01-21T11:41:01.000Z</time>
      </trkpt>
      <trkpt lat="46.26855" lon="6.56529">
        <ele>1505.8</ele>
        <time>2023-01-21T11:41:02.000Z</time>
      </trkpt>
      <trkpt lat="46.26856" lon="6.56528">
        <ele>1506.5</ele>
        <time>2023-01-21T11:41:03.000Z</time>
      </trkpt>
      <trkpt lat="46.26856" lon="6.56528">
        <ele>1507.3</ele>
        <time>2023-01-21T11:41:04.000Z</time>
      </trkpt>
      <trkpt lat="46.26857" lon="6.56529">
        <ele>1508</ele>
        <time>2023-01-21T11:41:05.000Z</time>
      </trkpt>
      <trkpt lat="46.26857" lon="6.5653">
        <ele>1508.7</ele>
        <time>2023-01-21T11:41:06.000Z</time>
      </trkpt>
      <trkpt lat="46.26858" lon="6.56533">
        <ele>1509.1</ele>
        <time>2023-01-21T11:41:07.000Z</time>
      </trkpt>
      <trkpt lat="46.26859" lon="6.56533">
        <ele>1509.8</ele>
        <time>2023-01-21T11:41:08.000Z</time>
      </trkpt>
      <trkpt lat="46.26859" lon="6.56533">
        <ele>1509.8</ele>
        <time>2023-01-21T11:41:09.000Z</time>
      </trkpt>
      <trkpt lat="46.26859" lon="6.56533">
        <ele>1509.8</ele>
        <time>2023-01-21T11:41:10.000Z</time>
      </trkpt>
      <trkpt lat="46.26859" lon="6.56533">
        <ele>1509.8</ele>
        <time>2023-01-21T11:41:11.000Z</time>
      </trkpt>
      <trkpt lat="46.26859" lon="6.56533">
        <ele>1509.8</ele>
        <time>2023-01-21T11:41:12.000Z</time>
      </trkpt>
      <trkpt lat="46.26859" lon="6.56533">
        <ele>1509.8</ele>
        <time>2023-01-21T11:41:13.000Z</time>
      </trkpt>
      <trkpt lat="46.26859" lon="6.56533">
        <ele>1509.8</ele>
        <time>2023-01-21T11:41:14.000Z</time>
      </trkpt>
      <trkpt lat="46.26859" lon="6.56533">
        <ele>1509.8</ele>
        <time>2023-01-21T11:41:15.000Z</time>
      </trkpt>
      <trkpt lat="46.26859" lon="6.56533">
        <ele>1509.8</ele>
        <time>2023-01-21T11:41:16.000Z</time>
      </trkpt>
      <trkpt lat="46.26859" lon="6.56533">
        <ele>1509.8</ele>
        <time>2023-01-21T11:41:17.000Z</time>
      </trkpt>
      <trkpt lat="46.26859" lon="6.56533">
        <ele>1509.8</ele>
        <time>2023-01-21T11:41:18.000Z</time>
      </trkpt>
      <trkpt lat="46.26859" lon="6.56533">
        <ele>1509.8</ele>
        <time>2023-01-21T11:41:19.000Z</time>
      </trkpt>
      <trkpt lat="46.26866" lon="6.56541">
        <ele>1512.7</ele>
        <time>2023-01-21T11:41:20.000Z</time>
      </trkpt>
      <trkpt lat="46.26866" lon="6.56541">
        <ele>1513</ele>
        <time>2023-01-21T11:41:21.000Z</time>
      </trkpt>
      <trkpt lat="46.26867" lon="6.56542">
        <ele>1513.1</ele>
        <time>2023-01-21T11:41:22.000Z</time>
      </trkpt>
      <trkpt lat="46.26868" lon="6.56542">
        <ele>1513.1</ele>
        <time>2023-01-21T11:41:23.000Z</time>
      </trkpt>
      <trkpt lat="46.26869" lon="6.56543">
        <ele>1513.3</ele>
        <time>2023-01-21T11:41:24.000Z</time>
      </trkpt>
      <trkpt lat="46.26869" lon="6.56543">
        <ele>1513.2</ele>
        <time>2023-01-21T11:41:25.000Z</time>
      </trkpt>
      <trkpt lat="46.26869" lon="6.56543">
        <ele>1513.2</ele>
        <time>2023-01-21T11:41:26.000Z</time>
      </trkpt>
      <trkpt lat="46.26869" lon="6.56543">
        <ele>1513.2</ele>
        <time>2023-01-21T11:41:27.000Z</time>
      </trkpt>
      <trkpt lat="46.26869" lon="6.56543">
        <ele>1513.2</ele>
        <time>2023-01-21T11:41:28.000Z</time>
      </trkpt>
      <trkpt lat="46.26869" lon="6.56543">
        <ele>1513.2</ele>
        <time>2023-01-21T11:41:29.000Z</time>
      </trkpt>
      <trkpt lat="46.26869" lon="6.56543">
        <ele>1513.2</ele>
        <time>2023-01-21T11:41:30.000Z</time>
      </trkpt>
      <trkpt lat="46.26869" lon="6.56543">
        <ele>1513.2</ele>
        <time>2023-01-21T11:41:31.000Z</time>
      </trkpt>
      <trkpt lat="46.26869" lon="6.56543">
        <ele>1513.2</ele>
        <time>2023-01-21T11:41:32.000Z</time>
      </trkpt>
      <trkpt lat="46.26869" lon="6.56543">
        <ele>1513.2</ele>
        <time>2023-01-21T11:41:33.000Z</time>
      </trkpt>
      <trkpt lat="46.26875" lon="6.56553">
        <ele>1512.5</ele>
        <time>2023-01-21T11:41:34.000Z</time>
      </trkpt>
      <trkpt lat="46.26875" lon="6.56554">
        <ele>1512.5</ele>
        <time>2023-01-21T11:41:35.000Z</time>
      </trkpt>
      <trkpt lat="46.26876" lon="6.56555">
        <ele>1512.4</ele>
        <time>2023-01-21T11:41:36.000Z</time>
      </trkpt>
      <trkpt lat="46.26877" lon="6.56556">
        <ele>1512.4</ele>
        <time>2023-01-21T11:41:37.000Z</time>
      </trkpt>
      <trkpt lat="46.26877" lon="6.56556">
        <ele>1512.4</ele>
        <time>2023-01-21T11:41:38.000Z</time>
      </trkpt>
      <trkpt lat="46.26877" lon="6.56556">
        <ele>1512.4</ele>
        <time>2023-01-21T11:41:39.000Z</time>
      </trkpt>
      <trkpt lat="46.26877" lon="6.56556">
        <ele>1512.4</ele>
        <time>2023-01-21T11:41:40.000Z</time>
      </trkpt>
      <trkpt lat="46.26877" lon="6.56556">
        <ele>1512.4</ele>
        <time>2023-01-21T11:41:41.000Z</time>
      </trkpt>
      <trkpt lat="46.26877" lon="6.56556">
        <ele>1512.4</ele>
        <time>2023-01-21T11:41:42.000Z</time>
      </trkpt>
      <trkpt lat="46.26877" lon="6.56556">
        <ele>1512.4</ele>
        <time>2023-01-21T11:41:43.000Z</time>
      </trkpt>
      <trkpt lat="46.26877" lon="6.56556">
        <ele>1512.4</ele>
        <time>2023-01-21T11:41:44.000Z</time>
      </trkpt>
      <trkpt lat="46.26877" lon="6.56556">
        <ele>1512.4</ele>
        <time>2023-01-21T11:41:45.000Z</time>
      </trkpt>
      <trkpt lat="46.26877" lon="6.56556">
        <ele>1512.4</ele>
        <time>2023-01-21T11:41:46.000Z</time>
      </trkpt>
      <trkpt lat="46.26877" lon="6.56556">
        <ele>1512.4</ele>
        <time>2023-01-21T11:41:47.000Z</time>
      </trkpt>
      <trkpt lat="46.26884" lon="6.56563">
        <ele>1511.7</ele>
        <time>2023-01-21T11:41:48.000Z</time>
      </trkpt>
      <trkpt lat="46.26885" lon="6.56563">
        <ele>1511.9</ele>
        <time>2023-01-21T11:41:49.000Z</time>
      </trkpt>
      <trkpt lat="46.26886" lon="6.56564">
        <ele>1511.9</ele>
        <time>2023-01-21T11:41:50.000Z</time>
      </trkpt>
      <trkpt lat="46.26886" lon="6.56565">
        <ele>1511.8</ele>
        <time>2023-01-21T11:41:51.000Z</time>
      </trkpt>
      <trkpt lat="46.26886" lon="6.56565">
        <ele>1511.8</ele>
        <time>2023-01-21T11:41:52.000Z</time>
      </trkpt>
      <trkpt lat="46.26886" lon="6.56565">
        <ele>1511.8</ele>
        <time>2023-01-21T11:41:53.000Z</time>
      </trkpt>
      <trkpt lat="46.26886" lon="6.56565">
        <ele>1511.8</ele>
        <time>2023-01-21T11:41:54.000Z</time>
      </trkpt>
      <trkpt lat="46.26886" lon="6.56565">
        <ele>1511.8</ele>
        <time>2023-01-21T11:41:55.000Z</time>
      </trkpt>
      <trkpt lat="46.26886" lon="6.56565">
        <ele>1511.8</ele>
        <time>2023-01-21T11:41:56.000Z</time>
      </trkpt>
      <trkpt lat="46.26886" lon="6.56565">
        <ele>1511.8</ele>
        <time>2023-01-21T11:41:57.000Z</time>
      </trkpt>
      <trkpt lat="46.26886" lon="6.56565">
        <ele>1511.8</ele>
        <time>2023-01-21T11:41:58.000Z</time>
      </trkpt>
      <trkpt lat="46.26886" lon="6.56565">
        <ele>1511.8</ele>
        <time>2023-01-21T11:41:59.000Z</time>
      </trkpt>
      <trkpt lat="46.26886" lon="6.56565">
        <ele>1511.8</ele>
        <time>2023-01-21T11:42:00.000Z</time>
      </trkpt>
      <trkpt lat="46.26886" lon="6.56565">
        <ele>1511.8</ele>
        <time>2023-01-21T11:42:01.000Z</time>
      </trkpt>
      <trkpt lat="46.26886" lon="6.56565">
        <ele>1511.8</ele>
        <time>2023-01-21T11:42:02.000Z</time>
      </trkpt>
      <trkpt lat="46.26891" lon="6.56576">
        <ele>1511.5</ele>
        <time>2023-01-21T11:42:03.000Z</time>
      </trkpt>
      <trkpt lat="46.26891" lon="6.56577">
        <ele>1511.4</ele>
        <time>2023-01-21T11:42:04.000Z</time>
      </trkpt>
      <trkpt lat="46.26891" lon="6.56578">
        <ele>1511.3</ele>
        <time>2023-01-21T11:42:05.000Z</time>
      </trkpt>
      <trkpt lat="46.26891" lon="6.56578">
        <ele>1511.1</ele>
        <time>2023-01-21T11:42:06.000Z</time>
      </trkpt>
      <trkpt lat="46.26891" lon="6.56578">
        <ele>1511.1</ele>
        <time>2023-01-21T11:42:07.000Z</time>
      </trkpt>
      <trkpt lat="46.26891" lon="6.56578">
        <ele>1511.1</ele>
        <time>2023-01-21T11:42:08.000Z</time>
      </trkpt>
      <trkpt lat="46.26891" lon="6.56578">
        <ele>1511.1</ele>
        <time>2023-01-21T11:42:09.000Z</time>
      </trkpt>
      <trkpt lat="46.26891" lon="6.56578">
        <ele>1511.1</ele>
        <time>2023-01-21T11:42:10.000Z</time>
      </trkpt>
      <trkpt lat="46.26891" lon="6.56578">
        <ele>1511.1</ele>
        <time>2023-01-21T11:42:11.000Z</time>
      </trkpt>
      <trkpt lat="46.26891" lon="6.56578">
        <ele>1511.1</ele>
        <time>2023-01-21T11:42:12.000Z</time>
      </trkpt>
      <trkpt lat="46.26891" lon="6.56578">
        <ele>1511.1</ele>
        <time>2023-01-21T11:42:13.000Z</time>
      </trkpt>
      <trkpt lat="46.26891" lon="6.56578">
        <ele>1511.1</ele>
        <time>2023-01-21T11:42:14.000Z</time>
      </trkpt>
      <trkpt lat="46.26891" lon="6.56578">
        <ele>1511.1</ele>
        <time>2023-01-21T11:42:15.000Z</time>
      </trkpt>
      <trkpt lat="46.26891" lon="6.56578">
        <ele>1511.1</ele>
        <time>2023-01-21T11:42:16.000Z</time>
      </trkpt>
      <trkpt lat="46.26891" lon="6.56578">
        <ele>1511.1</ele>
        <time>2023-01-21T11:42:17.000Z</time>
      </trkpt>
      <trkpt lat="46.26891" lon="6.56578">
        <ele>1511.1</ele>
        <time>2023-01-21T11:42:18.000Z</time>
      </trkpt>
      <trkpt lat="46.26891" lon="6.56578">
        <ele>1511.1</ele>
        <time>2023-01-21T11:42:19.000Z</time>
      </trkpt>
      <trkpt lat="46.26891" lon="6.56578">
        <ele>1511.1</ele>
        <time>2023-01-21T11:42:20.000Z</time>
      </trkpt>
      <trkpt lat="46.26891" lon="6.56578">
        <ele>1511.1</ele>
        <time>2023-01-21T11:42:21.000Z</time>
      </trkpt>
      <trkpt lat="46.26891" lon="6.56578">
        <ele>1511.1</ele>
        <time>2023-01-21T11:42:22.000Z</time>
      </trkpt>
      <trkpt lat="46.26891" lon="6.56578">
        <ele>1511.1</ele>
        <time>2023-01-21T11:42:23.000Z</time>
      </trkpt>
      <trkpt lat="46.26891" lon="6.56578">
        <ele>1511.1</ele>
        <time>2023-01-21T11:42:24.000Z</time>
      </trkpt>
      <trkpt lat="46.26891" lon="6.56578">
        <ele>1511.1</ele>
        <time>2023-01-21T11:42:25.000Z</time>
      </trkpt>
      <trkpt lat="46.26898" lon="6.56587">
        <ele>1511.8</ele>
        <time>2023-01-21T11:42:26.000Z</time>
      </trkpt>
      <trkpt lat="46.26899" lon="6.56587">
        <ele>1511.8</ele>
        <time>2023-01-21T11:42:27.000Z</time>
      </trkpt>
      <trkpt lat="46.269" lon="6.56588">
        <ele>1511.9</ele>
        <time>2023-01-21T11:42:28.000Z</time>
      </trkpt>
      <trkpt lat="46.26901" lon="6.56588">
        <ele>1512.2</ele>
        <time>2023-01-21T11:42:29.000Z</time>
      </trkpt>
      <trkpt lat="46.26901" lon="6.56588">
        <ele>1512.2</ele>
        <time>2023-01-21T11:42:30.000Z</time>
      </trkpt>
      <trkpt lat="46.26901" lon="6.56588">
        <ele>1512.2</ele>
        <time>2023-01-21T11:42:31.000Z</time>
      </trkpt>
      <trkpt lat="46.26901" lon="6.56588">
        <ele>1512.2</ele>
        <time>2023-01-21T11:42:32.000Z</time>
      </trkpt>
      <trkpt lat="46.26901" lon="6.56588">
        <ele>1512.2</ele>
        <time>2023-01-21T11:42:33.000Z</time>
      </trkpt>
      <trkpt lat="46.26901" lon="6.56588">
        <ele>1512.2</ele>
        <time>2023-01-21T11:42:34.000Z</time>
      </trkpt>
      <trkpt lat="46.26901" lon="6.56588">
        <ele>1512.2</ele>
        <time>2023-01-21T11:42:35.000Z</time>
      </trkpt>
      <trkpt lat="46.26901" lon="6.56588">
        <ele>1512.2</ele>
        <time>2023-01-21T11:42:36.000Z</time>
      </trkpt>
      <trkpt lat="46.26901" lon="6.56588">
        <ele>1512.2</ele>
        <time>2023-01-21T11:42:37.000Z</time>
      </trkpt>
      <trkpt lat="46.26901" lon="6.56588">
        <ele>1512.2</ele>
        <time>2023-01-21T11:42:38.000Z</time>
      </trkpt>
      <trkpt lat="46.26901" lon="6.56588">
        <ele>1512.2</ele>
        <time>2023-01-21T11:42:39.000Z</time>
      </trkpt>
      <trkpt lat="46.26901" lon="6.56588">
        <ele>1512.2</ele>
        <time>2023-01-21T11:42:40.000Z</time>
      </trkpt>
      <trkpt lat="46.2691" lon="6.56591">
        <ele>1512.9</ele>
        <time>2023-01-21T11:42:41.000Z</time>
      </trkpt>
      <trkpt lat="46.26911" lon="6.56591">
        <ele>1513</ele>
        <time>2023-01-21T11:42:42.000Z</time>
      </trkpt>
      <trkpt lat="46.26911" lon="6.56591">
        <ele>1513</ele>
        <time>2023-01-21T11:42:43.000Z</time>
      </trkpt>
      <trkpt lat="46.26913" lon="6.56591">
        <ele>1513.1</ele>
        <time>2023-01-21T11:42:44.000Z</time>
      </trkpt>
      <trkpt lat="46.26913" lon="6.56591">
        <ele>1513.1</ele>
        <time>2023-01-21T11:42:45.000Z</time>
      </trkpt>
      <trkpt lat="46.26913" lon="6.56591">
        <ele>1513.1</ele>
        <time>2023-01-21T11:42:46.000Z</time>
      </trkpt>
      <trkpt lat="46.26913" lon="6.56591">
        <ele>1513.1</ele>
        <time>2023-01-21T11:42:47.000Z</time>
      </trkpt>
      <trkpt lat="46.26913" lon="6.56591">
        <ele>1513.1</ele>
        <time>2023-01-21T11:42:48.000Z</time>
      </trkpt>
      <trkpt lat="46.26913" lon="6.56591">
        <ele>1513.1</ele>
        <time>2023-01-21T11:42:49.000Z</time>
      </trkpt>
      <trkpt lat="46.26913" lon="6.56591">
        <ele>1513.1</ele>
        <time>2023-01-21T11:42:50.000Z</time>
      </trkpt>
      <trkpt lat="46.26913" lon="6.56591">
        <ele>1513.1</ele>
        <time>2023-01-21T11:42:51.000Z</time>
      </trkpt>
      <trkpt lat="46.26913" lon="6.56591">
        <ele>1513.1</ele>
        <time>2023-01-21T11:42:52.000Z</time>
      </trkpt>
      <trkpt lat="46.26913" lon="6.56591">
        <ele>1513.1</ele>
        <time>2023-01-21T11:42:53.000Z</time>
      </trkpt>
      <trkpt lat="46.26913" lon="6.56591">
        <ele>1513.1</ele>
        <time>2023-01-21T11:42:54.000Z</time>
      </trkpt>
      <trkpt lat="46.26913" lon="6.56591">
        <ele>1513.1</ele>
        <time>2023-01-21T11:42:55.000Z</time>
      </trkpt>
      <trkpt lat="46.26921" lon="6.56595">
        <ele>1514.4</ele>
        <time>2023-01-21T11:42:56.000Z</time>
      </trkpt>
      <trkpt lat="46.26922" lon="6.56595">
        <ele>1514.6</ele>
        <time>2023-01-21T11:42:57.000Z</time>
      </trkpt>
      <trkpt lat="46.26923" lon="6.56596">
        <ele>1514.7</ele>
        <time>2023-01-21T11:42:58.000Z</time>
      </trkpt>
      <trkpt lat="46.26925" lon="6.56597">
        <ele>1514.9</ele>
        <time>2023-01-21T11:42:59.000Z</time>
      </trkpt>
      <trkpt lat="46.26925" lon="6.56597">
        <ele>1514.9</ele>
        <time>2023-01-21T11:43:00.000Z</time>
      </trkpt>
      <trkpt lat="46.26925" lon="6.56597">
        <ele>1514.9</ele>
        <time>2023-01-21T11:43:01.000Z</time>
      </trkpt>
      <trkpt lat="46.26925" lon="6.56597">
        <ele>1514.9</ele>
        <time>2023-01-21T11:43:02.000Z</time>
      </trkpt>
      <trkpt lat="46.26925" lon="6.56597">
        <ele>1514.9</ele>
        <time>2023-01-21T11:43:03.000Z</time>
      </trkpt>
      <trkpt lat="46.26925" lon="6.56597">
        <ele>1514.9</ele>
        <time>2023-01-21T11:43:04.000Z</time>
      </trkpt>
      <trkpt lat="46.26925" lon="6.56597">
        <ele>1514.9</ele>
        <time>2023-01-21T11:43:05.000Z</time>
      </trkpt>
      <trkpt lat="46.26925" lon="6.56597">
        <ele>1514.9</ele>
        <time>2023-01-21T11:43:06.000Z</time>
      </trkpt>
      <trkpt lat="46.26925" lon="6.56597">
        <ele>1514.9</ele>
        <time>2023-01-21T11:43:07.000Z</time>
      </trkpt>
      <trkpt lat="46.26925" lon="6.56597">
        <ele>1514.9</ele>
        <time>2023-01-21T11:43:08.000Z</time>
      </trkpt>
      <trkpt lat="46.26925" lon="6.56597">
        <ele>1514.9</ele>
        <time>2023-01-21T11:43:09.000Z</time>
      </trkpt>
      <trkpt lat="46.26933" lon="6.56603">
        <ele>1516.7</ele>
        <time>2023-01-21T11:43:10.000Z</time>
      </trkpt>
      <trkpt lat="46.26934" lon="6.56603">
        <ele>1516.8</ele>
        <time>2023-01-21T11:43:11.000Z</time>
      </trkpt>
      <trkpt lat="46.26934" lon="6.56604">
        <ele>1516.7</ele>
        <time>2023-01-21T11:43:12.000Z</time>
      </trkpt>
      <trkpt lat="46.26933" lon="6.56605">
        <ele>1516.7</ele>
        <time>2023-01-21T11:43:13.000Z</time>
      </trkpt>
      <trkpt lat="46.26933" lon="6.56605">
        <ele>1516.7</ele>
        <time>2023-01-21T11:43:14.000Z</time>
      </trkpt>
      <trkpt lat="46.26934" lon="6.56611">
        <ele>1516.1</ele>
        <time>2023-01-21T11:43:15.000Z</time>
      </trkpt>
      <trkpt lat="46.26934" lon="6.56613">
        <ele>1515.7</ele>
        <time>2023-01-21T11:43:16.000Z</time>
      </trkpt>
      <trkpt lat="46.26935" lon="6.56613">
        <ele>1515.5</ele>
        <time>2023-01-21T11:43:17.000Z</time>
      </trkpt>
      <trkpt lat="46.26936" lon="6.56614">
        <ele>1515.2</ele>
        <time>2023-01-21T11:43:18.000Z</time>
      </trkpt>
      <trkpt lat="46.26937" lon="6.56615">
        <ele>1514.8</ele>
        <time>2023-01-21T11:43:19.000Z</time>
      </trkpt>
      <trkpt lat="46.26938" lon="6.56614">
        <ele>1514.6</ele>
        <time>2023-01-21T11:43:20.000Z</time>
      </trkpt>
      <trkpt lat="46.26938" lon="6.56615">
        <ele>1514.2</ele>
        <time>2023-01-21T11:43:21.000Z</time>
      </trkpt>
      <trkpt lat="46.26939" lon="6.56615">
        <ele>1513.7</ele>
        <time>2023-01-21T11:43:22.000Z</time>
      </trkpt>
      <trkpt lat="46.26939" lon="6.56614">
        <ele>1513.2</ele>
        <time>2023-01-21T11:43:23.000Z</time>
      </trkpt>
      <trkpt lat="46.2694" lon="6.56614">
        <ele>1512.8</ele>
        <time>2023-01-21T11:43:24.000Z</time>
      </trkpt>
      <trkpt lat="46.26941" lon="6.56614">
        <ele>1512.6</ele>
        <time>2023-01-21T11:43:25.000Z</time>
      </trkpt>
      <trkpt lat="46.26941" lon="6.56614">
        <ele>1512.6</ele>
        <time>2023-01-21T11:43:26.000Z</time>
      </trkpt>
      <trkpt lat="46.26941" lon="6.56614">
        <ele>1512.6</ele>
        <time>2023-01-21T11:43:27.000Z</time>
      </trkpt>
      <trkpt lat="46.26942" lon="6.56615">
        <ele>1513</ele>
        <time>2023-01-21T11:43:28.000Z</time>
      </trkpt>
      <trkpt lat="46.26943" lon="6.56618">
        <ele>1513.2</ele>
        <time>2023-01-21T11:43:29.000Z</time>
      </trkpt>
      <trkpt lat="46.26944" lon="6.56618">
        <ele>1513.7</ele>
        <time>2023-01-21T11:43:30.000Z</time>
      </trkpt>
      <trkpt lat="46.26944" lon="6.56617">
        <ele>1513.5</ele>
        <time>2023-01-21T11:43:31.000Z</time>
      </trkpt>
      <trkpt lat="46.26945" lon="6.56617">
        <ele>1513.4</ele>
        <time>2023-01-21T11:43:32.000Z</time>
      </trkpt>
      <trkpt lat="46.26946" lon="6.56616">
        <ele>1513.5</ele>
        <time>2023-01-21T11:43:33.000Z</time>
      </trkpt>
      <trkpt lat="46.26946" lon="6.56616">
        <ele>1513.5</ele>
        <time>2023-01-21T11:43:34.000Z</time>
      </trkpt>
      <trkpt lat="46.26946" lon="6.56616">
        <ele>1513.5</ele>
        <time>2023-01-21T11:43:35.000Z</time>
      </trkpt>
      <trkpt lat="46.26946" lon="6.56616">
        <ele>1513.5</ele>
        <time>2023-01-21T11:43:36.000Z</time>
      </trkpt>
      <trkpt lat="46.26946" lon="6.56616">
        <ele>1513.5</ele>
        <time>2023-01-21T11:43:37.000Z</time>
      </trkpt>
      <trkpt lat="46.26946" lon="6.56616">
        <ele>1513.5</ele>
        <time>2023-01-21T11:43:38.000Z</time>
      </trkpt>
      <trkpt lat="46.26946" lon="6.56616">
        <ele>1513.5</ele>
        <time>2023-01-21T11:43:39.000Z</time>
      </trkpt>
      <trkpt lat="46.26946" lon="6.56616">
        <ele>1513.5</ele>
        <time>2023-01-21T11:43:40.000Z</time>
      </trkpt>
      <trkpt lat="46.26946" lon="6.56616">
        <ele>1513.5</ele>
        <time>2023-01-21T11:43:41.000Z</time>
      </trkpt>
      <trkpt lat="46.26946" lon="6.56616">
        <ele>1513.5</ele>
        <time>2023-01-21T11:43:42.000Z</time>
      </trkpt>
      <trkpt lat="46.26946" lon="6.56616">
        <ele>1513.5</ele>
        <time>2023-01-21T11:43:43.000Z</time>
      </trkpt>
      <trkpt lat="46.26946" lon="6.56616">
        <ele>1513.5</ele>
        <time>2023-01-21T11:43:44.000Z</time>
      </trkpt>
      <trkpt lat="46.26955" lon="6.56621">
        <ele>1516.1</ele>
        <time>2023-01-21T11:43:45.000Z</time>
      </trkpt>
      <trkpt lat="46.26955" lon="6.56621">
        <ele>1516.6</ele>
        <time>2023-01-21T11:43:46.000Z</time>
      </trkpt>
      <trkpt lat="46.26955" lon="6.56622">
        <ele>1516.9</ele>
        <time>2023-01-21T11:43:47.000Z</time>
      </trkpt>
      <trkpt lat="46.26956" lon="6.56622">
        <ele>1517.3</ele>
        <time>2023-01-21T11:43:48.000Z</time>
      </trkpt>
      <trkpt lat="46.26956" lon="6.56622">
        <ele>1517.3</ele>
        <time>2023-01-21T11:43:49.000Z</time>
      </trkpt>
      <trkpt lat="46.26956" lon="6.56622">
        <ele>1517.3</ele>
        <time>2023-01-21T11:43:50.000Z</time>
      </trkpt>
      <trkpt lat="46.26956" lon="6.56622">
        <ele>1517.3</ele>
        <time>2023-01-21T11:43:51.000Z</time>
      </trkpt>
      <trkpt lat="46.26956" lon="6.56622">
        <ele>1517.3</ele>
        <time>2023-01-21T11:43:52.000Z</time>
      </trkpt>
      <trkpt lat="46.26956" lon="6.56622">
        <ele>1517.3</ele>
        <time>2023-01-21T11:43:53.000Z</time>
      </trkpt>
      <trkpt lat="46.26956" lon="6.56622">
        <ele>1517.3</ele>
        <time>2023-01-21T11:43:54.000Z</time>
      </trkpt>
      <trkpt lat="46.26956" lon="6.56622">
        <ele>1517.3</ele>
        <time>2023-01-21T11:43:55.000Z</time>
      </trkpt>
      <trkpt lat="46.26956" lon="6.56622">
        <ele>1517.3</ele>
        <time>2023-01-21T11:43:56.000Z</time>
      </trkpt>
      <trkpt lat="46.26956" lon="6.56622">
        <ele>1517.3</ele>
        <time>2023-01-21T11:43:57.000Z</time>
      </trkpt>
      <trkpt lat="46.26956" lon="6.56622">
        <ele>1517.3</ele>
        <time>2023-01-21T11:43:58.000Z</time>
      </trkpt>
      <trkpt lat="46.26956" lon="6.56622">
        <ele>1517.3</ele>
        <time>2023-01-21T11:43:59.000Z</time>
      </trkpt>
      <trkpt lat="46.26956" lon="6.56622">
        <ele>1517.3</ele>
        <time>2023-01-21T11:44:00.000Z</time>
      </trkpt>
      <trkpt lat="46.26956" lon="6.56622">
        <ele>1517.3</ele>
        <time>2023-01-21T11:44:01.000Z</time>
      </trkpt>
      <trkpt lat="46.26964" lon="6.56627">
        <ele>1520.1</ele>
        <time>2023-01-21T11:44:02.000Z</time>
      </trkpt>
      <trkpt lat="46.26965" lon="6.56628">
        <ele>1520.3</ele>
        <time>2023-01-21T11:44:03.000Z</time>
      </trkpt>
      <trkpt lat="46.26965" lon="6.56629">
        <ele>1520.5</ele>
        <time>2023-01-21T11:44:04.000Z</time>
      </trkpt>
      <trkpt lat="46.26966" lon="6.5663">
        <ele>1520.8</ele>
        <time>2023-01-21T11:44:05.000Z</time>
      </trkpt>
      <trkpt lat="46.26966" lon="6.5663">
        <ele>1520.8</ele>
        <time>2023-01-21T11:44:06.000Z</time>
      </trkpt>
      <trkpt lat="46.26966" lon="6.5663">
        <ele>1520.8</ele>
        <time>2023-01-21T11:44:07.000Z</time>
      </trkpt>
      <trkpt lat="46.26966" lon="6.5663">
        <ele>1520.8</ele>
        <time>2023-01-21T11:44:08.000Z</time>
      </trkpt>
      <trkpt lat="46.26966" lon="6.5663">
        <ele>1520.8</ele>
        <time>2023-01-21T11:44:09.000Z</time>
      </trkpt>
      <trkpt lat="46.26966" lon="6.5663">
        <ele>1520.8</ele>
        <time>2023-01-21T11:44:10.000Z</time>
      </trkpt>
      <trkpt lat="46.26966" lon="6.5663">
        <ele>1520.8</ele>
        <time>2023-01-21T11:44:11.000Z</time>
      </trkpt>
      <trkpt lat="46.26966" lon="6.5663">
        <ele>1520.8</ele>
        <time>2023-01-21T11:44:12.000Z</time>
      </trkpt>
      <trkpt lat="46.26966" lon="6.5663">
        <ele>1520.8</ele>
        <time>2023-01-21T11:44:13.000Z</time>
      </trkpt>
      <trkpt lat="46.26966" lon="6.5663">
        <ele>1520.8</ele>
        <time>2023-01-21T11:44:14.000Z</time>
      </trkpt>
      <trkpt lat="46.26966" lon="6.5663">
        <ele>1520.8</ele>
        <time>2023-01-21T11:44:15.000Z</time>
      </trkpt>
      <trkpt lat="46.26966" lon="6.5663">
        <ele>1520.8</ele>
        <time>2023-01-21T11:44:16.000Z</time>
      </trkpt>
      <trkpt lat="46.26966" lon="6.5663">
        <ele>1520.8</ele>
        <time>2023-01-21T11:44:17.000Z</time>
      </trkpt>
      <trkpt lat="46.26966" lon="6.5663">
        <ele>1520.8</ele>
        <time>2023-01-21T11:44:18.000Z</time>
      </trkpt>
      <trkpt lat="46.26966" lon="6.5663">
        <ele>1520.8</ele>
        <time>2023-01-21T11:44:19.000Z</time>
      </trkpt>
      <trkpt lat="46.26971" lon="6.56641">
        <ele>1521.8</ele>
        <time>2023-01-21T11:44:20.000Z</time>
      </trkpt>
      <trkpt lat="46.26972" lon="6.56643">
        <ele>1521.9</ele>
        <time>2023-01-21T11:44:21.000Z</time>
      </trkpt>
      <trkpt lat="46.26972" lon="6.56643">
        <ele>1522</ele>
        <time>2023-01-21T11:44:22.000Z</time>
      </trkpt>
      <trkpt lat="46.26973" lon="6.56643">
        <ele>1522.1</ele>
        <time>2023-01-21T11:44:23.000Z</time>
      </trkpt>
      <trkpt lat="46.26973" lon="6.56643">
        <ele>1522.1</ele>
        <time>2023-01-21T11:44:24.000Z</time>
      </trkpt>
      <trkpt lat="46.26973" lon="6.56643">
        <ele>1522.1</ele>
        <time>2023-01-21T11:44:25.000Z</time>
      </trkpt>
      <trkpt lat="46.26973" lon="6.56643">
        <ele>1522.1</ele>
        <time>2023-01-21T11:44:26.000Z</time>
      </trkpt>
      <trkpt lat="46.26973" lon="6.56643">
        <ele>1522.1</ele>
        <time>2023-01-21T11:44:27.000Z</time>
      </trkpt>
      <trkpt lat="46.26973" lon="6.56643">
        <ele>1522.1</ele>
        <time>2023-01-21T11:44:28.000Z</time>
      </trkpt>
      <trkpt lat="46.26973" lon="6.56643">
        <ele>1522.1</ele>
        <time>2023-01-21T11:44:29.000Z</time>
      </trkpt>
      <trkpt lat="46.26973" lon="6.56643">
        <ele>1522.1</ele>
        <time>2023-01-21T11:44:30.000Z</time>
      </trkpt>
      <trkpt lat="46.26973" lon="6.56643">
        <ele>1522.1</ele>
        <time>2023-01-21T11:44:31.000Z</time>
      </trkpt>
      <trkpt lat="46.26973" lon="6.56643">
        <ele>1522.1</ele>
        <time>2023-01-21T11:44:32.000Z</time>
      </trkpt>
      <trkpt lat="46.26973" lon="6.56643">
        <ele>1522.1</ele>
        <time>2023-01-21T11:44:33.000Z</time>
      </trkpt>
      <trkpt lat="46.26973" lon="6.56643">
        <ele>1522.1</ele>
        <time>2023-01-21T11:44:34.000Z</time>
      </trkpt>
      <trkpt lat="46.26981" lon="6.56649">
        <ele>1523.6</ele>
        <time>2023-01-21T11:44:35.000Z</time>
      </trkpt>
      <trkpt lat="46.26982" lon="6.5665">
        <ele>1523.8</ele>
        <time>2023-01-21T11:44:36.000Z</time>
      </trkpt>
      <trkpt lat="46.26982" lon="6.5665">
        <ele>1524</ele>
        <time>2023-01-21T11:44:37.000Z</time>
      </trkpt>
      <trkpt lat="46.26983" lon="6.56651">
        <ele>1524.2</ele>
        <time>2023-01-21T11:44:38.000Z</time>
      </trkpt>
      <trkpt lat="46.26983" lon="6.56651">
        <ele>1524.2</ele>
        <time>2023-01-21T11:44:39.000Z</time>
      </trkpt>
      <trkpt lat="46.26983" lon="6.56651">
        <ele>1524.2</ele>
        <time>2023-01-21T11:44:40.000Z</time>
      </trkpt>
      <trkpt lat="46.26983" lon="6.56651">
        <ele>1524.2</ele>
        <time>2023-01-21T11:44:41.000Z</time>
      </trkpt>
      <trkpt lat="46.26983" lon="6.56651">
        <ele>1524.2</ele>
        <time>2023-01-21T11:44:42.000Z</time>
      </trkpt>
      <trkpt lat="46.26983" lon="6.56651">
        <ele>1524.2</ele>
        <time>2023-01-21T11:44:43.000Z</time>
      </trkpt>
      <trkpt lat="46.26983" lon="6.56651">
        <ele>1524.2</ele>
        <time>2023-01-21T11:44:44.000Z</time>
      </trkpt>
      <trkpt lat="46.26983" lon="6.56651">
        <ele>1524.2</ele>
        <time>2023-01-21T11:44:45.000Z</time>
      </trkpt>
      <trkpt lat="46.26983" lon="6.56651">
        <ele>1524.2</ele>
        <time>2023-01-21T11:44:46.000Z</time>
      </trkpt>
      <trkpt lat="46.26983" lon="6.56651">
        <ele>1524.2</ele>
        <time>2023-01-21T11:44:47.000Z</time>
      </trkpt>
      <trkpt lat="46.26983" lon="6.56651">
        <ele>1524.2</ele>
        <time>2023-01-21T11:44:48.000Z</time>
      </trkpt>
      <trkpt lat="46.26983" lon="6.56651">
        <ele>1524.2</ele>
        <time>2023-01-21T11:44:49.000Z</time>
      </trkpt>
      <trkpt lat="46.26983" lon="6.56651">
        <ele>1524.2</ele>
        <time>2023-01-21T11:44:50.000Z</time>
      </trkpt>
      <trkpt lat="46.26983" lon="6.56651">
        <ele>1524.2</ele>
        <time>2023-01-21T11:44:51.000Z</time>
      </trkpt>
      <trkpt lat="46.26983" lon="6.56651">
        <ele>1524.2</ele>
        <time>2023-01-21T11:44:52.000Z</time>
      </trkpt>
      <trkpt lat="46.26983" lon="6.56651">
        <ele>1524.2</ele>
        <time>2023-01-21T11:44:53.000Z</time>
      </trkpt>
      <trkpt lat="46.26983" lon="6.56651">
        <ele>1524.2</ele>
        <time>2023-01-21T11:44:54.000Z</time>
      </trkpt>
      <trkpt lat="46.26983" lon="6.56651">
        <ele>1524.2</ele>
        <time>2023-01-21T11:44:55.000Z</time>
      </trkpt>
      <trkpt lat="46.26983" lon="6.56651">
        <ele>1524.2</ele>
        <time>2023-01-21T11:44:56.000Z</time>
      </trkpt>
      <trkpt lat="46.26983" lon="6.56651">
        <ele>1524.2</ele>
        <time>2023-01-21T11:44:57.000Z</time>
      </trkpt>
      <trkpt lat="46.26986" lon="6.56655">
        <ele>1526</ele>
        <time>2023-01-21T11:44:58.000Z</time>
      </trkpt>
      <trkpt lat="46.26987" lon="6.56656">
        <ele>1526</ele>
        <time>2023-01-21T11:44:59.000Z</time>
      </trkpt>
      <trkpt lat="46.26988" lon="6.56657">
        <ele>1526</ele>
        <time>2023-01-21T11:45:00.000Z</time>
      </trkpt>
      <trkpt lat="46.26988" lon="6.56657">
        <ele>1525.8</ele>
        <time>2023-01-21T11:45:01.000Z</time>
      </trkpt>
      <trkpt lat="46.26988" lon="6.56657">
        <ele>1525.8</ele>
        <time>2023-01-21T11:45:02.000Z</time>
      </trkpt>
      <trkpt lat="46.26988" lon="6.56657">
        <ele>1525.8</ele>
        <time>2023-01-21T11:45:03.000Z</time>
      </trkpt>
      <trkpt lat="46.26988" lon="6.56657">
        <ele>1525.8</ele>
        <time>2023-01-21T11:45:04.000Z</time>
      </trkpt>
      <trkpt lat="46.26988" lon="6.56657">
        <ele>1525.8</ele>
        <time>2023-01-21T11:45:05.000Z</time>
      </trkpt>
      <trkpt lat="46.26988" lon="6.56657">
        <ele>1525.8</ele>
        <time>2023-01-21T11:45:06.000Z</time>
      </trkpt>
      <trkpt lat="46.26988" lon="6.56657">
        <ele>1525.8</ele>
        <time>2023-01-21T11:45:07.000Z</time>
      </trkpt>
      <trkpt lat="46.26988" lon="6.56657">
        <ele>1525.8</ele>
        <time>2023-01-21T11:45:08.000Z</time>
      </trkpt>
      <trkpt lat="46.26988" lon="6.56657">
        <ele>1525.8</ele>
        <time>2023-01-21T11:45:09.000Z</time>
      </trkpt>
      <trkpt lat="46.26988" lon="6.56657">
        <ele>1525.8</ele>
        <time>2023-01-21T11:45:10.000Z</time>
      </trkpt>
      <trkpt lat="46.26988" lon="6.56657">
        <ele>1525.8</ele>
        <time>2023-01-21T11:45:11.000Z</time>
      </trkpt>
      <trkpt lat="46.26988" lon="6.56657">
        <ele>1525.8</ele>
        <time>2023-01-21T11:45:12.000Z</time>
      </trkpt>
      <trkpt lat="46.26988" lon="6.56657">
        <ele>1525.8</ele>
        <time>2023-01-21T11:45:13.000Z</time>
      </trkpt>
      <trkpt lat="46.26988" lon="6.56657">
        <ele>1525.8</ele>
        <time>2023-01-21T11:45:14.000Z</time>
      </trkpt>
      <trkpt lat="46.26988" lon="6.56657">
        <ele>1525.8</ele>
        <time>2023-01-21T11:45:15.000Z</time>
      </trkpt>
      <trkpt lat="46.26988" lon="6.56657">
        <ele>1525.8</ele>
        <time>2023-01-21T11:45:16.000Z</time>
      </trkpt>
      <trkpt lat="46.26988" lon="6.56657">
        <ele>1525.8</ele>
        <time>2023-01-21T11:45:17.000Z</time>
      </trkpt>
      <trkpt lat="46.26997" lon="6.56664">
        <ele>1525.5</ele>
        <time>2023-01-21T11:45:18.000Z</time>
      </trkpt>
      <trkpt lat="46.26997" lon="6.56665">
        <ele>1525.6</ele>
        <time>2023-01-21T11:45:19.000Z</time>
      </trkpt>
      <trkpt lat="46.26997" lon="6.56666">
        <ele>1525.7</ele>
        <time>2023-01-21T11:45:20.000Z</time>
      </trkpt>
      <trkpt lat="46.26998" lon="6.56667">
        <ele>1525.6</ele>
        <time>2023-01-21T11:45:21.000Z</time>
      </trkpt>
      <trkpt lat="46.26998" lon="6.56667">
        <ele>1525.6</ele>
        <time>2023-01-21T11:45:22.000Z</time>
      </trkpt>
      <trkpt lat="46.26998" lon="6.56667">
        <ele>1525.6</ele>
        <time>2023-01-21T11:45:23.000Z</time>
      </trkpt>
      <trkpt lat="46.26998" lon="6.56667">
        <ele>1525.6</ele>
        <time>2023-01-21T11:45:24.000Z</time>
      </trkpt>
      <trkpt lat="46.26998" lon="6.56667">
        <ele>1525.6</ele>
        <time>2023-01-21T11:45:25.000Z</time>
      </trkpt>
      <trkpt lat="46.26998" lon="6.56667">
        <ele>1525.6</ele>
        <time>2023-01-21T11:45:26.000Z</time>
      </trkpt>
      <trkpt lat="46.26998" lon="6.56667">
        <ele>1525.6</ele>
        <time>2023-01-21T11:45:27.000Z</time>
      </trkpt>
      <trkpt lat="46.26998" lon="6.56667">
        <ele>1525.6</ele>
        <time>2023-01-21T11:45:28.000Z</time>
      </trkpt>
      <trkpt lat="46.26998" lon="6.56667">
        <ele>1525.6</ele>
        <time>2023-01-21T11:45:29.000Z</time>
      </trkpt>
      <trkpt lat="46.26998" lon="6.56667">
        <ele>1525.6</ele>
        <time>2023-01-21T11:45:30.000Z</time>
      </trkpt>
      <trkpt lat="46.26998" lon="6.56667">
        <ele>1525.6</ele>
        <time>2023-01-21T11:45:31.000Z</time>
      </trkpt>
      <trkpt lat="46.26998" lon="6.56667">
        <ele>1525.6</ele>
        <time>2023-01-21T11:45:32.000Z</time>
      </trkpt>
      <trkpt lat="46.26998" lon="6.56667">
        <ele>1525.6</ele>
        <time>2023-01-21T11:45:33.000Z</time>
      </trkpt>
      <trkpt lat="46.26998" lon="6.56667">
        <ele>1525.6</ele>
        <time>2023-01-21T11:45:34.000Z</time>
      </trkpt>
      <trkpt lat="46.27004" lon="6.56677">
        <ele>1526.2</ele>
        <time>2023-01-21T11:45:35.000Z</time>
      </trkpt>
      <trkpt lat="46.27005" lon="6.56678">
        <ele>1526.4</ele>
        <time>2023-01-21T11:45:36.000Z</time>
      </trkpt>
      <trkpt lat="46.27006" lon="6.56679">
        <ele>1526.3</ele>
        <time>2023-01-21T11:45:37.000Z</time>
      </trkpt>
      <trkpt lat="46.27006" lon="6.56681">
        <ele>1526.5</ele>
        <time>2023-01-21T11:45:38.000Z</time>
      </trkpt>
      <trkpt lat="46.27006" lon="6.56681">
        <ele>1526.5</ele>
        <time>2023-01-21T11:45:39.000Z</time>
      </trkpt>
      <trkpt lat="46.27006" lon="6.56681">
        <ele>1526.5</ele>
        <time>2023-01-21T11:45:40.000Z</time>
      </trkpt>
      <trkpt lat="46.27006" lon="6.56681">
        <ele>1526.5</ele>
        <time>2023-01-21T11:45:41.000Z</time>
      </trkpt>
      <trkpt lat="46.27006" lon="6.56681">
        <ele>1526.5</ele>
        <time>2023-01-21T11:45:42.000Z</time>
      </trkpt>
      <trkpt lat="46.27006" lon="6.56681">
        <ele>1526.5</ele>
        <time>2023-01-21T11:45:43.000Z</time>
      </trkpt>
      <trkpt lat="46.27006" lon="6.56681">
        <ele>1526.5</ele>
        <time>2023-01-21T11:45:44.000Z</time>
      </trkpt>
      <trkpt lat="46.27006" lon="6.56681">
        <ele>1526.5</ele>
        <time>2023-01-21T11:45:45.000Z</time>
      </trkpt>
      <trkpt lat="46.27006" lon="6.56681">
        <ele>1526.5</ele>
        <time>2023-01-21T11:45:46.000Z</time>
      </trkpt>
      <trkpt lat="46.27006" lon="6.56681">
        <ele>1526.5</ele>
        <time>2023-01-21T11:45:47.000Z</time>
      </trkpt>
      <trkpt lat="46.27006" lon="6.56681">
        <ele>1526.5</ele>
        <time>2023-01-21T11:45:48.000Z</time>
      </trkpt>
      <trkpt lat="46.27014" lon="6.5669">
        <ele>1527.8</ele>
        <time>2023-01-21T11:45:49.000Z</time>
      </trkpt>
      <trkpt lat="46.27015" lon="6.5669">
        <ele>1528</ele>
        <time>2023-01-21T11:45:50.000Z</time>
      </trkpt>
      <trkpt lat="46.27015" lon="6.56691">
        <ele>1528.2</ele>
        <time>2023-01-21T11:45:51.000Z</time>
      </trkpt>
      <trkpt lat="46.27017" lon="6.56692">
        <ele>1528.4</ele>
        <time>2023-01-21T11:45:52.000Z</time>
      </trkpt>
      <trkpt lat="46.27017" lon="6.56692">
        <ele>1528.4</ele>
        <time>2023-01-21T11:45:53.000Z</time>
      </trkpt>
      <trkpt lat="46.27017" lon="6.56692">
        <ele>1528.4</ele>
        <time>2023-01-21T11:45:54.000Z</time>
      </trkpt>
      <trkpt lat="46.27017" lon="6.56692">
        <ele>1528.4</ele>
        <time>2023-01-21T11:45:55.000Z</time>
      </trkpt>
      <trkpt lat="46.27017" lon="6.56692">
        <ele>1528.4</ele>
        <time>2023-01-21T11:45:56.000Z</time>
      </trkpt>
      <trkpt lat="46.27017" lon="6.56692">
        <ele>1528.4</ele>
        <time>2023-01-21T11:45:57.000Z</time>
      </trkpt>
      <trkpt lat="46.27017" lon="6.56692">
        <ele>1528.4</ele>
        <time>2023-01-21T11:45:58.000Z</time>
      </trkpt>
      <trkpt lat="46.27017" lon="6.56692">
        <ele>1528.4</ele>
        <time>2023-01-21T11:45:59.000Z</time>
      </trkpt>
      <trkpt lat="46.27017" lon="6.56692">
        <ele>1528.4</ele>
        <time>2023-01-21T11:46:00.000Z</time>
      </trkpt>
      <trkpt lat="46.27017" lon="6.56692">
        <ele>1528.4</ele>
        <time>2023-01-21T11:46:01.000Z</time>
      </trkpt>
      <trkpt lat="46.27017" lon="6.56692">
        <ele>1528.4</ele>
        <time>2023-01-21T11:46:02.000Z</time>
      </trkpt>
      <trkpt lat="46.27017" lon="6.56692">
        <ele>1528.4</ele>
        <time>2023-01-21T11:46:03.000Z</time>
      </trkpt>
      <trkpt lat="46.27017" lon="6.56692">
        <ele>1528.4</ele>
        <time>2023-01-21T11:46:04.000Z</time>
      </trkpt>
      <trkpt lat="46.27017" lon="6.56692">
        <ele>1528.4</ele>
        <time>2023-01-21T11:46:05.000Z</time>
      </trkpt>
      <trkpt lat="46.27017" lon="6.56692">
        <ele>1528.4</ele>
        <time>2023-01-21T11:46:06.000Z</time>
      </trkpt>
      <trkpt lat="46.27017" lon="6.56692">
        <ele>1528.4</ele>
        <time>2023-01-21T11:46:07.000Z</time>
      </trkpt>
      <trkpt lat="46.27025" lon="6.56699">
        <ele>1530.7</ele>
        <time>2023-01-21T11:46:08.000Z</time>
      </trkpt>
      <trkpt lat="46.27025" lon="6.567">
        <ele>1530.8</ele>
        <time>2023-01-21T11:46:09.000Z</time>
      </trkpt>
      <trkpt lat="46.27026" lon="6.56701">
        <ele>1530.9</ele>
        <time>2023-01-21T11:46:10.000Z</time>
      </trkpt>
      <trkpt lat="46.27026" lon="6.56702">
        <ele>1531</ele>
        <time>2023-01-21T11:46:11.000Z</time>
      </trkpt>
      <trkpt lat="46.27026" lon="6.56702">
        <ele>1531</ele>
        <time>2023-01-21T11:46:12.000Z</time>
      </trkpt>
      <trkpt lat="46.27026" lon="6.56702">
        <ele>1531</ele>
        <time>2023-01-21T11:46:13.000Z</time>
      </trkpt>
      <trkpt lat="46.27026" lon="6.56702">
        <ele>1531</ele>
        <time>2023-01-21T11:46:14.000Z</time>
      </trkpt>
      <trkpt lat="46.27026" lon="6.56702">
        <ele>1531</ele>
        <time>2023-01-21T11:46:15.000Z</time>
      </trkpt>
      <trkpt lat="46.27026" lon="6.56702">
        <ele>1531</ele>
        <time>2023-01-21T11:46:16.000Z</time>
      </trkpt>
      <trkpt lat="46.27026" lon="6.56702">
        <ele>1531</ele>
        <time>2023-01-21T11:46:17.000Z</time>
      </trkpt>
      <trkpt lat="46.27026" lon="6.56702">
        <ele>1531</ele>
        <time>2023-01-21T11:46:18.000Z</time>
      </trkpt>
      <trkpt lat="46.27026" lon="6.56702">
        <ele>1531</ele>
        <time>2023-01-21T11:46:19.000Z</time>
      </trkpt>
      <trkpt lat="46.27026" lon="6.56702">
        <ele>1531</ele>
        <time>2023-01-21T11:46:20.000Z</time>
      </trkpt>
      <trkpt lat="46.27026" lon="6.56702">
        <ele>1531</ele>
        <time>2023-01-21T11:46:21.000Z</time>
      </trkpt>
      <trkpt lat="46.27033" lon="6.56709">
        <ele>1532.7</ele>
        <time>2023-01-21T11:46:22.000Z</time>
      </trkpt>
      <trkpt lat="46.27034" lon="6.5671">
        <ele>1532.9</ele>
        <time>2023-01-21T11:46:23.000Z</time>
      </trkpt>
      <trkpt lat="46.27034" lon="6.56711">
        <ele>1533</ele>
        <time>2023-01-21T11:46:24.000Z</time>
      </trkpt>
      <trkpt lat="46.27035" lon="6.56712">
        <ele>1533.1</ele>
        <time>2023-01-21T11:46:25.000Z</time>
      </trkpt>
      <trkpt lat="46.27035" lon="6.56712">
        <ele>1533.1</ele>
        <time>2023-01-21T11:46:26.000Z</time>
      </trkpt>
      <trkpt lat="46.27035" lon="6.56712">
        <ele>1533.1</ele>
        <time>2023-01-21T11:46:27.000Z</time>
      </trkpt>
      <trkpt lat="46.27035" lon="6.56712">
        <ele>1533.1</ele>
        <time>2023-01-21T11:46:28.000Z</time>
      </trkpt>
      <trkpt lat="46.27035" lon="6.56712">
        <ele>1533.1</ele>
        <time>2023-01-21T11:46:29.000Z</time>
      </trkpt>
      <trkpt lat="46.27035" lon="6.56712">
        <ele>1533.1</ele>
        <time>2023-01-21T11:46:30.000Z</time>
      </trkpt>
      <trkpt lat="46.27035" lon="6.56712">
        <ele>1533.1</ele>
        <time>2023-01-21T11:46:31.000Z</time>
      </trkpt>
      <trkpt lat="46.27035" lon="6.56712">
        <ele>1533.1</ele>
        <time>2023-01-21T11:46:32.000Z</time>
      </trkpt>
      <trkpt lat="46.27035" lon="6.56712">
        <ele>1533.1</ele>
        <time>2023-01-21T11:46:33.000Z</time>
      </trkpt>
      <trkpt lat="46.27035" lon="6.56712">
        <ele>1533.1</ele>
        <time>2023-01-21T11:46:34.000Z</time>
      </trkpt>
      <trkpt lat="46.27035" lon="6.56712">
        <ele>1533.1</ele>
        <time>2023-01-21T11:46:35.000Z</time>
      </trkpt>
      <trkpt lat="46.27041" lon="6.56722">
        <ele>1534.7</ele>
        <time>2023-01-21T11:46:36.000Z</time>
      </trkpt>
      <trkpt lat="46.27042" lon="6.56722">
        <ele>1534.9</ele>
        <time>2023-01-21T11:46:37.000Z</time>
      </trkpt>
      <trkpt lat="46.27042" lon="6.56723">
        <ele>1534.8</ele>
        <time>2023-01-21T11:46:38.000Z</time>
      </trkpt>
      <trkpt lat="46.27043" lon="6.56724">
        <ele>1534.9</ele>
        <time>2023-01-21T11:46:39.000Z</time>
      </trkpt>
      <trkpt lat="46.27043" lon="6.56724">
        <ele>1534.9</ele>
        <time>2023-01-21T11:46:40.000Z</time>
      </trkpt>
      <trkpt lat="46.27043" lon="6.56724">
        <ele>1534.9</ele>
        <time>2023-01-21T11:46:41.000Z</time>
      </trkpt>
      <trkpt lat="46.27043" lon="6.56724">
        <ele>1534.9</ele>
        <time>2023-01-21T11:46:42.000Z</time>
      </trkpt>
      <trkpt lat="46.27043" lon="6.56724">
        <ele>1534.9</ele>
        <time>2023-01-21T11:46:43.000Z</time>
      </trkpt>
      <trkpt lat="46.27043" lon="6.56724">
        <ele>1534.9</ele>
        <time>2023-01-21T11:46:44.000Z</time>
      </trkpt>
      <trkpt lat="46.27043" lon="6.56724">
        <ele>1534.9</ele>
        <time>2023-01-21T11:46:45.000Z</time>
      </trkpt>
      <trkpt lat="46.27043" lon="6.56724">
        <ele>1534.9</ele>
        <time>2023-01-21T11:46:46.000Z</time>
      </trkpt>
      <trkpt lat="46.27043" lon="6.56724">
        <ele>1534.9</ele>
        <time>2023-01-21T11:46:47.000Z</time>
      </trkpt>
      <trkpt lat="46.27043" lon="6.56724">
        <ele>1534.9</ele>
        <time>2023-01-21T11:46:48.000Z</time>
      </trkpt>
      <trkpt lat="46.27045" lon="6.56728">
        <ele>1536</ele>
        <time>2023-01-21T11:46:49.000Z</time>
      </trkpt>
      <trkpt lat="46.27046" lon="6.56729">
        <ele>1536.1</ele>
        <time>2023-01-21T11:46:50.000Z</time>
      </trkpt>
      <trkpt lat="46.27045" lon="6.56729">
        <ele>1536</ele>
        <time>2023-01-21T11:46:51.000Z</time>
      </trkpt>
      <trkpt lat="46.27046" lon="6.5673">
        <ele>1536.2</ele>
        <time>2023-01-21T11:46:52.000Z</time>
      </trkpt>
      <trkpt lat="46.27046" lon="6.5673">
        <ele>1536.3</ele>
        <time>2023-01-21T11:46:53.000Z</time>
      </trkpt>
      <trkpt lat="46.27046" lon="6.5673">
        <ele>1536.3</ele>
        <time>2023-01-21T11:46:54.000Z</time>
      </trkpt>
      <trkpt lat="46.27046" lon="6.5673">
        <ele>1536.3</ele>
        <time>2023-01-21T11:46:55.000Z</time>
      </trkpt>
      <trkpt lat="46.27046" lon="6.5673">
        <ele>1536.3</ele>
        <time>2023-01-21T11:46:56.000Z</time>
      </trkpt>
      <trkpt lat="46.27046" lon="6.5673">
        <ele>1536.3</ele>
        <time>2023-01-21T11:46:57.000Z</time>
      </trkpt>
      <trkpt lat="46.27046" lon="6.5673">
        <ele>1536.3</ele>
        <time>2023-01-21T11:46:58.000Z</time>
      </trkpt>
      <trkpt lat="46.27046" lon="6.5673">
        <ele>1536.3</ele>
        <time>2023-01-21T11:46:59.000Z</time>
      </trkpt>
      <trkpt lat="46.27046" lon="6.5673">
        <ele>1536.3</ele>
        <time>2023-01-21T11:47:00.000Z</time>
      </trkpt>
      <trkpt lat="46.27046" lon="6.5673">
        <ele>1536.3</ele>
        <time>2023-01-21T11:47:01.000Z</time>
      </trkpt>
      <trkpt lat="46.27046" lon="6.5673">
        <ele>1536.3</ele>
        <time>2023-01-21T11:47:02.000Z</time>
      </trkpt>
      <trkpt lat="46.27046" lon="6.5673">
        <ele>1536.3</ele>
        <time>2023-01-21T11:47:03.000Z</time>
      </trkpt>
      <trkpt lat="46.27046" lon="6.5673">
        <ele>1536.3</ele>
        <time>2023-01-21T11:47:04.000Z</time>
      </trkpt>
      <trkpt lat="46.27046" lon="6.5673">
        <ele>1536.3</ele>
        <time>2023-01-21T11:47:05.000Z</time>
      </trkpt>
      <trkpt lat="46.27046" lon="6.5673">
        <ele>1536.3</ele>
        <time>2023-01-21T11:47:06.000Z</time>
      </trkpt>
      <trkpt lat="46.27055" lon="6.56738">
        <ele>1537.6</ele>
        <time>2023-01-21T11:47:07.000Z</time>
      </trkpt>
      <trkpt lat="46.27055" lon="6.56739">
        <ele>1537.6</ele>
        <time>2023-01-21T11:47:08.000Z</time>
      </trkpt>
      <trkpt lat="46.27056" lon="6.56739">
        <ele>1537.9</ele>
        <time>2023-01-21T11:47:09.000Z</time>
      </trkpt>
      <trkpt lat="46.27056" lon="6.56739">
        <ele>1538.1</ele>
        <time>2023-01-21T11:47:10.000Z</time>
      </trkpt>
      <trkpt lat="46.27056" lon="6.56739">
        <ele>1538.1</ele>
        <time>2023-01-21T11:47:11.000Z</time>
      </trkpt>
      <trkpt lat="46.27056" lon="6.56739">
        <ele>1538.1</ele>
        <time>2023-01-21T11:47:12.000Z</time>
      </trkpt>
      <trkpt lat="46.27056" lon="6.56739">
        <ele>1538.1</ele>
        <time>2023-01-21T11:47:13.000Z</time>
      </trkpt>
      <trkpt lat="46.27056" lon="6.56739">
        <ele>1538.1</ele>
        <time>2023-01-21T11:47:14.000Z</time>
      </trkpt>
      <trkpt lat="46.27056" lon="6.56739">
        <ele>1538.1</ele>
        <time>2023-01-21T11:47:15.000Z</time>
      </trkpt>
      <trkpt lat="46.27056" lon="6.56739">
        <ele>1538.1</ele>
        <time>2023-01-21T11:47:16.000Z</time>
      </trkpt>
      <trkpt lat="46.27056" lon="6.56739">
        <ele>1538.1</ele>
        <time>2023-01-21T11:47:17.000Z</time>
      </trkpt>
      <trkpt lat="46.27056" lon="6.56739">
        <ele>1538.1</ele>
        <time>2023-01-21T11:47:18.000Z</time>
      </trkpt>
      <trkpt lat="46.27056" lon="6.56739">
        <ele>1538.1</ele>
        <time>2023-01-21T11:47:19.000Z</time>
      </trkpt>
      <trkpt lat="46.27056" lon="6.56739">
        <ele>1538.1</ele>
        <time>2023-01-21T11:47:20.000Z</time>
      </trkpt>
      <trkpt lat="46.27056" lon="6.56739">
        <ele>1538.1</ele>
        <time>2023-01-21T11:47:21.000Z</time>
      </trkpt>
      <trkpt lat="46.27064" lon="6.56745">
        <ele>1540.3</ele>
        <time>2023-01-21T11:47:22.000Z</time>
      </trkpt>
      <trkpt lat="46.27065" lon="6.56745">
        <ele>1540.4</ele>
        <time>2023-01-21T11:47:23.000Z</time>
      </trkpt>
      <trkpt lat="46.27066" lon="6.56746">
        <ele>1540.5</ele>
        <time>2023-01-21T11:47:24.000Z</time>
      </trkpt>
      <trkpt lat="46.27066" lon="6.56747">
        <ele>1540.7</ele>
        <time>2023-01-21T11:47:25.000Z</time>
      </trkpt>
      <trkpt lat="46.27066" lon="6.56747">
        <ele>1540.7</ele>
        <time>2023-01-21T11:47:26.000Z</time>
      </trkpt>
      <trkpt lat="46.27066" lon="6.56747">
        <ele>1540.7</ele>
        <time>2023-01-21T11:47:27.000Z</time>
      </trkpt>
      <trkpt lat="46.27066" lon="6.56747">
        <ele>1540.7</ele>
        <time>2023-01-21T11:47:28.000Z</time>
      </trkpt>
      <trkpt lat="46.27066" lon="6.56747">
        <ele>1540.7</ele>
        <time>2023-01-21T11:47:29.000Z</time>
      </trkpt>
      <trkpt lat="46.27066" lon="6.56747">
        <ele>1540.7</ele>
        <time>2023-01-21T11:47:30.000Z</time>
      </trkpt>
      <trkpt lat="46.27066" lon="6.56747">
        <ele>1540.7</ele>
        <time>2023-01-21T11:47:31.000Z</time>
      </trkpt>
      <trkpt lat="46.27066" lon="6.56747">
        <ele>1540.7</ele>
        <time>2023-01-21T11:47:32.000Z</time>
      </trkpt>
      <trkpt lat="46.27066" lon="6.56747">
        <ele>1540.7</ele>
        <time>2023-01-21T11:47:33.000Z</time>
      </trkpt>
      <trkpt lat="46.27066" lon="6.56747">
        <ele>1540.7</ele>
        <time>2023-01-21T11:47:34.000Z</time>
      </trkpt>
      <trkpt lat="46.27066" lon="6.56747">
        <ele>1540.7</ele>
        <time>2023-01-21T11:47:35.000Z</time>
      </trkpt>
      <trkpt lat="46.27066" lon="6.56747">
        <ele>1540.7</ele>
        <time>2023-01-21T11:47:36.000Z</time>
      </trkpt>
      <trkpt lat="46.27073" lon="6.56756">
        <ele>1541.7</ele>
        <time>2023-01-21T11:47:37.000Z</time>
      </trkpt>
      <trkpt lat="46.27074" lon="6.56757">
        <ele>1541.9</ele>
        <time>2023-01-21T11:47:38.000Z</time>
      </trkpt>
      <trkpt lat="46.27074" lon="6.56757">
        <ele>1542.1</ele>
        <time>2023-01-21T11:47:39.000Z</time>
      </trkpt>
      <trkpt lat="46.27075" lon="6.56758">
        <ele>1542.3</ele>
        <time>2023-01-21T11:47:40.000Z</time>
      </trkpt>
      <trkpt lat="46.27075" lon="6.56758">
        <ele>1542.3</ele>
        <time>2023-01-21T11:47:41.000Z</time>
      </trkpt>
      <trkpt lat="46.27075" lon="6.56758">
        <ele>1542.3</ele>
        <time>2023-01-21T11:47:42.000Z</time>
      </trkpt>
      <trkpt lat="46.27075" lon="6.56758">
        <ele>1542.3</ele>
        <time>2023-01-21T11:47:43.000Z</time>
      </trkpt>
      <trkpt lat="46.27075" lon="6.56758">
        <ele>1542.3</ele>
        <time>2023-01-21T11:47:44.000Z</time>
      </trkpt>
      <trkpt lat="46.27075" lon="6.56758">
        <ele>1542.3</ele>
        <time>2023-01-21T11:47:45.000Z</time>
      </trkpt>
      <trkpt lat="46.27075" lon="6.56758">
        <ele>1542.3</ele>
        <time>2023-01-21T11:47:46.000Z</time>
      </trkpt>
      <trkpt lat="46.27075" lon="6.56758">
        <ele>1542.3</ele>
        <time>2023-01-21T11:47:47.000Z</time>
      </trkpt>
      <trkpt lat="46.27075" lon="6.56758">
        <ele>1542.3</ele>
        <time>2023-01-21T11:47:48.000Z</time>
      </trkpt>
      <trkpt lat="46.27075" lon="6.56758">
        <ele>1542.3</ele>
        <time>2023-01-21T11:47:49.000Z</time>
      </trkpt>
      <trkpt lat="46.27075" lon="6.56758">
        <ele>1542.3</ele>
        <time>2023-01-21T11:47:50.000Z</time>
      </trkpt>
      <trkpt lat="46.27075" lon="6.56758">
        <ele>1542.3</ele>
        <time>2023-01-21T11:47:51.000Z</time>
      </trkpt>
      <trkpt lat="46.27075" lon="6.56758">
        <ele>1542.3</ele>
        <time>2023-01-21T11:47:52.000Z</time>
      </trkpt>
      <trkpt lat="46.27081" lon="6.56767">
        <ele>1544</ele>
        <time>2023-01-21T11:47:53.000Z</time>
      </trkpt>
      <trkpt lat="46.27082" lon="6.56768">
        <ele>1544.2</ele>
        <time>2023-01-21T11:47:54.000Z</time>
      </trkpt>
      <trkpt lat="46.27083" lon="6.56769">
        <ele>1544.3</ele>
        <time>2023-01-21T11:47:55.000Z</time>
      </trkpt>
      <trkpt lat="46.27084" lon="6.5677">
        <ele>1544.3</ele>
        <time>2023-01-21T11:47:56.000Z</time>
      </trkpt>
      <trkpt lat="46.27084" lon="6.5677">
        <ele>1544.3</ele>
        <time>2023-01-21T11:47:57.000Z</time>
      </trkpt>
      <trkpt lat="46.27084" lon="6.5677">
        <ele>1544.3</ele>
        <time>2023-01-21T11:47:58.000Z</time>
      </trkpt>
      <trkpt lat="46.27084" lon="6.5677">
        <ele>1544.3</ele>
        <time>2023-01-21T11:47:59.000Z</time>
      </trkpt>
      <trkpt lat="46.27087" lon="6.56773">
        <ele>1545</ele>
        <time>2023-01-21T11:48:00.000Z</time>
      </trkpt>
      <trkpt lat="46.27088" lon="6.56774">
        <ele>1545.1</ele>
        <time>2023-01-21T11:48:01.000Z</time>
      </trkpt>
      <trkpt lat="46.27089" lon="6.56775">
        <ele>1545.2</ele>
        <time>2023-01-21T11:48:02.000Z</time>
      </trkpt>
      <trkpt lat="46.27089" lon="6.56775">
        <ele>1545.3</ele>
        <time>2023-01-21T11:48:03.000Z</time>
      </trkpt>
      <trkpt lat="46.27089" lon="6.56776">
        <ele>1545.4</ele>
        <time>2023-01-21T11:48:04.000Z</time>
      </trkpt>
      <trkpt lat="46.27089" lon="6.56777">
        <ele>1545.6</ele>
        <time>2023-01-21T11:48:05.000Z</time>
      </trkpt>
      <trkpt lat="46.27089" lon="6.56778">
        <ele>1545.6</ele>
        <time>2023-01-21T11:48:06.000Z</time>
      </trkpt>
      <trkpt lat="46.27089" lon="6.56777">
        <ele>1545.6</ele>
        <time>2023-01-21T11:48:07.000Z</time>
      </trkpt>
      <trkpt lat="46.27089" lon="6.56778">
        <ele>1545.6</ele>
        <time>2023-01-21T11:48:08.000Z</time>
      </trkpt>
      <trkpt lat="46.27089" lon="6.56778">
        <ele>1545.6</ele>
        <time>2023-01-21T11:48:09.000Z</time>
      </trkpt>
      <trkpt lat="46.27089" lon="6.56778">
        <ele>1545.6</ele>
        <time>2023-01-21T11:48:10.000Z</time>
      </trkpt>
      <trkpt lat="46.27089" lon="6.56778">
        <ele>1545.6</ele>
        <time>2023-01-21T11:48:11.000Z</time>
      </trkpt>
      <trkpt lat="46.27089" lon="6.56778">
        <ele>1545.6</ele>
        <time>2023-01-21T11:48:12.000Z</time>
      </trkpt>
      <trkpt lat="46.27089" lon="6.56778">
        <ele>1545.6</ele>
        <time>2023-01-21T11:48:13.000Z</time>
      </trkpt>
      <trkpt lat="46.27089" lon="6.56778">
        <ele>1545.6</ele>
        <time>2023-01-21T11:48:14.000Z</time>
      </trkpt>
      <trkpt lat="46.27089" lon="6.56778">
        <ele>1545.6</ele>
        <time>2023-01-21T11:48:15.000Z</time>
      </trkpt>
      <trkpt lat="46.27089" lon="6.56778">
        <ele>1545.6</ele>
        <time>2023-01-21T11:48:16.000Z</time>
      </trkpt>
      <trkpt lat="46.27089" lon="6.56778">
        <ele>1545.6</ele>
        <time>2023-01-21T11:48:17.000Z</time>
      </trkpt>
      <trkpt lat="46.27089" lon="6.56778">
        <ele>1545.6</ele>
        <time>2023-01-21T11:48:18.000Z</time>
      </trkpt>
      <trkpt lat="46.27089" lon="6.56778">
        <ele>1545.6</ele>
        <time>2023-01-21T11:48:19.000Z</time>
      </trkpt>
      <trkpt lat="46.27089" lon="6.56778">
        <ele>1545.6</ele>
        <time>2023-01-21T11:48:20.000Z</time>
      </trkpt>
      <trkpt lat="46.27089" lon="6.56778">
        <ele>1545.6</ele>
        <time>2023-01-21T11:48:21.000Z</time>
      </trkpt>
      <trkpt lat="46.27089" lon="6.56778">
        <ele>1545.6</ele>
        <time>2023-01-21T11:48:22.000Z</time>
      </trkpt>
      <trkpt lat="46.27089" lon="6.56778">
        <ele>1545.6</ele>
        <time>2023-01-21T11:48:23.000Z</time>
      </trkpt>
      <trkpt lat="46.27098" lon="6.56783">
        <ele>1547.7</ele>
        <time>2023-01-21T11:48:24.000Z</time>
      </trkpt>
      <trkpt lat="46.27098" lon="6.56784">
        <ele>1547.9</ele>
        <time>2023-01-21T11:48:25.000Z</time>
      </trkpt>
      <trkpt lat="46.27098" lon="6.56785">
        <ele>1547.9</ele>
        <time>2023-01-21T11:48:26.000Z</time>
      </trkpt>
      <trkpt lat="46.27099" lon="6.56785">
        <ele>1548</ele>
        <time>2023-01-21T11:48:27.000Z</time>
      </trkpt>
      <trkpt lat="46.27099" lon="6.56785">
        <ele>1548</ele>
        <time>2023-01-21T11:48:28.000Z</time>
      </trkpt>
      <trkpt lat="46.27099" lon="6.56785">
        <ele>1548</ele>
        <time>2023-01-21T11:48:29.000Z</time>
      </trkpt>
      <trkpt lat="46.27099" lon="6.56785">
        <ele>1548</ele>
        <time>2023-01-21T11:48:30.000Z</time>
      </trkpt>
      <trkpt lat="46.27099" lon="6.56785">
        <ele>1548</ele>
        <time>2023-01-21T11:48:31.000Z</time>
      </trkpt>
      <trkpt lat="46.27099" lon="6.56785">
        <ele>1548</ele>
        <time>2023-01-21T11:48:32.000Z</time>
      </trkpt>
      <trkpt lat="46.27099" lon="6.56785">
        <ele>1548</ele>
        <time>2023-01-21T11:48:33.000Z</time>
      </trkpt>
      <trkpt lat="46.27099" lon="6.56785">
        <ele>1548</ele>
        <time>2023-01-21T11:48:34.000Z</time>
      </trkpt>
      <trkpt lat="46.27099" lon="6.56785">
        <ele>1548</ele>
        <time>2023-01-21T11:48:35.000Z</time>
      </trkpt>
      <trkpt lat="46.27099" lon="6.56785">
        <ele>1548</ele>
        <time>2023-01-21T11:48:36.000Z</time>
      </trkpt>
      <trkpt lat="46.27099" lon="6.56785">
        <ele>1548</ele>
        <time>2023-01-21T11:48:37.000Z</time>
      </trkpt>
      <trkpt lat="46.27107" lon="6.56792">
        <ele>1549.4</ele>
        <time>2023-01-21T11:48:38.000Z</time>
      </trkpt>
      <trkpt lat="46.27108" lon="6.56792">
        <ele>1549.5</ele>
        <time>2023-01-21T11:48:39.000Z</time>
      </trkpt>
      <trkpt lat="46.27108" lon="6.56792">
        <ele>1549.5</ele>
        <time>2023-01-21T11:48:40.000Z</time>
      </trkpt>
      <trkpt lat="46.27108" lon="6.56793">
        <ele>1549.5</ele>
        <time>2023-01-21T11:48:41.000Z</time>
      </trkpt>
      <trkpt lat="46.27108" lon="6.56793">
        <ele>1549.5</ele>
        <time>2023-01-21T11:48:42.000Z</time>
      </trkpt>
      <trkpt lat="46.27108" lon="6.56793">
        <ele>1549.5</ele>
        <time>2023-01-21T11:48:43.000Z</time>
      </trkpt>
      <trkpt lat="46.27108" lon="6.56793">
        <ele>1549.5</ele>
        <time>2023-01-21T11:48:44.000Z</time>
      </trkpt>
      <trkpt lat="46.27108" lon="6.56793">
        <ele>1549.5</ele>
        <time>2023-01-21T11:48:45.000Z</time>
      </trkpt>
      <trkpt lat="46.27108" lon="6.56793">
        <ele>1549.5</ele>
        <time>2023-01-21T11:48:46.000Z</time>
      </trkpt>
      <trkpt lat="46.27108" lon="6.56793">
        <ele>1549.5</ele>
        <time>2023-01-21T11:48:47.000Z</time>
      </trkpt>
      <trkpt lat="46.27108" lon="6.56793">
        <ele>1549.5</ele>
        <time>2023-01-21T11:48:48.000Z</time>
      </trkpt>
      <trkpt lat="46.27108" lon="6.56793">
        <ele>1549.5</ele>
        <time>2023-01-21T11:48:49.000Z</time>
      </trkpt>
      <trkpt lat="46.27108" lon="6.56793">
        <ele>1549.5</ele>
        <time>2023-01-21T11:48:50.000Z</time>
      </trkpt>
      <trkpt lat="46.27108" lon="6.56793">
        <ele>1549.5</ele>
        <time>2023-01-21T11:48:51.000Z</time>
      </trkpt>
      <trkpt lat="46.27108" lon="6.56793">
        <ele>1549.5</ele>
        <time>2023-01-21T11:48:52.000Z</time>
      </trkpt>
      <trkpt lat="46.27116" lon="6.568">
        <ele>1549.9</ele>
        <time>2023-01-21T11:48:53.000Z</time>
      </trkpt>
      <trkpt lat="46.27117" lon="6.56801">
        <ele>1549.9</ele>
        <time>2023-01-21T11:48:54.000Z</time>
      </trkpt>
      <trkpt lat="46.27117" lon="6.56802">
        <ele>1549.9</ele>
        <time>2023-01-21T11:48:55.000Z</time>
      </trkpt>
      <trkpt lat="46.27117" lon="6.56803">
        <ele>1550</ele>
        <time>2023-01-21T11:48:56.000Z</time>
      </trkpt>
      <trkpt lat="46.27117" lon="6.56803">
        <ele>1550</ele>
        <time>2023-01-21T11:48:57.000Z</time>
      </trkpt>
      <trkpt lat="46.27117" lon="6.56803">
        <ele>1550</ele>
        <time>2023-01-21T11:48:58.000Z</time>
      </trkpt>
      <trkpt lat="46.27117" lon="6.56803">
        <ele>1550</ele>
        <time>2023-01-21T11:48:59.000Z</time>
      </trkpt>
      <trkpt lat="46.27117" lon="6.56803">
        <ele>1550</ele>
        <time>2023-01-21T11:49:00.000Z</time>
      </trkpt>
      <trkpt lat="46.27117" lon="6.56803">
        <ele>1550</ele>
        <time>2023-01-21T11:49:01.000Z</time>
      </trkpt>
      <trkpt lat="46.27117" lon="6.56803">
        <ele>1550</ele>
        <time>2023-01-21T11:49:02.000Z</time>
      </trkpt>
      <trkpt lat="46.27117" lon="6.56803">
        <ele>1550</ele>
        <time>2023-01-21T11:49:03.000Z</time>
      </trkpt>
      <trkpt lat="46.27117" lon="6.56803">
        <ele>1550</ele>
        <time>2023-01-21T11:49:04.000Z</time>
      </trkpt>
      <trkpt lat="46.27122" lon="6.56815">
        <ele>1550.2</ele>
        <time>2023-01-21T11:49:05.000Z</time>
      </trkpt>
      <trkpt lat="46.27123" lon="6.56814">
        <ele>1550.2</ele>
        <time>2023-01-21T11:49:06.000Z</time>
      </trkpt>
      <trkpt lat="46.27123" lon="6.56815">
        <ele>1550.4</ele>
        <time>2023-01-21T11:49:07.000Z</time>
      </trkpt>
      <trkpt lat="46.27124" lon="6.56815">
        <ele>1550.5</ele>
        <time>2023-01-21T11:49:08.000Z</time>
      </trkpt>
      <trkpt lat="46.27124" lon="6.56815">
        <ele>1550.5</ele>
        <time>2023-01-21T11:49:09.000Z</time>
      </trkpt>
      <trkpt lat="46.27124" lon="6.56815">
        <ele>1550.5</ele>
        <time>2023-01-21T11:49:10.000Z</time>
      </trkpt>
      <trkpt lat="46.27124" lon="6.56815">
        <ele>1550.5</ele>
        <time>2023-01-21T11:49:11.000Z</time>
      </trkpt>
      <trkpt lat="46.27124" lon="6.56815">
        <ele>1550.5</ele>
        <time>2023-01-21T11:49:12.000Z</time>
      </trkpt>
      <trkpt lat="46.27124" lon="6.56815">
        <ele>1550.5</ele>
        <time>2023-01-21T11:49:13.000Z</time>
      </trkpt>
      <trkpt lat="46.27124" lon="6.56815">
        <ele>1550.5</ele>
        <time>2023-01-21T11:49:14.000Z</time>
      </trkpt>
      <trkpt lat="46.27124" lon="6.56815">
        <ele>1550.5</ele>
        <time>2023-01-21T11:49:15.000Z</time>
      </trkpt>
      <trkpt lat="46.27124" lon="6.56815">
        <ele>1550.5</ele>
        <time>2023-01-21T11:49:16.000Z</time>
      </trkpt>
      <trkpt lat="46.27124" lon="6.56815">
        <ele>1550.5</ele>
        <time>2023-01-21T11:49:17.000Z</time>
      </trkpt>
      <trkpt lat="46.27124" lon="6.56815">
        <ele>1550.5</ele>
        <time>2023-01-21T11:49:18.000Z</time>
      </trkpt>
      <trkpt lat="46.27124" lon="6.56815">
        <ele>1550.5</ele>
        <time>2023-01-21T11:49:19.000Z</time>
      </trkpt>
      <trkpt lat="46.27124" lon="6.56815">
        <ele>1550.5</ele>
        <time>2023-01-21T11:49:20.000Z</time>
      </trkpt>
      <trkpt lat="46.27124" lon="6.56815">
        <ele>1550.5</ele>
        <time>2023-01-21T11:49:21.000Z</time>
      </trkpt>
      <trkpt lat="46.27124" lon="6.56815">
        <ele>1550.5</ele>
        <time>2023-01-21T11:49:22.000Z</time>
      </trkpt>
      <trkpt lat="46.27133" lon="6.56821">
        <ele>1551.3</ele>
        <time>2023-01-21T11:49:23.000Z</time>
      </trkpt>
      <trkpt lat="46.27133" lon="6.56821">
        <ele>1551.4</ele>
        <time>2023-01-21T11:49:24.000Z</time>
      </trkpt>
      <trkpt lat="46.27134" lon="6.56821">
        <ele>1551.4</ele>
        <time>2023-01-21T11:49:25.000Z</time>
      </trkpt>
      <trkpt lat="46.27135" lon="6.56822">
        <ele>1551.5</ele>
        <time>2023-01-21T11:49:26.000Z</time>
      </trkpt>
      <trkpt lat="46.27135" lon="6.56822">
        <ele>1551.5</ele>
        <time>2023-01-21T11:49:27.000Z</time>
      </trkpt>
      <trkpt lat="46.27135" lon="6.56822">
        <ele>1551.5</ele>
        <time>2023-01-21T11:49:28.000Z</time>
      </trkpt>
      <trkpt lat="46.27135" lon="6.56822">
        <ele>1551.5</ele>
        <time>2023-01-21T11:49:29.000Z</time>
      </trkpt>
      <trkpt lat="46.27135" lon="6.56822">
        <ele>1551.5</ele>
        <time>2023-01-21T11:49:30.000Z</time>
      </trkpt>
      <trkpt lat="46.27135" lon="6.56822">
        <ele>1551.5</ele>
        <time>2023-01-21T11:49:31.000Z</time>
      </trkpt>
      <trkpt lat="46.27135" lon="6.56822">
        <ele>1551.5</ele>
        <time>2023-01-21T11:49:32.000Z</time>
      </trkpt>
      <trkpt lat="46.27135" lon="6.56822">
        <ele>1551.5</ele>
        <time>2023-01-21T11:49:33.000Z</time>
      </trkpt>
      <trkpt lat="46.27135" lon="6.56822">
        <ele>1551.5</ele>
        <time>2023-01-21T11:49:34.000Z</time>
      </trkpt>
      <trkpt lat="46.27135" lon="6.56822">
        <ele>1551.5</ele>
        <time>2023-01-21T11:49:35.000Z</time>
      </trkpt>
      <trkpt lat="46.27135" lon="6.56822">
        <ele>1551.5</ele>
        <time>2023-01-21T11:49:36.000Z</time>
      </trkpt>
      <trkpt lat="46.27141" lon="6.56832">
        <ele>1553</ele>
        <time>2023-01-21T11:49:37.000Z</time>
      </trkpt>
      <trkpt lat="46.27142" lon="6.56833">
        <ele>1553.2</ele>
        <time>2023-01-21T11:49:38.000Z</time>
      </trkpt>
      <trkpt lat="46.27142" lon="6.56833">
        <ele>1553.4</ele>
        <time>2023-01-21T11:49:39.000Z</time>
      </trkpt>
      <trkpt lat="46.27142" lon="6.56834">
        <ele>1553.4</ele>
        <time>2023-01-21T11:49:40.000Z</time>
      </trkpt>
      <trkpt lat="46.27142" lon="6.56834">
        <ele>1553.4</ele>
        <time>2023-01-21T11:49:41.000Z</time>
      </trkpt>
      <trkpt lat="46.27142" lon="6.56834">
        <ele>1553.4</ele>
        <time>2023-01-21T11:49:42.000Z</time>
      </trkpt>
      <trkpt lat="46.27142" lon="6.56834">
        <ele>1553.4</ele>
        <time>2023-01-21T11:49:43.000Z</time>
      </trkpt>
      <trkpt lat="46.27142" lon="6.56834">
        <ele>1553.4</ele>
        <time>2023-01-21T11:49:44.000Z</time>
      </trkpt>
      <trkpt lat="46.27142" lon="6.56834">
        <ele>1553.4</ele>
        <time>2023-01-21T11:49:45.000Z</time>
      </trkpt>
      <trkpt lat="46.27142" lon="6.56834">
        <ele>1553.4</ele>
        <time>2023-01-21T11:49:46.000Z</time>
      </trkpt>
      <trkpt lat="46.27142" lon="6.56834">
        <ele>1553.4</ele>
        <time>2023-01-21T11:49:47.000Z</time>
      </trkpt>
      <trkpt lat="46.27142" lon="6.56834">
        <ele>1553.4</ele>
        <time>2023-01-21T11:49:48.000Z</time>
      </trkpt>
      <trkpt lat="46.27142" lon="6.56834">
        <ele>1553.4</ele>
        <time>2023-01-21T11:49:49.000Z</time>
      </trkpt>
      <trkpt lat="46.27142" lon="6.56834">
        <ele>1553.4</ele>
        <time>2023-01-21T11:49:50.000Z</time>
      </trkpt>
      <trkpt lat="46.27142" lon="6.56834">
        <ele>1553.4</ele>
        <time>2023-01-21T11:49:51.000Z</time>
      </trkpt>
      <trkpt lat="46.27142" lon="6.56834">
        <ele>1553.4</ele>
        <time>2023-01-21T11:49:52.000Z</time>
      </trkpt>
      <trkpt lat="46.27142" lon="6.56834">
        <ele>1553.4</ele>
        <time>2023-01-21T11:49:53.000Z</time>
      </trkpt>
      <trkpt lat="46.27142" lon="6.56834">
        <ele>1553.4</ele>
        <time>2023-01-21T11:49:54.000Z</time>
      </trkpt>
      <trkpt lat="46.27149" lon="6.56843">
        <ele>1554.7</ele>
        <time>2023-01-21T11:49:55.000Z</time>
      </trkpt>
      <trkpt lat="46.27149" lon="6.56843">
        <ele>1554.7</ele>
        <time>2023-01-21T11:49:56.000Z</time>
      </trkpt>
      <trkpt lat="46.2715" lon="6.56844">
        <ele>1554.8</ele>
        <time>2023-01-21T11:49:57.000Z</time>
      </trkpt>
      <trkpt lat="46.27151" lon="6.56845">
        <ele>1555</ele>
        <time>2023-01-21T11:49:58.000Z</time>
      </trkpt>
      <trkpt lat="46.27151" lon="6.56845">
        <ele>1555</ele>
        <time>2023-01-21T11:49:59.000Z</time>
      </trkpt>
      <trkpt lat="46.27151" lon="6.56845">
        <ele>1555</ele>
        <time>2023-01-21T11:50:00.000Z</time>
      </trkpt>
      <trkpt lat="46.27151" lon="6.56845">
        <ele>1555</ele>
        <time>2023-01-21T11:50:01.000Z</time>
      </trkpt>
      <trkpt lat="46.27151" lon="6.56845">
        <ele>1555</ele>
        <time>2023-01-21T11:50:02.000Z</time>
      </trkpt>
      <trkpt lat="46.27151" lon="6.56845">
        <ele>1555</ele>
        <time>2023-01-21T11:50:03.000Z</time>
      </trkpt>
      <trkpt lat="46.27151" lon="6.56845">
        <ele>1555</ele>
        <time>2023-01-21T11:50:04.000Z</time>
      </trkpt>
      <trkpt lat="46.27151" lon="6.56845">
        <ele>1555</ele>
        <time>2023-01-21T11:50:05.000Z</time>
      </trkpt>
      <trkpt lat="46.27151" lon="6.56845">
        <ele>1555</ele>
        <time>2023-01-21T11:50:06.000Z</time>
      </trkpt>
      <trkpt lat="46.27151" lon="6.56845">
        <ele>1555</ele>
        <time>2023-01-21T11:50:07.000Z</time>
      </trkpt>
      <trkpt lat="46.27151" lon="6.56845">
        <ele>1555</ele>
        <time>2023-01-21T11:50:08.000Z</time>
      </trkpt>
      <trkpt lat="46.27159" lon="6.56852">
        <ele>1555.7</ele>
        <time>2023-01-21T11:50:09.000Z</time>
      </trkpt>
      <trkpt lat="46.27159" lon="6.56852">
        <ele>1555.7</ele>
        <time>2023-01-21T11:50:10.000Z</time>
      </trkpt>
      <trkpt lat="46.2716" lon="6.56853">
        <ele>1555.8</ele>
        <time>2023-01-21T11:50:11.000Z</time>
      </trkpt>
      <trkpt lat="46.2716" lon="6.56853">
        <ele>1555.8</ele>
        <time>2023-01-21T11:50:12.000Z</time>
      </trkpt>
      <trkpt lat="46.2716" lon="6.56853">
        <ele>1555.8</ele>
        <time>2023-01-21T11:50:13.000Z</time>
      </trkpt>
      <trkpt lat="46.2716" lon="6.56853">
        <ele>1555.8</ele>
        <time>2023-01-21T11:50:14.000Z</time>
      </trkpt>
      <trkpt lat="46.2716" lon="6.56853">
        <ele>1555.8</ele>
        <time>2023-01-21T11:50:15.000Z</time>
      </trkpt>
      <trkpt lat="46.2716" lon="6.56853">
        <ele>1555.8</ele>
        <time>2023-01-21T11:50:16.000Z</time>
      </trkpt>
      <trkpt lat="46.2716" lon="6.56853">
        <ele>1555.8</ele>
        <time>2023-01-21T11:50:17.000Z</time>
      </trkpt>
      <trkpt lat="46.27162" lon="6.56858">
        <ele>1557</ele>
        <time>2023-01-21T11:50:18.000Z</time>
      </trkpt>
      <trkpt lat="46.27162" lon="6.56858">
        <ele>1557.1</ele>
        <time>2023-01-21T11:50:19.000Z</time>
      </trkpt>
      <trkpt lat="46.27163" lon="6.56859">
        <ele>1557.3</ele>
        <time>2023-01-21T11:50:20.000Z</time>
      </trkpt>
      <trkpt lat="46.27164" lon="6.56859">
        <ele>1557.7</ele>
        <time>2023-01-21T11:50:21.000Z</time>
      </trkpt>
      <trkpt lat="46.27164" lon="6.56859">
        <ele>1557.7</ele>
        <time>2023-01-21T11:50:22.000Z</time>
      </trkpt>
      <trkpt lat="46.27164" lon="6.56859">
        <ele>1557.7</ele>
        <time>2023-01-21T11:50:23.000Z</time>
      </trkpt>
      <trkpt lat="46.27164" lon="6.56859">
        <ele>1557.7</ele>
        <time>2023-01-21T11:50:24.000Z</time>
      </trkpt>
      <trkpt lat="46.27164" lon="6.56859">
        <ele>1557.7</ele>
        <time>2023-01-21T11:50:25.000Z</time>
      </trkpt>
      <trkpt lat="46.27164" lon="6.56859">
        <ele>1557.7</ele>
        <time>2023-01-21T11:50:26.000Z</time>
      </trkpt>
      <trkpt lat="46.27164" lon="6.56859">
        <ele>1557.7</ele>
        <time>2023-01-21T11:50:27.000Z</time>
      </trkpt>
      <trkpt lat="46.27164" lon="6.56859">
        <ele>1557.7</ele>
        <time>2023-01-21T11:50:28.000Z</time>
      </trkpt>
      <trkpt lat="46.27164" lon="6.56859">
        <ele>1557.7</ele>
        <time>2023-01-21T11:50:29.000Z</time>
      </trkpt>
      <trkpt lat="46.27164" lon="6.56859">
        <ele>1557.7</ele>
        <time>2023-01-21T11:50:30.000Z</time>
      </trkpt>
      <trkpt lat="46.27164" lon="6.56859">
        <ele>1557.7</ele>
        <time>2023-01-21T11:50:31.000Z</time>
      </trkpt>
      <trkpt lat="46.27164" lon="6.56859">
        <ele>1557.7</ele>
        <time>2023-01-21T11:50:32.000Z</time>
      </trkpt>
      <trkpt lat="46.27164" lon="6.56859">
        <ele>1557.7</ele>
        <time>2023-01-21T11:50:33.000Z</time>
      </trkpt>
      <trkpt lat="46.27164" lon="6.56859">
        <ele>1557.7</ele>
        <time>2023-01-21T11:50:34.000Z</time>
      </trkpt>
      <trkpt lat="46.27164" lon="6.56859">
        <ele>1557.7</ele>
        <time>2023-01-21T11:50:35.000Z</time>
      </trkpt>
      <trkpt lat="46.27171" lon="6.56869">
        <ele>1561</ele>
        <time>2023-01-21T11:50:36.000Z</time>
      </trkpt>
      <trkpt lat="46.27171" lon="6.5687">
        <ele>1561.2</ele>
        <time>2023-01-21T11:50:37.000Z</time>
      </trkpt>
      <trkpt lat="46.27171" lon="6.5687">
        <ele>1561.4</ele>
        <time>2023-01-21T11:50:38.000Z</time>
      </trkpt>
      <trkpt lat="46.27172" lon="6.56871">
        <ele>1561.6</ele>
        <time>2023-01-21T11:50:39.000Z</time>
      </trkpt>
      <trkpt lat="46.27172" lon="6.56871">
        <ele>1561.6</ele>
        <time>2023-01-21T11:50:40.000Z</time>
      </trkpt>
      <trkpt lat="46.27172" lon="6.56871">
        <ele>1561.6</ele>
        <time>2023-01-21T11:50:41.000Z</time>
      </trkpt>
      <trkpt lat="46.27172" lon="6.56871">
        <ele>1561.6</ele>
        <time>2023-01-21T11:50:42.000Z</time>
      </trkpt>
      <trkpt lat="46.27172" lon="6.56871">
        <ele>1561.6</ele>
        <time>2023-01-21T11:50:43.000Z</time>
      </trkpt>
      <trkpt lat="46.27172" lon="6.56871">
        <ele>1561.6</ele>
        <time>2023-01-21T11:50:44.000Z</time>
      </trkpt>
      <trkpt lat="46.27172" lon="6.56871">
        <ele>1561.6</ele>
        <time>2023-01-21T11:50:45.000Z</time>
      </trkpt>
      <trkpt lat="46.27172" lon="6.56871">
        <ele>1561.6</ele>
        <time>2023-01-21T11:50:46.000Z</time>
      </trkpt>
      <trkpt lat="46.27172" lon="6.56871">
        <ele>1561.6</ele>
        <time>2023-01-21T11:50:47.000Z</time>
      </trkpt>
      <trkpt lat="46.27172" lon="6.56871">
        <ele>1561.6</ele>
        <time>2023-01-21T11:50:48.000Z</time>
      </trkpt>
      <trkpt lat="46.27172" lon="6.56871">
        <ele>1561.6</ele>
        <time>2023-01-21T11:50:49.000Z</time>
      </trkpt>
      <trkpt lat="46.27172" lon="6.56871">
        <ele>1561.6</ele>
        <time>2023-01-21T11:50:50.000Z</time>
      </trkpt>
      <trkpt lat="46.27172" lon="6.56871">
        <ele>1561.6</ele>
        <time>2023-01-21T11:50:51.000Z</time>
      </trkpt>
      <trkpt lat="46.27172" lon="6.56871">
        <ele>1561.6</ele>
        <time>2023-01-21T11:50:52.000Z</time>
      </trkpt>
      <trkpt lat="46.27172" lon="6.56871">
        <ele>1561.6</ele>
        <time>2023-01-21T11:50:53.000Z</time>
      </trkpt>
      <trkpt lat="46.27172" lon="6.56871">
        <ele>1561.6</ele>
        <time>2023-01-21T11:50:54.000Z</time>
      </trkpt>
      <trkpt lat="46.27172" lon="6.56871">
        <ele>1561.6</ele>
        <time>2023-01-21T11:50:55.000Z</time>
      </trkpt>
      <trkpt lat="46.27172" lon="6.56871">
        <ele>1561.6</ele>
        <time>2023-01-21T11:50:56.000Z</time>
      </trkpt>
      <trkpt lat="46.27172" lon="6.56871">
        <ele>1561.6</ele>
        <time>2023-01-21T11:50:57.000Z</time>
      </trkpt>
      <trkpt lat="46.27172" lon="6.56871">
        <ele>1565.2</ele>
        <time>2023-01-21T11:50:58.000Z</time>
      </trkpt>
      <trkpt lat="46.27172" lon="6.56871">
        <ele>1565.2</ele>
        <time>2023-01-21T11:50:59.000Z</time>
      </trkpt>
      <trkpt lat="46.27172" lon="6.56871">
        <ele>1565.2</ele>
        <time>2023-01-21T11:51:00.000Z</time>
      </trkpt>
      <trkpt lat="46.27172" lon="6.56871">
        <ele>1565.2</ele>
        <time>2023-01-21T11:51:01.000Z</time>
      </trkpt>
      <trkpt lat="46.27172" lon="6.56871">
        <ele>1565.2</ele>
        <time>2023-01-21T11:51:02.000Z</time>
      </trkpt>
      <trkpt lat="46.27172" lon="6.56871">
        <ele>1565.2</ele>
        <time>2023-01-21T11:51:03.000Z</time>
      </trkpt>
      <trkpt lat="46.27172" lon="6.56871">
        <ele>1565.2</ele>
        <time>2023-01-21T11:51:04.000Z</time>
      </trkpt>
      <trkpt lat="46.27172" lon="6.56871">
        <ele>1565.2</ele>
        <time>2023-01-21T11:51:05.000Z</time>
      </trkpt>
      <trkpt lat="46.27172" lon="6.56871">
        <ele>1565.2</ele>
        <time>2023-01-21T11:51:06.000Z</time>
      </trkpt>
      <trkpt lat="46.27172" lon="6.56871">
        <ele>1565.2</ele>
        <time>2023-01-21T11:51:07.000Z</time>
      </trkpt>
      <trkpt lat="46.27172" lon="6.56871">
        <ele>1565.2</ele>
        <time>2023-01-21T11:51:08.000Z</time>
      </trkpt>
      <trkpt lat="46.27172" lon="6.56871">
        <ele>1565.2</ele>
        <time>2023-01-21T11:51:09.000Z</time>
      </trkpt>
      <trkpt lat="46.27172" lon="6.56871">
        <ele>1565.2</ele>
        <time>2023-01-21T11:51:10.000Z</time>
      </trkpt>
      <trkpt lat="46.27177" lon="6.56883">
        <ele>1566.8</ele>
        <time>2023-01-21T11:51:11.000Z</time>
      </trkpt>
      <trkpt lat="46.27177" lon="6.56884">
        <ele>1566.7</ele>
        <time>2023-01-21T11:51:12.000Z</time>
      </trkpt>
      <trkpt lat="46.27178" lon="6.56884">
        <ele>1566.8</ele>
        <time>2023-01-21T11:51:13.000Z</time>
      </trkpt>
      <trkpt lat="46.27178" lon="6.56885">
        <ele>1566.9</ele>
        <time>2023-01-21T11:51:14.000Z</time>
      </trkpt>
      <trkpt lat="46.27178" lon="6.56885">
        <ele>1567.1</ele>
        <time>2023-01-21T11:51:15.000Z</time>
      </trkpt>
      <trkpt lat="46.27178" lon="6.56884">
        <ele>1567.7</ele>
        <time>2023-01-21T11:51:16.000Z</time>
      </trkpt>
      <trkpt lat="46.27178" lon="6.56884">
        <ele>1567.8</ele>
        <time>2023-01-21T11:51:17.000Z</time>
      </trkpt>
      <trkpt lat="46.27178" lon="6.56884">
        <ele>1567.8</ele>
        <time>2023-01-21T11:51:18.000Z</time>
      </trkpt>
      <trkpt lat="46.27178" lon="6.56884">
        <ele>1567.8</ele>
        <time>2023-01-21T11:51:19.000Z</time>
      </trkpt>
      <trkpt lat="46.27178" lon="6.56884">
        <ele>1567.8</ele>
        <time>2023-01-21T11:51:20.000Z</time>
      </trkpt>
      <trkpt lat="46.27178" lon="6.56884">
        <ele>1567.8</ele>
        <time>2023-01-21T11:51:21.000Z</time>
      </trkpt>
      <trkpt lat="46.27179" lon="6.56879">
        <ele>1569.6</ele>
        <time>2023-01-21T11:51:22.000Z</time>
      </trkpt>
      <trkpt lat="46.27178" lon="6.56875">
        <ele>1570.6</ele>
        <time>2023-01-21T11:51:23.000Z</time>
      </trkpt>
      <trkpt lat="46.27177" lon="6.56871">
        <ele>1571.5</ele>
        <time>2023-01-21T11:51:24.000Z</time>
      </trkpt>
      <trkpt lat="46.27176" lon="6.5687">
        <ele>1572</ele>
        <time>2023-01-21T11:51:25.000Z</time>
      </trkpt>
      <trkpt lat="46.27176" lon="6.56871">
        <ele>1572.7</ele>
        <time>2023-01-21T11:51:26.000Z</time>
      </trkpt>
      <trkpt lat="46.27176" lon="6.56873">
        <ele>1573.2</ele>
        <time>2023-01-21T11:51:27.000Z</time>
      </trkpt>
      <trkpt lat="46.27177" lon="6.56873">
        <ele>1573.8</ele>
        <time>2023-01-21T11:51:28.000Z</time>
      </trkpt>
      <trkpt lat="46.27178" lon="6.56872">
        <ele>1574.2</ele>
        <time>2023-01-21T11:51:29.000Z</time>
      </trkpt>
      <trkpt lat="46.2718" lon="6.56871">
        <ele>1574.6</ele>
        <time>2023-01-21T11:51:30.000Z</time>
      </trkpt>
      <trkpt lat="46.27181" lon="6.56873">
        <ele>1575</ele>
        <time>2023-01-21T11:51:31.000Z</time>
      </trkpt>
      <trkpt lat="46.27182" lon="6.56874">
        <ele>1575.6</ele>
        <time>2023-01-21T11:51:32.000Z</time>
      </trkpt>
      <trkpt lat="46.27182" lon="6.56875">
        <ele>1576.1</ele>
        <time>2023-01-21T11:51:33.000Z</time>
      </trkpt>
      <trkpt lat="46.27183" lon="6.56876">
        <ele>1576.4</ele>
        <time>2023-01-21T11:51:34.000Z</time>
      </trkpt>
      <trkpt lat="46.27185" lon="6.56876">
        <ele>1577.1</ele>
        <time>2023-01-21T11:51:35.000Z</time>
      </trkpt>
      <trkpt lat="46.27185" lon="6.56878">
        <ele>1577.7</ele>
        <time>2023-01-21T11:51:36.000Z</time>
      </trkpt>
      <trkpt lat="46.27185" lon="6.56877">
        <ele>1578.6</ele>
        <time>2023-01-21T11:51:37.000Z</time>
      </trkpt>
      <trkpt lat="46.27186" lon="6.56877">
        <ele>1579.1</ele>
        <time>2023-01-21T11:51:38.000Z</time>
      </trkpt>
      <trkpt lat="46.27186" lon="6.56879">
        <ele>1579.6</ele>
        <time>2023-01-21T11:51:39.000Z</time>
      </trkpt>
      <trkpt lat="46.27187" lon="6.5688">
        <ele>1580.1</ele>
        <time>2023-01-21T11:51:40.000Z</time>
      </trkpt>
      <trkpt lat="46.27187" lon="6.56882">
        <ele>1580.3</ele>
        <time>2023-01-21T11:51:41.000Z</time>
      </trkpt>
      <trkpt lat="46.27187" lon="6.56882">
        <ele>1580.8</ele>
        <time>2023-01-21T11:51:42.000Z</time>
      </trkpt>
      <trkpt lat="46.27188" lon="6.56884">
        <ele>1581.1</ele>
        <time>2023-01-21T11:51:43.000Z</time>
      </trkpt>
      <trkpt lat="46.27188" lon="6.56885">
        <ele>1581.4</ele>
        <time>2023-01-21T11:51:44.000Z</time>
      </trkpt>
      <trkpt lat="46.27187" lon="6.56885">
        <ele>1581.9</ele>
        <time>2023-01-21T11:51:45.000Z</time>
      </trkpt>
      <trkpt lat="46.27187" lon="6.56885">
        <ele>1581.9</ele>
        <time>2023-01-21T11:51:46.000Z</time>
      </trkpt>
      <trkpt lat="46.27187" lon="6.56885">
        <ele>1581.9</ele>
        <time>2023-01-21T11:51:47.000Z</time>
      </trkpt>
      <trkpt lat="46.27187" lon="6.56885">
        <ele>1581.9</ele>
        <time>2023-01-21T11:51:48.000Z</time>
      </trkpt>
      <trkpt lat="46.27187" lon="6.56885">
        <ele>1581.9</ele>
        <time>2023-01-21T11:51:49.000Z</time>
      </trkpt>
      <trkpt lat="46.27187" lon="6.56885">
        <ele>1581.9</ele>
        <time>2023-01-21T11:51:50.000Z</time>
      </trkpt>
      <trkpt lat="46.27187" lon="6.56885">
        <ele>1581.9</ele>
        <time>2023-01-21T11:51:51.000Z</time>
      </trkpt>
      <trkpt lat="46.27187" lon="6.56885">
        <ele>1581.9</ele>
        <time>2023-01-21T11:51:52.000Z</time>
      </trkpt>
      <trkpt lat="46.27187" lon="6.56885">
        <ele>1581.9</ele>
        <time>2023-01-21T11:51:53.000Z</time>
      </trkpt>
      <trkpt lat="46.27187" lon="6.56885">
        <ele>1581.9</ele>
        <time>2023-01-21T11:51:54.000Z</time>
      </trkpt>
      <trkpt lat="46.27187" lon="6.56885">
        <ele>1581.9</ele>
        <time>2023-01-21T11:51:55.000Z</time>
      </trkpt>
      <trkpt lat="46.27187" lon="6.56885">
        <ele>1581.9</ele>
        <time>2023-01-21T11:51:56.000Z</time>
      </trkpt>
      <trkpt lat="46.27187" lon="6.56885">
        <ele>1581.9</ele>
        <time>2023-01-21T11:51:57.000Z</time>
      </trkpt>
      <trkpt lat="46.27187" lon="6.56885">
        <ele>1581.9</ele>
        <time>2023-01-21T11:51:58.000Z</time>
      </trkpt>
      <trkpt lat="46.27187" lon="6.56885">
        <ele>1581.9</ele>
        <time>2023-01-21T11:51:59.000Z</time>
      </trkpt>
      <trkpt lat="46.27187" lon="6.56885">
        <ele>1581.9</ele>
        <time>2023-01-21T11:52:00.000Z</time>
      </trkpt>
      <trkpt lat="46.27187" lon="6.56885">
        <ele>1581.9</ele>
        <time>2023-01-21T11:52:01.000Z</time>
      </trkpt>
      <trkpt lat="46.27187" lon="6.56885">
        <ele>1581.9</ele>
        <time>2023-01-21T11:52:02.000Z</time>
      </trkpt>
      <trkpt lat="46.27187" lon="6.56885">
        <ele>1581.9</ele>
        <time>2023-01-21T11:52:03.000Z</time>
      </trkpt>
      <trkpt lat="46.27187" lon="6.56885">
        <ele>1581.9</ele>
        <time>2023-01-21T11:52:04.000Z</time>
      </trkpt>
      <trkpt lat="46.27187" lon="6.56885">
        <ele>1581.9</ele>
        <time>2023-01-21T11:52:05.000Z</time>
      </trkpt>
      <trkpt lat="46.27187" lon="6.56885">
        <ele>1581.9</ele>
        <time>2023-01-21T11:52:06.000Z</time>
      </trkpt>
      <trkpt lat="46.27187" lon="6.56885">
        <ele>1581.9</ele>
        <time>2023-01-21T11:52:07.000Z</time>
      </trkpt>
      <trkpt lat="46.27187" lon="6.56885">
        <ele>1581.9</ele>
        <time>2023-01-21T11:52:08.000Z</time>
      </trkpt>
      <trkpt lat="46.27187" lon="6.56885">
        <ele>1581.9</ele>
        <time>2023-01-21T11:52:09.000Z</time>
      </trkpt>
      <trkpt lat="46.27187" lon="6.56885">
        <ele>1581.9</ele>
        <time>2023-01-21T11:52:10.000Z</time>
      </trkpt>
      <trkpt lat="46.27187" lon="6.56885">
        <ele>1581.9</ele>
        <time>2023-01-21T11:52:11.000Z</time>
      </trkpt>
      <trkpt lat="46.27187" lon="6.56885">
        <ele>1581.9</ele>
        <time>2023-01-21T11:52:12.000Z</time>
      </trkpt>
      <trkpt lat="46.27187" lon="6.56885">
        <ele>1581.9</ele>
        <time>2023-01-21T11:52:13.000Z</time>
      </trkpt>
      <trkpt lat="46.27187" lon="6.56885">
        <ele>1581.9</ele>
        <time>2023-01-21T11:52:14.000Z</time>
      </trkpt>
      <trkpt lat="46.27187" lon="6.56885">
        <ele>1581.9</ele>
        <time>2023-01-21T11:52:15.000Z</time>
      </trkpt>
      <trkpt lat="46.27187" lon="6.56885">
        <ele>1581.9</ele>
        <time>2023-01-21T11:52:16.000Z</time>
      </trkpt>
      <trkpt lat="46.27187" lon="6.56885">
        <ele>1581.9</ele>
        <time>2023-01-21T11:52:17.000Z</time>
      </trkpt>
      <trkpt lat="46.27187" lon="6.56885">
        <ele>1581.9</ele>
        <time>2023-01-21T11:52:18.000Z</time>
      </trkpt>
      <trkpt lat="46.27187" lon="6.56885">
        <ele>1581.9</ele>
        <time>2023-01-21T11:52:19.000Z</time>
      </trkpt>
      <trkpt lat="46.27187" lon="6.56885">
        <ele>1581.9</ele>
        <time>2023-01-21T11:52:20.000Z</time>
      </trkpt>
      <trkpt lat="46.27187" lon="6.56885">
        <ele>1581.9</ele>
        <time>2023-01-21T11:52:21.000Z</time>
      </trkpt>
      <trkpt lat="46.27187" lon="6.56885">
        <ele>1581.9</ele>
        <time>2023-01-21T11:52:22.000Z</time>
      </trkpt>
      <trkpt lat="46.27187" lon="6.56885">
        <ele>1581.9</ele>
        <time>2023-01-21T11:52:23.000Z</time>
      </trkpt>
      <trkpt lat="46.27187" lon="6.56885">
        <ele>1581.9</ele>
        <time>2023-01-21T11:52:24.000Z</time>
      </trkpt>
      <trkpt lat="46.27187" lon="6.56885">
        <ele>1581.9</ele>
        <time>2023-01-21T11:52:25.000Z</time>
      </trkpt>
      <trkpt lat="46.27187" lon="6.56885">
        <ele>1581.9</ele>
        <time>2023-01-21T11:52:26.000Z</time>
      </trkpt>
      <trkpt lat="46.27187" lon="6.56885">
        <ele>1581.9</ele>
        <time>2023-01-21T11:52:27.000Z</time>
      </trkpt>
      <trkpt lat="46.27187" lon="6.56885">
        <ele>1581.9</ele>
        <time>2023-01-21T11:52:28.000Z</time>
      </trkpt>
      <trkpt lat="46.27187" lon="6.56885">
        <ele>1581.9</ele>
        <time>2023-01-21T11:52:29.000Z</time>
      </trkpt>
      <trkpt lat="46.27187" lon="6.56885">
        <ele>1581.9</ele>
        <time>2023-01-21T11:52:30.000Z</time>
      </trkpt>
      <trkpt lat="46.27187" lon="6.56885">
        <ele>1581.9</ele>
        <time>2023-01-21T11:52:31.000Z</time>
      </trkpt>
      <trkpt lat="46.27194" lon="6.56895">
        <ele>1577.6</ele>
        <time>2023-01-21T11:52:32.000Z</time>
      </trkpt>
      <trkpt lat="46.27194" lon="6.56895">
        <ele>1577.7</ele>
        <time>2023-01-21T11:52:33.000Z</time>
      </trkpt>
      <trkpt lat="46.27194" lon="6.56896">
        <ele>1577.7</ele>
        <time>2023-01-21T11:52:34.000Z</time>
      </trkpt>
      <trkpt lat="46.27195" lon="6.56896">
        <ele>1577.6</ele>
        <time>2023-01-21T11:52:35.000Z</time>
      </trkpt>
      <trkpt lat="46.27195" lon="6.56896">
        <ele>1577.6</ele>
        <time>2023-01-21T11:52:36.000Z</time>
      </trkpt>
      <trkpt lat="46.27195" lon="6.56896">
        <ele>1577.6</ele>
        <time>2023-01-21T11:52:37.000Z</time>
      </trkpt>
      <trkpt lat="46.27195" lon="6.56896">
        <ele>1577.6</ele>
        <time>2023-01-21T11:52:38.000Z</time>
      </trkpt>
      <trkpt lat="46.27195" lon="6.56896">
        <ele>1577.6</ele>
        <time>2023-01-21T11:52:39.000Z</time>
      </trkpt>
      <trkpt lat="46.27195" lon="6.56896">
        <ele>1577.6</ele>
        <time>2023-01-21T11:52:40.000Z</time>
      </trkpt>
      <trkpt lat="46.27195" lon="6.56896">
        <ele>1577.6</ele>
        <time>2023-01-21T11:52:41.000Z</time>
      </trkpt>
      <trkpt lat="46.27195" lon="6.56896">
        <ele>1577.6</ele>
        <time>2023-01-21T11:52:42.000Z</time>
      </trkpt>
      <trkpt lat="46.27195" lon="6.56896">
        <ele>1577.6</ele>
        <time>2023-01-21T11:52:43.000Z</time>
      </trkpt>
      <trkpt lat="46.27195" lon="6.56896">
        <ele>1577.6</ele>
        <time>2023-01-21T11:52:44.000Z</time>
      </trkpt>
      <trkpt lat="46.27195" lon="6.56896">
        <ele>1577.6</ele>
        <time>2023-01-21T11:52:45.000Z</time>
      </trkpt>
      <trkpt lat="46.27195" lon="6.56896">
        <ele>1577.6</ele>
        <time>2023-01-21T11:52:46.000Z</time>
      </trkpt>
      <trkpt lat="46.27195" lon="6.56896">
        <ele>1577.6</ele>
        <time>2023-01-21T11:52:47.000Z</time>
      </trkpt>
      <trkpt lat="46.27202" lon="6.56905">
        <ele>1578</ele>
        <time>2023-01-21T11:52:48.000Z</time>
      </trkpt>
      <trkpt lat="46.27203" lon="6.56905">
        <ele>1578.2</ele>
        <time>2023-01-21T11:52:49.000Z</time>
      </trkpt>
      <trkpt lat="46.27204" lon="6.56906">
        <ele>1578.4</ele>
        <time>2023-01-21T11:52:50.000Z</time>
      </trkpt>
      <trkpt lat="46.27204" lon="6.56907">
        <ele>1578.6</ele>
        <time>2023-01-21T11:52:51.000Z</time>
      </trkpt>
      <trkpt lat="46.27204" lon="6.56907">
        <ele>1578.6</ele>
        <time>2023-01-21T11:52:52.000Z</time>
      </trkpt>
      <trkpt lat="46.27204" lon="6.56907">
        <ele>1578.6</ele>
        <time>2023-01-21T11:52:53.000Z</time>
      </trkpt>
      <trkpt lat="46.27204" lon="6.56907">
        <ele>1578.6</ele>
        <time>2023-01-21T11:52:54.000Z</time>
      </trkpt>
      <trkpt lat="46.27204" lon="6.56907">
        <ele>1578.6</ele>
        <time>2023-01-21T11:52:55.000Z</time>
      </trkpt>
      <trkpt lat="46.27204" lon="6.56907">
        <ele>1578.6</ele>
        <time>2023-01-21T11:52:56.000Z</time>
      </trkpt>
      <trkpt lat="46.27204" lon="6.56907">
        <ele>1578.6</ele>
        <time>2023-01-21T11:52:57.000Z</time>
      </trkpt>
      <trkpt lat="46.27204" lon="6.56907">
        <ele>1578.6</ele>
        <time>2023-01-21T11:52:58.000Z</time>
      </trkpt>
      <trkpt lat="46.27204" lon="6.56907">
        <ele>1578.6</ele>
        <time>2023-01-21T11:52:59.000Z</time>
      </trkpt>
      <trkpt lat="46.27204" lon="6.56907">
        <ele>1578.6</ele>
        <time>2023-01-21T11:53:00.000Z</time>
      </trkpt>
      <trkpt lat="46.27204" lon="6.56907">
        <ele>1578.6</ele>
        <time>2023-01-21T11:53:01.000Z</time>
      </trkpt>
      <trkpt lat="46.27212" lon="6.56914">
        <ele>1579</ele>
        <time>2023-01-21T11:53:02.000Z</time>
      </trkpt>
      <trkpt lat="46.27212" lon="6.56915">
        <ele>1579.2</ele>
        <time>2023-01-21T11:53:03.000Z</time>
      </trkpt>
      <trkpt lat="46.27213" lon="6.56915">
        <ele>1579.2</ele>
        <time>2023-01-21T11:53:04.000Z</time>
      </trkpt>
      <trkpt lat="46.27213" lon="6.56915">
        <ele>1579.4</ele>
        <time>2023-01-21T11:53:05.000Z</time>
      </trkpt>
      <trkpt lat="46.27213" lon="6.56915">
        <ele>1579.4</ele>
        <time>2023-01-21T11:53:06.000Z</time>
      </trkpt>
      <trkpt lat="46.27213" lon="6.56915">
        <ele>1579.4</ele>
        <time>2023-01-21T11:53:07.000Z</time>
      </trkpt>
      <trkpt lat="46.27213" lon="6.56915">
        <ele>1579.4</ele>
        <time>2023-01-21T11:53:08.000Z</time>
      </trkpt>
      <trkpt lat="46.27213" lon="6.56915">
        <ele>1579.4</ele>
        <time>2023-01-21T11:53:09.000Z</time>
      </trkpt>
      <trkpt lat="46.27213" lon="6.56915">
        <ele>1579.4</ele>
        <time>2023-01-21T11:53:10.000Z</time>
      </trkpt>
      <trkpt lat="46.27213" lon="6.56915">
        <ele>1579.4</ele>
        <time>2023-01-21T11:53:11.000Z</time>
      </trkpt>
      <trkpt lat="46.27213" lon="6.56915">
        <ele>1579.4</ele>
        <time>2023-01-21T11:53:12.000Z</time>
      </trkpt>
      <trkpt lat="46.27213" lon="6.56915">
        <ele>1579.4</ele>
        <time>2023-01-21T11:53:13.000Z</time>
      </trkpt>
      <trkpt lat="46.27213" lon="6.56915">
        <ele>1579.4</ele>
        <time>2023-01-21T11:53:14.000Z</time>
      </trkpt>
      <trkpt lat="46.27213" lon="6.56915">
        <ele>1579.4</ele>
        <time>2023-01-21T11:53:15.000Z</time>
      </trkpt>
      <trkpt lat="46.27213" lon="6.56915">
        <ele>1579.4</ele>
        <time>2023-01-21T11:53:16.000Z</time>
      </trkpt>
      <trkpt lat="46.27213" lon="6.56915">
        <ele>1579.4</ele>
        <time>2023-01-21T11:53:17.000Z</time>
      </trkpt>
      <trkpt lat="46.27213" lon="6.56915">
        <ele>1579.4</ele>
        <time>2023-01-21T11:53:18.000Z</time>
      </trkpt>
      <trkpt lat="46.27213" lon="6.56915">
        <ele>1579.4</ele>
        <time>2023-01-21T11:53:19.000Z</time>
      </trkpt>
      <trkpt lat="46.27222" lon="6.56922">
        <ele>1580.2</ele>
        <time>2023-01-21T11:53:20.000Z</time>
      </trkpt>
      <trkpt lat="46.27223" lon="6.56922">
        <ele>1580.2</ele>
        <time>2023-01-21T11:53:21.000Z</time>
      </trkpt>
      <trkpt lat="46.27224" lon="6.56923">
        <ele>1580.2</ele>
        <time>2023-01-21T11:53:22.000Z</time>
      </trkpt>
      <trkpt lat="46.27225" lon="6.56925">
        <ele>1580.3</ele>
        <time>2023-01-21T11:53:23.000Z</time>
      </trkpt>
      <trkpt lat="46.27225" lon="6.56925">
        <ele>1580.3</ele>
        <time>2023-01-21T11:53:24.000Z</time>
      </trkpt>
      <trkpt lat="46.27225" lon="6.56925">
        <ele>1580.3</ele>
        <time>2023-01-21T11:53:25.000Z</time>
      </trkpt>
      <trkpt lat="46.27225" lon="6.56925">
        <ele>1580.3</ele>
        <time>2023-01-21T11:53:26.000Z</time>
      </trkpt>
      <trkpt lat="46.27225" lon="6.56925">
        <ele>1580.3</ele>
        <time>2023-01-21T11:53:27.000Z</time>
      </trkpt>
      <trkpt lat="46.27225" lon="6.56925">
        <ele>1580.3</ele>
        <time>2023-01-21T11:53:28.000Z</time>
      </trkpt>
      <trkpt lat="46.27225" lon="6.56925">
        <ele>1580.3</ele>
        <time>2023-01-21T11:53:29.000Z</time>
      </trkpt>
      <trkpt lat="46.27225" lon="6.56925">
        <ele>1580.3</ele>
        <time>2023-01-21T11:53:30.000Z</time>
      </trkpt>
      <trkpt lat="46.27225" lon="6.56925">
        <ele>1580.3</ele>
        <time>2023-01-21T11:53:31.000Z</time>
      </trkpt>
      <trkpt lat="46.27225" lon="6.56925">
        <ele>1580.3</ele>
        <time>2023-01-21T11:53:32.000Z</time>
      </trkpt>
      <trkpt lat="46.27225" lon="6.56925">
        <ele>1580.3</ele>
        <time>2023-01-21T11:53:33.000Z</time>
      </trkpt>
      <trkpt lat="46.27225" lon="6.56925">
        <ele>1580.3</ele>
        <time>2023-01-21T11:53:34.000Z</time>
      </trkpt>
      <trkpt lat="46.27225" lon="6.56925">
        <ele>1580.3</ele>
        <time>2023-01-21T11:53:35.000Z</time>
      </trkpt>
      <trkpt lat="46.27225" lon="6.56925">
        <ele>1580.3</ele>
        <time>2023-01-21T11:53:36.000Z</time>
      </trkpt>
      <trkpt lat="46.27225" lon="6.56925">
        <ele>1580.3</ele>
        <time>2023-01-21T11:53:37.000Z</time>
      </trkpt>
      <trkpt lat="46.27225" lon="6.56925">
        <ele>1580.3</ele>
        <time>2023-01-21T11:53:38.000Z</time>
      </trkpt>
      <trkpt lat="46.27225" lon="6.56925">
        <ele>1580.3</ele>
        <time>2023-01-21T11:53:39.000Z</time>
      </trkpt>
      <trkpt lat="46.27232" lon="6.56932">
        <ele>1581.5</ele>
        <time>2023-01-21T11:53:40.000Z</time>
      </trkpt>
      <trkpt lat="46.27233" lon="6.56933">
        <ele>1581.6</ele>
        <time>2023-01-21T11:53:41.000Z</time>
      </trkpt>
      <trkpt lat="46.27234" lon="6.56934">
        <ele>1581.7</ele>
        <time>2023-01-21T11:53:42.000Z</time>
      </trkpt>
      <trkpt lat="46.27234" lon="6.56935">
        <ele>1581.8</ele>
        <time>2023-01-21T11:53:43.000Z</time>
      </trkpt>
      <trkpt lat="46.27234" lon="6.56935">
        <ele>1581.8</ele>
        <time>2023-01-21T11:53:44.000Z</time>
      </trkpt>
      <trkpt lat="46.27234" lon="6.56935">
        <ele>1581.8</ele>
        <time>2023-01-21T11:53:45.000Z</time>
      </trkpt>
      <trkpt lat="46.27234" lon="6.56935">
        <ele>1581.8</ele>
        <time>2023-01-21T11:53:46.000Z</time>
      </trkpt>
      <trkpt lat="46.27234" lon="6.56935">
        <ele>1581.8</ele>
        <time>2023-01-21T11:53:47.000Z</time>
      </trkpt>
      <trkpt lat="46.27234" lon="6.56935">
        <ele>1581.8</ele>
        <time>2023-01-21T11:53:48.000Z</time>
      </trkpt>
      <trkpt lat="46.27234" lon="6.56935">
        <ele>1581.8</ele>
        <time>2023-01-21T11:53:49.000Z</time>
      </trkpt>
      <trkpt lat="46.27234" lon="6.56935">
        <ele>1581.8</ele>
        <time>2023-01-21T11:53:50.000Z</time>
      </trkpt>
      <trkpt lat="46.27234" lon="6.56935">
        <ele>1581.8</ele>
        <time>2023-01-21T11:53:51.000Z</time>
      </trkpt>
      <trkpt lat="46.27234" lon="6.56935">
        <ele>1581.8</ele>
        <time>2023-01-21T11:53:52.000Z</time>
      </trkpt>
      <trkpt lat="46.27234" lon="6.56935">
        <ele>1581.8</ele>
        <time>2023-01-21T11:53:53.000Z</time>
      </trkpt>
      <trkpt lat="46.27234" lon="6.56935">
        <ele>1581.8</ele>
        <time>2023-01-21T11:53:54.000Z</time>
      </trkpt>
      <trkpt lat="46.2724" lon="6.56944">
        <ele>1582.2</ele>
        <time>2023-01-21T11:53:55.000Z</time>
      </trkpt>
      <trkpt lat="46.27241" lon="6.56945">
        <ele>1582.3</ele>
        <time>2023-01-21T11:53:56.000Z</time>
      </trkpt>
      <trkpt lat="46.27242" lon="6.56945">
        <ele>1582.3</ele>
        <time>2023-01-21T11:53:57.000Z</time>
      </trkpt>
      <trkpt lat="46.27242" lon="6.56946">
        <ele>1582.3</ele>
        <time>2023-01-21T11:53:58.000Z</time>
      </trkpt>
      <trkpt lat="46.27242" lon="6.56946">
        <ele>1582.3</ele>
        <time>2023-01-21T11:53:59.000Z</time>
      </trkpt>
      <trkpt lat="46.27242" lon="6.56946">
        <ele>1582.3</ele>
        <time>2023-01-21T11:54:00.000Z</time>
      </trkpt>
      <trkpt lat="46.27242" lon="6.56946">
        <ele>1582.3</ele>
        <time>2023-01-21T11:54:01.000Z</time>
      </trkpt>
      <trkpt lat="46.27242" lon="6.56946">
        <ele>1582.3</ele>
        <time>2023-01-21T11:54:02.000Z</time>
      </trkpt>
      <trkpt lat="46.27242" lon="6.56946">
        <ele>1582.3</ele>
        <time>2023-01-21T11:54:03.000Z</time>
      </trkpt>
      <trkpt lat="46.27242" lon="6.56946">
        <ele>1582.3</ele>
        <time>2023-01-21T11:54:04.000Z</time>
      </trkpt>
      <trkpt lat="46.27242" lon="6.56946">
        <ele>1582.3</ele>
        <time>2023-01-21T11:54:05.000Z</time>
      </trkpt>
      <trkpt lat="46.27242" lon="6.56946">
        <ele>1582.3</ele>
        <time>2023-01-21T11:54:06.000Z</time>
      </trkpt>
      <trkpt lat="46.27242" lon="6.56946">
        <ele>1582.3</ele>
        <time>2023-01-21T11:54:07.000Z</time>
      </trkpt>
      <trkpt lat="46.27242" lon="6.56946">
        <ele>1582.3</ele>
        <time>2023-01-21T11:54:08.000Z</time>
      </trkpt>
      <trkpt lat="46.27249" lon="6.56955">
        <ele>1582.7</ele>
        <time>2023-01-21T11:54:09.000Z</time>
      </trkpt>
      <trkpt lat="46.2725" lon="6.56956">
        <ele>1582.8</ele>
        <time>2023-01-21T11:54:10.000Z</time>
      </trkpt>
      <trkpt lat="46.27251" lon="6.56956">
        <ele>1582.9</ele>
        <time>2023-01-21T11:54:11.000Z</time>
      </trkpt>
      <trkpt lat="46.27251" lon="6.56957">
        <ele>1583</ele>
        <time>2023-01-21T11:54:12.000Z</time>
      </trkpt>
      <trkpt lat="46.27251" lon="6.56957">
        <ele>1583</ele>
        <time>2023-01-21T11:54:13.000Z</time>
      </trkpt>
      <trkpt lat="46.27251" lon="6.56957">
        <ele>1583</ele>
        <time>2023-01-21T11:54:14.000Z</time>
      </trkpt>
      <trkpt lat="46.27251" lon="6.56957">
        <ele>1583</ele>
        <time>2023-01-21T11:54:15.000Z</time>
      </trkpt>
      <trkpt lat="46.27251" lon="6.56957">
        <ele>1583</ele>
        <time>2023-01-21T11:54:16.000Z</time>
      </trkpt>
      <trkpt lat="46.27251" lon="6.56957">
        <ele>1583</ele>
        <time>2023-01-21T11:54:17.000Z</time>
      </trkpt>
      <trkpt lat="46.27251" lon="6.56957">
        <ele>1583</ele>
        <time>2023-01-21T11:54:18.000Z</time>
      </trkpt>
      <trkpt lat="46.27251" lon="6.56957">
        <ele>1583</ele>
        <time>2023-01-21T11:54:19.000Z</time>
      </trkpt>
      <trkpt lat="46.27251" lon="6.56957">
        <ele>1583</ele>
        <time>2023-01-21T11:54:20.000Z</time>
      </trkpt>
      <trkpt lat="46.27251" lon="6.56957">
        <ele>1583</ele>
        <time>2023-01-21T11:54:21.000Z</time>
      </trkpt>
      <trkpt lat="46.27251" lon="6.56957">
        <ele>1583</ele>
        <time>2023-01-21T11:54:22.000Z</time>
      </trkpt>
      <trkpt lat="46.27251" lon="6.56957">
        <ele>1583</ele>
        <time>2023-01-21T11:54:23.000Z</time>
      </trkpt>
      <trkpt lat="46.27251" lon="6.56957">
        <ele>1583</ele>
        <time>2023-01-21T11:54:24.000Z</time>
      </trkpt>
      <trkpt lat="46.27251" lon="6.56957">
        <ele>1583</ele>
        <time>2023-01-21T11:54:25.000Z</time>
      </trkpt>
      <trkpt lat="46.27251" lon="6.56957">
        <ele>1583</ele>
        <time>2023-01-21T11:54:26.000Z</time>
      </trkpt>
      <trkpt lat="46.27251" lon="6.56957">
        <ele>1583</ele>
        <time>2023-01-21T11:54:27.000Z</time>
      </trkpt>
      <trkpt lat="46.27256" lon="6.5697">
        <ele>1585.1</ele>
        <time>2023-01-21T11:54:28.000Z</time>
      </trkpt>
      <trkpt lat="46.27257" lon="6.56971">
        <ele>1585.2</ele>
        <time>2023-01-21T11:54:29.000Z</time>
      </trkpt>
      <trkpt lat="46.27258" lon="6.56971">
        <ele>1585.4</ele>
        <time>2023-01-21T11:54:30.000Z</time>
      </trkpt>
      <trkpt lat="46.27259" lon="6.56971">
        <ele>1585.4</ele>
        <time>2023-01-21T11:54:31.000Z</time>
      </trkpt>
      <trkpt lat="46.27259" lon="6.56971">
        <ele>1585.4</ele>
        <time>2023-01-21T11:54:32.000Z</time>
      </trkpt>
      <trkpt lat="46.27259" lon="6.56971">
        <ele>1585.4</ele>
        <time>2023-01-21T11:54:33.000Z</time>
      </trkpt>
      <trkpt lat="46.27259" lon="6.56971">
        <ele>1585.4</ele>
        <time>2023-01-21T11:54:34.000Z</time>
      </trkpt>
      <trkpt lat="46.27259" lon="6.56971">
        <ele>1585.4</ele>
        <time>2023-01-21T11:54:35.000Z</time>
      </trkpt>
      <trkpt lat="46.27259" lon="6.56971">
        <ele>1585.4</ele>
        <time>2023-01-21T11:54:36.000Z</time>
      </trkpt>
      <trkpt lat="46.27259" lon="6.56971">
        <ele>1585.4</ele>
        <time>2023-01-21T11:54:37.000Z</time>
      </trkpt>
      <trkpt lat="46.27259" lon="6.56971">
        <ele>1585.4</ele>
        <time>2023-01-21T11:54:38.000Z</time>
      </trkpt>
      <trkpt lat="46.27259" lon="6.56971">
        <ele>1585.4</ele>
        <time>2023-01-21T11:54:39.000Z</time>
      </trkpt>
      <trkpt lat="46.27259" lon="6.56971">
        <ele>1585.4</ele>
        <time>2023-01-21T11:54:40.000Z</time>
      </trkpt>
      <trkpt lat="46.27259" lon="6.56971">
        <ele>1585.4</ele>
        <time>2023-01-21T11:54:41.000Z</time>
      </trkpt>
      <trkpt lat="46.27259" lon="6.56971">
        <ele>1585.4</ele>
        <time>2023-01-21T11:54:42.000Z</time>
      </trkpt>
      <trkpt lat="46.27259" lon="6.56971">
        <ele>1585.4</ele>
        <time>2023-01-21T11:54:43.000Z</time>
      </trkpt>
      <trkpt lat="46.27259" lon="6.56971">
        <ele>1585.4</ele>
        <time>2023-01-21T11:54:44.000Z</time>
      </trkpt>
      <trkpt lat="46.27259" lon="6.56971">
        <ele>1585.4</ele>
        <time>2023-01-21T11:54:45.000Z</time>
      </trkpt>
      <trkpt lat="46.27259" lon="6.56971">
        <ele>1585.4</ele>
        <time>2023-01-21T11:54:46.000Z</time>
      </trkpt>
      <trkpt lat="46.27259" lon="6.56971">
        <ele>1585.4</ele>
        <time>2023-01-21T11:54:47.000Z</time>
      </trkpt>
      <trkpt lat="46.27259" lon="6.56971">
        <ele>1585.4</ele>
        <time>2023-01-21T11:54:48.000Z</time>
      </trkpt>
      <trkpt lat="46.27259" lon="6.56971">
        <ele>1585.4</ele>
        <time>2023-01-21T11:54:49.000Z</time>
      </trkpt>
      <trkpt lat="46.27259" lon="6.56971">
        <ele>1585.4</ele>
        <time>2023-01-21T11:54:50.000Z</time>
      </trkpt>
      <trkpt lat="46.27259" lon="6.56971">
        <ele>1585.4</ele>
        <time>2023-01-21T11:54:51.000Z</time>
      </trkpt>
      <trkpt lat="46.27254" lon="6.56983">
        <ele>1586.9</ele>
        <time>2023-01-21T11:54:52.000Z</time>
      </trkpt>
      <trkpt lat="46.27254" lon="6.56982">
        <ele>1587</ele>
        <time>2023-01-21T11:54:53.000Z</time>
      </trkpt>
      <trkpt lat="46.27253" lon="6.56983">
        <ele>1587.1</ele>
        <time>2023-01-21T11:54:54.000Z</time>
      </trkpt>
      <trkpt lat="46.27252" lon="6.56983">
        <ele>1587.2</ele>
        <time>2023-01-21T11:54:55.000Z</time>
      </trkpt>
      <trkpt lat="46.27252" lon="6.56983">
        <ele>1587.2</ele>
        <time>2023-01-21T11:54:56.000Z</time>
      </trkpt>
      <trkpt lat="46.27252" lon="6.56983">
        <ele>1587.2</ele>
        <time>2023-01-21T11:54:57.000Z</time>
      </trkpt>
      <trkpt lat="46.27252" lon="6.56983">
        <ele>1587.2</ele>
        <time>2023-01-21T11:54:58.000Z</time>
      </trkpt>
      <trkpt lat="46.27252" lon="6.56983">
        <ele>1587.2</ele>
        <time>2023-01-21T11:54:59.000Z</time>
      </trkpt>
      <trkpt lat="46.27252" lon="6.56983">
        <ele>1587.2</ele>
        <time>2023-01-21T11:55:00.000Z</time>
      </trkpt>
      <trkpt lat="46.27252" lon="6.56983">
        <ele>1587.2</ele>
        <time>2023-01-21T11:55:01.000Z</time>
      </trkpt>
      <trkpt lat="46.27252" lon="6.56983">
        <ele>1587.2</ele>
        <time>2023-01-21T11:55:02.000Z</time>
      </trkpt>
      <trkpt lat="46.27252" lon="6.56983">
        <ele>1587.2</ele>
        <time>2023-01-21T11:55:03.000Z</time>
      </trkpt>
      <trkpt lat="46.27252" lon="6.56983">
        <ele>1587.2</ele>
        <time>2023-01-21T11:55:04.000Z</time>
      </trkpt>
      <trkpt lat="46.27252" lon="6.56983">
        <ele>1587.2</ele>
        <time>2023-01-21T11:55:05.000Z</time>
      </trkpt>
      <trkpt lat="46.27252" lon="6.56983">
        <ele>1587.2</ele>
        <time>2023-01-21T11:55:06.000Z</time>
      </trkpt>
      <trkpt lat="46.27252" lon="6.56983">
        <ele>1587.2</ele>
        <time>2023-01-21T11:55:07.000Z</time>
      </trkpt>
      <trkpt lat="46.27252" lon="6.56983">
        <ele>1587.2</ele>
        <time>2023-01-21T11:55:08.000Z</time>
      </trkpt>
      <trkpt lat="46.27252" lon="6.56983">
        <ele>1587.2</ele>
        <time>2023-01-21T11:55:09.000Z</time>
      </trkpt>
      <trkpt lat="46.27252" lon="6.56983">
        <ele>1587.2</ele>
        <time>2023-01-21T11:55:10.000Z</time>
      </trkpt>
      <trkpt lat="46.27252" lon="6.56983">
        <ele>1587.2</ele>
        <time>2023-01-21T11:55:11.000Z</time>
      </trkpt>
      <trkpt lat="46.27252" lon="6.56983">
        <ele>1587.2</ele>
        <time>2023-01-21T11:55:12.000Z</time>
      </trkpt>
      <trkpt lat="46.27243" lon="6.56986">
        <ele>1589.8</ele>
        <time>2023-01-21T11:55:13.000Z</time>
      </trkpt>
      <trkpt lat="46.27242" lon="6.56986">
        <ele>1590.2</ele>
        <time>2023-01-21T11:55:14.000Z</time>
      </trkpt>
      <trkpt lat="46.27242" lon="6.56987">
        <ele>1590.4</ele>
        <time>2023-01-21T11:55:15.000Z</time>
      </trkpt>
      <trkpt lat="46.27241" lon="6.56986">
        <ele>1590.8</ele>
        <time>2023-01-21T11:55:16.000Z</time>
      </trkpt>
      <trkpt lat="46.27241" lon="6.56986">
        <ele>1590.8</ele>
        <time>2023-01-21T11:55:17.000Z</time>
      </trkpt>
      <trkpt lat="46.27241" lon="6.56986">
        <ele>1590.8</ele>
        <time>2023-01-21T11:55:18.000Z</time>
      </trkpt>
      <trkpt lat="46.27241" lon="6.56986">
        <ele>1590.8</ele>
        <time>2023-01-21T11:55:19.000Z</time>
      </trkpt>
      <trkpt lat="46.27241" lon="6.56986">
        <ele>1590.8</ele>
        <time>2023-01-21T11:55:20.000Z</time>
      </trkpt>
      <trkpt lat="46.27241" lon="6.56986">
        <ele>1590.8</ele>
        <time>2023-01-21T11:55:21.000Z</time>
      </trkpt>
      <trkpt lat="46.27241" lon="6.56986">
        <ele>1590.8</ele>
        <time>2023-01-21T11:55:22.000Z</time>
      </trkpt>
      <trkpt lat="46.27241" lon="6.56986">
        <ele>1590.8</ele>
        <time>2023-01-21T11:55:23.000Z</time>
      </trkpt>
      <trkpt lat="46.27241" lon="6.56986">
        <ele>1590.8</ele>
        <time>2023-01-21T11:55:24.000Z</time>
      </trkpt>
      <trkpt lat="46.27241" lon="6.56986">
        <ele>1590.8</ele>
        <time>2023-01-21T11:55:25.000Z</time>
      </trkpt>
      <trkpt lat="46.27241" lon="6.56986">
        <ele>1590.8</ele>
        <time>2023-01-21T11:55:26.000Z</time>
      </trkpt>
      <trkpt lat="46.27241" lon="6.56986">
        <ele>1590.8</ele>
        <time>2023-01-21T11:55:27.000Z</time>
      </trkpt>
      <trkpt lat="46.27241" lon="6.56986">
        <ele>1590.8</ele>
        <time>2023-01-21T11:55:28.000Z</time>
      </trkpt>
      <trkpt lat="46.27241" lon="6.56986">
        <ele>1590.8</ele>
        <time>2023-01-21T11:55:29.000Z</time>
      </trkpt>
      <trkpt lat="46.27241" lon="6.56986">
        <ele>1590.8</ele>
        <time>2023-01-21T11:55:30.000Z</time>
      </trkpt>
      <trkpt lat="46.27241" lon="6.56986">
        <ele>1590.8</ele>
        <time>2023-01-21T11:55:31.000Z</time>
      </trkpt>
      <trkpt lat="46.27241" lon="6.56986">
        <ele>1590.8</ele>
        <time>2023-01-21T11:55:32.000Z</time>
      </trkpt>
      <trkpt lat="46.27241" lon="6.56986">
        <ele>1590.8</ele>
        <time>2023-01-21T11:55:33.000Z</time>
      </trkpt>
      <trkpt lat="46.27241" lon="6.56986">
        <ele>1590.8</ele>
        <time>2023-01-21T11:55:34.000Z</time>
      </trkpt>
      <trkpt lat="46.27241" lon="6.56986">
        <ele>1590.8</ele>
        <time>2023-01-21T11:55:35.000Z</time>
      </trkpt>
      <trkpt lat="46.27241" lon="6.56986">
        <ele>1590.8</ele>
        <time>2023-01-21T11:55:36.000Z</time>
      </trkpt>
      <trkpt lat="46.27241" lon="6.56986">
        <ele>1590.8</ele>
        <time>2023-01-21T11:55:37.000Z</time>
      </trkpt>
      <trkpt lat="46.27241" lon="6.56986">
        <ele>1590.8</ele>
        <time>2023-01-21T11:55:38.000Z</time>
      </trkpt>
      <trkpt lat="46.27241" lon="6.56986">
        <ele>1590.8</ele>
        <time>2023-01-21T11:55:39.000Z</time>
      </trkpt>
      <trkpt lat="46.27241" lon="6.56986">
        <ele>1590.8</ele>
        <time>2023-01-21T11:55:40.000Z</time>
      </trkpt>
      <trkpt lat="46.27241" lon="6.56986">
        <ele>1590.8</ele>
        <time>2023-01-21T11:55:41.000Z</time>
      </trkpt>
      <trkpt lat="46.27241" lon="6.56986">
        <ele>1590.8</ele>
        <time>2023-01-21T11:55:42.000Z</time>
      </trkpt>
      <trkpt lat="46.27241" lon="6.56986">
        <ele>1590.8</ele>
        <time>2023-01-21T11:55:43.000Z</time>
      </trkpt>
      <trkpt lat="46.27241" lon="6.56986">
        <ele>1590.8</ele>
        <time>2023-01-21T11:55:44.000Z</time>
      </trkpt>
      <trkpt lat="46.27241" lon="6.56986">
        <ele>1590.8</ele>
        <time>2023-01-21T11:55:45.000Z</time>
      </trkpt>
      <trkpt lat="46.27241" lon="6.56986">
        <ele>1590.8</ele>
        <time>2023-01-21T11:55:46.000Z</time>
      </trkpt>
      <trkpt lat="46.27232" lon="6.56988">
        <ele>1594</ele>
        <time>2023-01-21T11:55:47.000Z</time>
      </trkpt>
      <trkpt lat="46.27232" lon="6.56989">
        <ele>1594</ele>
        <time>2023-01-21T11:55:48.000Z</time>
      </trkpt>
      <trkpt lat="46.27231" lon="6.5699">
        <ele>1594.1</ele>
        <time>2023-01-21T11:55:49.000Z</time>
      </trkpt>
      <trkpt lat="46.2723" lon="6.56991">
        <ele>1594.1</ele>
        <time>2023-01-21T11:55:50.000Z</time>
      </trkpt>
      <trkpt lat="46.2723" lon="6.56991">
        <ele>1594.1</ele>
        <time>2023-01-21T11:55:51.000Z</time>
      </trkpt>
      <trkpt lat="46.2723" lon="6.56991">
        <ele>1594.1</ele>
        <time>2023-01-21T11:55:52.000Z</time>
      </trkpt>
      <trkpt lat="46.2723" lon="6.56991">
        <ele>1594.1</ele>
        <time>2023-01-21T11:55:53.000Z</time>
      </trkpt>
      <trkpt lat="46.2723" lon="6.56991">
        <ele>1594.1</ele>
        <time>2023-01-21T11:55:54.000Z</time>
      </trkpt>
      <trkpt lat="46.2723" lon="6.56991">
        <ele>1594.1</ele>
        <time>2023-01-21T11:55:55.000Z</time>
      </trkpt>
      <trkpt lat="46.2723" lon="6.56991">
        <ele>1594.1</ele>
        <time>2023-01-21T11:55:56.000Z</time>
      </trkpt>
      <trkpt lat="46.2723" lon="6.56991">
        <ele>1594.1</ele>
        <time>2023-01-21T11:55:57.000Z</time>
      </trkpt>
      <trkpt lat="46.2723" lon="6.56991">
        <ele>1594.1</ele>
        <time>2023-01-21T11:55:58.000Z</time>
      </trkpt>
      <trkpt lat="46.2723" lon="6.56991">
        <ele>1594.1</ele>
        <time>2023-01-21T11:55:59.000Z</time>
      </trkpt>
      <trkpt lat="46.2723" lon="6.56991">
        <ele>1594.1</ele>
        <time>2023-01-21T11:56:00.000Z</time>
      </trkpt>
      <trkpt lat="46.2723" lon="6.56991">
        <ele>1594.1</ele>
        <time>2023-01-21T11:56:01.000Z</time>
      </trkpt>
      <trkpt lat="46.27221" lon="6.56996">
        <ele>1594.8</ele>
        <time>2023-01-21T11:56:02.000Z</time>
      </trkpt>
      <trkpt lat="46.27221" lon="6.56996">
        <ele>1594.9</ele>
        <time>2023-01-21T11:56:03.000Z</time>
      </trkpt>
      <trkpt lat="46.2722" lon="6.56996">
        <ele>1595</ele>
        <time>2023-01-21T11:56:04.000Z</time>
      </trkpt>
      <trkpt lat="46.27219" lon="6.56996">
        <ele>1595.2</ele>
        <time>2023-01-21T11:56:05.000Z</time>
      </trkpt>
      <trkpt lat="46.27219" lon="6.56996">
        <ele>1595.2</ele>
        <time>2023-01-21T11:56:06.000Z</time>
      </trkpt>
      <trkpt lat="46.27219" lon="6.56996">
        <ele>1595.2</ele>
        <time>2023-01-21T11:56:07.000Z</time>
      </trkpt>
      <trkpt lat="46.27219" lon="6.56996">
        <ele>1595.2</ele>
        <time>2023-01-21T11:56:08.000Z</time>
      </trkpt>
      <trkpt lat="46.27219" lon="6.56996">
        <ele>1595.2</ele>
        <time>2023-01-21T11:56:09.000Z</time>
      </trkpt>
      <trkpt lat="46.27219" lon="6.56996">
        <ele>1595.2</ele>
        <time>2023-01-21T11:56:10.000Z</time>
      </trkpt>
      <trkpt lat="46.27219" lon="6.56996">
        <ele>1595.2</ele>
        <time>2023-01-21T11:56:11.000Z</time>
      </trkpt>
      <trkpt lat="46.27219" lon="6.56996">
        <ele>1595.2</ele>
        <time>2023-01-21T11:56:12.000Z</time>
      </trkpt>
      <trkpt lat="46.27219" lon="6.56996">
        <ele>1595.2</ele>
        <time>2023-01-21T11:56:13.000Z</time>
      </trkpt>
      <trkpt lat="46.27219" lon="6.56996">
        <ele>1595.2</ele>
        <time>2023-01-21T11:56:14.000Z</time>
      </trkpt>
      <trkpt lat="46.27219" lon="6.56996">
        <ele>1595.2</ele>
        <time>2023-01-21T11:56:15.000Z</time>
      </trkpt>
      <trkpt lat="46.27219" lon="6.56996">
        <ele>1595.2</ele>
        <time>2023-01-21T11:56:16.000Z</time>
      </trkpt>
      <trkpt lat="46.27219" lon="6.56996">
        <ele>1595.2</ele>
        <time>2023-01-21T11:56:17.000Z</time>
      </trkpt>
      <trkpt lat="46.27219" lon="6.56996">
        <ele>1595.2</ele>
        <time>2023-01-21T11:56:18.000Z</time>
      </trkpt>
      <trkpt lat="46.27219" lon="6.56996">
        <ele>1595.2</ele>
        <time>2023-01-21T11:56:19.000Z</time>
      </trkpt>
      <trkpt lat="46.27219" lon="6.56996">
        <ele>1595.2</ele>
        <time>2023-01-21T11:56:20.000Z</time>
      </trkpt>
      <trkpt lat="46.27219" lon="6.56996">
        <ele>1595.2</ele>
        <time>2023-01-21T11:56:21.000Z</time>
      </trkpt>
      <trkpt lat="46.27219" lon="6.56996">
        <ele>1595.2</ele>
        <time>2023-01-21T11:56:22.000Z</time>
      </trkpt>
      <trkpt lat="46.27219" lon="6.56996">
        <ele>1595.2</ele>
        <time>2023-01-21T11:56:23.000Z</time>
      </trkpt>
      <trkpt lat="46.27219" lon="6.56996">
        <ele>1595.2</ele>
        <time>2023-01-21T11:56:24.000Z</time>
      </trkpt>
      <trkpt lat="46.27219" lon="6.56996">
        <ele>1595.2</ele>
        <time>2023-01-21T11:56:25.000Z</time>
      </trkpt>
      <trkpt lat="46.27219" lon="6.56996">
        <ele>1595.2</ele>
        <time>2023-01-21T11:56:26.000Z</time>
      </trkpt>
      <trkpt lat="46.27219" lon="6.56996">
        <ele>1595.2</ele>
        <time>2023-01-21T11:56:27.000Z</time>
      </trkpt>
      <trkpt lat="46.27219" lon="6.56996">
        <ele>1595.2</ele>
        <time>2023-01-21T11:56:28.000Z</time>
      </trkpt>
      <trkpt lat="46.27219" lon="6.56996">
        <ele>1595.2</ele>
        <time>2023-01-21T11:56:29.000Z</time>
      </trkpt>
      <trkpt lat="46.27219" lon="6.56996">
        <ele>1595.2</ele>
        <time>2023-01-21T11:56:30.000Z</time>
      </trkpt>
      <trkpt lat="46.27214" lon="6.57007">
        <ele>1596.6</ele>
        <time>2023-01-21T11:56:31.000Z</time>
      </trkpt>
      <trkpt lat="46.27213" lon="6.57009">
        <ele>1596.7</ele>
        <time>2023-01-21T11:56:32.000Z</time>
      </trkpt>
      <trkpt lat="46.27213" lon="6.57009">
        <ele>1596.7</ele>
        <time>2023-01-21T11:56:33.000Z</time>
      </trkpt>
      <trkpt lat="46.27212" lon="6.5701">
        <ele>1596.7</ele>
        <time>2023-01-21T11:56:34.000Z</time>
      </trkpt>
      <trkpt lat="46.27212" lon="6.5701">
        <ele>1596.7</ele>
        <time>2023-01-21T11:56:35.000Z</time>
      </trkpt>
      <trkpt lat="46.27212" lon="6.5701">
        <ele>1596.7</ele>
        <time>2023-01-21T11:56:36.000Z</time>
      </trkpt>
      <trkpt lat="46.27212" lon="6.5701">
        <ele>1596.7</ele>
        <time>2023-01-21T11:56:37.000Z</time>
      </trkpt>
      <trkpt lat="46.27212" lon="6.5701">
        <ele>1596.7</ele>
        <time>2023-01-21T11:56:38.000Z</time>
      </trkpt>
      <trkpt lat="46.27212" lon="6.5701">
        <ele>1596.7</ele>
        <time>2023-01-21T11:56:39.000Z</time>
      </trkpt>
      <trkpt lat="46.27212" lon="6.5701">
        <ele>1596.7</ele>
        <time>2023-01-21T11:56:40.000Z</time>
      </trkpt>
      <trkpt lat="46.27212" lon="6.5701">
        <ele>1596.7</ele>
        <time>2023-01-21T11:56:41.000Z</time>
      </trkpt>
      <trkpt lat="46.27212" lon="6.5701">
        <ele>1596.7</ele>
        <time>2023-01-21T11:56:42.000Z</time>
      </trkpt>
      <trkpt lat="46.27212" lon="6.5701">
        <ele>1596.7</ele>
        <time>2023-01-21T11:56:43.000Z</time>
      </trkpt>
      <trkpt lat="46.27212" lon="6.5701">
        <ele>1596.7</ele>
        <time>2023-01-21T11:56:44.000Z</time>
      </trkpt>
      <trkpt lat="46.27212" lon="6.5701">
        <ele>1596.7</ele>
        <time>2023-01-21T11:56:45.000Z</time>
      </trkpt>
      <trkpt lat="46.27212" lon="6.5701">
        <ele>1596.7</ele>
        <time>2023-01-21T11:56:46.000Z</time>
      </trkpt>
      <trkpt lat="46.27212" lon="6.5701">
        <ele>1596.7</ele>
        <time>2023-01-21T11:56:47.000Z</time>
      </trkpt>
      <trkpt lat="46.27212" lon="6.5701">
        <ele>1596.7</ele>
        <time>2023-01-21T11:56:48.000Z</time>
      </trkpt>
      <trkpt lat="46.27212" lon="6.5701">
        <ele>1596.7</ele>
        <time>2023-01-21T11:56:49.000Z</time>
      </trkpt>
      <trkpt lat="46.27212" lon="6.5701">
        <ele>1596.7</ele>
        <time>2023-01-21T11:56:50.000Z</time>
      </trkpt>
      <trkpt lat="46.27212" lon="6.5701">
        <ele>1596.7</ele>
        <time>2023-01-21T11:56:51.000Z</time>
      </trkpt>
      <trkpt lat="46.27212" lon="6.5701">
        <ele>1596.7</ele>
        <time>2023-01-21T11:56:52.000Z</time>
      </trkpt>
      <trkpt lat="46.27212" lon="6.5701">
        <ele>1596.7</ele>
        <time>2023-01-21T11:56:53.000Z</time>
      </trkpt>
      <trkpt lat="46.27212" lon="6.5701">
        <ele>1596.7</ele>
        <time>2023-01-21T11:56:54.000Z</time>
      </trkpt>
      <trkpt lat="46.27212" lon="6.5701">
        <ele>1596.7</ele>
        <time>2023-01-21T11:56:55.000Z</time>
      </trkpt>
      <trkpt lat="46.27212" lon="6.5701">
        <ele>1596.7</ele>
        <time>2023-01-21T11:56:56.000Z</time>
      </trkpt>
      <trkpt lat="46.27211" lon="6.57023">
        <ele>1598.6</ele>
        <time>2023-01-21T11:56:57.000Z</time>
      </trkpt>
      <trkpt lat="46.27211" lon="6.57024">
        <ele>1598.7</ele>
        <time>2023-01-21T11:56:58.000Z</time>
      </trkpt>
      <trkpt lat="46.2721" lon="6.57024">
        <ele>1598.7</ele>
        <time>2023-01-21T11:56:59.000Z</time>
      </trkpt>
      <trkpt lat="46.2721" lon="6.57025">
        <ele>1598.8</ele>
        <time>2023-01-21T11:57:00.000Z</time>
      </trkpt>
      <trkpt lat="46.2721" lon="6.57025">
        <ele>1598.8</ele>
        <time>2023-01-21T11:57:01.000Z</time>
      </trkpt>
      <trkpt lat="46.2721" lon="6.57025">
        <ele>1598.8</ele>
        <time>2023-01-21T11:57:02.000Z</time>
      </trkpt>
      <trkpt lat="46.2721" lon="6.57025">
        <ele>1598.8</ele>
        <time>2023-01-21T11:57:03.000Z</time>
      </trkpt>
      <trkpt lat="46.2721" lon="6.57025">
        <ele>1598.8</ele>
        <time>2023-01-21T11:57:04.000Z</time>
      </trkpt>
      <trkpt lat="46.2721" lon="6.57025">
        <ele>1598.8</ele>
        <time>2023-01-21T11:57:05.000Z</time>
      </trkpt>
      <trkpt lat="46.2721" lon="6.57025">
        <ele>1598.8</ele>
        <time>2023-01-21T11:57:06.000Z</time>
      </trkpt>
      <trkpt lat="46.2721" lon="6.57025">
        <ele>1598.8</ele>
        <time>2023-01-21T11:57:07.000Z</time>
      </trkpt>
      <trkpt lat="46.2721" lon="6.57025">
        <ele>1598.8</ele>
        <time>2023-01-21T11:57:08.000Z</time>
      </trkpt>
      <trkpt lat="46.2721" lon="6.57025">
        <ele>1598.8</ele>
        <time>2023-01-21T11:57:09.000Z</time>
      </trkpt>
      <trkpt lat="46.2721" lon="6.57025">
        <ele>1598.8</ele>
        <time>2023-01-21T11:57:10.000Z</time>
      </trkpt>
      <trkpt lat="46.2721" lon="6.57025">
        <ele>1598.8</ele>
        <time>2023-01-21T11:57:11.000Z</time>
      </trkpt>
      <trkpt lat="46.2721" lon="6.57025">
        <ele>1598.8</ele>
        <time>2023-01-21T11:57:12.000Z</time>
      </trkpt>
      <trkpt lat="46.2721" lon="6.57025">
        <ele>1598.8</ele>
        <time>2023-01-21T11:57:13.000Z</time>
      </trkpt>
      <trkpt lat="46.2721" lon="6.57025">
        <ele>1598.8</ele>
        <time>2023-01-21T11:57:14.000Z</time>
      </trkpt>
      <trkpt lat="46.2721" lon="6.57025">
        <ele>1598.8</ele>
        <time>2023-01-21T11:57:15.000Z</time>
      </trkpt>
      <trkpt lat="46.2721" lon="6.57025">
        <ele>1598.8</ele>
        <time>2023-01-21T11:57:16.000Z</time>
      </trkpt>
      <trkpt lat="46.2721" lon="6.57025">
        <ele>1598.8</ele>
        <time>2023-01-21T11:57:17.000Z</time>
      </trkpt>
      <trkpt lat="46.2721" lon="6.57025">
        <ele>1598.8</ele>
        <time>2023-01-21T11:57:18.000Z</time>
      </trkpt>
      <trkpt lat="46.2721" lon="6.57025">
        <ele>1598.8</ele>
        <time>2023-01-21T11:57:19.000Z</time>
      </trkpt>
      <trkpt lat="46.2721" lon="6.57025">
        <ele>1598.8</ele>
        <time>2023-01-21T11:57:20.000Z</time>
      </trkpt>
      <trkpt lat="46.2721" lon="6.57025">
        <ele>1598.8</ele>
        <time>2023-01-21T11:57:21.000Z</time>
      </trkpt>
      <trkpt lat="46.2721" lon="6.57025">
        <ele>1598.8</ele>
        <time>2023-01-21T11:57:22.000Z</time>
      </trkpt>
      <trkpt lat="46.2721" lon="6.57025">
        <ele>1598.8</ele>
        <time>2023-01-21T11:57:23.000Z</time>
      </trkpt>
      <trkpt lat="46.27206" lon="6.57037">
        <ele>1599.9</ele>
        <time>2023-01-21T11:57:24.000Z</time>
      </trkpt>
      <trkpt lat="46.27206" lon="6.57037">
        <ele>1600</ele>
        <time>2023-01-21T11:57:25.000Z</time>
      </trkpt>
      <trkpt lat="46.27206" lon="6.57037">
        <ele>1600.1</ele>
        <time>2023-01-21T11:57:26.000Z</time>
      </trkpt>
      <trkpt lat="46.27206" lon="6.57037">
        <ele>1600.2</ele>
        <time>2023-01-21T11:57:27.000Z</time>
      </trkpt>
      <trkpt lat="46.27206" lon="6.57037">
        <ele>1600.2</ele>
        <time>2023-01-21T11:57:28.000Z</time>
      </trkpt>
      <trkpt lat="46.27206" lon="6.57037">
        <ele>1600.2</ele>
        <time>2023-01-21T11:57:29.000Z</time>
      </trkpt>
      <trkpt lat="46.27206" lon="6.57037">
        <ele>1600.2</ele>
        <time>2023-01-21T11:57:30.000Z</time>
      </trkpt>
      <trkpt lat="46.27206" lon="6.57037">
        <ele>1600.2</ele>
        <time>2023-01-21T11:57:31.000Z</time>
      </trkpt>
      <trkpt lat="46.27206" lon="6.57037">
        <ele>1600.2</ele>
        <time>2023-01-21T11:57:32.000Z</time>
      </trkpt>
      <trkpt lat="46.27206" lon="6.57037">
        <ele>1600.2</ele>
        <time>2023-01-21T11:57:33.000Z</time>
      </trkpt>
      <trkpt lat="46.27206" lon="6.57037">
        <ele>1600.2</ele>
        <time>2023-01-21T11:57:34.000Z</time>
      </trkpt>
      <trkpt lat="46.27206" lon="6.57037">
        <ele>1600.2</ele>
        <time>2023-01-21T11:57:35.000Z</time>
      </trkpt>
      <trkpt lat="46.27206" lon="6.57037">
        <ele>1600.2</ele>
        <time>2023-01-21T11:57:36.000Z</time>
      </trkpt>
      <trkpt lat="46.27206" lon="6.57037">
        <ele>1600.2</ele>
        <time>2023-01-21T11:57:37.000Z</time>
      </trkpt>
      <trkpt lat="46.27206" lon="6.57037">
        <ele>1600.2</ele>
        <time>2023-01-21T11:57:38.000Z</time>
      </trkpt>
      <trkpt lat="46.27206" lon="6.57037">
        <ele>1600.2</ele>
        <time>2023-01-21T11:57:39.000Z</time>
      </trkpt>
      <trkpt lat="46.27206" lon="6.57037">
        <ele>1600.2</ele>
        <time>2023-01-21T11:57:40.000Z</time>
      </trkpt>
      <trkpt lat="46.27206" lon="6.57037">
        <ele>1600.2</ele>
        <time>2023-01-21T11:57:41.000Z</time>
      </trkpt>
      <trkpt lat="46.27206" lon="6.57037">
        <ele>1600.2</ele>
        <time>2023-01-21T11:57:42.000Z</time>
      </trkpt>
      <trkpt lat="46.27206" lon="6.57037">
        <ele>1600.2</ele>
        <time>2023-01-21T11:57:43.000Z</time>
      </trkpt>
      <trkpt lat="46.27206" lon="6.57037">
        <ele>1600.2</ele>
        <time>2023-01-21T11:57:44.000Z</time>
      </trkpt>
      <trkpt lat="46.27206" lon="6.57037">
        <ele>1600.2</ele>
        <time>2023-01-21T11:57:45.000Z</time>
      </trkpt>
      <trkpt lat="46.27206" lon="6.57037">
        <ele>1600.2</ele>
        <time>2023-01-21T11:57:46.000Z</time>
      </trkpt>
      <trkpt lat="46.27206" lon="6.57037">
        <ele>1600.2</ele>
        <time>2023-01-21T11:57:47.000Z</time>
      </trkpt>
      <trkpt lat="46.27206" lon="6.57037">
        <ele>1600.2</ele>
        <time>2023-01-21T11:57:48.000Z</time>
      </trkpt>
      <trkpt lat="46.27206" lon="6.57037">
        <ele>1600.2</ele>
        <time>2023-01-21T11:57:49.000Z</time>
      </trkpt>
      <trkpt lat="46.27206" lon="6.57037">
        <ele>1600.2</ele>
        <time>2023-01-21T11:57:50.000Z</time>
      </trkpt>
      <trkpt lat="46.27206" lon="6.57037">
        <ele>1600.2</ele>
        <time>2023-01-21T11:57:51.000Z</time>
      </trkpt>
      <trkpt lat="46.27206" lon="6.57037">
        <ele>1600.2</ele>
        <time>2023-01-21T11:57:52.000Z</time>
      </trkpt>
      <trkpt lat="46.27206" lon="6.57037">
        <ele>1600.2</ele>
        <time>2023-01-21T11:57:53.000Z</time>
      </trkpt>
      <trkpt lat="46.27206" lon="6.57037">
        <ele>1600.2</ele>
        <time>2023-01-21T11:57:54.000Z</time>
      </trkpt>
      <trkpt lat="46.27206" lon="6.57037">
        <ele>1600.2</ele>
        <time>2023-01-21T11:57:55.000Z</time>
      </trkpt>
      <trkpt lat="46.27206" lon="6.57037">
        <ele>1600.2</ele>
        <time>2023-01-21T11:57:56.000Z</time>
      </trkpt>
      <trkpt lat="46.27206" lon="6.57037">
        <ele>1600.2</ele>
        <time>2023-01-21T11:57:57.000Z</time>
      </trkpt>
      <trkpt lat="46.27206" lon="6.57037">
        <ele>1600.2</ele>
        <time>2023-01-21T11:57:58.000Z</time>
      </trkpt>
      <trkpt lat="46.27206" lon="6.57037">
        <ele>1600.2</ele>
        <time>2023-01-21T11:57:59.000Z</time>
      </trkpt>
      <trkpt lat="46.27206" lon="6.57037">
        <ele>1600.2</ele>
        <time>2023-01-21T11:58:00.000Z</time>
      </trkpt>
      <trkpt lat="46.27206" lon="6.57037">
        <ele>1600.2</ele>
        <time>2023-01-21T11:58:01.000Z</time>
      </trkpt>
      <trkpt lat="46.27206" lon="6.57037">
        <ele>1600.2</ele>
        <time>2023-01-21T11:58:02.000Z</time>
      </trkpt>
      <trkpt lat="46.27206" lon="6.57037">
        <ele>1600.2</ele>
        <time>2023-01-21T11:58:03.000Z</time>
      </trkpt>
      <trkpt lat="46.27206" lon="6.57037">
        <ele>1600.2</ele>
        <time>2023-01-21T11:58:04.000Z</time>
      </trkpt>
      <trkpt lat="46.27201" lon="6.57048">
        <ele>1607.5</ele>
        <time>2023-01-21T11:58:05.000Z</time>
      </trkpt>
      <trkpt lat="46.27201" lon="6.57048">
        <ele>1607.5</ele>
        <time>2023-01-21T11:58:06.000Z</time>
      </trkpt>
      <trkpt lat="46.27201" lon="6.57049">
        <ele>1607.7</ele>
        <time>2023-01-21T11:58:07.000Z</time>
      </trkpt>
      <trkpt lat="46.27202" lon="6.57049">
        <ele>1607.7</ele>
        <time>2023-01-21T11:58:08.000Z</time>
      </trkpt>
      <trkpt lat="46.27202" lon="6.57049">
        <ele>1607.7</ele>
        <time>2023-01-21T11:58:09.000Z</time>
      </trkpt>
      <trkpt lat="46.27202" lon="6.57049">
        <ele>1607.7</ele>
        <time>2023-01-21T11:58:10.000Z</time>
      </trkpt>
      <trkpt lat="46.27202" lon="6.57049">
        <ele>1607.7</ele>
        <time>2023-01-21T11:58:11.000Z</time>
      </trkpt>
      <trkpt lat="46.27202" lon="6.57049">
        <ele>1607.7</ele>
        <time>2023-01-21T11:58:12.000Z</time>
      </trkpt>
      <trkpt lat="46.27202" lon="6.57049">
        <ele>1607.7</ele>
        <time>2023-01-21T11:58:13.000Z</time>
      </trkpt>
      <trkpt lat="46.27202" lon="6.57049">
        <ele>1607.7</ele>
        <time>2023-01-21T11:58:14.000Z</time>
      </trkpt>
      <trkpt lat="46.27202" lon="6.57049">
        <ele>1607.7</ele>
        <time>2023-01-21T11:58:15.000Z</time>
      </trkpt>
      <trkpt lat="46.27202" lon="6.57049">
        <ele>1607.7</ele>
        <time>2023-01-21T11:58:16.000Z</time>
      </trkpt>
      <trkpt lat="46.27202" lon="6.57049">
        <ele>1607.7</ele>
        <time>2023-01-21T11:58:17.000Z</time>
      </trkpt>
      <trkpt lat="46.27202" lon="6.57049">
        <ele>1607.7</ele>
        <time>2023-01-21T11:58:18.000Z</time>
      </trkpt>
      <trkpt lat="46.27202" lon="6.57049">
        <ele>1607.7</ele>
        <time>2023-01-21T11:58:19.000Z</time>
      </trkpt>
      <trkpt lat="46.27202" lon="6.57049">
        <ele>1607.7</ele>
        <time>2023-01-21T11:58:20.000Z</time>
      </trkpt>
      <trkpt lat="46.27202" lon="6.57049">
        <ele>1607.7</ele>
        <time>2023-01-21T11:58:21.000Z</time>
      </trkpt>
      <trkpt lat="46.27202" lon="6.57049">
        <ele>1607.7</ele>
        <time>2023-01-21T11:58:22.000Z</time>
      </trkpt>
      <trkpt lat="46.27202" lon="6.57049">
        <ele>1607.7</ele>
        <time>2023-01-21T11:58:23.000Z</time>
      </trkpt>
      <trkpt lat="46.27202" lon="6.57049">
        <ele>1607.7</ele>
        <time>2023-01-21T11:58:24.000Z</time>
      </trkpt>
      <trkpt lat="46.27202" lon="6.57049">
        <ele>1607.7</ele>
        <time>2023-01-21T11:58:25.000Z</time>
      </trkpt>
      <trkpt lat="46.27202" lon="6.57049">
        <ele>1607.7</ele>
        <time>2023-01-21T11:58:26.000Z</time>
      </trkpt>
      <trkpt lat="46.27202" lon="6.57049">
        <ele>1607.7</ele>
        <time>2023-01-21T11:58:27.000Z</time>
      </trkpt>
      <trkpt lat="46.27201" lon="6.57063">
        <ele>1607.8</ele>
        <time>2023-01-21T11:58:28.000Z</time>
      </trkpt>
      <trkpt lat="46.27201" lon="6.57063">
        <ele>1607.8</ele>
        <time>2023-01-21T11:58:29.000Z</time>
      </trkpt>
      <trkpt lat="46.27201" lon="6.57063">
        <ele>1607.7</ele>
        <time>2023-01-21T11:58:30.000Z</time>
      </trkpt>
      <trkpt lat="46.272" lon="6.57064">
        <ele>1607.6</ele>
        <time>2023-01-21T11:58:31.000Z</time>
      </trkpt>
      <trkpt lat="46.272" lon="6.57064">
        <ele>1607.6</ele>
        <time>2023-01-21T11:58:32.000Z</time>
      </trkpt>
      <trkpt lat="46.272" lon="6.57064">
        <ele>1607.6</ele>
        <time>2023-01-21T11:58:33.000Z</time>
      </trkpt>
      <trkpt lat="46.272" lon="6.57064">
        <ele>1607.6</ele>
        <time>2023-01-21T11:58:34.000Z</time>
      </trkpt>
      <trkpt lat="46.272" lon="6.57064">
        <ele>1607.6</ele>
        <time>2023-01-21T11:58:35.000Z</time>
      </trkpt>
      <trkpt lat="46.272" lon="6.57064">
        <ele>1607.6</ele>
        <time>2023-01-21T11:58:36.000Z</time>
      </trkpt>
      <trkpt lat="46.272" lon="6.57064">
        <ele>1607.6</ele>
        <time>2023-01-21T11:58:37.000Z</time>
      </trkpt>
      <trkpt lat="46.272" lon="6.57064">
        <ele>1607.6</ele>
        <time>2023-01-21T11:58:38.000Z</time>
      </trkpt>
      <trkpt lat="46.272" lon="6.57064">
        <ele>1607.6</ele>
        <time>2023-01-21T11:58:39.000Z</time>
      </trkpt>
      <trkpt lat="46.272" lon="6.57064">
        <ele>1607.6</ele>
        <time>2023-01-21T11:58:40.000Z</time>
      </trkpt>
      <trkpt lat="46.272" lon="6.57064">
        <ele>1607.6</ele>
        <time>2023-01-21T11:58:41.000Z</time>
      </trkpt>
      <trkpt lat="46.272" lon="6.57064">
        <ele>1607.6</ele>
        <time>2023-01-21T11:58:42.000Z</time>
      </trkpt>
      <trkpt lat="46.272" lon="6.57064">
        <ele>1607.6</ele>
        <time>2023-01-21T11:58:43.000Z</time>
      </trkpt>
      <trkpt lat="46.272" lon="6.57064">
        <ele>1607.6</ele>
        <time>2023-01-21T11:58:44.000Z</time>
      </trkpt>
      <trkpt lat="46.272" lon="6.57064">
        <ele>1607.6</ele>
        <time>2023-01-21T11:58:45.000Z</time>
      </trkpt>
      <trkpt lat="46.272" lon="6.57064">
        <ele>1607.6</ele>
        <time>2023-01-21T11:58:46.000Z</time>
      </trkpt>
      <trkpt lat="46.272" lon="6.57064">
        <ele>1607.6</ele>
        <time>2023-01-21T11:58:47.000Z</time>
      </trkpt>
      <trkpt lat="46.272" lon="6.57064">
        <ele>1607.6</ele>
        <time>2023-01-21T11:58:48.000Z</time>
      </trkpt>
      <trkpt lat="46.272" lon="6.57064">
        <ele>1607.6</ele>
        <time>2023-01-21T11:58:49.000Z</time>
      </trkpt>
      <trkpt lat="46.272" lon="6.57064">
        <ele>1607.6</ele>
        <time>2023-01-21T11:58:50.000Z</time>
      </trkpt>
      <trkpt lat="46.272" lon="6.57064">
        <ele>1607.6</ele>
        <time>2023-01-21T11:58:51.000Z</time>
      </trkpt>
      <trkpt lat="46.27192" lon="6.5707">
        <ele>1609.7</ele>
        <time>2023-01-21T11:58:52.000Z</time>
      </trkpt>
      <trkpt lat="46.27191" lon="6.5707">
        <ele>1609.9</ele>
        <time>2023-01-21T11:58:53.000Z</time>
      </trkpt>
      <trkpt lat="46.27191" lon="6.5707">
        <ele>1610.2</ele>
        <time>2023-01-21T11:58:54.000Z</time>
      </trkpt>
      <trkpt lat="46.2719" lon="6.57069">
        <ele>1610.4</ele>
        <time>2023-01-21T11:58:55.000Z</time>
      </trkpt>
      <trkpt lat="46.2719" lon="6.57069">
        <ele>1610.4</ele>
        <time>2023-01-21T11:58:56.000Z</time>
      </trkpt>
      <trkpt lat="46.2719" lon="6.57069">
        <ele>1610.4</ele>
        <time>2023-01-21T11:58:57.000Z</time>
      </trkpt>
      <trkpt lat="46.2719" lon="6.57069">
        <ele>1610.4</ele>
        <time>2023-01-21T11:58:58.000Z</time>
      </trkpt>
      <trkpt lat="46.2719" lon="6.57069">
        <ele>1610.4</ele>
        <time>2023-01-21T11:58:59.000Z</time>
      </trkpt>
      <trkpt lat="46.2719" lon="6.57069">
        <ele>1610.4</ele>
        <time>2023-01-21T11:59:00.000Z</time>
      </trkpt>
      <trkpt lat="46.2719" lon="6.57069">
        <ele>1610.4</ele>
        <time>2023-01-21T11:59:01.000Z</time>
      </trkpt>
      <trkpt lat="46.2719" lon="6.57069">
        <ele>1610.4</ele>
        <time>2023-01-21T11:59:02.000Z</time>
      </trkpt>
      <trkpt lat="46.2719" lon="6.57069">
        <ele>1610.4</ele>
        <time>2023-01-21T11:59:03.000Z</time>
      </trkpt>
      <trkpt lat="46.2719" lon="6.57069">
        <ele>1610.4</ele>
        <time>2023-01-21T11:59:04.000Z</time>
      </trkpt>
      <trkpt lat="46.2719" lon="6.57069">
        <ele>1610.4</ele>
        <time>2023-01-21T11:59:05.000Z</time>
      </trkpt>
      <trkpt lat="46.2719" lon="6.57069">
        <ele>1610.4</ele>
        <time>2023-01-21T11:59:06.000Z</time>
      </trkpt>
      <trkpt lat="46.2719" lon="6.57069">
        <ele>1610.4</ele>
        <time>2023-01-21T11:59:07.000Z</time>
      </trkpt>
      <trkpt lat="46.2719" lon="6.57069">
        <ele>1610.4</ele>
        <time>2023-01-21T11:59:08.000Z</time>
      </trkpt>
      <trkpt lat="46.2719" lon="6.57069">
        <ele>1610.4</ele>
        <time>2023-01-21T11:59:09.000Z</time>
      </trkpt>
      <trkpt lat="46.2719" lon="6.57069">
        <ele>1610.4</ele>
        <time>2023-01-21T11:59:10.000Z</time>
      </trkpt>
      <trkpt lat="46.2719" lon="6.57069">
        <ele>1610.4</ele>
        <time>2023-01-21T11:59:11.000Z</time>
      </trkpt>
      <trkpt lat="46.2719" lon="6.57069">
        <ele>1610.4</ele>
        <time>2023-01-21T11:59:12.000Z</time>
      </trkpt>
      <trkpt lat="46.2719" lon="6.57069">
        <ele>1610.4</ele>
        <time>2023-01-21T11:59:13.000Z</time>
      </trkpt>
      <trkpt lat="46.2719" lon="6.57069">
        <ele>1610.4</ele>
        <time>2023-01-21T11:59:14.000Z</time>
      </trkpt>
      <trkpt lat="46.2719" lon="6.57069">
        <ele>1610.4</ele>
        <time>2023-01-21T11:59:15.000Z</time>
      </trkpt>
      <trkpt lat="46.2719" lon="6.57069">
        <ele>1613.4</ele>
        <time>2023-01-21T11:59:16.000Z</time>
      </trkpt>
      <trkpt lat="46.2719" lon="6.57069">
        <ele>1613.4</ele>
        <time>2023-01-21T11:59:17.000Z</time>
      </trkpt>
      <trkpt lat="46.2719" lon="6.57069">
        <ele>1613.4</ele>
        <time>2023-01-21T11:59:18.000Z</time>
      </trkpt>
      <trkpt lat="46.2719" lon="6.57069">
        <ele>1613.4</ele>
        <time>2023-01-21T11:59:19.000Z</time>
      </trkpt>
      <trkpt lat="46.2719" lon="6.57069">
        <ele>1613.4</ele>
        <time>2023-01-21T11:59:20.000Z</time>
      </trkpt>
      <trkpt lat="46.2719" lon="6.57069">
        <ele>1613.4</ele>
        <time>2023-01-21T11:59:21.000Z</time>
      </trkpt>
      <trkpt lat="46.2719" lon="6.57069">
        <ele>1613.4</ele>
        <time>2023-01-21T11:59:22.000Z</time>
      </trkpt>
      <trkpt lat="46.2719" lon="6.57069">
        <ele>1613.4</ele>
        <time>2023-01-21T11:59:23.000Z</time>
      </trkpt>
      <trkpt lat="46.2719" lon="6.57069">
        <ele>1613.4</ele>
        <time>2023-01-21T11:59:24.000Z</time>
      </trkpt>
      <trkpt lat="46.2719" lon="6.57069">
        <ele>1613.4</ele>
        <time>2023-01-21T11:59:25.000Z</time>
      </trkpt>
      <trkpt lat="46.2719" lon="6.57069">
        <ele>1613.4</ele>
        <time>2023-01-21T11:59:26.000Z</time>
      </trkpt>
      <trkpt lat="46.2719" lon="6.57069">
        <ele>1613.4</ele>
        <time>2023-01-21T11:59:27.000Z</time>
      </trkpt>
      <trkpt lat="46.2719" lon="6.57069">
        <ele>1613.4</ele>
        <time>2023-01-21T11:59:28.000Z</time>
      </trkpt>
      <trkpt lat="46.2719" lon="6.57069">
        <ele>1613.4</ele>
        <time>2023-01-21T11:59:29.000Z</time>
      </trkpt>
      <trkpt lat="46.2719" lon="6.57069">
        <ele>1613.4</ele>
        <time>2023-01-21T11:59:30.000Z</time>
      </trkpt>
      <trkpt lat="46.2719" lon="6.57069">
        <ele>1616.7</ele>
        <time>2023-01-21T11:59:31.000Z</time>
      </trkpt>
      <trkpt lat="46.2719" lon="6.57069">
        <ele>1616.7</ele>
        <time>2023-01-21T11:59:32.000Z</time>
      </trkpt>
      <trkpt lat="46.2719" lon="6.57069">
        <ele>1616.7</ele>
        <time>2023-01-21T11:59:33.000Z</time>
      </trkpt>
      <trkpt lat="46.2719" lon="6.57069">
        <ele>1616.7</ele>
        <time>2023-01-21T11:59:34.000Z</time>
      </trkpt>
      <trkpt lat="46.2719" lon="6.57069">
        <ele>1616.7</ele>
        <time>2023-01-21T11:59:35.000Z</time>
      </trkpt>
      <trkpt lat="46.2719" lon="6.57069">
        <ele>1616.7</ele>
        <time>2023-01-21T11:59:36.000Z</time>
      </trkpt>
      <trkpt lat="46.2719" lon="6.57069">
        <ele>1616.7</ele>
        <time>2023-01-21T11:59:37.000Z</time>
      </trkpt>
      <trkpt lat="46.2719" lon="6.57069">
        <ele>1616.7</ele>
        <time>2023-01-21T11:59:38.000Z</time>
      </trkpt>
      <trkpt lat="46.2719" lon="6.57069">
        <ele>1616.7</ele>
        <time>2023-01-21T11:59:39.000Z</time>
      </trkpt>
      <trkpt lat="46.2719" lon="6.57069">
        <ele>1616.7</ele>
        <time>2023-01-21T11:59:40.000Z</time>
      </trkpt>
      <trkpt lat="46.2719" lon="6.57069">
        <ele>1616.7</ele>
        <time>2023-01-21T11:59:41.000Z</time>
      </trkpt>
      <trkpt lat="46.2719" lon="6.57069">
        <ele>1616.7</ele>
        <time>2023-01-21T11:59:42.000Z</time>
      </trkpt>
      <trkpt lat="46.2719" lon="6.57069">
        <ele>1616.7</ele>
        <time>2023-01-21T11:59:43.000Z</time>
      </trkpt>
      <trkpt lat="46.2719" lon="6.57069">
        <ele>1616.7</ele>
        <time>2023-01-21T11:59:44.000Z</time>
      </trkpt>
      <trkpt lat="46.2719" lon="6.57069">
        <ele>1616.7</ele>
        <time>2023-01-21T11:59:45.000Z</time>
      </trkpt>
      <trkpt lat="46.2719" lon="6.57069">
        <ele>1616.7</ele>
        <time>2023-01-21T11:59:46.000Z</time>
      </trkpt>
      <trkpt lat="46.2719" lon="6.57069">
        <ele>1616.7</ele>
        <time>2023-01-21T11:59:47.000Z</time>
      </trkpt>
      <trkpt lat="46.2719" lon="6.57069">
        <ele>1616.7</ele>
        <time>2023-01-21T11:59:48.000Z</time>
      </trkpt>
      <trkpt lat="46.2719" lon="6.57069">
        <ele>1616.7</ele>
        <time>2023-01-21T11:59:49.000Z</time>
      </trkpt>
      <trkpt lat="46.2719" lon="6.57069">
        <ele>1616.7</ele>
        <time>2023-01-21T11:59:50.000Z</time>
      </trkpt>
      <trkpt lat="46.2719" lon="6.57069">
        <ele>1616.7</ele>
        <time>2023-01-21T11:59:51.000Z</time>
      </trkpt>
      <trkpt lat="46.2719" lon="6.57069">
        <ele>1616.7</ele>
        <time>2023-01-21T11:59:52.000Z</time>
      </trkpt>
      <trkpt lat="46.2719" lon="6.57069">
        <ele>1616.7</ele>
        <time>2023-01-21T11:59:53.000Z</time>
      </trkpt>
      <trkpt lat="46.2719" lon="6.57069">
        <ele>1619.7</ele>
        <time>2023-01-21T11:59:54.000Z</time>
      </trkpt>
      <trkpt lat="46.2719" lon="6.57069">
        <ele>1619.7</ele>
        <time>2023-01-21T11:59:55.000Z</time>
      </trkpt>
      <trkpt lat="46.2719" lon="6.57069">
        <ele>1619.7</ele>
        <time>2023-01-21T11:59:56.000Z</time>
      </trkpt>
      <trkpt lat="46.2719" lon="6.57069">
        <ele>1619.7</ele>
        <time>2023-01-21T11:59:57.000Z</time>
      </trkpt>
      <trkpt lat="46.2719" lon="6.57069">
        <ele>1619.7</ele>
        <time>2023-01-21T11:59:58.000Z</time>
      </trkpt>
      <trkpt lat="46.2719" lon="6.57069">
        <ele>1619.7</ele>
        <time>2023-01-21T11:59:59.000Z</time>
      </trkpt>
      <trkpt lat="46.2719" lon="6.57069">
        <ele>1619.7</ele>
        <time>2023-01-21T12:00:00.000Z</time>
      </trkpt>
      <trkpt lat="46.2719" lon="6.57069">
        <ele>1619.7</ele>
        <time>2023-01-21T12:00:01.000Z</time>
      </trkpt>
      <trkpt lat="46.2719" lon="6.57069">
        <ele>1619.7</ele>
        <time>2023-01-21T12:00:02.000Z</time>
      </trkpt>
      <trkpt lat="46.2719" lon="6.57069">
        <ele>1619.7</ele>
        <time>2023-01-21T12:00:03.000Z</time>
      </trkpt>
      <trkpt lat="46.2719" lon="6.57069">
        <ele>1619.7</ele>
        <time>2023-01-21T12:00:04.000Z</time>
      </trkpt>
      <trkpt lat="46.2719" lon="6.57069">
        <ele>1619.7</ele>
        <time>2023-01-21T12:00:05.000Z</time>
      </trkpt>
      <trkpt lat="46.2719" lon="6.57069">
        <ele>1619.7</ele>
        <time>2023-01-21T12:00:06.000Z</time>
      </trkpt>
      <trkpt lat="46.2719" lon="6.57069">
        <ele>1619.7</ele>
        <time>2023-01-21T12:00:07.000Z</time>
      </trkpt>
      <trkpt lat="46.2719" lon="6.57069">
        <ele>1619.7</ele>
        <time>2023-01-21T12:00:08.000Z</time>
      </trkpt>
      <trkpt lat="46.2719" lon="6.57069">
        <ele>1619.7</ele>
        <time>2023-01-21T12:00:09.000Z</time>
      </trkpt>
      <trkpt lat="46.2719" lon="6.57069">
        <ele>1619.7</ele>
        <time>2023-01-21T12:00:10.000Z</time>
      </trkpt>
      <trkpt lat="46.2719" lon="6.57069">
        <ele>1625.2</ele>
        <time>2023-01-21T12:00:11.000Z</time>
      </trkpt>
      <trkpt lat="46.2719" lon="6.57069">
        <ele>1625.2</ele>
        <time>2023-01-21T12:00:12.000Z</time>
      </trkpt>
      <trkpt lat="46.2719" lon="6.57069">
        <ele>1625.2</ele>
        <time>2023-01-21T12:00:13.000Z</time>
      </trkpt>
      <trkpt lat="46.2719" lon="6.57069">
        <ele>1625.2</ele>
        <time>2023-01-21T12:00:14.000Z</time>
      </trkpt>
      <trkpt lat="46.2719" lon="6.57069">
        <ele>1625.2</ele>
        <time>2023-01-21T12:00:15.000Z</time>
      </trkpt>
      <trkpt lat="46.2719" lon="6.57069">
        <ele>1625.2</ele>
        <time>2023-01-21T12:00:16.000Z</time>
      </trkpt>
      <trkpt lat="46.2719" lon="6.57069">
        <ele>1625.2</ele>
        <time>2023-01-21T12:00:17.000Z</time>
      </trkpt>
      <trkpt lat="46.2719" lon="6.57069">
        <ele>1625.2</ele>
        <time>2023-01-21T12:00:18.000Z</time>
      </trkpt>
      <trkpt lat="46.2719" lon="6.57069">
        <ele>1625.2</ele>
        <time>2023-01-21T12:00:19.000Z</time>
      </trkpt>
      <trkpt lat="46.2719" lon="6.57069">
        <ele>1625.2</ele>
        <time>2023-01-21T12:00:20.000Z</time>
      </trkpt>
      <trkpt lat="46.27179" lon="6.57072">
        <ele>1625.4</ele>
        <time>2023-01-21T12:00:21.000Z</time>
      </trkpt>
      <trkpt lat="46.2718" lon="6.57072">
        <ele>1625.9</ele>
        <time>2023-01-21T12:00:22.000Z</time>
      </trkpt>
      <trkpt lat="46.27181" lon="6.57071">
        <ele>1625.6</ele>
        <time>2023-01-21T12:00:23.000Z</time>
      </trkpt>
      <trkpt lat="46.27182" lon="6.57071">
        <ele>1625.1</ele>
        <time>2023-01-21T12:00:24.000Z</time>
      </trkpt>
      <trkpt lat="46.27182" lon="6.5707">
        <ele>1624.8</ele>
        <time>2023-01-21T12:00:25.000Z</time>
      </trkpt>
      <trkpt lat="46.27183" lon="6.57069">
        <ele>1624.8</ele>
        <time>2023-01-21T12:00:26.000Z</time>
      </trkpt>
      <trkpt lat="46.27183" lon="6.57068">
        <ele>1624.9</ele>
        <time>2023-01-21T12:00:27.000Z</time>
      </trkpt>
      <trkpt lat="46.27184" lon="6.57068">
        <ele>1625</ele>
        <time>2023-01-21T12:00:28.000Z</time>
      </trkpt>
      <trkpt lat="46.27184" lon="6.57068">
        <ele>1625</ele>
        <time>2023-01-21T12:00:29.000Z</time>
      </trkpt>
      <trkpt lat="46.27184" lon="6.57068">
        <ele>1625</ele>
        <time>2023-01-21T12:00:30.000Z</time>
      </trkpt>
      <trkpt lat="46.27184" lon="6.57068">
        <ele>1625</ele>
        <time>2023-01-21T12:00:31.000Z</time>
      </trkpt>
      <trkpt lat="46.27184" lon="6.57068">
        <ele>1625</ele>
        <time>2023-01-21T12:00:32.000Z</time>
      </trkpt>
      <trkpt lat="46.27184" lon="6.57068">
        <ele>1625</ele>
        <time>2023-01-21T12:00:33.000Z</time>
      </trkpt>
      <trkpt lat="46.27184" lon="6.57068">
        <ele>1625</ele>
        <time>2023-01-21T12:00:34.000Z</time>
      </trkpt>
      <trkpt lat="46.27185" lon="6.57068">
        <ele>1623.9</ele>
        <time>2023-01-21T12:00:35.000Z</time>
      </trkpt>
      <trkpt lat="46.27184" lon="6.57067">
        <ele>1624.1</ele>
        <time>2023-01-21T12:00:36.000Z</time>
      </trkpt>
      <trkpt lat="46.27184" lon="6.57068">
        <ele>1622.8</ele>
        <time>2023-01-21T12:00:37.000Z</time>
      </trkpt>
      <trkpt lat="46.27184" lon="6.57069">
        <ele>1622.1</ele>
        <time>2023-01-21T12:00:38.000Z</time>
      </trkpt>
      <trkpt lat="46.27183" lon="6.57071">
        <ele>1621.7</ele>
        <time>2023-01-21T12:00:39.000Z</time>
      </trkpt>
      <trkpt lat="46.27182" lon="6.57074">
        <ele>1622.3</ele>
        <time>2023-01-21T12:00:40.000Z</time>
      </trkpt>
      <trkpt lat="46.2718" lon="6.57078">
        <ele>1622.7</ele>
        <time>2023-01-21T12:00:41.000Z</time>
      </trkpt>
      <trkpt lat="46.2718" lon="6.57081">
        <ele>1623.1</ele>
        <time>2023-01-21T12:00:42.000Z</time>
      </trkpt>
      <trkpt lat="46.2718" lon="6.57084">
        <ele>1623.3</ele>
        <time>2023-01-21T12:00:43.000Z</time>
      </trkpt>
      <trkpt lat="46.27181" lon="6.57081">
        <ele>1623</ele>
        <time>2023-01-21T12:00:44.000Z</time>
      </trkpt>
      <trkpt lat="46.2718" lon="6.57081">
        <ele>1623.1</ele>
        <time>2023-01-21T12:00:45.000Z</time>
      </trkpt>
      <trkpt lat="46.2718" lon="6.57077">
        <ele>1622</ele>
        <time>2023-01-21T12:00:46.000Z</time>
      </trkpt>
      <trkpt lat="46.27182" lon="6.57073">
        <ele>1622.1</ele>
        <time>2023-01-21T12:00:47.000Z</time>
      </trkpt>
      <trkpt lat="46.27182" lon="6.57075">
        <ele>1622.7</ele>
        <time>2023-01-21T12:00:48.000Z</time>
      </trkpt>
      <trkpt lat="46.27181" lon="6.57077">
        <ele>1624.4</ele>
        <time>2023-01-21T12:00:49.000Z</time>
      </trkpt>
      <trkpt lat="46.27181" lon="6.57076">
        <ele>1623.9</ele>
        <time>2023-01-21T12:00:50.000Z</time>
      </trkpt>
      <trkpt lat="46.2718" lon="6.57076">
        <ele>1623.3</ele>
        <time>2023-01-21T12:00:51.000Z</time>
      </trkpt>
      <trkpt lat="46.2718" lon="6.57076">
        <ele>1623.3</ele>
        <time>2023-01-21T12:00:52.000Z</time>
      </trkpt>
      <trkpt lat="46.27179" lon="6.57077">
        <ele>1623</ele>
        <time>2023-01-21T12:00:53.000Z</time>
      </trkpt>
      <trkpt lat="46.27173" lon="6.57074">
        <ele>1623.7</ele>
        <time>2023-01-21T12:00:54.000Z</time>
      </trkpt>
      <trkpt lat="46.27172" lon="6.57073">
        <ele>1624.3</ele>
        <time>2023-01-21T12:00:55.000Z</time>
      </trkpt>
      <trkpt lat="46.27172" lon="6.57072">
        <ele>1624.4</ele>
        <time>2023-01-21T12:00:56.000Z</time>
      </trkpt>
      <trkpt lat="46.27173" lon="6.57073">
        <ele>1624.8</ele>
        <time>2023-01-21T12:00:57.000Z</time>
      </trkpt>
      <trkpt lat="46.27173" lon="6.57073">
        <ele>1624.9</ele>
        <time>2023-01-21T12:00:58.000Z</time>
      </trkpt>
      <trkpt lat="46.27172" lon="6.57072">
        <ele>1626.6</ele>
        <time>2023-01-21T12:00:59.000Z</time>
      </trkpt>
      <trkpt lat="46.27168" lon="6.57067">
        <ele>1628.9</ele>
        <time>2023-01-21T12:01:00.000Z</time>
      </trkpt>
      <trkpt lat="46.27167" lon="6.57067">
        <ele>1630.1</ele>
        <time>2023-01-21T12:01:01.000Z</time>
      </trkpt>
      <trkpt lat="46.27165" lon="6.57067">
        <ele>1631</ele>
        <time>2023-01-21T12:01:02.000Z</time>
      </trkpt>
      <trkpt lat="46.27165" lon="6.57067">
        <ele>1631.7</ele>
        <time>2023-01-21T12:01:03.000Z</time>
      </trkpt>
      <trkpt lat="46.27165" lon="6.57067">
        <ele>1632.6</ele>
        <time>2023-01-21T12:01:04.000Z</time>
      </trkpt>
      <trkpt lat="46.27164" lon="6.57067">
        <ele>1632.9</ele>
        <time>2023-01-21T12:01:05.000Z</time>
      </trkpt>
      <trkpt lat="46.27164" lon="6.57068">
        <ele>1633.3</ele>
        <time>2023-01-21T12:01:06.000Z</time>
      </trkpt>
      <trkpt lat="46.27164" lon="6.57068">
        <ele>1633.9</ele>
        <time>2023-01-21T12:01:07.000Z</time>
      </trkpt>
      <trkpt lat="46.27163" lon="6.57068">
        <ele>1634.6</ele>
        <time>2023-01-21T12:01:08.000Z</time>
      </trkpt>
      <trkpt lat="46.27163" lon="6.57068">
        <ele>1635</ele>
        <time>2023-01-21T12:01:09.000Z</time>
      </trkpt>
      <trkpt lat="46.27163" lon="6.5707">
        <ele>1635.6</ele>
        <time>2023-01-21T12:01:10.000Z</time>
      </trkpt>
      <trkpt lat="46.27164" lon="6.57071">
        <ele>1636</ele>
        <time>2023-01-21T12:01:11.000Z</time>
      </trkpt>
      <trkpt lat="46.27164" lon="6.57071">
        <ele>1636.6</ele>
        <time>2023-01-21T12:01:12.000Z</time>
      </trkpt>
      <trkpt lat="46.27163" lon="6.57071">
        <ele>1637.4</ele>
        <time>2023-01-21T12:01:13.000Z</time>
      </trkpt>
      <trkpt lat="46.27163" lon="6.57071">
        <ele>1637.4</ele>
        <time>2023-01-21T12:01:14.000Z</time>
      </trkpt>
      <trkpt lat="46.27163" lon="6.57071">
        <ele>1637.4</ele>
        <time>2023-01-21T12:01:15.000Z</time>
      </trkpt>
      <trkpt lat="46.27163" lon="6.57071">
        <ele>1637.4</ele>
        <time>2023-01-21T12:01:16.000Z</time>
      </trkpt>
      <trkpt lat="46.27163" lon="6.57071">
        <ele>1637.4</ele>
        <time>2023-01-21T12:01:17.000Z</time>
      </trkpt>
      <trkpt lat="46.27163" lon="6.57071">
        <ele>1637.4</ele>
        <time>2023-01-21T12:01:18.000Z</time>
      </trkpt>
      <trkpt lat="46.27163" lon="6.57071">
        <ele>1637.4</ele>
        <time>2023-01-21T12:01:19.000Z</time>
      </trkpt>
      <trkpt lat="46.27163" lon="6.57071">
        <ele>1637.4</ele>
        <time>2023-01-21T12:01:20.000Z</time>
      </trkpt>
      <trkpt lat="46.27163" lon="6.57071">
        <ele>1637.4</ele>
        <time>2023-01-21T12:01:21.000Z</time>
      </trkpt>
      <trkpt lat="46.27163" lon="6.57071">
        <ele>1637.4</ele>
        <time>2023-01-21T12:01:22.000Z</time>
      </trkpt>
      <trkpt lat="46.27163" lon="6.57071">
        <ele>1637.4</ele>
        <time>2023-01-21T12:01:23.000Z</time>
      </trkpt>
      <trkpt lat="46.27163" lon="6.57071">
        <ele>1637.4</ele>
        <time>2023-01-21T12:01:24.000Z</time>
      </trkpt>
      <trkpt lat="46.27163" lon="6.57071">
        <ele>1637.4</ele>
        <time>2023-01-21T12:01:25.000Z</time>
      </trkpt>
      <trkpt lat="46.27163" lon="6.57071">
        <ele>1637.4</ele>
        <time>2023-01-21T12:01:26.000Z</time>
      </trkpt>
      <trkpt lat="46.27163" lon="6.57071">
        <ele>1637.4</ele>
        <time>2023-01-21T12:01:27.000Z</time>
      </trkpt>
      <trkpt lat="46.27163" lon="6.57071">
        <ele>1637.4</ele>
        <time>2023-01-21T12:01:28.000Z</time>
      </trkpt>
      <trkpt lat="46.27168" lon="6.57083">
        <ele>1637.5</ele>
        <time>2023-01-21T12:01:29.000Z</time>
      </trkpt>
      <trkpt lat="46.27169" lon="6.57084">
        <ele>1637.2</ele>
        <time>2023-01-21T12:01:30.000Z</time>
      </trkpt>
      <trkpt lat="46.2717" lon="6.57085">
        <ele>1637.1</ele>
        <time>2023-01-21T12:01:31.000Z</time>
      </trkpt>
      <trkpt lat="46.27171" lon="6.57086">
        <ele>1637</ele>
        <time>2023-01-21T12:01:32.000Z</time>
      </trkpt>
      <trkpt lat="46.27171" lon="6.57086">
        <ele>1637</ele>
        <time>2023-01-21T12:01:33.000Z</time>
      </trkpt>
      <trkpt lat="46.27171" lon="6.57086">
        <ele>1637</ele>
        <time>2023-01-21T12:01:34.000Z</time>
      </trkpt>
      <trkpt lat="46.27171" lon="6.57086">
        <ele>1637</ele>
        <time>2023-01-21T12:01:35.000Z</time>
      </trkpt>
      <trkpt lat="46.27171" lon="6.57086">
        <ele>1637</ele>
        <time>2023-01-21T12:01:36.000Z</time>
      </trkpt>
      <trkpt lat="46.27171" lon="6.57086">
        <ele>1637</ele>
        <time>2023-01-21T12:01:37.000Z</time>
      </trkpt>
      <trkpt lat="46.27171" lon="6.57086">
        <ele>1637</ele>
        <time>2023-01-21T12:01:38.000Z</time>
      </trkpt>
      <trkpt lat="46.27171" lon="6.57086">
        <ele>1637</ele>
        <time>2023-01-21T12:01:39.000Z</time>
      </trkpt>
      <trkpt lat="46.27171" lon="6.57086">
        <ele>1637</ele>
        <time>2023-01-21T12:01:40.000Z</time>
      </trkpt>
      <trkpt lat="46.27171" lon="6.57086">
        <ele>1637</ele>
        <time>2023-01-21T12:01:41.000Z</time>
      </trkpt>
      <trkpt lat="46.27171" lon="6.57086">
        <ele>1637</ele>
        <time>2023-01-21T12:01:42.000Z</time>
      </trkpt>
      <trkpt lat="46.27171" lon="6.57086">
        <ele>1637</ele>
        <time>2023-01-21T12:01:43.000Z</time>
      </trkpt>
      <trkpt lat="46.27171" lon="6.57086">
        <ele>1637</ele>
        <time>2023-01-21T12:01:44.000Z</time>
      </trkpt>
      <trkpt lat="46.27171" lon="6.57086">
        <ele>1637</ele>
        <time>2023-01-21T12:01:45.000Z</time>
      </trkpt>
      <trkpt lat="46.27171" lon="6.57086">
        <ele>1637</ele>
        <time>2023-01-21T12:01:46.000Z</time>
      </trkpt>
      <trkpt lat="46.27173" lon="6.57099">
        <ele>1634.4</ele>
        <time>2023-01-21T12:01:47.000Z</time>
      </trkpt>
      <trkpt lat="46.27174" lon="6.57099">
        <ele>1634.5</ele>
        <time>2023-01-21T12:01:48.000Z</time>
      </trkpt>
      <trkpt lat="46.27174" lon="6.571">
        <ele>1634.5</ele>
        <time>2023-01-21T12:01:49.000Z</time>
      </trkpt>
      <trkpt lat="46.27174" lon="6.57101">
        <ele>1634.4</ele>
        <time>2023-01-21T12:01:50.000Z</time>
      </trkpt>
      <trkpt lat="46.27174" lon="6.57101">
        <ele>1634.4</ele>
        <time>2023-01-21T12:01:51.000Z</time>
      </trkpt>
      <trkpt lat="46.27174" lon="6.57101">
        <ele>1634.4</ele>
        <time>2023-01-21T12:01:52.000Z</time>
      </trkpt>
      <trkpt lat="46.27174" lon="6.57101">
        <ele>1634.4</ele>
        <time>2023-01-21T12:01:53.000Z</time>
      </trkpt>
      <trkpt lat="46.27174" lon="6.57101">
        <ele>1634.4</ele>
        <time>2023-01-21T12:01:54.000Z</time>
      </trkpt>
      <trkpt lat="46.27174" lon="6.57101">
        <ele>1634.4</ele>
        <time>2023-01-21T12:01:55.000Z</time>
      </trkpt>
      <trkpt lat="46.27174" lon="6.57101">
        <ele>1634.4</ele>
        <time>2023-01-21T12:01:56.000Z</time>
      </trkpt>
      <trkpt lat="46.27174" lon="6.57101">
        <ele>1634.4</ele>
        <time>2023-01-21T12:01:57.000Z</time>
      </trkpt>
      <trkpt lat="46.27174" lon="6.57101">
        <ele>1634.4</ele>
        <time>2023-01-21T12:01:58.000Z</time>
      </trkpt>
      <trkpt lat="46.27174" lon="6.57101">
        <ele>1634.4</ele>
        <time>2023-01-21T12:01:59.000Z</time>
      </trkpt>
      <trkpt lat="46.27174" lon="6.57101">
        <ele>1634.4</ele>
        <time>2023-01-21T12:02:00.000Z</time>
      </trkpt>
      <trkpt lat="46.27174" lon="6.57101">
        <ele>1634.4</ele>
        <time>2023-01-21T12:02:01.000Z</time>
      </trkpt>
      <trkpt lat="46.27174" lon="6.57101">
        <ele>1634.4</ele>
        <time>2023-01-21T12:02:02.000Z</time>
      </trkpt>
      <trkpt lat="46.27174" lon="6.57101">
        <ele>1634.4</ele>
        <time>2023-01-21T12:02:03.000Z</time>
      </trkpt>
      <trkpt lat="46.27174" lon="6.57101">
        <ele>1634.4</ele>
        <time>2023-01-21T12:02:04.000Z</time>
      </trkpt>
      <trkpt lat="46.27174" lon="6.57101">
        <ele>1634.4</ele>
        <time>2023-01-21T12:02:05.000Z</time>
      </trkpt>
      <trkpt lat="46.27174" lon="6.57101">
        <ele>1634.4</ele>
        <time>2023-01-21T12:02:06.000Z</time>
      </trkpt>
      <trkpt lat="46.27174" lon="6.57101">
        <ele>1634.4</ele>
        <time>2023-01-21T12:02:07.000Z</time>
      </trkpt>
      <trkpt lat="46.27179" lon="6.57112">
        <ele>1635.2</ele>
        <time>2023-01-21T12:02:08.000Z</time>
      </trkpt>
      <trkpt lat="46.27179" lon="6.57113">
        <ele>1635.3</ele>
        <time>2023-01-21T12:02:09.000Z</time>
      </trkpt>
      <trkpt lat="46.27179" lon="6.57114">
        <ele>1635.5</ele>
        <time>2023-01-21T12:02:10.000Z</time>
      </trkpt>
      <trkpt lat="46.2718" lon="6.57114">
        <ele>1635.4</ele>
        <time>2023-01-21T12:02:11.000Z</time>
      </trkpt>
      <trkpt lat="46.2718" lon="6.57114">
        <ele>1635.4</ele>
        <time>2023-01-21T12:02:12.000Z</time>
      </trkpt>
      <trkpt lat="46.2718" lon="6.57114">
        <ele>1635.4</ele>
        <time>2023-01-21T12:02:13.000Z</time>
      </trkpt>
      <trkpt lat="46.2718" lon="6.57114">
        <ele>1635.4</ele>
        <time>2023-01-21T12:02:14.000Z</time>
      </trkpt>
      <trkpt lat="46.2718" lon="6.57114">
        <ele>1635.4</ele>
        <time>2023-01-21T12:02:15.000Z</time>
      </trkpt>
      <trkpt lat="46.2718" lon="6.57114">
        <ele>1635.4</ele>
        <time>2023-01-21T12:02:16.000Z</time>
      </trkpt>
      <trkpt lat="46.2718" lon="6.57114">
        <ele>1635.4</ele>
        <time>2023-01-21T12:02:17.000Z</time>
      </trkpt>
      <trkpt lat="46.2718" lon="6.57114">
        <ele>1635.4</ele>
        <time>2023-01-21T12:02:18.000Z</time>
      </trkpt>
      <trkpt lat="46.2718" lon="6.57114">
        <ele>1635.4</ele>
        <time>2023-01-21T12:02:19.000Z</time>
      </trkpt>
      <trkpt lat="46.2718" lon="6.57114">
        <ele>1635.4</ele>
        <time>2023-01-21T12:02:20.000Z</time>
      </trkpt>
      <trkpt lat="46.2718" lon="6.57114">
        <ele>1635.4</ele>
        <time>2023-01-21T12:02:21.000Z</time>
      </trkpt>
      <trkpt lat="46.2718" lon="6.57114">
        <ele>1635.4</ele>
        <time>2023-01-21T12:02:22.000Z</time>
      </trkpt>
      <trkpt lat="46.2718" lon="6.57114">
        <ele>1635.4</ele>
        <time>2023-01-21T12:02:23.000Z</time>
      </trkpt>
      <trkpt lat="46.27186" lon="6.57125">
        <ele>1636.9</ele>
        <time>2023-01-21T12:02:24.000Z</time>
      </trkpt>
      <trkpt lat="46.27186" lon="6.57124">
        <ele>1637</ele>
        <time>2023-01-21T12:02:25.000Z</time>
      </trkpt>
      <trkpt lat="46.27187" lon="6.57125">
        <ele>1637.2</ele>
        <time>2023-01-21T12:02:26.000Z</time>
      </trkpt>
      <trkpt lat="46.27187" lon="6.57124">
        <ele>1637.4</ele>
        <time>2023-01-21T12:02:27.000Z</time>
      </trkpt>
      <trkpt lat="46.27187" lon="6.57124">
        <ele>1637.4</ele>
        <time>2023-01-21T12:02:28.000Z</time>
      </trkpt>
      <trkpt lat="46.27187" lon="6.57124">
        <ele>1637.4</ele>
        <time>2023-01-21T12:02:29.000Z</time>
      </trkpt>
      <trkpt lat="46.27187" lon="6.57124">
        <ele>1637.4</ele>
        <time>2023-01-21T12:02:30.000Z</time>
      </trkpt>
      <trkpt lat="46.27187" lon="6.57124">
        <ele>1637.4</ele>
        <time>2023-01-21T12:02:31.000Z</time>
      </trkpt>
      <trkpt lat="46.27187" lon="6.57124">
        <ele>1637.4</ele>
        <time>2023-01-21T12:02:32.000Z</time>
      </trkpt>
      <trkpt lat="46.27187" lon="6.57124">
        <ele>1637.4</ele>
        <time>2023-01-21T12:02:33.000Z</time>
      </trkpt>
      <trkpt lat="46.27187" lon="6.57124">
        <ele>1637.4</ele>
        <time>2023-01-21T12:02:34.000Z</time>
      </trkpt>
      <trkpt lat="46.27187" lon="6.57124">
        <ele>1637.4</ele>
        <time>2023-01-21T12:02:35.000Z</time>
      </trkpt>
      <trkpt lat="46.27187" lon="6.57124">
        <ele>1637.4</ele>
        <time>2023-01-21T12:02:36.000Z</time>
      </trkpt>
      <trkpt lat="46.27187" lon="6.57124">
        <ele>1637.4</ele>
        <time>2023-01-21T12:02:37.000Z</time>
      </trkpt>
      <trkpt lat="46.27187" lon="6.57124">
        <ele>1637.4</ele>
        <time>2023-01-21T12:02:38.000Z</time>
      </trkpt>
      <trkpt lat="46.27187" lon="6.57124">
        <ele>1637.4</ele>
        <time>2023-01-21T12:02:39.000Z</time>
      </trkpt>
      <trkpt lat="46.27187" lon="6.57124">
        <ele>1637.4</ele>
        <time>2023-01-21T12:02:40.000Z</time>
      </trkpt>
      <trkpt lat="46.27187" lon="6.57124">
        <ele>1637.4</ele>
        <time>2023-01-21T12:02:41.000Z</time>
      </trkpt>
      <trkpt lat="46.27187" lon="6.57124">
        <ele>1637.4</ele>
        <time>2023-01-21T12:02:42.000Z</time>
      </trkpt>
      <trkpt lat="46.27187" lon="6.57124">
        <ele>1637.4</ele>
        <time>2023-01-21T12:02:43.000Z</time>
      </trkpt>
      <trkpt lat="46.27187" lon="6.57124">
        <ele>1637.4</ele>
        <time>2023-01-21T12:02:44.000Z</time>
      </trkpt>
      <trkpt lat="46.27187" lon="6.57124">
        <ele>1637.4</ele>
        <time>2023-01-21T12:02:45.000Z</time>
      </trkpt>
      <trkpt lat="46.27187" lon="6.57124">
        <ele>1637.4</ele>
        <time>2023-01-21T12:02:46.000Z</time>
      </trkpt>
      <trkpt lat="46.27187" lon="6.57124">
        <ele>1637.4</ele>
        <time>2023-01-21T12:02:47.000Z</time>
      </trkpt>
      <trkpt lat="46.27187" lon="6.57124">
        <ele>1637.4</ele>
        <time>2023-01-21T12:02:48.000Z</time>
      </trkpt>
      <trkpt lat="46.27187" lon="6.57124">
        <ele>1637.4</ele>
        <time>2023-01-21T12:02:49.000Z</time>
      </trkpt>
      <trkpt lat="46.27187" lon="6.57124">
        <ele>1637.4</ele>
        <time>2023-01-21T12:02:50.000Z</time>
      </trkpt>
      <trkpt lat="46.27187" lon="6.57124">
        <ele>1637.4</ele>
        <time>2023-01-21T12:02:51.000Z</time>
      </trkpt>
      <trkpt lat="46.27187" lon="6.57124">
        <ele>1637.4</ele>
        <time>2023-01-21T12:02:52.000Z</time>
      </trkpt>
      <trkpt lat="46.27187" lon="6.57124">
        <ele>1637.4</ele>
        <time>2023-01-21T12:02:53.000Z</time>
      </trkpt>
      <trkpt lat="46.27187" lon="6.57124">
        <ele>1637.4</ele>
        <time>2023-01-21T12:02:54.000Z</time>
      </trkpt>
      <trkpt lat="46.27179" lon="6.57132">
        <ele>1639.9</ele>
        <time>2023-01-21T12:02:55.000Z</time>
      </trkpt>
      <trkpt lat="46.27179" lon="6.57132">
        <ele>1640</ele>
        <time>2023-01-21T12:02:56.000Z</time>
      </trkpt>
      <trkpt lat="46.27178" lon="6.57133">
        <ele>1640.1</ele>
        <time>2023-01-21T12:02:57.000Z</time>
      </trkpt>
      <trkpt lat="46.27178" lon="6.57133">
        <ele>1640.1</ele>
        <time>2023-01-21T12:02:58.000Z</time>
      </trkpt>
      <trkpt lat="46.27178" lon="6.57133">
        <ele>1640.1</ele>
        <time>2023-01-21T12:02:59.000Z</time>
      </trkpt>
      <trkpt lat="46.27178" lon="6.57133">
        <ele>1640.1</ele>
        <time>2023-01-21T12:03:00.000Z</time>
      </trkpt>
      <trkpt lat="46.27178" lon="6.57133">
        <ele>1640.1</ele>
        <time>2023-01-21T12:03:01.000Z</time>
      </trkpt>
      <trkpt lat="46.27178" lon="6.57133">
        <ele>1640.1</ele>
        <time>2023-01-21T12:03:02.000Z</time>
      </trkpt>
      <trkpt lat="46.27178" lon="6.57133">
        <ele>1640.1</ele>
        <time>2023-01-21T12:03:03.000Z</time>
      </trkpt>
      <trkpt lat="46.27178" lon="6.57133">
        <ele>1640.1</ele>
        <time>2023-01-21T12:03:04.000Z</time>
      </trkpt>
      <trkpt lat="46.27178" lon="6.57133">
        <ele>1640.1</ele>
        <time>2023-01-21T12:03:05.000Z</time>
      </trkpt>
      <trkpt lat="46.27178" lon="6.57133">
        <ele>1640.1</ele>
        <time>2023-01-21T12:03:06.000Z</time>
      </trkpt>
      <trkpt lat="46.27178" lon="6.57133">
        <ele>1640.1</ele>
        <time>2023-01-21T12:03:07.000Z</time>
      </trkpt>
      <trkpt lat="46.27178" lon="6.57133">
        <ele>1640.1</ele>
        <time>2023-01-21T12:03:08.000Z</time>
      </trkpt>
      <trkpt lat="46.27178" lon="6.57133">
        <ele>1640.1</ele>
        <time>2023-01-21T12:03:09.000Z</time>
      </trkpt>
      <trkpt lat="46.27178" lon="6.57133">
        <ele>1640.1</ele>
        <time>2023-01-21T12:03:10.000Z</time>
      </trkpt>
      <trkpt lat="46.27178" lon="6.57133">
        <ele>1640.1</ele>
        <time>2023-01-21T12:03:11.000Z</time>
      </trkpt>
      <trkpt lat="46.27178" lon="6.57133">
        <ele>1640.1</ele>
        <time>2023-01-21T12:03:12.000Z</time>
      </trkpt>
      <trkpt lat="46.27178" lon="6.57133">
        <ele>1640.1</ele>
        <time>2023-01-21T12:03:13.000Z</time>
      </trkpt>
      <trkpt lat="46.27178" lon="6.57133">
        <ele>1640.1</ele>
        <time>2023-01-21T12:03:14.000Z</time>
      </trkpt>
      <trkpt lat="46.27178" lon="6.57133">
        <ele>1640.1</ele>
        <time>2023-01-21T12:03:15.000Z</time>
      </trkpt>
      <trkpt lat="46.27178" lon="6.57133">
        <ele>1640.1</ele>
        <time>2023-01-21T12:03:16.000Z</time>
      </trkpt>
      <trkpt lat="46.27178" lon="6.57133">
        <ele>1640.1</ele>
        <time>2023-01-21T12:03:17.000Z</time>
      </trkpt>
      <trkpt lat="46.27178" lon="6.57133">
        <ele>1640.1</ele>
        <time>2023-01-21T12:03:18.000Z</time>
      </trkpt>
      <trkpt lat="46.27178" lon="6.57133">
        <ele>1640.1</ele>
        <time>2023-01-21T12:03:19.000Z</time>
      </trkpt>
      <trkpt lat="46.27178" lon="6.57133">
        <ele>1640.1</ele>
        <time>2023-01-21T12:03:20.000Z</time>
      </trkpt>
      <trkpt lat="46.27168" lon="6.57134">
        <ele>1642.7</ele>
        <time>2023-01-21T12:03:21.000Z</time>
      </trkpt>
      <trkpt lat="46.27167" lon="6.57134">
        <ele>1643</ele>
        <time>2023-01-21T12:03:22.000Z</time>
      </trkpt>
      <trkpt lat="46.27167" lon="6.57133">
        <ele>1643.2</ele>
        <time>2023-01-21T12:03:23.000Z</time>
      </trkpt>
      <trkpt lat="46.27166" lon="6.57133">
        <ele>1643.4</ele>
        <time>2023-01-21T12:03:24.000Z</time>
      </trkpt>
      <trkpt lat="46.27166" lon="6.57133">
        <ele>1643.4</ele>
        <time>2023-01-21T12:03:25.000Z</time>
      </trkpt>
      <trkpt lat="46.27166" lon="6.57133">
        <ele>1643.4</ele>
        <time>2023-01-21T12:03:26.000Z</time>
      </trkpt>
      <trkpt lat="46.27166" lon="6.57133">
        <ele>1643.4</ele>
        <time>2023-01-21T12:03:27.000Z</time>
      </trkpt>
      <trkpt lat="46.27166" lon="6.57133">
        <ele>1643.4</ele>
        <time>2023-01-21T12:03:28.000Z</time>
      </trkpt>
      <trkpt lat="46.27166" lon="6.57133">
        <ele>1643.4</ele>
        <time>2023-01-21T12:03:29.000Z</time>
      </trkpt>
      <trkpt lat="46.27166" lon="6.57133">
        <ele>1643.4</ele>
        <time>2023-01-21T12:03:30.000Z</time>
      </trkpt>
      <trkpt lat="46.27166" lon="6.57133">
        <ele>1643.4</ele>
        <time>2023-01-21T12:03:31.000Z</time>
      </trkpt>
      <trkpt lat="46.27166" lon="6.57133">
        <ele>1643.4</ele>
        <time>2023-01-21T12:03:32.000Z</time>
      </trkpt>
      <trkpt lat="46.27166" lon="6.57133">
        <ele>1643.4</ele>
        <time>2023-01-21T12:03:33.000Z</time>
      </trkpt>
      <trkpt lat="46.27166" lon="6.57133">
        <ele>1643.4</ele>
        <time>2023-01-21T12:03:34.000Z</time>
      </trkpt>
      <trkpt lat="46.27166" lon="6.57133">
        <ele>1643.4</ele>
        <time>2023-01-21T12:03:35.000Z</time>
      </trkpt>
      <trkpt lat="46.27166" lon="6.57133">
        <ele>1643.4</ele>
        <time>2023-01-21T12:03:36.000Z</time>
      </trkpt>
      <trkpt lat="46.27166" lon="6.57133">
        <ele>1643.4</ele>
        <time>2023-01-21T12:03:37.000Z</time>
      </trkpt>
      <trkpt lat="46.27166" lon="6.57133">
        <ele>1643.4</ele>
        <time>2023-01-21T12:03:38.000Z</time>
      </trkpt>
      <trkpt lat="46.27166" lon="6.57133">
        <ele>1643.4</ele>
        <time>2023-01-21T12:03:39.000Z</time>
      </trkpt>
      <trkpt lat="46.27157" lon="6.57129">
        <ele>1646.7</ele>
        <time>2023-01-21T12:03:40.000Z</time>
      </trkpt>
      <trkpt lat="46.27157" lon="6.57129">
        <ele>1646.8</ele>
        <time>2023-01-21T12:03:41.000Z</time>
      </trkpt>
      <trkpt lat="46.27156" lon="6.57128">
        <ele>1646.9</ele>
        <time>2023-01-21T12:03:42.000Z</time>
      </trkpt>
      <trkpt lat="46.27156" lon="6.57128">
        <ele>1646.9</ele>
        <time>2023-01-21T12:03:43.000Z</time>
      </trkpt>
      <trkpt lat="46.27156" lon="6.57128">
        <ele>1646.9</ele>
        <time>2023-01-21T12:03:44.000Z</time>
      </trkpt>
      <trkpt lat="46.27156" lon="6.57128">
        <ele>1646.9</ele>
        <time>2023-01-21T12:03:45.000Z</time>
      </trkpt>
      <trkpt lat="46.27156" lon="6.57128">
        <ele>1646.9</ele>
        <time>2023-01-21T12:03:46.000Z</time>
      </trkpt>
      <trkpt lat="46.27156" lon="6.57128">
        <ele>1646.9</ele>
        <time>2023-01-21T12:03:47.000Z</time>
      </trkpt>
      <trkpt lat="46.27156" lon="6.57128">
        <ele>1646.9</ele>
        <time>2023-01-21T12:03:48.000Z</time>
      </trkpt>
      <trkpt lat="46.27156" lon="6.57128">
        <ele>1646.9</ele>
        <time>2023-01-21T12:03:49.000Z</time>
      </trkpt>
      <trkpt lat="46.27156" lon="6.57128">
        <ele>1646.9</ele>
        <time>2023-01-21T12:03:50.000Z</time>
      </trkpt>
      <trkpt lat="46.27156" lon="6.57128">
        <ele>1646.9</ele>
        <time>2023-01-21T12:03:51.000Z</time>
      </trkpt>
      <trkpt lat="46.27156" lon="6.57128">
        <ele>1646.9</ele>
        <time>2023-01-21T12:03:52.000Z</time>
      </trkpt>
      <trkpt lat="46.27156" lon="6.57128">
        <ele>1646.9</ele>
        <time>2023-01-21T12:03:53.000Z</time>
      </trkpt>
      <trkpt lat="46.27156" lon="6.57128">
        <ele>1646.9</ele>
        <time>2023-01-21T12:03:54.000Z</time>
      </trkpt>
      <trkpt lat="46.27156" lon="6.57128">
        <ele>1646.9</ele>
        <time>2023-01-21T12:03:55.000Z</time>
      </trkpt>
      <trkpt lat="46.27156" lon="6.57128">
        <ele>1646.9</ele>
        <time>2023-01-21T12:03:56.000Z</time>
      </trkpt>
      <trkpt lat="46.27156" lon="6.57128">
        <ele>1646.9</ele>
        <time>2023-01-21T12:03:57.000Z</time>
      </trkpt>
      <trkpt lat="46.27156" lon="6.57128">
        <ele>1646.9</ele>
        <time>2023-01-21T12:03:58.000Z</time>
      </trkpt>
      <trkpt lat="46.27156" lon="6.57128">
        <ele>1646.9</ele>
        <time>2023-01-21T12:03:59.000Z</time>
      </trkpt>
      <trkpt lat="46.27156" lon="6.57128">
        <ele>1646.9</ele>
        <time>2023-01-21T12:04:00.000Z</time>
      </trkpt>
      <trkpt lat="46.27156" lon="6.57128">
        <ele>1646.9</ele>
        <time>2023-01-21T12:04:01.000Z</time>
      </trkpt>
      <trkpt lat="46.27156" lon="6.57128">
        <ele>1646.9</ele>
        <time>2023-01-21T12:04:02.000Z</time>
      </trkpt>
      <trkpt lat="46.27156" lon="6.57128">
        <ele>1646.9</ele>
        <time>2023-01-21T12:04:03.000Z</time>
      </trkpt>
      <trkpt lat="46.27156" lon="6.57128">
        <ele>1646.9</ele>
        <time>2023-01-21T12:04:04.000Z</time>
      </trkpt>
      <trkpt lat="46.27156" lon="6.57128">
        <ele>1646.9</ele>
        <time>2023-01-21T12:04:05.000Z</time>
      </trkpt>
      <trkpt lat="46.27156" lon="6.57128">
        <ele>1646.9</ele>
        <time>2023-01-21T12:04:06.000Z</time>
      </trkpt>
      <trkpt lat="46.27156" lon="6.57128">
        <ele>1646.9</ele>
        <time>2023-01-21T12:04:07.000Z</time>
      </trkpt>
      <trkpt lat="46.27156" lon="6.57128">
        <ele>1646.9</ele>
        <time>2023-01-21T12:04:08.000Z</time>
      </trkpt>
      <trkpt lat="46.27156" lon="6.57128">
        <ele>1646.9</ele>
        <time>2023-01-21T12:04:09.000Z</time>
      </trkpt>
      <trkpt lat="46.27156" lon="6.57128">
        <ele>1646.9</ele>
        <time>2023-01-21T12:04:10.000Z</time>
      </trkpt>
      <trkpt lat="46.27156" lon="6.57128">
        <ele>1646.9</ele>
        <time>2023-01-21T12:04:11.000Z</time>
      </trkpt>
      <trkpt lat="46.27156" lon="6.57128">
        <ele>1646.9</ele>
        <time>2023-01-21T12:04:12.000Z</time>
      </trkpt>
      <trkpt lat="46.27156" lon="6.57128">
        <ele>1646.9</ele>
        <time>2023-01-21T12:04:13.000Z</time>
      </trkpt>
      <trkpt lat="46.27152" lon="6.5714">
        <ele>1647.9</ele>
        <time>2023-01-21T12:04:14.000Z</time>
      </trkpt>
      <trkpt lat="46.27153" lon="6.57141">
        <ele>1648</ele>
        <time>2023-01-21T12:04:15.000Z</time>
      </trkpt>
      <trkpt lat="46.27153" lon="6.57142">
        <ele>1648</ele>
        <time>2023-01-21T12:04:16.000Z</time>
      </trkpt>
      <trkpt lat="46.27153" lon="6.57142">
        <ele>1648.1</ele>
        <time>2023-01-21T12:04:17.000Z</time>
      </trkpt>
      <trkpt lat="46.27153" lon="6.57142">
        <ele>1648.1</ele>
        <time>2023-01-21T12:04:18.000Z</time>
      </trkpt>
      <trkpt lat="46.27153" lon="6.57142">
        <ele>1648.1</ele>
        <time>2023-01-21T12:04:19.000Z</time>
      </trkpt>
      <trkpt lat="46.27153" lon="6.57142">
        <ele>1648.1</ele>
        <time>2023-01-21T12:04:20.000Z</time>
      </trkpt>
      <trkpt lat="46.27153" lon="6.57142">
        <ele>1648.1</ele>
        <time>2023-01-21T12:04:21.000Z</time>
      </trkpt>
      <trkpt lat="46.27153" lon="6.57142">
        <ele>1648.1</ele>
        <time>2023-01-21T12:04:22.000Z</time>
      </trkpt>
      <trkpt lat="46.27153" lon="6.57142">
        <ele>1648.1</ele>
        <time>2023-01-21T12:04:23.000Z</time>
      </trkpt>
      <trkpt lat="46.27153" lon="6.57142">
        <ele>1648.1</ele>
        <time>2023-01-21T12:04:24.000Z</time>
      </trkpt>
      <trkpt lat="46.27153" lon="6.57142">
        <ele>1648.1</ele>
        <time>2023-01-21T12:04:25.000Z</time>
      </trkpt>
      <trkpt lat="46.27153" lon="6.57142">
        <ele>1648.1</ele>
        <time>2023-01-21T12:04:26.000Z</time>
      </trkpt>
      <trkpt lat="46.27153" lon="6.57142">
        <ele>1648.1</ele>
        <time>2023-01-21T12:04:27.000Z</time>
      </trkpt>
      <trkpt lat="46.27153" lon="6.57142">
        <ele>1648.1</ele>
        <time>2023-01-21T12:04:28.000Z</time>
      </trkpt>
      <trkpt lat="46.27153" lon="6.57142">
        <ele>1648.1</ele>
        <time>2023-01-21T12:04:29.000Z</time>
      </trkpt>
      <trkpt lat="46.27153" lon="6.57142">
        <ele>1648.1</ele>
        <time>2023-01-21T12:04:30.000Z</time>
      </trkpt>
      <trkpt lat="46.27153" lon="6.57142">
        <ele>1648.1</ele>
        <time>2023-01-21T12:04:31.000Z</time>
      </trkpt>
      <trkpt lat="46.27153" lon="6.57142">
        <ele>1648.1</ele>
        <time>2023-01-21T12:04:32.000Z</time>
      </trkpt>
      <trkpt lat="46.27153" lon="6.57142">
        <ele>1648.1</ele>
        <time>2023-01-21T12:04:33.000Z</time>
      </trkpt>
      <trkpt lat="46.27153" lon="6.57142">
        <ele>1648.1</ele>
        <time>2023-01-21T12:04:34.000Z</time>
      </trkpt>
      <trkpt lat="46.27153" lon="6.57142">
        <ele>1648.1</ele>
        <time>2023-01-21T12:04:35.000Z</time>
      </trkpt>
      <trkpt lat="46.27153" lon="6.57142">
        <ele>1648.1</ele>
        <time>2023-01-21T12:04:36.000Z</time>
      </trkpt>
      <trkpt lat="46.27153" lon="6.57142">
        <ele>1648.1</ele>
        <time>2023-01-21T12:04:37.000Z</time>
      </trkpt>
      <trkpt lat="46.27153" lon="6.57142">
        <ele>1648.1</ele>
        <time>2023-01-21T12:04:38.000Z</time>
      </trkpt>
      <trkpt lat="46.27153" lon="6.57142">
        <ele>1648.1</ele>
        <time>2023-01-21T12:04:39.000Z</time>
      </trkpt>
      <trkpt lat="46.27153" lon="6.57142">
        <ele>1648.1</ele>
        <time>2023-01-21T12:04:40.000Z</time>
      </trkpt>
      <trkpt lat="46.27158" lon="6.57154">
        <ele>1650.5</ele>
        <time>2023-01-21T12:04:41.000Z</time>
      </trkpt>
      <trkpt lat="46.27158" lon="6.57156">
        <ele>1650.6</ele>
        <time>2023-01-21T12:04:42.000Z</time>
      </trkpt>
      <trkpt lat="46.27158" lon="6.57156">
        <ele>1650.6</ele>
        <time>2023-01-21T12:04:43.000Z</time>
      </trkpt>
      <trkpt lat="46.27158" lon="6.57157">
        <ele>1650.6</ele>
        <time>2023-01-21T12:04:44.000Z</time>
      </trkpt>
      <trkpt lat="46.27158" lon="6.57157">
        <ele>1650.6</ele>
        <time>2023-01-21T12:04:45.000Z</time>
      </trkpt>
      <trkpt lat="46.27158" lon="6.57157">
        <ele>1650.6</ele>
        <time>2023-01-21T12:04:46.000Z</time>
      </trkpt>
      <trkpt lat="46.27158" lon="6.57157">
        <ele>1650.6</ele>
        <time>2023-01-21T12:04:47.000Z</time>
      </trkpt>
      <trkpt lat="46.27158" lon="6.57157">
        <ele>1650.6</ele>
        <time>2023-01-21T12:04:48.000Z</time>
      </trkpt>
      <trkpt lat="46.27158" lon="6.57157">
        <ele>1650.6</ele>
        <time>2023-01-21T12:04:49.000Z</time>
      </trkpt>
      <trkpt lat="46.27158" lon="6.57157">
        <ele>1650.6</ele>
        <time>2023-01-21T12:04:50.000Z</time>
      </trkpt>
      <trkpt lat="46.27158" lon="6.57157">
        <ele>1650.6</ele>
        <time>2023-01-21T12:04:51.000Z</time>
      </trkpt>
      <trkpt lat="46.27158" lon="6.57157">
        <ele>1650.6</ele>
        <time>2023-01-21T12:04:52.000Z</time>
      </trkpt>
      <trkpt lat="46.27158" lon="6.57157">
        <ele>1650.6</ele>
        <time>2023-01-21T12:04:53.000Z</time>
      </trkpt>
      <trkpt lat="46.27158" lon="6.57157">
        <ele>1650.6</ele>
        <time>2023-01-21T12:04:54.000Z</time>
      </trkpt>
      <trkpt lat="46.27158" lon="6.57157">
        <ele>1650.6</ele>
        <time>2023-01-21T12:04:55.000Z</time>
      </trkpt>
      <trkpt lat="46.27158" lon="6.57157">
        <ele>1650.6</ele>
        <time>2023-01-21T12:04:56.000Z</time>
      </trkpt>
      <trkpt lat="46.27158" lon="6.57157">
        <ele>1650.6</ele>
        <time>2023-01-21T12:04:57.000Z</time>
      </trkpt>
      <trkpt lat="46.27158" lon="6.57157">
        <ele>1650.6</ele>
        <time>2023-01-21T12:04:58.000Z</time>
      </trkpt>
      <trkpt lat="46.27158" lon="6.57157">
        <ele>1650.6</ele>
        <time>2023-01-21T12:04:59.000Z</time>
      </trkpt>
      <trkpt lat="46.27158" lon="6.57157">
        <ele>1650.6</ele>
        <time>2023-01-21T12:05:00.000Z</time>
      </trkpt>
      <trkpt lat="46.27158" lon="6.57157">
        <ele>1650.6</ele>
        <time>2023-01-21T12:05:01.000Z</time>
      </trkpt>
      <trkpt lat="46.27158" lon="6.57157">
        <ele>1650.6</ele>
        <time>2023-01-21T12:05:02.000Z</time>
      </trkpt>
      <trkpt lat="46.27158" lon="6.57157">
        <ele>1650.6</ele>
        <time>2023-01-21T12:05:03.000Z</time>
      </trkpt>
      <trkpt lat="46.27158" lon="6.57157">
        <ele>1650.6</ele>
        <time>2023-01-21T12:05:04.000Z</time>
      </trkpt>
      <trkpt lat="46.27158" lon="6.57157">
        <ele>1650.6</ele>
        <time>2023-01-21T12:05:05.000Z</time>
      </trkpt>
      <trkpt lat="46.27158" lon="6.57157">
        <ele>1650.6</ele>
        <time>2023-01-21T12:05:06.000Z</time>
      </trkpt>
      <trkpt lat="46.27158" lon="6.57157">
        <ele>1650.6</ele>
        <time>2023-01-21T12:05:07.000Z</time>
      </trkpt>
      <trkpt lat="46.27158" lon="6.57157">
        <ele>1650.6</ele>
        <time>2023-01-21T12:05:08.000Z</time>
      </trkpt>
      <trkpt lat="46.27161" lon="6.5717">
        <ele>1653.1</ele>
        <time>2023-01-21T12:05:09.000Z</time>
      </trkpt>
      <trkpt lat="46.27161" lon="6.5717">
        <ele>1653.4</ele>
        <time>2023-01-21T12:05:10.000Z</time>
      </trkpt>
      <trkpt lat="46.27161" lon="6.5717">
        <ele>1653.6</ele>
        <time>2023-01-21T12:05:11.000Z</time>
      </trkpt>
      <trkpt lat="46.27162" lon="6.5717">
        <ele>1653.7</ele>
        <time>2023-01-21T12:05:12.000Z</time>
      </trkpt>
      <trkpt lat="46.27162" lon="6.5717">
        <ele>1653.7</ele>
        <time>2023-01-21T12:05:13.000Z</time>
      </trkpt>
      <trkpt lat="46.27162" lon="6.5717">
        <ele>1653.7</ele>
        <time>2023-01-21T12:05:14.000Z</time>
      </trkpt>
      <trkpt lat="46.27162" lon="6.5717">
        <ele>1653.7</ele>
        <time>2023-01-21T12:05:15.000Z</time>
      </trkpt>
      <trkpt lat="46.27162" lon="6.5717">
        <ele>1653.7</ele>
        <time>2023-01-21T12:05:16.000Z</time>
      </trkpt>
      <trkpt lat="46.27162" lon="6.5717">
        <ele>1653.7</ele>
        <time>2023-01-21T12:05:17.000Z</time>
      </trkpt>
      <trkpt lat="46.27162" lon="6.5717">
        <ele>1653.7</ele>
        <time>2023-01-21T12:05:18.000Z</time>
      </trkpt>
      <trkpt lat="46.27162" lon="6.5717">
        <ele>1653.7</ele>
        <time>2023-01-21T12:05:19.000Z</time>
      </trkpt>
      <trkpt lat="46.27162" lon="6.5717">
        <ele>1653.7</ele>
        <time>2023-01-21T12:05:20.000Z</time>
      </trkpt>
      <trkpt lat="46.27162" lon="6.5717">
        <ele>1653.7</ele>
        <time>2023-01-21T12:05:21.000Z</time>
      </trkpt>
      <trkpt lat="46.27162" lon="6.5717">
        <ele>1653.7</ele>
        <time>2023-01-21T12:05:22.000Z</time>
      </trkpt>
      <trkpt lat="46.27162" lon="6.5717">
        <ele>1653.7</ele>
        <time>2023-01-21T12:05:23.000Z</time>
      </trkpt>
      <trkpt lat="46.27162" lon="6.5717">
        <ele>1653.7</ele>
        <time>2023-01-21T12:05:24.000Z</time>
      </trkpt>
      <trkpt lat="46.27162" lon="6.5717">
        <ele>1653.7</ele>
        <time>2023-01-21T12:05:25.000Z</time>
      </trkpt>
      <trkpt lat="46.27162" lon="6.5717">
        <ele>1653.7</ele>
        <time>2023-01-21T12:05:26.000Z</time>
      </trkpt>
      <trkpt lat="46.27162" lon="6.5717">
        <ele>1653.7</ele>
        <time>2023-01-21T12:05:27.000Z</time>
      </trkpt>
      <trkpt lat="46.27162" lon="6.5717">
        <ele>1653.7</ele>
        <time>2023-01-21T12:05:28.000Z</time>
      </trkpt>
      <trkpt lat="46.27162" lon="6.5717">
        <ele>1653.7</ele>
        <time>2023-01-21T12:05:29.000Z</time>
      </trkpt>
      <trkpt lat="46.2717" lon="6.57178">
        <ele>1655.7</ele>
        <time>2023-01-21T12:05:30.000Z</time>
      </trkpt>
      <trkpt lat="46.2717" lon="6.57178">
        <ele>1655.8</ele>
        <time>2023-01-21T12:05:31.000Z</time>
      </trkpt>
      <trkpt lat="46.2717" lon="6.57178">
        <ele>1656</ele>
        <time>2023-01-21T12:05:32.000Z</time>
      </trkpt>
      <trkpt lat="46.2717" lon="6.57179">
        <ele>1656.1</ele>
        <time>2023-01-21T12:05:33.000Z</time>
      </trkpt>
      <trkpt lat="46.2717" lon="6.57179">
        <ele>1656.1</ele>
        <time>2023-01-21T12:05:34.000Z</time>
      </trkpt>
      <trkpt lat="46.2717" lon="6.57179">
        <ele>1656.1</ele>
        <time>2023-01-21T12:05:35.000Z</time>
      </trkpt>
      <trkpt lat="46.2717" lon="6.57179">
        <ele>1656.1</ele>
        <time>2023-01-21T12:05:36.000Z</time>
      </trkpt>
      <trkpt lat="46.2717" lon="6.57179">
        <ele>1656.1</ele>
        <time>2023-01-21T12:05:37.000Z</time>
      </trkpt>
      <trkpt lat="46.2717" lon="6.57179">
        <ele>1656.1</ele>
        <time>2023-01-21T12:05:38.000Z</time>
      </trkpt>
      <trkpt lat="46.2717" lon="6.57179">
        <ele>1656.1</ele>
        <time>2023-01-21T12:05:39.000Z</time>
      </trkpt>
      <trkpt lat="46.2717" lon="6.57179">
        <ele>1656.1</ele>
        <time>2023-01-21T12:05:40.000Z</time>
      </trkpt>
      <trkpt lat="46.2717" lon="6.57179">
        <ele>1656.1</ele>
        <time>2023-01-21T12:05:41.000Z</time>
      </trkpt>
      <trkpt lat="46.2717" lon="6.57179">
        <ele>1656.1</ele>
        <time>2023-01-21T12:05:42.000Z</time>
      </trkpt>
      <trkpt lat="46.2717" lon="6.57179">
        <ele>1656.1</ele>
        <time>2023-01-21T12:05:43.000Z</time>
      </trkpt>
      <trkpt lat="46.2717" lon="6.57179">
        <ele>1656.1</ele>
        <time>2023-01-21T12:05:44.000Z</time>
      </trkpt>
      <trkpt lat="46.2717" lon="6.57179">
        <ele>1656.1</ele>
        <time>2023-01-21T12:05:45.000Z</time>
      </trkpt>
      <trkpt lat="46.2717" lon="6.57179">
        <ele>1656.1</ele>
        <time>2023-01-21T12:05:46.000Z</time>
      </trkpt>
      <trkpt lat="46.2717" lon="6.57179">
        <ele>1656.1</ele>
        <time>2023-01-21T12:05:47.000Z</time>
      </trkpt>
      <trkpt lat="46.2717" lon="6.57179">
        <ele>1656.1</ele>
        <time>2023-01-21T12:05:48.000Z</time>
      </trkpt>
      <trkpt lat="46.2717" lon="6.57179">
        <ele>1656.1</ele>
        <time>2023-01-21T12:05:49.000Z</time>
      </trkpt>
      <trkpt lat="46.2717" lon="6.57179">
        <ele>1656.1</ele>
        <time>2023-01-21T12:05:50.000Z</time>
      </trkpt>
      <trkpt lat="46.2717" lon="6.57179">
        <ele>1656.1</ele>
        <time>2023-01-21T12:05:51.000Z</time>
      </trkpt>
      <trkpt lat="46.2717" lon="6.57179">
        <ele>1656.1</ele>
        <time>2023-01-21T12:05:52.000Z</time>
      </trkpt>
      <trkpt lat="46.2717" lon="6.57179">
        <ele>1656.1</ele>
        <time>2023-01-21T12:05:53.000Z</time>
      </trkpt>
      <trkpt lat="46.2717" lon="6.57179">
        <ele>1656.1</ele>
        <time>2023-01-21T12:05:54.000Z</time>
      </trkpt>
      <trkpt lat="46.2717" lon="6.57179">
        <ele>1656.1</ele>
        <time>2023-01-21T12:05:55.000Z</time>
      </trkpt>
      <trkpt lat="46.2717" lon="6.57179">
        <ele>1656.1</ele>
        <time>2023-01-21T12:05:56.000Z</time>
      </trkpt>
      <trkpt lat="46.2717" lon="6.57179">
        <ele>1656.1</ele>
        <time>2023-01-21T12:05:57.000Z</time>
      </trkpt>
      <trkpt lat="46.2717" lon="6.57179">
        <ele>1656.1</ele>
        <time>2023-01-21T12:05:58.000Z</time>
      </trkpt>
      <trkpt lat="46.2717" lon="6.57179">
        <ele>1656.1</ele>
        <time>2023-01-21T12:05:59.000Z</time>
      </trkpt>
      <trkpt lat="46.2717" lon="6.57179">
        <ele>1656.1</ele>
        <time>2023-01-21T12:06:00.000Z</time>
      </trkpt>
      <trkpt lat="46.2717" lon="6.57179">
        <ele>1656.1</ele>
        <time>2023-01-21T12:06:01.000Z</time>
      </trkpt>
      <trkpt lat="46.27164" lon="6.57188">
        <ele>1660.1</ele>
        <time>2023-01-21T12:06:02.000Z</time>
      </trkpt>
      <trkpt lat="46.27163" lon="6.57189">
        <ele>1660.2</ele>
        <time>2023-01-21T12:06:03.000Z</time>
      </trkpt>
      <trkpt lat="46.27163" lon="6.57189">
        <ele>1660.3</ele>
        <time>2023-01-21T12:06:04.000Z</time>
      </trkpt>
      <trkpt lat="46.27162" lon="6.5719">
        <ele>1660.4</ele>
        <time>2023-01-21T12:06:05.000Z</time>
      </trkpt>
      <trkpt lat="46.27162" lon="6.5719">
        <ele>1660.4</ele>
        <time>2023-01-21T12:06:06.000Z</time>
      </trkpt>
      <trkpt lat="46.27162" lon="6.5719">
        <ele>1660.4</ele>
        <time>2023-01-21T12:06:07.000Z</time>
      </trkpt>
      <trkpt lat="46.27162" lon="6.5719">
        <ele>1660.4</ele>
        <time>2023-01-21T12:06:08.000Z</time>
      </trkpt>
      <trkpt lat="46.27162" lon="6.5719">
        <ele>1660.4</ele>
        <time>2023-01-21T12:06:09.000Z</time>
      </trkpt>
      <trkpt lat="46.27162" lon="6.5719">
        <ele>1660.4</ele>
        <time>2023-01-21T12:06:10.000Z</time>
      </trkpt>
      <trkpt lat="46.27162" lon="6.5719">
        <ele>1660.4</ele>
        <time>2023-01-21T12:06:11.000Z</time>
      </trkpt>
      <trkpt lat="46.27162" lon="6.5719">
        <ele>1660.4</ele>
        <time>2023-01-21T12:06:12.000Z</time>
      </trkpt>
      <trkpt lat="46.27162" lon="6.5719">
        <ele>1660.4</ele>
        <time>2023-01-21T12:06:13.000Z</time>
      </trkpt>
      <trkpt lat="46.27162" lon="6.5719">
        <ele>1660.4</ele>
        <time>2023-01-21T12:06:14.000Z</time>
      </trkpt>
      <trkpt lat="46.27162" lon="6.5719">
        <ele>1660.4</ele>
        <time>2023-01-21T12:06:15.000Z</time>
      </trkpt>
      <trkpt lat="46.27162" lon="6.5719">
        <ele>1660.4</ele>
        <time>2023-01-21T12:06:16.000Z</time>
      </trkpt>
      <trkpt lat="46.27162" lon="6.5719">
        <ele>1660.4</ele>
        <time>2023-01-21T12:06:17.000Z</time>
      </trkpt>
      <trkpt lat="46.27162" lon="6.5719">
        <ele>1660.4</ele>
        <time>2023-01-21T12:06:18.000Z</time>
      </trkpt>
      <trkpt lat="46.27162" lon="6.5719">
        <ele>1660.4</ele>
        <time>2023-01-21T12:06:19.000Z</time>
      </trkpt>
      <trkpt lat="46.27162" lon="6.5719">
        <ele>1660.4</ele>
        <time>2023-01-21T12:06:20.000Z</time>
      </trkpt>
      <trkpt lat="46.27162" lon="6.5719">
        <ele>1660.4</ele>
        <time>2023-01-21T12:06:21.000Z</time>
      </trkpt>
      <trkpt lat="46.27162" lon="6.5719">
        <ele>1660.4</ele>
        <time>2023-01-21T12:06:22.000Z</time>
      </trkpt>
      <trkpt lat="46.27162" lon="6.5719">
        <ele>1660.4</ele>
        <time>2023-01-21T12:06:23.000Z</time>
      </trkpt>
      <trkpt lat="46.27162" lon="6.5719">
        <ele>1660.4</ele>
        <time>2023-01-21T12:06:24.000Z</time>
      </trkpt>
      <trkpt lat="46.27162" lon="6.5719">
        <ele>1660.4</ele>
        <time>2023-01-21T12:06:25.000Z</time>
      </trkpt>
      <trkpt lat="46.27162" lon="6.5719">
        <ele>1660.4</ele>
        <time>2023-01-21T12:06:26.000Z</time>
      </trkpt>
      <trkpt lat="46.27162" lon="6.5719">
        <ele>1660.4</ele>
        <time>2023-01-21T12:06:27.000Z</time>
      </trkpt>
      <trkpt lat="46.27162" lon="6.5719">
        <ele>1660.4</ele>
        <time>2023-01-21T12:06:28.000Z</time>
      </trkpt>
      <trkpt lat="46.27162" lon="6.5719">
        <ele>1660.4</ele>
        <time>2023-01-21T12:06:29.000Z</time>
      </trkpt>
      <trkpt lat="46.27162" lon="6.5719">
        <ele>1660.4</ele>
        <time>2023-01-21T12:06:30.000Z</time>
      </trkpt>
      <trkpt lat="46.27162" lon="6.5719">
        <ele>1660.4</ele>
        <time>2023-01-21T12:06:31.000Z</time>
      </trkpt>
      <trkpt lat="46.27162" lon="6.5719">
        <ele>1660.4</ele>
        <time>2023-01-21T12:06:32.000Z</time>
      </trkpt>
      <trkpt lat="46.27162" lon="6.5719">
        <ele>1660.4</ele>
        <time>2023-01-21T12:06:33.000Z</time>
      </trkpt>
      <trkpt lat="46.27162" lon="6.5719">
        <ele>1660.4</ele>
        <time>2023-01-21T12:06:34.000Z</time>
      </trkpt>
      <trkpt lat="46.27162" lon="6.5719">
        <ele>1660.4</ele>
        <time>2023-01-21T12:06:35.000Z</time>
      </trkpt>
      <trkpt lat="46.27162" lon="6.5719">
        <ele>1660.4</ele>
        <time>2023-01-21T12:06:36.000Z</time>
      </trkpt>
      <trkpt lat="46.27162" lon="6.5719">
        <ele>1660.4</ele>
        <time>2023-01-21T12:06:37.000Z</time>
      </trkpt>
      <trkpt lat="46.27162" lon="6.5719">
        <ele>1660.4</ele>
        <time>2023-01-21T12:06:38.000Z</time>
      </trkpt>
      <trkpt lat="46.27162" lon="6.5719">
        <ele>1660.4</ele>
        <time>2023-01-21T12:06:39.000Z</time>
      </trkpt>
      <trkpt lat="46.27162" lon="6.5719">
        <ele>1660.4</ele>
        <time>2023-01-21T12:06:40.000Z</time>
      </trkpt>
      <trkpt lat="46.27162" lon="6.5719">
        <ele>1660.4</ele>
        <time>2023-01-21T12:06:41.000Z</time>
      </trkpt>
      <trkpt lat="46.27162" lon="6.5719">
        <ele>1660.4</ele>
        <time>2023-01-21T12:06:42.000Z</time>
      </trkpt>
      <trkpt lat="46.27162" lon="6.5719">
        <ele>1660.4</ele>
        <time>2023-01-21T12:06:43.000Z</time>
      </trkpt>
      <trkpt lat="46.27165" lon="6.57202">
        <ele>1664.6</ele>
        <time>2023-01-21T12:06:44.000Z</time>
      </trkpt>
      <trkpt lat="46.27165" lon="6.57203">
        <ele>1664.9</ele>
        <time>2023-01-21T12:06:45.000Z</time>
      </trkpt>
      <trkpt lat="46.27165" lon="6.57203">
        <ele>1665.3</ele>
        <time>2023-01-21T12:06:46.000Z</time>
      </trkpt>
      <trkpt lat="46.27166" lon="6.57203">
        <ele>1665.5</ele>
        <time>2023-01-21T12:06:47.000Z</time>
      </trkpt>
      <trkpt lat="46.27166" lon="6.57203">
        <ele>1665.5</ele>
        <time>2023-01-21T12:06:48.000Z</time>
      </trkpt>
      <trkpt lat="46.27166" lon="6.57203">
        <ele>1665.5</ele>
        <time>2023-01-21T12:06:49.000Z</time>
      </trkpt>
      <trkpt lat="46.27166" lon="6.57203">
        <ele>1665.5</ele>
        <time>2023-01-21T12:06:50.000Z</time>
      </trkpt>
      <trkpt lat="46.27166" lon="6.57203">
        <ele>1665.5</ele>
        <time>2023-01-21T12:06:51.000Z</time>
      </trkpt>
      <trkpt lat="46.27166" lon="6.57203">
        <ele>1665.5</ele>
        <time>2023-01-21T12:06:52.000Z</time>
      </trkpt>
      <trkpt lat="46.27166" lon="6.57203">
        <ele>1665.5</ele>
        <time>2023-01-21T12:06:53.000Z</time>
      </trkpt>
      <trkpt lat="46.27166" lon="6.57203">
        <ele>1665.5</ele>
        <time>2023-01-21T12:06:54.000Z</time>
      </trkpt>
      <trkpt lat="46.27166" lon="6.57203">
        <ele>1665.5</ele>
        <time>2023-01-21T12:06:55.000Z</time>
      </trkpt>
      <trkpt lat="46.27166" lon="6.57203">
        <ele>1665.5</ele>
        <time>2023-01-21T12:06:56.000Z</time>
      </trkpt>
      <trkpt lat="46.27166" lon="6.57203">
        <ele>1665.5</ele>
        <time>2023-01-21T12:06:57.000Z</time>
      </trkpt>
      <trkpt lat="46.27166" lon="6.57203">
        <ele>1665.5</ele>
        <time>2023-01-21T12:06:58.000Z</time>
      </trkpt>
      <trkpt lat="46.27166" lon="6.57203">
        <ele>1665.5</ele>
        <time>2023-01-21T12:06:59.000Z</time>
      </trkpt>
      <trkpt lat="46.27166" lon="6.57203">
        <ele>1665.5</ele>
        <time>2023-01-21T12:07:00.000Z</time>
      </trkpt>
      <trkpt lat="46.27166" lon="6.57203">
        <ele>1665.5</ele>
        <time>2023-01-21T12:07:01.000Z</time>
      </trkpt>
      <trkpt lat="46.27166" lon="6.57203">
        <ele>1665.5</ele>
        <time>2023-01-21T12:07:02.000Z</time>
      </trkpt>
      <trkpt lat="46.27166" lon="6.57203">
        <ele>1665.5</ele>
        <time>2023-01-21T12:07:03.000Z</time>
      </trkpt>
      <trkpt lat="46.27166" lon="6.57203">
        <ele>1665.5</ele>
        <time>2023-01-21T12:07:04.000Z</time>
      </trkpt>
      <trkpt lat="46.27166" lon="6.57203">
        <ele>1665.5</ele>
        <time>2023-01-21T12:07:05.000Z</time>
      </trkpt>
      <trkpt lat="46.27166" lon="6.57203">
        <ele>1665.5</ele>
        <time>2023-01-21T12:07:06.000Z</time>
      </trkpt>
      <trkpt lat="46.27166" lon="6.57203">
        <ele>1665.5</ele>
        <time>2023-01-21T12:07:07.000Z</time>
      </trkpt>
      <trkpt lat="46.27173" lon="6.5721">
        <ele>1667.7</ele>
        <time>2023-01-21T12:07:08.000Z</time>
      </trkpt>
      <trkpt lat="46.27174" lon="6.57211">
        <ele>1667.8</ele>
        <time>2023-01-21T12:07:09.000Z</time>
      </trkpt>
      <trkpt lat="46.27174" lon="6.57211">
        <ele>1667.9</ele>
        <time>2023-01-21T12:07:10.000Z</time>
      </trkpt>
      <trkpt lat="46.27175" lon="6.57212">
        <ele>1668</ele>
        <time>2023-01-21T12:07:11.000Z</time>
      </trkpt>
      <trkpt lat="46.27175" lon="6.57212">
        <ele>1668</ele>
        <time>2023-01-21T12:07:12.000Z</time>
      </trkpt>
      <trkpt lat="46.27175" lon="6.57212">
        <ele>1668</ele>
        <time>2023-01-21T12:07:13.000Z</time>
      </trkpt>
      <trkpt lat="46.27175" lon="6.57212">
        <ele>1668</ele>
        <time>2023-01-21T12:07:14.000Z</time>
      </trkpt>
      <trkpt lat="46.27175" lon="6.57212">
        <ele>1668</ele>
        <time>2023-01-21T12:07:15.000Z</time>
      </trkpt>
      <trkpt lat="46.27175" lon="6.57212">
        <ele>1668</ele>
        <time>2023-01-21T12:07:16.000Z</time>
      </trkpt>
      <trkpt lat="46.27175" lon="6.57212">
        <ele>1668</ele>
        <time>2023-01-21T12:07:17.000Z</time>
      </trkpt>
      <trkpt lat="46.27175" lon="6.57212">
        <ele>1668</ele>
        <time>2023-01-21T12:07:18.000Z</time>
      </trkpt>
      <trkpt lat="46.27175" lon="6.57212">
        <ele>1668</ele>
        <time>2023-01-21T12:07:19.000Z</time>
      </trkpt>
      <trkpt lat="46.27175" lon="6.57212">
        <ele>1668</ele>
        <time>2023-01-21T12:07:20.000Z</time>
      </trkpt>
      <trkpt lat="46.27175" lon="6.57212">
        <ele>1668</ele>
        <time>2023-01-21T12:07:21.000Z</time>
      </trkpt>
      <trkpt lat="46.27175" lon="6.57212">
        <ele>1668</ele>
        <time>2023-01-21T12:07:22.000Z</time>
      </trkpt>
      <trkpt lat="46.27175" lon="6.57212">
        <ele>1668</ele>
        <time>2023-01-21T12:07:23.000Z</time>
      </trkpt>
      <trkpt lat="46.27175" lon="6.57212">
        <ele>1668</ele>
        <time>2023-01-21T12:07:24.000Z</time>
      </trkpt>
      <trkpt lat="46.27175" lon="6.57212">
        <ele>1668</ele>
        <time>2023-01-21T12:07:25.000Z</time>
      </trkpt>
      <trkpt lat="46.27175" lon="6.57212">
        <ele>1668</ele>
        <time>2023-01-21T12:07:26.000Z</time>
      </trkpt>
      <trkpt lat="46.27175" lon="6.57212">
        <ele>1668</ele>
        <time>2023-01-21T12:07:27.000Z</time>
      </trkpt>
      <trkpt lat="46.27175" lon="6.57212">
        <ele>1668</ele>
        <time>2023-01-21T12:07:28.000Z</time>
      </trkpt>
      <trkpt lat="46.27175" lon="6.57212">
        <ele>1668</ele>
        <time>2023-01-21T12:07:29.000Z</time>
      </trkpt>
      <trkpt lat="46.27175" lon="6.57212">
        <ele>1668</ele>
        <time>2023-01-21T12:07:30.000Z</time>
      </trkpt>
      <trkpt lat="46.27175" lon="6.57212">
        <ele>1668</ele>
        <time>2023-01-21T12:07:31.000Z</time>
      </trkpt>
      <trkpt lat="46.27175" lon="6.57212">
        <ele>1668</ele>
        <time>2023-01-21T12:07:32.000Z</time>
      </trkpt>
      <trkpt lat="46.27175" lon="6.57212">
        <ele>1668</ele>
        <time>2023-01-21T12:07:33.000Z</time>
      </trkpt>
      <trkpt lat="46.27175" lon="6.57212">
        <ele>1668</ele>
        <time>2023-01-21T12:07:34.000Z</time>
      </trkpt>
      <trkpt lat="46.27175" lon="6.57212">
        <ele>1668</ele>
        <time>2023-01-21T12:07:35.000Z</time>
      </trkpt>
      <trkpt lat="46.27175" lon="6.57212">
        <ele>1668</ele>
        <time>2023-01-21T12:07:36.000Z</time>
      </trkpt>
      <trkpt lat="46.27175" lon="6.57212">
        <ele>1668</ele>
        <time>2023-01-21T12:07:37.000Z</time>
      </trkpt>
      <trkpt lat="46.27175" lon="6.57212">
        <ele>1668</ele>
        <time>2023-01-21T12:07:38.000Z</time>
      </trkpt>
      <trkpt lat="46.27175" lon="6.57212">
        <ele>1668</ele>
        <time>2023-01-21T12:07:39.000Z</time>
      </trkpt>
      <trkpt lat="46.27175" lon="6.57212">
        <ele>1668</ele>
        <time>2023-01-21T12:07:40.000Z</time>
      </trkpt>
      <trkpt lat="46.27175" lon="6.57212">
        <ele>1668</ele>
        <time>2023-01-21T12:07:41.000Z</time>
      </trkpt>
      <trkpt lat="46.27175" lon="6.57212">
        <ele>1668</ele>
        <time>2023-01-21T12:07:42.000Z</time>
      </trkpt>
      <trkpt lat="46.27175" lon="6.57212">
        <ele>1668</ele>
        <time>2023-01-21T12:07:43.000Z</time>
      </trkpt>
      <trkpt lat="46.27175" lon="6.57212">
        <ele>1668</ele>
        <time>2023-01-21T12:07:44.000Z</time>
      </trkpt>
      <trkpt lat="46.27175" lon="6.57212">
        <ele>1668</ele>
        <time>2023-01-21T12:07:45.000Z</time>
      </trkpt>
      <trkpt lat="46.27175" lon="6.57212">
        <ele>1668</ele>
        <time>2023-01-21T12:07:46.000Z</time>
      </trkpt>
      <trkpt lat="46.27175" lon="6.57212">
        <ele>1668</ele>
        <time>2023-01-21T12:07:47.000Z</time>
      </trkpt>
      <trkpt lat="46.27175" lon="6.57212">
        <ele>1668</ele>
        <time>2023-01-21T12:07:48.000Z</time>
      </trkpt>
      <trkpt lat="46.27175" lon="6.57212">
        <ele>1668</ele>
        <time>2023-01-21T12:07:49.000Z</time>
      </trkpt>
      <trkpt lat="46.27175" lon="6.57212">
        <ele>1668</ele>
        <time>2023-01-21T12:07:50.000Z</time>
      </trkpt>
      <trkpt lat="46.27175" lon="6.57212">
        <ele>1668</ele>
        <time>2023-01-21T12:07:51.000Z</time>
      </trkpt>
      <trkpt lat="46.27175" lon="6.57212">
        <ele>1668</ele>
        <time>2023-01-21T12:07:52.000Z</time>
      </trkpt>
      <trkpt lat="46.27171" lon="6.57224">
        <ele>1675</ele>
        <time>2023-01-21T12:07:53.000Z</time>
      </trkpt>
      <trkpt lat="46.2717" lon="6.57225">
        <ele>1675.3</ele>
        <time>2023-01-21T12:07:54.000Z</time>
      </trkpt>
      <trkpt lat="46.2717" lon="6.57225">
        <ele>1675.5</ele>
        <time>2023-01-21T12:07:55.000Z</time>
      </trkpt>
      <trkpt lat="46.2717" lon="6.57225">
        <ele>1675.7</ele>
        <time>2023-01-21T12:07:56.000Z</time>
      </trkpt>
      <trkpt lat="46.2717" lon="6.57225">
        <ele>1675.7</ele>
        <time>2023-01-21T12:07:57.000Z</time>
      </trkpt>
      <trkpt lat="46.2717" lon="6.57225">
        <ele>1675.7</ele>
        <time>2023-01-21T12:07:58.000Z</time>
      </trkpt>
      <trkpt lat="46.2717" lon="6.57225">
        <ele>1675.7</ele>
        <time>2023-01-21T12:07:59.000Z</time>
      </trkpt>
      <trkpt lat="46.2717" lon="6.57225">
        <ele>1675.7</ele>
        <time>2023-01-21T12:08:00.000Z</time>
      </trkpt>
      <trkpt lat="46.2717" lon="6.57225">
        <ele>1675.7</ele>
        <time>2023-01-21T12:08:01.000Z</time>
      </trkpt>
      <trkpt lat="46.2717" lon="6.57225">
        <ele>1675.7</ele>
        <time>2023-01-21T12:08:02.000Z</time>
      </trkpt>
      <trkpt lat="46.2717" lon="6.57225">
        <ele>1675.7</ele>
        <time>2023-01-21T12:08:03.000Z</time>
      </trkpt>
      <trkpt lat="46.2717" lon="6.57225">
        <ele>1675.7</ele>
        <time>2023-01-21T12:08:04.000Z</time>
      </trkpt>
      <trkpt lat="46.2717" lon="6.57225">
        <ele>1675.7</ele>
        <time>2023-01-21T12:08:05.000Z</time>
      </trkpt>
      <trkpt lat="46.2717" lon="6.57225">
        <ele>1675.7</ele>
        <time>2023-01-21T12:08:06.000Z</time>
      </trkpt>
      <trkpt lat="46.2717" lon="6.57225">
        <ele>1675.7</ele>
        <time>2023-01-21T12:08:07.000Z</time>
      </trkpt>
      <trkpt lat="46.2717" lon="6.57225">
        <ele>1675.7</ele>
        <time>2023-01-21T12:08:08.000Z</time>
      </trkpt>
      <trkpt lat="46.2717" lon="6.57225">
        <ele>1675.7</ele>
        <time>2023-01-21T12:08:09.000Z</time>
      </trkpt>
      <trkpt lat="46.2717" lon="6.57225">
        <ele>1675.7</ele>
        <time>2023-01-21T12:08:10.000Z</time>
      </trkpt>
      <trkpt lat="46.2717" lon="6.57225">
        <ele>1675.7</ele>
        <time>2023-01-21T12:08:11.000Z</time>
      </trkpt>
      <trkpt lat="46.2717" lon="6.57225">
        <ele>1675.7</ele>
        <time>2023-01-21T12:08:12.000Z</time>
      </trkpt>
      <trkpt lat="46.2717" lon="6.57225">
        <ele>1675.7</ele>
        <time>2023-01-21T12:08:13.000Z</time>
      </trkpt>
      <trkpt lat="46.2717" lon="6.57225">
        <ele>1675.7</ele>
        <time>2023-01-21T12:08:14.000Z</time>
      </trkpt>
      <trkpt lat="46.2717" lon="6.57225">
        <ele>1675.7</ele>
        <time>2023-01-21T12:08:15.000Z</time>
      </trkpt>
      <trkpt lat="46.2717" lon="6.57225">
        <ele>1675.7</ele>
        <time>2023-01-21T12:08:16.000Z</time>
      </trkpt>
      <trkpt lat="46.2717" lon="6.57225">
        <ele>1675.7</ele>
        <time>2023-01-21T12:08:17.000Z</time>
      </trkpt>
      <trkpt lat="46.27174" lon="6.57238">
        <ele>1678.7</ele>
        <time>2023-01-21T12:08:18.000Z</time>
      </trkpt>
      <trkpt lat="46.27174" lon="6.57239">
        <ele>1678.9</ele>
        <time>2023-01-21T12:08:19.000Z</time>
      </trkpt>
      <trkpt lat="46.27175" lon="6.57239">
        <ele>1679.1</ele>
        <time>2023-01-21T12:08:20.000Z</time>
      </trkpt>
      <trkpt lat="46.27175" lon="6.57239">
        <ele>1679.4</ele>
        <time>2023-01-21T12:08:21.000Z</time>
      </trkpt>
      <trkpt lat="46.27175" lon="6.57239">
        <ele>1679.4</ele>
        <time>2023-01-21T12:08:22.000Z</time>
      </trkpt>
      <trkpt lat="46.27175" lon="6.57239">
        <ele>1679.4</ele>
        <time>2023-01-21T12:08:23.000Z</time>
      </trkpt>
      <trkpt lat="46.27175" lon="6.57239">
        <ele>1679.4</ele>
        <time>2023-01-21T12:08:24.000Z</time>
      </trkpt>
      <trkpt lat="46.27175" lon="6.57239">
        <ele>1679.4</ele>
        <time>2023-01-21T12:08:25.000Z</time>
      </trkpt>
      <trkpt lat="46.27175" lon="6.57239">
        <ele>1679.4</ele>
        <time>2023-01-21T12:08:26.000Z</time>
      </trkpt>
      <trkpt lat="46.27175" lon="6.57239">
        <ele>1679.4</ele>
        <time>2023-01-21T12:08:27.000Z</time>
      </trkpt>
      <trkpt lat="46.27175" lon="6.57239">
        <ele>1679.4</ele>
        <time>2023-01-21T12:08:28.000Z</time>
      </trkpt>
      <trkpt lat="46.27175" lon="6.57239">
        <ele>1679.4</ele>
        <time>2023-01-21T12:08:29.000Z</time>
      </trkpt>
      <trkpt lat="46.27175" lon="6.57239">
        <ele>1679.4</ele>
        <time>2023-01-21T12:08:30.000Z</time>
      </trkpt>
      <trkpt lat="46.27175" lon="6.57239">
        <ele>1679.4</ele>
        <time>2023-01-21T12:08:31.000Z</time>
      </trkpt>
      <trkpt lat="46.27175" lon="6.57239">
        <ele>1679.4</ele>
        <time>2023-01-21T12:08:32.000Z</time>
      </trkpt>
      <trkpt lat="46.27175" lon="6.57239">
        <ele>1679.4</ele>
        <time>2023-01-21T12:08:33.000Z</time>
      </trkpt>
      <trkpt lat="46.27175" lon="6.57239">
        <ele>1679.4</ele>
        <time>2023-01-21T12:08:34.000Z</time>
      </trkpt>
      <trkpt lat="46.27175" lon="6.57239">
        <ele>1679.4</ele>
        <time>2023-01-21T12:08:35.000Z</time>
      </trkpt>
      <trkpt lat="46.27175" lon="6.57239">
        <ele>1679.4</ele>
        <time>2023-01-21T12:08:36.000Z</time>
      </trkpt>
      <trkpt lat="46.27175" lon="6.57239">
        <ele>1679.4</ele>
        <time>2023-01-21T12:08:37.000Z</time>
      </trkpt>
      <trkpt lat="46.27175" lon="6.57239">
        <ele>1679.4</ele>
        <time>2023-01-21T12:08:38.000Z</time>
      </trkpt>
      <trkpt lat="46.27175" lon="6.57239">
        <ele>1679.4</ele>
        <time>2023-01-21T12:08:39.000Z</time>
      </trkpt>
      <trkpt lat="46.27175" lon="6.57239">
        <ele>1679.4</ele>
        <time>2023-01-21T12:08:40.000Z</time>
      </trkpt>
      <trkpt lat="46.27175" lon="6.57239">
        <ele>1679.4</ele>
        <time>2023-01-21T12:08:41.000Z</time>
      </trkpt>
      <trkpt lat="46.27175" lon="6.57239">
        <ele>1679.4</ele>
        <time>2023-01-21T12:08:42.000Z</time>
      </trkpt>
      <trkpt lat="46.27175" lon="6.57239">
        <ele>1679.4</ele>
        <time>2023-01-21T12:08:43.000Z</time>
      </trkpt>
      <trkpt lat="46.27175" lon="6.57239">
        <ele>1679.4</ele>
        <time>2023-01-21T12:08:44.000Z</time>
      </trkpt>
      <trkpt lat="46.27175" lon="6.57239">
        <ele>1679.4</ele>
        <time>2023-01-21T12:08:45.000Z</time>
      </trkpt>
      <trkpt lat="46.27175" lon="6.57239">
        <ele>1679.4</ele>
        <time>2023-01-21T12:08:46.000Z</time>
      </trkpt>
      <trkpt lat="46.27175" lon="6.57239">
        <ele>1682.7</ele>
        <time>2023-01-21T12:08:47.000Z</time>
      </trkpt>
      <trkpt lat="46.27175" lon="6.57239">
        <ele>1682.7</ele>
        <time>2023-01-21T12:08:48.000Z</time>
      </trkpt>
      <trkpt lat="46.27175" lon="6.57239">
        <ele>1682.7</ele>
        <time>2023-01-21T12:08:49.000Z</time>
      </trkpt>
      <trkpt lat="46.27175" lon="6.57239">
        <ele>1682.7</ele>
        <time>2023-01-21T12:08:50.000Z</time>
      </trkpt>
      <trkpt lat="46.27175" lon="6.57239">
        <ele>1682.7</ele>
        <time>2023-01-21T12:08:51.000Z</time>
      </trkpt>
      <trkpt lat="46.27175" lon="6.57239">
        <ele>1682.7</ele>
        <time>2023-01-21T12:08:52.000Z</time>
      </trkpt>
      <trkpt lat="46.27175" lon="6.57239">
        <ele>1682.7</ele>
        <time>2023-01-21T12:08:53.000Z</time>
      </trkpt>
      <trkpt lat="46.27177" lon="6.57252">
        <ele>1682.9</ele>
        <time>2023-01-21T12:08:54.000Z</time>
      </trkpt>
      <trkpt lat="46.27177" lon="6.57252">
        <ele>1682.9</ele>
        <time>2023-01-21T12:08:55.000Z</time>
      </trkpt>
      <trkpt lat="46.27178" lon="6.57253">
        <ele>1682.9</ele>
        <time>2023-01-21T12:08:56.000Z</time>
      </trkpt>
      <trkpt lat="46.27179" lon="6.57254">
        <ele>1683</ele>
        <time>2023-01-21T12:08:57.000Z</time>
      </trkpt>
      <trkpt lat="46.27179" lon="6.57254">
        <ele>1683</ele>
        <time>2023-01-21T12:08:58.000Z</time>
      </trkpt>
      <trkpt lat="46.27179" lon="6.57254">
        <ele>1682.9</ele>
        <time>2023-01-21T12:08:59.000Z</time>
      </trkpt>
      <trkpt lat="46.27179" lon="6.57254">
        <ele>1682.9</ele>
        <time>2023-01-21T12:09:00.000Z</time>
      </trkpt>
      <trkpt lat="46.27179" lon="6.57254">
        <ele>1682.9</ele>
        <time>2023-01-21T12:09:01.000Z</time>
      </trkpt>
      <trkpt lat="46.27179" lon="6.57254">
        <ele>1682.9</ele>
        <time>2023-01-21T12:09:02.000Z</time>
      </trkpt>
      <trkpt lat="46.27179" lon="6.57254">
        <ele>1682.9</ele>
        <time>2023-01-21T12:09:03.000Z</time>
      </trkpt>
      <trkpt lat="46.27179" lon="6.57254">
        <ele>1682.9</ele>
        <time>2023-01-21T12:09:04.000Z</time>
      </trkpt>
      <trkpt lat="46.27179" lon="6.57254">
        <ele>1682.9</ele>
        <time>2023-01-21T12:09:05.000Z</time>
      </trkpt>
      <trkpt lat="46.27179" lon="6.57254">
        <ele>1682.9</ele>
        <time>2023-01-21T12:09:06.000Z</time>
      </trkpt>
      <trkpt lat="46.27179" lon="6.57254">
        <ele>1682.9</ele>
        <time>2023-01-21T12:09:07.000Z</time>
      </trkpt>
      <trkpt lat="46.27179" lon="6.57254">
        <ele>1682.9</ele>
        <time>2023-01-21T12:09:08.000Z</time>
      </trkpt>
      <trkpt lat="46.27179" lon="6.57254">
        <ele>1682.9</ele>
        <time>2023-01-21T12:09:09.000Z</time>
      </trkpt>
      <trkpt lat="46.27179" lon="6.57254">
        <ele>1682.9</ele>
        <time>2023-01-21T12:09:10.000Z</time>
      </trkpt>
      <trkpt lat="46.27179" lon="6.57254">
        <ele>1682.9</ele>
        <time>2023-01-21T12:09:11.000Z</time>
      </trkpt>
      <trkpt lat="46.27179" lon="6.57254">
        <ele>1682.9</ele>
        <time>2023-01-21T12:09:12.000Z</time>
      </trkpt>
      <trkpt lat="46.27179" lon="6.57254">
        <ele>1682.9</ele>
        <time>2023-01-21T12:09:13.000Z</time>
      </trkpt>
      <trkpt lat="46.27179" lon="6.57254">
        <ele>1682.9</ele>
        <time>2023-01-21T12:09:14.000Z</time>
      </trkpt>
      <trkpt lat="46.27187" lon="6.57259">
        <ele>1683.8</ele>
        <time>2023-01-21T12:09:15.000Z</time>
      </trkpt>
      <trkpt lat="46.27187" lon="6.57259">
        <ele>1684.1</ele>
        <time>2023-01-21T12:09:16.000Z</time>
      </trkpt>
      <trkpt lat="46.27188" lon="6.57259">
        <ele>1684.4</ele>
        <time>2023-01-21T12:09:17.000Z</time>
      </trkpt>
      <trkpt lat="46.27189" lon="6.57258">
        <ele>1684.8</ele>
        <time>2023-01-21T12:09:18.000Z</time>
      </trkpt>
      <trkpt lat="46.27189" lon="6.57258">
        <ele>1684.8</ele>
        <time>2023-01-21T12:09:19.000Z</time>
      </trkpt>
      <trkpt lat="46.27189" lon="6.57258">
        <ele>1684.8</ele>
        <time>2023-01-21T12:09:20.000Z</time>
      </trkpt>
      <trkpt lat="46.27189" lon="6.57258">
        <ele>1684.8</ele>
        <time>2023-01-21T12:09:21.000Z</time>
      </trkpt>
      <trkpt lat="46.27189" lon="6.57258">
        <ele>1684.8</ele>
        <time>2023-01-21T12:09:22.000Z</time>
      </trkpt>
      <trkpt lat="46.27189" lon="6.57258">
        <ele>1684.8</ele>
        <time>2023-01-21T12:09:23.000Z</time>
      </trkpt>
      <trkpt lat="46.27189" lon="6.57258">
        <ele>1684.8</ele>
        <time>2023-01-21T12:09:24.000Z</time>
      </trkpt>
      <trkpt lat="46.27189" lon="6.57258">
        <ele>1684.8</ele>
        <time>2023-01-21T12:09:25.000Z</time>
      </trkpt>
      <trkpt lat="46.27189" lon="6.57258">
        <ele>1684.8</ele>
        <time>2023-01-21T12:09:26.000Z</time>
      </trkpt>
      <trkpt lat="46.27189" lon="6.57258">
        <ele>1684.8</ele>
        <time>2023-01-21T12:09:27.000Z</time>
      </trkpt>
      <trkpt lat="46.27189" lon="6.57258">
        <ele>1684.8</ele>
        <time>2023-01-21T12:09:28.000Z</time>
      </trkpt>
      <trkpt lat="46.27189" lon="6.57258">
        <ele>1684.8</ele>
        <time>2023-01-21T12:09:29.000Z</time>
      </trkpt>
      <trkpt lat="46.27189" lon="6.57258">
        <ele>1684.8</ele>
        <time>2023-01-21T12:09:30.000Z</time>
      </trkpt>
      <trkpt lat="46.27189" lon="6.57258">
        <ele>1684.8</ele>
        <time>2023-01-21T12:09:31.000Z</time>
      </trkpt>
      <trkpt lat="46.27189" lon="6.57258">
        <ele>1684.8</ele>
        <time>2023-01-21T12:09:32.000Z</time>
      </trkpt>
      <trkpt lat="46.27189" lon="6.57258">
        <ele>1684.8</ele>
        <time>2023-01-21T12:09:33.000Z</time>
      </trkpt>
      <trkpt lat="46.27189" lon="6.57258">
        <ele>1684.8</ele>
        <time>2023-01-21T12:09:34.000Z</time>
      </trkpt>
      <trkpt lat="46.27188" lon="6.57272">
        <ele>1691</ele>
        <time>2023-01-21T12:09:35.000Z</time>
      </trkpt>
      <trkpt lat="46.27188" lon="6.57272">
        <ele>1691.3</ele>
        <time>2023-01-21T12:09:36.000Z</time>
      </trkpt>
      <trkpt lat="46.27188" lon="6.57272">
        <ele>1691.6</ele>
        <time>2023-01-21T12:09:37.000Z</time>
      </trkpt>
      <trkpt lat="46.27187" lon="6.57272">
        <ele>1691.7</ele>
        <time>2023-01-21T12:09:38.000Z</time>
      </trkpt>
      <trkpt lat="46.27187" lon="6.57272">
        <ele>1691.7</ele>
        <time>2023-01-21T12:09:39.000Z</time>
      </trkpt>
      <trkpt lat="46.27187" lon="6.57272">
        <ele>1691.7</ele>
        <time>2023-01-21T12:09:40.000Z</time>
      </trkpt>
      <trkpt lat="46.27187" lon="6.57272">
        <ele>1691.7</ele>
        <time>2023-01-21T12:09:41.000Z</time>
      </trkpt>
      <trkpt lat="46.27187" lon="6.57272">
        <ele>1691.7</ele>
        <time>2023-01-21T12:09:42.000Z</time>
      </trkpt>
      <trkpt lat="46.27187" lon="6.57272">
        <ele>1691.7</ele>
        <time>2023-01-21T12:09:43.000Z</time>
      </trkpt>
      <trkpt lat="46.27187" lon="6.57272">
        <ele>1691.7</ele>
        <time>2023-01-21T12:09:44.000Z</time>
      </trkpt>
      <trkpt lat="46.27187" lon="6.57272">
        <ele>1691.7</ele>
        <time>2023-01-21T12:09:45.000Z</time>
      </trkpt>
      <trkpt lat="46.27187" lon="6.57272">
        <ele>1691.7</ele>
        <time>2023-01-21T12:09:46.000Z</time>
      </trkpt>
      <trkpt lat="46.27187" lon="6.57272">
        <ele>1691.7</ele>
        <time>2023-01-21T12:09:47.000Z</time>
      </trkpt>
      <trkpt lat="46.27187" lon="6.57272">
        <ele>1691.7</ele>
        <time>2023-01-21T12:09:48.000Z</time>
      </trkpt>
      <trkpt lat="46.27187" lon="6.57272">
        <ele>1691.7</ele>
        <time>2023-01-21T12:09:49.000Z</time>
      </trkpt>
      <trkpt lat="46.27187" lon="6.57272">
        <ele>1691.7</ele>
        <time>2023-01-21T12:09:50.000Z</time>
      </trkpt>
      <trkpt lat="46.27187" lon="6.57272">
        <ele>1691.7</ele>
        <time>2023-01-21T12:09:51.000Z</time>
      </trkpt>
      <trkpt lat="46.27187" lon="6.57272">
        <ele>1691.7</ele>
        <time>2023-01-21T12:09:52.000Z</time>
      </trkpt>
      <trkpt lat="46.27187" lon="6.57272">
        <ele>1691.7</ele>
        <time>2023-01-21T12:09:53.000Z</time>
      </trkpt>
      <trkpt lat="46.27187" lon="6.57272">
        <ele>1691.7</ele>
        <time>2023-01-21T12:09:54.000Z</time>
      </trkpt>
      <trkpt lat="46.27187" lon="6.57272">
        <ele>1691.7</ele>
        <time>2023-01-21T12:09:55.000Z</time>
      </trkpt>
      <trkpt lat="46.27187" lon="6.57272">
        <ele>1691.7</ele>
        <time>2023-01-21T12:09:56.000Z</time>
      </trkpt>
      <trkpt lat="46.27187" lon="6.57272">
        <ele>1691.7</ele>
        <time>2023-01-21T12:09:57.000Z</time>
      </trkpt>
      <trkpt lat="46.27187" lon="6.57272">
        <ele>1691.7</ele>
        <time>2023-01-21T12:09:58.000Z</time>
      </trkpt>
      <trkpt lat="46.27187" lon="6.57272">
        <ele>1691.7</ele>
        <time>2023-01-21T12:09:59.000Z</time>
      </trkpt>
      <trkpt lat="46.27187" lon="6.57272">
        <ele>1691.7</ele>
        <time>2023-01-21T12:10:00.000Z</time>
      </trkpt>
      <trkpt lat="46.27187" lon="6.57272">
        <ele>1691.7</ele>
        <time>2023-01-21T12:10:01.000Z</time>
      </trkpt>
      <trkpt lat="46.27187" lon="6.57272">
        <ele>1691.7</ele>
        <time>2023-01-21T12:10:02.000Z</time>
      </trkpt>
      <trkpt lat="46.27187" lon="6.57272">
        <ele>1691.7</ele>
        <time>2023-01-21T12:10:03.000Z</time>
      </trkpt>
      <trkpt lat="46.27187" lon="6.57272">
        <ele>1691.7</ele>
        <time>2023-01-21T12:10:04.000Z</time>
      </trkpt>
      <trkpt lat="46.27187" lon="6.57272">
        <ele>1691.7</ele>
        <time>2023-01-21T12:10:05.000Z</time>
      </trkpt>
      <trkpt lat="46.27187" lon="6.57272">
        <ele>1691.7</ele>
        <time>2023-01-21T12:10:06.000Z</time>
      </trkpt>
      <trkpt lat="46.27187" lon="6.57272">
        <ele>1691.7</ele>
        <time>2023-01-21T12:10:07.000Z</time>
      </trkpt>
      <trkpt lat="46.27187" lon="6.57272">
        <ele>1691.7</ele>
        <time>2023-01-21T12:10:08.000Z</time>
      </trkpt>
      <trkpt lat="46.27187" lon="6.57272">
        <ele>1691.7</ele>
        <time>2023-01-21T12:10:09.000Z</time>
      </trkpt>
      <trkpt lat="46.27187" lon="6.57272">
        <ele>1691.7</ele>
        <time>2023-01-21T12:10:10.000Z</time>
      </trkpt>
      <trkpt lat="46.27188" lon="6.57286">
        <ele>1698.3</ele>
        <time>2023-01-21T12:10:11.000Z</time>
      </trkpt>
      <trkpt lat="46.27188" lon="6.57286">
        <ele>1698.4</ele>
        <time>2023-01-21T12:10:12.000Z</time>
      </trkpt>
      <trkpt lat="46.27188" lon="6.57286">
        <ele>1698.6</ele>
        <time>2023-01-21T12:10:13.000Z</time>
      </trkpt>
      <trkpt lat="46.27188" lon="6.57287">
        <ele>1698.9</ele>
        <time>2023-01-21T12:10:14.000Z</time>
      </trkpt>
      <trkpt lat="46.27188" lon="6.57287">
        <ele>1698.9</ele>
        <time>2023-01-21T12:10:15.000Z</time>
      </trkpt>
      <trkpt lat="46.27188" lon="6.57287">
        <ele>1698.9</ele>
        <time>2023-01-21T12:10:16.000Z</time>
      </trkpt>
      <trkpt lat="46.27188" lon="6.57287">
        <ele>1698.9</ele>
        <time>2023-01-21T12:10:17.000Z</time>
      </trkpt>
      <trkpt lat="46.27188" lon="6.57287">
        <ele>1698.9</ele>
        <time>2023-01-21T12:10:18.000Z</time>
      </trkpt>
      <trkpt lat="46.27188" lon="6.57287">
        <ele>1698.9</ele>
        <time>2023-01-21T12:10:19.000Z</time>
      </trkpt>
      <trkpt lat="46.27188" lon="6.57287">
        <ele>1698.9</ele>
        <time>2023-01-21T12:10:20.000Z</time>
      </trkpt>
      <trkpt lat="46.27188" lon="6.57287">
        <ele>1698.9</ele>
        <time>2023-01-21T12:10:21.000Z</time>
      </trkpt>
      <trkpt lat="46.27188" lon="6.57287">
        <ele>1698.9</ele>
        <time>2023-01-21T12:10:22.000Z</time>
      </trkpt>
      <trkpt lat="46.27188" lon="6.57287">
        <ele>1698.9</ele>
        <time>2023-01-21T12:10:23.000Z</time>
      </trkpt>
      <trkpt lat="46.27188" lon="6.57287">
        <ele>1698.9</ele>
        <time>2023-01-21T12:10:24.000Z</time>
      </trkpt>
      <trkpt lat="46.27188" lon="6.57287">
        <ele>1698.9</ele>
        <time>2023-01-21T12:10:25.000Z</time>
      </trkpt>
      <trkpt lat="46.27188" lon="6.57287">
        <ele>1698.9</ele>
        <time>2023-01-21T12:10:26.000Z</time>
      </trkpt>
      <trkpt lat="46.27188" lon="6.57287">
        <ele>1698.9</ele>
        <time>2023-01-21T12:10:27.000Z</time>
      </trkpt>
      <trkpt lat="46.27188" lon="6.57287">
        <ele>1698.9</ele>
        <time>2023-01-21T12:10:28.000Z</time>
      </trkpt>
      <trkpt lat="46.27188" lon="6.57287">
        <ele>1698.9</ele>
        <time>2023-01-21T12:10:29.000Z</time>
      </trkpt>
      <trkpt lat="46.27188" lon="6.57287">
        <ele>1698.9</ele>
        <time>2023-01-21T12:10:30.000Z</time>
      </trkpt>
      <trkpt lat="46.27188" lon="6.57287">
        <ele>1698.9</ele>
        <time>2023-01-21T12:10:31.000Z</time>
      </trkpt>
      <trkpt lat="46.27188" lon="6.57287">
        <ele>1698.9</ele>
        <time>2023-01-21T12:10:32.000Z</time>
      </trkpt>
      <trkpt lat="46.27188" lon="6.57287">
        <ele>1698.9</ele>
        <time>2023-01-21T12:10:33.000Z</time>
      </trkpt>
      <trkpt lat="46.27188" lon="6.57287">
        <ele>1698.9</ele>
        <time>2023-01-21T12:10:34.000Z</time>
      </trkpt>
      <trkpt lat="46.27188" lon="6.57287">
        <ele>1698.9</ele>
        <time>2023-01-21T12:10:35.000Z</time>
      </trkpt>
      <trkpt lat="46.27188" lon="6.57287">
        <ele>1698.9</ele>
        <time>2023-01-21T12:10:36.000Z</time>
      </trkpt>
      <trkpt lat="46.27188" lon="6.57287">
        <ele>1698.9</ele>
        <time>2023-01-21T12:10:37.000Z</time>
      </trkpt>
      <trkpt lat="46.27188" lon="6.57287">
        <ele>1698.9</ele>
        <time>2023-01-21T12:10:38.000Z</time>
      </trkpt>
      <trkpt lat="46.27188" lon="6.57287">
        <ele>1698.9</ele>
        <time>2023-01-21T12:10:39.000Z</time>
      </trkpt>
      <trkpt lat="46.27188" lon="6.57287">
        <ele>1698.9</ele>
        <time>2023-01-21T12:10:40.000Z</time>
      </trkpt>
      <trkpt lat="46.27188" lon="6.57287">
        <ele>1698.9</ele>
        <time>2023-01-21T12:10:41.000Z</time>
      </trkpt>
      <trkpt lat="46.27188" lon="6.57287">
        <ele>1698.9</ele>
        <time>2023-01-21T12:10:42.000Z</time>
      </trkpt>
      <trkpt lat="46.27188" lon="6.57287">
        <ele>1698.9</ele>
        <time>2023-01-21T12:10:43.000Z</time>
      </trkpt>
      <trkpt lat="46.27188" lon="6.57287">
        <ele>1698.9</ele>
        <time>2023-01-21T12:10:44.000Z</time>
      </trkpt>
      <trkpt lat="46.27188" lon="6.57287">
        <ele>1698.9</ele>
        <time>2023-01-21T12:10:45.000Z</time>
      </trkpt>
      <trkpt lat="46.27188" lon="6.57287">
        <ele>1698.9</ele>
        <time>2023-01-21T12:10:46.000Z</time>
      </trkpt>
      <trkpt lat="46.27191" lon="6.573">
        <ele>1700.8</ele>
        <time>2023-01-21T12:10:47.000Z</time>
      </trkpt>
      <trkpt lat="46.27191" lon="6.57301">
        <ele>1700.9</ele>
        <time>2023-01-21T12:10:48.000Z</time>
      </trkpt>
      <trkpt lat="46.2719" lon="6.57302">
        <ele>1701.1</ele>
        <time>2023-01-21T12:10:49.000Z</time>
      </trkpt>
      <trkpt lat="46.2719" lon="6.57303">
        <ele>1701.2</ele>
        <time>2023-01-21T12:10:50.000Z</time>
      </trkpt>
      <trkpt lat="46.2719" lon="6.57303">
        <ele>1701.2</ele>
        <time>2023-01-21T12:10:51.000Z</time>
      </trkpt>
      <trkpt lat="46.2719" lon="6.57303">
        <ele>1701.2</ele>
        <time>2023-01-21T12:10:52.000Z</time>
      </trkpt>
      <trkpt lat="46.2719" lon="6.57303">
        <ele>1701.2</ele>
        <time>2023-01-21T12:10:53.000Z</time>
      </trkpt>
      <trkpt lat="46.2719" lon="6.57303">
        <ele>1701.2</ele>
        <time>2023-01-21T12:10:54.000Z</time>
      </trkpt>
      <trkpt lat="46.2719" lon="6.57303">
        <ele>1701.2</ele>
        <time>2023-01-21T12:10:55.000Z</time>
      </trkpt>
      <trkpt lat="46.2719" lon="6.57303">
        <ele>1701.2</ele>
        <time>2023-01-21T12:10:56.000Z</time>
      </trkpt>
      <trkpt lat="46.2719" lon="6.57303">
        <ele>1701.2</ele>
        <time>2023-01-21T12:10:57.000Z</time>
      </trkpt>
      <trkpt lat="46.2719" lon="6.57303">
        <ele>1701.2</ele>
        <time>2023-01-21T12:10:58.000Z</time>
      </trkpt>
      <trkpt lat="46.2719" lon="6.57303">
        <ele>1701.2</ele>
        <time>2023-01-21T12:10:59.000Z</time>
      </trkpt>
      <trkpt lat="46.2719" lon="6.57303">
        <ele>1701.2</ele>
        <time>2023-01-21T12:11:00.000Z</time>
      </trkpt>
      <trkpt lat="46.2719" lon="6.57303">
        <ele>1701.2</ele>
        <time>2023-01-21T12:11:01.000Z</time>
      </trkpt>
      <trkpt lat="46.2719" lon="6.57303">
        <ele>1701.2</ele>
        <time>2023-01-21T12:11:02.000Z</time>
      </trkpt>
      <trkpt lat="46.2719" lon="6.57303">
        <ele>1701.2</ele>
        <time>2023-01-21T12:11:03.000Z</time>
      </trkpt>
      <trkpt lat="46.2719" lon="6.57303">
        <ele>1701.2</ele>
        <time>2023-01-21T12:11:04.000Z</time>
      </trkpt>
      <trkpt lat="46.2719" lon="6.57303">
        <ele>1701.2</ele>
        <time>2023-01-21T12:11:05.000Z</time>
      </trkpt>
      <trkpt lat="46.2719" lon="6.57303">
        <ele>1701.2</ele>
        <time>2023-01-21T12:11:06.000Z</time>
      </trkpt>
      <trkpt lat="46.2719" lon="6.57303">
        <ele>1701.2</ele>
        <time>2023-01-21T12:11:07.000Z</time>
      </trkpt>
      <trkpt lat="46.2719" lon="6.57303">
        <ele>1701.2</ele>
        <time>2023-01-21T12:11:08.000Z</time>
      </trkpt>
      <trkpt lat="46.2719" lon="6.57303">
        <ele>1701.2</ele>
        <time>2023-01-21T12:11:09.000Z</time>
      </trkpt>
      <trkpt lat="46.2719" lon="6.57303">
        <ele>1701.2</ele>
        <time>2023-01-21T12:11:10.000Z</time>
      </trkpt>
      <trkpt lat="46.2719" lon="6.57303">
        <ele>1701.2</ele>
        <time>2023-01-21T12:11:11.000Z</time>
      </trkpt>
      <trkpt lat="46.2719" lon="6.57303">
        <ele>1701.2</ele>
        <time>2023-01-21T12:11:12.000Z</time>
      </trkpt>
      <trkpt lat="46.2719" lon="6.57303">
        <ele>1701.2</ele>
        <time>2023-01-21T12:11:13.000Z</time>
      </trkpt>
      <trkpt lat="46.2719" lon="6.57303">
        <ele>1701.2</ele>
        <time>2023-01-21T12:11:14.000Z</time>
      </trkpt>
      <trkpt lat="46.2719" lon="6.57303">
        <ele>1701.2</ele>
        <time>2023-01-21T12:11:15.000Z</time>
      </trkpt>
      <trkpt lat="46.2719" lon="6.57303">
        <ele>1701.2</ele>
        <time>2023-01-21T12:11:16.000Z</time>
      </trkpt>
      <trkpt lat="46.2719" lon="6.57303">
        <ele>1701.2</ele>
        <time>2023-01-21T12:11:17.000Z</time>
      </trkpt>
      <trkpt lat="46.27196" lon="6.57314">
        <ele>1704.5</ele>
        <time>2023-01-21T12:11:18.000Z</time>
      </trkpt>
      <trkpt lat="46.27195" lon="6.57314">
        <ele>1704.4</ele>
        <time>2023-01-21T12:11:19.000Z</time>
      </trkpt>
      <trkpt lat="46.27196" lon="6.57314">
        <ele>1704.5</ele>
        <time>2023-01-21T12:11:20.000Z</time>
      </trkpt>
      <trkpt lat="46.27196" lon="6.57315">
        <ele>1704.6</ele>
        <time>2023-01-21T12:11:21.000Z</time>
      </trkpt>
      <trkpt lat="46.27196" lon="6.57315">
        <ele>1704.6</ele>
        <time>2023-01-21T12:11:22.000Z</time>
      </trkpt>
      <trkpt lat="46.27196" lon="6.57315">
        <ele>1704.6</ele>
        <time>2023-01-21T12:11:23.000Z</time>
      </trkpt>
      <trkpt lat="46.27196" lon="6.57315">
        <ele>1704.6</ele>
        <time>2023-01-21T12:11:24.000Z</time>
      </trkpt>
      <trkpt lat="46.27196" lon="6.57315">
        <ele>1704.6</ele>
        <time>2023-01-21T12:11:25.000Z</time>
      </trkpt>
      <trkpt lat="46.27196" lon="6.57315">
        <ele>1704.6</ele>
        <time>2023-01-21T12:11:26.000Z</time>
      </trkpt>
      <trkpt lat="46.27196" lon="6.57315">
        <ele>1704.6</ele>
        <time>2023-01-21T12:11:27.000Z</time>
      </trkpt>
      <trkpt lat="46.27196" lon="6.57315">
        <ele>1704.6</ele>
        <time>2023-01-21T12:11:28.000Z</time>
      </trkpt>
      <trkpt lat="46.27196" lon="6.57315">
        <ele>1704.6</ele>
        <time>2023-01-21T12:11:29.000Z</time>
      </trkpt>
      <trkpt lat="46.27196" lon="6.57315">
        <ele>1704.6</ele>
        <time>2023-01-21T12:11:30.000Z</time>
      </trkpt>
      <trkpt lat="46.27196" lon="6.57315">
        <ele>1704.6</ele>
        <time>2023-01-21T12:11:31.000Z</time>
      </trkpt>
      <trkpt lat="46.27196" lon="6.57315">
        <ele>1704.6</ele>
        <time>2023-01-21T12:11:32.000Z</time>
      </trkpt>
      <trkpt lat="46.27196" lon="6.57315">
        <ele>1704.6</ele>
        <time>2023-01-21T12:11:33.000Z</time>
      </trkpt>
      <trkpt lat="46.27196" lon="6.57315">
        <ele>1704.6</ele>
        <time>2023-01-21T12:11:34.000Z</time>
      </trkpt>
      <trkpt lat="46.27196" lon="6.57315">
        <ele>1704.6</ele>
        <time>2023-01-21T12:11:35.000Z</time>
      </trkpt>
      <trkpt lat="46.27196" lon="6.57315">
        <ele>1704.6</ele>
        <time>2023-01-21T12:11:36.000Z</time>
      </trkpt>
      <trkpt lat="46.27196" lon="6.57315">
        <ele>1704.6</ele>
        <time>2023-01-21T12:11:37.000Z</time>
      </trkpt>
      <trkpt lat="46.27196" lon="6.57315">
        <ele>1704.6</ele>
        <time>2023-01-21T12:11:38.000Z</time>
      </trkpt>
      <trkpt lat="46.27196" lon="6.57315">
        <ele>1704.6</ele>
        <time>2023-01-21T12:11:39.000Z</time>
      </trkpt>
      <trkpt lat="46.27196" lon="6.57315">
        <ele>1704.6</ele>
        <time>2023-01-21T12:11:40.000Z</time>
      </trkpt>
      <trkpt lat="46.27196" lon="6.57315">
        <ele>1704.6</ele>
        <time>2023-01-21T12:11:41.000Z</time>
      </trkpt>
      <trkpt lat="46.27196" lon="6.57315">
        <ele>1704.6</ele>
        <time>2023-01-21T12:11:42.000Z</time>
      </trkpt>
      <trkpt lat="46.27196" lon="6.57315">
        <ele>1704.6</ele>
        <time>2023-01-21T12:11:43.000Z</time>
      </trkpt>
      <trkpt lat="46.272" lon="6.57326">
        <ele>1706.3</ele>
        <time>2023-01-21T12:11:44.000Z</time>
      </trkpt>
      <trkpt lat="46.27201" lon="6.57327">
        <ele>1706.3</ele>
        <time>2023-01-21T12:11:45.000Z</time>
      </trkpt>
      <trkpt lat="46.27201" lon="6.57328">
        <ele>1706.3</ele>
        <time>2023-01-21T12:11:46.000Z</time>
      </trkpt>
      <trkpt lat="46.27201" lon="6.57328">
        <ele>1706.3</ele>
        <time>2023-01-21T12:11:47.000Z</time>
      </trkpt>
      <trkpt lat="46.27201" lon="6.57328">
        <ele>1706.3</ele>
        <time>2023-01-21T12:11:48.000Z</time>
      </trkpt>
      <trkpt lat="46.27201" lon="6.57328">
        <ele>1706.3</ele>
        <time>2023-01-21T12:11:49.000Z</time>
      </trkpt>
      <trkpt lat="46.27201" lon="6.57328">
        <ele>1706.3</ele>
        <time>2023-01-21T12:11:50.000Z</time>
      </trkpt>
      <trkpt lat="46.27201" lon="6.57328">
        <ele>1706.3</ele>
        <time>2023-01-21T12:11:51.000Z</time>
      </trkpt>
      <trkpt lat="46.27201" lon="6.57328">
        <ele>1706.3</ele>
        <time>2023-01-21T12:11:52.000Z</time>
      </trkpt>
      <trkpt lat="46.27201" lon="6.57328">
        <ele>1706.3</ele>
        <time>2023-01-21T12:11:53.000Z</time>
      </trkpt>
      <trkpt lat="46.27201" lon="6.57328">
        <ele>1706.3</ele>
        <time>2023-01-21T12:11:54.000Z</time>
      </trkpt>
      <trkpt lat="46.27201" lon="6.57328">
        <ele>1706.3</ele>
        <time>2023-01-21T12:11:55.000Z</time>
      </trkpt>
      <trkpt lat="46.27201" lon="6.57328">
        <ele>1706.3</ele>
        <time>2023-01-21T12:11:56.000Z</time>
      </trkpt>
      <trkpt lat="46.27201" lon="6.57328">
        <ele>1706.3</ele>
        <time>2023-01-21T12:11:57.000Z</time>
      </trkpt>
      <trkpt lat="46.27201" lon="6.57328">
        <ele>1706.3</ele>
        <time>2023-01-21T12:11:58.000Z</time>
      </trkpt>
      <trkpt lat="46.27201" lon="6.57328">
        <ele>1706.3</ele>
        <time>2023-01-21T12:11:59.000Z</time>
      </trkpt>
      <trkpt lat="46.27201" lon="6.57328">
        <ele>1706.3</ele>
        <time>2023-01-21T12:12:00.000Z</time>
      </trkpt>
      <trkpt lat="46.27201" lon="6.57328">
        <ele>1706.3</ele>
        <time>2023-01-21T12:12:01.000Z</time>
      </trkpt>
      <trkpt lat="46.27201" lon="6.57328">
        <ele>1706.3</ele>
        <time>2023-01-21T12:12:02.000Z</time>
      </trkpt>
      <trkpt lat="46.27201" lon="6.57328">
        <ele>1706.3</ele>
        <time>2023-01-21T12:12:03.000Z</time>
      </trkpt>
      <trkpt lat="46.27201" lon="6.57328">
        <ele>1706.3</ele>
        <time>2023-01-21T12:12:04.000Z</time>
      </trkpt>
      <trkpt lat="46.27201" lon="6.57328">
        <ele>1706.3</ele>
        <time>2023-01-21T12:12:05.000Z</time>
      </trkpt>
      <trkpt lat="46.27201" lon="6.57328">
        <ele>1706.3</ele>
        <time>2023-01-21T12:12:06.000Z</time>
      </trkpt>
      <trkpt lat="46.27205" lon="6.5734">
        <ele>1708.6</ele>
        <time>2023-01-21T12:12:07.000Z</time>
      </trkpt>
      <trkpt lat="46.27205" lon="6.57341">
        <ele>1708.8</ele>
        <time>2023-01-21T12:12:08.000Z</time>
      </trkpt>
      <trkpt lat="46.27206" lon="6.57342">
        <ele>1708.9</ele>
        <time>2023-01-21T12:12:09.000Z</time>
      </trkpt>
      <trkpt lat="46.27206" lon="6.57342">
        <ele>1709</ele>
        <time>2023-01-21T12:12:10.000Z</time>
      </trkpt>
      <trkpt lat="46.27206" lon="6.57342">
        <ele>1709</ele>
        <time>2023-01-21T12:12:11.000Z</time>
      </trkpt>
      <trkpt lat="46.27206" lon="6.57342">
        <ele>1709</ele>
        <time>2023-01-21T12:12:12.000Z</time>
      </trkpt>
      <trkpt lat="46.27206" lon="6.57342">
        <ele>1709</ele>
        <time>2023-01-21T12:12:13.000Z</time>
      </trkpt>
      <trkpt lat="46.27206" lon="6.57342">
        <ele>1709</ele>
        <time>2023-01-21T12:12:14.000Z</time>
      </trkpt>
      <trkpt lat="46.27206" lon="6.57342">
        <ele>1709</ele>
        <time>2023-01-21T12:12:15.000Z</time>
      </trkpt>
      <trkpt lat="46.27206" lon="6.57342">
        <ele>1709</ele>
        <time>2023-01-21T12:12:16.000Z</time>
      </trkpt>
      <trkpt lat="46.27206" lon="6.57342">
        <ele>1709</ele>
        <time>2023-01-21T12:12:17.000Z</time>
      </trkpt>
      <trkpt lat="46.27206" lon="6.57342">
        <ele>1709</ele>
        <time>2023-01-21T12:12:18.000Z</time>
      </trkpt>
      <trkpt lat="46.27206" lon="6.57342">
        <ele>1709</ele>
        <time>2023-01-21T12:12:19.000Z</time>
      </trkpt>
      <trkpt lat="46.27206" lon="6.57342">
        <ele>1709</ele>
        <time>2023-01-21T12:12:20.000Z</time>
      </trkpt>
      <trkpt lat="46.27206" lon="6.57342">
        <ele>1709</ele>
        <time>2023-01-21T12:12:21.000Z</time>
      </trkpt>
      <trkpt lat="46.27206" lon="6.57342">
        <ele>1709</ele>
        <time>2023-01-21T12:12:22.000Z</time>
      </trkpt>
      <trkpt lat="46.27206" lon="6.57342">
        <ele>1709</ele>
        <time>2023-01-21T12:12:23.000Z</time>
      </trkpt>
      <trkpt lat="46.27206" lon="6.57342">
        <ele>1709</ele>
        <time>2023-01-21T12:12:24.000Z</time>
      </trkpt>
      <trkpt lat="46.27206" lon="6.57342">
        <ele>1709</ele>
        <time>2023-01-21T12:12:25.000Z</time>
      </trkpt>
      <trkpt lat="46.27206" lon="6.57342">
        <ele>1709</ele>
        <time>2023-01-21T12:12:26.000Z</time>
      </trkpt>
      <trkpt lat="46.27206" lon="6.57342">
        <ele>1709</ele>
        <time>2023-01-21T12:12:27.000Z</time>
      </trkpt>
      <trkpt lat="46.27206" lon="6.57342">
        <ele>1709</ele>
        <time>2023-01-21T12:12:28.000Z</time>
      </trkpt>
      <trkpt lat="46.27206" lon="6.57342">
        <ele>1709</ele>
        <time>2023-01-21T12:12:29.000Z</time>
      </trkpt>
      <trkpt lat="46.27206" lon="6.57342">
        <ele>1709</ele>
        <time>2023-01-21T12:12:30.000Z</time>
      </trkpt>
      <trkpt lat="46.27206" lon="6.57342">
        <ele>1709</ele>
        <time>2023-01-21T12:12:31.000Z</time>
      </trkpt>
      <trkpt lat="46.27206" lon="6.57342">
        <ele>1709</ele>
        <time>2023-01-21T12:12:32.000Z</time>
      </trkpt>
      <trkpt lat="46.27206" lon="6.57342">
        <ele>1709</ele>
        <time>2023-01-21T12:12:33.000Z</time>
      </trkpt>
      <trkpt lat="46.27206" lon="6.57342">
        <ele>1709</ele>
        <time>2023-01-21T12:12:34.000Z</time>
      </trkpt>
      <trkpt lat="46.27213" lon="6.57351">
        <ele>1711.9</ele>
        <time>2023-01-21T12:12:35.000Z</time>
      </trkpt>
      <trkpt lat="46.27214" lon="6.57351">
        <ele>1712.1</ele>
        <time>2023-01-21T12:12:36.000Z</time>
      </trkpt>
      <trkpt lat="46.27214" lon="6.57352">
        <ele>1712.3</ele>
        <time>2023-01-21T12:12:37.000Z</time>
      </trkpt>
      <trkpt lat="46.27214" lon="6.57352">
        <ele>1712.6</ele>
        <time>2023-01-21T12:12:38.000Z</time>
      </trkpt>
      <trkpt lat="46.27214" lon="6.57352">
        <ele>1712.6</ele>
        <time>2023-01-21T12:12:39.000Z</time>
      </trkpt>
      <trkpt lat="46.27214" lon="6.57352">
        <ele>1712.6</ele>
        <time>2023-01-21T12:12:40.000Z</time>
      </trkpt>
      <trkpt lat="46.27214" lon="6.57352">
        <ele>1712.6</ele>
        <time>2023-01-21T12:12:41.000Z</time>
      </trkpt>
      <trkpt lat="46.27214" lon="6.57352">
        <ele>1712.6</ele>
        <time>2023-01-21T12:12:42.000Z</time>
      </trkpt>
      <trkpt lat="46.27214" lon="6.57352">
        <ele>1712.6</ele>
        <time>2023-01-21T12:12:43.000Z</time>
      </trkpt>
      <trkpt lat="46.27214" lon="6.57352">
        <ele>1712.6</ele>
        <time>2023-01-21T12:12:44.000Z</time>
      </trkpt>
      <trkpt lat="46.27214" lon="6.57352">
        <ele>1712.6</ele>
        <time>2023-01-21T12:12:45.000Z</time>
      </trkpt>
      <trkpt lat="46.27214" lon="6.57352">
        <ele>1712.6</ele>
        <time>2023-01-21T12:12:46.000Z</time>
      </trkpt>
      <trkpt lat="46.27214" lon="6.57352">
        <ele>1712.6</ele>
        <time>2023-01-21T12:12:47.000Z</time>
      </trkpt>
      <trkpt lat="46.27214" lon="6.57352">
        <ele>1712.6</ele>
        <time>2023-01-21T12:12:48.000Z</time>
      </trkpt>
      <trkpt lat="46.27214" lon="6.57352">
        <ele>1712.6</ele>
        <time>2023-01-21T12:12:49.000Z</time>
      </trkpt>
      <trkpt lat="46.27214" lon="6.57352">
        <ele>1716.3</ele>
        <time>2023-01-21T12:12:50.000Z</time>
      </trkpt>
      <trkpt lat="46.27214" lon="6.57352">
        <ele>1716.3</ele>
        <time>2023-01-21T12:12:51.000Z</time>
      </trkpt>
      <trkpt lat="46.27214" lon="6.57352">
        <ele>1716.3</ele>
        <time>2023-01-21T12:12:52.000Z</time>
      </trkpt>
      <trkpt lat="46.27214" lon="6.57352">
        <ele>1716.3</ele>
        <time>2023-01-21T12:12:53.000Z</time>
      </trkpt>
      <trkpt lat="46.27214" lon="6.57352">
        <ele>1716.3</ele>
        <time>2023-01-21T12:12:54.000Z</time>
      </trkpt>
      <trkpt lat="46.27214" lon="6.57352">
        <ele>1716.3</ele>
        <time>2023-01-21T12:12:55.000Z</time>
      </trkpt>
      <trkpt lat="46.27214" lon="6.57352">
        <ele>1716.3</ele>
        <time>2023-01-21T12:12:56.000Z</time>
      </trkpt>
      <trkpt lat="46.27214" lon="6.57352">
        <ele>1716.3</ele>
        <time>2023-01-21T12:12:57.000Z</time>
      </trkpt>
      <trkpt lat="46.27214" lon="6.57352">
        <ele>1716.3</ele>
        <time>2023-01-21T12:12:58.000Z</time>
      </trkpt>
      <trkpt lat="46.27214" lon="6.57352">
        <ele>1716.3</ele>
        <time>2023-01-21T12:12:59.000Z</time>
      </trkpt>
      <trkpt lat="46.27214" lon="6.57352">
        <ele>1716.3</ele>
        <time>2023-01-21T12:13:00.000Z</time>
      </trkpt>
      <trkpt lat="46.27214" lon="6.57352">
        <ele>1716.3</ele>
        <time>2023-01-21T12:13:01.000Z</time>
      </trkpt>
      <trkpt lat="46.27223" lon="6.57356">
        <ele>1720.3</ele>
        <time>2023-01-21T12:13:02.000Z</time>
      </trkpt>
      <trkpt lat="46.27223" lon="6.57356">
        <ele>1720.7</ele>
        <time>2023-01-21T12:13:03.000Z</time>
      </trkpt>
      <trkpt lat="46.27224" lon="6.57356">
        <ele>1721</ele>
        <time>2023-01-21T12:13:04.000Z</time>
      </trkpt>
      <trkpt lat="46.27224" lon="6.57356">
        <ele>1721.2</ele>
        <time>2023-01-21T12:13:05.000Z</time>
      </trkpt>
      <trkpt lat="46.27224" lon="6.57356">
        <ele>1721.2</ele>
        <time>2023-01-21T12:13:06.000Z</time>
      </trkpt>
      <trkpt lat="46.27224" lon="6.57356">
        <ele>1721.2</ele>
        <time>2023-01-21T12:13:07.000Z</time>
      </trkpt>
      <trkpt lat="46.27224" lon="6.57356">
        <ele>1721.2</ele>
        <time>2023-01-21T12:13:08.000Z</time>
      </trkpt>
      <trkpt lat="46.27224" lon="6.57356">
        <ele>1721.2</ele>
        <time>2023-01-21T12:13:09.000Z</time>
      </trkpt>
      <trkpt lat="46.27224" lon="6.57356">
        <ele>1721.2</ele>
        <time>2023-01-21T12:13:10.000Z</time>
      </trkpt>
      <trkpt lat="46.27224" lon="6.57356">
        <ele>1721.2</ele>
        <time>2023-01-21T12:13:11.000Z</time>
      </trkpt>
      <trkpt lat="46.27224" lon="6.57356">
        <ele>1721.2</ele>
        <time>2023-01-21T12:13:12.000Z</time>
      </trkpt>
      <trkpt lat="46.27224" lon="6.57356">
        <ele>1721.2</ele>
        <time>2023-01-21T12:13:13.000Z</time>
      </trkpt>
      <trkpt lat="46.27224" lon="6.57356">
        <ele>1721.2</ele>
        <time>2023-01-21T12:13:14.000Z</time>
      </trkpt>
      <trkpt lat="46.27224" lon="6.57356">
        <ele>1721.2</ele>
        <time>2023-01-21T12:13:15.000Z</time>
      </trkpt>
      <trkpt lat="46.27224" lon="6.57356">
        <ele>1721.2</ele>
        <time>2023-01-21T12:13:16.000Z</time>
      </trkpt>
      <trkpt lat="46.27224" lon="6.57356">
        <ele>1721.2</ele>
        <time>2023-01-21T12:13:17.000Z</time>
      </trkpt>
      <trkpt lat="46.27224" lon="6.57356">
        <ele>1721.2</ele>
        <time>2023-01-21T12:13:18.000Z</time>
      </trkpt>
      <trkpt lat="46.27224" lon="6.57356">
        <ele>1721.2</ele>
        <time>2023-01-21T12:13:19.000Z</time>
      </trkpt>
      <trkpt lat="46.27224" lon="6.57356">
        <ele>1721.2</ele>
        <time>2023-01-21T12:13:20.000Z</time>
      </trkpt>
      <trkpt lat="46.27224" lon="6.57356">
        <ele>1721.2</ele>
        <time>2023-01-21T12:13:21.000Z</time>
      </trkpt>
      <trkpt lat="46.27224" lon="6.57356">
        <ele>1721.2</ele>
        <time>2023-01-21T12:13:22.000Z</time>
      </trkpt>
      <trkpt lat="46.27224" lon="6.57356">
        <ele>1721.2</ele>
        <time>2023-01-21T12:13:23.000Z</time>
      </trkpt>
      <trkpt lat="46.27224" lon="6.57356">
        <ele>1721.2</ele>
        <time>2023-01-21T12:13:24.000Z</time>
      </trkpt>
      <trkpt lat="46.27224" lon="6.57356">
        <ele>1721.2</ele>
        <time>2023-01-21T12:13:25.000Z</time>
      </trkpt>
      <trkpt lat="46.27224" lon="6.57356">
        <ele>1721.2</ele>
        <time>2023-01-21T12:13:26.000Z</time>
      </trkpt>
      <trkpt lat="46.27224" lon="6.57356">
        <ele>1721.2</ele>
        <time>2023-01-21T12:13:27.000Z</time>
      </trkpt>
      <trkpt lat="46.27224" lon="6.57356">
        <ele>1721.2</ele>
        <time>2023-01-21T12:13:28.000Z</time>
      </trkpt>
      <trkpt lat="46.27224" lon="6.57356">
        <ele>1721.2</ele>
        <time>2023-01-21T12:13:29.000Z</time>
      </trkpt>
      <trkpt lat="46.27224" lon="6.57356">
        <ele>1721.2</ele>
        <time>2023-01-21T12:13:30.000Z</time>
      </trkpt>
      <trkpt lat="46.27224" lon="6.57356">
        <ele>1721.2</ele>
        <time>2023-01-21T12:13:31.000Z</time>
      </trkpt>
      <trkpt lat="46.27224" lon="6.57356">
        <ele>1721.2</ele>
        <time>2023-01-21T12:13:32.000Z</time>
      </trkpt>
      <trkpt lat="46.27224" lon="6.57356">
        <ele>1721.2</ele>
        <time>2023-01-21T12:13:33.000Z</time>
      </trkpt>
      <trkpt lat="46.27224" lon="6.57356">
        <ele>1721.2</ele>
        <time>2023-01-21T12:13:34.000Z</time>
      </trkpt>
      <trkpt lat="46.27224" lon="6.57356">
        <ele>1721.2</ele>
        <time>2023-01-21T12:13:35.000Z</time>
      </trkpt>
      <trkpt lat="46.27224" lon="6.57356">
        <ele>1721.2</ele>
        <time>2023-01-21T12:13:36.000Z</time>
      </trkpt>
      <trkpt lat="46.27224" lon="6.57356">
        <ele>1721.2</ele>
        <time>2023-01-21T12:13:37.000Z</time>
      </trkpt>
      <trkpt lat="46.27224" lon="6.57356">
        <ele>1721.2</ele>
        <time>2023-01-21T12:13:38.000Z</time>
      </trkpt>
      <trkpt lat="46.27224" lon="6.57356">
        <ele>1721.2</ele>
        <time>2023-01-21T12:13:39.000Z</time>
      </trkpt>
      <trkpt lat="46.27224" lon="6.57356">
        <ele>1721.2</ele>
        <time>2023-01-21T12:13:40.000Z</time>
      </trkpt>
      <trkpt lat="46.27224" lon="6.57356">
        <ele>1721.2</ele>
        <time>2023-01-21T12:13:41.000Z</time>
      </trkpt>
      <trkpt lat="46.27224" lon="6.57356">
        <ele>1721.2</ele>
        <time>2023-01-21T12:13:42.000Z</time>
      </trkpt>
      <trkpt lat="46.27224" lon="6.57356">
        <ele>1721.2</ele>
        <time>2023-01-21T12:13:43.000Z</time>
      </trkpt>
      <trkpt lat="46.27224" lon="6.57356">
        <ele>1721.2</ele>
        <time>2023-01-21T12:13:44.000Z</time>
      </trkpt>
      <trkpt lat="46.27224" lon="6.57356">
        <ele>1721.2</ele>
        <time>2023-01-21T12:13:45.000Z</time>
      </trkpt>
      <trkpt lat="46.27224" lon="6.57356">
        <ele>1721.2</ele>
        <time>2023-01-21T12:13:46.000Z</time>
      </trkpt>
      <trkpt lat="46.27224" lon="6.57356">
        <ele>1721.2</ele>
        <time>2023-01-21T12:13:47.000Z</time>
      </trkpt>
      <trkpt lat="46.27224" lon="6.57356">
        <ele>1721.2</ele>
        <time>2023-01-21T12:13:48.000Z</time>
      </trkpt>
      <trkpt lat="46.27224" lon="6.57356">
        <ele>1721.2</ele>
        <time>2023-01-21T12:13:49.000Z</time>
      </trkpt>
      <trkpt lat="46.27224" lon="6.57356">
        <ele>1721.2</ele>
        <time>2023-01-21T12:13:50.000Z</time>
      </trkpt>
      <trkpt lat="46.27224" lon="6.57356">
        <ele>1721.2</ele>
        <time>2023-01-21T12:13:51.000Z</time>
      </trkpt>
      <trkpt lat="46.27224" lon="6.57356">
        <ele>1721.2</ele>
        <time>2023-01-21T12:13:52.000Z</time>
      </trkpt>
      <trkpt lat="46.27224" lon="6.57356">
        <ele>1721.2</ele>
        <time>2023-01-21T12:13:53.000Z</time>
      </trkpt>
      <trkpt lat="46.27224" lon="6.57356">
        <ele>1721.2</ele>
        <time>2023-01-21T12:13:54.000Z</time>
      </trkpt>
      <trkpt lat="46.27224" lon="6.57356">
        <ele>1721.2</ele>
        <time>2023-01-21T12:13:55.000Z</time>
      </trkpt>
      <trkpt lat="46.27224" lon="6.57356">
        <ele>1721.2</ele>
        <time>2023-01-21T12:13:56.000Z</time>
      </trkpt>
      <trkpt lat="46.27224" lon="6.57356">
        <ele>1721.2</ele>
        <time>2023-01-21T12:13:57.000Z</time>
      </trkpt>
      <trkpt lat="46.27224" lon="6.57356">
        <ele>1721.2</ele>
        <time>2023-01-21T12:13:58.000Z</time>
      </trkpt>
      <trkpt lat="46.27224" lon="6.57356">
        <ele>1721.2</ele>
        <time>2023-01-21T12:13:59.000Z</time>
      </trkpt>
      <trkpt lat="46.27225" lon="6.57363">
        <ele>1724.2</ele>
        <time>2023-01-21T12:14:00.000Z</time>
      </trkpt>
      <trkpt lat="46.27227" lon="6.57362">
        <ele>1725</ele>
        <time>2023-01-21T12:14:01.000Z</time>
      </trkpt>
      <trkpt lat="46.27225" lon="6.57364">
        <ele>1725.6</ele>
        <time>2023-01-21T12:14:02.000Z</time>
      </trkpt>
      <trkpt lat="46.27227" lon="6.57363">
        <ele>1727</ele>
        <time>2023-01-21T12:14:03.000Z</time>
      </trkpt>
      <trkpt lat="46.27227" lon="6.57363">
        <ele>1727</ele>
        <time>2023-01-21T12:14:04.000Z</time>
      </trkpt>
      <trkpt lat="46.27227" lon="6.57363">
        <ele>1727</ele>
        <time>2023-01-21T12:14:05.000Z</time>
      </trkpt>
      <trkpt lat="46.27227" lon="6.57363">
        <ele>1727</ele>
        <time>2023-01-21T12:14:06.000Z</time>
      </trkpt>
      <trkpt lat="46.27227" lon="6.57363">
        <ele>1727</ele>
        <time>2023-01-21T12:14:07.000Z</time>
      </trkpt>
      <trkpt lat="46.27227" lon="6.57363">
        <ele>1727</ele>
        <time>2023-01-21T12:14:08.000Z</time>
      </trkpt>
      <trkpt lat="46.27227" lon="6.57363">
        <ele>1730.2</ele>
        <time>2023-01-21T12:14:09.000Z</time>
      </trkpt>
      <trkpt lat="46.27227" lon="6.57363">
        <ele>1730.2</ele>
        <time>2023-01-21T12:14:10.000Z</time>
      </trkpt>
      <trkpt lat="46.27227" lon="6.57363">
        <ele>1730.2</ele>
        <time>2023-01-21T12:14:11.000Z</time>
      </trkpt>
      <trkpt lat="46.27227" lon="6.57363">
        <ele>1730.2</ele>
        <time>2023-01-21T12:14:12.000Z</time>
      </trkpt>
      <trkpt lat="46.27227" lon="6.57363">
        <ele>1730.2</ele>
        <time>2023-01-21T12:14:13.000Z</time>
      </trkpt>
      <trkpt lat="46.27227" lon="6.57363">
        <ele>1730.2</ele>
        <time>2023-01-21T12:14:14.000Z</time>
      </trkpt>
      <trkpt lat="46.27227" lon="6.57363">
        <ele>1730.2</ele>
        <time>2023-01-21T12:14:15.000Z</time>
      </trkpt>
      <trkpt lat="46.27227" lon="6.57363">
        <ele>1730.2</ele>
        <time>2023-01-21T12:14:16.000Z</time>
      </trkpt>
      <trkpt lat="46.27227" lon="6.57363">
        <ele>1730.2</ele>
        <time>2023-01-21T12:14:17.000Z</time>
      </trkpt>
      <trkpt lat="46.27227" lon="6.57363">
        <ele>1730.2</ele>
        <time>2023-01-21T12:14:18.000Z</time>
      </trkpt>
      <trkpt lat="46.27227" lon="6.57363">
        <ele>1730.2</ele>
        <time>2023-01-21T12:14:19.000Z</time>
      </trkpt>
      <trkpt lat="46.27227" lon="6.57363">
        <ele>1730.2</ele>
        <time>2023-01-21T12:14:20.000Z</time>
      </trkpt>
      <trkpt lat="46.27227" lon="6.57363">
        <ele>1730.2</ele>
        <time>2023-01-21T12:14:21.000Z</time>
      </trkpt>
      <trkpt lat="46.27227" lon="6.57363">
        <ele>1730.2</ele>
        <time>2023-01-21T12:14:22.000Z</time>
      </trkpt>
      <trkpt lat="46.2723" lon="6.57366">
        <ele>1728.4</ele>
        <time>2023-01-21T12:14:23.000Z</time>
      </trkpt>
      <trkpt lat="46.2723" lon="6.57365">
        <ele>1728.4</ele>
        <time>2023-01-21T12:14:24.000Z</time>
      </trkpt>
      <trkpt lat="46.2723" lon="6.57365">
        <ele>1727.7</ele>
        <time>2023-01-21T12:14:25.000Z</time>
      </trkpt>
      <trkpt lat="46.2723" lon="6.57365">
        <ele>1727.6</ele>
        <time>2023-01-21T12:14:26.000Z</time>
      </trkpt>
      <trkpt lat="46.27234" lon="6.57364">
        <ele>1727.8</ele>
        <time>2023-01-21T12:14:27.000Z</time>
      </trkpt>
      <trkpt lat="46.27234" lon="6.57363">
        <ele>1727.5</ele>
        <time>2023-01-21T12:14:28.000Z</time>
      </trkpt>
      <trkpt lat="46.27233" lon="6.57362">
        <ele>1727.2</ele>
        <time>2023-01-21T12:14:29.000Z</time>
      </trkpt>
      <trkpt lat="46.27232" lon="6.57362">
        <ele>1726.8</ele>
        <time>2023-01-21T12:14:30.000Z</time>
      </trkpt>
      <trkpt lat="46.27232" lon="6.57362">
        <ele>1726.1</ele>
        <time>2023-01-21T12:14:31.000Z</time>
      </trkpt>
      <trkpt lat="46.27232" lon="6.57362">
        <ele>1726.1</ele>
        <time>2023-01-21T12:14:32.000Z</time>
      </trkpt>
      <trkpt lat="46.27232" lon="6.57362">
        <ele>1726.1</ele>
        <time>2023-01-21T12:14:33.000Z</time>
      </trkpt>
      <trkpt lat="46.27232" lon="6.57362">
        <ele>1726.1</ele>
        <time>2023-01-21T12:14:34.000Z</time>
      </trkpt>
      <trkpt lat="46.27232" lon="6.57362">
        <ele>1726.1</ele>
        <time>2023-01-21T12:14:35.000Z</time>
      </trkpt>
      <trkpt lat="46.27232" lon="6.57362">
        <ele>1726.1</ele>
        <time>2023-01-21T12:14:36.000Z</time>
      </trkpt>
      <trkpt lat="46.27232" lon="6.57362">
        <ele>1726.1</ele>
        <time>2023-01-21T12:14:37.000Z</time>
      </trkpt>
      <trkpt lat="46.27232" lon="6.57362">
        <ele>1726.1</ele>
        <time>2023-01-21T12:14:38.000Z</time>
      </trkpt>
      <trkpt lat="46.27232" lon="6.57362">
        <ele>1726.1</ele>
        <time>2023-01-21T12:14:39.000Z</time>
      </trkpt>
      <trkpt lat="46.27232" lon="6.57362">
        <ele>1726.1</ele>
        <time>2023-01-21T12:14:40.000Z</time>
      </trkpt>
      <trkpt lat="46.27232" lon="6.57362">
        <ele>1726.1</ele>
        <time>2023-01-21T12:14:41.000Z</time>
      </trkpt>
      <trkpt lat="46.27232" lon="6.57362">
        <ele>1726.1</ele>
        <time>2023-01-21T12:14:42.000Z</time>
      </trkpt>
      <trkpt lat="46.27232" lon="6.57362">
        <ele>1726.1</ele>
        <time>2023-01-21T12:14:43.000Z</time>
      </trkpt>
      <trkpt lat="46.27232" lon="6.57362">
        <ele>1726.1</ele>
        <time>2023-01-21T12:14:44.000Z</time>
      </trkpt>
      <trkpt lat="46.27232" lon="6.57362">
        <ele>1726.1</ele>
        <time>2023-01-21T12:14:45.000Z</time>
      </trkpt>
      <trkpt lat="46.27232" lon="6.57362">
        <ele>1726.1</ele>
        <time>2023-01-21T12:14:46.000Z</time>
      </trkpt>
      <trkpt lat="46.27232" lon="6.57362">
        <ele>1726.1</ele>
        <time>2023-01-21T12:14:47.000Z</time>
      </trkpt>
      <trkpt lat="46.27232" lon="6.57362">
        <ele>1726.1</ele>
        <time>2023-01-21T12:14:48.000Z</time>
      </trkpt>
      <trkpt lat="46.27232" lon="6.57362">
        <ele>1726.1</ele>
        <time>2023-01-21T12:14:49.000Z</time>
      </trkpt>
      <trkpt lat="46.27232" lon="6.57362">
        <ele>1726.1</ele>
        <time>2023-01-21T12:14:50.000Z</time>
      </trkpt>
      <trkpt lat="46.27232" lon="6.57362">
        <ele>1726.1</ele>
        <time>2023-01-21T12:14:51.000Z</time>
      </trkpt>
      <trkpt lat="46.27232" lon="6.57362">
        <ele>1726.1</ele>
        <time>2023-01-21T12:14:52.000Z</time>
      </trkpt>
      <trkpt lat="46.27232" lon="6.57362">
        <ele>1726.1</ele>
        <time>2023-01-21T12:14:53.000Z</time>
      </trkpt>
      <trkpt lat="46.27232" lon="6.57362">
        <ele>1726.1</ele>
        <time>2023-01-21T12:14:54.000Z</time>
      </trkpt>
      <trkpt lat="46.27232" lon="6.57362">
        <ele>1726.1</ele>
        <time>2023-01-21T12:14:55.000Z</time>
      </trkpt>
      <trkpt lat="46.27232" lon="6.57362">
        <ele>1726.1</ele>
        <time>2023-01-21T12:14:56.000Z</time>
      </trkpt>
      <trkpt lat="46.27232" lon="6.57362">
        <ele>1726.1</ele>
        <time>2023-01-21T12:14:57.000Z</time>
      </trkpt>
      <trkpt lat="46.27232" lon="6.57362">
        <ele>1726.1</ele>
        <time>2023-01-21T12:14:58.000Z</time>
      </trkpt>
      <trkpt lat="46.27232" lon="6.57362">
        <ele>1726.1</ele>
        <time>2023-01-21T12:14:59.000Z</time>
      </trkpt>
      <trkpt lat="46.27236" lon="6.57359">
        <ele>1726.2</ele>
        <time>2023-01-21T12:15:00.000Z</time>
      </trkpt>
      <trkpt lat="46.27236" lon="6.57358">
        <ele>1726.5</ele>
        <time>2023-01-21T12:15:01.000Z</time>
      </trkpt>
      <trkpt lat="46.27236" lon="6.57359">
        <ele>1727.2</ele>
        <time>2023-01-21T12:15:02.000Z</time>
      </trkpt>
      <trkpt lat="46.27236" lon="6.57359">
        <ele>1728.1</ele>
        <time>2023-01-21T12:15:03.000Z</time>
      </trkpt>
      <trkpt lat="46.27236" lon="6.57359">
        <ele>1728.8</ele>
        <time>2023-01-21T12:15:04.000Z</time>
      </trkpt>
      <trkpt lat="46.27233" lon="6.57359">
        <ele>1727.5</ele>
        <time>2023-01-21T12:15:05.000Z</time>
      </trkpt>
      <trkpt lat="46.27233" lon="6.57359">
        <ele>1727.5</ele>
        <time>2023-01-21T12:15:06.000Z</time>
      </trkpt>
      <trkpt lat="46.27233" lon="6.57359">
        <ele>1727.5</ele>
        <time>2023-01-21T12:15:07.000Z</time>
      </trkpt>
      <trkpt lat="46.27233" lon="6.57359">
        <ele>1727.5</ele>
        <time>2023-01-21T12:15:08.000Z</time>
      </trkpt>
      <trkpt lat="46.27233" lon="6.57359">
        <ele>1727.5</ele>
        <time>2023-01-21T12:15:09.000Z</time>
      </trkpt>
      <trkpt lat="46.27233" lon="6.57359">
        <ele>1727.5</ele>
        <time>2023-01-21T12:15:10.000Z</time>
      </trkpt>
      <trkpt lat="46.27233" lon="6.57359">
        <ele>1727.5</ele>
        <time>2023-01-21T12:15:11.000Z</time>
      </trkpt>
      <trkpt lat="46.27233" lon="6.57359">
        <ele>1727.5</ele>
        <time>2023-01-21T12:15:12.000Z</time>
      </trkpt>
      <trkpt lat="46.27233" lon="6.57359">
        <ele>1727.5</ele>
        <time>2023-01-21T12:15:13.000Z</time>
      </trkpt>
      <trkpt lat="46.27233" lon="6.57359">
        <ele>1727.5</ele>
        <time>2023-01-21T12:15:14.000Z</time>
      </trkpt>
      <trkpt lat="46.27233" lon="6.57359">
        <ele>1727.5</ele>
        <time>2023-01-21T12:15:15.000Z</time>
      </trkpt>
      <trkpt lat="46.27233" lon="6.57359">
        <ele>1727.5</ele>
        <time>2023-01-21T12:15:16.000Z</time>
      </trkpt>
      <trkpt lat="46.27234" lon="6.5736">
        <ele>1725.4</ele>
        <time>2023-01-21T12:15:17.000Z</time>
      </trkpt>
      <trkpt lat="46.27235" lon="6.57361">
        <ele>1725.7</ele>
        <time>2023-01-21T12:15:18.000Z</time>
      </trkpt>
      <trkpt lat="46.27235" lon="6.57361">
        <ele>1725.8</ele>
        <time>2023-01-21T12:15:19.000Z</time>
      </trkpt>
      <trkpt lat="46.27236" lon="6.57363">
        <ele>1725.7</ele>
        <time>2023-01-21T12:15:20.000Z</time>
      </trkpt>
      <trkpt lat="46.27236" lon="6.57366">
        <ele>1725.7</ele>
        <time>2023-01-21T12:15:21.000Z</time>
      </trkpt>
      <trkpt lat="46.27236" lon="6.57368">
        <ele>1725.5</ele>
        <time>2023-01-21T12:15:22.000Z</time>
      </trkpt>
      <trkpt lat="46.27237" lon="6.57371">
        <ele>1725.5</ele>
        <time>2023-01-21T12:15:23.000Z</time>
      </trkpt>
      <trkpt lat="46.27237" lon="6.57373">
        <ele>1725.6</ele>
        <time>2023-01-21T12:15:24.000Z</time>
      </trkpt>
      <trkpt lat="46.27235" lon="6.57374">
        <ele>1725.4</ele>
        <time>2023-01-21T12:15:25.000Z</time>
      </trkpt>
      <trkpt lat="46.27234" lon="6.57377">
        <ele>1725.2</ele>
        <time>2023-01-21T12:15:26.000Z</time>
      </trkpt>
      <trkpt lat="46.27234" lon="6.57378">
        <ele>1725</ele>
        <time>2023-01-21T12:15:27.000Z</time>
      </trkpt>
      <trkpt lat="46.27234" lon="6.57378">
        <ele>1724.7</ele>
        <time>2023-01-21T12:15:28.000Z</time>
      </trkpt>
      <trkpt lat="46.27234" lon="6.57379">
        <ele>1724.5</ele>
        <time>2023-01-21T12:15:29.000Z</time>
      </trkpt>
      <trkpt lat="46.27234" lon="6.57379">
        <ele>1724.2</ele>
        <time>2023-01-21T12:15:30.000Z</time>
      </trkpt>
      <trkpt lat="46.27234" lon="6.57379">
        <ele>1724.2</ele>
        <time>2023-01-21T12:15:31.000Z</time>
      </trkpt>
      <trkpt lat="46.27234" lon="6.57379">
        <ele>1724.2</ele>
        <time>2023-01-21T12:15:32.000Z</time>
      </trkpt>
      <trkpt lat="46.27234" lon="6.57379">
        <ele>1724.2</ele>
        <time>2023-01-21T12:15:33.000Z</time>
      </trkpt>
      <trkpt lat="46.27234" lon="6.57379">
        <ele>1724.2</ele>
        <time>2023-01-21T12:15:34.000Z</time>
      </trkpt>
      <trkpt lat="46.27234" lon="6.57379">
        <ele>1724.2</ele>
        <time>2023-01-21T12:15:35.000Z</time>
      </trkpt>
      <trkpt lat="46.27234" lon="6.57379">
        <ele>1724.2</ele>
        <time>2023-01-21T12:15:36.000Z</time>
      </trkpt>
      <trkpt lat="46.27234" lon="6.57379">
        <ele>1724.2</ele>
        <time>2023-01-21T12:15:37.000Z</time>
      </trkpt>
      <trkpt lat="46.27234" lon="6.57379">
        <ele>1724.2</ele>
        <time>2023-01-21T12:15:38.000Z</time>
      </trkpt>
      <trkpt lat="46.27234" lon="6.57379">
        <ele>1724.2</ele>
        <time>2023-01-21T12:15:39.000Z</time>
      </trkpt>
      <trkpt lat="46.27234" lon="6.57379">
        <ele>1724.2</ele>
        <time>2023-01-21T12:15:40.000Z</time>
      </trkpt>
      <trkpt lat="46.27234" lon="6.57379">
        <ele>1724.2</ele>
        <time>2023-01-21T12:15:41.000Z</time>
      </trkpt>
      <trkpt lat="46.27234" lon="6.57379">
        <ele>1724.2</ele>
        <time>2023-01-21T12:15:42.000Z</time>
      </trkpt>
      <trkpt lat="46.27234" lon="6.57379">
        <ele>1724.2</ele>
        <time>2023-01-21T12:15:43.000Z</time>
      </trkpt>
      <trkpt lat="46.27234" lon="6.57379">
        <ele>1724.2</ele>
        <time>2023-01-21T12:15:44.000Z</time>
      </trkpt>
      <trkpt lat="46.27234" lon="6.57379">
        <ele>1724.2</ele>
        <time>2023-01-21T12:15:45.000Z</time>
      </trkpt>
      <trkpt lat="46.27234" lon="6.57379">
        <ele>1724.2</ele>
        <time>2023-01-21T12:15:46.000Z</time>
      </trkpt>
      <trkpt lat="46.27234" lon="6.57379">
        <ele>1724.2</ele>
        <time>2023-01-21T12:15:47.000Z</time>
      </trkpt>
      <trkpt lat="46.27234" lon="6.57379">
        <ele>1724.2</ele>
        <time>2023-01-21T12:15:48.000Z</time>
      </trkpt>
      <trkpt lat="46.27234" lon="6.57379">
        <ele>1724.2</ele>
        <time>2023-01-21T12:15:49.000Z</time>
      </trkpt>
      <trkpt lat="46.27234" lon="6.57379">
        <ele>1724.2</ele>
        <time>2023-01-21T12:15:50.000Z</time>
      </trkpt>
      <trkpt lat="46.27234" lon="6.57379">
        <ele>1724.2</ele>
        <time>2023-01-21T12:15:51.000Z</time>
      </trkpt>
      <trkpt lat="46.27234" lon="6.57379">
        <ele>1724.2</ele>
        <time>2023-01-21T12:15:52.000Z</time>
      </trkpt>
      <trkpt lat="46.27234" lon="6.57379">
        <ele>1724.2</ele>
        <time>2023-01-21T12:15:53.000Z</time>
      </trkpt>
      <trkpt lat="46.27234" lon="6.57379">
        <ele>1724.2</ele>
        <time>2023-01-21T12:15:54.000Z</time>
      </trkpt>
      <trkpt lat="46.27234" lon="6.57379">
        <ele>1724.2</ele>
        <time>2023-01-21T12:15:55.000Z</time>
      </trkpt>
      <trkpt lat="46.27234" lon="6.57379">
        <ele>1724.2</ele>
        <time>2023-01-21T12:15:56.000Z</time>
      </trkpt>
      <trkpt lat="46.27234" lon="6.57379">
        <ele>1724.2</ele>
        <time>2023-01-21T12:15:57.000Z</time>
      </trkpt>
      <trkpt lat="46.27244" lon="6.57383">
        <ele>1724</ele>
        <time>2023-01-21T12:15:58.000Z</time>
      </trkpt>
      <trkpt lat="46.27244" lon="6.57384">
        <ele>1724.1</ele>
        <time>2023-01-21T12:15:59.000Z</time>
      </trkpt>
      <trkpt lat="46.27244" lon="6.57384">
        <ele>1724.1</ele>
        <time>2023-01-21T12:16:00.000Z</time>
      </trkpt>
      <trkpt lat="46.27245" lon="6.57384">
        <ele>1724.1</ele>
        <time>2023-01-21T12:16:01.000Z</time>
      </trkpt>
      <trkpt lat="46.27245" lon="6.57384">
        <ele>1724.1</ele>
        <time>2023-01-21T12:16:02.000Z</time>
      </trkpt>
      <trkpt lat="46.27245" lon="6.57384">
        <ele>1724.1</ele>
        <time>2023-01-21T12:16:03.000Z</time>
      </trkpt>
      <trkpt lat="46.27245" lon="6.57384">
        <ele>1724.1</ele>
        <time>2023-01-21T12:16:04.000Z</time>
      </trkpt>
      <trkpt lat="46.27245" lon="6.57384">
        <ele>1724.1</ele>
        <time>2023-01-21T12:16:05.000Z</time>
      </trkpt>
      <trkpt lat="46.27245" lon="6.57384">
        <ele>1724.1</ele>
        <time>2023-01-21T12:16:06.000Z</time>
      </trkpt>
      <trkpt lat="46.27245" lon="6.57384">
        <ele>1724.1</ele>
        <time>2023-01-21T12:16:07.000Z</time>
      </trkpt>
      <trkpt lat="46.27245" lon="6.57384">
        <ele>1724.1</ele>
        <time>2023-01-21T12:16:08.000Z</time>
      </trkpt>
      <trkpt lat="46.27245" lon="6.57384">
        <ele>1724.1</ele>
        <time>2023-01-21T12:16:09.000Z</time>
      </trkpt>
      <trkpt lat="46.27245" lon="6.57384">
        <ele>1724.1</ele>
        <time>2023-01-21T12:16:10.000Z</time>
      </trkpt>
      <trkpt lat="46.27245" lon="6.57384">
        <ele>1724.1</ele>
        <time>2023-01-21T12:16:11.000Z</time>
      </trkpt>
      <trkpt lat="46.27245" lon="6.57384">
        <ele>1724.1</ele>
        <time>2023-01-21T12:16:12.000Z</time>
      </trkpt>
      <trkpt lat="46.27245" lon="6.57384">
        <ele>1724.1</ele>
        <time>2023-01-21T12:16:13.000Z</time>
      </trkpt>
      <trkpt lat="46.27245" lon="6.57384">
        <ele>1724.1</ele>
        <time>2023-01-21T12:16:14.000Z</time>
      </trkpt>
      <trkpt lat="46.27253" lon="6.57391">
        <ele>1725.2</ele>
        <time>2023-01-21T12:16:15.000Z</time>
      </trkpt>
      <trkpt lat="46.27253" lon="6.57391">
        <ele>1725.2</ele>
        <time>2023-01-21T12:16:16.000Z</time>
      </trkpt>
      <trkpt lat="46.27253" lon="6.57393">
        <ele>1725.3</ele>
        <time>2023-01-21T12:16:17.000Z</time>
      </trkpt>
      <trkpt lat="46.27254" lon="6.57393">
        <ele>1725.4</ele>
        <time>2023-01-21T12:16:18.000Z</time>
      </trkpt>
      <trkpt lat="46.27254" lon="6.57393">
        <ele>1725.4</ele>
        <time>2023-01-21T12:16:19.000Z</time>
      </trkpt>
      <trkpt lat="46.27254" lon="6.57393">
        <ele>1725.4</ele>
        <time>2023-01-21T12:16:20.000Z</time>
      </trkpt>
      <trkpt lat="46.27254" lon="6.57393">
        <ele>1725.4</ele>
        <time>2023-01-21T12:16:21.000Z</time>
      </trkpt>
      <trkpt lat="46.27254" lon="6.57393">
        <ele>1725.4</ele>
        <time>2023-01-21T12:16:22.000Z</time>
      </trkpt>
      <trkpt lat="46.27254" lon="6.57393">
        <ele>1725.4</ele>
        <time>2023-01-21T12:16:23.000Z</time>
      </trkpt>
      <trkpt lat="46.27254" lon="6.57393">
        <ele>1725.4</ele>
        <time>2023-01-21T12:16:24.000Z</time>
      </trkpt>
      <trkpt lat="46.27254" lon="6.57393">
        <ele>1725.4</ele>
        <time>2023-01-21T12:16:25.000Z</time>
      </trkpt>
      <trkpt lat="46.27254" lon="6.57393">
        <ele>1725.4</ele>
        <time>2023-01-21T12:16:26.000Z</time>
      </trkpt>
      <trkpt lat="46.27254" lon="6.57393">
        <ele>1725.4</ele>
        <time>2023-01-21T12:16:27.000Z</time>
      </trkpt>
      <trkpt lat="46.27254" lon="6.57393">
        <ele>1725.4</ele>
        <time>2023-01-21T12:16:28.000Z</time>
      </trkpt>
      <trkpt lat="46.27254" lon="6.57393">
        <ele>1725.4</ele>
        <time>2023-01-21T12:16:29.000Z</time>
      </trkpt>
      <trkpt lat="46.27254" lon="6.57393">
        <ele>1725.4</ele>
        <time>2023-01-21T12:16:30.000Z</time>
      </trkpt>
      <trkpt lat="46.27254" lon="6.57393">
        <ele>1725.4</ele>
        <time>2023-01-21T12:16:31.000Z</time>
      </trkpt>
      <trkpt lat="46.27254" lon="6.57393">
        <ele>1725.4</ele>
        <time>2023-01-21T12:16:32.000Z</time>
      </trkpt>
      <trkpt lat="46.27254" lon="6.57393">
        <ele>1725.4</ele>
        <time>2023-01-21T12:16:33.000Z</time>
      </trkpt>
      <trkpt lat="46.27254" lon="6.57393">
        <ele>1725.4</ele>
        <time>2023-01-21T12:16:34.000Z</time>
      </trkpt>
      <trkpt lat="46.27254" lon="6.57393">
        <ele>1725.4</ele>
        <time>2023-01-21T12:16:35.000Z</time>
      </trkpt>
      <trkpt lat="46.27254" lon="6.57393">
        <ele>1725.4</ele>
        <time>2023-01-21T12:16:36.000Z</time>
      </trkpt>
      <trkpt lat="46.27254" lon="6.57393">
        <ele>1725.4</ele>
        <time>2023-01-21T12:16:37.000Z</time>
      </trkpt>
      <trkpt lat="46.27254" lon="6.57393">
        <ele>1725.4</ele>
        <time>2023-01-21T12:16:38.000Z</time>
      </trkpt>
      <trkpt lat="46.27254" lon="6.57393">
        <ele>1725.4</ele>
        <time>2023-01-21T12:16:39.000Z</time>
      </trkpt>
      <trkpt lat="46.27254" lon="6.57393">
        <ele>1725.4</ele>
        <time>2023-01-21T12:16:40.000Z</time>
      </trkpt>
      <trkpt lat="46.27254" lon="6.57393">
        <ele>1725.4</ele>
        <time>2023-01-21T12:16:41.000Z</time>
      </trkpt>
      <trkpt lat="46.27254" lon="6.57393">
        <ele>1725.4</ele>
        <time>2023-01-21T12:16:42.000Z</time>
      </trkpt>
      <trkpt lat="46.27254" lon="6.57393">
        <ele>1725.4</ele>
        <time>2023-01-21T12:16:43.000Z</time>
      </trkpt>
      <trkpt lat="46.27254" lon="6.57393">
        <ele>1725.4</ele>
        <time>2023-01-21T12:16:44.000Z</time>
      </trkpt>
      <trkpt lat="46.27254" lon="6.57393">
        <ele>1725.4</ele>
        <time>2023-01-21T12:16:45.000Z</time>
      </trkpt>
      <trkpt lat="46.27257" lon="6.57406">
        <ele>1726.8</ele>
        <time>2023-01-21T12:16:46.000Z</time>
      </trkpt>
      <trkpt lat="46.27257" lon="6.57406">
        <ele>1726.9</ele>
        <time>2023-01-21T12:16:47.000Z</time>
      </trkpt>
      <trkpt lat="46.27257" lon="6.57407">
        <ele>1727</ele>
        <time>2023-01-21T12:16:48.000Z</time>
      </trkpt>
      <trkpt lat="46.27257" lon="6.57407">
        <ele>1727.3</ele>
        <time>2023-01-21T12:16:49.000Z</time>
      </trkpt>
      <trkpt lat="46.27257" lon="6.57407">
        <ele>1727.3</ele>
        <time>2023-01-21T12:16:50.000Z</time>
      </trkpt>
      <trkpt lat="46.27257" lon="6.57407">
        <ele>1727.3</ele>
        <time>2023-01-21T12:16:51.000Z</time>
      </trkpt>
      <trkpt lat="46.27257" lon="6.57407">
        <ele>1727.3</ele>
        <time>2023-01-21T12:16:52.000Z</time>
      </trkpt>
      <trkpt lat="46.27257" lon="6.57407">
        <ele>1727.3</ele>
        <time>2023-01-21T12:16:53.000Z</time>
      </trkpt>
      <trkpt lat="46.27257" lon="6.57407">
        <ele>1727.3</ele>
        <time>2023-01-21T12:16:54.000Z</time>
      </trkpt>
      <trkpt lat="46.27257" lon="6.57407">
        <ele>1727.3</ele>
        <time>2023-01-21T12:16:55.000Z</time>
      </trkpt>
      <trkpt lat="46.27257" lon="6.57407">
        <ele>1727.3</ele>
        <time>2023-01-21T12:16:56.000Z</time>
      </trkpt>
      <trkpt lat="46.27257" lon="6.57407">
        <ele>1727.3</ele>
        <time>2023-01-21T12:16:57.000Z</time>
      </trkpt>
      <trkpt lat="46.27257" lon="6.57407">
        <ele>1727.3</ele>
        <time>2023-01-21T12:16:58.000Z</time>
      </trkpt>
      <trkpt lat="46.27257" lon="6.57407">
        <ele>1727.3</ele>
        <time>2023-01-21T12:16:59.000Z</time>
      </trkpt>
      <trkpt lat="46.27257" lon="6.57407">
        <ele>1727.3</ele>
        <time>2023-01-21T12:17:00.000Z</time>
      </trkpt>
      <trkpt lat="46.27257" lon="6.57407">
        <ele>1727.3</ele>
        <time>2023-01-21T12:17:01.000Z</time>
      </trkpt>
      <trkpt lat="46.27257" lon="6.57407">
        <ele>1727.3</ele>
        <time>2023-01-21T12:17:02.000Z</time>
      </trkpt>
      <trkpt lat="46.27257" lon="6.57407">
        <ele>1727.3</ele>
        <time>2023-01-21T12:17:03.000Z</time>
      </trkpt>
      <trkpt lat="46.27257" lon="6.57407">
        <ele>1727.3</ele>
        <time>2023-01-21T12:17:04.000Z</time>
      </trkpt>
      <trkpt lat="46.27257" lon="6.57407">
        <ele>1727.3</ele>
        <time>2023-01-21T12:17:05.000Z</time>
      </trkpt>
      <trkpt lat="46.27257" lon="6.57407">
        <ele>1727.3</ele>
        <time>2023-01-21T12:17:06.000Z</time>
      </trkpt>
      <trkpt lat="46.27257" lon="6.57407">
        <ele>1727.3</ele>
        <time>2023-01-21T12:17:07.000Z</time>
      </trkpt>
      <trkpt lat="46.27259" lon="6.57421">
        <ele>1730.4</ele>
        <time>2023-01-21T12:17:08.000Z</time>
      </trkpt>
      <trkpt lat="46.27259" lon="6.57421">
        <ele>1730.6</ele>
        <time>2023-01-21T12:17:09.000Z</time>
      </trkpt>
      <trkpt lat="46.27259" lon="6.57422">
        <ele>1730.7</ele>
        <time>2023-01-21T12:17:10.000Z</time>
      </trkpt>
      <trkpt lat="46.2726" lon="6.57422">
        <ele>1730.8</ele>
        <time>2023-01-21T12:17:11.000Z</time>
      </trkpt>
      <trkpt lat="46.2726" lon="6.57422">
        <ele>1730.8</ele>
        <time>2023-01-21T12:17:12.000Z</time>
      </trkpt>
      <trkpt lat="46.2726" lon="6.57422">
        <ele>1730.8</ele>
        <time>2023-01-21T12:17:13.000Z</time>
      </trkpt>
      <trkpt lat="46.2726" lon="6.57422">
        <ele>1730.8</ele>
        <time>2023-01-21T12:17:14.000Z</time>
      </trkpt>
      <trkpt lat="46.2726" lon="6.57422">
        <ele>1730.8</ele>
        <time>2023-01-21T12:17:15.000Z</time>
      </trkpt>
      <trkpt lat="46.2726" lon="6.57422">
        <ele>1730.8</ele>
        <time>2023-01-21T12:17:16.000Z</time>
      </trkpt>
      <trkpt lat="46.2726" lon="6.57422">
        <ele>1730.8</ele>
        <time>2023-01-21T12:17:17.000Z</time>
      </trkpt>
      <trkpt lat="46.2726" lon="6.57422">
        <ele>1730.8</ele>
        <time>2023-01-21T12:17:18.000Z</time>
      </trkpt>
      <trkpt lat="46.2726" lon="6.57422">
        <ele>1730.8</ele>
        <time>2023-01-21T12:17:19.000Z</time>
      </trkpt>
      <trkpt lat="46.2726" lon="6.57422">
        <ele>1730.8</ele>
        <time>2023-01-21T12:17:20.000Z</time>
      </trkpt>
      <trkpt lat="46.2726" lon="6.57422">
        <ele>1730.8</ele>
        <time>2023-01-21T12:17:21.000Z</time>
      </trkpt>
      <trkpt lat="46.2726" lon="6.57422">
        <ele>1730.8</ele>
        <time>2023-01-21T12:17:22.000Z</time>
      </trkpt>
      <trkpt lat="46.2726" lon="6.57422">
        <ele>1730.8</ele>
        <time>2023-01-21T12:17:23.000Z</time>
      </trkpt>
      <trkpt lat="46.2726" lon="6.57422">
        <ele>1730.8</ele>
        <time>2023-01-21T12:17:24.000Z</time>
      </trkpt>
      <trkpt lat="46.2726" lon="6.57422">
        <ele>1730.8</ele>
        <time>2023-01-21T12:17:25.000Z</time>
      </trkpt>
      <trkpt lat="46.2726" lon="6.57422">
        <ele>1730.8</ele>
        <time>2023-01-21T12:17:26.000Z</time>
      </trkpt>
      <trkpt lat="46.2726" lon="6.57422">
        <ele>1730.8</ele>
        <time>2023-01-21T12:17:27.000Z</time>
      </trkpt>
      <trkpt lat="46.2726" lon="6.57422">
        <ele>1730.8</ele>
        <time>2023-01-21T12:17:28.000Z</time>
      </trkpt>
      <trkpt lat="46.2726" lon="6.57422">
        <ele>1730.8</ele>
        <time>2023-01-21T12:17:29.000Z</time>
      </trkpt>
      <trkpt lat="46.2726" lon="6.57422">
        <ele>1730.8</ele>
        <time>2023-01-21T12:17:30.000Z</time>
      </trkpt>
      <trkpt lat="46.2726" lon="6.57422">
        <ele>1730.8</ele>
        <time>2023-01-21T12:17:31.000Z</time>
      </trkpt>
      <trkpt lat="46.2726" lon="6.57422">
        <ele>1730.8</ele>
        <time>2023-01-21T12:17:32.000Z</time>
      </trkpt>
      <trkpt lat="46.2726" lon="6.57422">
        <ele>1730.8</ele>
        <time>2023-01-21T12:17:33.000Z</time>
      </trkpt>
      <trkpt lat="46.2726" lon="6.57422">
        <ele>1730.8</ele>
        <time>2023-01-21T12:17:34.000Z</time>
      </trkpt>
      <trkpt lat="46.2726" lon="6.57422">
        <ele>1730.8</ele>
        <time>2023-01-21T12:17:35.000Z</time>
      </trkpt>
      <trkpt lat="46.2726" lon="6.57422">
        <ele>1730.8</ele>
        <time>2023-01-21T12:17:36.000Z</time>
      </trkpt>
      <trkpt lat="46.2726" lon="6.57422">
        <ele>1730.8</ele>
        <time>2023-01-21T12:17:37.000Z</time>
      </trkpt>
      <trkpt lat="46.27269" lon="6.57427">
        <ele>1733.9</ele>
        <time>2023-01-21T12:17:38.000Z</time>
      </trkpt>
      <trkpt lat="46.27269" lon="6.57427">
        <ele>1734</ele>
        <time>2023-01-21T12:17:39.000Z</time>
      </trkpt>
      <trkpt lat="46.27269" lon="6.57428">
        <ele>1734.2</ele>
        <time>2023-01-21T12:17:40.000Z</time>
      </trkpt>
      <trkpt lat="46.27269" lon="6.57429">
        <ele>1734.4</ele>
        <time>2023-01-21T12:17:41.000Z</time>
      </trkpt>
      <trkpt lat="46.27269" lon="6.57429">
        <ele>1734.4</ele>
        <time>2023-01-21T12:17:42.000Z</time>
      </trkpt>
      <trkpt lat="46.27269" lon="6.57429">
        <ele>1734.4</ele>
        <time>2023-01-21T12:17:43.000Z</time>
      </trkpt>
      <trkpt lat="46.27269" lon="6.57429">
        <ele>1734.4</ele>
        <time>2023-01-21T12:17:44.000Z</time>
      </trkpt>
      <trkpt lat="46.27269" lon="6.57429">
        <ele>1734.4</ele>
        <time>2023-01-21T12:17:45.000Z</time>
      </trkpt>
      <trkpt lat="46.27269" lon="6.57429">
        <ele>1734.4</ele>
        <time>2023-01-21T12:17:46.000Z</time>
      </trkpt>
      <trkpt lat="46.27269" lon="6.57429">
        <ele>1734.4</ele>
        <time>2023-01-21T12:17:47.000Z</time>
      </trkpt>
      <trkpt lat="46.27269" lon="6.57429">
        <ele>1734.4</ele>
        <time>2023-01-21T12:17:48.000Z</time>
      </trkpt>
      <trkpt lat="46.27269" lon="6.57429">
        <ele>1734.4</ele>
        <time>2023-01-21T12:17:49.000Z</time>
      </trkpt>
      <trkpt lat="46.27269" lon="6.57429">
        <ele>1734.4</ele>
        <time>2023-01-21T12:17:50.000Z</time>
      </trkpt>
      <trkpt lat="46.27269" lon="6.57429">
        <ele>1734.4</ele>
        <time>2023-01-21T12:17:51.000Z</time>
      </trkpt>
      <trkpt lat="46.27269" lon="6.57429">
        <ele>1734.4</ele>
        <time>2023-01-21T12:17:52.000Z</time>
      </trkpt>
      <trkpt lat="46.27269" lon="6.57429">
        <ele>1734.4</ele>
        <time>2023-01-21T12:17:53.000Z</time>
      </trkpt>
      <trkpt lat="46.27269" lon="6.57429">
        <ele>1734.4</ele>
        <time>2023-01-21T12:17:54.000Z</time>
      </trkpt>
      <trkpt lat="46.27269" lon="6.57429">
        <ele>1734.4</ele>
        <time>2023-01-21T12:17:55.000Z</time>
      </trkpt>
      <trkpt lat="46.27269" lon="6.57429">
        <ele>1734.4</ele>
        <time>2023-01-21T12:17:56.000Z</time>
      </trkpt>
      <trkpt lat="46.27269" lon="6.57429">
        <ele>1734.4</ele>
        <time>2023-01-21T12:17:57.000Z</time>
      </trkpt>
      <trkpt lat="46.27269" lon="6.57429">
        <ele>1734.4</ele>
        <time>2023-01-21T12:17:58.000Z</time>
      </trkpt>
      <trkpt lat="46.27269" lon="6.57429">
        <ele>1734.4</ele>
        <time>2023-01-21T12:17:59.000Z</time>
      </trkpt>
      <trkpt lat="46.27269" lon="6.57429">
        <ele>1734.4</ele>
        <time>2023-01-21T12:18:00.000Z</time>
      </trkpt>
      <trkpt lat="46.27263" lon="6.57439">
        <ele>1735.9</ele>
        <time>2023-01-21T12:18:01.000Z</time>
      </trkpt>
      <trkpt lat="46.27263" lon="6.5744">
        <ele>1736</ele>
        <time>2023-01-21T12:18:02.000Z</time>
      </trkpt>
      <trkpt lat="46.27263" lon="6.5744">
        <ele>1736.1</ele>
        <time>2023-01-21T12:18:03.000Z</time>
      </trkpt>
      <trkpt lat="46.27263" lon="6.57441">
        <ele>1736.2</ele>
        <time>2023-01-21T12:18:04.000Z</time>
      </trkpt>
      <trkpt lat="46.27263" lon="6.57441">
        <ele>1736.2</ele>
        <time>2023-01-21T12:18:05.000Z</time>
      </trkpt>
      <trkpt lat="46.27263" lon="6.57441">
        <ele>1736.2</ele>
        <time>2023-01-21T12:18:06.000Z</time>
      </trkpt>
      <trkpt lat="46.27263" lon="6.57441">
        <ele>1736.2</ele>
        <time>2023-01-21T12:18:07.000Z</time>
      </trkpt>
      <trkpt lat="46.27263" lon="6.57441">
        <ele>1736.2</ele>
        <time>2023-01-21T12:18:08.000Z</time>
      </trkpt>
      <trkpt lat="46.27263" lon="6.57441">
        <ele>1736.2</ele>
        <time>2023-01-21T12:18:09.000Z</time>
      </trkpt>
      <trkpt lat="46.27263" lon="6.57441">
        <ele>1736.2</ele>
        <time>2023-01-21T12:18:10.000Z</time>
      </trkpt>
      <trkpt lat="46.27263" lon="6.57441">
        <ele>1736.2</ele>
        <time>2023-01-21T12:18:11.000Z</time>
      </trkpt>
      <trkpt lat="46.27263" lon="6.57441">
        <ele>1736.2</ele>
        <time>2023-01-21T12:18:12.000Z</time>
      </trkpt>
      <trkpt lat="46.27263" lon="6.57441">
        <ele>1736.2</ele>
        <time>2023-01-21T12:18:13.000Z</time>
      </trkpt>
      <trkpt lat="46.27263" lon="6.57441">
        <ele>1736.2</ele>
        <time>2023-01-21T12:18:14.000Z</time>
      </trkpt>
      <trkpt lat="46.27263" lon="6.57441">
        <ele>1736.2</ele>
        <time>2023-01-21T12:18:15.000Z</time>
      </trkpt>
      <trkpt lat="46.27263" lon="6.57441">
        <ele>1736.2</ele>
        <time>2023-01-21T12:18:16.000Z</time>
      </trkpt>
      <trkpt lat="46.27263" lon="6.57441">
        <ele>1736.2</ele>
        <time>2023-01-21T12:18:17.000Z</time>
      </trkpt>
      <trkpt lat="46.27263" lon="6.57441">
        <ele>1736.2</ele>
        <time>2023-01-21T12:18:18.000Z</time>
      </trkpt>
      <trkpt lat="46.27263" lon="6.57441">
        <ele>1736.2</ele>
        <time>2023-01-21T12:18:19.000Z</time>
      </trkpt>
      <trkpt lat="46.27263" lon="6.57441">
        <ele>1736.2</ele>
        <time>2023-01-21T12:18:20.000Z</time>
      </trkpt>
      <trkpt lat="46.27263" lon="6.57441">
        <ele>1736.2</ele>
        <time>2023-01-21T12:18:21.000Z</time>
      </trkpt>
      <trkpt lat="46.27263" lon="6.57441">
        <ele>1736.2</ele>
        <time>2023-01-21T12:18:22.000Z</time>
      </trkpt>
      <trkpt lat="46.27263" lon="6.57441">
        <ele>1736.2</ele>
        <time>2023-01-21T12:18:23.000Z</time>
      </trkpt>
      <trkpt lat="46.27263" lon="6.57441">
        <ele>1736.2</ele>
        <time>2023-01-21T12:18:24.000Z</time>
      </trkpt>
      <trkpt lat="46.27263" lon="6.57441">
        <ele>1736.2</ele>
        <time>2023-01-21T12:18:25.000Z</time>
      </trkpt>
      <trkpt lat="46.27263" lon="6.57455">
        <ele>1738.9</ele>
        <time>2023-01-21T12:18:26.000Z</time>
      </trkpt>
      <trkpt lat="46.27263" lon="6.57456">
        <ele>1739</ele>
        <time>2023-01-21T12:18:27.000Z</time>
      </trkpt>
      <trkpt lat="46.27263" lon="6.57457">
        <ele>1739.2</ele>
        <time>2023-01-21T12:18:28.000Z</time>
      </trkpt>
      <trkpt lat="46.27262" lon="6.57458">
        <ele>1739.5</ele>
        <time>2023-01-21T12:18:29.000Z</time>
      </trkpt>
      <trkpt lat="46.27262" lon="6.57458">
        <ele>1739.5</ele>
        <time>2023-01-21T12:18:30.000Z</time>
      </trkpt>
      <trkpt lat="46.27262" lon="6.57458">
        <ele>1739.5</ele>
        <time>2023-01-21T12:18:31.000Z</time>
      </trkpt>
      <trkpt lat="46.27262" lon="6.57458">
        <ele>1739.5</ele>
        <time>2023-01-21T12:18:32.000Z</time>
      </trkpt>
      <trkpt lat="46.27262" lon="6.57458">
        <ele>1739.5</ele>
        <time>2023-01-21T12:18:33.000Z</time>
      </trkpt>
      <trkpt lat="46.27262" lon="6.57458">
        <ele>1739.5</ele>
        <time>2023-01-21T12:18:34.000Z</time>
      </trkpt>
      <trkpt lat="46.27262" lon="6.57458">
        <ele>1739.5</ele>
        <time>2023-01-21T12:18:35.000Z</time>
      </trkpt>
      <trkpt lat="46.27262" lon="6.57458">
        <ele>1739.5</ele>
        <time>2023-01-21T12:18:36.000Z</time>
      </trkpt>
      <trkpt lat="46.27262" lon="6.57458">
        <ele>1739.5</ele>
        <time>2023-01-21T12:18:37.000Z</time>
      </trkpt>
      <trkpt lat="46.27262" lon="6.57458">
        <ele>1739.5</ele>
        <time>2023-01-21T12:18:38.000Z</time>
      </trkpt>
      <trkpt lat="46.27262" lon="6.57458">
        <ele>1739.5</ele>
        <time>2023-01-21T12:18:39.000Z</time>
      </trkpt>
      <trkpt lat="46.27262" lon="6.57458">
        <ele>1739.5</ele>
        <time>2023-01-21T12:18:40.000Z</time>
      </trkpt>
      <trkpt lat="46.27262" lon="6.57458">
        <ele>1739.5</ele>
        <time>2023-01-21T12:18:41.000Z</time>
      </trkpt>
      <trkpt lat="46.27262" lon="6.57458">
        <ele>1739.5</ele>
        <time>2023-01-21T12:18:42.000Z</time>
      </trkpt>
      <trkpt lat="46.27262" lon="6.57458">
        <ele>1739.5</ele>
        <time>2023-01-21T12:18:43.000Z</time>
      </trkpt>
      <trkpt lat="46.27262" lon="6.57458">
        <ele>1739.5</ele>
        <time>2023-01-21T12:18:44.000Z</time>
      </trkpt>
      <trkpt lat="46.27262" lon="6.57458">
        <ele>1739.5</ele>
        <time>2023-01-21T12:18:45.000Z</time>
      </trkpt>
      <trkpt lat="46.27262" lon="6.57458">
        <ele>1739.5</ele>
        <time>2023-01-21T12:18:46.000Z</time>
      </trkpt>
      <trkpt lat="46.27262" lon="6.57458">
        <ele>1739.5</ele>
        <time>2023-01-21T12:18:47.000Z</time>
      </trkpt>
      <trkpt lat="46.27262" lon="6.57458">
        <ele>1739.5</ele>
        <time>2023-01-21T12:18:48.000Z</time>
      </trkpt>
      <trkpt lat="46.27262" lon="6.57458">
        <ele>1739.5</ele>
        <time>2023-01-21T12:18:49.000Z</time>
      </trkpt>
      <trkpt lat="46.27262" lon="6.57458">
        <ele>1739.5</ele>
        <time>2023-01-21T12:18:50.000Z</time>
      </trkpt>
      <trkpt lat="46.27262" lon="6.57458">
        <ele>1739.5</ele>
        <time>2023-01-21T12:18:51.000Z</time>
      </trkpt>
      <trkpt lat="46.27262" lon="6.57458">
        <ele>1739.5</ele>
        <time>2023-01-21T12:18:52.000Z</time>
      </trkpt>
      <trkpt lat="46.27262" lon="6.57458">
        <ele>1739.5</ele>
        <time>2023-01-21T12:18:53.000Z</time>
      </trkpt>
      <trkpt lat="46.27262" lon="6.57458">
        <ele>1739.5</ele>
        <time>2023-01-21T12:18:54.000Z</time>
      </trkpt>
      <trkpt lat="46.27262" lon="6.57458">
        <ele>1739.5</ele>
        <time>2023-01-21T12:18:55.000Z</time>
      </trkpt>
      <trkpt lat="46.27262" lon="6.57458">
        <ele>1739.5</ele>
        <time>2023-01-21T12:18:56.000Z</time>
      </trkpt>
      <trkpt lat="46.27262" lon="6.57458">
        <ele>1739.5</ele>
        <time>2023-01-21T12:18:57.000Z</time>
      </trkpt>
      <trkpt lat="46.27262" lon="6.57458">
        <ele>1739.5</ele>
        <time>2023-01-21T12:18:58.000Z</time>
      </trkpt>
      <trkpt lat="46.27262" lon="6.57458">
        <ele>1739.5</ele>
        <time>2023-01-21T12:18:59.000Z</time>
      </trkpt>
      <trkpt lat="46.27262" lon="6.57458">
        <ele>1739.5</ele>
        <time>2023-01-21T12:19:00.000Z</time>
      </trkpt>
      <trkpt lat="46.27262" lon="6.57458">
        <ele>1739.5</ele>
        <time>2023-01-21T12:19:01.000Z</time>
      </trkpt>
      <trkpt lat="46.27258" lon="6.57469">
        <ele>1745.1</ele>
        <time>2023-01-21T12:19:02.000Z</time>
      </trkpt>
      <trkpt lat="46.27258" lon="6.57469">
        <ele>1745.3</ele>
        <time>2023-01-21T12:19:03.000Z</time>
      </trkpt>
      <trkpt lat="46.27258" lon="6.57469">
        <ele>1745.4</ele>
        <time>2023-01-21T12:19:04.000Z</time>
      </trkpt>
      <trkpt lat="46.27258" lon="6.57469">
        <ele>1745.4</ele>
        <time>2023-01-21T12:19:05.000Z</time>
      </trkpt>
      <trkpt lat="46.27258" lon="6.57469">
        <ele>1745.4</ele>
        <time>2023-01-21T12:19:06.000Z</time>
      </trkpt>
      <trkpt lat="46.27258" lon="6.57469">
        <ele>1745.4</ele>
        <time>2023-01-21T12:19:07.000Z</time>
      </trkpt>
      <trkpt lat="46.27258" lon="6.57469">
        <ele>1745.4</ele>
        <time>2023-01-21T12:19:08.000Z</time>
      </trkpt>
      <trkpt lat="46.27258" lon="6.57469">
        <ele>1745.4</ele>
        <time>2023-01-21T12:19:09.000Z</time>
      </trkpt>
      <trkpt lat="46.27258" lon="6.57469">
        <ele>1745.4</ele>
        <time>2023-01-21T12:19:10.000Z</time>
      </trkpt>
      <trkpt lat="46.27258" lon="6.57469">
        <ele>1745.4</ele>
        <time>2023-01-21T12:19:11.000Z</time>
      </trkpt>
      <trkpt lat="46.27258" lon="6.57469">
        <ele>1745.4</ele>
        <time>2023-01-21T12:19:12.000Z</time>
      </trkpt>
      <trkpt lat="46.27258" lon="6.57469">
        <ele>1745.4</ele>
        <time>2023-01-21T12:19:13.000Z</time>
      </trkpt>
      <trkpt lat="46.27258" lon="6.57469">
        <ele>1745.4</ele>
        <time>2023-01-21T12:19:14.000Z</time>
      </trkpt>
      <trkpt lat="46.27258" lon="6.57469">
        <ele>1745.4</ele>
        <time>2023-01-21T12:19:15.000Z</time>
      </trkpt>
      <trkpt lat="46.27258" lon="6.57469">
        <ele>1745.4</ele>
        <time>2023-01-21T12:19:16.000Z</time>
      </trkpt>
      <trkpt lat="46.27258" lon="6.57469">
        <ele>1745.4</ele>
        <time>2023-01-21T12:19:17.000Z</time>
      </trkpt>
      <trkpt lat="46.27258" lon="6.57469">
        <ele>1745.4</ele>
        <time>2023-01-21T12:19:18.000Z</time>
      </trkpt>
      <trkpt lat="46.27258" lon="6.57469">
        <ele>1745.4</ele>
        <time>2023-01-21T12:19:19.000Z</time>
      </trkpt>
      <trkpt lat="46.27258" lon="6.57469">
        <ele>1745.4</ele>
        <time>2023-01-21T12:19:20.000Z</time>
      </trkpt>
      <trkpt lat="46.27258" lon="6.57469">
        <ele>1745.4</ele>
        <time>2023-01-21T12:19:21.000Z</time>
      </trkpt>
      <trkpt lat="46.27258" lon="6.57469">
        <ele>1745.4</ele>
        <time>2023-01-21T12:19:22.000Z</time>
      </trkpt>
      <trkpt lat="46.27258" lon="6.57469">
        <ele>1748.4</ele>
        <time>2023-01-21T12:19:23.000Z</time>
      </trkpt>
      <trkpt lat="46.27258" lon="6.57469">
        <ele>1748.4</ele>
        <time>2023-01-21T12:19:24.000Z</time>
      </trkpt>
      <trkpt lat="46.27258" lon="6.57469">
        <ele>1748.4</ele>
        <time>2023-01-21T12:19:25.000Z</time>
      </trkpt>
      <trkpt lat="46.27258" lon="6.57469">
        <ele>1748.4</ele>
        <time>2023-01-21T12:19:26.000Z</time>
      </trkpt>
      <trkpt lat="46.27258" lon="6.57469">
        <ele>1748.4</ele>
        <time>2023-01-21T12:19:27.000Z</time>
      </trkpt>
      <trkpt lat="46.27258" lon="6.57469">
        <ele>1748.4</ele>
        <time>2023-01-21T12:19:28.000Z</time>
      </trkpt>
      <trkpt lat="46.27258" lon="6.57469">
        <ele>1748.4</ele>
        <time>2023-01-21T12:19:29.000Z</time>
      </trkpt>
      <trkpt lat="46.27258" lon="6.57469">
        <ele>1748.4</ele>
        <time>2023-01-21T12:19:30.000Z</time>
      </trkpt>
      <trkpt lat="46.27258" lon="6.57469">
        <ele>1748.4</ele>
        <time>2023-01-21T12:19:31.000Z</time>
      </trkpt>
      <trkpt lat="46.27258" lon="6.57469">
        <ele>1748.4</ele>
        <time>2023-01-21T12:19:32.000Z</time>
      </trkpt>
      <trkpt lat="46.27258" lon="6.57469">
        <ele>1748.4</ele>
        <time>2023-01-21T12:19:33.000Z</time>
      </trkpt>
      <trkpt lat="46.27258" lon="6.57469">
        <ele>1748.4</ele>
        <time>2023-01-21T12:19:34.000Z</time>
      </trkpt>
      <trkpt lat="46.27258" lon="6.57469">
        <ele>1748.4</ele>
        <time>2023-01-21T12:19:35.000Z</time>
      </trkpt>
      <trkpt lat="46.27258" lon="6.57469">
        <ele>1748.4</ele>
        <time>2023-01-21T12:19:36.000Z</time>
      </trkpt>
      <trkpt lat="46.27258" lon="6.57469">
        <ele>1748.4</ele>
        <time>2023-01-21T12:19:37.000Z</time>
      </trkpt>
      <trkpt lat="46.27258" lon="6.57469">
        <ele>1748.4</ele>
        <time>2023-01-21T12:19:38.000Z</time>
      </trkpt>
      <trkpt lat="46.27258" lon="6.57469">
        <ele>1748.4</ele>
        <time>2023-01-21T12:19:39.000Z</time>
      </trkpt>
      <trkpt lat="46.27258" lon="6.57469">
        <ele>1748.4</ele>
        <time>2023-01-21T12:19:40.000Z</time>
      </trkpt>
      <trkpt lat="46.27258" lon="6.57469">
        <ele>1748.4</ele>
        <time>2023-01-21T12:19:41.000Z</time>
      </trkpt>
      <trkpt lat="46.27258" lon="6.57469">
        <ele>1748.4</ele>
        <time>2023-01-21T12:19:42.000Z</time>
      </trkpt>
      <trkpt lat="46.27258" lon="6.57469">
        <ele>1748.4</ele>
        <time>2023-01-21T12:19:43.000Z</time>
      </trkpt>
      <trkpt lat="46.27258" lon="6.57469">
        <ele>1748.4</ele>
        <time>2023-01-21T12:19:44.000Z</time>
      </trkpt>
      <trkpt lat="46.27258" lon="6.57469">
        <ele>1748.4</ele>
        <time>2023-01-21T12:19:45.000Z</time>
      </trkpt>
      <trkpt lat="46.27258" lon="6.57469">
        <ele>1748.4</ele>
        <time>2023-01-21T12:19:46.000Z</time>
      </trkpt>
      <trkpt lat="46.27258" lon="6.57469">
        <ele>1748.4</ele>
        <time>2023-01-21T12:19:47.000Z</time>
      </trkpt>
      <trkpt lat="46.27258" lon="6.57469">
        <ele>1748.4</ele>
        <time>2023-01-21T12:19:48.000Z</time>
      </trkpt>
      <trkpt lat="46.27258" lon="6.57469">
        <ele>1748.4</ele>
        <time>2023-01-21T12:19:49.000Z</time>
      </trkpt>
      <trkpt lat="46.27258" lon="6.57469">
        <ele>1748.4</ele>
        <time>2023-01-21T12:19:50.000Z</time>
      </trkpt>
      <trkpt lat="46.27258" lon="6.57469">
        <ele>1748.4</ele>
        <time>2023-01-21T12:19:51.000Z</time>
      </trkpt>
      <trkpt lat="46.27258" lon="6.57469">
        <ele>1748.4</ele>
        <time>2023-01-21T12:19:52.000Z</time>
      </trkpt>
      <trkpt lat="46.27258" lon="6.57469">
        <ele>1748.4</ele>
        <time>2023-01-21T12:19:53.000Z</time>
      </trkpt>
      <trkpt lat="46.27258" lon="6.57469">
        <ele>1748.4</ele>
        <time>2023-01-21T12:19:54.000Z</time>
      </trkpt>
      <trkpt lat="46.27258" lon="6.57469">
        <ele>1751.4</ele>
        <time>2023-01-21T12:19:55.000Z</time>
      </trkpt>
      <trkpt lat="46.27258" lon="6.57469">
        <ele>1751.4</ele>
        <time>2023-01-21T12:19:56.000Z</time>
      </trkpt>
      <trkpt lat="46.27258" lon="6.57469">
        <ele>1751.4</ele>
        <time>2023-01-21T12:19:57.000Z</time>
      </trkpt>
      <trkpt lat="46.27258" lon="6.57469">
        <ele>1751.4</ele>
        <time>2023-01-21T12:19:58.000Z</time>
      </trkpt>
      <trkpt lat="46.27258" lon="6.57469">
        <ele>1751.4</ele>
        <time>2023-01-21T12:19:59.000Z</time>
      </trkpt>
      <trkpt lat="46.27252" lon="6.5748">
        <ele>1752.9</ele>
        <time>2023-01-21T12:20:00.000Z</time>
      </trkpt>
      <trkpt lat="46.27252" lon="6.57481">
        <ele>1753.1</ele>
        <time>2023-01-21T12:20:01.000Z</time>
      </trkpt>
      <trkpt lat="46.27251" lon="6.57482">
        <ele>1753.4</ele>
        <time>2023-01-21T12:20:02.000Z</time>
      </trkpt>
      <trkpt lat="46.27251" lon="6.57484">
        <ele>1753.6</ele>
        <time>2023-01-21T12:20:03.000Z</time>
      </trkpt>
      <trkpt lat="46.27251" lon="6.57484">
        <ele>1753.6</ele>
        <time>2023-01-21T12:20:04.000Z</time>
      </trkpt>
      <trkpt lat="46.27251" lon="6.57484">
        <ele>1753.6</ele>
        <time>2023-01-21T12:20:05.000Z</time>
      </trkpt>
      <trkpt lat="46.27251" lon="6.57484">
        <ele>1753.6</ele>
        <time>2023-01-21T12:20:06.000Z</time>
      </trkpt>
      <trkpt lat="46.27251" lon="6.57484">
        <ele>1753.6</ele>
        <time>2023-01-21T12:20:07.000Z</time>
      </trkpt>
      <trkpt lat="46.27251" lon="6.57484">
        <ele>1753.6</ele>
        <time>2023-01-21T12:20:08.000Z</time>
      </trkpt>
      <trkpt lat="46.27251" lon="6.57484">
        <ele>1753.6</ele>
        <time>2023-01-21T12:20:09.000Z</time>
      </trkpt>
      <trkpt lat="46.27251" lon="6.57484">
        <ele>1753.6</ele>
        <time>2023-01-21T12:20:10.000Z</time>
      </trkpt>
      <trkpt lat="46.27251" lon="6.57484">
        <ele>1753.6</ele>
        <time>2023-01-21T12:20:11.000Z</time>
      </trkpt>
      <trkpt lat="46.27251" lon="6.57484">
        <ele>1753.6</ele>
        <time>2023-01-21T12:20:12.000Z</time>
      </trkpt>
      <trkpt lat="46.27251" lon="6.57484">
        <ele>1753.6</ele>
        <time>2023-01-21T12:20:13.000Z</time>
      </trkpt>
      <trkpt lat="46.27246" lon="6.57494">
        <ele>1755.6</ele>
        <time>2023-01-21T12:20:14.000Z</time>
      </trkpt>
      <trkpt lat="46.27245" lon="6.57496">
        <ele>1755.6</ele>
        <time>2023-01-21T12:20:15.000Z</time>
      </trkpt>
      <trkpt lat="46.27245" lon="6.57496">
        <ele>1755.6</ele>
        <time>2023-01-21T12:20:16.000Z</time>
      </trkpt>
      <trkpt lat="46.27245" lon="6.57497">
        <ele>1755.6</ele>
        <time>2023-01-21T12:20:17.000Z</time>
      </trkpt>
      <trkpt lat="46.27245" lon="6.57497">
        <ele>1755.6</ele>
        <time>2023-01-21T12:20:18.000Z</time>
      </trkpt>
      <trkpt lat="46.27245" lon="6.57497">
        <ele>1755.6</ele>
        <time>2023-01-21T12:20:19.000Z</time>
      </trkpt>
      <trkpt lat="46.27245" lon="6.57497">
        <ele>1755.6</ele>
        <time>2023-01-21T12:20:20.000Z</time>
      </trkpt>
      <trkpt lat="46.27245" lon="6.57497">
        <ele>1755.6</ele>
        <time>2023-01-21T12:20:21.000Z</time>
      </trkpt>
      <trkpt lat="46.27245" lon="6.57497">
        <ele>1755.6</ele>
        <time>2023-01-21T12:20:22.000Z</time>
      </trkpt>
      <trkpt lat="46.27245" lon="6.57497">
        <ele>1755.6</ele>
        <time>2023-01-21T12:20:23.000Z</time>
      </trkpt>
      <trkpt lat="46.27245" lon="6.57497">
        <ele>1755.6</ele>
        <time>2023-01-21T12:20:24.000Z</time>
      </trkpt>
      <trkpt lat="46.27245" lon="6.57497">
        <ele>1755.6</ele>
        <time>2023-01-21T12:20:25.000Z</time>
      </trkpt>
      <trkpt lat="46.27245" lon="6.57497">
        <ele>1755.6</ele>
        <time>2023-01-21T12:20:26.000Z</time>
      </trkpt>
      <trkpt lat="46.27245" lon="6.57497">
        <ele>1755.6</ele>
        <time>2023-01-21T12:20:27.000Z</time>
      </trkpt>
      <trkpt lat="46.27245" lon="6.57497">
        <ele>1755.6</ele>
        <time>2023-01-21T12:20:28.000Z</time>
      </trkpt>
      <trkpt lat="46.27245" lon="6.57497">
        <ele>1755.6</ele>
        <time>2023-01-21T12:20:29.000Z</time>
      </trkpt>
      <trkpt lat="46.27245" lon="6.57497">
        <ele>1755.6</ele>
        <time>2023-01-21T12:20:30.000Z</time>
      </trkpt>
      <trkpt lat="46.27245" lon="6.57497">
        <ele>1755.6</ele>
        <time>2023-01-21T12:20:31.000Z</time>
      </trkpt>
      <trkpt lat="46.27245" lon="6.57497">
        <ele>1755.6</ele>
        <time>2023-01-21T12:20:32.000Z</time>
      </trkpt>
      <trkpt lat="46.27245" lon="6.57497">
        <ele>1755.6</ele>
        <time>2023-01-21T12:20:33.000Z</time>
      </trkpt>
      <trkpt lat="46.27245" lon="6.57497">
        <ele>1755.6</ele>
        <time>2023-01-21T12:20:34.000Z</time>
      </trkpt>
      <trkpt lat="46.27245" lon="6.57497">
        <ele>1755.6</ele>
        <time>2023-01-21T12:20:35.000Z</time>
      </trkpt>
      <trkpt lat="46.27245" lon="6.57497">
        <ele>1755.6</ele>
        <time>2023-01-21T12:20:36.000Z</time>
      </trkpt>
      <trkpt lat="46.2724" lon="6.57508">
        <ele>1756.8</ele>
        <time>2023-01-21T12:20:37.000Z</time>
      </trkpt>
      <trkpt lat="46.27239" lon="6.57509">
        <ele>1756.7</ele>
        <time>2023-01-21T12:20:38.000Z</time>
      </trkpt>
      <trkpt lat="46.27239" lon="6.57509">
        <ele>1756.8</ele>
        <time>2023-01-21T12:20:39.000Z</time>
      </trkpt>
      <trkpt lat="46.27239" lon="6.5751">
        <ele>1756.9</ele>
        <time>2023-01-21T12:20:40.000Z</time>
      </trkpt>
      <trkpt lat="46.27239" lon="6.5751">
        <ele>1756.9</ele>
        <time>2023-01-21T12:20:41.000Z</time>
      </trkpt>
      <trkpt lat="46.27239" lon="6.5751">
        <ele>1756.9</ele>
        <time>2023-01-21T12:20:42.000Z</time>
      </trkpt>
      <trkpt lat="46.27239" lon="6.5751">
        <ele>1756.9</ele>
        <time>2023-01-21T12:20:43.000Z</time>
      </trkpt>
      <trkpt lat="46.27239" lon="6.5751">
        <ele>1756.9</ele>
        <time>2023-01-21T12:20:44.000Z</time>
      </trkpt>
      <trkpt lat="46.27239" lon="6.5751">
        <ele>1756.9</ele>
        <time>2023-01-21T12:20:45.000Z</time>
      </trkpt>
      <trkpt lat="46.27239" lon="6.5751">
        <ele>1756.9</ele>
        <time>2023-01-21T12:20:46.000Z</time>
      </trkpt>
      <trkpt lat="46.27239" lon="6.5751">
        <ele>1756.9</ele>
        <time>2023-01-21T12:20:47.000Z</time>
      </trkpt>
      <trkpt lat="46.27233" lon="6.57516">
        <ele>1757.8</ele>
        <time>2023-01-21T12:20:48.000Z</time>
      </trkpt>
      <trkpt lat="46.27233" lon="6.57516">
        <ele>1757.9</ele>
        <time>2023-01-21T12:20:49.000Z</time>
      </trkpt>
      <trkpt lat="46.27232" lon="6.57517">
        <ele>1757.8</ele>
        <time>2023-01-21T12:20:50.000Z</time>
      </trkpt>
      <trkpt lat="46.27231" lon="6.57518">
        <ele>1757.6</ele>
        <time>2023-01-21T12:20:51.000Z</time>
      </trkpt>
      <trkpt lat="46.27231" lon="6.57518">
        <ele>1757.6</ele>
        <time>2023-01-21T12:20:52.000Z</time>
      </trkpt>
      <trkpt lat="46.27231" lon="6.57518">
        <ele>1757.6</ele>
        <time>2023-01-21T12:20:53.000Z</time>
      </trkpt>
      <trkpt lat="46.27231" lon="6.57518">
        <ele>1757.6</ele>
        <time>2023-01-21T12:20:54.000Z</time>
      </trkpt>
      <trkpt lat="46.27231" lon="6.57518">
        <ele>1757.6</ele>
        <time>2023-01-21T12:20:55.000Z</time>
      </trkpt>
      <trkpt lat="46.27231" lon="6.57518">
        <ele>1757.6</ele>
        <time>2023-01-21T12:20:56.000Z</time>
      </trkpt>
      <trkpt lat="46.27231" lon="6.57518">
        <ele>1757.6</ele>
        <time>2023-01-21T12:20:57.000Z</time>
      </trkpt>
      <trkpt lat="46.27231" lon="6.57518">
        <ele>1757.6</ele>
        <time>2023-01-21T12:20:58.000Z</time>
      </trkpt>
      <trkpt lat="46.27231" lon="6.57518">
        <ele>1757.6</ele>
        <time>2023-01-21T12:20:59.000Z</time>
      </trkpt>
      <trkpt lat="46.27231" lon="6.57518">
        <ele>1757.6</ele>
        <time>2023-01-21T12:21:00.000Z</time>
      </trkpt>
      <trkpt lat="46.27231" lon="6.57518">
        <ele>1757.6</ele>
        <time>2023-01-21T12:21:01.000Z</time>
      </trkpt>
      <trkpt lat="46.27231" lon="6.57518">
        <ele>1757.6</ele>
        <time>2023-01-21T12:21:02.000Z</time>
      </trkpt>
      <trkpt lat="46.27231" lon="6.57518">
        <ele>1757.6</ele>
        <time>2023-01-21T12:21:03.000Z</time>
      </trkpt>
      <trkpt lat="46.27231" lon="6.57518">
        <ele>1757.6</ele>
        <time>2023-01-21T12:21:04.000Z</time>
      </trkpt>
      <trkpt lat="46.27231" lon="6.57518">
        <ele>1757.6</ele>
        <time>2023-01-21T12:21:05.000Z</time>
      </trkpt>
      <trkpt lat="46.27231" lon="6.57518">
        <ele>1757.6</ele>
        <time>2023-01-21T12:21:06.000Z</time>
      </trkpt>
      <trkpt lat="46.27231" lon="6.57518">
        <ele>1757.6</ele>
        <time>2023-01-21T12:21:07.000Z</time>
      </trkpt>
      <trkpt lat="46.27224" lon="6.57526">
        <ele>1758.6</ele>
        <time>2023-01-21T12:21:08.000Z</time>
      </trkpt>
      <trkpt lat="46.27223" lon="6.57526">
        <ele>1758.8</ele>
        <time>2023-01-21T12:21:09.000Z</time>
      </trkpt>
      <trkpt lat="46.27222" lon="6.57526">
        <ele>1759.1</ele>
        <time>2023-01-21T12:21:10.000Z</time>
      </trkpt>
      <trkpt lat="46.27222" lon="6.57526">
        <ele>1759.4</ele>
        <time>2023-01-21T12:21:11.000Z</time>
      </trkpt>
      <trkpt lat="46.27222" lon="6.57526">
        <ele>1759.4</ele>
        <time>2023-01-21T12:21:12.000Z</time>
      </trkpt>
      <trkpt lat="46.27222" lon="6.57526">
        <ele>1759.4</ele>
        <time>2023-01-21T12:21:13.000Z</time>
      </trkpt>
      <trkpt lat="46.27222" lon="6.57526">
        <ele>1759.4</ele>
        <time>2023-01-21T12:21:14.000Z</time>
      </trkpt>
      <trkpt lat="46.27222" lon="6.57526">
        <ele>1759.4</ele>
        <time>2023-01-21T12:21:15.000Z</time>
      </trkpt>
      <trkpt lat="46.27222" lon="6.57526">
        <ele>1759.4</ele>
        <time>2023-01-21T12:21:16.000Z</time>
      </trkpt>
      <trkpt lat="46.27222" lon="6.57526">
        <ele>1759.4</ele>
        <time>2023-01-21T12:21:17.000Z</time>
      </trkpt>
      <trkpt lat="46.27222" lon="6.57526">
        <ele>1759.4</ele>
        <time>2023-01-21T12:21:18.000Z</time>
      </trkpt>
      <trkpt lat="46.27222" lon="6.57526">
        <ele>1759.4</ele>
        <time>2023-01-21T12:21:19.000Z</time>
      </trkpt>
      <trkpt lat="46.27222" lon="6.57526">
        <ele>1759.4</ele>
        <time>2023-01-21T12:21:20.000Z</time>
      </trkpt>
      <trkpt lat="46.27222" lon="6.57526">
        <ele>1759.4</ele>
        <time>2023-01-21T12:21:21.000Z</time>
      </trkpt>
      <trkpt lat="46.27222" lon="6.57526">
        <ele>1759.4</ele>
        <time>2023-01-21T12:21:22.000Z</time>
      </trkpt>
      <trkpt lat="46.27222" lon="6.57526">
        <ele>1759.4</ele>
        <time>2023-01-21T12:21:23.000Z</time>
      </trkpt>
      <trkpt lat="46.27222" lon="6.57526">
        <ele>1759.4</ele>
        <time>2023-01-21T12:21:24.000Z</time>
      </trkpt>
      <trkpt lat="46.27222" lon="6.57526">
        <ele>1759.4</ele>
        <time>2023-01-21T12:21:25.000Z</time>
      </trkpt>
      <trkpt lat="46.27222" lon="6.57526">
        <ele>1759.4</ele>
        <time>2023-01-21T12:21:26.000Z</time>
      </trkpt>
      <trkpt lat="46.27222" lon="6.57526">
        <ele>1759.4</ele>
        <time>2023-01-21T12:21:27.000Z</time>
      </trkpt>
      <trkpt lat="46.27222" lon="6.57526">
        <ele>1759.4</ele>
        <time>2023-01-21T12:21:28.000Z</time>
      </trkpt>
      <trkpt lat="46.27222" lon="6.57526">
        <ele>1759.4</ele>
        <time>2023-01-21T12:21:29.000Z</time>
      </trkpt>
      <trkpt lat="46.27222" lon="6.57526">
        <ele>1759.4</ele>
        <time>2023-01-21T12:21:30.000Z</time>
      </trkpt>
      <trkpt lat="46.27222" lon="6.57526">
        <ele>1759.4</ele>
        <time>2023-01-21T12:21:31.000Z</time>
      </trkpt>
      <trkpt lat="46.27222" lon="6.57526">
        <ele>1759.4</ele>
        <time>2023-01-21T12:21:32.000Z</time>
      </trkpt>
      <trkpt lat="46.27214" lon="6.57533">
        <ele>1761.1</ele>
        <time>2023-01-21T12:21:33.000Z</time>
      </trkpt>
      <trkpt lat="46.27211" lon="6.57535">
        <ele>1761</ele>
        <time>2023-01-21T12:21:34.000Z</time>
      </trkpt>
      <trkpt lat="46.27211" lon="6.57536">
        <ele>1761</ele>
        <time>2023-01-21T12:21:35.000Z</time>
      </trkpt>
      <trkpt lat="46.2721" lon="6.57536">
        <ele>1761</ele>
        <time>2023-01-21T12:21:36.000Z</time>
      </trkpt>
      <trkpt lat="46.2721" lon="6.57536">
        <ele>1761</ele>
        <time>2023-01-21T12:21:37.000Z</time>
      </trkpt>
      <trkpt lat="46.2721" lon="6.57536">
        <ele>1761</ele>
        <time>2023-01-21T12:21:38.000Z</time>
      </trkpt>
      <trkpt lat="46.2721" lon="6.57536">
        <ele>1761</ele>
        <time>2023-01-21T12:21:39.000Z</time>
      </trkpt>
      <trkpt lat="46.2721" lon="6.57536">
        <ele>1761</ele>
        <time>2023-01-21T12:21:40.000Z</time>
      </trkpt>
      <trkpt lat="46.2721" lon="6.57536">
        <ele>1761</ele>
        <time>2023-01-21T12:21:41.000Z</time>
      </trkpt>
      <trkpt lat="46.2721" lon="6.57536">
        <ele>1761</ele>
        <time>2023-01-21T12:21:42.000Z</time>
      </trkpt>
      <trkpt lat="46.2721" lon="6.57536">
        <ele>1761</ele>
        <time>2023-01-21T12:21:43.000Z</time>
      </trkpt>
      <trkpt lat="46.2721" lon="6.57536">
        <ele>1761</ele>
        <time>2023-01-21T12:21:44.000Z</time>
      </trkpt>
      <trkpt lat="46.2721" lon="6.57536">
        <ele>1761</ele>
        <time>2023-01-21T12:21:45.000Z</time>
      </trkpt>
      <trkpt lat="46.27203" lon="6.57544">
        <ele>1760.6</ele>
        <time>2023-01-21T12:21:46.000Z</time>
      </trkpt>
      <trkpt lat="46.27202" lon="6.57545">
        <ele>1760.5</ele>
        <time>2023-01-21T12:21:47.000Z</time>
      </trkpt>
      <trkpt lat="46.27201" lon="6.57545">
        <ele>1760.4</ele>
        <time>2023-01-21T12:21:48.000Z</time>
      </trkpt>
      <trkpt lat="46.272" lon="6.57544">
        <ele>1760.3</ele>
        <time>2023-01-21T12:21:49.000Z</time>
      </trkpt>
      <trkpt lat="46.272" lon="6.57544">
        <ele>1760.3</ele>
        <time>2023-01-21T12:21:50.000Z</time>
      </trkpt>
      <trkpt lat="46.272" lon="6.57544">
        <ele>1760.3</ele>
        <time>2023-01-21T12:21:51.000Z</time>
      </trkpt>
      <trkpt lat="46.272" lon="6.57544">
        <ele>1760.3</ele>
        <time>2023-01-21T12:21:52.000Z</time>
      </trkpt>
      <trkpt lat="46.272" lon="6.57544">
        <ele>1760.3</ele>
        <time>2023-01-21T12:21:53.000Z</time>
      </trkpt>
      <trkpt lat="46.272" lon="6.57544">
        <ele>1760.3</ele>
        <time>2023-01-21T12:21:54.000Z</time>
      </trkpt>
      <trkpt lat="46.272" lon="6.57544">
        <ele>1760.3</ele>
        <time>2023-01-21T12:21:55.000Z</time>
      </trkpt>
      <trkpt lat="46.272" lon="6.57544">
        <ele>1760.3</ele>
        <time>2023-01-21T12:21:56.000Z</time>
      </trkpt>
      <trkpt lat="46.272" lon="6.57544">
        <ele>1760.3</ele>
        <time>2023-01-21T12:21:57.000Z</time>
      </trkpt>
      <trkpt lat="46.272" lon="6.57544">
        <ele>1760.3</ele>
        <time>2023-01-21T12:21:58.000Z</time>
      </trkpt>
      <trkpt lat="46.272" lon="6.57544">
        <ele>1760.3</ele>
        <time>2023-01-21T12:21:59.000Z</time>
      </trkpt>
      <trkpt lat="46.272" lon="6.57544">
        <ele>1760.3</ele>
        <time>2023-01-21T12:22:00.000Z</time>
      </trkpt>
      <trkpt lat="46.27192" lon="6.5755">
        <ele>1758.6</ele>
        <time>2023-01-21T12:22:00.000Z</time>
      </trkpt>
      <trkpt lat="46.27191" lon="6.57551">
        <ele>1758.6</ele>
        <time>2023-01-21T12:22:02.000Z</time>
      </trkpt>
      <trkpt lat="46.2719" lon="6.57549">
        <ele>1758.9</ele>
        <time>2023-01-21T12:22:03.000Z</time>
      </trkpt>
      <trkpt lat="46.27189" lon="6.57549">
        <ele>1759</ele>
        <time>2023-01-21T12:22:04.000Z</time>
      </trkpt>
      <trkpt lat="46.27189" lon="6.57549">
        <ele>1759</ele>
        <time>2023-01-21T12:22:05.000Z</time>
      </trkpt>
      <trkpt lat="46.27189" lon="6.57549">
        <ele>1759</ele>
        <time>2023-01-21T12:22:06.000Z</time>
      </trkpt>
      <trkpt lat="46.27189" lon="6.57549">
        <ele>1759</ele>
        <time>2023-01-21T12:22:07.000Z</time>
      </trkpt>
      <trkpt lat="46.27183" lon="6.57545">
        <ele>1759.6</ele>
        <time>2023-01-21T12:22:08.000Z</time>
      </trkpt>
      <trkpt lat="46.27182" lon="6.57545">
        <ele>1759.9</ele>
        <time>2023-01-21T12:22:09.000Z</time>
      </trkpt>
      <trkpt lat="46.27181" lon="6.57544">
        <ele>1759.8</ele>
        <time>2023-01-21T12:22:10.000Z</time>
      </trkpt>
      <trkpt lat="46.2718" lon="6.57544">
        <ele>1760</ele>
        <time>2023-01-21T12:22:11.000Z</time>
      </trkpt>
      <trkpt lat="46.27179" lon="6.57543">
        <ele>1759.9</ele>
        <time>2023-01-21T12:22:12.000Z</time>
      </trkpt>
      <trkpt lat="46.27178" lon="6.57543">
        <ele>1760</ele>
        <time>2023-01-21T12:22:13.000Z</time>
      </trkpt>
      <trkpt lat="46.27178" lon="6.57542">
        <ele>1760</ele>
        <time>2023-01-21T12:22:14.000Z</time>
      </trkpt>
      <trkpt lat="46.27177" lon="6.57542">
        <ele>1760</ele>
        <time>2023-01-21T12:22:15.000Z</time>
      </trkpt>
      <trkpt lat="46.27177" lon="6.57542">
        <ele>1760</ele>
        <time>2023-01-21T12:22:16.000Z</time>
      </trkpt>
      <trkpt lat="46.27177" lon="6.57542">
        <ele>1760</ele>
        <time>2023-01-21T12:22:17.000Z</time>
      </trkpt>
      <trkpt lat="46.27177" lon="6.57542">
        <ele>1760</ele>
        <time>2023-01-21T12:22:18.000Z</time>
      </trkpt>
      <trkpt lat="46.27177" lon="6.57542">
        <ele>1760</ele>
        <time>2023-01-21T12:22:19.000Z</time>
      </trkpt>
      <trkpt lat="46.27177" lon="6.57542">
        <ele>1760</ele>
        <time>2023-01-21T12:22:20.000Z</time>
      </trkpt>
      <trkpt lat="46.27177" lon="6.57542">
        <ele>1760</ele>
        <time>2023-01-21T12:22:21.000Z</time>
      </trkpt>
      <trkpt lat="46.27177" lon="6.57542">
        <ele>1760</ele>
        <time>2023-01-21T12:22:22.000Z</time>
      </trkpt>
      <trkpt lat="46.27177" lon="6.57542">
        <ele>1760</ele>
        <time>2023-01-21T12:22:23.000Z</time>
      </trkpt>
      <trkpt lat="46.27177" lon="6.57542">
        <ele>1760</ele>
        <time>2023-01-21T12:22:24.000Z</time>
      </trkpt>
      <trkpt lat="46.27177" lon="6.57542">
        <ele>1760</ele>
        <time>2023-01-21T12:22:25.000Z</time>
      </trkpt>
      <trkpt lat="46.27177" lon="6.57542">
        <ele>1760</ele>
        <time>2023-01-21T12:22:26.000Z</time>
      </trkpt>
      <trkpt lat="46.27177" lon="6.57542">
        <ele>1760</ele>
        <time>2023-01-21T12:22:27.000Z</time>
      </trkpt>
      <trkpt lat="46.27167" lon="6.57537">
        <ele>1761.9</ele>
        <time>2023-01-21T12:22:28.000Z</time>
      </trkpt>
      <trkpt lat="46.27167" lon="6.57538">
        <ele>1761.9</ele>
        <time>2023-01-21T12:22:29.000Z</time>
      </trkpt>
      <trkpt lat="46.27166" lon="6.57538">
        <ele>1761.8</ele>
        <time>2023-01-21T12:22:30.000Z</time>
      </trkpt>
      <trkpt lat="46.27165" lon="6.57538">
        <ele>1761.9</ele>
        <time>2023-01-21T12:22:31.000Z</time>
      </trkpt>
      <trkpt lat="46.27165" lon="6.57538">
        <ele>1761.9</ele>
        <time>2023-01-21T12:22:32.000Z</time>
      </trkpt>
      <trkpt lat="46.27165" lon="6.57538">
        <ele>1761.9</ele>
        <time>2023-01-21T12:22:33.000Z</time>
      </trkpt>
      <trkpt lat="46.27165" lon="6.57538">
        <ele>1761.9</ele>
        <time>2023-01-21T12:22:34.000Z</time>
      </trkpt>
      <trkpt lat="46.27165" lon="6.57538">
        <ele>1761.9</ele>
        <time>2023-01-21T12:22:35.000Z</time>
      </trkpt>
      <trkpt lat="46.27165" lon="6.57538">
        <ele>1761.9</ele>
        <time>2023-01-21T12:22:36.000Z</time>
      </trkpt>
      <trkpt lat="46.27165" lon="6.57538">
        <ele>1761.9</ele>
        <time>2023-01-21T12:22:37.000Z</time>
      </trkpt>
      <trkpt lat="46.27165" lon="6.57538">
        <ele>1761.9</ele>
        <time>2023-01-21T12:22:38.000Z</time>
      </trkpt>
      <trkpt lat="46.27165" lon="6.57538">
        <ele>1761.9</ele>
        <time>2023-01-21T12:22:39.000Z</time>
      </trkpt>
      <trkpt lat="46.27165" lon="6.57538">
        <ele>1761.9</ele>
        <time>2023-01-21T12:22:40.000Z</time>
      </trkpt>
      <trkpt lat="46.27165" lon="6.57538">
        <ele>1761.9</ele>
        <time>2023-01-21T12:22:41.000Z</time>
      </trkpt>
      <trkpt lat="46.27165" lon="6.57538">
        <ele>1761.9</ele>
        <time>2023-01-21T12:22:42.000Z</time>
      </trkpt>
      <trkpt lat="46.27165" lon="6.57538">
        <ele>1761.9</ele>
        <time>2023-01-21T12:22:43.000Z</time>
      </trkpt>
      <trkpt lat="46.27165" lon="6.57538">
        <ele>1761.9</ele>
        <time>2023-01-21T12:22:44.000Z</time>
      </trkpt>
      <trkpt lat="46.27165" lon="6.57538">
        <ele>1761.9</ele>
        <time>2023-01-21T12:22:45.000Z</time>
      </trkpt>
      <trkpt lat="46.27165" lon="6.57538">
        <ele>1761.9</ele>
        <time>2023-01-21T12:22:46.000Z</time>
      </trkpt>
      <trkpt lat="46.27165" lon="6.57538">
        <ele>1761.9</ele>
        <time>2023-01-21T12:22:47.000Z</time>
      </trkpt>
      <trkpt lat="46.27165" lon="6.57538">
        <ele>1761.9</ele>
        <time>2023-01-21T12:22:48.000Z</time>
      </trkpt>
      <trkpt lat="46.27165" lon="6.57538">
        <ele>1761.9</ele>
        <time>2023-01-21T12:22:49.000Z</time>
      </trkpt>
      <trkpt lat="46.27165" lon="6.57538">
        <ele>1761.9</ele>
        <time>2023-01-21T12:22:50.000Z</time>
      </trkpt>
      <trkpt lat="46.27165" lon="6.57538">
        <ele>1761.9</ele>
        <time>2023-01-21T12:22:51.000Z</time>
      </trkpt>
      <trkpt lat="46.27165" lon="6.57538">
        <ele>1761.9</ele>
        <time>2023-01-21T12:22:52.000Z</time>
      </trkpt>
      <trkpt lat="46.27165" lon="6.57538">
        <ele>1761.9</ele>
        <time>2023-01-21T12:22:53.000Z</time>
      </trkpt>
      <trkpt lat="46.27165" lon="6.57538">
        <ele>1761.9</ele>
        <time>2023-01-21T12:22:54.000Z</time>
      </trkpt>
      <trkpt lat="46.27157" lon="6.57543">
        <ele>1761.5</ele>
        <time>2023-01-21T12:22:55.000Z</time>
      </trkpt>
      <trkpt lat="46.27156" lon="6.57543">
        <ele>1761.5</ele>
        <time>2023-01-21T12:22:56.000Z</time>
      </trkpt>
      <trkpt lat="46.27156" lon="6.57543">
        <ele>1761.5</ele>
        <time>2023-01-21T12:22:57.000Z</time>
      </trkpt>
      <trkpt lat="46.27156" lon="6.57544">
        <ele>1761.5</ele>
        <time>2023-01-21T12:22:58.000Z</time>
      </trkpt>
      <trkpt lat="46.27156" lon="6.57544">
        <ele>1761.5</ele>
        <time>2023-01-21T12:22:59.000Z</time>
      </trkpt>
      <trkpt lat="46.27156" lon="6.57544">
        <ele>1761.5</ele>
        <time>2023-01-21T12:23:00.000Z</time>
      </trkpt>
      <trkpt lat="46.27156" lon="6.57544">
        <ele>1761.5</ele>
        <time>2023-01-21T12:23:01.000Z</time>
      </trkpt>
      <trkpt lat="46.27156" lon="6.57544">
        <ele>1761.5</ele>
        <time>2023-01-21T12:23:02.000Z</time>
      </trkpt>
      <trkpt lat="46.27156" lon="6.57544">
        <ele>1761.5</ele>
        <time>2023-01-21T12:23:03.000Z</time>
      </trkpt>
      <trkpt lat="46.27156" lon="6.57544">
        <ele>1761.5</ele>
        <time>2023-01-21T12:23:04.000Z</time>
      </trkpt>
      <trkpt lat="46.27156" lon="6.57544">
        <ele>1761.5</ele>
        <time>2023-01-21T12:23:05.000Z</time>
      </trkpt>
      <trkpt lat="46.27156" lon="6.57544">
        <ele>1761.5</ele>
        <time>2023-01-21T12:23:06.000Z</time>
      </trkpt>
      <trkpt lat="46.27156" lon="6.57544">
        <ele>1761.5</ele>
        <time>2023-01-21T12:23:07.000Z</time>
      </trkpt>
      <trkpt lat="46.27156" lon="6.57544">
        <ele>1761.5</ele>
        <time>2023-01-21T12:23:08.000Z</time>
      </trkpt>
      <trkpt lat="46.27156" lon="6.57544">
        <ele>1761.5</ele>
        <time>2023-01-21T12:23:09.000Z</time>
      </trkpt>
      <trkpt lat="46.27156" lon="6.57544">
        <ele>1761.5</ele>
        <time>2023-01-21T12:23:10.000Z</time>
      </trkpt>
      <trkpt lat="46.27156" lon="6.57544">
        <ele>1761.5</ele>
        <time>2023-01-21T12:23:11.000Z</time>
      </trkpt>
      <trkpt lat="46.27156" lon="6.57544">
        <ele>1761.5</ele>
        <time>2023-01-21T12:23:12.000Z</time>
      </trkpt>
      <trkpt lat="46.27156" lon="6.57544">
        <ele>1761.5</ele>
        <time>2023-01-21T12:23:13.000Z</time>
      </trkpt>
      <trkpt lat="46.27156" lon="6.57544">
        <ele>1761.5</ele>
        <time>2023-01-21T12:23:14.000Z</time>
      </trkpt>
      <trkpt lat="46.27156" lon="6.57544">
        <ele>1761.5</ele>
        <time>2023-01-21T12:23:15.000Z</time>
      </trkpt>
      <trkpt lat="46.27156" lon="6.57544">
        <ele>1761.5</ele>
        <time>2023-01-21T12:23:16.000Z</time>
      </trkpt>
      <trkpt lat="46.2715" lon="6.57555">
        <ele>1763.6</ele>
        <time>2023-01-21T12:23:17.000Z</time>
      </trkpt>
      <trkpt lat="46.27151" lon="6.57555">
        <ele>1763.6</ele>
        <time>2023-01-21T12:23:18.000Z</time>
      </trkpt>
      <trkpt lat="46.27151" lon="6.57556">
        <ele>1764</ele>
        <time>2023-01-21T12:23:19.000Z</time>
      </trkpt>
      <trkpt lat="46.27151" lon="6.57556">
        <ele>1764</ele>
        <time>2023-01-21T12:23:20.000Z</time>
      </trkpt>
      <trkpt lat="46.27151" lon="6.57556">
        <ele>1764</ele>
        <time>2023-01-21T12:23:21.000Z</time>
      </trkpt>
      <trkpt lat="46.27151" lon="6.57556">
        <ele>1764</ele>
        <time>2023-01-21T12:23:22.000Z</time>
      </trkpt>
      <trkpt lat="46.27151" lon="6.57556">
        <ele>1764</ele>
        <time>2023-01-21T12:23:23.000Z</time>
      </trkpt>
      <trkpt lat="46.27151" lon="6.57556">
        <ele>1764</ele>
        <time>2023-01-21T12:23:24.000Z</time>
      </trkpt>
      <trkpt lat="46.27151" lon="6.57556">
        <ele>1764</ele>
        <time>2023-01-21T12:23:25.000Z</time>
      </trkpt>
      <trkpt lat="46.27151" lon="6.57556">
        <ele>1764</ele>
        <time>2023-01-21T12:23:26.000Z</time>
      </trkpt>
      <trkpt lat="46.27151" lon="6.57556">
        <ele>1764</ele>
        <time>2023-01-21T12:23:27.000Z</time>
      </trkpt>
      <trkpt lat="46.27151" lon="6.57556">
        <ele>1764</ele>
        <time>2023-01-21T12:23:28.000Z</time>
      </trkpt>
      <trkpt lat="46.27151" lon="6.57556">
        <ele>1764</ele>
        <time>2023-01-21T12:23:29.000Z</time>
      </trkpt>
      <trkpt lat="46.27151" lon="6.57556">
        <ele>1764</ele>
        <time>2023-01-21T12:23:30.000Z</time>
      </trkpt>
      <trkpt lat="46.27151" lon="6.57556">
        <ele>1764</ele>
        <time>2023-01-21T12:23:31.000Z</time>
      </trkpt>
      <trkpt lat="46.27151" lon="6.57556">
        <ele>1764</ele>
        <time>2023-01-21T12:23:32.000Z</time>
      </trkpt>
      <trkpt lat="46.27151" lon="6.57556">
        <ele>1764</ele>
        <time>2023-01-21T12:23:33.000Z</time>
      </trkpt>
      <trkpt lat="46.27151" lon="6.57556">
        <ele>1764</ele>
        <time>2023-01-21T12:23:34.000Z</time>
      </trkpt>
      <trkpt lat="46.27151" lon="6.57556">
        <ele>1764</ele>
        <time>2023-01-21T12:23:35.000Z</time>
      </trkpt>
      <trkpt lat="46.27145" lon="6.57567">
        <ele>1766.1</ele>
        <time>2023-01-21T12:23:36.000Z</time>
      </trkpt>
      <trkpt lat="46.27145" lon="6.57567">
        <ele>1766.4</ele>
        <time>2023-01-21T12:23:37.000Z</time>
      </trkpt>
      <trkpt lat="46.27144" lon="6.57568">
        <ele>1766.6</ele>
        <time>2023-01-21T12:23:38.000Z</time>
      </trkpt>
      <trkpt lat="46.27144" lon="6.57568">
        <ele>1766.8</ele>
        <time>2023-01-21T12:23:39.000Z</time>
      </trkpt>
      <trkpt lat="46.27144" lon="6.57568">
        <ele>1766.8</ele>
        <time>2023-01-21T12:23:40.000Z</time>
      </trkpt>
      <trkpt lat="46.27144" lon="6.57568">
        <ele>1766.8</ele>
        <time>2023-01-21T12:23:41.000Z</time>
      </trkpt>
      <trkpt lat="46.27144" lon="6.57568">
        <ele>1766.8</ele>
        <time>2023-01-21T12:23:42.000Z</time>
      </trkpt>
      <trkpt lat="46.27144" lon="6.57568">
        <ele>1766.8</ele>
        <time>2023-01-21T12:23:43.000Z</time>
      </trkpt>
      <trkpt lat="46.27144" lon="6.57568">
        <ele>1766.8</ele>
        <time>2023-01-21T12:23:44.000Z</time>
      </trkpt>
      <trkpt lat="46.27144" lon="6.57568">
        <ele>1766.8</ele>
        <time>2023-01-21T12:23:45.000Z</time>
      </trkpt>
      <trkpt lat="46.27144" lon="6.57568">
        <ele>1766.8</ele>
        <time>2023-01-21T12:23:46.000Z</time>
      </trkpt>
      <trkpt lat="46.27144" lon="6.57568">
        <ele>1766.8</ele>
        <time>2023-01-21T12:23:47.000Z</time>
      </trkpt>
      <trkpt lat="46.27144" lon="6.57568">
        <ele>1766.8</ele>
        <time>2023-01-21T12:23:48.000Z</time>
      </trkpt>
      <trkpt lat="46.27144" lon="6.57568">
        <ele>1766.8</ele>
        <time>2023-01-21T12:23:49.000Z</time>
      </trkpt>
      <trkpt lat="46.27144" lon="6.57568">
        <ele>1766.8</ele>
        <time>2023-01-21T12:23:50.000Z</time>
      </trkpt>
      <trkpt lat="46.27144" lon="6.57568">
        <ele>1766.8</ele>
        <time>2023-01-21T12:23:51.000Z</time>
      </trkpt>
      <trkpt lat="46.27144" lon="6.57568">
        <ele>1766.8</ele>
        <time>2023-01-21T12:23:52.000Z</time>
      </trkpt>
      <trkpt lat="46.27144" lon="6.57568">
        <ele>1766.8</ele>
        <time>2023-01-21T12:23:53.000Z</time>
      </trkpt>
      <trkpt lat="46.27144" lon="6.57568">
        <ele>1766.8</ele>
        <time>2023-01-21T12:23:54.000Z</time>
      </trkpt>
      <trkpt lat="46.27144" lon="6.57568">
        <ele>1766.8</ele>
        <time>2023-01-21T12:23:55.000Z</time>
      </trkpt>
      <trkpt lat="46.27144" lon="6.57568">
        <ele>1766.8</ele>
        <time>2023-01-21T12:23:56.000Z</time>
      </trkpt>
      <trkpt lat="46.27144" lon="6.57568">
        <ele>1766.8</ele>
        <time>2023-01-21T12:23:57.000Z</time>
      </trkpt>
      <trkpt lat="46.27144" lon="6.57568">
        <ele>1766.8</ele>
        <time>2023-01-21T12:23:58.000Z</time>
      </trkpt>
      <trkpt lat="46.27144" lon="6.57568">
        <ele>1766.8</ele>
        <time>2023-01-21T12:23:59.000Z</time>
      </trkpt>
      <trkpt lat="46.27144" lon="6.57568">
        <ele>1766.8</ele>
        <time>2023-01-21T12:24:00.000Z</time>
      </trkpt>
      <trkpt lat="46.27144" lon="6.57568">
        <ele>1766.8</ele>
        <time>2023-01-21T12:24:01.000Z</time>
      </trkpt>
      <trkpt lat="46.27144" lon="6.57568">
        <ele>1766.8</ele>
        <time>2023-01-21T12:24:02.000Z</time>
      </trkpt>
      <trkpt lat="46.27138" lon="6.57578">
        <ele>1768.9</ele>
        <time>2023-01-21T12:24:03.000Z</time>
      </trkpt>
      <trkpt lat="46.27138" lon="6.57579">
        <ele>1768.9</ele>
        <time>2023-01-21T12:24:04.000Z</time>
      </trkpt>
      <trkpt lat="46.27138" lon="6.57579">
        <ele>1769</ele>
        <time>2023-01-21T12:24:05.000Z</time>
      </trkpt>
      <trkpt lat="46.27137" lon="6.57579">
        <ele>1769.1</ele>
        <time>2023-01-21T12:24:06.000Z</time>
      </trkpt>
      <trkpt lat="46.27137" lon="6.57579">
        <ele>1769.1</ele>
        <time>2023-01-21T12:24:07.000Z</time>
      </trkpt>
      <trkpt lat="46.27137" lon="6.57579">
        <ele>1769.1</ele>
        <time>2023-01-21T12:24:08.000Z</time>
      </trkpt>
      <trkpt lat="46.27137" lon="6.57579">
        <ele>1769.1</ele>
        <time>2023-01-21T12:24:09.000Z</time>
      </trkpt>
      <trkpt lat="46.27137" lon="6.57579">
        <ele>1769.1</ele>
        <time>2023-01-21T12:24:10.000Z</time>
      </trkpt>
      <trkpt lat="46.27137" lon="6.57579">
        <ele>1769.1</ele>
        <time>2023-01-21T12:24:11.000Z</time>
      </trkpt>
      <trkpt lat="46.27137" lon="6.57579">
        <ele>1769.1</ele>
        <time>2023-01-21T12:24:12.000Z</time>
      </trkpt>
      <trkpt lat="46.27137" lon="6.57579">
        <ele>1769.1</ele>
        <time>2023-01-21T12:24:13.000Z</time>
      </trkpt>
      <trkpt lat="46.27137" lon="6.57579">
        <ele>1769.1</ele>
        <time>2023-01-21T12:24:14.000Z</time>
      </trkpt>
      <trkpt lat="46.27137" lon="6.57579">
        <ele>1769.1</ele>
        <time>2023-01-21T12:24:15.000Z</time>
      </trkpt>
      <trkpt lat="46.27137" lon="6.57579">
        <ele>1769.1</ele>
        <time>2023-01-21T12:24:16.000Z</time>
      </trkpt>
      <trkpt lat="46.27137" lon="6.57579">
        <ele>1769.1</ele>
        <time>2023-01-21T12:24:17.000Z</time>
      </trkpt>
      <trkpt lat="46.27137" lon="6.57579">
        <ele>1769.1</ele>
        <time>2023-01-21T12:24:18.000Z</time>
      </trkpt>
      <trkpt lat="46.27137" lon="6.57579">
        <ele>1769.1</ele>
        <time>2023-01-21T12:24:19.000Z</time>
      </trkpt>
      <trkpt lat="46.27137" lon="6.57579">
        <ele>1769.1</ele>
        <time>2023-01-21T12:24:20.000Z</time>
      </trkpt>
      <trkpt lat="46.27137" lon="6.57579">
        <ele>1769.1</ele>
        <time>2023-01-21T12:24:21.000Z</time>
      </trkpt>
      <trkpt lat="46.27137" lon="6.57579">
        <ele>1769.1</ele>
        <time>2023-01-21T12:24:22.000Z</time>
      </trkpt>
      <trkpt lat="46.27137" lon="6.57579">
        <ele>1769.1</ele>
        <time>2023-01-21T12:24:23.000Z</time>
      </trkpt>
      <trkpt lat="46.27137" lon="6.57579">
        <ele>1769.1</ele>
        <time>2023-01-21T12:24:24.000Z</time>
      </trkpt>
      <trkpt lat="46.27137" lon="6.57579">
        <ele>1769.1</ele>
        <time>2023-01-21T12:24:25.000Z</time>
      </trkpt>
      <trkpt lat="46.27137" lon="6.57579">
        <ele>1769.1</ele>
        <time>2023-01-21T12:24:26.000Z</time>
      </trkpt>
      <trkpt lat="46.27137" lon="6.57579">
        <ele>1769.1</ele>
        <time>2023-01-21T12:24:27.000Z</time>
      </trkpt>
      <trkpt lat="46.27137" lon="6.57579">
        <ele>1769.1</ele>
        <time>2023-01-21T12:24:28.000Z</time>
      </trkpt>
      <trkpt lat="46.27137" lon="6.57579">
        <ele>1769.1</ele>
        <time>2023-01-21T12:24:29.000Z</time>
      </trkpt>
      <trkpt lat="46.27137" lon="6.57579">
        <ele>1769.1</ele>
        <time>2023-01-21T12:24:30.000Z</time>
      </trkpt>
      <trkpt lat="46.27137" lon="6.57579">
        <ele>1769.1</ele>
        <time>2023-01-21T12:24:31.000Z</time>
      </trkpt>
      <trkpt lat="46.27137" lon="6.57579">
        <ele>1769.1</ele>
        <time>2023-01-21T12:24:32.000Z</time>
      </trkpt>
      <trkpt lat="46.27137" lon="6.57579">
        <ele>1769.1</ele>
        <time>2023-01-21T12:24:33.000Z</time>
      </trkpt>
      <trkpt lat="46.27137" lon="6.57579">
        <ele>1774.8</ele>
        <time>2023-01-21T12:24:34.000Z</time>
      </trkpt>
      <trkpt lat="46.27137" lon="6.57579">
        <ele>1774.8</ele>
        <time>2023-01-21T12:24:35.000Z</time>
      </trkpt>
      <trkpt lat="46.27137" lon="6.57579">
        <ele>1774.8</ele>
        <time>2023-01-21T12:24:36.000Z</time>
      </trkpt>
      <trkpt lat="46.27137" lon="6.57579">
        <ele>1774.8</ele>
        <time>2023-01-21T12:24:37.000Z</time>
      </trkpt>
      <trkpt lat="46.27137" lon="6.57579">
        <ele>1774.8</ele>
        <time>2023-01-21T12:24:38.000Z</time>
      </trkpt>
      <trkpt lat="46.27137" lon="6.57579">
        <ele>1774.8</ele>
        <time>2023-01-21T12:24:39.000Z</time>
      </trkpt>
      <trkpt lat="46.27137" lon="6.57579">
        <ele>1774.8</ele>
        <time>2023-01-21T12:24:40.000Z</time>
      </trkpt>
      <trkpt lat="46.27137" lon="6.57579">
        <ele>1774.8</ele>
        <time>2023-01-21T12:24:41.000Z</time>
      </trkpt>
      <trkpt lat="46.27137" lon="6.57579">
        <ele>1774.8</ele>
        <time>2023-01-21T12:24:42.000Z</time>
      </trkpt>
      <trkpt lat="46.27137" lon="6.57579">
        <ele>1774.8</ele>
        <time>2023-01-21T12:24:43.000Z</time>
      </trkpt>
      <trkpt lat="46.27137" lon="6.57579">
        <ele>1774.8</ele>
        <time>2023-01-21T12:24:44.000Z</time>
      </trkpt>
      <trkpt lat="46.27137" lon="6.57579">
        <ele>1774.8</ele>
        <time>2023-01-21T12:24:45.000Z</time>
      </trkpt>
      <trkpt lat="46.27137" lon="6.57579">
        <ele>1774.8</ele>
        <time>2023-01-21T12:24:46.000Z</time>
      </trkpt>
      <trkpt lat="46.27137" lon="6.57579">
        <ele>1774.8</ele>
        <time>2023-01-21T12:24:47.000Z</time>
      </trkpt>
      <trkpt lat="46.27137" lon="6.57579">
        <ele>1774.8</ele>
        <time>2023-01-21T12:24:48.000Z</time>
      </trkpt>
      <trkpt lat="46.27137" lon="6.57579">
        <ele>1774.8</ele>
        <time>2023-01-21T12:24:49.000Z</time>
      </trkpt>
      <trkpt lat="46.27137" lon="6.57579">
        <ele>1774.8</ele>
        <time>2023-01-21T12:24:50.000Z</time>
      </trkpt>
      <trkpt lat="46.27137" lon="6.57579">
        <ele>1774.8</ele>
        <time>2023-01-21T12:24:51.000Z</time>
      </trkpt>
      <trkpt lat="46.27137" lon="6.57579">
        <ele>1774.8</ele>
        <time>2023-01-21T12:24:52.000Z</time>
      </trkpt>
      <trkpt lat="46.27137" lon="6.57579">
        <ele>1774.8</ele>
        <time>2023-01-21T12:24:53.000Z</time>
      </trkpt>
      <trkpt lat="46.27137" lon="6.57579">
        <ele>1774.8</ele>
        <time>2023-01-21T12:24:54.000Z</time>
      </trkpt>
      <trkpt lat="46.27137" lon="6.57579">
        <ele>1774.8</ele>
        <time>2023-01-21T12:24:55.000Z</time>
      </trkpt>
      <trkpt lat="46.27137" lon="6.57579">
        <ele>1774.8</ele>
        <time>2023-01-21T12:24:56.000Z</time>
      </trkpt>
      <trkpt lat="46.27137" lon="6.57579">
        <ele>1777.9</ele>
        <time>2023-01-21T12:24:57.000Z</time>
      </trkpt>
      <trkpt lat="46.27136" lon="6.57592">
        <ele>1778</ele>
        <time>2023-01-21T12:24:58.000Z</time>
      </trkpt>
      <trkpt lat="46.27136" lon="6.57593">
        <ele>1778</ele>
        <time>2023-01-21T12:24:59.000Z</time>
      </trkpt>
      <trkpt lat="46.27136" lon="6.57594">
        <ele>1778.1</ele>
        <time>2023-01-21T12:25:00.000Z</time>
      </trkpt>
      <trkpt lat="46.27136" lon="6.57595">
        <ele>1778.1</ele>
        <time>2023-01-21T12:25:01.000Z</time>
      </trkpt>
      <trkpt lat="46.27136" lon="6.57595">
        <ele>1778.1</ele>
        <time>2023-01-21T12:25:02.000Z</time>
      </trkpt>
      <trkpt lat="46.27136" lon="6.57595">
        <ele>1778.1</ele>
        <time>2023-01-21T12:25:03.000Z</time>
      </trkpt>
      <trkpt lat="46.27136" lon="6.57595">
        <ele>1778.1</ele>
        <time>2023-01-21T12:25:04.000Z</time>
      </trkpt>
      <trkpt lat="46.27136" lon="6.57595">
        <ele>1778.1</ele>
        <time>2023-01-21T12:25:05.000Z</time>
      </trkpt>
      <trkpt lat="46.27136" lon="6.57595">
        <ele>1778.1</ele>
        <time>2023-01-21T12:25:06.000Z</time>
      </trkpt>
      <trkpt lat="46.27136" lon="6.57595">
        <ele>1778.1</ele>
        <time>2023-01-21T12:25:07.000Z</time>
      </trkpt>
      <trkpt lat="46.27136" lon="6.57595">
        <ele>1778.1</ele>
        <time>2023-01-21T12:25:08.000Z</time>
      </trkpt>
      <trkpt lat="46.27136" lon="6.57595">
        <ele>1778.1</ele>
        <time>2023-01-21T12:25:09.000Z</time>
      </trkpt>
      <trkpt lat="46.27136" lon="6.57595">
        <ele>1778.1</ele>
        <time>2023-01-21T12:25:10.000Z</time>
      </trkpt>
      <trkpt lat="46.27136" lon="6.57595">
        <ele>1778.1</ele>
        <time>2023-01-21T12:25:11.000Z</time>
      </trkpt>
      <trkpt lat="46.27136" lon="6.57595">
        <ele>1778.1</ele>
        <time>2023-01-21T12:25:12.000Z</time>
      </trkpt>
      <trkpt lat="46.27136" lon="6.57595">
        <ele>1778.1</ele>
        <time>2023-01-21T12:25:13.000Z</time>
      </trkpt>
      <trkpt lat="46.27136" lon="6.57595">
        <ele>1778.1</ele>
        <time>2023-01-21T12:25:14.000Z</time>
      </trkpt>
      <trkpt lat="46.27136" lon="6.57595">
        <ele>1778.1</ele>
        <time>2023-01-21T12:25:15.000Z</time>
      </trkpt>
      <trkpt lat="46.27136" lon="6.57595">
        <ele>1778.1</ele>
        <time>2023-01-21T12:25:16.000Z</time>
      </trkpt>
      <trkpt lat="46.27136" lon="6.57595">
        <ele>1778.1</ele>
        <time>2023-01-21T12:25:17.000Z</time>
      </trkpt>
      <trkpt lat="46.27136" lon="6.57595">
        <ele>1778.1</ele>
        <time>2023-01-21T12:25:18.000Z</time>
      </trkpt>
      <trkpt lat="46.27136" lon="6.57595">
        <ele>1778.1</ele>
        <time>2023-01-21T12:25:19.000Z</time>
      </trkpt>
      <trkpt lat="46.27136" lon="6.57595">
        <ele>1778.1</ele>
        <time>2023-01-21T12:25:20.000Z</time>
      </trkpt>
      <trkpt lat="46.27136" lon="6.57595">
        <ele>1778.1</ele>
        <time>2023-01-21T12:25:21.000Z</time>
      </trkpt>
      <trkpt lat="46.2713" lon="6.57599">
        <ele>1777.7</ele>
        <time>2023-01-21T12:25:22.000Z</time>
      </trkpt>
      <trkpt lat="46.27129" lon="6.57598">
        <ele>1777.7</ele>
        <time>2023-01-21T12:25:23.000Z</time>
      </trkpt>
      <trkpt lat="46.27128" lon="6.57598">
        <ele>1777.8</ele>
        <time>2023-01-21T12:25:24.000Z</time>
      </trkpt>
      <trkpt lat="46.27127" lon="6.57598">
        <ele>1778</ele>
        <time>2023-01-21T12:25:25.000Z</time>
      </trkpt>
      <trkpt lat="46.27126" lon="6.57598">
        <ele>1778.1</ele>
        <time>2023-01-21T12:25:26.000Z</time>
      </trkpt>
      <trkpt lat="46.27126" lon="6.57599">
        <ele>1778.2</ele>
        <time>2023-01-21T12:25:27.000Z</time>
      </trkpt>
      <trkpt lat="46.27126" lon="6.576">
        <ele>1778.3</ele>
        <time>2023-01-21T12:25:28.000Z</time>
      </trkpt>
      <trkpt lat="46.27126" lon="6.576">
        <ele>1778.3</ele>
        <time>2023-01-21T12:25:29.000Z</time>
      </trkpt>
      <trkpt lat="46.27126" lon="6.576">
        <ele>1778.3</ele>
        <time>2023-01-21T12:25:30.000Z</time>
      </trkpt>
      <trkpt lat="46.27126" lon="6.576">
        <ele>1778.3</ele>
        <time>2023-01-21T12:25:31.000Z</time>
      </trkpt>
      <trkpt lat="46.27126" lon="6.576">
        <ele>1778.3</ele>
        <time>2023-01-21T12:25:32.000Z</time>
      </trkpt>
      <trkpt lat="46.27126" lon="6.576">
        <ele>1778.3</ele>
        <time>2023-01-21T12:25:33.000Z</time>
      </trkpt>
      <trkpt lat="46.27126" lon="6.576">
        <ele>1778.3</ele>
        <time>2023-01-21T12:25:34.000Z</time>
      </trkpt>
      <trkpt lat="46.27126" lon="6.576">
        <ele>1778.3</ele>
        <time>2023-01-21T12:25:35.000Z</time>
      </trkpt>
      <trkpt lat="46.27126" lon="6.576">
        <ele>1778.3</ele>
        <time>2023-01-21T12:25:36.000Z</time>
      </trkpt>
      <trkpt lat="46.27126" lon="6.576">
        <ele>1778.3</ele>
        <time>2023-01-21T12:25:37.000Z</time>
      </trkpt>
      <trkpt lat="46.27126" lon="6.576">
        <ele>1778.3</ele>
        <time>2023-01-21T12:25:38.000Z</time>
      </trkpt>
      <trkpt lat="46.27126" lon="6.576">
        <ele>1778.3</ele>
        <time>2023-01-21T12:25:39.000Z</time>
      </trkpt>
      <trkpt lat="46.27126" lon="6.576">
        <ele>1778.3</ele>
        <time>2023-01-21T12:25:40.000Z</time>
      </trkpt>
      <trkpt lat="46.27126" lon="6.576">
        <ele>1778.3</ele>
        <time>2023-01-21T12:25:41.000Z</time>
      </trkpt>
      <trkpt lat="46.27126" lon="6.576">
        <ele>1778.3</ele>
        <time>2023-01-21T12:25:42.000Z</time>
      </trkpt>
      <trkpt lat="46.27126" lon="6.576">
        <ele>1778.3</ele>
        <time>2023-01-21T12:25:43.000Z</time>
      </trkpt>
      <trkpt lat="46.27126" lon="6.576">
        <ele>1778.3</ele>
        <time>2023-01-21T12:25:44.000Z</time>
      </trkpt>
      <trkpt lat="46.27126" lon="6.576">
        <ele>1778.3</ele>
        <time>2023-01-21T12:25:45.000Z</time>
      </trkpt>
      <trkpt lat="46.27126" lon="6.576">
        <ele>1778.3</ele>
        <time>2023-01-21T12:25:46.000Z</time>
      </trkpt>
      <trkpt lat="46.27126" lon="6.576">
        <ele>1778.3</ele>
        <time>2023-01-21T12:25:47.000Z</time>
      </trkpt>
      <trkpt lat="46.27126" lon="6.576">
        <ele>1778.3</ele>
        <time>2023-01-21T12:25:48.000Z</time>
      </trkpt>
      <trkpt lat="46.27117" lon="6.57601">
        <ele>1782.6</ele>
        <time>2023-01-21T12:25:49.000Z</time>
      </trkpt>
      <trkpt lat="46.27117" lon="6.57602">
        <ele>1782.6</ele>
        <time>2023-01-21T12:25:50.000Z</time>
      </trkpt>
      <trkpt lat="46.27116" lon="6.57602">
        <ele>1782.9</ele>
        <time>2023-01-21T12:25:51.000Z</time>
      </trkpt>
      <trkpt lat="46.27116" lon="6.57603">
        <ele>1783</ele>
        <time>2023-01-21T12:25:52.000Z</time>
      </trkpt>
      <trkpt lat="46.27116" lon="6.57603">
        <ele>1783</ele>
        <time>2023-01-21T12:25:53.000Z</time>
      </trkpt>
      <trkpt lat="46.27116" lon="6.57603">
        <ele>1783</ele>
        <time>2023-01-21T12:25:54.000Z</time>
      </trkpt>
      <trkpt lat="46.27116" lon="6.57603">
        <ele>1783</ele>
        <time>2023-01-21T12:25:55.000Z</time>
      </trkpt>
      <trkpt lat="46.27116" lon="6.57603">
        <ele>1783</ele>
        <time>2023-01-21T12:25:56.000Z</time>
      </trkpt>
      <trkpt lat="46.27116" lon="6.57603">
        <ele>1783</ele>
        <time>2023-01-21T12:25:57.000Z</time>
      </trkpt>
      <trkpt lat="46.27116" lon="6.57603">
        <ele>1783</ele>
        <time>2023-01-21T12:25:58.000Z</time>
      </trkpt>
      <trkpt lat="46.27116" lon="6.57603">
        <ele>1783</ele>
        <time>2023-01-21T12:25:59.000Z</time>
      </trkpt>
      <trkpt lat="46.27116" lon="6.57603">
        <ele>1783</ele>
        <time>2023-01-21T12:26:00.000Z</time>
      </trkpt>
      <trkpt lat="46.27116" lon="6.57603">
        <ele>1783</ele>
        <time>2023-01-21T12:26:01.000Z</time>
      </trkpt>
      <trkpt lat="46.27116" lon="6.57603">
        <ele>1783</ele>
        <time>2023-01-21T12:26:02.000Z</time>
      </trkpt>
      <trkpt lat="46.27116" lon="6.57603">
        <ele>1783</ele>
        <time>2023-01-21T12:26:03.000Z</time>
      </trkpt>
      <trkpt lat="46.27116" lon="6.57603">
        <ele>1783</ele>
        <time>2023-01-21T12:26:04.000Z</time>
      </trkpt>
      <trkpt lat="46.27116" lon="6.57603">
        <ele>1783</ele>
        <time>2023-01-21T12:26:05.000Z</time>
      </trkpt>
      <trkpt lat="46.27116" lon="6.57603">
        <ele>1783</ele>
        <time>2023-01-21T12:26:06.000Z</time>
      </trkpt>
      <trkpt lat="46.27116" lon="6.57603">
        <ele>1783</ele>
        <time>2023-01-21T12:26:07.000Z</time>
      </trkpt>
      <trkpt lat="46.27116" lon="6.57603">
        <ele>1783</ele>
        <time>2023-01-21T12:26:08.000Z</time>
      </trkpt>
      <trkpt lat="46.27116" lon="6.57603">
        <ele>1783</ele>
        <time>2023-01-21T12:26:09.000Z</time>
      </trkpt>
      <trkpt lat="46.27116" lon="6.57603">
        <ele>1783</ele>
        <time>2023-01-21T12:26:10.000Z</time>
      </trkpt>
      <trkpt lat="46.27116" lon="6.57603">
        <ele>1783</ele>
        <time>2023-01-21T12:26:11.000Z</time>
      </trkpt>
      <trkpt lat="46.27116" lon="6.57603">
        <ele>1783</ele>
        <time>2023-01-21T12:26:12.000Z</time>
      </trkpt>
      <trkpt lat="46.27116" lon="6.57603">
        <ele>1783</ele>
        <time>2023-01-21T12:26:13.000Z</time>
      </trkpt>
      <trkpt lat="46.27116" lon="6.57603">
        <ele>1783</ele>
        <time>2023-01-21T12:26:14.000Z</time>
      </trkpt>
      <trkpt lat="46.27107" lon="6.576">
        <ele>1786.8</ele>
        <time>2023-01-21T12:26:15.000Z</time>
      </trkpt>
      <trkpt lat="46.27106" lon="6.576">
        <ele>1786.9</ele>
        <time>2023-01-21T12:26:16.000Z</time>
      </trkpt>
      <trkpt lat="46.27105" lon="6.576">
        <ele>1787</ele>
        <time>2023-01-21T12:26:17.000Z</time>
      </trkpt>
      <trkpt lat="46.27104" lon="6.576">
        <ele>1787.2</ele>
        <time>2023-01-21T12:26:18.000Z</time>
      </trkpt>
      <trkpt lat="46.27104" lon="6.576">
        <ele>1787.2</ele>
        <time>2023-01-21T12:26:19.000Z</time>
      </trkpt>
      <trkpt lat="46.27104" lon="6.576">
        <ele>1787.2</ele>
        <time>2023-01-21T12:26:20.000Z</time>
      </trkpt>
      <trkpt lat="46.27104" lon="6.576">
        <ele>1787.2</ele>
        <time>2023-01-21T12:26:21.000Z</time>
      </trkpt>
      <trkpt lat="46.27104" lon="6.576">
        <ele>1787.2</ele>
        <time>2023-01-21T12:26:22.000Z</time>
      </trkpt>
      <trkpt lat="46.27104" lon="6.576">
        <ele>1787.2</ele>
        <time>2023-01-21T12:26:23.000Z</time>
      </trkpt>
      <trkpt lat="46.27104" lon="6.576">
        <ele>1787.2</ele>
        <time>2023-01-21T12:26:24.000Z</time>
      </trkpt>
      <trkpt lat="46.27104" lon="6.576">
        <ele>1787.2</ele>
        <time>2023-01-21T12:26:25.000Z</time>
      </trkpt>
      <trkpt lat="46.27104" lon="6.576">
        <ele>1787.2</ele>
        <time>2023-01-21T12:26:26.000Z</time>
      </trkpt>
      <trkpt lat="46.27104" lon="6.576">
        <ele>1787.2</ele>
        <time>2023-01-21T12:26:27.000Z</time>
      </trkpt>
      <trkpt lat="46.27104" lon="6.576">
        <ele>1787.2</ele>
        <time>2023-01-21T12:26:28.000Z</time>
      </trkpt>
      <trkpt lat="46.27104" lon="6.576">
        <ele>1787.2</ele>
        <time>2023-01-21T12:26:29.000Z</time>
      </trkpt>
      <trkpt lat="46.27104" lon="6.576">
        <ele>1787.2</ele>
        <time>2023-01-21T12:26:30.000Z</time>
      </trkpt>
      <trkpt lat="46.27096" lon="6.57595">
        <ele>1790.8</ele>
        <time>2023-01-21T12:26:31.000Z</time>
      </trkpt>
      <trkpt lat="46.27095" lon="6.57594">
        <ele>1791.1</ele>
        <time>2023-01-21T12:26:32.000Z</time>
      </trkpt>
      <trkpt lat="46.27094" lon="6.57594">
        <ele>1791.4</ele>
        <time>2023-01-21T12:26:33.000Z</time>
      </trkpt>
      <trkpt lat="46.27094" lon="6.57594">
        <ele>1791.5</ele>
        <time>2023-01-21T12:26:34.000Z</time>
      </trkpt>
      <trkpt lat="46.27094" lon="6.57594">
        <ele>1791.5</ele>
        <time>2023-01-21T12:26:35.000Z</time>
      </trkpt>
      <trkpt lat="46.27094" lon="6.57594">
        <ele>1791.5</ele>
        <time>2023-01-21T12:26:36.000Z</time>
      </trkpt>
      <trkpt lat="46.27094" lon="6.57594">
        <ele>1791.5</ele>
        <time>2023-01-21T12:26:37.000Z</time>
      </trkpt>
      <trkpt lat="46.27094" lon="6.57594">
        <ele>1791.5</ele>
        <time>2023-01-21T12:26:38.000Z</time>
      </trkpt>
      <trkpt lat="46.27094" lon="6.57594">
        <ele>1791.5</ele>
        <time>2023-01-21T12:26:39.000Z</time>
      </trkpt>
      <trkpt lat="46.27094" lon="6.57594">
        <ele>1791.5</ele>
        <time>2023-01-21T12:26:40.000Z</time>
      </trkpt>
      <trkpt lat="46.27094" lon="6.57594">
        <ele>1791.5</ele>
        <time>2023-01-21T12:26:41.000Z</time>
      </trkpt>
      <trkpt lat="46.27094" lon="6.57594">
        <ele>1791.5</ele>
        <time>2023-01-21T12:26:42.000Z</time>
      </trkpt>
      <trkpt lat="46.27094" lon="6.57594">
        <ele>1791.5</ele>
        <time>2023-01-21T12:26:43.000Z</time>
      </trkpt>
      <trkpt lat="46.27094" lon="6.57594">
        <ele>1791.5</ele>
        <time>2023-01-21T12:26:44.000Z</time>
      </trkpt>
      <trkpt lat="46.27094" lon="6.57594">
        <ele>1791.5</ele>
        <time>2023-01-21T12:26:45.000Z</time>
      </trkpt>
      <trkpt lat="46.27094" lon="6.57594">
        <ele>1791.5</ele>
        <time>2023-01-21T12:26:46.000Z</time>
      </trkpt>
      <trkpt lat="46.27094" lon="6.57594">
        <ele>1791.5</ele>
        <time>2023-01-21T12:26:47.000Z</time>
      </trkpt>
      <trkpt lat="46.27094" lon="6.57594">
        <ele>1791.5</ele>
        <time>2023-01-21T12:26:48.000Z</time>
      </trkpt>
      <trkpt lat="46.27094" lon="6.57594">
        <ele>1791.5</ele>
        <time>2023-01-21T12:26:49.000Z</time>
      </trkpt>
      <trkpt lat="46.27094" lon="6.57594">
        <ele>1791.5</ele>
        <time>2023-01-21T12:26:50.000Z</time>
      </trkpt>
      <trkpt lat="46.27094" lon="6.57594">
        <ele>1791.5</ele>
        <time>2023-01-21T12:26:51.000Z</time>
      </trkpt>
      <trkpt lat="46.27094" lon="6.57594">
        <ele>1791.5</ele>
        <time>2023-01-21T12:26:52.000Z</time>
      </trkpt>
      <trkpt lat="46.27094" lon="6.57594">
        <ele>1794.5</ele>
        <time>2023-01-21T12:26:53.000Z</time>
      </trkpt>
      <trkpt lat="46.27094" lon="6.57594">
        <ele>1794.5</ele>
        <time>2023-01-21T12:26:54.000Z</time>
      </trkpt>
      <trkpt lat="46.27094" lon="6.57594">
        <ele>1794.5</ele>
        <time>2023-01-21T12:26:55.000Z</time>
      </trkpt>
      <trkpt lat="46.27094" lon="6.57594">
        <ele>1794.5</ele>
        <time>2023-01-21T12:26:56.000Z</time>
      </trkpt>
      <trkpt lat="46.27094" lon="6.57594">
        <ele>1794.5</ele>
        <time>2023-01-21T12:26:57.000Z</time>
      </trkpt>
      <trkpt lat="46.27094" lon="6.57594">
        <ele>1794.5</ele>
        <time>2023-01-21T12:26:58.000Z</time>
      </trkpt>
      <trkpt lat="46.27094" lon="6.57594">
        <ele>1794.5</ele>
        <time>2023-01-21T12:26:59.000Z</time>
      </trkpt>
      <trkpt lat="46.27094" lon="6.57594">
        <ele>1794.5</ele>
        <time>2023-01-21T12:27:00.000Z</time>
      </trkpt>
      <trkpt lat="46.27094" lon="6.57594">
        <ele>1794.5</ele>
        <time>2023-01-21T12:27:01.000Z</time>
      </trkpt>
      <trkpt lat="46.27094" lon="6.57594">
        <ele>1794.5</ele>
        <time>2023-01-21T12:27:02.000Z</time>
      </trkpt>
      <trkpt lat="46.27094" lon="6.57594">
        <ele>1794.5</ele>
        <time>2023-01-21T12:27:03.000Z</time>
      </trkpt>
      <trkpt lat="46.27094" lon="6.57594">
        <ele>1794.5</ele>
        <time>2023-01-21T12:27:04.000Z</time>
      </trkpt>
      <trkpt lat="46.27094" lon="6.57594">
        <ele>1794.5</ele>
        <time>2023-01-21T12:27:05.000Z</time>
      </trkpt>
      <trkpt lat="46.27094" lon="6.57594">
        <ele>1794.5</ele>
        <time>2023-01-21T12:27:06.000Z</time>
      </trkpt>
      <trkpt lat="46.27094" lon="6.57594">
        <ele>1794.5</ele>
        <time>2023-01-21T12:27:07.000Z</time>
      </trkpt>
      <trkpt lat="46.27094" lon="6.57594">
        <ele>1794.5</ele>
        <time>2023-01-21T12:27:08.000Z</time>
      </trkpt>
      <trkpt lat="46.27094" lon="6.57594">
        <ele>1794.5</ele>
        <time>2023-01-21T12:27:09.000Z</time>
      </trkpt>
      <trkpt lat="46.27094" lon="6.57594">
        <ele>1794.5</ele>
        <time>2023-01-21T12:27:10.000Z</time>
      </trkpt>
      <trkpt lat="46.27094" lon="6.57594">
        <ele>1794.5</ele>
        <time>2023-01-21T12:27:11.000Z</time>
      </trkpt>
      <trkpt lat="46.27094" lon="6.57594">
        <ele>1794.5</ele>
        <time>2023-01-21T12:27:12.000Z</time>
      </trkpt>
      <trkpt lat="46.27094" lon="6.57594">
        <ele>1794.5</ele>
        <time>2023-01-21T12:27:13.000Z</time>
      </trkpt>
      <trkpt lat="46.27094" lon="6.57594">
        <ele>1794.5</ele>
        <time>2023-01-21T12:27:14.000Z</time>
      </trkpt>
      <trkpt lat="46.27094" lon="6.57594">
        <ele>1794.5</ele>
        <time>2023-01-21T12:27:15.000Z</time>
      </trkpt>
      <trkpt lat="46.27094" lon="6.57594">
        <ele>1794.5</ele>
        <time>2023-01-21T12:27:16.000Z</time>
      </trkpt>
      <trkpt lat="46.27094" lon="6.57594">
        <ele>1794.5</ele>
        <time>2023-01-21T12:27:17.000Z</time>
      </trkpt>
      <trkpt lat="46.27094" lon="6.57594">
        <ele>1794.5</ele>
        <time>2023-01-21T12:27:18.000Z</time>
      </trkpt>
      <trkpt lat="46.27094" lon="6.57594">
        <ele>1794.5</ele>
        <time>2023-01-21T12:27:19.000Z</time>
      </trkpt>
      <trkpt lat="46.27094" lon="6.57594">
        <ele>1794.5</ele>
        <time>2023-01-21T12:27:20.000Z</time>
      </trkpt>
      <trkpt lat="46.27094" lon="6.57594">
        <ele>1794.5</ele>
        <time>2023-01-21T12:27:21.000Z</time>
      </trkpt>
      <trkpt lat="46.27094" lon="6.57594">
        <ele>1794.5</ele>
        <time>2023-01-21T12:27:22.000Z</time>
      </trkpt>
      <trkpt lat="46.27094" lon="6.57594">
        <ele>1794.5</ele>
        <time>2023-01-21T12:27:23.000Z</time>
      </trkpt>
      <trkpt lat="46.27094" lon="6.57594">
        <ele>1794.5</ele>
        <time>2023-01-21T12:27:24.000Z</time>
      </trkpt>
      <trkpt lat="46.27094" lon="6.57594">
        <ele>1794.5</ele>
        <time>2023-01-21T12:27:25.000Z</time>
      </trkpt>
      <trkpt lat="46.27094" lon="6.57594">
        <ele>1794.5</ele>
        <time>2023-01-21T12:27:26.000Z</time>
      </trkpt>
      <trkpt lat="46.27094" lon="6.57594">
        <ele>1794.5</ele>
        <time>2023-01-21T12:27:27.000Z</time>
      </trkpt>
      <trkpt lat="46.27094" lon="6.57594">
        <ele>1794.5</ele>
        <time>2023-01-21T12:27:28.000Z</time>
      </trkpt>
      <trkpt lat="46.27094" lon="6.57594">
        <ele>1794.5</ele>
        <time>2023-01-21T12:27:29.000Z</time>
      </trkpt>
      <trkpt lat="46.27094" lon="6.57594">
        <ele>1794.5</ele>
        <time>2023-01-21T12:27:30.000Z</time>
      </trkpt>
      <trkpt lat="46.27094" lon="6.57594">
        <ele>1794.5</ele>
        <time>2023-01-21T12:27:31.000Z</time>
      </trkpt>
      <trkpt lat="46.27094" lon="6.57594">
        <ele>1794.5</ele>
        <time>2023-01-21T12:27:32.000Z</time>
      </trkpt>
      <trkpt lat="46.27094" lon="6.57594">
        <ele>1794.5</ele>
        <time>2023-01-21T12:27:33.000Z</time>
      </trkpt>
      <trkpt lat="46.27094" lon="6.57594">
        <ele>1794.5</ele>
        <time>2023-01-21T12:27:34.000Z</time>
      </trkpt>
      <trkpt lat="46.27094" lon="6.57594">
        <ele>1794.5</ele>
        <time>2023-01-21T12:27:35.000Z</time>
      </trkpt>
      <trkpt lat="46.27094" lon="6.57594">
        <ele>1794.5</ele>
        <time>2023-01-21T12:27:36.000Z</time>
      </trkpt>
      <trkpt lat="46.27094" lon="6.57594">
        <ele>1794.5</ele>
        <time>2023-01-21T12:27:37.000Z</time>
      </trkpt>
      <trkpt lat="46.27094" lon="6.57594">
        <ele>1794.5</ele>
        <time>2023-01-21T12:27:38.000Z</time>
      </trkpt>
      <trkpt lat="46.27094" lon="6.57594">
        <ele>1794.5</ele>
        <time>2023-01-21T12:27:39.000Z</time>
      </trkpt>
      <trkpt lat="46.27094" lon="6.57594">
        <ele>1794.5</ele>
        <time>2023-01-21T12:27:40.000Z</time>
      </trkpt>
      <trkpt lat="46.27094" lon="6.57594">
        <ele>1794.5</ele>
        <time>2023-01-21T12:27:41.000Z</time>
      </trkpt>
      <trkpt lat="46.27094" lon="6.57594">
        <ele>1794.5</ele>
        <time>2023-01-21T12:27:42.000Z</time>
      </trkpt>
      <trkpt lat="46.27094" lon="6.57594">
        <ele>1794.5</ele>
        <time>2023-01-21T12:27:43.000Z</time>
      </trkpt>
      <trkpt lat="46.27094" lon="6.57594">
        <ele>1794.5</ele>
        <time>2023-01-21T12:27:44.000Z</time>
      </trkpt>
      <trkpt lat="46.27094" lon="6.57594">
        <ele>1794.5</ele>
        <time>2023-01-21T12:27:45.000Z</time>
      </trkpt>
      <trkpt lat="46.27094" lon="6.57594">
        <ele>1794.5</ele>
        <time>2023-01-21T12:27:46.000Z</time>
      </trkpt>
      <trkpt lat="46.27094" lon="6.57594">
        <ele>1794.5</ele>
        <time>2023-01-21T12:27:47.000Z</time>
      </trkpt>
      <trkpt lat="46.27094" lon="6.57594">
        <ele>1794.5</ele>
        <time>2023-01-21T12:27:48.000Z</time>
      </trkpt>
      <trkpt lat="46.27094" lon="6.57594">
        <ele>1794.5</ele>
        <time>2023-01-21T12:27:49.000Z</time>
      </trkpt>
      <trkpt lat="46.27094" lon="6.57594">
        <ele>1794.5</ele>
        <time>2023-01-21T12:27:50.000Z</time>
      </trkpt>
      <trkpt lat="46.27094" lon="6.57594">
        <ele>1794.5</ele>
        <time>2023-01-21T12:27:51.000Z</time>
      </trkpt>
      <trkpt lat="46.27094" lon="6.57594">
        <ele>1794.5</ele>
        <time>2023-01-21T12:27:52.000Z</time>
      </trkpt>
      <trkpt lat="46.27094" lon="6.57594">
        <ele>1794.5</ele>
        <time>2023-01-21T12:27:53.000Z</time>
      </trkpt>
      <trkpt lat="46.27094" lon="6.57594">
        <ele>1794.5</ele>
        <time>2023-01-21T12:27:54.000Z</time>
      </trkpt>
      <trkpt lat="46.27094" lon="6.57594">
        <ele>1794.5</ele>
        <time>2023-01-21T12:27:55.000Z</time>
      </trkpt>
      <trkpt lat="46.27094" lon="6.57594">
        <ele>1794.5</ele>
        <time>2023-01-21T12:27:56.000Z</time>
      </trkpt>
      <trkpt lat="46.27094" lon="6.57594">
        <ele>1794.5</ele>
        <time>2023-01-21T12:27:57.000Z</time>
      </trkpt>
      <trkpt lat="46.27094" lon="6.57594">
        <ele>1794.5</ele>
        <time>2023-01-21T12:27:58.000Z</time>
      </trkpt>
      <trkpt lat="46.27094" lon="6.57594">
        <ele>1794.5</ele>
        <time>2023-01-21T12:27:59.000Z</time>
      </trkpt>
      <trkpt lat="46.27094" lon="6.57594">
        <ele>1794.5</ele>
        <time>2023-01-21T12:28:00.000Z</time>
      </trkpt>
      <trkpt lat="46.27094" lon="6.57594">
        <ele>1794.5</ele>
        <time>2023-01-21T12:28:01.000Z</time>
      </trkpt>
      <trkpt lat="46.27094" lon="6.57594">
        <ele>1794.5</ele>
        <time>2023-01-21T12:28:02.000Z</time>
      </trkpt>
      <trkpt lat="46.27094" lon="6.57594">
        <ele>1794.5</ele>
        <time>2023-01-21T12:28:03.000Z</time>
      </trkpt>
      <trkpt lat="46.27084" lon="6.57592">
        <ele>1796.7</ele>
        <time>2023-01-21T12:28:04.000Z</time>
      </trkpt>
      <trkpt lat="46.27084" lon="6.57592">
        <ele>1796.7</ele>
        <time>2023-01-21T12:28:05.000Z</time>
      </trkpt>
      <trkpt lat="46.27083" lon="6.57593">
        <ele>1796.7</ele>
        <time>2023-01-21T12:28:06.000Z</time>
      </trkpt>
      <trkpt lat="46.27082" lon="6.57593">
        <ele>1796.8</ele>
        <time>2023-01-21T12:28:07.000Z</time>
      </trkpt>
      <trkpt lat="46.27082" lon="6.57593">
        <ele>1796.8</ele>
        <time>2023-01-21T12:28:08.000Z</time>
      </trkpt>
      <trkpt lat="46.27082" lon="6.57593">
        <ele>1796.8</ele>
        <time>2023-01-21T12:28:09.000Z</time>
      </trkpt>
      <trkpt lat="46.27082" lon="6.57593">
        <ele>1796.8</ele>
        <time>2023-01-21T12:28:10.000Z</time>
      </trkpt>
      <trkpt lat="46.27082" lon="6.57593">
        <ele>1796.8</ele>
        <time>2023-01-21T12:28:11.000Z</time>
      </trkpt>
      <trkpt lat="46.27082" lon="6.57593">
        <ele>1796.8</ele>
        <time>2023-01-21T12:28:12.000Z</time>
      </trkpt>
      <trkpt lat="46.27082" lon="6.57593">
        <ele>1796.8</ele>
        <time>2023-01-21T12:28:13.000Z</time>
      </trkpt>
      <trkpt lat="46.27082" lon="6.57593">
        <ele>1796.8</ele>
        <time>2023-01-21T12:28:14.000Z</time>
      </trkpt>
      <trkpt lat="46.27082" lon="6.57593">
        <ele>1796.8</ele>
        <time>2023-01-21T12:28:15.000Z</time>
      </trkpt>
      <trkpt lat="46.27082" lon="6.57593">
        <ele>1796.8</ele>
        <time>2023-01-21T12:28:16.000Z</time>
      </trkpt>
      <trkpt lat="46.27082" lon="6.57593">
        <ele>1796.8</ele>
        <time>2023-01-21T12:28:17.000Z</time>
      </trkpt>
      <trkpt lat="46.27078" lon="6.57603">
        <ele>1795.9</ele>
        <time>2023-01-21T12:28:18.000Z</time>
      </trkpt>
      <trkpt lat="46.27078" lon="6.57603">
        <ele>1795.6</ele>
        <time>2023-01-21T12:28:19.000Z</time>
      </trkpt>
      <trkpt lat="46.27078" lon="6.57604">
        <ele>1795.4</ele>
        <time>2023-01-21T12:28:20.000Z</time>
      </trkpt>
      <trkpt lat="46.27078" lon="6.57605">
        <ele>1795.4</ele>
        <time>2023-01-21T12:28:21.000Z</time>
      </trkpt>
      <trkpt lat="46.27078" lon="6.57605">
        <ele>1795.4</ele>
        <time>2023-01-21T12:28:22.000Z</time>
      </trkpt>
      <trkpt lat="46.27078" lon="6.57605">
        <ele>1795.4</ele>
        <time>2023-01-21T12:28:23.000Z</time>
      </trkpt>
      <trkpt lat="46.27078" lon="6.57605">
        <ele>1795.4</ele>
        <time>2023-01-21T12:28:24.000Z</time>
      </trkpt>
      <trkpt lat="46.27078" lon="6.57605">
        <ele>1795.4</ele>
        <time>2023-01-21T12:28:25.000Z</time>
      </trkpt>
      <trkpt lat="46.27078" lon="6.57605">
        <ele>1795.4</ele>
        <time>2023-01-21T12:28:26.000Z</time>
      </trkpt>
      <trkpt lat="46.27078" lon="6.57605">
        <ele>1795.4</ele>
        <time>2023-01-21T12:28:27.000Z</time>
      </trkpt>
      <trkpt lat="46.27078" lon="6.57605">
        <ele>1795.4</ele>
        <time>2023-01-21T12:28:28.000Z</time>
      </trkpt>
      <trkpt lat="46.27078" lon="6.57605">
        <ele>1795.4</ele>
        <time>2023-01-21T12:28:29.000Z</time>
      </trkpt>
      <trkpt lat="46.27078" lon="6.57605">
        <ele>1795.4</ele>
        <time>2023-01-21T12:28:30.000Z</time>
      </trkpt>
      <trkpt lat="46.27078" lon="6.57605">
        <ele>1795.4</ele>
        <time>2023-01-21T12:28:31.000Z</time>
      </trkpt>
      <trkpt lat="46.27078" lon="6.57605">
        <ele>1795.4</ele>
        <time>2023-01-21T12:28:32.000Z</time>
      </trkpt>
      <trkpt lat="46.27078" lon="6.57605">
        <ele>1795.4</ele>
        <time>2023-01-21T12:28:33.000Z</time>
      </trkpt>
      <trkpt lat="46.27078" lon="6.57605">
        <ele>1795.4</ele>
        <time>2023-01-21T12:28:34.000Z</time>
      </trkpt>
      <trkpt lat="46.27078" lon="6.57605">
        <ele>1795.4</ele>
        <time>2023-01-21T12:28:35.000Z</time>
      </trkpt>
      <trkpt lat="46.27072" lon="6.57616">
        <ele>1792.4</ele>
        <time>2023-01-21T12:28:36.000Z</time>
      </trkpt>
      <trkpt lat="46.27072" lon="6.57617">
        <ele>1792.2</ele>
        <time>2023-01-21T12:28:37.000Z</time>
      </trkpt>
      <trkpt lat="46.27072" lon="6.57618">
        <ele>1792</ele>
        <time>2023-01-21T12:28:38.000Z</time>
      </trkpt>
      <trkpt lat="46.27071" lon="6.57618">
        <ele>1791.7</ele>
        <time>2023-01-21T12:28:39.000Z</time>
      </trkpt>
      <trkpt lat="46.27071" lon="6.57618">
        <ele>1791.7</ele>
        <time>2023-01-21T12:28:40.000Z</time>
      </trkpt>
      <trkpt lat="46.27071" lon="6.57618">
        <ele>1791.7</ele>
        <time>2023-01-21T12:28:41.000Z</time>
      </trkpt>
      <trkpt lat="46.27071" lon="6.57618">
        <ele>1791.7</ele>
        <time>2023-01-21T12:28:42.000Z</time>
      </trkpt>
      <trkpt lat="46.27071" lon="6.57618">
        <ele>1791.7</ele>
        <time>2023-01-21T12:28:43.000Z</time>
      </trkpt>
      <trkpt lat="46.27066" lon="6.5762">
        <ele>1791.8</ele>
        <time>2023-01-21T12:28:44.000Z</time>
      </trkpt>
      <trkpt lat="46.27065" lon="6.5762">
        <ele>1792.4</ele>
        <time>2023-01-21T12:28:45.000Z</time>
      </trkpt>
      <trkpt lat="46.27064" lon="6.57621">
        <ele>1792.9</ele>
        <time>2023-01-21T12:28:46.000Z</time>
      </trkpt>
      <trkpt lat="46.27062" lon="6.57621">
        <ele>1793</ele>
        <time>2023-01-21T12:28:47.000Z</time>
      </trkpt>
      <trkpt lat="46.27061" lon="6.57621">
        <ele>1793.1</ele>
        <time>2023-01-21T12:28:48.000Z</time>
      </trkpt>
      <trkpt lat="46.27061" lon="6.57621">
        <ele>1793</ele>
        <time>2023-01-21T12:28:49.000Z</time>
      </trkpt>
      <trkpt lat="46.2706" lon="6.5762">
        <ele>1793</ele>
        <time>2023-01-21T12:28:50.000Z</time>
      </trkpt>
      <trkpt lat="46.2706" lon="6.5762">
        <ele>1793</ele>
        <time>2023-01-21T12:28:51.000Z</time>
      </trkpt>
      <trkpt lat="46.2706" lon="6.5762">
        <ele>1793</ele>
        <time>2023-01-21T12:28:52.000Z</time>
      </trkpt>
      <trkpt lat="46.2706" lon="6.5762">
        <ele>1793</ele>
        <time>2023-01-21T12:28:53.000Z</time>
      </trkpt>
      <trkpt lat="46.2706" lon="6.5762">
        <ele>1793</ele>
        <time>2023-01-21T12:28:54.000Z</time>
      </trkpt>
      <trkpt lat="46.2706" lon="6.5762">
        <ele>1793</ele>
        <time>2023-01-21T12:28:55.000Z</time>
      </trkpt>
      <trkpt lat="46.2706" lon="6.5762">
        <ele>1793</ele>
        <time>2023-01-21T12:28:56.000Z</time>
      </trkpt>
      <trkpt lat="46.2706" lon="6.5762">
        <ele>1793</ele>
        <time>2023-01-21T12:28:57.000Z</time>
      </trkpt>
      <trkpt lat="46.2706" lon="6.5762">
        <ele>1793</ele>
        <time>2023-01-21T12:28:58.000Z</time>
      </trkpt>
      <trkpt lat="46.2706" lon="6.5762">
        <ele>1793</ele>
        <time>2023-01-21T12:28:59.000Z</time>
      </trkpt>
      <trkpt lat="46.2706" lon="6.5762">
        <ele>1793</ele>
        <time>2023-01-21T12:29:00.000Z</time>
      </trkpt>
      <trkpt lat="46.2706" lon="6.5762">
        <ele>1793</ele>
        <time>2023-01-21T12:29:01.000Z</time>
      </trkpt>
      <trkpt lat="46.2706" lon="6.5762">
        <ele>1793</ele>
        <time>2023-01-21T12:29:02.000Z</time>
      </trkpt>
      <trkpt lat="46.2706" lon="6.5762">
        <ele>1793</ele>
        <time>2023-01-21T12:29:03.000Z</time>
      </trkpt>
      <trkpt lat="46.27051" lon="6.57618">
        <ele>1793.4</ele>
        <time>2023-01-21T12:29:04.000Z</time>
      </trkpt>
      <trkpt lat="46.2705" lon="6.57618">
        <ele>1793.4</ele>
        <time>2023-01-21T12:29:05.000Z</time>
      </trkpt>
      <trkpt lat="46.2705" lon="6.57618">
        <ele>1793.4</ele>
        <time>2023-01-21T12:29:06.000Z</time>
      </trkpt>
      <trkpt lat="46.2705" lon="6.57618">
        <ele>1793.4</ele>
        <time>2023-01-21T12:29:07.000Z</time>
      </trkpt>
      <trkpt lat="46.2705" lon="6.57618">
        <ele>1793.4</ele>
        <time>2023-01-21T12:29:08.000Z</time>
      </trkpt>
      <trkpt lat="46.2705" lon="6.57618">
        <ele>1793.4</ele>
        <time>2023-01-21T12:29:09.000Z</time>
      </trkpt>
      <trkpt lat="46.2705" lon="6.57618">
        <ele>1793.4</ele>
        <time>2023-01-21T12:29:10.000Z</time>
      </trkpt>
      <trkpt lat="46.2705" lon="6.57618">
        <ele>1793.4</ele>
        <time>2023-01-21T12:29:11.000Z</time>
      </trkpt>
      <trkpt lat="46.2705" lon="6.57618">
        <ele>1793.4</ele>
        <time>2023-01-21T12:29:12.000Z</time>
      </trkpt>
      <trkpt lat="46.2705" lon="6.57618">
        <ele>1793.4</ele>
        <time>2023-01-21T12:29:13.000Z</time>
      </trkpt>
      <trkpt lat="46.2705" lon="6.57618">
        <ele>1793.4</ele>
        <time>2023-01-21T12:29:14.000Z</time>
      </trkpt>
      <trkpt lat="46.2705" lon="6.57618">
        <ele>1793.4</ele>
        <time>2023-01-21T12:29:15.000Z</time>
      </trkpt>
      <trkpt lat="46.2705" lon="6.57618">
        <ele>1793.4</ele>
        <time>2023-01-21T12:29:16.000Z</time>
      </trkpt>
      <trkpt lat="46.2705" lon="6.57618">
        <ele>1793.4</ele>
        <time>2023-01-21T12:29:17.000Z</time>
      </trkpt>
      <trkpt lat="46.2705" lon="6.57618">
        <ele>1793.4</ele>
        <time>2023-01-21T12:29:18.000Z</time>
      </trkpt>
      <trkpt lat="46.2705" lon="6.57618">
        <ele>1793.4</ele>
        <time>2023-01-21T12:29:19.000Z</time>
      </trkpt>
      <trkpt lat="46.2705" lon="6.57618">
        <ele>1793.4</ele>
        <time>2023-01-21T12:29:20.000Z</time>
      </trkpt>
      <trkpt lat="46.2705" lon="6.57618">
        <ele>1793.4</ele>
        <time>2023-01-21T12:29:21.000Z</time>
      </trkpt>
      <trkpt lat="46.2705" lon="6.57618">
        <ele>1793.4</ele>
        <time>2023-01-21T12:29:22.000Z</time>
      </trkpt>
      <trkpt lat="46.2705" lon="6.57618">
        <ele>1793.4</ele>
        <time>2023-01-21T12:29:23.000Z</time>
      </trkpt>
      <trkpt lat="46.27041" lon="6.57624">
        <ele>1793.7</ele>
        <time>2023-01-21T12:29:24.000Z</time>
      </trkpt>
      <trkpt lat="46.27041" lon="6.57625">
        <ele>1793.7</ele>
        <time>2023-01-21T12:29:25.000Z</time>
      </trkpt>
      <trkpt lat="46.27041" lon="6.57625">
        <ele>1793.7</ele>
        <time>2023-01-21T12:29:26.000Z</time>
      </trkpt>
      <trkpt lat="46.27041" lon="6.57625">
        <ele>1793.7</ele>
        <time>2023-01-21T12:29:27.000Z</time>
      </trkpt>
      <trkpt lat="46.27041" lon="6.57625">
        <ele>1793.7</ele>
        <time>2023-01-21T12:29:28.000Z</time>
      </trkpt>
      <trkpt lat="46.27041" lon="6.57625">
        <ele>1793.7</ele>
        <time>2023-01-21T12:29:29.000Z</time>
      </trkpt>
      <trkpt lat="46.27041" lon="6.57625">
        <ele>1793.7</ele>
        <time>2023-01-21T12:29:30.000Z</time>
      </trkpt>
      <trkpt lat="46.27041" lon="6.57625">
        <ele>1793.7</ele>
        <time>2023-01-21T12:29:31.000Z</time>
      </trkpt>
      <trkpt lat="46.27041" lon="6.57625">
        <ele>1793.7</ele>
        <time>2023-01-21T12:29:32.000Z</time>
      </trkpt>
      <trkpt lat="46.27041" lon="6.57625">
        <ele>1793.7</ele>
        <time>2023-01-21T12:29:33.000Z</time>
      </trkpt>
      <trkpt lat="46.27041" lon="6.57625">
        <ele>1793.7</ele>
        <time>2023-01-21T12:29:34.000Z</time>
      </trkpt>
      <trkpt lat="46.27041" lon="6.57625">
        <ele>1793.7</ele>
        <time>2023-01-21T12:29:35.000Z</time>
      </trkpt>
      <trkpt lat="46.27041" lon="6.57625">
        <ele>1793.7</ele>
        <time>2023-01-21T12:29:36.000Z</time>
      </trkpt>
      <trkpt lat="46.27041" lon="6.57625">
        <ele>1793.7</ele>
        <time>2023-01-21T12:29:37.000Z</time>
      </trkpt>
      <trkpt lat="46.27041" lon="6.57625">
        <ele>1793.7</ele>
        <time>2023-01-21T12:29:38.000Z</time>
      </trkpt>
      <trkpt lat="46.27041" lon="6.57625">
        <ele>1793.7</ele>
        <time>2023-01-21T12:29:39.000Z</time>
      </trkpt>
      <trkpt lat="46.27041" lon="6.57625">
        <ele>1793.7</ele>
        <time>2023-01-21T12:29:40.000Z</time>
      </trkpt>
      <trkpt lat="46.27041" lon="6.57625">
        <ele>1793.7</ele>
        <time>2023-01-21T12:29:41.000Z</time>
      </trkpt>
      <trkpt lat="46.27041" lon="6.57625">
        <ele>1793.7</ele>
        <time>2023-01-21T12:29:42.000Z</time>
      </trkpt>
      <trkpt lat="46.27041" lon="6.57625">
        <ele>1793.7</ele>
        <time>2023-01-21T12:29:43.000Z</time>
      </trkpt>
      <trkpt lat="46.27041" lon="6.57625">
        <ele>1793.7</ele>
        <time>2023-01-21T12:29:44.000Z</time>
      </trkpt>
      <trkpt lat="46.27041" lon="6.57625">
        <ele>1793.7</ele>
        <time>2023-01-21T12:29:45.000Z</time>
      </trkpt>
      <trkpt lat="46.27041" lon="6.57625">
        <ele>1793.7</ele>
        <time>2023-01-21T12:29:46.000Z</time>
      </trkpt>
      <trkpt lat="46.27041" lon="6.57625">
        <ele>1793.7</ele>
        <time>2023-01-21T12:29:47.000Z</time>
      </trkpt>
      <trkpt lat="46.27041" lon="6.57625">
        <ele>1793.7</ele>
        <time>2023-01-21T12:29:48.000Z</time>
      </trkpt>
      <trkpt lat="46.27041" lon="6.57625">
        <ele>1793.7</ele>
        <time>2023-01-21T12:29:49.000Z</time>
      </trkpt>
      <trkpt lat="46.27041" lon="6.57625">
        <ele>1799.5</ele>
        <time>2023-01-21T12:29:50.000Z</time>
      </trkpt>
      <trkpt lat="46.27041" lon="6.57625">
        <ele>1799.5</ele>
        <time>2023-01-21T12:29:51.000Z</time>
      </trkpt>
      <trkpt lat="46.27041" lon="6.57625">
        <ele>1799.5</ele>
        <time>2023-01-21T12:29:52.000Z</time>
      </trkpt>
      <trkpt lat="46.27041" lon="6.57625">
        <ele>1799.5</ele>
        <time>2023-01-21T12:29:53.000Z</time>
      </trkpt>
      <trkpt lat="46.27041" lon="6.57625">
        <ele>1799.5</ele>
        <time>2023-01-21T12:29:54.000Z</time>
      </trkpt>
      <trkpt lat="46.27041" lon="6.57625">
        <ele>1799.5</ele>
        <time>2023-01-21T12:29:55.000Z</time>
      </trkpt>
      <trkpt lat="46.27041" lon="6.57625">
        <ele>1799.5</ele>
        <time>2023-01-21T12:29:56.000Z</time>
      </trkpt>
      <trkpt lat="46.27041" lon="6.57625">
        <ele>1799.5</ele>
        <time>2023-01-21T12:29:57.000Z</time>
      </trkpt>
      <trkpt lat="46.27041" lon="6.57625">
        <ele>1799.5</ele>
        <time>2023-01-21T12:29:58.000Z</time>
      </trkpt>
      <trkpt lat="46.27041" lon="6.57625">
        <ele>1799.5</ele>
        <time>2023-01-21T12:29:59.000Z</time>
      </trkpt>
      <trkpt lat="46.27041" lon="6.57625">
        <ele>1799.5</ele>
        <time>2023-01-21T12:30:00.000Z</time>
      </trkpt>
      <trkpt lat="46.27041" lon="6.57625">
        <ele>1799.5</ele>
        <time>2023-01-21T12:30:01.000Z</time>
      </trkpt>
      <trkpt lat="46.27032" lon="6.57629">
        <ele>1801.4</ele>
        <time>2023-01-21T12:30:02.000Z</time>
      </trkpt>
      <trkpt lat="46.27031" lon="6.57629">
        <ele>1801.6</ele>
        <time>2023-01-21T12:30:03.000Z</time>
      </trkpt>
      <trkpt lat="46.27031" lon="6.57629">
        <ele>1801.8</ele>
        <time>2023-01-21T12:30:04.000Z</time>
      </trkpt>
      <trkpt lat="46.27031" lon="6.57629">
        <ele>1801.9</ele>
        <time>2023-01-21T12:30:05.000Z</time>
      </trkpt>
      <trkpt lat="46.27031" lon="6.57629">
        <ele>1801.9</ele>
        <time>2023-01-21T12:30:06.000Z</time>
      </trkpt>
      <trkpt lat="46.27031" lon="6.57629">
        <ele>1801.9</ele>
        <time>2023-01-21T12:30:07.000Z</time>
      </trkpt>
      <trkpt lat="46.27031" lon="6.57629">
        <ele>1801.9</ele>
        <time>2023-01-21T12:30:08.000Z</time>
      </trkpt>
      <trkpt lat="46.27031" lon="6.57629">
        <ele>1801.9</ele>
        <time>2023-01-21T12:30:09.000Z</time>
      </trkpt>
      <trkpt lat="46.27031" lon="6.57629">
        <ele>1801.9</ele>
        <time>2023-01-21T12:30:10.000Z</time>
      </trkpt>
      <trkpt lat="46.27031" lon="6.57629">
        <ele>1801.9</ele>
        <time>2023-01-21T12:30:11.000Z</time>
      </trkpt>
      <trkpt lat="46.27031" lon="6.57629">
        <ele>1801.9</ele>
        <time>2023-01-21T12:30:12.000Z</time>
      </trkpt>
      <trkpt lat="46.27031" lon="6.57629">
        <ele>1801.9</ele>
        <time>2023-01-21T12:30:13.000Z</time>
      </trkpt>
      <trkpt lat="46.27031" lon="6.57629">
        <ele>1801.9</ele>
        <time>2023-01-21T12:30:14.000Z</time>
      </trkpt>
      <trkpt lat="46.27031" lon="6.57629">
        <ele>1801.9</ele>
        <time>2023-01-21T12:30:15.000Z</time>
      </trkpt>
      <trkpt lat="46.27031" lon="6.57629">
        <ele>1801.9</ele>
        <time>2023-01-21T12:30:16.000Z</time>
      </trkpt>
      <trkpt lat="46.27031" lon="6.57629">
        <ele>1801.9</ele>
        <time>2023-01-21T12:30:17.000Z</time>
      </trkpt>
      <trkpt lat="46.27031" lon="6.57629">
        <ele>1801.9</ele>
        <time>2023-01-21T12:30:18.000Z</time>
      </trkpt>
      <trkpt lat="46.27031" lon="6.57629">
        <ele>1801.9</ele>
        <time>2023-01-21T12:30:19.000Z</time>
      </trkpt>
      <trkpt lat="46.27031" lon="6.57629">
        <ele>1801.9</ele>
        <time>2023-01-21T12:30:20.000Z</time>
      </trkpt>
      <trkpt lat="46.27031" lon="6.57629">
        <ele>1801.9</ele>
        <time>2023-01-21T12:30:21.000Z</time>
      </trkpt>
      <trkpt lat="46.27031" lon="6.57629">
        <ele>1801.9</ele>
        <time>2023-01-21T12:30:22.000Z</time>
      </trkpt>
      <trkpt lat="46.27031" lon="6.57629">
        <ele>1801.9</ele>
        <time>2023-01-21T12:30:23.000Z</time>
      </trkpt>
      <trkpt lat="46.27031" lon="6.57629">
        <ele>1801.9</ele>
        <time>2023-01-21T12:30:24.000Z</time>
      </trkpt>
      <trkpt lat="46.27031" lon="6.57629">
        <ele>1801.9</ele>
        <time>2023-01-21T12:30:25.000Z</time>
      </trkpt>
      <trkpt lat="46.27031" lon="6.57629">
        <ele>1801.9</ele>
        <time>2023-01-21T12:30:26.000Z</time>
      </trkpt>
      <trkpt lat="46.27031" lon="6.57629">
        <ele>1801.9</ele>
        <time>2023-01-21T12:30:27.000Z</time>
      </trkpt>
      <trkpt lat="46.27031" lon="6.57629">
        <ele>1801.9</ele>
        <time>2023-01-21T12:30:28.000Z</time>
      </trkpt>
      <trkpt lat="46.27031" lon="6.57629">
        <ele>1801.9</ele>
        <time>2023-01-21T12:30:29.000Z</time>
      </trkpt>
      <trkpt lat="46.27031" lon="6.57629">
        <ele>1801.9</ele>
        <time>2023-01-21T12:30:30.000Z</time>
      </trkpt>
      <trkpt lat="46.27031" lon="6.57629">
        <ele>1801.9</ele>
        <time>2023-01-21T12:30:31.000Z</time>
      </trkpt>
      <trkpt lat="46.27031" lon="6.57629">
        <ele>1801.9</ele>
        <time>2023-01-21T12:30:32.000Z</time>
      </trkpt>
      <trkpt lat="46.27031" lon="6.57629">
        <ele>1801.9</ele>
        <time>2023-01-21T12:30:33.000Z</time>
      </trkpt>
      <trkpt lat="46.27031" lon="6.57629">
        <ele>1801.9</ele>
        <time>2023-01-21T12:30:34.000Z</time>
      </trkpt>
      <trkpt lat="46.27031" lon="6.57629">
        <ele>1801.9</ele>
        <time>2023-01-21T12:30:35.000Z</time>
      </trkpt>
      <trkpt lat="46.27031" lon="6.57629">
        <ele>1801.9</ele>
        <time>2023-01-21T12:30:36.000Z</time>
      </trkpt>
      <trkpt lat="46.27031" lon="6.57629">
        <ele>1801.9</ele>
        <time>2023-01-21T12:30:37.000Z</time>
      </trkpt>
      <trkpt lat="46.27031" lon="6.57629">
        <ele>1801.9</ele>
        <time>2023-01-21T12:30:38.000Z</time>
      </trkpt>
      <trkpt lat="46.27031" lon="6.57629">
        <ele>1801.9</ele>
        <time>2023-01-21T12:30:39.000Z</time>
      </trkpt>
      <trkpt lat="46.27031" lon="6.57629">
        <ele>1801.9</ele>
        <time>2023-01-21T12:30:40.000Z</time>
      </trkpt>
      <trkpt lat="46.27031" lon="6.57629">
        <ele>1801.9</ele>
        <time>2023-01-21T12:30:41.000Z</time>
      </trkpt>
      <trkpt lat="46.27031" lon="6.57629">
        <ele>1801.9</ele>
        <time>2023-01-21T12:30:42.000Z</time>
      </trkpt>
      <trkpt lat="46.27031" lon="6.57629">
        <ele>1801.9</ele>
        <time>2023-01-21T12:30:43.000Z</time>
      </trkpt>
      <trkpt lat="46.27021" lon="6.57632">
        <ele>1807.2</ele>
        <time>2023-01-21T12:30:44.000Z</time>
      </trkpt>
      <trkpt lat="46.27021" lon="6.57632">
        <ele>1807.3</ele>
        <time>2023-01-21T12:30:45.000Z</time>
      </trkpt>
      <trkpt lat="46.27021" lon="6.57632">
        <ele>1807.5</ele>
        <time>2023-01-21T12:30:46.000Z</time>
      </trkpt>
      <trkpt lat="46.27021" lon="6.57633">
        <ele>1807.6</ele>
        <time>2023-01-21T12:30:47.000Z</time>
      </trkpt>
      <trkpt lat="46.27021" lon="6.57633">
        <ele>1807.6</ele>
        <time>2023-01-21T12:30:48.000Z</time>
      </trkpt>
      <trkpt lat="46.27021" lon="6.57633">
        <ele>1807.6</ele>
        <time>2023-01-21T12:30:49.000Z</time>
      </trkpt>
      <trkpt lat="46.27021" lon="6.57633">
        <ele>1807.6</ele>
        <time>2023-01-21T12:30:50.000Z</time>
      </trkpt>
      <trkpt lat="46.27021" lon="6.57633">
        <ele>1807.6</ele>
        <time>2023-01-21T12:30:51.000Z</time>
      </trkpt>
      <trkpt lat="46.27021" lon="6.57633">
        <ele>1807.6</ele>
        <time>2023-01-21T12:30:52.000Z</time>
      </trkpt>
      <trkpt lat="46.27021" lon="6.57633">
        <ele>1807.6</ele>
        <time>2023-01-21T12:30:53.000Z</time>
      </trkpt>
      <trkpt lat="46.27021" lon="6.57633">
        <ele>1807.6</ele>
        <time>2023-01-21T12:30:54.000Z</time>
      </trkpt>
      <trkpt lat="46.27021" lon="6.57633">
        <ele>1807.6</ele>
        <time>2023-01-21T12:30:55.000Z</time>
      </trkpt>
      <trkpt lat="46.27021" lon="6.57633">
        <ele>1807.6</ele>
        <time>2023-01-21T12:30:56.000Z</time>
      </trkpt>
      <trkpt lat="46.27021" lon="6.57633">
        <ele>1807.6</ele>
        <time>2023-01-21T12:30:57.000Z</time>
      </trkpt>
      <trkpt lat="46.27021" lon="6.57633">
        <ele>1807.6</ele>
        <time>2023-01-21T12:30:58.000Z</time>
      </trkpt>
      <trkpt lat="46.27021" lon="6.57633">
        <ele>1807.6</ele>
        <time>2023-01-21T12:30:59.000Z</time>
      </trkpt>
      <trkpt lat="46.27021" lon="6.57633">
        <ele>1807.6</ele>
        <time>2023-01-21T12:31:00.000Z</time>
      </trkpt>
      <trkpt lat="46.27021" lon="6.57633">
        <ele>1807.6</ele>
        <time>2023-01-21T12:31:01.000Z</time>
      </trkpt>
      <trkpt lat="46.27021" lon="6.57633">
        <ele>1807.6</ele>
        <time>2023-01-21T12:31:02.000Z</time>
      </trkpt>
      <trkpt lat="46.27021" lon="6.57633">
        <ele>1807.6</ele>
        <time>2023-01-21T12:31:03.000Z</time>
      </trkpt>
      <trkpt lat="46.27021" lon="6.57633">
        <ele>1807.6</ele>
        <time>2023-01-21T12:31:04.000Z</time>
      </trkpt>
      <trkpt lat="46.27021" lon="6.57633">
        <ele>1807.6</ele>
        <time>2023-01-21T12:31:05.000Z</time>
      </trkpt>
      <trkpt lat="46.27021" lon="6.57633">
        <ele>1807.6</ele>
        <time>2023-01-21T12:31:06.000Z</time>
      </trkpt>
      <trkpt lat="46.27012" lon="6.57634">
        <ele>1810</ele>
        <time>2023-01-21T12:31:07.000Z</time>
      </trkpt>
      <trkpt lat="46.27012" lon="6.57634">
        <ele>1810.7</ele>
        <time>2023-01-21T12:31:08.000Z</time>
      </trkpt>
      <trkpt lat="46.27012" lon="6.57633">
        <ele>1811.3</ele>
        <time>2023-01-21T12:31:09.000Z</time>
      </trkpt>
      <trkpt lat="46.27012" lon="6.57632">
        <ele>1811.8</ele>
        <time>2023-01-21T12:31:10.000Z</time>
      </trkpt>
      <trkpt lat="46.27012" lon="6.57632">
        <ele>1811.8</ele>
        <time>2023-01-21T12:31:11.000Z</time>
      </trkpt>
      <trkpt lat="46.27012" lon="6.57632">
        <ele>1811.8</ele>
        <time>2023-01-21T12:31:12.000Z</time>
      </trkpt>
      <trkpt lat="46.27012" lon="6.57632">
        <ele>1811.8</ele>
        <time>2023-01-21T12:31:13.000Z</time>
      </trkpt>
      <trkpt lat="46.27012" lon="6.57632">
        <ele>1811.8</ele>
        <time>2023-01-21T12:31:14.000Z</time>
      </trkpt>
      <trkpt lat="46.27012" lon="6.57632">
        <ele>1811.8</ele>
        <time>2023-01-21T12:31:15.000Z</time>
      </trkpt>
      <trkpt lat="46.27012" lon="6.57632">
        <ele>1811.8</ele>
        <time>2023-01-21T12:31:16.000Z</time>
      </trkpt>
      <trkpt lat="46.27012" lon="6.57632">
        <ele>1811.8</ele>
        <time>2023-01-21T12:31:17.000Z</time>
      </trkpt>
      <trkpt lat="46.27012" lon="6.57632">
        <ele>1811.8</ele>
        <time>2023-01-21T12:31:18.000Z</time>
      </trkpt>
      <trkpt lat="46.27012" lon="6.57632">
        <ele>1811.8</ele>
        <time>2023-01-21T12:31:19.000Z</time>
      </trkpt>
      <trkpt lat="46.27012" lon="6.57632">
        <ele>1811.8</ele>
        <time>2023-01-21T12:31:20.000Z</time>
      </trkpt>
      <trkpt lat="46.27012" lon="6.57632">
        <ele>1811.8</ele>
        <time>2023-01-21T12:31:21.000Z</time>
      </trkpt>
      <trkpt lat="46.27012" lon="6.57632">
        <ele>1811.8</ele>
        <time>2023-01-21T12:31:22.000Z</time>
      </trkpt>
      <trkpt lat="46.27012" lon="6.57632">
        <ele>1811.8</ele>
        <time>2023-01-21T12:31:23.000Z</time>
      </trkpt>
      <trkpt lat="46.27012" lon="6.57632">
        <ele>1811.8</ele>
        <time>2023-01-21T12:31:24.000Z</time>
      </trkpt>
      <trkpt lat="46.27012" lon="6.57632">
        <ele>1811.8</ele>
        <time>2023-01-21T12:31:25.000Z</time>
      </trkpt>
      <trkpt lat="46.27012" lon="6.57632">
        <ele>1811.8</ele>
        <time>2023-01-21T12:31:26.000Z</time>
      </trkpt>
      <trkpt lat="46.27012" lon="6.57632">
        <ele>1811.8</ele>
        <time>2023-01-21T12:31:27.000Z</time>
      </trkpt>
      <trkpt lat="46.27012" lon="6.57632">
        <ele>1811.8</ele>
        <time>2023-01-21T12:31:28.000Z</time>
      </trkpt>
      <trkpt lat="46.27012" lon="6.57632">
        <ele>1811.8</ele>
        <time>2023-01-21T12:31:29.000Z</time>
      </trkpt>
      <trkpt lat="46.27012" lon="6.57632">
        <ele>1811.8</ele>
        <time>2023-01-21T12:31:30.000Z</time>
      </trkpt>
      <trkpt lat="46.27012" lon="6.57632">
        <ele>1811.8</ele>
        <time>2023-01-21T12:31:31.000Z</time>
      </trkpt>
      <trkpt lat="46.27012" lon="6.57632">
        <ele>1811.8</ele>
        <time>2023-01-21T12:31:32.000Z</time>
      </trkpt>
      <trkpt lat="46.27012" lon="6.57632">
        <ele>1811.8</ele>
        <time>2023-01-21T12:31:33.000Z</time>
      </trkpt>
      <trkpt lat="46.27012" lon="6.57632">
        <ele>1814.8</ele>
        <time>2023-01-21T12:31:34.000Z</time>
      </trkpt>
      <trkpt lat="46.27012" lon="6.57632">
        <ele>1814.8</ele>
        <time>2023-01-21T12:31:35.000Z</time>
      </trkpt>
      <trkpt lat="46.27012" lon="6.57632">
        <ele>1814.8</ele>
        <time>2023-01-21T12:31:36.000Z</time>
      </trkpt>
      <trkpt lat="46.27012" lon="6.57632">
        <ele>1814.8</ele>
        <time>2023-01-21T12:31:37.000Z</time>
      </trkpt>
      <trkpt lat="46.27012" lon="6.57632">
        <ele>1814.8</ele>
        <time>2023-01-21T12:31:38.000Z</time>
      </trkpt>
      <trkpt lat="46.27012" lon="6.57632">
        <ele>1814.8</ele>
        <time>2023-01-21T12:31:39.000Z</time>
      </trkpt>
      <trkpt lat="46.27012" lon="6.57632">
        <ele>1814.8</ele>
        <time>2023-01-21T12:31:40.000Z</time>
      </trkpt>
      <trkpt lat="46.27012" lon="6.57632">
        <ele>1814.8</ele>
        <time>2023-01-21T12:31:41.000Z</time>
      </trkpt>
      <trkpt lat="46.27012" lon="6.57632">
        <ele>1814.8</ele>
        <time>2023-01-21T12:31:42.000Z</time>
      </trkpt>
      <trkpt lat="46.27012" lon="6.57632">
        <ele>1814.8</ele>
        <time>2023-01-21T12:31:43.000Z</time>
      </trkpt>
      <trkpt lat="46.27012" lon="6.57632">
        <ele>1814.8</ele>
        <time>2023-01-21T12:31:44.000Z</time>
      </trkpt>
      <trkpt lat="46.27012" lon="6.57632">
        <ele>1817.9</ele>
        <time>2023-01-21T12:31:45.000Z</time>
      </trkpt>
      <trkpt lat="46.27012" lon="6.57632">
        <ele>1817.9</ele>
        <time>2023-01-21T12:31:46.000Z</time>
      </trkpt>
      <trkpt lat="46.27012" lon="6.57632">
        <ele>1817.9</ele>
        <time>2023-01-21T12:31:47.000Z</time>
      </trkpt>
      <trkpt lat="46.27012" lon="6.57632">
        <ele>1817.9</ele>
        <time>2023-01-21T12:31:48.000Z</time>
      </trkpt>
      <trkpt lat="46.27012" lon="6.57632">
        <ele>1817.9</ele>
        <time>2023-01-21T12:31:49.000Z</time>
      </trkpt>
      <trkpt lat="46.27012" lon="6.57632">
        <ele>1817.9</ele>
        <time>2023-01-21T12:31:50.000Z</time>
      </trkpt>
      <trkpt lat="46.27012" lon="6.57632">
        <ele>1817.9</ele>
        <time>2023-01-21T12:31:51.000Z</time>
      </trkpt>
      <trkpt lat="46.27012" lon="6.57632">
        <ele>1817.9</ele>
        <time>2023-01-21T12:31:52.000Z</time>
      </trkpt>
      <trkpt lat="46.27012" lon="6.57632">
        <ele>1817.9</ele>
        <time>2023-01-21T12:31:53.000Z</time>
      </trkpt>
      <trkpt lat="46.27012" lon="6.57632">
        <ele>1817.9</ele>
        <time>2023-01-21T12:31:54.000Z</time>
      </trkpt>
      <trkpt lat="46.27012" lon="6.57632">
        <ele>1817.9</ele>
        <time>2023-01-21T12:31:55.000Z</time>
      </trkpt>
      <trkpt lat="46.27012" lon="6.57632">
        <ele>1817.9</ele>
        <time>2023-01-21T12:31:56.000Z</time>
      </trkpt>
      <trkpt lat="46.27012" lon="6.57632">
        <ele>1817.9</ele>
        <time>2023-01-21T12:31:57.000Z</time>
      </trkpt>
      <trkpt lat="46.27012" lon="6.57632">
        <ele>1821.1</ele>
        <time>2023-01-21T12:31:58.000Z</time>
      </trkpt>
      <trkpt lat="46.27012" lon="6.57632">
        <ele>1821.1</ele>
        <time>2023-01-21T12:31:59.000Z</time>
      </trkpt>
      <trkpt lat="46.27012" lon="6.57632">
        <ele>1821.1</ele>
        <time>2023-01-21T12:32:00.000Z</time>
      </trkpt>
      <trkpt lat="46.27012" lon="6.57632">
        <ele>1821.1</ele>
        <time>2023-01-21T12:32:01.000Z</time>
      </trkpt>
      <trkpt lat="46.27012" lon="6.57632">
        <ele>1821.1</ele>
        <time>2023-01-21T12:32:02.000Z</time>
      </trkpt>
      <trkpt lat="46.27012" lon="6.57632">
        <ele>1821.1</ele>
        <time>2023-01-21T12:32:03.000Z</time>
      </trkpt>
      <trkpt lat="46.27012" lon="6.57632">
        <ele>1821.1</ele>
        <time>2023-01-21T12:32:04.000Z</time>
      </trkpt>
      <trkpt lat="46.27012" lon="6.57632">
        <ele>1821.1</ele>
        <time>2023-01-21T12:32:05.000Z</time>
      </trkpt>
      <trkpt lat="46.27012" lon="6.57632">
        <ele>1821.1</ele>
        <time>2023-01-21T12:32:06.000Z</time>
      </trkpt>
      <trkpt lat="46.27012" lon="6.57632">
        <ele>1821.1</ele>
        <time>2023-01-21T12:32:07.000Z</time>
      </trkpt>
      <trkpt lat="46.27012" lon="6.57632">
        <ele>1821.1</ele>
        <time>2023-01-21T12:32:08.000Z</time>
      </trkpt>
      <trkpt lat="46.27012" lon="6.57632">
        <ele>1821.1</ele>
        <time>2023-01-21T12:32:09.000Z</time>
      </trkpt>
      <trkpt lat="46.27012" lon="6.57632">
        <ele>1821.1</ele>
        <time>2023-01-21T12:32:10.000Z</time>
      </trkpt>
      <trkpt lat="46.27012" lon="6.57632">
        <ele>1821.1</ele>
        <time>2023-01-21T12:32:11.000Z</time>
      </trkpt>
      <trkpt lat="46.27012" lon="6.57632">
        <ele>1821.1</ele>
        <time>2023-01-21T12:32:12.000Z</time>
      </trkpt>
      <trkpt lat="46.27012" lon="6.57632">
        <ele>1821.1</ele>
        <time>2023-01-21T12:32:13.000Z</time>
      </trkpt>
      <trkpt lat="46.27012" lon="6.57632">
        <ele>1821.1</ele>
        <time>2023-01-21T12:32:14.000Z</time>
      </trkpt>
      <trkpt lat="46.27012" lon="6.57632">
        <ele>1821.1</ele>
        <time>2023-01-21T12:32:15.000Z</time>
      </trkpt>
      <trkpt lat="46.27012" lon="6.57632">
        <ele>1821.1</ele>
        <time>2023-01-21T12:32:16.000Z</time>
      </trkpt>
      <trkpt lat="46.27012" lon="6.57632">
        <ele>1821.1</ele>
        <time>2023-01-21T12:32:17.000Z</time>
      </trkpt>
      <trkpt lat="46.27003" lon="6.57631">
        <ele>1822.8</ele>
        <time>2023-01-21T12:32:18.000Z</time>
      </trkpt>
      <trkpt lat="46.27003" lon="6.57631">
        <ele>1822.9</ele>
        <time>2023-01-21T12:32:19.000Z</time>
      </trkpt>
      <trkpt lat="46.27003" lon="6.57631">
        <ele>1822.9</ele>
        <time>2023-01-21T12:32:20.000Z</time>
      </trkpt>
      <trkpt lat="46.27003" lon="6.57631">
        <ele>1822.9</ele>
        <time>2023-01-21T12:32:21.000Z</time>
      </trkpt>
      <trkpt lat="46.27003" lon="6.57631">
        <ele>1822.9</ele>
        <time>2023-01-21T12:32:22.000Z</time>
      </trkpt>
      <trkpt lat="46.27003" lon="6.57631">
        <ele>1822.9</ele>
        <time>2023-01-21T12:32:23.000Z</time>
      </trkpt>
      <trkpt lat="46.27003" lon="6.57631">
        <ele>1822.9</ele>
        <time>2023-01-21T12:32:24.000Z</time>
      </trkpt>
      <trkpt lat="46.27003" lon="6.57631">
        <ele>1822.9</ele>
        <time>2023-01-21T12:32:25.000Z</time>
      </trkpt>
      <trkpt lat="46.27003" lon="6.57631">
        <ele>1822.9</ele>
        <time>2023-01-21T12:32:26.000Z</time>
      </trkpt>
      <trkpt lat="46.27003" lon="6.57631">
        <ele>1822.9</ele>
        <time>2023-01-21T12:32:27.000Z</time>
      </trkpt>
      <trkpt lat="46.27003" lon="6.57631">
        <ele>1822.9</ele>
        <time>2023-01-21T12:32:28.000Z</time>
      </trkpt>
      <trkpt lat="46.27003" lon="6.57631">
        <ele>1822.9</ele>
        <time>2023-01-21T12:32:29.000Z</time>
      </trkpt>
      <trkpt lat="46.27003" lon="6.57631">
        <ele>1822.9</ele>
        <time>2023-01-21T12:32:30.000Z</time>
      </trkpt>
      <trkpt lat="46.27003" lon="6.57631">
        <ele>1822.9</ele>
        <time>2023-01-21T12:32:31.000Z</time>
      </trkpt>
      <trkpt lat="46.27003" lon="6.57631">
        <ele>1822.9</ele>
        <time>2023-01-21T12:32:32.000Z</time>
      </trkpt>
      <trkpt lat="46.27003" lon="6.57631">
        <ele>1822.9</ele>
        <time>2023-01-21T12:32:33.000Z</time>
      </trkpt>
      <trkpt lat="46.27003" lon="6.57631">
        <ele>1822.9</ele>
        <time>2023-01-21T12:32:34.000Z</time>
      </trkpt>
      <trkpt lat="46.27003" lon="6.57631">
        <ele>1822.9</ele>
        <time>2023-01-21T12:32:35.000Z</time>
      </trkpt>
      <trkpt lat="46.27003" lon="6.57631">
        <ele>1822.9</ele>
        <time>2023-01-21T12:32:36.000Z</time>
      </trkpt>
      <trkpt lat="46.27003" lon="6.57631">
        <ele>1822.9</ele>
        <time>2023-01-21T12:32:37.000Z</time>
      </trkpt>
      <trkpt lat="46.27003" lon="6.57631">
        <ele>1822.9</ele>
        <time>2023-01-21T12:32:38.000Z</time>
      </trkpt>
      <trkpt lat="46.27003" lon="6.57631">
        <ele>1822.9</ele>
        <time>2023-01-21T12:32:39.000Z</time>
      </trkpt>
      <trkpt lat="46.27003" lon="6.57631">
        <ele>1822.9</ele>
        <time>2023-01-21T12:32:40.000Z</time>
      </trkpt>
      <trkpt lat="46.27003" lon="6.57631">
        <ele>1822.9</ele>
        <time>2023-01-21T12:32:41.000Z</time>
      </trkpt>
      <trkpt lat="46.27003" lon="6.57631">
        <ele>1822.9</ele>
        <time>2023-01-21T12:32:42.000Z</time>
      </trkpt>
      <trkpt lat="46.27003" lon="6.57631">
        <ele>1822.9</ele>
        <time>2023-01-21T12:32:43.000Z</time>
      </trkpt>
      <trkpt lat="46.27003" lon="6.57631">
        <ele>1822.9</ele>
        <time>2023-01-21T12:32:44.000Z</time>
      </trkpt>
      <trkpt lat="46.27003" lon="6.57631">
        <ele>1822.9</ele>
        <time>2023-01-21T12:32:45.000Z</time>
      </trkpt>
      <trkpt lat="46.27003" lon="6.57631">
        <ele>1822.9</ele>
        <time>2023-01-21T12:32:46.000Z</time>
      </trkpt>
      <trkpt lat="46.27003" lon="6.57631">
        <ele>1822.9</ele>
        <time>2023-01-21T12:32:47.000Z</time>
      </trkpt>
      <trkpt lat="46.27003" lon="6.57631">
        <ele>1822.9</ele>
        <time>2023-01-21T12:32:48.000Z</time>
      </trkpt>
      <trkpt lat="46.27003" lon="6.57631">
        <ele>1822.9</ele>
        <time>2023-01-21T12:32:49.000Z</time>
      </trkpt>
      <trkpt lat="46.27003" lon="6.57631">
        <ele>1822.9</ele>
        <time>2023-01-21T12:32:50.000Z</time>
      </trkpt>
      <trkpt lat="46.27003" lon="6.57631">
        <ele>1822.9</ele>
        <time>2023-01-21T12:32:51.000Z</time>
      </trkpt>
      <trkpt lat="46.27003" lon="6.57631">
        <ele>1822.9</ele>
        <time>2023-01-21T12:32:52.000Z</time>
      </trkpt>
      <trkpt lat="46.27003" lon="6.57631">
        <ele>1822.9</ele>
        <time>2023-01-21T12:32:53.000Z</time>
      </trkpt>
      <trkpt lat="46.27003" lon="6.57631">
        <ele>1822.9</ele>
        <time>2023-01-21T12:32:54.000Z</time>
      </trkpt>
      <trkpt lat="46.27003" lon="6.57631">
        <ele>1822.9</ele>
        <time>2023-01-21T12:32:55.000Z</time>
      </trkpt>
      <trkpt lat="46.27003" lon="6.57631">
        <ele>1822.9</ele>
        <time>2023-01-21T12:32:56.000Z</time>
      </trkpt>
      <trkpt lat="46.27003" lon="6.57631">
        <ele>1822.9</ele>
        <time>2023-01-21T12:32:57.000Z</time>
      </trkpt>
      <trkpt lat="46.27003" lon="6.57631">
        <ele>1822.9</ele>
        <time>2023-01-21T12:32:58.000Z</time>
      </trkpt>
      <trkpt lat="46.27003" lon="6.57631">
        <ele>1822.9</ele>
        <time>2023-01-21T12:32:59.000Z</time>
      </trkpt>
      <trkpt lat="46.27003" lon="6.57631">
        <ele>1822.9</ele>
        <time>2023-01-21T12:33:00.000Z</time>
      </trkpt>
      <trkpt lat="46.27003" lon="6.57631">
        <ele>1822.9</ele>
        <time>2023-01-21T12:33:01.000Z</time>
      </trkpt>
      <trkpt lat="46.27003" lon="6.57631">
        <ele>1822.9</ele>
        <time>2023-01-21T12:33:02.000Z</time>
      </trkpt>
      <trkpt lat="46.27003" lon="6.57631">
        <ele>1822.9</ele>
        <time>2023-01-21T12:33:03.000Z</time>
      </trkpt>
      <trkpt lat="46.27003" lon="6.57631">
        <ele>1822.9</ele>
        <time>2023-01-21T12:33:04.000Z</time>
      </trkpt>
      <trkpt lat="46.27003" lon="6.57631">
        <ele>1822.9</ele>
        <time>2023-01-21T12:33:05.000Z</time>
      </trkpt>
      <trkpt lat="46.27003" lon="6.57631">
        <ele>1822.9</ele>
        <time>2023-01-21T12:33:06.000Z</time>
      </trkpt>
      <trkpt lat="46.27003" lon="6.57631">
        <ele>1822.9</ele>
        <time>2023-01-21T12:33:07.000Z</time>
      </trkpt>
      <trkpt lat="46.27003" lon="6.57631">
        <ele>1822.9</ele>
        <time>2023-01-21T12:33:08.000Z</time>
      </trkpt>
      <trkpt lat="46.27003" lon="6.57631">
        <ele>1822.9</ele>
        <time>2023-01-21T12:33:09.000Z</time>
      </trkpt>
      <trkpt lat="46.27003" lon="6.57631">
        <ele>1822.9</ele>
        <time>2023-01-21T12:33:10.000Z</time>
      </trkpt>
      <trkpt lat="46.27003" lon="6.57631">
        <ele>1822.9</ele>
        <time>2023-01-21T12:33:11.000Z</time>
      </trkpt>
      <trkpt lat="46.27003" lon="6.57631">
        <ele>1822.9</ele>
        <time>2023-01-21T12:33:12.000Z</time>
      </trkpt>
      <trkpt lat="46.27003" lon="6.57631">
        <ele>1822.9</ele>
        <time>2023-01-21T12:33:13.000Z</time>
      </trkpt>
      <trkpt lat="46.27003" lon="6.57631">
        <ele>1822.9</ele>
        <time>2023-01-21T12:33:14.000Z</time>
      </trkpt>
      <trkpt lat="46.27003" lon="6.57631">
        <ele>1822.9</ele>
        <time>2023-01-21T12:33:15.000Z</time>
      </trkpt>
      <trkpt lat="46.27003" lon="6.57631">
        <ele>1822.9</ele>
        <time>2023-01-21T12:33:16.000Z</time>
      </trkpt>
      <trkpt lat="46.27003" lon="6.57631">
        <ele>1822.9</ele>
        <time>2023-01-21T12:33:17.000Z</time>
      </trkpt>
      <trkpt lat="46.27003" lon="6.57631">
        <ele>1822.9</ele>
        <time>2023-01-21T12:33:18.000Z</time>
      </trkpt>
      <trkpt lat="46.27003" lon="6.57631">
        <ele>1822.9</ele>
        <time>2023-01-21T12:33:19.000Z</time>
      </trkpt>
      <trkpt lat="46.27003" lon="6.57631">
        <ele>1822.9</ele>
        <time>2023-01-21T12:33:20.000Z</time>
      </trkpt>
      <trkpt lat="46.27003" lon="6.57631">
        <ele>1822.9</ele>
        <time>2023-01-21T12:33:21.000Z</time>
      </trkpt>
      <trkpt lat="46.27003" lon="6.57631">
        <ele>1822.9</ele>
        <time>2023-01-21T12:33:22.000Z</time>
      </trkpt>
      <trkpt lat="46.27003" lon="6.57631">
        <ele>1822.9</ele>
        <time>2023-01-21T12:33:23.000Z</time>
      </trkpt>
      <trkpt lat="46.27003" lon="6.57631">
        <ele>1822.9</ele>
        <time>2023-01-21T12:33:24.000Z</time>
      </trkpt>
      <trkpt lat="46.27003" lon="6.57631">
        <ele>1822.9</ele>
        <time>2023-01-21T12:33:25.000Z</time>
      </trkpt>
      <trkpt lat="46.27003" lon="6.57631">
        <ele>1822.9</ele>
        <time>2023-01-21T12:33:26.000Z</time>
      </trkpt>
      <trkpt lat="46.27003" lon="6.57631">
        <ele>1822.9</ele>
        <time>2023-01-21T12:33:27.000Z</time>
      </trkpt>
      <trkpt lat="46.27003" lon="6.57631">
        <ele>1822.9</ele>
        <time>2023-01-21T12:33:28.000Z</time>
      </trkpt>
      <trkpt lat="46.27003" lon="6.57631">
        <ele>1822.9</ele>
        <time>2023-01-21T12:33:29.000Z</time>
      </trkpt>
      <trkpt lat="46.27003" lon="6.57631">
        <ele>1822.9</ele>
        <time>2023-01-21T12:33:30.000Z</time>
      </trkpt>
      <trkpt lat="46.27003" lon="6.57631">
        <ele>1822.9</ele>
        <time>2023-01-21T12:33:31.000Z</time>
      </trkpt>
      <trkpt lat="46.27003" lon="6.57631">
        <ele>1822.9</ele>
        <time>2023-01-21T12:33:32.000Z</time>
      </trkpt>
      <trkpt lat="46.27003" lon="6.57631">
        <ele>1822.9</ele>
        <time>2023-01-21T12:33:33.000Z</time>
      </trkpt>
      <trkpt lat="46.27003" lon="6.57631">
        <ele>1822.9</ele>
        <time>2023-01-21T12:33:34.000Z</time>
      </trkpt>
      <trkpt lat="46.27003" lon="6.57631">
        <ele>1822.9</ele>
        <time>2023-01-21T12:33:35.000Z</time>
      </trkpt>
      <trkpt lat="46.27003" lon="6.57631">
        <ele>1822.9</ele>
        <time>2023-01-21T12:33:36.000Z</time>
      </trkpt>
      <trkpt lat="46.27003" lon="6.57631">
        <ele>1822.9</ele>
        <time>2023-01-21T12:33:37.000Z</time>
      </trkpt>
      <trkpt lat="46.27003" lon="6.57631">
        <ele>1822.9</ele>
        <time>2023-01-21T12:33:38.000Z</time>
      </trkpt>
      <trkpt lat="46.27003" lon="6.57631">
        <ele>1822.9</ele>
        <time>2023-01-21T12:33:39.000Z</time>
      </trkpt>
      <trkpt lat="46.27003" lon="6.57631">
        <ele>1822.9</ele>
        <time>2023-01-21T12:33:40.000Z</time>
      </trkpt>
      <trkpt lat="46.27003" lon="6.57631">
        <ele>1822.9</ele>
        <time>2023-01-21T12:33:41.000Z</time>
      </trkpt>
      <trkpt lat="46.27003" lon="6.57631">
        <ele>1822.9</ele>
        <time>2023-01-21T12:33:42.000Z</time>
      </trkpt>
      <trkpt lat="46.27003" lon="6.57631">
        <ele>1822.9</ele>
        <time>2023-01-21T12:33:43.000Z</time>
      </trkpt>
      <trkpt lat="46.27003" lon="6.57631">
        <ele>1822.9</ele>
        <time>2023-01-21T12:33:44.000Z</time>
      </trkpt>
      <trkpt lat="46.27003" lon="6.57631">
        <ele>1822.9</ele>
        <time>2023-01-21T12:33:45.000Z</time>
      </trkpt>
      <trkpt lat="46.27003" lon="6.57631">
        <ele>1822.9</ele>
        <time>2023-01-21T12:33:46.000Z</time>
      </trkpt>
      <trkpt lat="46.27003" lon="6.57631">
        <ele>1822.9</ele>
        <time>2023-01-21T12:33:47.000Z</time>
      </trkpt>
      <trkpt lat="46.27003" lon="6.57631">
        <ele>1822.9</ele>
        <time>2023-01-21T12:33:48.000Z</time>
      </trkpt>
      <trkpt lat="46.27003" lon="6.57631">
        <ele>1822.9</ele>
        <time>2023-01-21T12:33:49.000Z</time>
      </trkpt>
      <trkpt lat="46.27003" lon="6.57631">
        <ele>1822.9</ele>
        <time>2023-01-21T12:33:50.000Z</time>
      </trkpt>
      <trkpt lat="46.27003" lon="6.57631">
        <ele>1822.9</ele>
        <time>2023-01-21T12:33:51.000Z</time>
      </trkpt>
      <trkpt lat="46.27003" lon="6.57631">
        <ele>1822.9</ele>
        <time>2023-01-21T12:33:52.000Z</time>
      </trkpt>
      <trkpt lat="46.27003" lon="6.57631">
        <ele>1822.9</ele>
        <time>2023-01-21T12:33:53.000Z</time>
      </trkpt>
      <trkpt lat="46.27003" lon="6.57631">
        <ele>1822.9</ele>
        <time>2023-01-21T12:33:54.000Z</time>
      </trkpt>
      <trkpt lat="46.27003" lon="6.57631">
        <ele>1822.9</ele>
        <time>2023-01-21T12:33:55.000Z</time>
      </trkpt>
      <trkpt lat="46.27003" lon="6.57631">
        <ele>1822.9</ele>
        <time>2023-01-21T12:33:56.000Z</time>
      </trkpt>
      <trkpt lat="46.27003" lon="6.57631">
        <ele>1822.9</ele>
        <time>2023-01-21T12:33:57.000Z</time>
      </trkpt>
      <trkpt lat="46.27003" lon="6.57631">
        <ele>1822.9</ele>
        <time>2023-01-21T12:33:58.000Z</time>
      </trkpt>
      <trkpt lat="46.27003" lon="6.57631">
        <ele>1822.9</ele>
        <time>2023-01-21T12:33:59.000Z</time>
      </trkpt>
      <trkpt lat="46.27003" lon="6.57631">
        <ele>1822.9</ele>
        <time>2023-01-21T12:34:00.000Z</time>
      </trkpt>
      <trkpt lat="46.27003" lon="6.57631">
        <ele>1822.9</ele>
        <time>2023-01-21T12:34:01.000Z</time>
      </trkpt>
      <trkpt lat="46.27003" lon="6.57631">
        <ele>1822.9</ele>
        <time>2023-01-21T12:34:02.000Z</time>
      </trkpt>
      <trkpt lat="46.27003" lon="6.57631">
        <ele>1822.9</ele>
        <time>2023-01-21T12:34:03.000Z</time>
      </trkpt>
      <trkpt lat="46.27003" lon="6.57631">
        <ele>1822.9</ele>
        <time>2023-01-21T12:34:04.000Z</time>
      </trkpt>
      <trkpt lat="46.27003" lon="6.57631">
        <ele>1822.9</ele>
        <time>2023-01-21T12:34:05.000Z</time>
      </trkpt>
      <trkpt lat="46.27003" lon="6.57631">
        <ele>1822.9</ele>
        <time>2023-01-21T12:34:06.000Z</time>
      </trkpt>
      <trkpt lat="46.27003" lon="6.57631">
        <ele>1822.9</ele>
        <time>2023-01-21T12:34:07.000Z</time>
      </trkpt>
      <trkpt lat="46.27003" lon="6.57631">
        <ele>1822.9</ele>
        <time>2023-01-21T12:34:08.000Z</time>
      </trkpt>
      <trkpt lat="46.27003" lon="6.57631">
        <ele>1822.9</ele>
        <time>2023-01-21T12:34:09.000Z</time>
      </trkpt>
      <trkpt lat="46.27003" lon="6.57631">
        <ele>1822.9</ele>
        <time>2023-01-21T12:34:10.000Z</time>
      </trkpt>
      <trkpt lat="46.27003" lon="6.57631">
        <ele>1822.9</ele>
        <time>2023-01-21T12:34:11.000Z</time>
      </trkpt>
      <trkpt lat="46.27003" lon="6.57631">
        <ele>1822.9</ele>
        <time>2023-01-21T12:34:12.000Z</time>
      </trkpt>
      <trkpt lat="46.27003" lon="6.57631">
        <ele>1822.9</ele>
        <time>2023-01-21T12:34:13.000Z</time>
      </trkpt>
      <trkpt lat="46.27003" lon="6.57631">
        <ele>1822.9</ele>
        <time>2023-01-21T12:34:14.000Z</time>
      </trkpt>
      <trkpt lat="46.27003" lon="6.57631">
        <ele>1822.9</ele>
        <time>2023-01-21T12:34:15.000Z</time>
      </trkpt>
      <trkpt lat="46.27003" lon="6.57631">
        <ele>1822.9</ele>
        <time>2023-01-21T12:34:16.000Z</time>
      </trkpt>
      <trkpt lat="46.27003" lon="6.57631">
        <ele>1822.9</ele>
        <time>2023-01-21T12:34:17.000Z</time>
      </trkpt>
      <trkpt lat="46.27003" lon="6.57631">
        <ele>1822.9</ele>
        <time>2023-01-21T12:34:18.000Z</time>
      </trkpt>
      <trkpt lat="46.27012" lon="6.57627">
        <ele>1821.7</ele>
        <time>2023-01-21T12:34:19.000Z</time>
      </trkpt>
      <trkpt lat="46.27012" lon="6.57626">
        <ele>1821.6</ele>
        <time>2023-01-21T12:34:20.000Z</time>
      </trkpt>
      <trkpt lat="46.27012" lon="6.57626">
        <ele>1821.6</ele>
        <time>2023-01-21T12:34:21.000Z</time>
      </trkpt>
      <trkpt lat="46.27012" lon="6.57626">
        <ele>1821.7</ele>
        <time>2023-01-21T12:34:22.000Z</time>
      </trkpt>
      <trkpt lat="46.27012" lon="6.57626">
        <ele>1821.7</ele>
        <time>2023-01-21T12:34:23.000Z</time>
      </trkpt>
      <trkpt lat="46.27012" lon="6.57626">
        <ele>1821.7</ele>
        <time>2023-01-21T12:34:24.000Z</time>
      </trkpt>
      <trkpt lat="46.27012" lon="6.57626">
        <ele>1821.7</ele>
        <time>2023-01-21T12:34:25.000Z</time>
      </trkpt>
      <trkpt lat="46.27012" lon="6.57626">
        <ele>1821.7</ele>
        <time>2023-01-21T12:34:26.000Z</time>
      </trkpt>
      <trkpt lat="46.27012" lon="6.57626">
        <ele>1821.7</ele>
        <time>2023-01-21T12:34:27.000Z</time>
      </trkpt>
      <trkpt lat="46.27012" lon="6.57626">
        <ele>1821.7</ele>
        <time>2023-01-21T12:34:28.000Z</time>
      </trkpt>
      <trkpt lat="46.27012" lon="6.57626">
        <ele>1821.7</ele>
        <time>2023-01-21T12:34:29.000Z</time>
      </trkpt>
      <trkpt lat="46.27012" lon="6.57626">
        <ele>1821.7</ele>
        <time>2023-01-21T12:34:30.000Z</time>
      </trkpt>
      <trkpt lat="46.27012" lon="6.57626">
        <ele>1821.7</ele>
        <time>2023-01-21T12:34:31.000Z</time>
      </trkpt>
      <trkpt lat="46.27012" lon="6.57626">
        <ele>1821.7</ele>
        <time>2023-01-21T12:34:32.000Z</time>
      </trkpt>
      <trkpt lat="46.27012" lon="6.57626">
        <ele>1821.7</ele>
        <time>2023-01-21T12:34:33.000Z</time>
      </trkpt>
      <trkpt lat="46.27012" lon="6.57626">
        <ele>1821.7</ele>
        <time>2023-01-21T12:34:34.000Z</time>
      </trkpt>
      <trkpt lat="46.27012" lon="6.57626">
        <ele>1821.7</ele>
        <time>2023-01-21T12:34:35.000Z</time>
      </trkpt>
      <trkpt lat="46.27012" lon="6.57626">
        <ele>1821.7</ele>
        <time>2023-01-21T12:34:36.000Z</time>
      </trkpt>
      <trkpt lat="46.27012" lon="6.57626">
        <ele>1821.7</ele>
        <time>2023-01-21T12:34:37.000Z</time>
      </trkpt>
      <trkpt lat="46.27012" lon="6.57626">
        <ele>1821.7</ele>
        <time>2023-01-21T12:34:38.000Z</time>
      </trkpt>
      <trkpt lat="46.27012" lon="6.57626">
        <ele>1821.7</ele>
        <time>2023-01-21T12:34:39.000Z</time>
      </trkpt>
      <trkpt lat="46.27012" lon="6.57626">
        <ele>1821.7</ele>
        <time>2023-01-21T12:34:40.000Z</time>
      </trkpt>
      <trkpt lat="46.27014" lon="6.57613">
        <ele>1821.5</ele>
        <time>2023-01-21T12:34:41.000Z</time>
      </trkpt>
      <trkpt lat="46.27014" lon="6.57612">
        <ele>1821.5</ele>
        <time>2023-01-21T12:34:42.000Z</time>
      </trkpt>
      <trkpt lat="46.27015" lon="6.5761">
        <ele>1821.6</ele>
        <time>2023-01-21T12:34:43.000Z</time>
      </trkpt>
      <trkpt lat="46.27015" lon="6.5761">
        <ele>1821.6</ele>
        <time>2023-01-21T12:34:44.000Z</time>
      </trkpt>
      <trkpt lat="46.27015" lon="6.5761">
        <ele>1821.6</ele>
        <time>2023-01-21T12:34:45.000Z</time>
      </trkpt>
      <trkpt lat="46.27015" lon="6.5761">
        <ele>1821.6</ele>
        <time>2023-01-21T12:34:46.000Z</time>
      </trkpt>
      <trkpt lat="46.27015" lon="6.5761">
        <ele>1821.6</ele>
        <time>2023-01-21T12:34:47.000Z</time>
      </trkpt>
      <trkpt lat="46.27015" lon="6.5761">
        <ele>1821.6</ele>
        <time>2023-01-21T12:34:48.000Z</time>
      </trkpt>
      <trkpt lat="46.27015" lon="6.5761">
        <ele>1821.6</ele>
        <time>2023-01-21T12:34:49.000Z</time>
      </trkpt>
      <trkpt lat="46.27015" lon="6.5761">
        <ele>1821.6</ele>
        <time>2023-01-21T12:34:50.000Z</time>
      </trkpt>
      <trkpt lat="46.27015" lon="6.5761">
        <ele>1821.6</ele>
        <time>2023-01-21T12:34:51.000Z</time>
      </trkpt>
      <trkpt lat="46.27015" lon="6.5761">
        <ele>1821.6</ele>
        <time>2023-01-21T12:34:52.000Z</time>
      </trkpt>
      <trkpt lat="46.27015" lon="6.5761">
        <ele>1821.6</ele>
        <time>2023-01-21T12:34:53.000Z</time>
      </trkpt>
      <trkpt lat="46.27015" lon="6.5761">
        <ele>1821.6</ele>
        <time>2023-01-21T12:34:54.000Z</time>
      </trkpt>
      <trkpt lat="46.27015" lon="6.5761">
        <ele>1821.6</ele>
        <time>2023-01-21T12:34:55.000Z</time>
      </trkpt>
      <trkpt lat="46.27015" lon="6.5761">
        <ele>1821.6</ele>
        <time>2023-01-21T12:34:56.000Z</time>
      </trkpt>
      <trkpt lat="46.27015" lon="6.5761">
        <ele>1821.6</ele>
        <time>2023-01-21T12:34:57.000Z</time>
      </trkpt>
      <trkpt lat="46.27015" lon="6.5761">
        <ele>1821.6</ele>
        <time>2023-01-21T12:34:58.000Z</time>
      </trkpt>
      <trkpt lat="46.27015" lon="6.5761">
        <ele>1821.6</ele>
        <time>2023-01-21T12:34:59.000Z</time>
      </trkpt>
      <trkpt lat="46.27015" lon="6.5761">
        <ele>1821.6</ele>
        <time>2023-01-21T12:35:00.000Z</time>
      </trkpt>
      <trkpt lat="46.27015" lon="6.5761">
        <ele>1821.6</ele>
        <time>2023-01-21T12:35:01.000Z</time>
      </trkpt>
      <trkpt lat="46.27015" lon="6.5761">
        <ele>1821.6</ele>
        <time>2023-01-21T12:35:02.000Z</time>
      </trkpt>
      <trkpt lat="46.27015" lon="6.5761">
        <ele>1821.6</ele>
        <time>2023-01-21T12:35:03.000Z</time>
      </trkpt>
      <trkpt lat="46.27015" lon="6.5761">
        <ele>1821.6</ele>
        <time>2023-01-21T12:35:04.000Z</time>
      </trkpt>
      <trkpt lat="46.27015" lon="6.5761">
        <ele>1821.6</ele>
        <time>2023-01-21T12:35:05.000Z</time>
      </trkpt>
      <trkpt lat="46.27015" lon="6.5761">
        <ele>1821.6</ele>
        <time>2023-01-21T12:35:06.000Z</time>
      </trkpt>
      <trkpt lat="46.27016" lon="6.57597">
        <ele>1822.1</ele>
        <time>2023-01-21T12:35:07.000Z</time>
      </trkpt>
      <trkpt lat="46.27016" lon="6.57596">
        <ele>1822</ele>
        <time>2023-01-21T12:35:08.000Z</time>
      </trkpt>
      <trkpt lat="46.27016" lon="6.57596">
        <ele>1822</ele>
        <time>2023-01-21T12:35:09.000Z</time>
      </trkpt>
      <trkpt lat="46.27016" lon="6.57596">
        <ele>1822.1</ele>
        <time>2023-01-21T12:35:10.000Z</time>
      </trkpt>
      <trkpt lat="46.27016" lon="6.57596">
        <ele>1822.1</ele>
        <time>2023-01-21T12:35:11.000Z</time>
      </trkpt>
      <trkpt lat="46.27016" lon="6.57596">
        <ele>1822.1</ele>
        <time>2023-01-21T12:35:12.000Z</time>
      </trkpt>
      <trkpt lat="46.27016" lon="6.57596">
        <ele>1822.1</ele>
        <time>2023-01-21T12:35:13.000Z</time>
      </trkpt>
      <trkpt lat="46.27016" lon="6.57596">
        <ele>1822.1</ele>
        <time>2023-01-21T12:35:14.000Z</time>
      </trkpt>
      <trkpt lat="46.27016" lon="6.57596">
        <ele>1822.1</ele>
        <time>2023-01-21T12:35:15.000Z</time>
      </trkpt>
      <trkpt lat="46.27016" lon="6.57596">
        <ele>1822.1</ele>
        <time>2023-01-21T12:35:16.000Z</time>
      </trkpt>
      <trkpt lat="46.27016" lon="6.57596">
        <ele>1822.1</ele>
        <time>2023-01-21T12:35:17.000Z</time>
      </trkpt>
      <trkpt lat="46.27016" lon="6.57596">
        <ele>1822.1</ele>
        <time>2023-01-21T12:35:18.000Z</time>
      </trkpt>
      <trkpt lat="46.27016" lon="6.57596">
        <ele>1822.1</ele>
        <time>2023-01-21T12:35:19.000Z</time>
      </trkpt>
      <trkpt lat="46.27016" lon="6.57596">
        <ele>1822.1</ele>
        <time>2023-01-21T12:35:20.000Z</time>
      </trkpt>
      <trkpt lat="46.27016" lon="6.57596">
        <ele>1822.1</ele>
        <time>2023-01-21T12:35:21.000Z</time>
      </trkpt>
      <trkpt lat="46.27016" lon="6.57596">
        <ele>1822.1</ele>
        <time>2023-01-21T12:35:22.000Z</time>
      </trkpt>
      <trkpt lat="46.27016" lon="6.57596">
        <ele>1822.1</ele>
        <time>2023-01-21T12:35:23.000Z</time>
      </trkpt>
      <trkpt lat="46.27016" lon="6.57596">
        <ele>1822.1</ele>
        <time>2023-01-21T12:35:24.000Z</time>
      </trkpt>
      <trkpt lat="46.27016" lon="6.57596">
        <ele>1822.1</ele>
        <time>2023-01-21T12:35:25.000Z</time>
      </trkpt>
      <trkpt lat="46.27016" lon="6.57596">
        <ele>1822.1</ele>
        <time>2023-01-21T12:35:26.000Z</time>
      </trkpt>
      <trkpt lat="46.27016" lon="6.57596">
        <ele>1822.1</ele>
        <time>2023-01-21T12:35:27.000Z</time>
      </trkpt>
      <trkpt lat="46.27016" lon="6.57596">
        <ele>1822.1</ele>
        <time>2023-01-21T12:35:28.000Z</time>
      </trkpt>
      <trkpt lat="46.27016" lon="6.57596">
        <ele>1822.1</ele>
        <time>2023-01-21T12:35:29.000Z</time>
      </trkpt>
      <trkpt lat="46.27016" lon="6.57596">
        <ele>1822.1</ele>
        <time>2023-01-21T12:35:30.000Z</time>
      </trkpt>
      <trkpt lat="46.27016" lon="6.57596">
        <ele>1822.1</ele>
        <time>2023-01-21T12:35:31.000Z</time>
      </trkpt>
      <trkpt lat="46.27016" lon="6.57596">
        <ele>1822.1</ele>
        <time>2023-01-21T12:35:32.000Z</time>
      </trkpt>
      <trkpt lat="46.27016" lon="6.57596">
        <ele>1822.1</ele>
        <time>2023-01-21T12:35:33.000Z</time>
      </trkpt>
      <trkpt lat="46.27016" lon="6.57596">
        <ele>1822.1</ele>
        <time>2023-01-21T12:35:34.000Z</time>
      </trkpt>
      <trkpt lat="46.27016" lon="6.57596">
        <ele>1822.1</ele>
        <time>2023-01-21T12:35:35.000Z</time>
      </trkpt>
      <trkpt lat="46.27016" lon="6.57596">
        <ele>1822.1</ele>
        <time>2023-01-21T12:35:36.000Z</time>
      </trkpt>
      <trkpt lat="46.27016" lon="6.57596">
        <ele>1822.1</ele>
        <time>2023-01-21T12:35:37.000Z</time>
      </trkpt>
      <trkpt lat="46.27016" lon="6.57596">
        <ele>1825.2</ele>
        <time>2023-01-21T12:35:38.000Z</time>
      </trkpt>
      <trkpt lat="46.27016" lon="6.57596">
        <ele>1825.2</ele>
        <time>2023-01-21T12:35:39.000Z</time>
      </trkpt>
      <trkpt lat="46.27016" lon="6.57596">
        <ele>1825.2</ele>
        <time>2023-01-21T12:35:40.000Z</time>
      </trkpt>
      <trkpt lat="46.27018" lon="6.57583">
        <ele>1825.5</ele>
        <time>2023-01-21T12:35:41.000Z</time>
      </trkpt>
      <trkpt lat="46.27018" lon="6.57583">
        <ele>1825.6</ele>
        <time>2023-01-21T12:35:42.000Z</time>
      </trkpt>
      <trkpt lat="46.27018" lon="6.57582">
        <ele>1825.6</ele>
        <time>2023-01-21T12:35:43.000Z</time>
      </trkpt>
      <trkpt lat="46.27018" lon="6.57582">
        <ele>1825.6</ele>
        <time>2023-01-21T12:35:44.000Z</time>
      </trkpt>
      <trkpt lat="46.27018" lon="6.57582">
        <ele>1825.6</ele>
        <time>2023-01-21T12:35:45.000Z</time>
      </trkpt>
      <trkpt lat="46.27018" lon="6.57582">
        <ele>1825.6</ele>
        <time>2023-01-21T12:35:46.000Z</time>
      </trkpt>
      <trkpt lat="46.27018" lon="6.57582">
        <ele>1825.6</ele>
        <time>2023-01-21T12:35:47.000Z</time>
      </trkpt>
      <trkpt lat="46.27018" lon="6.57582">
        <ele>1825.6</ele>
        <time>2023-01-21T12:35:48.000Z</time>
      </trkpt>
      <trkpt lat="46.27018" lon="6.57582">
        <ele>1825.6</ele>
        <time>2023-01-21T12:35:49.000Z</time>
      </trkpt>
      <trkpt lat="46.27018" lon="6.57582">
        <ele>1825.6</ele>
        <time>2023-01-21T12:35:50.000Z</time>
      </trkpt>
      <trkpt lat="46.27018" lon="6.57582">
        <ele>1825.6</ele>
        <time>2023-01-21T12:35:51.000Z</time>
      </trkpt>
      <trkpt lat="46.27018" lon="6.57582">
        <ele>1825.6</ele>
        <time>2023-01-21T12:35:52.000Z</time>
      </trkpt>
      <trkpt lat="46.27018" lon="6.57582">
        <ele>1825.6</ele>
        <time>2023-01-21T12:35:53.000Z</time>
      </trkpt>
      <trkpt lat="46.27018" lon="6.57582">
        <ele>1825.6</ele>
        <time>2023-01-21T12:35:54.000Z</time>
      </trkpt>
      <trkpt lat="46.27018" lon="6.57582">
        <ele>1825.6</ele>
        <time>2023-01-21T12:35:55.000Z</time>
      </trkpt>
      <trkpt lat="46.27018" lon="6.57582">
        <ele>1825.6</ele>
        <time>2023-01-21T12:35:56.000Z</time>
      </trkpt>
      <trkpt lat="46.27018" lon="6.57582">
        <ele>1825.6</ele>
        <time>2023-01-21T12:35:57.000Z</time>
      </trkpt>
      <trkpt lat="46.27018" lon="6.57582">
        <ele>1825.6</ele>
        <time>2023-01-21T12:35:58.000Z</time>
      </trkpt>
      <trkpt lat="46.27018" lon="6.57582">
        <ele>1825.6</ele>
        <time>2023-01-21T12:35:59.000Z</time>
      </trkpt>
      <trkpt lat="46.27018" lon="6.57582">
        <ele>1825.6</ele>
        <time>2023-01-21T12:36:00.000Z</time>
      </trkpt>
      <trkpt lat="46.27018" lon="6.57582">
        <ele>1825.6</ele>
        <time>2023-01-21T12:36:01.000Z</time>
      </trkpt>
      <trkpt lat="46.27018" lon="6.57582">
        <ele>1825.6</ele>
        <time>2023-01-21T12:36:02.000Z</time>
      </trkpt>
      <trkpt lat="46.27009" lon="6.57581">
        <ele>1826.4</ele>
        <time>2023-01-21T12:36:03.000Z</time>
      </trkpt>
      <trkpt lat="46.27008" lon="6.57581">
        <ele>1826.4</ele>
        <time>2023-01-21T12:36:04.000Z</time>
      </trkpt>
      <trkpt lat="46.27008" lon="6.57581">
        <ele>1826.3</ele>
        <time>2023-01-21T12:36:05.000Z</time>
      </trkpt>
      <trkpt lat="46.27007" lon="6.57581">
        <ele>1826.2</ele>
        <time>2023-01-21T12:36:06.000Z</time>
      </trkpt>
      <trkpt lat="46.27007" lon="6.57581">
        <ele>1826.2</ele>
        <time>2023-01-21T12:36:07.000Z</time>
      </trkpt>
      <trkpt lat="46.27007" lon="6.57581">
        <ele>1826.2</ele>
        <time>2023-01-21T12:36:08.000Z</time>
      </trkpt>
      <trkpt lat="46.27007" lon="6.57581">
        <ele>1826.2</ele>
        <time>2023-01-21T12:36:09.000Z</time>
      </trkpt>
      <trkpt lat="46.27007" lon="6.57581">
        <ele>1826.2</ele>
        <time>2023-01-21T12:36:10.000Z</time>
      </trkpt>
      <trkpt lat="46.27007" lon="6.57581">
        <ele>1826.2</ele>
        <time>2023-01-21T12:36:11.000Z</time>
      </trkpt>
      <trkpt lat="46.27007" lon="6.57581">
        <ele>1826.2</ele>
        <time>2023-01-21T12:36:12.000Z</time>
      </trkpt>
      <trkpt lat="46.27007" lon="6.57581">
        <ele>1826.2</ele>
        <time>2023-01-21T12:36:13.000Z</time>
      </trkpt>
      <trkpt lat="46.27007" lon="6.57581">
        <ele>1826.2</ele>
        <time>2023-01-21T12:36:14.000Z</time>
      </trkpt>
      <trkpt lat="46.27007" lon="6.57581">
        <ele>1826.2</ele>
        <time>2023-01-21T12:36:15.000Z</time>
      </trkpt>
      <trkpt lat="46.27007" lon="6.57581">
        <ele>1826.2</ele>
        <time>2023-01-21T12:36:16.000Z</time>
      </trkpt>
      <trkpt lat="46.27007" lon="6.57581">
        <ele>1826.2</ele>
        <time>2023-01-21T12:36:17.000Z</time>
      </trkpt>
      <trkpt lat="46.27007" lon="6.57581">
        <ele>1826.2</ele>
        <time>2023-01-21T12:36:18.000Z</time>
      </trkpt>
      <trkpt lat="46.27007" lon="6.57581">
        <ele>1826.2</ele>
        <time>2023-01-21T12:36:19.000Z</time>
      </trkpt>
      <trkpt lat="46.27007" lon="6.57581">
        <ele>1826.2</ele>
        <time>2023-01-21T12:36:20.000Z</time>
      </trkpt>
      <trkpt lat="46.27007" lon="6.57581">
        <ele>1826.2</ele>
        <time>2023-01-21T12:36:21.000Z</time>
      </trkpt>
      <trkpt lat="46.27007" lon="6.57581">
        <ele>1826.2</ele>
        <time>2023-01-21T12:36:22.000Z</time>
      </trkpt>
      <trkpt lat="46.27007" lon="6.57581">
        <ele>1826.2</ele>
        <time>2023-01-21T12:36:23.000Z</time>
      </trkpt>
      <trkpt lat="46.27007" lon="6.57581">
        <ele>1826.2</ele>
        <time>2023-01-21T12:36:24.000Z</time>
      </trkpt>
      <trkpt lat="46.27007" lon="6.57581">
        <ele>1826.2</ele>
        <time>2023-01-21T12:36:25.000Z</time>
      </trkpt>
      <trkpt lat="46.26998" lon="6.57582">
        <ele>1825.5</ele>
        <time>2023-01-21T12:36:26.000Z</time>
      </trkpt>
      <trkpt lat="46.26998" lon="6.57582">
        <ele>1825.5</ele>
        <time>2023-01-21T12:36:27.000Z</time>
      </trkpt>
      <trkpt lat="46.26997" lon="6.57582">
        <ele>1825.5</ele>
        <time>2023-01-21T12:36:28.000Z</time>
      </trkpt>
      <trkpt lat="46.26996" lon="6.57582">
        <ele>1825.6</ele>
        <time>2023-01-21T12:36:29.000Z</time>
      </trkpt>
      <trkpt lat="46.26996" lon="6.57582">
        <ele>1825.6</ele>
        <time>2023-01-21T12:36:30.000Z</time>
      </trkpt>
      <trkpt lat="46.26996" lon="6.57582">
        <ele>1825.6</ele>
        <time>2023-01-21T12:36:31.000Z</time>
      </trkpt>
      <trkpt lat="46.26996" lon="6.57582">
        <ele>1825.6</ele>
        <time>2023-01-21T12:36:32.000Z</time>
      </trkpt>
      <trkpt lat="46.26996" lon="6.57582">
        <ele>1825.6</ele>
        <time>2023-01-21T12:36:33.000Z</time>
      </trkpt>
      <trkpt lat="46.26996" lon="6.57582">
        <ele>1825.6</ele>
        <time>2023-01-21T12:36:34.000Z</time>
      </trkpt>
      <trkpt lat="46.26996" lon="6.57582">
        <ele>1825.6</ele>
        <time>2023-01-21T12:36:35.000Z</time>
      </trkpt>
      <trkpt lat="46.26996" lon="6.57582">
        <ele>1825.6</ele>
        <time>2023-01-21T12:36:36.000Z</time>
      </trkpt>
      <trkpt lat="46.26996" lon="6.57582">
        <ele>1825.6</ele>
        <time>2023-01-21T12:36:37.000Z</time>
      </trkpt>
      <trkpt lat="46.26996" lon="6.57582">
        <ele>1825.6</ele>
        <time>2023-01-21T12:36:38.000Z</time>
      </trkpt>
      <trkpt lat="46.26996" lon="6.57582">
        <ele>1825.6</ele>
        <time>2023-01-21T12:36:39.000Z</time>
      </trkpt>
      <trkpt lat="46.26996" lon="6.57582">
        <ele>1825.6</ele>
        <time>2023-01-21T12:36:40.000Z</time>
      </trkpt>
      <trkpt lat="46.26996" lon="6.57582">
        <ele>1825.6</ele>
        <time>2023-01-21T12:36:41.000Z</time>
      </trkpt>
      <trkpt lat="46.26996" lon="6.57582">
        <ele>1825.6</ele>
        <time>2023-01-21T12:36:42.000Z</time>
      </trkpt>
      <trkpt lat="46.26996" lon="6.57582">
        <ele>1825.6</ele>
        <time>2023-01-21T12:36:43.000Z</time>
      </trkpt>
      <trkpt lat="46.26996" lon="6.57582">
        <ele>1825.6</ele>
        <time>2023-01-21T12:36:44.000Z</time>
      </trkpt>
      <trkpt lat="46.26996" lon="6.57582">
        <ele>1825.6</ele>
        <time>2023-01-21T12:36:45.000Z</time>
      </trkpt>
      <trkpt lat="46.26996" lon="6.57582">
        <ele>1825.6</ele>
        <time>2023-01-21T12:36:46.000Z</time>
      </trkpt>
      <trkpt lat="46.26996" lon="6.57582">
        <ele>1825.6</ele>
        <time>2023-01-21T12:36:47.000Z</time>
      </trkpt>
      <trkpt lat="46.26989" lon="6.57574">
        <ele>1828</ele>
        <time>2023-01-21T12:36:48.000Z</time>
      </trkpt>
      <trkpt lat="46.26989" lon="6.57574">
        <ele>1828.1</ele>
        <time>2023-01-21T12:36:49.000Z</time>
      </trkpt>
      <trkpt lat="46.26988" lon="6.57573">
        <ele>1828.2</ele>
        <time>2023-01-21T12:36:50.000Z</time>
      </trkpt>
      <trkpt lat="46.26988" lon="6.57573">
        <ele>1828.3</ele>
        <time>2023-01-21T12:36:51.000Z</time>
      </trkpt>
      <trkpt lat="46.26988" lon="6.57573">
        <ele>1828.3</ele>
        <time>2023-01-21T12:36:52.000Z</time>
      </trkpt>
      <trkpt lat="46.26988" lon="6.57573">
        <ele>1828.3</ele>
        <time>2023-01-21T12:36:53.000Z</time>
      </trkpt>
      <trkpt lat="46.26988" lon="6.57573">
        <ele>1828.3</ele>
        <time>2023-01-21T12:36:54.000Z</time>
      </trkpt>
      <trkpt lat="46.26988" lon="6.57573">
        <ele>1828.3</ele>
        <time>2023-01-21T12:36:55.000Z</time>
      </trkpt>
      <trkpt lat="46.26988" lon="6.57573">
        <ele>1828.3</ele>
        <time>2023-01-21T12:36:56.000Z</time>
      </trkpt>
      <trkpt lat="46.26988" lon="6.57573">
        <ele>1828.3</ele>
        <time>2023-01-21T12:36:57.000Z</time>
      </trkpt>
      <trkpt lat="46.26988" lon="6.57573">
        <ele>1828.3</ele>
        <time>2023-01-21T12:36:58.000Z</time>
      </trkpt>
      <trkpt lat="46.26988" lon="6.57573">
        <ele>1828.3</ele>
        <time>2023-01-21T12:36:59.000Z</time>
      </trkpt>
      <trkpt lat="46.26988" lon="6.57573">
        <ele>1828.3</ele>
        <time>2023-01-21T12:37:00.000Z</time>
      </trkpt>
      <trkpt lat="46.26988" lon="6.57573">
        <ele>1828.3</ele>
        <time>2023-01-21T12:37:01.000Z</time>
      </trkpt>
      <trkpt lat="46.26988" lon="6.57573">
        <ele>1828.3</ele>
        <time>2023-01-21T12:37:02.000Z</time>
      </trkpt>
      <trkpt lat="46.26988" lon="6.57573">
        <ele>1828.3</ele>
        <time>2023-01-21T12:37:03.000Z</time>
      </trkpt>
      <trkpt lat="46.26988" lon="6.57573">
        <ele>1828.3</ele>
        <time>2023-01-21T12:37:04.000Z</time>
      </trkpt>
      <trkpt lat="46.26988" lon="6.57573">
        <ele>1828.3</ele>
        <time>2023-01-21T12:37:05.000Z</time>
      </trkpt>
      <trkpt lat="46.26988" lon="6.57573">
        <ele>1828.3</ele>
        <time>2023-01-21T12:37:06.000Z</time>
      </trkpt>
      <trkpt lat="46.26988" lon="6.57573">
        <ele>1828.3</ele>
        <time>2023-01-21T12:37:07.000Z</time>
      </trkpt>
      <trkpt lat="46.26988" lon="6.57573">
        <ele>1828.3</ele>
        <time>2023-01-21T12:37:08.000Z</time>
      </trkpt>
      <trkpt lat="46.26988" lon="6.57573">
        <ele>1828.3</ele>
        <time>2023-01-21T12:37:09.000Z</time>
      </trkpt>
      <trkpt lat="46.26988" lon="6.57573">
        <ele>1828.3</ele>
        <time>2023-01-21T12:37:10.000Z</time>
      </trkpt>
      <trkpt lat="46.26988" lon="6.57573">
        <ele>1828.3</ele>
        <time>2023-01-21T12:37:11.000Z</time>
      </trkpt>
      <trkpt lat="46.26985" lon="6.57561">
        <ele>1830.7</ele>
        <time>2023-01-21T12:37:12.000Z</time>
      </trkpt>
      <trkpt lat="46.26984" lon="6.5756">
        <ele>1830.8</ele>
        <time>2023-01-21T12:37:13.000Z</time>
      </trkpt>
      <trkpt lat="46.26984" lon="6.5756">
        <ele>1830.9</ele>
        <time>2023-01-21T12:37:14.000Z</time>
      </trkpt>
      <trkpt lat="46.26983" lon="6.57559">
        <ele>1831</ele>
        <time>2023-01-21T12:37:15.000Z</time>
      </trkpt>
      <trkpt lat="46.26983" lon="6.57559">
        <ele>1831</ele>
        <time>2023-01-21T12:37:16.000Z</time>
      </trkpt>
      <trkpt lat="46.26983" lon="6.57559">
        <ele>1831</ele>
        <time>2023-01-21T12:37:17.000Z</time>
      </trkpt>
      <trkpt lat="46.26983" lon="6.57559">
        <ele>1831</ele>
        <time>2023-01-21T12:37:18.000Z</time>
      </trkpt>
      <trkpt lat="46.26983" lon="6.57559">
        <ele>1831</ele>
        <time>2023-01-21T12:37:19.000Z</time>
      </trkpt>
      <trkpt lat="46.26983" lon="6.57559">
        <ele>1831</ele>
        <time>2023-01-21T12:37:20.000Z</time>
      </trkpt>
      <trkpt lat="46.26983" lon="6.57559">
        <ele>1831</ele>
        <time>2023-01-21T12:37:21.000Z</time>
      </trkpt>
      <trkpt lat="46.26983" lon="6.57559">
        <ele>1831</ele>
        <time>2023-01-21T12:37:22.000Z</time>
      </trkpt>
      <trkpt lat="46.26983" lon="6.57559">
        <ele>1831</ele>
        <time>2023-01-21T12:37:23.000Z</time>
      </trkpt>
      <trkpt lat="46.26983" lon="6.57559">
        <ele>1831</ele>
        <time>2023-01-21T12:37:24.000Z</time>
      </trkpt>
      <trkpt lat="46.26983" lon="6.57559">
        <ele>1831</ele>
        <time>2023-01-21T12:37:25.000Z</time>
      </trkpt>
      <trkpt lat="46.26983" lon="6.57559">
        <ele>1831</ele>
        <time>2023-01-21T12:37:26.000Z</time>
      </trkpt>
      <trkpt lat="46.26983" lon="6.57559">
        <ele>1831</ele>
        <time>2023-01-21T12:37:27.000Z</time>
      </trkpt>
      <trkpt lat="46.26983" lon="6.57559">
        <ele>1831</ele>
        <time>2023-01-21T12:37:28.000Z</time>
      </trkpt>
      <trkpt lat="46.26983" lon="6.57559">
        <ele>1831</ele>
        <time>2023-01-21T12:37:29.000Z</time>
      </trkpt>
      <trkpt lat="46.26983" lon="6.57559">
        <ele>1831</ele>
        <time>2023-01-21T12:37:30.000Z</time>
      </trkpt>
      <trkpt lat="46.26983" lon="6.57559">
        <ele>1831</ele>
        <time>2023-01-21T12:37:31.000Z</time>
      </trkpt>
      <trkpt lat="46.26983" lon="6.57559">
        <ele>1831</ele>
        <time>2023-01-21T12:37:32.000Z</time>
      </trkpt>
      <trkpt lat="46.26978" lon="6.57549">
        <ele>1833</ele>
        <time>2023-01-21T12:37:33.000Z</time>
      </trkpt>
      <trkpt lat="46.26977" lon="6.57548">
        <ele>1833.1</ele>
        <time>2023-01-21T12:37:34.000Z</time>
      </trkpt>
      <trkpt lat="46.26977" lon="6.57548">
        <ele>1833.3</ele>
        <time>2023-01-21T12:37:35.000Z</time>
      </trkpt>
      <trkpt lat="46.26977" lon="6.57547">
        <ele>1833.4</ele>
        <time>2023-01-21T12:37:36.000Z</time>
      </trkpt>
      <trkpt lat="46.26977" lon="6.57547">
        <ele>1833.4</ele>
        <time>2023-01-21T12:37:37.000Z</time>
      </trkpt>
      <trkpt lat="46.26977" lon="6.57547">
        <ele>1833.4</ele>
        <time>2023-01-21T12:37:38.000Z</time>
      </trkpt>
      <trkpt lat="46.26977" lon="6.57547">
        <ele>1833.4</ele>
        <time>2023-01-21T12:37:39.000Z</time>
      </trkpt>
      <trkpt lat="46.26977" lon="6.57547">
        <ele>1833.4</ele>
        <time>2023-01-21T12:37:40.000Z</time>
      </trkpt>
      <trkpt lat="46.26977" lon="6.57547">
        <ele>1833.4</ele>
        <time>2023-01-21T12:37:41.000Z</time>
      </trkpt>
      <trkpt lat="46.26977" lon="6.57547">
        <ele>1833.4</ele>
        <time>2023-01-21T12:37:42.000Z</time>
      </trkpt>
      <trkpt lat="46.26977" lon="6.57547">
        <ele>1833.4</ele>
        <time>2023-01-21T12:37:43.000Z</time>
      </trkpt>
      <trkpt lat="46.26977" lon="6.57547">
        <ele>1833.4</ele>
        <time>2023-01-21T12:37:44.000Z</time>
      </trkpt>
      <trkpt lat="46.26977" lon="6.57547">
        <ele>1833.4</ele>
        <time>2023-01-21T12:37:45.000Z</time>
      </trkpt>
      <trkpt lat="46.26977" lon="6.57547">
        <ele>1833.4</ele>
        <time>2023-01-21T12:37:46.000Z</time>
      </trkpt>
      <trkpt lat="46.26977" lon="6.57547">
        <ele>1833.4</ele>
        <time>2023-01-21T12:37:47.000Z</time>
      </trkpt>
      <trkpt lat="46.26977" lon="6.57547">
        <ele>1833.4</ele>
        <time>2023-01-21T12:37:48.000Z</time>
      </trkpt>
      <trkpt lat="46.26977" lon="6.57547">
        <ele>1833.4</ele>
        <time>2023-01-21T12:37:49.000Z</time>
      </trkpt>
      <trkpt lat="46.26977" lon="6.57547">
        <ele>1836.6</ele>
        <time>2023-01-21T12:37:50.000Z</time>
      </trkpt>
      <trkpt lat="46.26977" lon="6.57547">
        <ele>1836.6</ele>
        <time>2023-01-21T12:37:51.000Z</time>
      </trkpt>
      <trkpt lat="46.26977" lon="6.57547">
        <ele>1836.6</ele>
        <time>2023-01-21T12:37:52.000Z</time>
      </trkpt>
      <trkpt lat="46.26981" lon="6.57534">
        <ele>1837</ele>
        <time>2023-01-21T12:37:53.000Z</time>
      </trkpt>
      <trkpt lat="46.26981" lon="6.57534">
        <ele>1837.2</ele>
        <time>2023-01-21T12:37:54.000Z</time>
      </trkpt>
      <trkpt lat="46.26982" lon="6.57533">
        <ele>1837.5</ele>
        <time>2023-01-21T12:37:55.000Z</time>
      </trkpt>
      <trkpt lat="46.26982" lon="6.57533">
        <ele>1837.8</ele>
        <time>2023-01-21T12:37:56.000Z</time>
      </trkpt>
      <trkpt lat="46.26982" lon="6.57533">
        <ele>1837.8</ele>
        <time>2023-01-21T12:37:57.000Z</time>
      </trkpt>
      <trkpt lat="46.26982" lon="6.57533">
        <ele>1837.8</ele>
        <time>2023-01-21T12:37:58.000Z</time>
      </trkpt>
      <trkpt lat="46.26982" lon="6.57533">
        <ele>1837.8</ele>
        <time>2023-01-21T12:37:59.000Z</time>
      </trkpt>
      <trkpt lat="46.26982" lon="6.57533">
        <ele>1837.8</ele>
        <time>2023-01-21T12:38:00.000Z</time>
      </trkpt>
      <trkpt lat="46.26982" lon="6.57533">
        <ele>1837.8</ele>
        <time>2023-01-21T12:38:01.000Z</time>
      </trkpt>
      <trkpt lat="46.26982" lon="6.57533">
        <ele>1837.8</ele>
        <time>2023-01-21T12:38:02.000Z</time>
      </trkpt>
      <trkpt lat="46.26982" lon="6.57533">
        <ele>1837.8</ele>
        <time>2023-01-21T12:38:03.000Z</time>
      </trkpt>
      <trkpt lat="46.26982" lon="6.57533">
        <ele>1837.8</ele>
        <time>2023-01-21T12:38:04.000Z</time>
      </trkpt>
      <trkpt lat="46.26982" lon="6.57533">
        <ele>1837.8</ele>
        <time>2023-01-21T12:38:05.000Z</time>
      </trkpt>
      <trkpt lat="46.26982" lon="6.57533">
        <ele>1837.8</ele>
        <time>2023-01-21T12:38:06.000Z</time>
      </trkpt>
      <trkpt lat="46.26982" lon="6.57533">
        <ele>1837.8</ele>
        <time>2023-01-21T12:38:07.000Z</time>
      </trkpt>
      <trkpt lat="46.26982" lon="6.57533">
        <ele>1837.8</ele>
        <time>2023-01-21T12:38:08.000Z</time>
      </trkpt>
      <trkpt lat="46.26982" lon="6.57533">
        <ele>1837.8</ele>
        <time>2023-01-21T12:38:09.000Z</time>
      </trkpt>
      <trkpt lat="46.26982" lon="6.57533">
        <ele>1837.8</ele>
        <time>2023-01-21T12:38:10.000Z</time>
      </trkpt>
      <trkpt lat="46.26982" lon="6.57533">
        <ele>1837.8</ele>
        <time>2023-01-21T12:38:11.000Z</time>
      </trkpt>
      <trkpt lat="46.26982" lon="6.57533">
        <ele>1837.8</ele>
        <time>2023-01-21T12:38:12.000Z</time>
      </trkpt>
      <trkpt lat="46.26982" lon="6.57533">
        <ele>1837.8</ele>
        <time>2023-01-21T12:38:13.000Z</time>
      </trkpt>
      <trkpt lat="46.26982" lon="6.57533">
        <ele>1837.8</ele>
        <time>2023-01-21T12:38:14.000Z</time>
      </trkpt>
      <trkpt lat="46.26982" lon="6.57533">
        <ele>1837.8</ele>
        <time>2023-01-21T12:38:15.000Z</time>
      </trkpt>
      <trkpt lat="46.26982" lon="6.57533">
        <ele>1841</ele>
        <time>2023-01-21T12:38:16.000Z</time>
      </trkpt>
      <trkpt lat="46.26982" lon="6.57533">
        <ele>1841</ele>
        <time>2023-01-21T12:38:17.000Z</time>
      </trkpt>
      <trkpt lat="46.26982" lon="6.57533">
        <ele>1841</ele>
        <time>2023-01-21T12:38:18.000Z</time>
      </trkpt>
      <trkpt lat="46.26982" lon="6.57533">
        <ele>1841</ele>
        <time>2023-01-21T12:38:19.000Z</time>
      </trkpt>
      <trkpt lat="46.26982" lon="6.57533">
        <ele>1841</ele>
        <time>2023-01-21T12:38:20.000Z</time>
      </trkpt>
      <trkpt lat="46.26982" lon="6.57533">
        <ele>1841</ele>
        <time>2023-01-21T12:38:21.000Z</time>
      </trkpt>
      <trkpt lat="46.26982" lon="6.57533">
        <ele>1841</ele>
        <time>2023-01-21T12:38:22.000Z</time>
      </trkpt>
      <trkpt lat="46.26986" lon="6.57521">
        <ele>1841.3</ele>
        <time>2023-01-21T12:38:23.000Z</time>
      </trkpt>
      <trkpt lat="46.26986" lon="6.57519">
        <ele>1841.3</ele>
        <time>2023-01-21T12:38:24.000Z</time>
      </trkpt>
      <trkpt lat="46.26986" lon="6.57518">
        <ele>1841.4</ele>
        <time>2023-01-21T12:38:25.000Z</time>
      </trkpt>
      <trkpt lat="46.26986" lon="6.57517">
        <ele>1841.4</ele>
        <time>2023-01-21T12:38:26.000Z</time>
      </trkpt>
      <trkpt lat="46.26986" lon="6.57515">
        <ele>1841.8</ele>
        <time>2023-01-21T12:38:27.000Z</time>
      </trkpt>
      <trkpt lat="46.26987" lon="6.57513">
        <ele>1842</ele>
        <time>2023-01-21T12:38:28.000Z</time>
      </trkpt>
      <trkpt lat="46.26988" lon="6.57511">
        <ele>1842.3</ele>
        <time>2023-01-21T12:38:29.000Z</time>
      </trkpt>
      <trkpt lat="46.26988" lon="6.5751">
        <ele>1842.5</ele>
        <time>2023-01-21T12:38:30.000Z</time>
      </trkpt>
      <trkpt lat="46.26989" lon="6.57509">
        <ele>1842.9</ele>
        <time>2023-01-21T12:38:31.000Z</time>
      </trkpt>
      <trkpt lat="46.2699" lon="6.57508">
        <ele>1843.1</ele>
        <time>2023-01-21T12:38:32.000Z</time>
      </trkpt>
      <trkpt lat="46.26991" lon="6.57508">
        <ele>1843.3</ele>
        <time>2023-01-21T12:38:33.000Z</time>
      </trkpt>
      <trkpt lat="46.26991" lon="6.57507">
        <ele>1843.6</ele>
        <time>2023-01-21T12:38:34.000Z</time>
      </trkpt>
      <trkpt lat="46.26991" lon="6.57506">
        <ele>1843.7</ele>
        <time>2023-01-21T12:38:35.000Z</time>
      </trkpt>
      <trkpt lat="46.26991" lon="6.57505">
        <ele>1843.8</ele>
        <time>2023-01-21T12:38:36.000Z</time>
      </trkpt>
      <trkpt lat="46.26992" lon="6.57504">
        <ele>1844.2</ele>
        <time>2023-01-21T12:38:37.000Z</time>
      </trkpt>
      <trkpt lat="46.26992" lon="6.57504">
        <ele>1844.2</ele>
        <time>2023-01-21T12:38:38.000Z</time>
      </trkpt>
      <trkpt lat="46.26992" lon="6.57503">
        <ele>1844.3</ele>
        <time>2023-01-21T12:38:39.000Z</time>
      </trkpt>
      <trkpt lat="46.26992" lon="6.57503">
        <ele>1844.5</ele>
        <time>2023-01-21T12:38:40.000Z</time>
      </trkpt>
      <trkpt lat="46.26992" lon="6.57503">
        <ele>1844.5</ele>
        <time>2023-01-21T12:38:41.000Z</time>
      </trkpt>
      <trkpt lat="46.26992" lon="6.57503">
        <ele>1844.5</ele>
        <time>2023-01-21T12:38:42.000Z</time>
      </trkpt>
      <trkpt lat="46.26992" lon="6.57503">
        <ele>1844.5</ele>
        <time>2023-01-21T12:38:43.000Z</time>
      </trkpt>
      <trkpt lat="46.26992" lon="6.57503">
        <ele>1844.5</ele>
        <time>2023-01-21T12:38:44.000Z</time>
      </trkpt>
      <trkpt lat="46.26992" lon="6.57503">
        <ele>1844.5</ele>
        <time>2023-01-21T12:38:45.000Z</time>
      </trkpt>
      <trkpt lat="46.26992" lon="6.57503">
        <ele>1844.5</ele>
        <time>2023-01-21T12:38:46.000Z</time>
      </trkpt>
      <trkpt lat="46.26992" lon="6.57503">
        <ele>1844.5</ele>
        <time>2023-01-21T12:38:47.000Z</time>
      </trkpt>
      <trkpt lat="46.26992" lon="6.57503">
        <ele>1844.5</ele>
        <time>2023-01-21T12:38:48.000Z</time>
      </trkpt>
      <trkpt lat="46.26992" lon="6.57503">
        <ele>1844.5</ele>
        <time>2023-01-21T12:38:49.000Z</time>
      </trkpt>
      <trkpt lat="46.26992" lon="6.57503">
        <ele>1844.5</ele>
        <time>2023-01-21T12:38:50.000Z</time>
      </trkpt>
      <trkpt lat="46.26992" lon="6.57503">
        <ele>1844.5</ele>
        <time>2023-01-21T12:38:51.000Z</time>
      </trkpt>
      <trkpt lat="46.26992" lon="6.57503">
        <ele>1844.5</ele>
        <time>2023-01-21T12:38:52.000Z</time>
      </trkpt>
      <trkpt lat="46.26992" lon="6.57503">
        <ele>1844.5</ele>
        <time>2023-01-21T12:38:53.000Z</time>
      </trkpt>
      <trkpt lat="46.26992" lon="6.57503">
        <ele>1844.5</ele>
        <time>2023-01-21T12:38:54.000Z</time>
      </trkpt>
      <trkpt lat="46.26992" lon="6.57503">
        <ele>1844.5</ele>
        <time>2023-01-21T12:38:55.000Z</time>
      </trkpt>
      <trkpt lat="46.26996" lon="6.5749">
        <ele>1847.4</ele>
        <time>2023-01-21T12:38:56.000Z</time>
      </trkpt>
      <trkpt lat="46.26996" lon="6.5749">
        <ele>1847.5</ele>
        <time>2023-01-21T12:38:57.000Z</time>
      </trkpt>
      <trkpt lat="46.26996" lon="6.5749">
        <ele>1847.6</ele>
        <time>2023-01-21T12:38:58.000Z</time>
      </trkpt>
      <trkpt lat="46.26996" lon="6.57489">
        <ele>1847.7</ele>
        <time>2023-01-21T12:38:59.000Z</time>
      </trkpt>
      <trkpt lat="46.26996" lon="6.57489">
        <ele>1847.7</ele>
        <time>2023-01-21T12:39:00.000Z</time>
      </trkpt>
      <trkpt lat="46.26996" lon="6.57489">
        <ele>1847.7</ele>
        <time>2023-01-21T12:39:01.000Z</time>
      </trkpt>
      <trkpt lat="46.26996" lon="6.57489">
        <ele>1847.7</ele>
        <time>2023-01-21T12:39:02.000Z</time>
      </trkpt>
      <trkpt lat="46.26996" lon="6.57489">
        <ele>1847.7</ele>
        <time>2023-01-21T12:39:03.000Z</time>
      </trkpt>
      <trkpt lat="46.26996" lon="6.57489">
        <ele>1847.7</ele>
        <time>2023-01-21T12:39:04.000Z</time>
      </trkpt>
      <trkpt lat="46.26996" lon="6.57489">
        <ele>1847.7</ele>
        <time>2023-01-21T12:39:05.000Z</time>
      </trkpt>
      <trkpt lat="46.26996" lon="6.57489">
        <ele>1847.7</ele>
        <time>2023-01-21T12:39:06.000Z</time>
      </trkpt>
      <trkpt lat="46.26996" lon="6.57489">
        <ele>1847.7</ele>
        <time>2023-01-21T12:39:07.000Z</time>
      </trkpt>
      <trkpt lat="46.26996" lon="6.57489">
        <ele>1847.7</ele>
        <time>2023-01-21T12:39:08.000Z</time>
      </trkpt>
      <trkpt lat="46.26996" lon="6.57489">
        <ele>1847.7</ele>
        <time>2023-01-21T12:39:09.000Z</time>
      </trkpt>
      <trkpt lat="46.26996" lon="6.57489">
        <ele>1847.7</ele>
        <time>2023-01-21T12:39:10.000Z</time>
      </trkpt>
      <trkpt lat="46.26996" lon="6.57489">
        <ele>1847.7</ele>
        <time>2023-01-21T12:39:11.000Z</time>
      </trkpt>
      <trkpt lat="46.26993" lon="6.57483">
        <ele>1847.3</ele>
        <time>2023-01-21T12:39:12.000Z</time>
      </trkpt>
      <trkpt lat="46.26992" lon="6.57482">
        <ele>1847.1</ele>
        <time>2023-01-21T12:39:13.000Z</time>
      </trkpt>
      <trkpt lat="46.26991" lon="6.57481">
        <ele>1846.8</ele>
        <time>2023-01-21T12:39:14.000Z</time>
      </trkpt>
      <trkpt lat="46.2699" lon="6.5748">
        <ele>1846.5</ele>
        <time>2023-01-21T12:39:15.000Z</time>
      </trkpt>
      <trkpt lat="46.26989" lon="6.5748">
        <ele>1846.3</ele>
        <time>2023-01-21T12:39:16.000Z</time>
      </trkpt>
      <trkpt lat="46.26988" lon="6.57481">
        <ele>1845.9</ele>
        <time>2023-01-21T12:39:17.000Z</time>
      </trkpt>
      <trkpt lat="46.26988" lon="6.57481">
        <ele>1845.9</ele>
        <time>2023-01-21T12:39:18.000Z</time>
      </trkpt>
      <trkpt lat="46.26988" lon="6.57481">
        <ele>1845.9</ele>
        <time>2023-01-21T12:39:19.000Z</time>
      </trkpt>
      <trkpt lat="46.26988" lon="6.57481">
        <ele>1845.9</ele>
        <time>2023-01-21T12:39:20.000Z</time>
      </trkpt>
      <trkpt lat="46.26988" lon="6.57481">
        <ele>1845.9</ele>
        <time>2023-01-21T12:39:21.000Z</time>
      </trkpt>
      <trkpt lat="46.26988" lon="6.57481">
        <ele>1845.9</ele>
        <time>2023-01-21T12:39:22.000Z</time>
      </trkpt>
      <trkpt lat="46.26988" lon="6.57481">
        <ele>1845.9</ele>
        <time>2023-01-21T12:39:23.000Z</time>
      </trkpt>
      <trkpt lat="46.26988" lon="6.57481">
        <ele>1845.9</ele>
        <time>2023-01-21T12:39:24.000Z</time>
      </trkpt>
      <trkpt lat="46.26988" lon="6.57481">
        <ele>1845.9</ele>
        <time>2023-01-21T12:39:25.000Z</time>
      </trkpt>
      <trkpt lat="46.26988" lon="6.57481">
        <ele>1845.9</ele>
        <time>2023-01-21T12:39:26.000Z</time>
      </trkpt>
      <trkpt lat="46.26988" lon="6.57481">
        <ele>1845.9</ele>
        <time>2023-01-21T12:39:27.000Z</time>
      </trkpt>
      <trkpt lat="46.26988" lon="6.57481">
        <ele>1845.9</ele>
        <time>2023-01-21T12:39:28.000Z</time>
      </trkpt>
      <trkpt lat="46.26988" lon="6.57481">
        <ele>1845.9</ele>
        <time>2023-01-21T12:39:29.000Z</time>
      </trkpt>
      <trkpt lat="46.26988" lon="6.57481">
        <ele>1845.9</ele>
        <time>2023-01-21T12:39:30.000Z</time>
      </trkpt>
      <trkpt lat="46.26988" lon="6.57481">
        <ele>1845.9</ele>
        <time>2023-01-21T12:39:31.000Z</time>
      </trkpt>
      <trkpt lat="46.26988" lon="6.57481">
        <ele>1845.9</ele>
        <time>2023-01-21T12:39:32.000Z</time>
      </trkpt>
      <trkpt lat="46.26979" lon="6.57476">
        <ele>1847.3</ele>
        <time>2023-01-21T12:39:33.000Z</time>
      </trkpt>
      <trkpt lat="46.26979" lon="6.57477">
        <ele>1847.5</ele>
        <time>2023-01-21T12:39:34.000Z</time>
      </trkpt>
      <trkpt lat="46.26979" lon="6.57477">
        <ele>1847.4</ele>
        <time>2023-01-21T12:39:35.000Z</time>
      </trkpt>
      <trkpt lat="46.26979" lon="6.57477">
        <ele>1847.5</ele>
        <time>2023-01-21T12:39:36.000Z</time>
      </trkpt>
      <trkpt lat="46.26979" lon="6.57477">
        <ele>1847.5</ele>
        <time>2023-01-21T12:39:37.000Z</time>
      </trkpt>
      <trkpt lat="46.26979" lon="6.57477">
        <ele>1847.5</ele>
        <time>2023-01-21T12:39:38.000Z</time>
      </trkpt>
      <trkpt lat="46.26979" lon="6.57477">
        <ele>1847.5</ele>
        <time>2023-01-21T12:39:39.000Z</time>
      </trkpt>
      <trkpt lat="46.26979" lon="6.57477">
        <ele>1847.5</ele>
        <time>2023-01-21T12:39:40.000Z</time>
      </trkpt>
      <trkpt lat="46.26979" lon="6.57477">
        <ele>1847.5</ele>
        <time>2023-01-21T12:39:41.000Z</time>
      </trkpt>
      <trkpt lat="46.26979" lon="6.57477">
        <ele>1847.5</ele>
        <time>2023-01-21T12:39:42.000Z</time>
      </trkpt>
      <trkpt lat="46.26979" lon="6.57477">
        <ele>1847.5</ele>
        <time>2023-01-21T12:39:43.000Z</time>
      </trkpt>
      <trkpt lat="46.26979" lon="6.57477">
        <ele>1847.5</ele>
        <time>2023-01-21T12:39:44.000Z</time>
      </trkpt>
      <trkpt lat="46.26979" lon="6.57477">
        <ele>1847.5</ele>
        <time>2023-01-21T12:39:45.000Z</time>
      </trkpt>
      <trkpt lat="46.26979" lon="6.57477">
        <ele>1847.5</ele>
        <time>2023-01-21T12:39:46.000Z</time>
      </trkpt>
      <trkpt lat="46.26979" lon="6.57477">
        <ele>1847.5</ele>
        <time>2023-01-21T12:39:47.000Z</time>
      </trkpt>
      <trkpt lat="46.26979" lon="6.57477">
        <ele>1847.5</ele>
        <time>2023-01-21T12:39:48.000Z</time>
      </trkpt>
      <trkpt lat="46.26979" lon="6.57477">
        <ele>1847.5</ele>
        <time>2023-01-21T12:39:49.000Z</time>
      </trkpt>
      <trkpt lat="46.26979" lon="6.57477">
        <ele>1847.5</ele>
        <time>2023-01-21T12:39:50.000Z</time>
      </trkpt>
      <trkpt lat="46.26979" lon="6.57477">
        <ele>1847.5</ele>
        <time>2023-01-21T12:39:51.000Z</time>
      </trkpt>
      <trkpt lat="46.26979" lon="6.57477">
        <ele>1847.5</ele>
        <time>2023-01-21T12:39:52.000Z</time>
      </trkpt>
      <trkpt lat="46.26979" lon="6.57477">
        <ele>1847.5</ele>
        <time>2023-01-21T12:39:53.000Z</time>
      </trkpt>
      <trkpt lat="46.26979" lon="6.57477">
        <ele>1847.5</ele>
        <time>2023-01-21T12:39:54.000Z</time>
      </trkpt>
      <trkpt lat="46.26979" lon="6.57477">
        <ele>1847.5</ele>
        <time>2023-01-21T12:39:55.000Z</time>
      </trkpt>
      <trkpt lat="46.26979" lon="6.57477">
        <ele>1847.5</ele>
        <time>2023-01-21T12:39:56.000Z</time>
      </trkpt>
      <trkpt lat="46.26979" lon="6.57477">
        <ele>1847.5</ele>
        <time>2023-01-21T12:39:57.000Z</time>
      </trkpt>
      <trkpt lat="46.26979" lon="6.57477">
        <ele>1847.5</ele>
        <time>2023-01-21T12:39:58.000Z</time>
      </trkpt>
      <trkpt lat="46.26979" lon="6.57477">
        <ele>1847.5</ele>
        <time>2023-01-21T12:39:59.000Z</time>
      </trkpt>
      <trkpt lat="46.26979" lon="6.57477">
        <ele>1847.5</ele>
        <time>2023-01-21T12:40:00.000Z</time>
      </trkpt>
      <trkpt lat="46.26979" lon="6.57477">
        <ele>1850.6</ele>
        <time>2023-01-21T12:40:01.000Z</time>
      </trkpt>
      <trkpt lat="46.26977" lon="6.57464">
        <ele>1850.6</ele>
        <time>2023-01-21T12:40:02.000Z</time>
      </trkpt>
      <trkpt lat="46.26977" lon="6.57463">
        <ele>1850.6</ele>
        <time>2023-01-21T12:40:03.000Z</time>
      </trkpt>
      <trkpt lat="46.26977" lon="6.57463">
        <ele>1850.7</ele>
        <time>2023-01-21T12:40:04.000Z</time>
      </trkpt>
      <trkpt lat="46.26977" lon="6.57462">
        <ele>1850.7</ele>
        <time>2023-01-21T12:40:05.000Z</time>
      </trkpt>
      <trkpt lat="46.26977" lon="6.57462">
        <ele>1850.7</ele>
        <time>2023-01-21T12:40:06.000Z</time>
      </trkpt>
      <trkpt lat="46.26977" lon="6.57462">
        <ele>1850.7</ele>
        <time>2023-01-21T12:40:07.000Z</time>
      </trkpt>
      <trkpt lat="46.26977" lon="6.57462">
        <ele>1850.7</ele>
        <time>2023-01-21T12:40:08.000Z</time>
      </trkpt>
      <trkpt lat="46.26977" lon="6.57462">
        <ele>1850.7</ele>
        <time>2023-01-21T12:40:09.000Z</time>
      </trkpt>
      <trkpt lat="46.26977" lon="6.57462">
        <ele>1850.7</ele>
        <time>2023-01-21T12:40:10.000Z</time>
      </trkpt>
      <trkpt lat="46.26977" lon="6.57462">
        <ele>1850.7</ele>
        <time>2023-01-21T12:40:11.000Z</time>
      </trkpt>
      <trkpt lat="46.26977" lon="6.57462">
        <ele>1850.7</ele>
        <time>2023-01-21T12:40:12.000Z</time>
      </trkpt>
      <trkpt lat="46.26977" lon="6.57462">
        <ele>1850.7</ele>
        <time>2023-01-21T12:40:13.000Z</time>
      </trkpt>
      <trkpt lat="46.26977" lon="6.57462">
        <ele>1850.7</ele>
        <time>2023-01-21T12:40:14.000Z</time>
      </trkpt>
      <trkpt lat="46.26977" lon="6.57462">
        <ele>1850.7</ele>
        <time>2023-01-21T12:40:15.000Z</time>
      </trkpt>
      <trkpt lat="46.26977" lon="6.57462">
        <ele>1850.7</ele>
        <time>2023-01-21T12:40:16.000Z</time>
      </trkpt>
      <trkpt lat="46.26977" lon="6.57462">
        <ele>1850.7</ele>
        <time>2023-01-21T12:40:17.000Z</time>
      </trkpt>
      <trkpt lat="46.26977" lon="6.57462">
        <ele>1850.7</ele>
        <time>2023-01-21T12:40:18.000Z</time>
      </trkpt>
      <trkpt lat="46.26977" lon="6.57462">
        <ele>1850.7</ele>
        <time>2023-01-21T12:40:19.000Z</time>
      </trkpt>
      <trkpt lat="46.26977" lon="6.57462">
        <ele>1850.7</ele>
        <time>2023-01-21T12:40:20.000Z</time>
      </trkpt>
      <trkpt lat="46.26977" lon="6.57462">
        <ele>1850.7</ele>
        <time>2023-01-21T12:40:21.000Z</time>
      </trkpt>
      <trkpt lat="46.26977" lon="6.57462">
        <ele>1850.7</ele>
        <time>2023-01-21T12:40:22.000Z</time>
      </trkpt>
      <trkpt lat="46.26977" lon="6.57462">
        <ele>1850.7</ele>
        <time>2023-01-21T12:40:23.000Z</time>
      </trkpt>
      <trkpt lat="46.26977" lon="6.57462">
        <ele>1850.7</ele>
        <time>2023-01-21T12:40:24.000Z</time>
      </trkpt>
      <trkpt lat="46.26977" lon="6.57462">
        <ele>1850.7</ele>
        <time>2023-01-21T12:40:25.000Z</time>
      </trkpt>
      <trkpt lat="46.26977" lon="6.57462">
        <ele>1850.7</ele>
        <time>2023-01-21T12:40:26.000Z</time>
      </trkpt>
      <trkpt lat="46.26977" lon="6.57462">
        <ele>1850.7</ele>
        <time>2023-01-21T12:40:27.000Z</time>
      </trkpt>
      <trkpt lat="46.26975" lon="6.57449">
        <ele>1851.9</ele>
        <time>2023-01-21T12:40:28.000Z</time>
      </trkpt>
      <trkpt lat="46.26975" lon="6.57448">
        <ele>1851.9</ele>
        <time>2023-01-21T12:40:29.000Z</time>
      </trkpt>
      <trkpt lat="46.26975" lon="6.57448">
        <ele>1852</ele>
        <time>2023-01-21T12:40:30.000Z</time>
      </trkpt>
      <trkpt lat="46.26974" lon="6.57448">
        <ele>1852.1</ele>
        <time>2023-01-21T12:40:31.000Z</time>
      </trkpt>
      <trkpt lat="46.26974" lon="6.57448">
        <ele>1852.1</ele>
        <time>2023-01-21T12:40:32.000Z</time>
      </trkpt>
      <trkpt lat="46.26974" lon="6.57448">
        <ele>1852.1</ele>
        <time>2023-01-21T12:40:33.000Z</time>
      </trkpt>
      <trkpt lat="46.26974" lon="6.57448">
        <ele>1852.1</ele>
        <time>2023-01-21T12:40:34.000Z</time>
      </trkpt>
      <trkpt lat="46.26974" lon="6.57448">
        <ele>1852.1</ele>
        <time>2023-01-21T12:40:35.000Z</time>
      </trkpt>
      <trkpt lat="46.26974" lon="6.57448">
        <ele>1852.1</ele>
        <time>2023-01-21T12:40:36.000Z</time>
      </trkpt>
      <trkpt lat="46.26974" lon="6.57448">
        <ele>1852.1</ele>
        <time>2023-01-21T12:40:37.000Z</time>
      </trkpt>
      <trkpt lat="46.26974" lon="6.57448">
        <ele>1852.1</ele>
        <time>2023-01-21T12:40:38.000Z</time>
      </trkpt>
      <trkpt lat="46.26974" lon="6.57448">
        <ele>1852.1</ele>
        <time>2023-01-21T12:40:39.000Z</time>
      </trkpt>
      <trkpt lat="46.26974" lon="6.57448">
        <ele>1852.1</ele>
        <time>2023-01-21T12:40:40.000Z</time>
      </trkpt>
      <trkpt lat="46.26974" lon="6.57448">
        <ele>1852.1</ele>
        <time>2023-01-21T12:40:41.000Z</time>
      </trkpt>
      <trkpt lat="46.26974" lon="6.57448">
        <ele>1852.1</ele>
        <time>2023-01-21T12:40:42.000Z</time>
      </trkpt>
      <trkpt lat="46.26974" lon="6.57448">
        <ele>1852.1</ele>
        <time>2023-01-21T12:40:43.000Z</time>
      </trkpt>
      <trkpt lat="46.26974" lon="6.57448">
        <ele>1852.1</ele>
        <time>2023-01-21T12:40:44.000Z</time>
      </trkpt>
      <trkpt lat="46.26974" lon="6.57448">
        <ele>1852.1</ele>
        <time>2023-01-21T12:40:45.000Z</time>
      </trkpt>
      <trkpt lat="46.26974" lon="6.57448">
        <ele>1852.1</ele>
        <time>2023-01-21T12:40:46.000Z</time>
      </trkpt>
      <trkpt lat="46.26974" lon="6.57448">
        <ele>1852.1</ele>
        <time>2023-01-21T12:40:47.000Z</time>
      </trkpt>
      <trkpt lat="46.26974" lon="6.57448">
        <ele>1852.1</ele>
        <time>2023-01-21T12:40:48.000Z</time>
      </trkpt>
      <trkpt lat="46.26974" lon="6.57448">
        <ele>1852.1</ele>
        <time>2023-01-21T12:40:49.000Z</time>
      </trkpt>
      <trkpt lat="46.26974" lon="6.57448">
        <ele>1852.1</ele>
        <time>2023-01-21T12:40:50.000Z</time>
      </trkpt>
      <trkpt lat="46.26974" lon="6.57448">
        <ele>1852.1</ele>
        <time>2023-01-21T12:40:51.000Z</time>
      </trkpt>
      <trkpt lat="46.26974" lon="6.57448">
        <ele>1852.1</ele>
        <time>2023-01-21T12:40:52.000Z</time>
      </trkpt>
      <trkpt lat="46.26974" lon="6.57448">
        <ele>1852.1</ele>
        <time>2023-01-21T12:40:53.000Z</time>
      </trkpt>
      <trkpt lat="46.26974" lon="6.57448">
        <ele>1852.1</ele>
        <time>2023-01-21T12:40:54.000Z</time>
      </trkpt>
      <trkpt lat="46.26974" lon="6.57448">
        <ele>1852.1</ele>
        <time>2023-01-21T12:40:55.000Z</time>
      </trkpt>
      <trkpt lat="46.26974" lon="6.57448">
        <ele>1852.1</ele>
        <time>2023-01-21T12:40:56.000Z</time>
      </trkpt>
      <trkpt lat="46.26974" lon="6.57448">
        <ele>1852.1</ele>
        <time>2023-01-21T12:40:57.000Z</time>
      </trkpt>
      <trkpt lat="46.26974" lon="6.57448">
        <ele>1852.1</ele>
        <time>2023-01-21T12:40:58.000Z</time>
      </trkpt>
      <trkpt lat="46.26974" lon="6.57448">
        <ele>1852.1</ele>
        <time>2023-01-21T12:40:59.000Z</time>
      </trkpt>
      <trkpt lat="46.26974" lon="6.57448">
        <ele>1852.1</ele>
        <time>2023-01-21T12:41:00.000Z</time>
      </trkpt>
      <trkpt lat="46.26974" lon="6.57448">
        <ele>1852.1</ele>
        <time>2023-01-21T12:41:01.000Z</time>
      </trkpt>
      <trkpt lat="46.26974" lon="6.57448">
        <ele>1852.1</ele>
        <time>2023-01-21T12:41:02.000Z</time>
      </trkpt>
      <trkpt lat="46.26974" lon="6.57448">
        <ele>1852.1</ele>
        <time>2023-01-21T12:41:03.000Z</time>
      </trkpt>
      <trkpt lat="46.26974" lon="6.57448">
        <ele>1852.1</ele>
        <time>2023-01-21T12:41:04.000Z</time>
      </trkpt>
      <trkpt lat="46.26974" lon="6.57448">
        <ele>1852.1</ele>
        <time>2023-01-21T12:41:05.000Z</time>
      </trkpt>
      <trkpt lat="46.26974" lon="6.57448">
        <ele>1852.1</ele>
        <time>2023-01-21T12:41:06.000Z</time>
      </trkpt>
      <trkpt lat="46.26974" lon="6.57448">
        <ele>1852.1</ele>
        <time>2023-01-21T12:41:07.000Z</time>
      </trkpt>
      <trkpt lat="46.26974" lon="6.57448">
        <ele>1852.1</ele>
        <time>2023-01-21T12:41:08.000Z</time>
      </trkpt>
      <trkpt lat="46.26974" lon="6.57448">
        <ele>1852.1</ele>
        <time>2023-01-21T12:41:09.000Z</time>
      </trkpt>
      <trkpt lat="46.26974" lon="6.57448">
        <ele>1852.1</ele>
        <time>2023-01-21T12:41:10.000Z</time>
      </trkpt>
      <trkpt lat="46.26974" lon="6.57448">
        <ele>1852.1</ele>
        <time>2023-01-21T12:41:11.000Z</time>
      </trkpt>
      <trkpt lat="46.26974" lon="6.57448">
        <ele>1852.1</ele>
        <time>2023-01-21T12:41:12.000Z</time>
      </trkpt>
      <trkpt lat="46.26974" lon="6.57448">
        <ele>1852.1</ele>
        <time>2023-01-21T12:41:13.000Z</time>
      </trkpt>
      <trkpt lat="46.26974" lon="6.57448">
        <ele>1852.1</ele>
        <time>2023-01-21T12:41:14.000Z</time>
      </trkpt>
      <trkpt lat="46.26974" lon="6.57448">
        <ele>1852.1</ele>
        <time>2023-01-21T12:41:15.000Z</time>
      </trkpt>
      <trkpt lat="46.26974" lon="6.57448">
        <ele>1852.1</ele>
        <time>2023-01-21T12:41:16.000Z</time>
      </trkpt>
      <trkpt lat="46.26974" lon="6.57448">
        <ele>1852.1</ele>
        <time>2023-01-21T12:41:17.000Z</time>
      </trkpt>
      <trkpt lat="46.26974" lon="6.57448">
        <ele>1852.1</ele>
        <time>2023-01-21T12:41:18.000Z</time>
      </trkpt>
      <trkpt lat="46.26974" lon="6.57448">
        <ele>1852.1</ele>
        <time>2023-01-21T12:41:19.000Z</time>
      </trkpt>
      <trkpt lat="46.26974" lon="6.57448">
        <ele>1852.1</ele>
        <time>2023-01-21T12:41:20.000Z</time>
      </trkpt>
      <trkpt lat="46.26967" lon="6.57439">
        <ele>1854.2</ele>
        <time>2023-01-21T12:41:21.000Z</time>
      </trkpt>
      <trkpt lat="46.26967" lon="6.57439">
        <ele>1854.4</ele>
        <time>2023-01-21T12:41:22.000Z</time>
      </trkpt>
      <trkpt lat="46.26966" lon="6.57439">
        <ele>1854.5</ele>
        <time>2023-01-21T12:41:23.000Z</time>
      </trkpt>
      <trkpt lat="46.26965" lon="6.57438">
        <ele>1854.6</ele>
        <time>2023-01-21T12:41:24.000Z</time>
      </trkpt>
      <trkpt lat="46.26965" lon="6.57438">
        <ele>1854.6</ele>
        <time>2023-01-21T12:41:25.000Z</time>
      </trkpt>
      <trkpt lat="46.26965" lon="6.57438">
        <ele>1854.6</ele>
        <time>2023-01-21T12:41:26.000Z</time>
      </trkpt>
      <trkpt lat="46.26965" lon="6.57438">
        <ele>1854.6</ele>
        <time>2023-01-21T12:41:27.000Z</time>
      </trkpt>
      <trkpt lat="46.26965" lon="6.57438">
        <ele>1854.6</ele>
        <time>2023-01-21T12:41:28.000Z</time>
      </trkpt>
      <trkpt lat="46.26965" lon="6.57438">
        <ele>1854.6</ele>
        <time>2023-01-21T12:41:29.000Z</time>
      </trkpt>
      <trkpt lat="46.26965" lon="6.57438">
        <ele>1854.6</ele>
        <time>2023-01-21T12:41:30.000Z</time>
      </trkpt>
      <trkpt lat="46.26965" lon="6.57438">
        <ele>1854.6</ele>
        <time>2023-01-21T12:41:31.000Z</time>
      </trkpt>
      <trkpt lat="46.26965" lon="6.57438">
        <ele>1854.6</ele>
        <time>2023-01-21T12:41:32.000Z</time>
      </trkpt>
      <trkpt lat="46.26965" lon="6.57438">
        <ele>1854.6</ele>
        <time>2023-01-21T12:41:33.000Z</time>
      </trkpt>
      <trkpt lat="46.26965" lon="6.57438">
        <ele>1854.6</ele>
        <time>2023-01-21T12:41:34.000Z</time>
      </trkpt>
      <trkpt lat="46.26965" lon="6.57438">
        <ele>1854.6</ele>
        <time>2023-01-21T12:41:35.000Z</time>
      </trkpt>
      <trkpt lat="46.26965" lon="6.57438">
        <ele>1854.6</ele>
        <time>2023-01-21T12:41:36.000Z</time>
      </trkpt>
      <trkpt lat="46.26965" lon="6.57438">
        <ele>1854.6</ele>
        <time>2023-01-21T12:41:37.000Z</time>
      </trkpt>
      <trkpt lat="46.26965" lon="6.57438">
        <ele>1854.6</ele>
        <time>2023-01-21T12:41:38.000Z</time>
      </trkpt>
      <trkpt lat="46.26958" lon="6.57431">
        <ele>1856.1</ele>
        <time>2023-01-21T12:41:39.000Z</time>
      </trkpt>
      <trkpt lat="46.26957" lon="6.5743">
        <ele>1856.2</ele>
        <time>2023-01-21T12:41:40.000Z</time>
      </trkpt>
      <trkpt lat="46.26957" lon="6.5743">
        <ele>1856.3</ele>
        <time>2023-01-21T12:41:41.000Z</time>
      </trkpt>
      <trkpt lat="46.26956" lon="6.57429">
        <ele>1856.4</ele>
        <time>2023-01-21T12:41:42.000Z</time>
      </trkpt>
      <trkpt lat="46.26956" lon="6.57429">
        <ele>1856.4</ele>
        <time>2023-01-21T12:41:43.000Z</time>
      </trkpt>
      <trkpt lat="46.26956" lon="6.57429">
        <ele>1856.4</ele>
        <time>2023-01-21T12:41:44.000Z</time>
      </trkpt>
      <trkpt lat="46.26956" lon="6.57429">
        <ele>1856.4</ele>
        <time>2023-01-21T12:41:45.000Z</time>
      </trkpt>
      <trkpt lat="46.26956" lon="6.57429">
        <ele>1856.4</ele>
        <time>2023-01-21T12:41:46.000Z</time>
      </trkpt>
      <trkpt lat="46.26956" lon="6.57429">
        <ele>1856.4</ele>
        <time>2023-01-21T12:41:47.000Z</time>
      </trkpt>
      <trkpt lat="46.26956" lon="6.57429">
        <ele>1856.4</ele>
        <time>2023-01-21T12:41:48.000Z</time>
      </trkpt>
      <trkpt lat="46.26956" lon="6.57429">
        <ele>1856.4</ele>
        <time>2023-01-21T12:41:49.000Z</time>
      </trkpt>
      <trkpt lat="46.26956" lon="6.57429">
        <ele>1856.4</ele>
        <time>2023-01-21T12:41:50.000Z</time>
      </trkpt>
      <trkpt lat="46.26956" lon="6.57429">
        <ele>1856.4</ele>
        <time>2023-01-21T12:41:51.000Z</time>
      </trkpt>
      <trkpt lat="46.26956" lon="6.57429">
        <ele>1856.4</ele>
        <time>2023-01-21T12:41:52.000Z</time>
      </trkpt>
      <trkpt lat="46.26956" lon="6.57429">
        <ele>1856.4</ele>
        <time>2023-01-21T12:41:53.000Z</time>
      </trkpt>
      <trkpt lat="46.26956" lon="6.57429">
        <ele>1856.4</ele>
        <time>2023-01-21T12:41:54.000Z</time>
      </trkpt>
      <trkpt lat="46.26956" lon="6.57429">
        <ele>1856.4</ele>
        <time>2023-01-21T12:41:55.000Z</time>
      </trkpt>
      <trkpt lat="46.26956" lon="6.57429">
        <ele>1856.4</ele>
        <time>2023-01-21T12:41:56.000Z</time>
      </trkpt>
      <trkpt lat="46.26956" lon="6.57429">
        <ele>1856.4</ele>
        <time>2023-01-21T12:41:57.000Z</time>
      </trkpt>
      <trkpt lat="46.26956" lon="6.57429">
        <ele>1856.4</ele>
        <time>2023-01-21T12:41:58.000Z</time>
      </trkpt>
      <trkpt lat="46.26956" lon="6.57429">
        <ele>1856.4</ele>
        <time>2023-01-21T12:41:59.000Z</time>
      </trkpt>
      <trkpt lat="46.26956" lon="6.57429">
        <ele>1856.4</ele>
        <time>2023-01-21T12:42:00.000Z</time>
      </trkpt>
      <trkpt lat="46.26956" lon="6.57429">
        <ele>1856.4</ele>
        <time>2023-01-21T12:42:01.000Z</time>
      </trkpt>
      <trkpt lat="46.26956" lon="6.57429">
        <ele>1856.4</ele>
        <time>2023-01-21T12:42:02.000Z</time>
      </trkpt>
      <trkpt lat="46.26956" lon="6.57429">
        <ele>1856.4</ele>
        <time>2023-01-21T12:42:03.000Z</time>
      </trkpt>
      <trkpt lat="46.26956" lon="6.57429">
        <ele>1856.4</ele>
        <time>2023-01-21T12:42:04.000Z</time>
      </trkpt>
      <trkpt lat="46.26956" lon="6.57429">
        <ele>1856.4</ele>
        <time>2023-01-21T12:42:05.000Z</time>
      </trkpt>
      <trkpt lat="46.26956" lon="6.57429">
        <ele>1856.4</ele>
        <time>2023-01-21T12:42:06.000Z</time>
      </trkpt>
      <trkpt lat="46.26956" lon="6.57429">
        <ele>1856.4</ele>
        <time>2023-01-21T12:42:07.000Z</time>
      </trkpt>
      <trkpt lat="46.26956" lon="6.57429">
        <ele>1856.4</ele>
        <time>2023-01-21T12:42:08.000Z</time>
      </trkpt>
      <trkpt lat="46.26956" lon="6.57429">
        <ele>1856.4</ele>
        <time>2023-01-21T12:42:09.000Z</time>
      </trkpt>
      <trkpt lat="46.26956" lon="6.57429">
        <ele>1856.4</ele>
        <time>2023-01-21T12:42:10.000Z</time>
      </trkpt>
      <trkpt lat="46.26956" lon="6.57429">
        <ele>1856.4</ele>
        <time>2023-01-21T12:42:11.000Z</time>
      </trkpt>
      <trkpt lat="46.26956" lon="6.57429">
        <ele>1856.4</ele>
        <time>2023-01-21T12:42:12.000Z</time>
      </trkpt>
      <trkpt lat="46.26956" lon="6.57429">
        <ele>1856.4</ele>
        <time>2023-01-21T12:42:13.000Z</time>
      </trkpt>
      <trkpt lat="46.26956" lon="6.57429">
        <ele>1856.4</ele>
        <time>2023-01-21T12:42:14.000Z</time>
      </trkpt>
      <trkpt lat="46.26956" lon="6.57429">
        <ele>1856.4</ele>
        <time>2023-01-21T12:42:15.000Z</time>
      </trkpt>
      <trkpt lat="46.26956" lon="6.57429">
        <ele>1856.4</ele>
        <time>2023-01-21T12:42:16.000Z</time>
      </trkpt>
      <trkpt lat="46.26956" lon="6.57429">
        <ele>1856.4</ele>
        <time>2023-01-21T12:42:17.000Z</time>
      </trkpt>
      <trkpt lat="46.26956" lon="6.57429">
        <ele>1856.4</ele>
        <time>2023-01-21T12:42:18.000Z</time>
      </trkpt>
      <trkpt lat="46.26949" lon="6.57422">
        <ele>1858.5</ele>
        <time>2023-01-21T12:42:19.000Z</time>
      </trkpt>
      <trkpt lat="46.26948" lon="6.57421">
        <ele>1858.6</ele>
        <time>2023-01-21T12:42:20.000Z</time>
      </trkpt>
      <trkpt lat="46.26948" lon="6.57421">
        <ele>1858.7</ele>
        <time>2023-01-21T12:42:21.000Z</time>
      </trkpt>
      <trkpt lat="46.26948" lon="6.57421">
        <ele>1858.7</ele>
        <time>2023-01-21T12:42:22.000Z</time>
      </trkpt>
      <trkpt lat="46.26948" lon="6.57421">
        <ele>1858.7</ele>
        <time>2023-01-21T12:42:23.000Z</time>
      </trkpt>
      <trkpt lat="46.26948" lon="6.57421">
        <ele>1858.7</ele>
        <time>2023-01-21T12:42:24.000Z</time>
      </trkpt>
      <trkpt lat="46.26948" lon="6.57421">
        <ele>1858.7</ele>
        <time>2023-01-21T12:42:25.000Z</time>
      </trkpt>
      <trkpt lat="46.26948" lon="6.57421">
        <ele>1858.7</ele>
        <time>2023-01-21T12:42:26.000Z</time>
      </trkpt>
      <trkpt lat="46.26948" lon="6.57421">
        <ele>1858.7</ele>
        <time>2023-01-21T12:42:27.000Z</time>
      </trkpt>
      <trkpt lat="46.26948" lon="6.57421">
        <ele>1858.7</ele>
        <time>2023-01-21T12:42:28.000Z</time>
      </trkpt>
      <trkpt lat="46.26948" lon="6.57421">
        <ele>1858.7</ele>
        <time>2023-01-21T12:42:29.000Z</time>
      </trkpt>
      <trkpt lat="46.26948" lon="6.57421">
        <ele>1858.7</ele>
        <time>2023-01-21T12:42:30.000Z</time>
      </trkpt>
      <trkpt lat="46.26948" lon="6.57421">
        <ele>1858.7</ele>
        <time>2023-01-21T12:42:31.000Z</time>
      </trkpt>
      <trkpt lat="46.26948" lon="6.57421">
        <ele>1858.7</ele>
        <time>2023-01-21T12:42:32.000Z</time>
      </trkpt>
      <trkpt lat="46.26948" lon="6.57421">
        <ele>1858.7</ele>
        <time>2023-01-21T12:42:33.000Z</time>
      </trkpt>
      <trkpt lat="46.26948" lon="6.57421">
        <ele>1858.7</ele>
        <time>2023-01-21T12:42:34.000Z</time>
      </trkpt>
      <trkpt lat="46.26948" lon="6.57421">
        <ele>1858.7</ele>
        <time>2023-01-21T12:42:35.000Z</time>
      </trkpt>
      <trkpt lat="46.26948" lon="6.57421">
        <ele>1858.7</ele>
        <time>2023-01-21T12:42:36.000Z</time>
      </trkpt>
      <trkpt lat="46.26948" lon="6.57421">
        <ele>1858.7</ele>
        <time>2023-01-21T12:42:37.000Z</time>
      </trkpt>
      <trkpt lat="46.26948" lon="6.57421">
        <ele>1858.7</ele>
        <time>2023-01-21T12:42:38.000Z</time>
      </trkpt>
      <trkpt lat="46.26948" lon="6.57421">
        <ele>1858.7</ele>
        <time>2023-01-21T12:42:39.000Z</time>
      </trkpt>
      <trkpt lat="46.26948" lon="6.57421">
        <ele>1858.7</ele>
        <time>2023-01-21T12:42:40.000Z</time>
      </trkpt>
      <trkpt lat="46.26948" lon="6.57421">
        <ele>1858.7</ele>
        <time>2023-01-21T12:42:41.000Z</time>
      </trkpt>
      <trkpt lat="46.26948" lon="6.57421">
        <ele>1858.7</ele>
        <time>2023-01-21T12:42:42.000Z</time>
      </trkpt>
      <trkpt lat="46.26948" lon="6.57421">
        <ele>1858.7</ele>
        <time>2023-01-21T12:42:43.000Z</time>
      </trkpt>
      <trkpt lat="46.26948" lon="6.57421">
        <ele>1858.7</ele>
        <time>2023-01-21T12:42:44.000Z</time>
      </trkpt>
      <trkpt lat="46.26948" lon="6.57421">
        <ele>1858.7</ele>
        <time>2023-01-21T12:42:45.000Z</time>
      </trkpt>
      <trkpt lat="46.26948" lon="6.57421">
        <ele>1858.7</ele>
        <time>2023-01-21T12:42:46.000Z</time>
      </trkpt>
      <trkpt lat="46.26948" lon="6.57421">
        <ele>1858.7</ele>
        <time>2023-01-21T12:42:47.000Z</time>
      </trkpt>
      <trkpt lat="46.26948" lon="6.57421">
        <ele>1858.7</ele>
        <time>2023-01-21T12:42:48.000Z</time>
      </trkpt>
      <trkpt lat="46.26948" lon="6.57421">
        <ele>1858.7</ele>
        <time>2023-01-21T12:42:49.000Z</time>
      </trkpt>
      <trkpt lat="46.26948" lon="6.57421">
        <ele>1858.7</ele>
        <time>2023-01-21T12:42:50.000Z</time>
      </trkpt>
      <trkpt lat="46.26948" lon="6.57421">
        <ele>1858.7</ele>
        <time>2023-01-21T12:42:51.000Z</time>
      </trkpt>
      <trkpt lat="46.26948" lon="6.57421">
        <ele>1858.7</ele>
        <time>2023-01-21T12:42:52.000Z</time>
      </trkpt>
      <trkpt lat="46.26948" lon="6.57421">
        <ele>1858.7</ele>
        <time>2023-01-21T12:42:53.000Z</time>
      </trkpt>
      <trkpt lat="46.26948" lon="6.57421">
        <ele>1858.7</ele>
        <time>2023-01-21T12:42:54.000Z</time>
      </trkpt>
      <trkpt lat="46.26948" lon="6.57421">
        <ele>1858.7</ele>
        <time>2023-01-21T12:42:55.000Z</time>
      </trkpt>
      <trkpt lat="46.26948" lon="6.57421">
        <ele>1858.7</ele>
        <time>2023-01-21T12:42:56.000Z</time>
      </trkpt>
      <trkpt lat="46.26948" lon="6.57421">
        <ele>1858.7</ele>
        <time>2023-01-21T12:42:57.000Z</time>
      </trkpt>
      <trkpt lat="46.26948" lon="6.57421">
        <ele>1858.7</ele>
        <time>2023-01-21T12:42:58.000Z</time>
      </trkpt>
      <trkpt lat="46.26948" lon="6.57421">
        <ele>1858.7</ele>
        <time>2023-01-21T12:42:59.000Z</time>
      </trkpt>
      <trkpt lat="46.26948" lon="6.57421">
        <ele>1858.7</ele>
        <time>2023-01-21T12:43:00.000Z</time>
      </trkpt>
      <trkpt lat="46.26948" lon="6.57421">
        <ele>1858.7</ele>
        <time>2023-01-21T12:43:01.000Z</time>
      </trkpt>
      <trkpt lat="46.26948" lon="6.57421">
        <ele>1858.7</ele>
        <time>2023-01-21T12:43:02.000Z</time>
      </trkpt>
      <trkpt lat="46.26948" lon="6.57421">
        <ele>1858.7</ele>
        <time>2023-01-21T12:43:03.000Z</time>
      </trkpt>
      <trkpt lat="46.26948" lon="6.57421">
        <ele>1858.7</ele>
        <time>2023-01-21T12:43:04.000Z</time>
      </trkpt>
      <trkpt lat="46.26948" lon="6.57421">
        <ele>1858.7</ele>
        <time>2023-01-21T12:43:05.000Z</time>
      </trkpt>
      <trkpt lat="46.26948" lon="6.57421">
        <ele>1858.7</ele>
        <time>2023-01-21T12:43:06.000Z</time>
      </trkpt>
      <trkpt lat="46.26948" lon="6.57421">
        <ele>1858.7</ele>
        <time>2023-01-21T12:43:07.000Z</time>
      </trkpt>
      <trkpt lat="46.26948" lon="6.57421">
        <ele>1858.7</ele>
        <time>2023-01-21T12:43:08.000Z</time>
      </trkpt>
      <trkpt lat="46.26948" lon="6.57421">
        <ele>1858.7</ele>
        <time>2023-01-21T12:43:09.000Z</time>
      </trkpt>
      <trkpt lat="46.26948" lon="6.57421">
        <ele>1858.7</ele>
        <time>2023-01-21T12:43:10.000Z</time>
      </trkpt>
      <trkpt lat="46.2694" lon="6.57413">
        <ele>1859.9</ele>
        <time>2023-01-21T12:43:11.000Z</time>
      </trkpt>
      <trkpt lat="46.2694" lon="6.57413">
        <ele>1860.2</ele>
        <time>2023-01-21T12:43:12.000Z</time>
      </trkpt>
      <trkpt lat="46.26939" lon="6.57412">
        <ele>1860.7</ele>
        <time>2023-01-21T12:43:13.000Z</time>
      </trkpt>
      <trkpt lat="46.26938" lon="6.57411">
        <ele>1860.9</ele>
        <time>2023-01-21T12:43:14.000Z</time>
      </trkpt>
      <trkpt lat="46.26938" lon="6.57411">
        <ele>1860.9</ele>
        <time>2023-01-21T12:43:15.000Z</time>
      </trkpt>
      <trkpt lat="46.26938" lon="6.57411">
        <ele>1860.9</ele>
        <time>2023-01-21T12:43:16.000Z</time>
      </trkpt>
      <trkpt lat="46.26938" lon="6.57411">
        <ele>1860.9</ele>
        <time>2023-01-21T12:43:17.000Z</time>
      </trkpt>
      <trkpt lat="46.26938" lon="6.57411">
        <ele>1860.9</ele>
        <time>2023-01-21T12:43:18.000Z</time>
      </trkpt>
      <trkpt lat="46.26938" lon="6.57411">
        <ele>1860.9</ele>
        <time>2023-01-21T12:43:19.000Z</time>
      </trkpt>
      <trkpt lat="46.26938" lon="6.57411">
        <ele>1860.9</ele>
        <time>2023-01-21T12:43:20.000Z</time>
      </trkpt>
      <trkpt lat="46.26938" lon="6.57411">
        <ele>1860.9</ele>
        <time>2023-01-21T12:43:21.000Z</time>
      </trkpt>
      <trkpt lat="46.26938" lon="6.57411">
        <ele>1860.9</ele>
        <time>2023-01-21T12:43:22.000Z</time>
      </trkpt>
      <trkpt lat="46.26938" lon="6.57411">
        <ele>1860.9</ele>
        <time>2023-01-21T12:43:23.000Z</time>
      </trkpt>
      <trkpt lat="46.26938" lon="6.57411">
        <ele>1860.9</ele>
        <time>2023-01-21T12:43:24.000Z</time>
      </trkpt>
      <trkpt lat="46.26938" lon="6.57411">
        <ele>1860.9</ele>
        <time>2023-01-21T12:43:25.000Z</time>
      </trkpt>
      <trkpt lat="46.26938" lon="6.57411">
        <ele>1860.9</ele>
        <time>2023-01-21T12:43:26.000Z</time>
      </trkpt>
      <trkpt lat="46.26938" lon="6.57411">
        <ele>1860.9</ele>
        <time>2023-01-21T12:43:27.000Z</time>
      </trkpt>
      <trkpt lat="46.26938" lon="6.57411">
        <ele>1860.9</ele>
        <time>2023-01-21T12:43:28.000Z</time>
      </trkpt>
      <trkpt lat="46.26938" lon="6.57411">
        <ele>1860.9</ele>
        <time>2023-01-21T12:43:29.000Z</time>
      </trkpt>
      <trkpt lat="46.26938" lon="6.57411">
        <ele>1860.9</ele>
        <time>2023-01-21T12:43:30.000Z</time>
      </trkpt>
      <trkpt lat="46.26938" lon="6.57411">
        <ele>1860.9</ele>
        <time>2023-01-21T12:43:31.000Z</time>
      </trkpt>
      <trkpt lat="46.26938" lon="6.57411">
        <ele>1860.9</ele>
        <time>2023-01-21T12:43:32.000Z</time>
      </trkpt>
      <trkpt lat="46.26938" lon="6.57411">
        <ele>1860.9</ele>
        <time>2023-01-21T12:43:33.000Z</time>
      </trkpt>
      <trkpt lat="46.26932" lon="6.57402">
        <ele>1863.1</ele>
        <time>2023-01-21T12:43:34.000Z</time>
      </trkpt>
      <trkpt lat="46.26931" lon="6.57402">
        <ele>1863.2</ele>
        <time>2023-01-21T12:43:35.000Z</time>
      </trkpt>
      <trkpt lat="46.26931" lon="6.57401">
        <ele>1863.3</ele>
        <time>2023-01-21T12:43:36.000Z</time>
      </trkpt>
      <trkpt lat="46.2693" lon="6.57401">
        <ele>1863.4</ele>
        <time>2023-01-21T12:43:37.000Z</time>
      </trkpt>
      <trkpt lat="46.2693" lon="6.57401">
        <ele>1863.4</ele>
        <time>2023-01-21T12:43:38.000Z</time>
      </trkpt>
      <trkpt lat="46.2693" lon="6.57401">
        <ele>1863.4</ele>
        <time>2023-01-21T12:43:39.000Z</time>
      </trkpt>
      <trkpt lat="46.2693" lon="6.57401">
        <ele>1863.4</ele>
        <time>2023-01-21T12:43:40.000Z</time>
      </trkpt>
      <trkpt lat="46.2693" lon="6.57401">
        <ele>1863.4</ele>
        <time>2023-01-21T12:43:41.000Z</time>
      </trkpt>
      <trkpt lat="46.2693" lon="6.57401">
        <ele>1863.4</ele>
        <time>2023-01-21T12:43:42.000Z</time>
      </trkpt>
      <trkpt lat="46.2693" lon="6.57401">
        <ele>1863.4</ele>
        <time>2023-01-21T12:43:43.000Z</time>
      </trkpt>
      <trkpt lat="46.2693" lon="6.57401">
        <ele>1863.4</ele>
        <time>2023-01-21T12:43:44.000Z</time>
      </trkpt>
      <trkpt lat="46.2693" lon="6.57401">
        <ele>1863.4</ele>
        <time>2023-01-21T12:43:45.000Z</time>
      </trkpt>
      <trkpt lat="46.2693" lon="6.57401">
        <ele>1863.4</ele>
        <time>2023-01-21T12:43:46.000Z</time>
      </trkpt>
      <trkpt lat="46.2693" lon="6.57401">
        <ele>1863.4</ele>
        <time>2023-01-21T12:43:47.000Z</time>
      </trkpt>
      <trkpt lat="46.2693" lon="6.57401">
        <ele>1863.4</ele>
        <time>2023-01-21T12:43:48.000Z</time>
      </trkpt>
      <trkpt lat="46.2693" lon="6.57401">
        <ele>1863.4</ele>
        <time>2023-01-21T12:43:49.000Z</time>
      </trkpt>
      <trkpt lat="46.2693" lon="6.57401">
        <ele>1863.4</ele>
        <time>2023-01-21T12:43:50.000Z</time>
      </trkpt>
      <trkpt lat="46.2693" lon="6.57401">
        <ele>1863.4</ele>
        <time>2023-01-21T12:43:51.000Z</time>
      </trkpt>
      <trkpt lat="46.2693" lon="6.57401">
        <ele>1863.4</ele>
        <time>2023-01-21T12:43:52.000Z</time>
      </trkpt>
      <trkpt lat="46.26923" lon="6.57392">
        <ele>1865.1</ele>
        <time>2023-01-21T12:43:53.000Z</time>
      </trkpt>
      <trkpt lat="46.26923" lon="6.57392">
        <ele>1865.2</ele>
        <time>2023-01-21T12:43:54.000Z</time>
      </trkpt>
      <trkpt lat="46.26922" lon="6.57391">
        <ele>1865.3</ele>
        <time>2023-01-21T12:43:55.000Z</time>
      </trkpt>
      <trkpt lat="46.26922" lon="6.57391">
        <ele>1865.4</ele>
        <time>2023-01-21T12:43:56.000Z</time>
      </trkpt>
      <trkpt lat="46.26922" lon="6.57391">
        <ele>1865.4</ele>
        <time>2023-01-21T12:43:57.000Z</time>
      </trkpt>
      <trkpt lat="46.26922" lon="6.57391">
        <ele>1865.4</ele>
        <time>2023-01-21T12:43:58.000Z</time>
      </trkpt>
      <trkpt lat="46.26922" lon="6.57391">
        <ele>1865.4</ele>
        <time>2023-01-21T12:43:59.000Z</time>
      </trkpt>
      <trkpt lat="46.26922" lon="6.57391">
        <ele>1865.4</ele>
        <time>2023-01-21T12:44:00.000Z</time>
      </trkpt>
      <trkpt lat="46.26922" lon="6.57391">
        <ele>1865.4</ele>
        <time>2023-01-21T12:44:01.000Z</time>
      </trkpt>
      <trkpt lat="46.26922" lon="6.57391">
        <ele>1865.4</ele>
        <time>2023-01-21T12:44:02.000Z</time>
      </trkpt>
      <trkpt lat="46.26922" lon="6.57391">
        <ele>1865.4</ele>
        <time>2023-01-21T12:44:03.000Z</time>
      </trkpt>
      <trkpt lat="46.26922" lon="6.57391">
        <ele>1865.4</ele>
        <time>2023-01-21T12:44:04.000Z</time>
      </trkpt>
      <trkpt lat="46.26922" lon="6.57391">
        <ele>1865.4</ele>
        <time>2023-01-21T12:44:05.000Z</time>
      </trkpt>
      <trkpt lat="46.26922" lon="6.57391">
        <ele>1865.4</ele>
        <time>2023-01-21T12:44:06.000Z</time>
      </trkpt>
      <trkpt lat="46.26922" lon="6.57391">
        <ele>1868.5</ele>
        <time>2023-01-21T12:44:07.000Z</time>
      </trkpt>
      <trkpt lat="46.26922" lon="6.57391">
        <ele>1868.5</ele>
        <time>2023-01-21T12:44:08.000Z</time>
      </trkpt>
      <trkpt lat="46.26922" lon="6.57391">
        <ele>1868.5</ele>
        <time>2023-01-21T12:44:09.000Z</time>
      </trkpt>
      <trkpt lat="46.26922" lon="6.57391">
        <ele>1868.5</ele>
        <time>2023-01-21T12:44:10.000Z</time>
      </trkpt>
      <trkpt lat="46.26922" lon="6.57391">
        <ele>1868.5</ele>
        <time>2023-01-21T12:44:11.000Z</time>
      </trkpt>
      <trkpt lat="46.26922" lon="6.57391">
        <ele>1868.5</ele>
        <time>2023-01-21T12:44:12.000Z</time>
      </trkpt>
      <trkpt lat="46.26922" lon="6.57391">
        <ele>1868.5</ele>
        <time>2023-01-21T12:44:13.000Z</time>
      </trkpt>
      <trkpt lat="46.26922" lon="6.57391">
        <ele>1868.5</ele>
        <time>2023-01-21T12:44:14.000Z</time>
      </trkpt>
      <trkpt lat="46.26922" lon="6.57391">
        <ele>1868.5</ele>
        <time>2023-01-21T12:44:15.000Z</time>
      </trkpt>
      <trkpt lat="46.26922" lon="6.57391">
        <ele>1868.5</ele>
        <time>2023-01-21T12:44:16.000Z</time>
      </trkpt>
      <trkpt lat="46.26922" lon="6.57391">
        <ele>1868.5</ele>
        <time>2023-01-21T12:44:17.000Z</time>
      </trkpt>
      <trkpt lat="46.26922" lon="6.57391">
        <ele>1868.5</ele>
        <time>2023-01-21T12:44:18.000Z</time>
      </trkpt>
      <trkpt lat="46.26922" lon="6.57391">
        <ele>1868.5</ele>
        <time>2023-01-21T12:44:19.000Z</time>
      </trkpt>
      <trkpt lat="46.26922" lon="6.57391">
        <ele>1868.5</ele>
        <time>2023-01-21T12:44:20.000Z</time>
      </trkpt>
      <trkpt lat="46.26922" lon="6.57391">
        <ele>1868.5</ele>
        <time>2023-01-21T12:44:21.000Z</time>
      </trkpt>
      <trkpt lat="46.26922" lon="6.57391">
        <ele>1868.5</ele>
        <time>2023-01-21T12:44:22.000Z</time>
      </trkpt>
      <trkpt lat="46.26922" lon="6.57391">
        <ele>1868.5</ele>
        <time>2023-01-21T12:44:23.000Z</time>
      </trkpt>
      <trkpt lat="46.26922" lon="6.57391">
        <ele>1868.5</ele>
        <time>2023-01-21T12:44:24.000Z</time>
      </trkpt>
      <trkpt lat="46.26922" lon="6.57391">
        <ele>1868.5</ele>
        <time>2023-01-21T12:44:25.000Z</time>
      </trkpt>
      <trkpt lat="46.26922" lon="6.57391">
        <ele>1868.5</ele>
        <time>2023-01-21T12:44:26.000Z</time>
      </trkpt>
      <trkpt lat="46.26922" lon="6.57391">
        <ele>1868.5</ele>
        <time>2023-01-21T12:44:27.000Z</time>
      </trkpt>
      <trkpt lat="46.26922" lon="6.57391">
        <ele>1868.5</ele>
        <time>2023-01-21T12:44:28.000Z</time>
      </trkpt>
      <trkpt lat="46.26922" lon="6.57391">
        <ele>1868.5</ele>
        <time>2023-01-21T12:44:29.000Z</time>
      </trkpt>
      <trkpt lat="46.26922" lon="6.57391">
        <ele>1868.5</ele>
        <time>2023-01-21T12:44:30.000Z</time>
      </trkpt>
      <trkpt lat="46.26922" lon="6.57391">
        <ele>1868.5</ele>
        <time>2023-01-21T12:44:31.000Z</time>
      </trkpt>
      <trkpt lat="46.26922" lon="6.57391">
        <ele>1868.5</ele>
        <time>2023-01-21T12:44:32.000Z</time>
      </trkpt>
      <trkpt lat="46.26922" lon="6.57391">
        <ele>1868.5</ele>
        <time>2023-01-21T12:44:33.000Z</time>
      </trkpt>
      <trkpt lat="46.26922" lon="6.57391">
        <ele>1868.5</ele>
        <time>2023-01-21T12:44:34.000Z</time>
      </trkpt>
      <trkpt lat="46.26922" lon="6.57391">
        <ele>1868.5</ele>
        <time>2023-01-21T12:44:35.000Z</time>
      </trkpt>
      <trkpt lat="46.26922" lon="6.57391">
        <ele>1868.5</ele>
        <time>2023-01-21T12:44:36.000Z</time>
      </trkpt>
      <trkpt lat="46.26922" lon="6.57391">
        <ele>1868.5</ele>
        <time>2023-01-21T12:44:37.000Z</time>
      </trkpt>
      <trkpt lat="46.26922" lon="6.57391">
        <ele>1868.5</ele>
        <time>2023-01-21T12:44:38.000Z</time>
      </trkpt>
      <trkpt lat="46.26922" lon="6.57391">
        <ele>1868.5</ele>
        <time>2023-01-21T12:44:39.000Z</time>
      </trkpt>
      <trkpt lat="46.26922" lon="6.57391">
        <ele>1868.5</ele>
        <time>2023-01-21T12:44:40.000Z</time>
      </trkpt>
      <trkpt lat="46.26922" lon="6.57391">
        <ele>1868.5</ele>
        <time>2023-01-21T12:44:41.000Z</time>
      </trkpt>
      <trkpt lat="46.26922" lon="6.57391">
        <ele>1868.5</ele>
        <time>2023-01-21T12:44:42.000Z</time>
      </trkpt>
      <trkpt lat="46.26922" lon="6.57391">
        <ele>1868.5</ele>
        <time>2023-01-21T12:44:43.000Z</time>
      </trkpt>
      <trkpt lat="46.26922" lon="6.57391">
        <ele>1868.5</ele>
        <time>2023-01-21T12:44:44.000Z</time>
      </trkpt>
      <trkpt lat="46.26922" lon="6.57391">
        <ele>1868.5</ele>
        <time>2023-01-21T12:44:45.000Z</time>
      </trkpt>
      <trkpt lat="46.26922" lon="6.57391">
        <ele>1868.5</ele>
        <time>2023-01-21T12:44:46.000Z</time>
      </trkpt>
      <trkpt lat="46.26922" lon="6.57391">
        <ele>1868.5</ele>
        <time>2023-01-21T12:44:47.000Z</time>
      </trkpt>
      <trkpt lat="46.26922" lon="6.57391">
        <ele>1868.5</ele>
        <time>2023-01-21T12:44:48.000Z</time>
      </trkpt>
      <trkpt lat="46.26922" lon="6.57391">
        <ele>1868.5</ele>
        <time>2023-01-21T12:44:49.000Z</time>
      </trkpt>
      <trkpt lat="46.26922" lon="6.57391">
        <ele>1868.5</ele>
        <time>2023-01-21T12:44:50.000Z</time>
      </trkpt>
      <trkpt lat="46.26922" lon="6.57391">
        <ele>1868.5</ele>
        <time>2023-01-21T12:44:51.000Z</time>
      </trkpt>
      <trkpt lat="46.26922" lon="6.57391">
        <ele>1868.5</ele>
        <time>2023-01-21T12:44:52.000Z</time>
      </trkpt>
      <trkpt lat="46.26922" lon="6.57391">
        <ele>1868.5</ele>
        <time>2023-01-21T12:44:53.000Z</time>
      </trkpt>
      <trkpt lat="46.26922" lon="6.57391">
        <ele>1868.5</ele>
        <time>2023-01-21T12:44:54.000Z</time>
      </trkpt>
      <trkpt lat="46.26922" lon="6.57391">
        <ele>1868.5</ele>
        <time>2023-01-21T12:44:55.000Z</time>
      </trkpt>
      <trkpt lat="46.26922" lon="6.57391">
        <ele>1868.5</ele>
        <time>2023-01-21T12:44:56.000Z</time>
      </trkpt>
      <trkpt lat="46.26922" lon="6.57391">
        <ele>1871.8</ele>
        <time>2023-01-21T12:44:57.000Z</time>
      </trkpt>
      <trkpt lat="46.26922" lon="6.57391">
        <ele>1871.8</ele>
        <time>2023-01-21T12:44:58.000Z</time>
      </trkpt>
      <trkpt lat="46.26922" lon="6.57391">
        <ele>1871.8</ele>
        <time>2023-01-21T12:44:59.000Z</time>
      </trkpt>
      <trkpt lat="46.26922" lon="6.57391">
        <ele>1871.8</ele>
        <time>2023-01-21T12:45:00.000Z</time>
      </trkpt>
      <trkpt lat="46.26922" lon="6.57391">
        <ele>1871.8</ele>
        <time>2023-01-21T12:45:01.000Z</time>
      </trkpt>
      <trkpt lat="46.26922" lon="6.57391">
        <ele>1871.8</ele>
        <time>2023-01-21T12:45:02.000Z</time>
      </trkpt>
      <trkpt lat="46.26922" lon="6.57391">
        <ele>1875.1</ele>
        <time>2023-01-21T12:45:03.000Z</time>
      </trkpt>
      <trkpt lat="46.26922" lon="6.57391">
        <ele>1875.1</ele>
        <time>2023-01-21T12:45:04.000Z</time>
      </trkpt>
      <trkpt lat="46.26922" lon="6.57391">
        <ele>1875.1</ele>
        <time>2023-01-21T12:45:05.000Z</time>
      </trkpt>
      <trkpt lat="46.26922" lon="6.57391">
        <ele>1875.1</ele>
        <time>2023-01-21T12:45:06.000Z</time>
      </trkpt>
      <trkpt lat="46.26922" lon="6.57391">
        <ele>1875.1</ele>
        <time>2023-01-21T12:45:07.000Z</time>
      </trkpt>
      <trkpt lat="46.26922" lon="6.57391">
        <ele>1875.1</ele>
        <time>2023-01-21T12:45:08.000Z</time>
      </trkpt>
      <trkpt lat="46.26922" lon="6.57391">
        <ele>1875.1</ele>
        <time>2023-01-21T12:45:09.000Z</time>
      </trkpt>
      <trkpt lat="46.26922" lon="6.57391">
        <ele>1875.1</ele>
        <time>2023-01-21T12:45:10.000Z</time>
      </trkpt>
      <trkpt lat="46.26922" lon="6.57391">
        <ele>1875.1</ele>
        <time>2023-01-21T12:45:11.000Z</time>
      </trkpt>
      <trkpt lat="46.26922" lon="6.57391">
        <ele>1875.1</ele>
        <time>2023-01-21T12:45:12.000Z</time>
      </trkpt>
      <trkpt lat="46.26922" lon="6.57391">
        <ele>1875.1</ele>
        <time>2023-01-21T12:45:13.000Z</time>
      </trkpt>
      <trkpt lat="46.26922" lon="6.57391">
        <ele>1875.1</ele>
        <time>2023-01-21T12:45:14.000Z</time>
      </trkpt>
      <trkpt lat="46.26922" lon="6.57391">
        <ele>1875.1</ele>
        <time>2023-01-21T12:45:15.000Z</time>
      </trkpt>
      <trkpt lat="46.26922" lon="6.57391">
        <ele>1875.1</ele>
        <time>2023-01-21T12:45:16.000Z</time>
      </trkpt>
      <trkpt lat="46.26922" lon="6.57391">
        <ele>1875.1</ele>
        <time>2023-01-21T12:45:17.000Z</time>
      </trkpt>
      <trkpt lat="46.26922" lon="6.57391">
        <ele>1875.1</ele>
        <time>2023-01-21T12:45:18.000Z</time>
      </trkpt>
      <trkpt lat="46.26922" lon="6.57391">
        <ele>1875.1</ele>
        <time>2023-01-21T12:45:19.000Z</time>
      </trkpt>
      <trkpt lat="46.26922" lon="6.57391">
        <ele>1875.1</ele>
        <time>2023-01-21T12:45:20.000Z</time>
      </trkpt>
      <trkpt lat="46.26922" lon="6.57391">
        <ele>1875.1</ele>
        <time>2023-01-21T12:45:21.000Z</time>
      </trkpt>
      <trkpt lat="46.26922" lon="6.57404">
        <ele>1876.8</ele>
        <time>2023-01-21T12:45:22.000Z</time>
      </trkpt>
      <trkpt lat="46.26922" lon="6.57405">
        <ele>1876.9</ele>
        <time>2023-01-21T12:45:23.000Z</time>
      </trkpt>
      <trkpt lat="46.26922" lon="6.57405">
        <ele>1877</ele>
        <time>2023-01-21T12:45:24.000Z</time>
      </trkpt>
      <trkpt lat="46.26922" lon="6.57405">
        <ele>1877.1</ele>
        <time>2023-01-21T12:45:25.000Z</time>
      </trkpt>
      <trkpt lat="46.26922" lon="6.57405">
        <ele>1877.1</ele>
        <time>2023-01-21T12:45:26.000Z</time>
      </trkpt>
      <trkpt lat="46.26922" lon="6.57405">
        <ele>1877.1</ele>
        <time>2023-01-21T12:45:27.000Z</time>
      </trkpt>
      <trkpt lat="46.26922" lon="6.57405">
        <ele>1877.1</ele>
        <time>2023-01-21T12:45:28.000Z</time>
      </trkpt>
      <trkpt lat="46.26922" lon="6.57405">
        <ele>1877.1</ele>
        <time>2023-01-21T12:45:29.000Z</time>
      </trkpt>
      <trkpt lat="46.26922" lon="6.57405">
        <ele>1877.1</ele>
        <time>2023-01-21T12:45:30.000Z</time>
      </trkpt>
      <trkpt lat="46.26922" lon="6.57405">
        <ele>1877.1</ele>
        <time>2023-01-21T12:45:31.000Z</time>
      </trkpt>
      <trkpt lat="46.26922" lon="6.57405">
        <ele>1877.1</ele>
        <time>2023-01-21T12:45:32.000Z</time>
      </trkpt>
      <trkpt lat="46.26922" lon="6.57405">
        <ele>1877.1</ele>
        <time>2023-01-21T12:45:33.000Z</time>
      </trkpt>
      <trkpt lat="46.26922" lon="6.57405">
        <ele>1877.1</ele>
        <time>2023-01-21T12:45:34.000Z</time>
      </trkpt>
      <trkpt lat="46.26922" lon="6.57405">
        <ele>1877.1</ele>
        <time>2023-01-21T12:45:35.000Z</time>
      </trkpt>
      <trkpt lat="46.26922" lon="6.57405">
        <ele>1877.1</ele>
        <time>2023-01-21T12:45:36.000Z</time>
      </trkpt>
      <trkpt lat="46.26922" lon="6.57405">
        <ele>1877.1</ele>
        <time>2023-01-21T12:45:37.000Z</time>
      </trkpt>
      <trkpt lat="46.26922" lon="6.57405">
        <ele>1877.1</ele>
        <time>2023-01-21T12:45:38.000Z</time>
      </trkpt>
      <trkpt lat="46.26922" lon="6.57405">
        <ele>1877.1</ele>
        <time>2023-01-21T12:45:39.000Z</time>
      </trkpt>
      <trkpt lat="46.26922" lon="6.57405">
        <ele>1877.1</ele>
        <time>2023-01-21T12:45:40.000Z</time>
      </trkpt>
      <trkpt lat="46.26922" lon="6.57405">
        <ele>1877.1</ele>
        <time>2023-01-21T12:45:41.000Z</time>
      </trkpt>
      <trkpt lat="46.26922" lon="6.57405">
        <ele>1877.1</ele>
        <time>2023-01-21T12:45:42.000Z</time>
      </trkpt>
      <trkpt lat="46.26922" lon="6.57405">
        <ele>1877.1</ele>
        <time>2023-01-21T12:45:43.000Z</time>
      </trkpt>
      <trkpt lat="46.26922" lon="6.57405">
        <ele>1877.1</ele>
        <time>2023-01-21T12:45:44.000Z</time>
      </trkpt>
      <trkpt lat="46.26922" lon="6.57405">
        <ele>1877.1</ele>
        <time>2023-01-21T12:45:45.000Z</time>
      </trkpt>
      <trkpt lat="46.26922" lon="6.57405">
        <ele>1877.1</ele>
        <time>2023-01-21T12:45:46.000Z</time>
      </trkpt>
      <trkpt lat="46.26922" lon="6.57405">
        <ele>1877.1</ele>
        <time>2023-01-21T12:45:47.000Z</time>
      </trkpt>
      <trkpt lat="46.26922" lon="6.57405">
        <ele>1877.1</ele>
        <time>2023-01-21T12:45:48.000Z</time>
      </trkpt>
      <trkpt lat="46.26922" lon="6.57405">
        <ele>1877.1</ele>
        <time>2023-01-21T12:45:49.000Z</time>
      </trkpt>
      <trkpt lat="46.26922" lon="6.57405">
        <ele>1877.1</ele>
        <time>2023-01-21T12:45:50.000Z</time>
      </trkpt>
      <trkpt lat="46.26922" lon="6.57405">
        <ele>1877.1</ele>
        <time>2023-01-21T12:45:51.000Z</time>
      </trkpt>
      <trkpt lat="46.26922" lon="6.57405">
        <ele>1877.1</ele>
        <time>2023-01-21T12:45:52.000Z</time>
      </trkpt>
      <trkpt lat="46.26922" lon="6.57405">
        <ele>1877.1</ele>
        <time>2023-01-21T12:45:53.000Z</time>
      </trkpt>
      <trkpt lat="46.26922" lon="6.57405">
        <ele>1877.1</ele>
        <time>2023-01-21T12:45:54.000Z</time>
      </trkpt>
      <trkpt lat="46.26922" lon="6.57405">
        <ele>1877.1</ele>
        <time>2023-01-21T12:45:55.000Z</time>
      </trkpt>
      <trkpt lat="46.26922" lon="6.57405">
        <ele>1877.1</ele>
        <time>2023-01-21T12:45:56.000Z</time>
      </trkpt>
      <trkpt lat="46.26922" lon="6.57405">
        <ele>1877.1</ele>
        <time>2023-01-21T12:45:57.000Z</time>
      </trkpt>
      <trkpt lat="46.26917" lon="6.57417">
        <ele>1879.8</ele>
        <time>2023-01-21T12:45:58.000Z</time>
      </trkpt>
      <trkpt lat="46.26917" lon="6.57418">
        <ele>1879.9</ele>
        <time>2023-01-21T12:45:59.000Z</time>
      </trkpt>
      <trkpt lat="46.26916" lon="6.57418">
        <ele>1880</ele>
        <time>2023-01-21T12:46:00.000Z</time>
      </trkpt>
      <trkpt lat="46.26916" lon="6.57419">
        <ele>1880</ele>
        <time>2023-01-21T12:46:01.000Z</time>
      </trkpt>
      <trkpt lat="46.26916" lon="6.57419">
        <ele>1880</ele>
        <time>2023-01-21T12:46:02.000Z</time>
      </trkpt>
      <trkpt lat="46.26916" lon="6.57419">
        <ele>1880</ele>
        <time>2023-01-21T12:46:03.000Z</time>
      </trkpt>
      <trkpt lat="46.26916" lon="6.57419">
        <ele>1880</ele>
        <time>2023-01-21T12:46:04.000Z</time>
      </trkpt>
      <trkpt lat="46.26916" lon="6.57419">
        <ele>1880</ele>
        <time>2023-01-21T12:46:05.000Z</time>
      </trkpt>
      <trkpt lat="46.26916" lon="6.57419">
        <ele>1880</ele>
        <time>2023-01-21T12:46:06.000Z</time>
      </trkpt>
      <trkpt lat="46.26916" lon="6.57419">
        <ele>1880</ele>
        <time>2023-01-21T12:46:07.000Z</time>
      </trkpt>
      <trkpt lat="46.26916" lon="6.57419">
        <ele>1880</ele>
        <time>2023-01-21T12:46:08.000Z</time>
      </trkpt>
      <trkpt lat="46.26916" lon="6.57419">
        <ele>1880</ele>
        <time>2023-01-21T12:46:09.000Z</time>
      </trkpt>
      <trkpt lat="46.26916" lon="6.57419">
        <ele>1880</ele>
        <time>2023-01-21T12:46:10.000Z</time>
      </trkpt>
      <trkpt lat="46.26916" lon="6.57419">
        <ele>1880</ele>
        <time>2023-01-21T12:46:11.000Z</time>
      </trkpt>
      <trkpt lat="46.26916" lon="6.57419">
        <ele>1880</ele>
        <time>2023-01-21T12:46:12.000Z</time>
      </trkpt>
      <trkpt lat="46.26916" lon="6.57419">
        <ele>1880</ele>
        <time>2023-01-21T12:46:13.000Z</time>
      </trkpt>
      <trkpt lat="46.26916" lon="6.57419">
        <ele>1880</ele>
        <time>2023-01-21T12:46:14.000Z</time>
      </trkpt>
      <trkpt lat="46.26916" lon="6.57419">
        <ele>1880</ele>
        <time>2023-01-21T12:46:15.000Z</time>
      </trkpt>
      <trkpt lat="46.26916" lon="6.57419">
        <ele>1880</ele>
        <time>2023-01-21T12:46:16.000Z</time>
      </trkpt>
      <trkpt lat="46.26916" lon="6.57419">
        <ele>1880</ele>
        <time>2023-01-21T12:46:17.000Z</time>
      </trkpt>
      <trkpt lat="46.26916" lon="6.57419">
        <ele>1880</ele>
        <time>2023-01-21T12:46:18.000Z</time>
      </trkpt>
      <trkpt lat="46.26916" lon="6.57419">
        <ele>1880</ele>
        <time>2023-01-21T12:46:19.000Z</time>
      </trkpt>
      <trkpt lat="46.26916" lon="6.57419">
        <ele>1880</ele>
        <time>2023-01-21T12:46:20.000Z</time>
      </trkpt>
      <trkpt lat="46.26916" lon="6.57419">
        <ele>1880</ele>
        <time>2023-01-21T12:46:21.000Z</time>
      </trkpt>
      <trkpt lat="46.26911" lon="6.5743">
        <ele>1881.4</ele>
        <time>2023-01-21T12:46:22.000Z</time>
      </trkpt>
      <trkpt lat="46.26911" lon="6.5743">
        <ele>1881.5</ele>
        <time>2023-01-21T12:46:23.000Z</time>
      </trkpt>
      <trkpt lat="46.26911" lon="6.57431">
        <ele>1881.5</ele>
        <time>2023-01-21T12:46:24.000Z</time>
      </trkpt>
      <trkpt lat="46.2691" lon="6.57432">
        <ele>1881.6</ele>
        <time>2023-01-21T12:46:25.000Z</time>
      </trkpt>
      <trkpt lat="46.2691" lon="6.57432">
        <ele>1881.6</ele>
        <time>2023-01-21T12:46:26.000Z</time>
      </trkpt>
      <trkpt lat="46.2691" lon="6.57432">
        <ele>1881.6</ele>
        <time>2023-01-21T12:46:27.000Z</time>
      </trkpt>
      <trkpt lat="46.2691" lon="6.57432">
        <ele>1881.6</ele>
        <time>2023-01-21T12:46:28.000Z</time>
      </trkpt>
      <trkpt lat="46.2691" lon="6.57432">
        <ele>1881.6</ele>
        <time>2023-01-21T12:46:29.000Z</time>
      </trkpt>
      <trkpt lat="46.2691" lon="6.57432">
        <ele>1881.6</ele>
        <time>2023-01-21T12:46:30.000Z</time>
      </trkpt>
      <trkpt lat="46.2691" lon="6.57432">
        <ele>1881.6</ele>
        <time>2023-01-21T12:46:31.000Z</time>
      </trkpt>
      <trkpt lat="46.2691" lon="6.57432">
        <ele>1881.6</ele>
        <time>2023-01-21T12:46:32.000Z</time>
      </trkpt>
      <trkpt lat="46.2691" lon="6.57432">
        <ele>1881.6</ele>
        <time>2023-01-21T12:46:33.000Z</time>
      </trkpt>
      <trkpt lat="46.2691" lon="6.57432">
        <ele>1881.6</ele>
        <time>2023-01-21T12:46:34.000Z</time>
      </trkpt>
      <trkpt lat="46.2691" lon="6.57432">
        <ele>1881.6</ele>
        <time>2023-01-21T12:46:35.000Z</time>
      </trkpt>
      <trkpt lat="46.2691" lon="6.57432">
        <ele>1881.6</ele>
        <time>2023-01-21T12:46:36.000Z</time>
      </trkpt>
      <trkpt lat="46.2691" lon="6.57432">
        <ele>1881.6</ele>
        <time>2023-01-21T12:46:37.000Z</time>
      </trkpt>
      <trkpt lat="46.2691" lon="6.57432">
        <ele>1881.6</ele>
        <time>2023-01-21T12:46:38.000Z</time>
      </trkpt>
      <trkpt lat="46.2691" lon="6.57432">
        <ele>1881.6</ele>
        <time>2023-01-21T12:46:39.000Z</time>
      </trkpt>
      <trkpt lat="46.2691" lon="6.57432">
        <ele>1881.6</ele>
        <time>2023-01-21T12:46:40.000Z</time>
      </trkpt>
      <trkpt lat="46.2691" lon="6.57432">
        <ele>1881.6</ele>
        <time>2023-01-21T12:46:41.000Z</time>
      </trkpt>
      <trkpt lat="46.2691" lon="6.57432">
        <ele>1881.6</ele>
        <time>2023-01-21T12:46:42.000Z</time>
      </trkpt>
      <trkpt lat="46.2691" lon="6.57432">
        <ele>1881.6</ele>
        <time>2023-01-21T12:46:43.000Z</time>
      </trkpt>
      <trkpt lat="46.2691" lon="6.57432">
        <ele>1881.6</ele>
        <time>2023-01-21T12:46:44.000Z</time>
      </trkpt>
      <trkpt lat="46.2691" lon="6.57432">
        <ele>1881.6</ele>
        <time>2023-01-21T12:46:45.000Z</time>
      </trkpt>
      <trkpt lat="46.2691" lon="6.57432">
        <ele>1881.6</ele>
        <time>2023-01-21T12:46:46.000Z</time>
      </trkpt>
      <trkpt lat="46.2691" lon="6.57432">
        <ele>1881.6</ele>
        <time>2023-01-21T12:46:47.000Z</time>
      </trkpt>
      <trkpt lat="46.26901" lon="6.5743">
        <ele>1885</ele>
        <time>2023-01-21T12:46:48.000Z</time>
      </trkpt>
      <trkpt lat="46.269" lon="6.5743">
        <ele>1885.2</ele>
        <time>2023-01-21T12:46:49.000Z</time>
      </trkpt>
      <trkpt lat="46.269" lon="6.5743">
        <ele>1885.6</ele>
        <time>2023-01-21T12:46:50.000Z</time>
      </trkpt>
      <trkpt lat="46.269" lon="6.57429">
        <ele>1885.9</ele>
        <time>2023-01-21T12:46:51.000Z</time>
      </trkpt>
      <trkpt lat="46.269" lon="6.57429">
        <ele>1885.9</ele>
        <time>2023-01-21T12:46:52.000Z</time>
      </trkpt>
      <trkpt lat="46.269" lon="6.57429">
        <ele>1885.9</ele>
        <time>2023-01-21T12:46:53.000Z</time>
      </trkpt>
      <trkpt lat="46.269" lon="6.57429">
        <ele>1885.9</ele>
        <time>2023-01-21T12:46:54.000Z</time>
      </trkpt>
      <trkpt lat="46.269" lon="6.57429">
        <ele>1885.9</ele>
        <time>2023-01-21T12:46:55.000Z</time>
      </trkpt>
      <trkpt lat="46.269" lon="6.57429">
        <ele>1885.9</ele>
        <time>2023-01-21T12:46:56.000Z</time>
      </trkpt>
      <trkpt lat="46.269" lon="6.57429">
        <ele>1885.9</ele>
        <time>2023-01-21T12:46:57.000Z</time>
      </trkpt>
      <trkpt lat="46.269" lon="6.57429">
        <ele>1885.9</ele>
        <time>2023-01-21T12:46:58.000Z</time>
      </trkpt>
      <trkpt lat="46.269" lon="6.57429">
        <ele>1885.9</ele>
        <time>2023-01-21T12:46:59.000Z</time>
      </trkpt>
      <trkpt lat="46.269" lon="6.57429">
        <ele>1885.9</ele>
        <time>2023-01-21T12:47:00.000Z</time>
      </trkpt>
      <trkpt lat="46.269" lon="6.57429">
        <ele>1885.9</ele>
        <time>2023-01-21T12:47:01.000Z</time>
      </trkpt>
      <trkpt lat="46.269" lon="6.57429">
        <ele>1885.9</ele>
        <time>2023-01-21T12:47:02.000Z</time>
      </trkpt>
      <trkpt lat="46.269" lon="6.57429">
        <ele>1885.9</ele>
        <time>2023-01-21T12:47:03.000Z</time>
      </trkpt>
      <trkpt lat="46.269" lon="6.57429">
        <ele>1889</ele>
        <time>2023-01-21T12:47:04.000Z</time>
      </trkpt>
      <trkpt lat="46.269" lon="6.57429">
        <ele>1889</ele>
        <time>2023-01-21T12:47:05.000Z</time>
      </trkpt>
      <trkpt lat="46.269" lon="6.57429">
        <ele>1889</ele>
        <time>2023-01-21T12:47:06.000Z</time>
      </trkpt>
      <trkpt lat="46.269" lon="6.57429">
        <ele>1889</ele>
        <time>2023-01-21T12:47:07.000Z</time>
      </trkpt>
      <trkpt lat="46.269" lon="6.57429">
        <ele>1889</ele>
        <time>2023-01-21T12:47:08.000Z</time>
      </trkpt>
      <trkpt lat="46.269" lon="6.57429">
        <ele>1889</ele>
        <time>2023-01-21T12:47:09.000Z</time>
      </trkpt>
      <trkpt lat="46.269" lon="6.57429">
        <ele>1889</ele>
        <time>2023-01-21T12:47:10.000Z</time>
      </trkpt>
      <trkpt lat="46.269" lon="6.57429">
        <ele>1889</ele>
        <time>2023-01-21T12:47:11.000Z</time>
      </trkpt>
      <trkpt lat="46.269" lon="6.57429">
        <ele>1889</ele>
        <time>2023-01-21T12:47:12.000Z</time>
      </trkpt>
      <trkpt lat="46.269" lon="6.57429">
        <ele>1889</ele>
        <time>2023-01-21T12:47:13.000Z</time>
      </trkpt>
      <trkpt lat="46.269" lon="6.57429">
        <ele>1889</ele>
        <time>2023-01-21T12:47:14.000Z</time>
      </trkpt>
      <trkpt lat="46.269" lon="6.57429">
        <ele>1889</ele>
        <time>2023-01-21T12:47:15.000Z</time>
      </trkpt>
      <trkpt lat="46.269" lon="6.57429">
        <ele>1889</ele>
        <time>2023-01-21T12:47:16.000Z</time>
      </trkpt>
      <trkpt lat="46.269" lon="6.57429">
        <ele>1889</ele>
        <time>2023-01-21T12:47:17.000Z</time>
      </trkpt>
      <trkpt lat="46.269" lon="6.57429">
        <ele>1889</ele>
        <time>2023-01-21T12:47:18.000Z</time>
      </trkpt>
      <trkpt lat="46.269" lon="6.57429">
        <ele>1892</ele>
        <time>2023-01-21T12:47:19.000Z</time>
      </trkpt>
      <trkpt lat="46.269" lon="6.57429">
        <ele>1892</ele>
        <time>2023-01-21T12:47:20.000Z</time>
      </trkpt>
      <trkpt lat="46.269" lon="6.57429">
        <ele>1892</ele>
        <time>2023-01-21T12:47:21.000Z</time>
      </trkpt>
      <trkpt lat="46.269" lon="6.57429">
        <ele>1892</ele>
        <time>2023-01-21T12:47:22.000Z</time>
      </trkpt>
      <trkpt lat="46.269" lon="6.57429">
        <ele>1892</ele>
        <time>2023-01-21T12:47:23.000Z</time>
      </trkpt>
      <trkpt lat="46.269" lon="6.57429">
        <ele>1892</ele>
        <time>2023-01-21T12:47:24.000Z</time>
      </trkpt>
      <trkpt lat="46.269" lon="6.57429">
        <ele>1892</ele>
        <time>2023-01-21T12:47:25.000Z</time>
      </trkpt>
      <trkpt lat="46.269" lon="6.57429">
        <ele>1892</ele>
        <time>2023-01-21T12:47:26.000Z</time>
      </trkpt>
      <trkpt lat="46.269" lon="6.57429">
        <ele>1892</ele>
        <time>2023-01-21T12:47:27.000Z</time>
      </trkpt>
      <trkpt lat="46.269" lon="6.57429">
        <ele>1892</ele>
        <time>2023-01-21T12:47:28.000Z</time>
      </trkpt>
      <trkpt lat="46.269" lon="6.57429">
        <ele>1892</ele>
        <time>2023-01-21T12:47:29.000Z</time>
      </trkpt>
      <trkpt lat="46.269" lon="6.57429">
        <ele>1892</ele>
        <time>2023-01-21T12:47:30.000Z</time>
      </trkpt>
      <trkpt lat="46.269" lon="6.57429">
        <ele>1892</ele>
        <time>2023-01-21T12:47:31.000Z</time>
      </trkpt>
      <trkpt lat="46.269" lon="6.57429">
        <ele>1892</ele>
        <time>2023-01-21T12:47:32.000Z</time>
      </trkpt>
      <trkpt lat="46.269" lon="6.57429">
        <ele>1892</ele>
        <time>2023-01-21T12:47:33.000Z</time>
      </trkpt>
      <trkpt lat="46.269" lon="6.57429">
        <ele>1892</ele>
        <time>2023-01-21T12:47:34.000Z</time>
      </trkpt>
      <trkpt lat="46.269" lon="6.57429">
        <ele>1892</ele>
        <time>2023-01-21T12:47:35.000Z</time>
      </trkpt>
      <trkpt lat="46.269" lon="6.57429">
        <ele>1892</ele>
        <time>2023-01-21T12:47:36.000Z</time>
      </trkpt>
      <trkpt lat="46.269" lon="6.57429">
        <ele>1892</ele>
        <time>2023-01-21T12:47:37.000Z</time>
      </trkpt>
      <trkpt lat="46.269" lon="6.57429">
        <ele>1892</ele>
        <time>2023-01-21T12:47:38.000Z</time>
      </trkpt>
      <trkpt lat="46.269" lon="6.57429">
        <ele>1892</ele>
        <time>2023-01-21T12:47:39.000Z</time>
      </trkpt>
      <trkpt lat="46.269" lon="6.57429">
        <ele>1892</ele>
        <time>2023-01-21T12:47:40.000Z</time>
      </trkpt>
      <trkpt lat="46.269" lon="6.57429">
        <ele>1892</ele>
        <time>2023-01-21T12:47:41.000Z</time>
      </trkpt>
      <trkpt lat="46.269" lon="6.57429">
        <ele>1892</ele>
        <time>2023-01-21T12:47:42.000Z</time>
      </trkpt>
      <trkpt lat="46.269" lon="6.57429">
        <ele>1892</ele>
        <time>2023-01-21T12:47:43.000Z</time>
      </trkpt>
      <trkpt lat="46.269" lon="6.57429">
        <ele>1892</ele>
        <time>2023-01-21T12:47:44.000Z</time>
      </trkpt>
      <trkpt lat="46.269" lon="6.57429">
        <ele>1892</ele>
        <time>2023-01-21T12:47:45.000Z</time>
      </trkpt>
      <trkpt lat="46.269" lon="6.57429">
        <ele>1892</ele>
        <time>2023-01-21T12:47:46.000Z</time>
      </trkpt>
      <trkpt lat="46.269" lon="6.57429">
        <ele>1892</ele>
        <time>2023-01-21T12:47:47.000Z</time>
      </trkpt>
      <trkpt lat="46.269" lon="6.57429">
        <ele>1892</ele>
        <time>2023-01-21T12:47:48.000Z</time>
      </trkpt>
      <trkpt lat="46.269" lon="6.57429">
        <ele>1892</ele>
        <time>2023-01-21T12:47:49.000Z</time>
      </trkpt>
      <trkpt lat="46.269" lon="6.57429">
        <ele>1892</ele>
        <time>2023-01-21T12:47:50.000Z</time>
      </trkpt>
      <trkpt lat="46.269" lon="6.57429">
        <ele>1892</ele>
        <time>2023-01-21T12:47:51.000Z</time>
      </trkpt>
      <trkpt lat="46.269" lon="6.57429">
        <ele>1892</ele>
        <time>2023-01-21T12:47:52.000Z</time>
      </trkpt>
      <trkpt lat="46.269" lon="6.57429">
        <ele>1892</ele>
        <time>2023-01-21T12:47:53.000Z</time>
      </trkpt>
      <trkpt lat="46.269" lon="6.57429">
        <ele>1892</ele>
        <time>2023-01-21T12:47:54.000Z</time>
      </trkpt>
      <trkpt lat="46.269" lon="6.57429">
        <ele>1892</ele>
        <time>2023-01-21T12:47:55.000Z</time>
      </trkpt>
      <trkpt lat="46.269" lon="6.57429">
        <ele>1892</ele>
        <time>2023-01-21T12:47:56.000Z</time>
      </trkpt>
      <trkpt lat="46.269" lon="6.57429">
        <ele>1892</ele>
        <time>2023-01-21T12:47:57.000Z</time>
      </trkpt>
      <trkpt lat="46.269" lon="6.57429">
        <ele>1892</ele>
        <time>2023-01-21T12:47:58.000Z</time>
      </trkpt>
      <trkpt lat="46.269" lon="6.57429">
        <ele>1892</ele>
        <time>2023-01-21T12:47:59.000Z</time>
      </trkpt>
      <trkpt lat="46.269" lon="6.57429">
        <ele>1892</ele>
        <time>2023-01-21T12:48:00.000Z</time>
      </trkpt>
      <trkpt lat="46.269" lon="6.57429">
        <ele>1892</ele>
        <time>2023-01-21T12:48:01.000Z</time>
      </trkpt>
      <trkpt lat="46.269" lon="6.57429">
        <ele>1892</ele>
        <time>2023-01-21T12:48:02.000Z</time>
      </trkpt>
      <trkpt lat="46.269" lon="6.57429">
        <ele>1892</ele>
        <time>2023-01-21T12:48:03.000Z</time>
      </trkpt>
      <trkpt lat="46.269" lon="6.57429">
        <ele>1892</ele>
        <time>2023-01-21T12:48:04.000Z</time>
      </trkpt>
      <trkpt lat="46.269" lon="6.57429">
        <ele>1892</ele>
        <time>2023-01-21T12:48:05.000Z</time>
      </trkpt>
      <trkpt lat="46.269" lon="6.57429">
        <ele>1892</ele>
        <time>2023-01-21T12:48:06.000Z</time>
      </trkpt>
      <trkpt lat="46.269" lon="6.57429">
        <ele>1892</ele>
        <time>2023-01-21T12:48:07.000Z</time>
      </trkpt>
      <trkpt lat="46.269" lon="6.57429">
        <ele>1892</ele>
        <time>2023-01-21T12:48:08.000Z</time>
      </trkpt>
      <trkpt lat="46.269" lon="6.57429">
        <ele>1892</ele>
        <time>2023-01-21T12:48:09.000Z</time>
      </trkpt>
      <trkpt lat="46.269" lon="6.57429">
        <ele>1892</ele>
        <time>2023-01-21T12:48:10.000Z</time>
      </trkpt>
      <trkpt lat="46.269" lon="6.57429">
        <ele>1892</ele>
        <time>2023-01-21T12:48:11.000Z</time>
      </trkpt>
      <trkpt lat="46.269" lon="6.57429">
        <ele>1892</ele>
        <time>2023-01-21T12:48:12.000Z</time>
      </trkpt>
      <trkpt lat="46.269" lon="6.57429">
        <ele>1892</ele>
        <time>2023-01-21T12:48:13.000Z</time>
      </trkpt>
      <trkpt lat="46.269" lon="6.57429">
        <ele>1892</ele>
        <time>2023-01-21T12:48:14.000Z</time>
      </trkpt>
      <trkpt lat="46.269" lon="6.57429">
        <ele>1892</ele>
        <time>2023-01-21T12:48:15.000Z</time>
      </trkpt>
      <trkpt lat="46.269" lon="6.57429">
        <ele>1892</ele>
        <time>2023-01-21T12:48:16.000Z</time>
      </trkpt>
      <trkpt lat="46.269" lon="6.57429">
        <ele>1892</ele>
        <time>2023-01-21T12:48:17.000Z</time>
      </trkpt>
      <trkpt lat="46.269" lon="6.57429">
        <ele>1892</ele>
        <time>2023-01-21T12:48:18.000Z</time>
      </trkpt>
      <trkpt lat="46.269" lon="6.57429">
        <ele>1892</ele>
        <time>2023-01-21T12:48:19.000Z</time>
      </trkpt>
      <trkpt lat="46.269" lon="6.57429">
        <ele>1892</ele>
        <time>2023-01-21T12:48:20.000Z</time>
      </trkpt>
      <trkpt lat="46.269" lon="6.57429">
        <ele>1892</ele>
        <time>2023-01-21T12:48:21.000Z</time>
      </trkpt>
      <trkpt lat="46.26891" lon="6.57431">
        <ele>1893.4</ele>
        <time>2023-01-21T12:48:22.000Z</time>
      </trkpt>
      <trkpt lat="46.2689" lon="6.57431">
        <ele>1893.5</ele>
        <time>2023-01-21T12:48:23.000Z</time>
      </trkpt>
      <trkpt lat="46.2689" lon="6.5743">
        <ele>1893.6</ele>
        <time>2023-01-21T12:48:24.000Z</time>
      </trkpt>
      <trkpt lat="46.2689" lon="6.5743">
        <ele>1893.7</ele>
        <time>2023-01-21T12:48:25.000Z</time>
      </trkpt>
      <trkpt lat="46.2689" lon="6.5743">
        <ele>1893.7</ele>
        <time>2023-01-21T12:48:26.000Z</time>
      </trkpt>
      <trkpt lat="46.2689" lon="6.5743">
        <ele>1893.7</ele>
        <time>2023-01-21T12:48:27.000Z</time>
      </trkpt>
      <trkpt lat="46.2689" lon="6.5743">
        <ele>1893.7</ele>
        <time>2023-01-21T12:48:28.000Z</time>
      </trkpt>
      <trkpt lat="46.2689" lon="6.5743">
        <ele>1893.7</ele>
        <time>2023-01-21T12:48:29.000Z</time>
      </trkpt>
      <trkpt lat="46.2689" lon="6.5743">
        <ele>1893.7</ele>
        <time>2023-01-21T12:48:30.000Z</time>
      </trkpt>
      <trkpt lat="46.2689" lon="6.5743">
        <ele>1893.7</ele>
        <time>2023-01-21T12:48:31.000Z</time>
      </trkpt>
      <trkpt lat="46.2689" lon="6.5743">
        <ele>1893.7</ele>
        <time>2023-01-21T12:48:32.000Z</time>
      </trkpt>
      <trkpt lat="46.2689" lon="6.5743">
        <ele>1893.7</ele>
        <time>2023-01-21T12:48:33.000Z</time>
      </trkpt>
      <trkpt lat="46.2689" lon="6.5743">
        <ele>1893.7</ele>
        <time>2023-01-21T12:48:34.000Z</time>
      </trkpt>
      <trkpt lat="46.2689" lon="6.5743">
        <ele>1893.7</ele>
        <time>2023-01-21T12:48:35.000Z</time>
      </trkpt>
      <trkpt lat="46.2689" lon="6.5743">
        <ele>1893.7</ele>
        <time>2023-01-21T12:48:36.000Z</time>
      </trkpt>
      <trkpt lat="46.2689" lon="6.5743">
        <ele>1893.7</ele>
        <time>2023-01-21T12:48:37.000Z</time>
      </trkpt>
      <trkpt lat="46.2689" lon="6.5743">
        <ele>1893.7</ele>
        <time>2023-01-21T12:48:38.000Z</time>
      </trkpt>
      <trkpt lat="46.2689" lon="6.5743">
        <ele>1893.7</ele>
        <time>2023-01-21T12:48:39.000Z</time>
      </trkpt>
      <trkpt lat="46.2689" lon="6.5743">
        <ele>1893.7</ele>
        <time>2023-01-21T12:48:40.000Z</time>
      </trkpt>
      <trkpt lat="46.2689" lon="6.5743">
        <ele>1893.7</ele>
        <time>2023-01-21T12:48:41.000Z</time>
      </trkpt>
      <trkpt lat="46.2689" lon="6.5743">
        <ele>1893.7</ele>
        <time>2023-01-21T12:48:42.000Z</time>
      </trkpt>
      <trkpt lat="46.2689" lon="6.5743">
        <ele>1893.7</ele>
        <time>2023-01-21T12:48:43.000Z</time>
      </trkpt>
      <trkpt lat="46.26881" lon="6.57426">
        <ele>1894.7</ele>
        <time>2023-01-21T12:48:44.000Z</time>
      </trkpt>
      <trkpt lat="46.2688" lon="6.57426">
        <ele>1894.8</ele>
        <time>2023-01-21T12:48:45.000Z</time>
      </trkpt>
      <trkpt lat="46.26879" lon="6.57426">
        <ele>1894.8</ele>
        <time>2023-01-21T12:48:46.000Z</time>
      </trkpt>
      <trkpt lat="46.26879" lon="6.57426">
        <ele>1894.9</ele>
        <time>2023-01-21T12:48:47.000Z</time>
      </trkpt>
      <trkpt lat="46.26879" lon="6.57426">
        <ele>1894.9</ele>
        <time>2023-01-21T12:48:48.000Z</time>
      </trkpt>
      <trkpt lat="46.26879" lon="6.57426">
        <ele>1894.9</ele>
        <time>2023-01-21T12:48:49.000Z</time>
      </trkpt>
      <trkpt lat="46.26879" lon="6.57426">
        <ele>1894.9</ele>
        <time>2023-01-21T12:48:50.000Z</time>
      </trkpt>
      <trkpt lat="46.26879" lon="6.57426">
        <ele>1894.9</ele>
        <time>2023-01-21T12:48:51.000Z</time>
      </trkpt>
      <trkpt lat="46.26879" lon="6.57426">
        <ele>1894.9</ele>
        <time>2023-01-21T12:48:52.000Z</time>
      </trkpt>
      <trkpt lat="46.26879" lon="6.57426">
        <ele>1894.9</ele>
        <time>2023-01-21T12:48:53.000Z</time>
      </trkpt>
      <trkpt lat="46.26879" lon="6.57426">
        <ele>1894.9</ele>
        <time>2023-01-21T12:48:54.000Z</time>
      </trkpt>
      <trkpt lat="46.26879" lon="6.57426">
        <ele>1894.9</ele>
        <time>2023-01-21T12:48:55.000Z</time>
      </trkpt>
      <trkpt lat="46.26879" lon="6.57426">
        <ele>1894.9</ele>
        <time>2023-01-21T12:48:56.000Z</time>
      </trkpt>
      <trkpt lat="46.26879" lon="6.57426">
        <ele>1894.9</ele>
        <time>2023-01-21T12:48:57.000Z</time>
      </trkpt>
      <trkpt lat="46.26879" lon="6.57426">
        <ele>1894.9</ele>
        <time>2023-01-21T12:48:58.000Z</time>
      </trkpt>
      <trkpt lat="46.26879" lon="6.57426">
        <ele>1894.9</ele>
        <time>2023-01-21T12:48:59.000Z</time>
      </trkpt>
      <trkpt lat="46.26879" lon="6.57426">
        <ele>1894.9</ele>
        <time>2023-01-21T12:49:00.000Z</time>
      </trkpt>
      <trkpt lat="46.26879" lon="6.57426">
        <ele>1894.9</ele>
        <time>2023-01-21T12:49:01.000Z</time>
      </trkpt>
      <trkpt lat="46.26879" lon="6.57426">
        <ele>1894.9</ele>
        <time>2023-01-21T12:49:02.000Z</time>
      </trkpt>
      <trkpt lat="46.26879" lon="6.57426">
        <ele>1894.9</ele>
        <time>2023-01-21T12:49:03.000Z</time>
      </trkpt>
      <trkpt lat="46.26879" lon="6.57426">
        <ele>1894.9</ele>
        <time>2023-01-21T12:49:04.000Z</time>
      </trkpt>
      <trkpt lat="46.26879" lon="6.57426">
        <ele>1894.9</ele>
        <time>2023-01-21T12:49:05.000Z</time>
      </trkpt>
      <trkpt lat="46.2687" lon="6.57424">
        <ele>1895.9</ele>
        <time>2023-01-21T12:49:06.000Z</time>
      </trkpt>
      <trkpt lat="46.26869" lon="6.57424">
        <ele>1896</ele>
        <time>2023-01-21T12:49:07.000Z</time>
      </trkpt>
      <trkpt lat="46.26869" lon="6.57424">
        <ele>1896.1</ele>
        <time>2023-01-21T12:49:08.000Z</time>
      </trkpt>
      <trkpt lat="46.26869" lon="6.57424">
        <ele>1896.2</ele>
        <time>2023-01-21T12:49:09.000Z</time>
      </trkpt>
      <trkpt lat="46.26869" lon="6.57424">
        <ele>1896.2</ele>
        <time>2023-01-21T12:49:10.000Z</time>
      </trkpt>
      <trkpt lat="46.26869" lon="6.57424">
        <ele>1896.2</ele>
        <time>2023-01-21T12:49:11.000Z</time>
      </trkpt>
      <trkpt lat="46.26869" lon="6.57424">
        <ele>1896.2</ele>
        <time>2023-01-21T12:49:12.000Z</time>
      </trkpt>
      <trkpt lat="46.26869" lon="6.57424">
        <ele>1896.2</ele>
        <time>2023-01-21T12:49:13.000Z</time>
      </trkpt>
      <trkpt lat="46.26869" lon="6.57424">
        <ele>1896.2</ele>
        <time>2023-01-21T12:49:14.000Z</time>
      </trkpt>
      <trkpt lat="46.26869" lon="6.57424">
        <ele>1896.2</ele>
        <time>2023-01-21T12:49:15.000Z</time>
      </trkpt>
      <trkpt lat="46.26869" lon="6.57424">
        <ele>1896.2</ele>
        <time>2023-01-21T12:49:16.000Z</time>
      </trkpt>
      <trkpt lat="46.26869" lon="6.57424">
        <ele>1896.2</ele>
        <time>2023-01-21T12:49:17.000Z</time>
      </trkpt>
      <trkpt lat="46.26869" lon="6.57424">
        <ele>1896.2</ele>
        <time>2023-01-21T12:49:18.000Z</time>
      </trkpt>
      <trkpt lat="46.26869" lon="6.57424">
        <ele>1896.2</ele>
        <time>2023-01-21T12:49:19.000Z</time>
      </trkpt>
      <trkpt lat="46.26869" lon="6.57424">
        <ele>1896.2</ele>
        <time>2023-01-21T12:49:20.000Z</time>
      </trkpt>
      <trkpt lat="46.26869" lon="6.57424">
        <ele>1896.2</ele>
        <time>2023-01-21T12:49:21.000Z</time>
      </trkpt>
      <trkpt lat="46.26869" lon="6.57424">
        <ele>1896.2</ele>
        <time>2023-01-21T12:49:22.000Z</time>
      </trkpt>
      <trkpt lat="46.26869" lon="6.57424">
        <ele>1896.2</ele>
        <time>2023-01-21T12:49:23.000Z</time>
      </trkpt>
      <trkpt lat="46.26869" lon="6.57424">
        <ele>1896.2</ele>
        <time>2023-01-21T12:49:24.000Z</time>
      </trkpt>
      <trkpt lat="46.26869" lon="6.57424">
        <ele>1896.2</ele>
        <time>2023-01-21T12:49:25.000Z</time>
      </trkpt>
      <trkpt lat="46.26869" lon="6.57424">
        <ele>1896.2</ele>
        <time>2023-01-21T12:49:26.000Z</time>
      </trkpt>
      <trkpt lat="46.26869" lon="6.57424">
        <ele>1896.2</ele>
        <time>2023-01-21T12:49:27.000Z</time>
      </trkpt>
      <trkpt lat="46.26869" lon="6.57424">
        <ele>1896.2</ele>
        <time>2023-01-21T12:49:28.000Z</time>
      </trkpt>
      <trkpt lat="46.26861" lon="6.57418">
        <ele>1900.2</ele>
        <time>2023-01-21T12:49:29.000Z</time>
      </trkpt>
      <trkpt lat="46.2686" lon="6.57418">
        <ele>1900.3</ele>
        <time>2023-01-21T12:49:30.000Z</time>
      </trkpt>
      <trkpt lat="46.2686" lon="6.57418">
        <ele>1900.4</ele>
        <time>2023-01-21T12:49:31.000Z</time>
      </trkpt>
      <trkpt lat="46.2686" lon="6.57418">
        <ele>1900.5</ele>
        <time>2023-01-21T12:49:32.000Z</time>
      </trkpt>
      <trkpt lat="46.2686" lon="6.57418">
        <ele>1900.5</ele>
        <time>2023-01-21T12:49:33.000Z</time>
      </trkpt>
      <trkpt lat="46.2686" lon="6.57418">
        <ele>1900.5</ele>
        <time>2023-01-21T12:49:34.000Z</time>
      </trkpt>
      <trkpt lat="46.2686" lon="6.57418">
        <ele>1900.5</ele>
        <time>2023-01-21T12:49:35.000Z</time>
      </trkpt>
      <trkpt lat="46.2686" lon="6.57418">
        <ele>1900.5</ele>
        <time>2023-01-21T12:49:36.000Z</time>
      </trkpt>
      <trkpt lat="46.2686" lon="6.57418">
        <ele>1900.5</ele>
        <time>2023-01-21T12:49:37.000Z</time>
      </trkpt>
      <trkpt lat="46.2686" lon="6.57418">
        <ele>1900.5</ele>
        <time>2023-01-21T12:49:38.000Z</time>
      </trkpt>
      <trkpt lat="46.2686" lon="6.57418">
        <ele>1900.5</ele>
        <time>2023-01-21T12:49:39.000Z</time>
      </trkpt>
      <trkpt lat="46.2686" lon="6.57418">
        <ele>1900.5</ele>
        <time>2023-01-21T12:49:40.000Z</time>
      </trkpt>
      <trkpt lat="46.2686" lon="6.57418">
        <ele>1900.5</ele>
        <time>2023-01-21T12:49:41.000Z</time>
      </trkpt>
      <trkpt lat="46.2686" lon="6.57418">
        <ele>1900.5</ele>
        <time>2023-01-21T12:49:42.000Z</time>
      </trkpt>
      <trkpt lat="46.2686" lon="6.57418">
        <ele>1900.5</ele>
        <time>2023-01-21T12:49:43.000Z</time>
      </trkpt>
      <trkpt lat="46.2686" lon="6.57418">
        <ele>1900.5</ele>
        <time>2023-01-21T12:49:44.000Z</time>
      </trkpt>
      <trkpt lat="46.2686" lon="6.57418">
        <ele>1900.5</ele>
        <time>2023-01-21T12:49:45.000Z</time>
      </trkpt>
      <trkpt lat="46.2686" lon="6.57418">
        <ele>1900.5</ele>
        <time>2023-01-21T12:49:46.000Z</time>
      </trkpt>
      <trkpt lat="46.2686" lon="6.57418">
        <ele>1900.5</ele>
        <time>2023-01-21T12:49:47.000Z</time>
      </trkpt>
      <trkpt lat="46.2686" lon="6.57418">
        <ele>1900.5</ele>
        <time>2023-01-21T12:49:48.000Z</time>
      </trkpt>
      <trkpt lat="46.2686" lon="6.57418">
        <ele>1900.5</ele>
        <time>2023-01-21T12:49:49.000Z</time>
      </trkpt>
      <trkpt lat="46.2686" lon="6.57418">
        <ele>1900.5</ele>
        <time>2023-01-21T12:49:50.000Z</time>
      </trkpt>
      <trkpt lat="46.2685" lon="6.57419">
        <ele>1905.5</ele>
        <time>2023-01-21T12:49:51.000Z</time>
      </trkpt>
      <trkpt lat="46.2685" lon="6.5742">
        <ele>1905.7</ele>
        <time>2023-01-21T12:49:52.000Z</time>
      </trkpt>
      <trkpt lat="46.26849" lon="6.5742">
        <ele>1905.8</ele>
        <time>2023-01-21T12:49:53.000Z</time>
      </trkpt>
      <trkpt lat="46.26848" lon="6.5742">
        <ele>1906.1</ele>
        <time>2023-01-21T12:49:54.000Z</time>
      </trkpt>
      <trkpt lat="46.26848" lon="6.5742">
        <ele>1906.1</ele>
        <time>2023-01-21T12:49:55.000Z</time>
      </trkpt>
      <trkpt lat="46.26848" lon="6.5742">
        <ele>1906.1</ele>
        <time>2023-01-21T12:49:56.000Z</time>
      </trkpt>
      <trkpt lat="46.26848" lon="6.5742">
        <ele>1906.1</ele>
        <time>2023-01-21T12:49:57.000Z</time>
      </trkpt>
      <trkpt lat="46.26848" lon="6.5742">
        <ele>1906.1</ele>
        <time>2023-01-21T12:49:58.000Z</time>
      </trkpt>
      <trkpt lat="46.26848" lon="6.5742">
        <ele>1906.1</ele>
        <time>2023-01-21T12:49:59.000Z</time>
      </trkpt>
      <trkpt lat="46.26848" lon="6.5742">
        <ele>1906.1</ele>
        <time>2023-01-21T12:50:00.000Z</time>
      </trkpt>
      <trkpt lat="46.26848" lon="6.5742">
        <ele>1906.1</ele>
        <time>2023-01-21T12:50:01.000Z</time>
      </trkpt>
      <trkpt lat="46.26848" lon="6.5742">
        <ele>1906.1</ele>
        <time>2023-01-21T12:50:02.000Z</time>
      </trkpt>
      <trkpt lat="46.26848" lon="6.5742">
        <ele>1906.1</ele>
        <time>2023-01-21T12:50:03.000Z</time>
      </trkpt>
      <trkpt lat="46.26848" lon="6.5742">
        <ele>1906.1</ele>
        <time>2023-01-21T12:50:04.000Z</time>
      </trkpt>
      <trkpt lat="46.26848" lon="6.5742">
        <ele>1906.1</ele>
        <time>2023-01-21T12:50:05.000Z</time>
      </trkpt>
      <trkpt lat="46.26848" lon="6.5742">
        <ele>1906.1</ele>
        <time>2023-01-21T12:50:06.000Z</time>
      </trkpt>
      <trkpt lat="46.26848" lon="6.5742">
        <ele>1906.1</ele>
        <time>2023-01-21T12:50:07.000Z</time>
      </trkpt>
      <trkpt lat="46.26848" lon="6.5742">
        <ele>1906.1</ele>
        <time>2023-01-21T12:50:08.000Z</time>
      </trkpt>
      <trkpt lat="46.26848" lon="6.5742">
        <ele>1906.1</ele>
        <time>2023-01-21T12:50:09.000Z</time>
      </trkpt>
      <trkpt lat="46.26848" lon="6.5742">
        <ele>1906.1</ele>
        <time>2023-01-21T12:50:10.000Z</time>
      </trkpt>
      <trkpt lat="46.26848" lon="6.5742">
        <ele>1906.1</ele>
        <time>2023-01-21T12:50:11.000Z</time>
      </trkpt>
      <trkpt lat="46.26839" lon="6.57423">
        <ele>1910.3</ele>
        <time>2023-01-21T12:50:12.000Z</time>
      </trkpt>
      <trkpt lat="46.26839" lon="6.57424">
        <ele>1910.5</ele>
        <time>2023-01-21T12:50:13.000Z</time>
      </trkpt>
      <trkpt lat="46.26839" lon="6.57424">
        <ele>1910.7</ele>
        <time>2023-01-21T12:50:14.000Z</time>
      </trkpt>
      <trkpt lat="46.26839" lon="6.57425">
        <ele>1910.8</ele>
        <time>2023-01-21T12:50:15.000Z</time>
      </trkpt>
      <trkpt lat="46.26839" lon="6.57425">
        <ele>1910.8</ele>
        <time>2023-01-21T12:50:16.000Z</time>
      </trkpt>
      <trkpt lat="46.26839" lon="6.57425">
        <ele>1910.8</ele>
        <time>2023-01-21T12:50:17.000Z</time>
      </trkpt>
      <trkpt lat="46.26839" lon="6.57425">
        <ele>1910.8</ele>
        <time>2023-01-21T12:50:18.000Z</time>
      </trkpt>
      <trkpt lat="46.26839" lon="6.57425">
        <ele>1910.8</ele>
        <time>2023-01-21T12:50:19.000Z</time>
      </trkpt>
      <trkpt lat="46.26839" lon="6.57425">
        <ele>1910.8</ele>
        <time>2023-01-21T12:50:20.000Z</time>
      </trkpt>
      <trkpt lat="46.26835" lon="6.5743">
        <ele>1912.1</ele>
        <time>2023-01-21T12:50:21.000Z</time>
      </trkpt>
      <trkpt lat="46.26834" lon="6.5743">
        <ele>1912.6</ele>
        <time>2023-01-21T12:50:22.000Z</time>
      </trkpt>
      <trkpt lat="46.26833" lon="6.57431">
        <ele>1913</ele>
        <time>2023-01-21T12:50:23.000Z</time>
      </trkpt>
      <trkpt lat="46.26833" lon="6.57432">
        <ele>1913.1</ele>
        <time>2023-01-21T12:50:24.000Z</time>
      </trkpt>
      <trkpt lat="46.26832" lon="6.57432">
        <ele>1913.3</ele>
        <time>2023-01-21T12:50:25.000Z</time>
      </trkpt>
      <trkpt lat="46.26832" lon="6.57432">
        <ele>1913.3</ele>
        <time>2023-01-21T12:50:26.000Z</time>
      </trkpt>
      <trkpt lat="46.26832" lon="6.57432">
        <ele>1913.3</ele>
        <time>2023-01-21T12:50:27.000Z</time>
      </trkpt>
      <trkpt lat="46.26832" lon="6.57432">
        <ele>1913.3</ele>
        <time>2023-01-21T12:50:28.000Z</time>
      </trkpt>
      <trkpt lat="46.26832" lon="6.57432">
        <ele>1913.3</ele>
        <time>2023-01-21T12:50:29.000Z</time>
      </trkpt>
      <trkpt lat="46.26832" lon="6.57432">
        <ele>1913.3</ele>
        <time>2023-01-21T12:50:30.000Z</time>
      </trkpt>
      <trkpt lat="46.26832" lon="6.57432">
        <ele>1913.3</ele>
        <time>2023-01-21T12:50:31.000Z</time>
      </trkpt>
      <trkpt lat="46.26832" lon="6.57432">
        <ele>1913.3</ele>
        <time>2023-01-21T12:50:32.000Z</time>
      </trkpt>
      <trkpt lat="46.26832" lon="6.57432">
        <ele>1913.3</ele>
        <time>2023-01-21T12:50:33.000Z</time>
      </trkpt>
      <trkpt lat="46.26832" lon="6.57432">
        <ele>1913.3</ele>
        <time>2023-01-21T12:50:34.000Z</time>
      </trkpt>
      <trkpt lat="46.26832" lon="6.57432">
        <ele>1913.3</ele>
        <time>2023-01-21T12:50:35.000Z</time>
      </trkpt>
      <trkpt lat="46.26832" lon="6.57432">
        <ele>1913.3</ele>
        <time>2023-01-21T12:50:36.000Z</time>
      </trkpt>
      <trkpt lat="46.26832" lon="6.57432">
        <ele>1913.3</ele>
        <time>2023-01-21T12:50:37.000Z</time>
      </trkpt>
      <trkpt lat="46.26832" lon="6.57432">
        <ele>1913.3</ele>
        <time>2023-01-21T12:50:38.000Z</time>
      </trkpt>
      <trkpt lat="46.26832" lon="6.57432">
        <ele>1913.3</ele>
        <time>2023-01-21T12:50:39.000Z</time>
      </trkpt>
      <trkpt lat="46.26826" lon="6.57441">
        <ele>1914.6</ele>
        <time>2023-01-21T12:50:40.000Z</time>
      </trkpt>
      <trkpt lat="46.26825" lon="6.57442">
        <ele>1914.7</ele>
        <time>2023-01-21T12:50:41.000Z</time>
      </trkpt>
      <trkpt lat="46.26824" lon="6.57442">
        <ele>1914.8</ele>
        <time>2023-01-21T12:50:42.000Z</time>
      </trkpt>
      <trkpt lat="46.26824" lon="6.57443">
        <ele>1914.9</ele>
        <time>2023-01-21T12:50:43.000Z</time>
      </trkpt>
      <trkpt lat="46.26824" lon="6.57443">
        <ele>1914.9</ele>
        <time>2023-01-21T12:50:44.000Z</time>
      </trkpt>
      <trkpt lat="46.26824" lon="6.57443">
        <ele>1914.9</ele>
        <time>2023-01-21T12:50:45.000Z</time>
      </trkpt>
      <trkpt lat="46.26824" lon="6.57443">
        <ele>1914.9</ele>
        <time>2023-01-21T12:50:46.000Z</time>
      </trkpt>
      <trkpt lat="46.26824" lon="6.57443">
        <ele>1914.9</ele>
        <time>2023-01-21T12:50:47.000Z</time>
      </trkpt>
      <trkpt lat="46.26824" lon="6.57443">
        <ele>1914.9</ele>
        <time>2023-01-21T12:50:48.000Z</time>
      </trkpt>
      <trkpt lat="46.26824" lon="6.57443">
        <ele>1914.9</ele>
        <time>2023-01-21T12:50:49.000Z</time>
      </trkpt>
      <trkpt lat="46.26824" lon="6.57443">
        <ele>1914.9</ele>
        <time>2023-01-21T12:50:50.000Z</time>
      </trkpt>
      <trkpt lat="46.26824" lon="6.57443">
        <ele>1914.9</ele>
        <time>2023-01-21T12:50:51.000Z</time>
      </trkpt>
      <trkpt lat="46.26824" lon="6.57443">
        <ele>1914.9</ele>
        <time>2023-01-21T12:50:52.000Z</time>
      </trkpt>
      <trkpt lat="46.26824" lon="6.57443">
        <ele>1914.9</ele>
        <time>2023-01-21T12:50:53.000Z</time>
      </trkpt>
      <trkpt lat="46.26824" lon="6.57443">
        <ele>1914.9</ele>
        <time>2023-01-21T12:50:54.000Z</time>
      </trkpt>
      <trkpt lat="46.26824" lon="6.57443">
        <ele>1914.9</ele>
        <time>2023-01-21T12:50:55.000Z</time>
      </trkpt>
      <trkpt lat="46.26824" lon="6.57443">
        <ele>1914.9</ele>
        <time>2023-01-21T12:50:56.000Z</time>
      </trkpt>
      <trkpt lat="46.26824" lon="6.57443">
        <ele>1914.9</ele>
        <time>2023-01-21T12:50:57.000Z</time>
      </trkpt>
      <trkpt lat="46.26824" lon="6.57443">
        <ele>1914.9</ele>
        <time>2023-01-21T12:50:58.000Z</time>
      </trkpt>
      <trkpt lat="46.26824" lon="6.57443">
        <ele>1914.9</ele>
        <time>2023-01-21T12:50:59.000Z</time>
      </trkpt>
      <trkpt lat="46.26824" lon="6.57443">
        <ele>1914.9</ele>
        <time>2023-01-21T12:51:00.000Z</time>
      </trkpt>
      <trkpt lat="46.26824" lon="6.57443">
        <ele>1914.9</ele>
        <time>2023-01-21T12:51:01.000Z</time>
      </trkpt>
      <trkpt lat="46.26824" lon="6.57443">
        <ele>1914.9</ele>
        <time>2023-01-21T12:51:02.000Z</time>
      </trkpt>
      <trkpt lat="46.26824" lon="6.57443">
        <ele>1914.9</ele>
        <time>2023-01-21T12:51:03.000Z</time>
      </trkpt>
      <trkpt lat="46.26824" lon="6.57443">
        <ele>1914.9</ele>
        <time>2023-01-21T12:51:04.000Z</time>
      </trkpt>
      <trkpt lat="46.26824" lon="6.57443">
        <ele>1914.9</ele>
        <time>2023-01-21T12:51:05.000Z</time>
      </trkpt>
      <trkpt lat="46.26824" lon="6.57443">
        <ele>1914.9</ele>
        <time>2023-01-21T12:51:06.000Z</time>
      </trkpt>
      <trkpt lat="46.26824" lon="6.57443">
        <ele>1914.9</ele>
        <time>2023-01-21T12:51:07.000Z</time>
      </trkpt>
      <trkpt lat="46.26824" lon="6.57443">
        <ele>1914.9</ele>
        <time>2023-01-21T12:51:08.000Z</time>
      </trkpt>
      <trkpt lat="46.26817" lon="6.57452">
        <ele>1914.4</ele>
        <time>2023-01-21T12:51:09.000Z</time>
      </trkpt>
      <trkpt lat="46.26817" lon="6.57452">
        <ele>1914.4</ele>
        <time>2023-01-21T12:51:10.000Z</time>
      </trkpt>
      <trkpt lat="46.26816" lon="6.57453">
        <ele>1914.4</ele>
        <time>2023-01-21T12:51:11.000Z</time>
      </trkpt>
      <trkpt lat="46.26815" lon="6.57453">
        <ele>1914.3</ele>
        <time>2023-01-21T12:51:12.000Z</time>
      </trkpt>
      <trkpt lat="46.26815" lon="6.57453">
        <ele>1914.3</ele>
        <time>2023-01-21T12:51:13.000Z</time>
      </trkpt>
      <trkpt lat="46.26815" lon="6.57453">
        <ele>1914.3</ele>
        <time>2023-01-21T12:51:14.000Z</time>
      </trkpt>
      <trkpt lat="46.26815" lon="6.57453">
        <ele>1914.3</ele>
        <time>2023-01-21T12:51:15.000Z</time>
      </trkpt>
      <trkpt lat="46.26815" lon="6.57453">
        <ele>1914.3</ele>
        <time>2023-01-21T12:51:16.000Z</time>
      </trkpt>
      <trkpt lat="46.26815" lon="6.57453">
        <ele>1914.3</ele>
        <time>2023-01-21T12:51:17.000Z</time>
      </trkpt>
      <trkpt lat="46.26815" lon="6.57453">
        <ele>1914.3</ele>
        <time>2023-01-21T12:51:18.000Z</time>
      </trkpt>
      <trkpt lat="46.26815" lon="6.57453">
        <ele>1914.3</ele>
        <time>2023-01-21T12:51:19.000Z</time>
      </trkpt>
      <trkpt lat="46.26815" lon="6.57453">
        <ele>1914.3</ele>
        <time>2023-01-21T12:51:20.000Z</time>
      </trkpt>
      <trkpt lat="46.26815" lon="6.57453">
        <ele>1914.3</ele>
        <time>2023-01-21T12:51:21.000Z</time>
      </trkpt>
      <trkpt lat="46.26815" lon="6.57453">
        <ele>1914.3</ele>
        <time>2023-01-21T12:51:22.000Z</time>
      </trkpt>
      <trkpt lat="46.26806" lon="6.57455">
        <ele>1915.3</ele>
        <time>2023-01-21T12:51:23.000Z</time>
      </trkpt>
      <trkpt lat="46.26805" lon="6.57455">
        <ele>1915.5</ele>
        <time>2023-01-21T12:51:24.000Z</time>
      </trkpt>
      <trkpt lat="46.26804" lon="6.57455">
        <ele>1915.5</ele>
        <time>2023-01-21T12:51:25.000Z</time>
      </trkpt>
      <trkpt lat="46.26803" lon="6.57456">
        <ele>1915.4</ele>
        <time>2023-01-21T12:51:26.000Z</time>
      </trkpt>
      <trkpt lat="46.26803" lon="6.57456">
        <ele>1915.4</ele>
        <time>2023-01-21T12:51:27.000Z</time>
      </trkpt>
      <trkpt lat="46.26803" lon="6.57456">
        <ele>1915.4</ele>
        <time>2023-01-21T12:51:28.000Z</time>
      </trkpt>
      <trkpt lat="46.26803" lon="6.57456">
        <ele>1915.4</ele>
        <time>2023-01-21T12:51:29.000Z</time>
      </trkpt>
      <trkpt lat="46.26803" lon="6.57456">
        <ele>1915.4</ele>
        <time>2023-01-21T12:51:30.000Z</time>
      </trkpt>
      <trkpt lat="46.26803" lon="6.57456">
        <ele>1915.4</ele>
        <time>2023-01-21T12:51:31.000Z</time>
      </trkpt>
      <trkpt lat="46.26803" lon="6.57456">
        <ele>1915.4</ele>
        <time>2023-01-21T12:51:32.000Z</time>
      </trkpt>
      <trkpt lat="46.26803" lon="6.57456">
        <ele>1915.4</ele>
        <time>2023-01-21T12:51:33.000Z</time>
      </trkpt>
      <trkpt lat="46.26803" lon="6.57456">
        <ele>1915.4</ele>
        <time>2023-01-21T12:51:34.000Z</time>
      </trkpt>
      <trkpt lat="46.26803" lon="6.57456">
        <ele>1915.4</ele>
        <time>2023-01-21T12:51:35.000Z</time>
      </trkpt>
      <trkpt lat="46.26803" lon="6.57456">
        <ele>1915.4</ele>
        <time>2023-01-21T12:51:36.000Z</time>
      </trkpt>
      <trkpt lat="46.26803" lon="6.57456">
        <ele>1915.4</ele>
        <time>2023-01-21T12:51:37.000Z</time>
      </trkpt>
      <trkpt lat="46.26803" lon="6.57456">
        <ele>1915.4</ele>
        <time>2023-01-21T12:51:38.000Z</time>
      </trkpt>
      <trkpt lat="46.26803" lon="6.57456">
        <ele>1915.4</ele>
        <time>2023-01-21T12:51:39.000Z</time>
      </trkpt>
      <trkpt lat="46.26803" lon="6.57456">
        <ele>1915.4</ele>
        <time>2023-01-21T12:51:40.000Z</time>
      </trkpt>
      <trkpt lat="46.26803" lon="6.57456">
        <ele>1915.4</ele>
        <time>2023-01-21T12:51:41.000Z</time>
      </trkpt>
      <trkpt lat="46.26803" lon="6.57456">
        <ele>1915.4</ele>
        <time>2023-01-21T12:51:42.000Z</time>
      </trkpt>
      <trkpt lat="46.26803" lon="6.57456">
        <ele>1915.4</ele>
        <time>2023-01-21T12:51:43.000Z</time>
      </trkpt>
      <trkpt lat="46.26803" lon="6.57456">
        <ele>1915.4</ele>
        <time>2023-01-21T12:51:44.000Z</time>
      </trkpt>
      <trkpt lat="46.26803" lon="6.57456">
        <ele>1915.4</ele>
        <time>2023-01-21T12:51:45.000Z</time>
      </trkpt>
      <trkpt lat="46.26794" lon="6.57463">
        <ele>1916.5</ele>
        <time>2023-01-21T12:51:46.000Z</time>
      </trkpt>
      <trkpt lat="46.26794" lon="6.57463">
        <ele>1916.6</ele>
        <time>2023-01-21T12:51:47.000Z</time>
      </trkpt>
      <trkpt lat="46.26793" lon="6.57464">
        <ele>1916.6</ele>
        <time>2023-01-21T12:51:48.000Z</time>
      </trkpt>
      <trkpt lat="46.26793" lon="6.57464">
        <ele>1916.8</ele>
        <time>2023-01-21T12:51:49.000Z</time>
      </trkpt>
      <trkpt lat="46.26793" lon="6.57464">
        <ele>1916.8</ele>
        <time>2023-01-21T12:51:50.000Z</time>
      </trkpt>
      <trkpt lat="46.26793" lon="6.57464">
        <ele>1916.8</ele>
        <time>2023-01-21T12:51:51.000Z</time>
      </trkpt>
      <trkpt lat="46.26793" lon="6.57464">
        <ele>1916.8</ele>
        <time>2023-01-21T12:51:52.000Z</time>
      </trkpt>
      <trkpt lat="46.26793" lon="6.57464">
        <ele>1916.8</ele>
        <time>2023-01-21T12:51:53.000Z</time>
      </trkpt>
      <trkpt lat="46.26793" lon="6.57464">
        <ele>1916.8</ele>
        <time>2023-01-21T12:51:54.000Z</time>
      </trkpt>
      <trkpt lat="46.26793" lon="6.57464">
        <ele>1916.8</ele>
        <time>2023-01-21T12:51:55.000Z</time>
      </trkpt>
      <trkpt lat="46.26793" lon="6.57464">
        <ele>1916.8</ele>
        <time>2023-01-21T12:51:56.000Z</time>
      </trkpt>
      <trkpt lat="46.26793" lon="6.57464">
        <ele>1916.8</ele>
        <time>2023-01-21T12:51:57.000Z</time>
      </trkpt>
      <trkpt lat="46.26793" lon="6.57464">
        <ele>1916.8</ele>
        <time>2023-01-21T12:51:58.000Z</time>
      </trkpt>
      <trkpt lat="46.26793" lon="6.57464">
        <ele>1916.8</ele>
        <time>2023-01-21T12:51:59.000Z</time>
      </trkpt>
      <trkpt lat="46.26793" lon="6.57464">
        <ele>1916.8</ele>
        <time>2023-01-21T12:52:00.000Z</time>
      </trkpt>
      <trkpt lat="46.26793" lon="6.57464">
        <ele>1916.8</ele>
        <time>2023-01-21T12:52:01.000Z</time>
      </trkpt>
      <trkpt lat="46.26785" lon="6.57471">
        <ele>1918.9</ele>
        <time>2023-01-21T12:52:02.000Z</time>
      </trkpt>
      <trkpt lat="46.26784" lon="6.57471">
        <ele>1919.1</ele>
        <time>2023-01-21T12:52:03.000Z</time>
      </trkpt>
      <trkpt lat="46.26784" lon="6.57471">
        <ele>1919.3</ele>
        <time>2023-01-21T12:52:04.000Z</time>
      </trkpt>
      <trkpt lat="46.26783" lon="6.57471">
        <ele>1919.5</ele>
        <time>2023-01-21T12:52:05.000Z</time>
      </trkpt>
      <trkpt lat="46.26783" lon="6.57471">
        <ele>1919.5</ele>
        <time>2023-01-21T12:52:06.000Z</time>
      </trkpt>
      <trkpt lat="46.26783" lon="6.57471">
        <ele>1919.5</ele>
        <time>2023-01-21T12:52:07.000Z</time>
      </trkpt>
      <trkpt lat="46.26783" lon="6.57471">
        <ele>1919.5</ele>
        <time>2023-01-21T12:52:08.000Z</time>
      </trkpt>
      <trkpt lat="46.26783" lon="6.57471">
        <ele>1919.5</ele>
        <time>2023-01-21T12:52:09.000Z</time>
      </trkpt>
      <trkpt lat="46.26783" lon="6.57471">
        <ele>1919.5</ele>
        <time>2023-01-21T12:52:10.000Z</time>
      </trkpt>
      <trkpt lat="46.26783" lon="6.57471">
        <ele>1919.5</ele>
        <time>2023-01-21T12:52:11.000Z</time>
      </trkpt>
      <trkpt lat="46.26783" lon="6.57471">
        <ele>1919.5</ele>
        <time>2023-01-21T12:52:12.000Z</time>
      </trkpt>
      <trkpt lat="46.26783" lon="6.57471">
        <ele>1919.5</ele>
        <time>2023-01-21T12:52:13.000Z</time>
      </trkpt>
      <trkpt lat="46.26783" lon="6.57471">
        <ele>1919.5</ele>
        <time>2023-01-21T12:52:14.000Z</time>
      </trkpt>
      <trkpt lat="46.26783" lon="6.57471">
        <ele>1919.5</ele>
        <time>2023-01-21T12:52:15.000Z</time>
      </trkpt>
      <trkpt lat="46.26783" lon="6.57471">
        <ele>1919.5</ele>
        <time>2023-01-21T12:52:16.000Z</time>
      </trkpt>
      <trkpt lat="46.26783" lon="6.57471">
        <ele>1919.5</ele>
        <time>2023-01-21T12:52:17.000Z</time>
      </trkpt>
      <trkpt lat="46.26783" lon="6.57471">
        <ele>1919.5</ele>
        <time>2023-01-21T12:52:18.000Z</time>
      </trkpt>
      <trkpt lat="46.26783" lon="6.57471">
        <ele>1919.5</ele>
        <time>2023-01-21T12:52:19.000Z</time>
      </trkpt>
      <trkpt lat="46.26783" lon="6.57471">
        <ele>1919.5</ele>
        <time>2023-01-21T12:52:20.000Z</time>
      </trkpt>
      <trkpt lat="46.26783" lon="6.57471">
        <ele>1919.5</ele>
        <time>2023-01-21T12:52:21.000Z</time>
      </trkpt>
      <trkpt lat="46.26783" lon="6.57471">
        <ele>1919.5</ele>
        <time>2023-01-21T12:52:22.000Z</time>
      </trkpt>
      <trkpt lat="46.26775" lon="6.57477">
        <ele>1921.8</ele>
        <time>2023-01-21T12:52:23.000Z</time>
      </trkpt>
      <trkpt lat="46.26774" lon="6.57478">
        <ele>1921.9</ele>
        <time>2023-01-21T12:52:24.000Z</time>
      </trkpt>
      <trkpt lat="46.26773" lon="6.57478">
        <ele>1921.9</ele>
        <time>2023-01-21T12:52:25.000Z</time>
      </trkpt>
      <trkpt lat="46.26773" lon="6.57479">
        <ele>1921.9</ele>
        <time>2023-01-21T12:52:26.000Z</time>
      </trkpt>
      <trkpt lat="46.26773" lon="6.57479">
        <ele>1921.9</ele>
        <time>2023-01-21T12:52:27.000Z</time>
      </trkpt>
      <trkpt lat="46.26773" lon="6.57479">
        <ele>1921.9</ele>
        <time>2023-01-21T12:52:28.000Z</time>
      </trkpt>
      <trkpt lat="46.26773" lon="6.57479">
        <ele>1921.9</ele>
        <time>2023-01-21T12:52:29.000Z</time>
      </trkpt>
      <trkpt lat="46.26773" lon="6.57479">
        <ele>1921.9</ele>
        <time>2023-01-21T12:52:30.000Z</time>
      </trkpt>
      <trkpt lat="46.26773" lon="6.57479">
        <ele>1921.9</ele>
        <time>2023-01-21T12:52:31.000Z</time>
      </trkpt>
      <trkpt lat="46.26773" lon="6.57479">
        <ele>1921.9</ele>
        <time>2023-01-21T12:52:32.000Z</time>
      </trkpt>
      <trkpt lat="46.26773" lon="6.57479">
        <ele>1921.9</ele>
        <time>2023-01-21T12:52:33.000Z</time>
      </trkpt>
      <trkpt lat="46.26773" lon="6.57479">
        <ele>1921.9</ele>
        <time>2023-01-21T12:52:34.000Z</time>
      </trkpt>
      <trkpt lat="46.26773" lon="6.57479">
        <ele>1921.9</ele>
        <time>2023-01-21T12:52:35.000Z</time>
      </trkpt>
      <trkpt lat="46.26773" lon="6.57479">
        <ele>1921.9</ele>
        <time>2023-01-21T12:52:36.000Z</time>
      </trkpt>
      <trkpt lat="46.26773" lon="6.57479">
        <ele>1921.9</ele>
        <time>2023-01-21T12:52:37.000Z</time>
      </trkpt>
      <trkpt lat="46.26773" lon="6.57479">
        <ele>1921.9</ele>
        <time>2023-01-21T12:52:38.000Z</time>
      </trkpt>
      <trkpt lat="46.26773" lon="6.57479">
        <ele>1921.9</ele>
        <time>2023-01-21T12:52:39.000Z</time>
      </trkpt>
      <trkpt lat="46.26773" lon="6.57479">
        <ele>1921.9</ele>
        <time>2023-01-21T12:52:40.000Z</time>
      </trkpt>
      <trkpt lat="46.26773" lon="6.57479">
        <ele>1921.9</ele>
        <time>2023-01-21T12:52:41.000Z</time>
      </trkpt>
      <trkpt lat="46.26773" lon="6.57479">
        <ele>1921.9</ele>
        <time>2023-01-21T12:52:42.000Z</time>
      </trkpt>
      <trkpt lat="46.26773" lon="6.57479">
        <ele>1921.9</ele>
        <time>2023-01-21T12:52:43.000Z</time>
      </trkpt>
      <trkpt lat="46.26764" lon="6.57484">
        <ele>1923.9</ele>
        <time>2023-01-21T12:52:44.000Z</time>
      </trkpt>
      <trkpt lat="46.26764" lon="6.57484">
        <ele>1924.1</ele>
        <time>2023-01-21T12:52:45.000Z</time>
      </trkpt>
      <trkpt lat="46.26764" lon="6.57484">
        <ele>1924.2</ele>
        <time>2023-01-21T12:52:46.000Z</time>
      </trkpt>
      <trkpt lat="46.26763" lon="6.57485">
        <ele>1924.2</ele>
        <time>2023-01-21T12:52:47.000Z</time>
      </trkpt>
      <trkpt lat="46.26763" lon="6.57485">
        <ele>1924.2</ele>
        <time>2023-01-21T12:52:48.000Z</time>
      </trkpt>
      <trkpt lat="46.26763" lon="6.57485">
        <ele>1924.2</ele>
        <time>2023-01-21T12:52:49.000Z</time>
      </trkpt>
      <trkpt lat="46.26763" lon="6.57485">
        <ele>1924.2</ele>
        <time>2023-01-21T12:52:50.000Z</time>
      </trkpt>
      <trkpt lat="46.26763" lon="6.57485">
        <ele>1924.2</ele>
        <time>2023-01-21T12:52:51.000Z</time>
      </trkpt>
      <trkpt lat="46.26763" lon="6.57485">
        <ele>1924.2</ele>
        <time>2023-01-21T12:52:52.000Z</time>
      </trkpt>
      <trkpt lat="46.26763" lon="6.57485">
        <ele>1924.2</ele>
        <time>2023-01-21T12:52:53.000Z</time>
      </trkpt>
      <trkpt lat="46.26763" lon="6.57485">
        <ele>1924.2</ele>
        <time>2023-01-21T12:52:54.000Z</time>
      </trkpt>
      <trkpt lat="46.26763" lon="6.57485">
        <ele>1924.2</ele>
        <time>2023-01-21T12:52:55.000Z</time>
      </trkpt>
      <trkpt lat="46.26763" lon="6.57485">
        <ele>1924.2</ele>
        <time>2023-01-21T12:52:56.000Z</time>
      </trkpt>
      <trkpt lat="46.26763" lon="6.57485">
        <ele>1924.2</ele>
        <time>2023-01-21T12:52:57.000Z</time>
      </trkpt>
      <trkpt lat="46.26763" lon="6.57485">
        <ele>1924.2</ele>
        <time>2023-01-21T12:52:58.000Z</time>
      </trkpt>
      <trkpt lat="46.26763" lon="6.57485">
        <ele>1924.2</ele>
        <time>2023-01-21T12:52:59.000Z</time>
      </trkpt>
      <trkpt lat="46.26763" lon="6.57485">
        <ele>1924.2</ele>
        <time>2023-01-21T12:53:00.000Z</time>
      </trkpt>
      <trkpt lat="46.26763" lon="6.57485">
        <ele>1924.2</ele>
        <time>2023-01-21T12:53:01.000Z</time>
      </trkpt>
      <trkpt lat="46.26763" lon="6.57485">
        <ele>1924.2</ele>
        <time>2023-01-21T12:53:02.000Z</time>
      </trkpt>
      <trkpt lat="46.26763" lon="6.57485">
        <ele>1924.2</ele>
        <time>2023-01-21T12:53:03.000Z</time>
      </trkpt>
      <trkpt lat="46.26763" lon="6.57485">
        <ele>1924.2</ele>
        <time>2023-01-21T12:53:04.000Z</time>
      </trkpt>
      <trkpt lat="46.26763" lon="6.57485">
        <ele>1924.2</ele>
        <time>2023-01-21T12:53:05.000Z</time>
      </trkpt>
      <trkpt lat="46.26763" lon="6.57485">
        <ele>1924.2</ele>
        <time>2023-01-21T12:53:06.000Z</time>
      </trkpt>
      <trkpt lat="46.26756" lon="6.57491">
        <ele>1925.6</ele>
        <time>2023-01-21T12:53:07.000Z</time>
      </trkpt>
      <trkpt lat="46.26756" lon="6.57491">
        <ele>1925.7</ele>
        <time>2023-01-21T12:53:08.000Z</time>
      </trkpt>
      <trkpt lat="46.26756" lon="6.57492">
        <ele>1925.7</ele>
        <time>2023-01-21T12:53:09.000Z</time>
      </trkpt>
      <trkpt lat="46.26756" lon="6.57492">
        <ele>1925.8</ele>
        <time>2023-01-21T12:53:10.000Z</time>
      </trkpt>
      <trkpt lat="46.26756" lon="6.57492">
        <ele>1925.8</ele>
        <time>2023-01-21T12:53:11.000Z</time>
      </trkpt>
      <trkpt lat="46.26756" lon="6.57492">
        <ele>1925.8</ele>
        <time>2023-01-21T12:53:12.000Z</time>
      </trkpt>
      <trkpt lat="46.26756" lon="6.57492">
        <ele>1925.8</ele>
        <time>2023-01-21T12:53:13.000Z</time>
      </trkpt>
      <trkpt lat="46.26756" lon="6.57492">
        <ele>1925.8</ele>
        <time>2023-01-21T12:53:14.000Z</time>
      </trkpt>
      <trkpt lat="46.26756" lon="6.57492">
        <ele>1925.8</ele>
        <time>2023-01-21T12:53:15.000Z</time>
      </trkpt>
      <trkpt lat="46.26756" lon="6.57492">
        <ele>1925.8</ele>
        <time>2023-01-21T12:53:16.000Z</time>
      </trkpt>
      <trkpt lat="46.26756" lon="6.57492">
        <ele>1925.8</ele>
        <time>2023-01-21T12:53:17.000Z</time>
      </trkpt>
      <trkpt lat="46.26756" lon="6.57492">
        <ele>1925.8</ele>
        <time>2023-01-21T12:53:18.000Z</time>
      </trkpt>
      <trkpt lat="46.26756" lon="6.57492">
        <ele>1925.8</ele>
        <time>2023-01-21T12:53:19.000Z</time>
      </trkpt>
      <trkpt lat="46.26756" lon="6.57492">
        <ele>1925.8</ele>
        <time>2023-01-21T12:53:20.000Z</time>
      </trkpt>
      <trkpt lat="46.26756" lon="6.57492">
        <ele>1925.8</ele>
        <time>2023-01-21T12:53:21.000Z</time>
      </trkpt>
      <trkpt lat="46.26756" lon="6.57492">
        <ele>1925.8</ele>
        <time>2023-01-21T12:53:22.000Z</time>
      </trkpt>
      <trkpt lat="46.26756" lon="6.57492">
        <ele>1925.8</ele>
        <time>2023-01-21T12:53:23.000Z</time>
      </trkpt>
      <trkpt lat="46.26756" lon="6.57492">
        <ele>1925.8</ele>
        <time>2023-01-21T12:53:24.000Z</time>
      </trkpt>
      <trkpt lat="46.26756" lon="6.57492">
        <ele>1925.8</ele>
        <time>2023-01-21T12:53:25.000Z</time>
      </trkpt>
      <trkpt lat="46.26756" lon="6.57492">
        <ele>1925.8</ele>
        <time>2023-01-21T12:53:26.000Z</time>
      </trkpt>
      <trkpt lat="46.26756" lon="6.57492">
        <ele>1925.8</ele>
        <time>2023-01-21T12:53:27.000Z</time>
      </trkpt>
      <trkpt lat="46.26756" lon="6.57492">
        <ele>1925.8</ele>
        <time>2023-01-21T12:53:28.000Z</time>
      </trkpt>
      <trkpt lat="46.26756" lon="6.57492">
        <ele>1925.8</ele>
        <time>2023-01-21T12:53:29.000Z</time>
      </trkpt>
      <trkpt lat="46.26756" lon="6.57492">
        <ele>1925.8</ele>
        <time>2023-01-21T12:53:30.000Z</time>
      </trkpt>
      <trkpt lat="46.26756" lon="6.57492">
        <ele>1925.8</ele>
        <time>2023-01-21T12:53:31.000Z</time>
      </trkpt>
      <trkpt lat="46.26756" lon="6.57492">
        <ele>1925.8</ele>
        <time>2023-01-21T12:53:32.000Z</time>
      </trkpt>
      <trkpt lat="46.26756" lon="6.57492">
        <ele>1925.8</ele>
        <time>2023-01-21T12:53:33.000Z</time>
      </trkpt>
      <trkpt lat="46.26756" lon="6.57492">
        <ele>1925.8</ele>
        <time>2023-01-21T12:53:34.000Z</time>
      </trkpt>
      <trkpt lat="46.26756" lon="6.57492">
        <ele>1925.8</ele>
        <time>2023-01-21T12:53:35.000Z</time>
      </trkpt>
      <trkpt lat="46.26756" lon="6.57492">
        <ele>1925.8</ele>
        <time>2023-01-21T12:53:36.000Z</time>
      </trkpt>
      <trkpt lat="46.26756" lon="6.57492">
        <ele>1925.8</ele>
        <time>2023-01-21T12:53:37.000Z</time>
      </trkpt>
      <trkpt lat="46.26756" lon="6.57492">
        <ele>1925.8</ele>
        <time>2023-01-21T12:53:38.000Z</time>
      </trkpt>
      <trkpt lat="46.26756" lon="6.57492">
        <ele>1925.8</ele>
        <time>2023-01-21T12:53:39.000Z</time>
      </trkpt>
      <trkpt lat="46.26756" lon="6.57492">
        <ele>1925.8</ele>
        <time>2023-01-21T12:53:40.000Z</time>
      </trkpt>
      <trkpt lat="46.26756" lon="6.57492">
        <ele>1925.8</ele>
        <time>2023-01-21T12:53:41.000Z</time>
      </trkpt>
      <trkpt lat="46.26756" lon="6.57492">
        <ele>1925.8</ele>
        <time>2023-01-21T12:53:42.000Z</time>
      </trkpt>
      <trkpt lat="46.26756" lon="6.57492">
        <ele>1925.8</ele>
        <time>2023-01-21T12:53:43.000Z</time>
      </trkpt>
      <trkpt lat="46.26756" lon="6.57492">
        <ele>1925.8</ele>
        <time>2023-01-21T12:53:44.000Z</time>
      </trkpt>
      <trkpt lat="46.26756" lon="6.57492">
        <ele>1928.9</ele>
        <time>2023-01-21T12:53:45.000Z</time>
      </trkpt>
      <trkpt lat="46.26756" lon="6.57492">
        <ele>1928.9</ele>
        <time>2023-01-21T12:53:46.000Z</time>
      </trkpt>
      <trkpt lat="46.26756" lon="6.57492">
        <ele>1928.9</ele>
        <time>2023-01-21T12:53:47.000Z</time>
      </trkpt>
      <trkpt lat="46.26756" lon="6.57492">
        <ele>1928.9</ele>
        <time>2023-01-21T12:53:48.000Z</time>
      </trkpt>
      <trkpt lat="46.26756" lon="6.57492">
        <ele>1928.9</ele>
        <time>2023-01-21T12:53:49.000Z</time>
      </trkpt>
      <trkpt lat="46.26756" lon="6.57492">
        <ele>1928.9</ele>
        <time>2023-01-21T12:53:50.000Z</time>
      </trkpt>
      <trkpt lat="46.26756" lon="6.57492">
        <ele>1928.9</ele>
        <time>2023-01-21T12:53:51.000Z</time>
      </trkpt>
      <trkpt lat="46.26756" lon="6.57492">
        <ele>1928.9</ele>
        <time>2023-01-21T12:53:52.000Z</time>
      </trkpt>
      <trkpt lat="46.26756" lon="6.57492">
        <ele>1928.9</ele>
        <time>2023-01-21T12:53:53.000Z</time>
      </trkpt>
      <trkpt lat="46.26756" lon="6.57492">
        <ele>1928.9</ele>
        <time>2023-01-21T12:53:54.000Z</time>
      </trkpt>
      <trkpt lat="46.26756" lon="6.57492">
        <ele>1928.9</ele>
        <time>2023-01-21T12:53:55.000Z</time>
      </trkpt>
      <trkpt lat="46.26756" lon="6.57492">
        <ele>1928.9</ele>
        <time>2023-01-21T12:53:56.000Z</time>
      </trkpt>
      <trkpt lat="46.26756" lon="6.57492">
        <ele>1928.9</ele>
        <time>2023-01-21T12:53:57.000Z</time>
      </trkpt>
      <trkpt lat="46.26756" lon="6.57492">
        <ele>1928.9</ele>
        <time>2023-01-21T12:53:58.000Z</time>
      </trkpt>
      <trkpt lat="46.26756" lon="6.57492">
        <ele>1928.9</ele>
        <time>2023-01-21T12:53:59.000Z</time>
      </trkpt>
      <trkpt lat="46.26756" lon="6.57492">
        <ele>1928.9</ele>
        <time>2023-01-21T12:54:00.000Z</time>
      </trkpt>
      <trkpt lat="46.26756" lon="6.57492">
        <ele>1928.9</ele>
        <time>2023-01-21T12:54:01.000Z</time>
      </trkpt>
      <trkpt lat="46.26756" lon="6.57492">
        <ele>1928.9</ele>
        <time>2023-01-21T12:54:02.000Z</time>
      </trkpt>
      <trkpt lat="46.26756" lon="6.57492">
        <ele>1928.9</ele>
        <time>2023-01-21T12:54:03.000Z</time>
      </trkpt>
      <trkpt lat="46.26756" lon="6.57492">
        <ele>1928.9</ele>
        <time>2023-01-21T12:54:04.000Z</time>
      </trkpt>
      <trkpt lat="46.26756" lon="6.57492">
        <ele>1928.9</ele>
        <time>2023-01-21T12:54:05.000Z</time>
      </trkpt>
      <trkpt lat="46.26756" lon="6.57492">
        <ele>1928.9</ele>
        <time>2023-01-21T12:54:06.000Z</time>
      </trkpt>
      <trkpt lat="46.26756" lon="6.57492">
        <ele>1928.9</ele>
        <time>2023-01-21T12:54:07.000Z</time>
      </trkpt>
      <trkpt lat="46.26756" lon="6.57492">
        <ele>1928.9</ele>
        <time>2023-01-21T12:54:08.000Z</time>
      </trkpt>
      <trkpt lat="46.26756" lon="6.57492">
        <ele>1928.9</ele>
        <time>2023-01-21T12:54:09.000Z</time>
      </trkpt>
      <trkpt lat="46.26756" lon="6.57492">
        <ele>1928.9</ele>
        <time>2023-01-21T12:54:10.000Z</time>
      </trkpt>
      <trkpt lat="46.26756" lon="6.57492">
        <ele>1928.9</ele>
        <time>2023-01-21T12:54:11.000Z</time>
      </trkpt>
      <trkpt lat="46.26756" lon="6.57492">
        <ele>1928.9</ele>
        <time>2023-01-21T12:54:12.000Z</time>
      </trkpt>
      <trkpt lat="46.26756" lon="6.57492">
        <ele>1928.9</ele>
        <time>2023-01-21T12:54:13.000Z</time>
      </trkpt>
      <trkpt lat="46.26756" lon="6.57492">
        <ele>1928.9</ele>
        <time>2023-01-21T12:54:14.000Z</time>
      </trkpt>
      <trkpt lat="46.26756" lon="6.57492">
        <ele>1928.9</ele>
        <time>2023-01-21T12:54:15.000Z</time>
      </trkpt>
      <trkpt lat="46.26756" lon="6.57492">
        <ele>1928.9</ele>
        <time>2023-01-21T12:54:16.000Z</time>
      </trkpt>
      <trkpt lat="46.26756" lon="6.57492">
        <ele>1928.9</ele>
        <time>2023-01-21T12:54:17.000Z</time>
      </trkpt>
      <trkpt lat="46.26756" lon="6.57492">
        <ele>1928.9</ele>
        <time>2023-01-21T12:54:18.000Z</time>
      </trkpt>
      <trkpt lat="46.26756" lon="6.57492">
        <ele>1928.9</ele>
        <time>2023-01-21T12:54:19.000Z</time>
      </trkpt>
      <trkpt lat="46.26756" lon="6.57492">
        <ele>1928.9</ele>
        <time>2023-01-21T12:54:20.000Z</time>
      </trkpt>
      <trkpt lat="46.26756" lon="6.57492">
        <ele>1928.9</ele>
        <time>2023-01-21T12:54:21.000Z</time>
      </trkpt>
      <trkpt lat="46.26756" lon="6.57492">
        <ele>1928.9</ele>
        <time>2023-01-21T12:54:22.000Z</time>
      </trkpt>
      <trkpt lat="46.26756" lon="6.57492">
        <ele>1928.9</ele>
        <time>2023-01-21T12:54:23.000Z</time>
      </trkpt>
      <trkpt lat="46.26756" lon="6.57492">
        <ele>1928.9</ele>
        <time>2023-01-21T12:54:24.000Z</time>
      </trkpt>
      <trkpt lat="46.26756" lon="6.57492">
        <ele>1928.9</ele>
        <time>2023-01-21T12:54:25.000Z</time>
      </trkpt>
      <trkpt lat="46.26756" lon="6.57492">
        <ele>1928.9</ele>
        <time>2023-01-21T12:54:26.000Z</time>
      </trkpt>
      <trkpt lat="46.26756" lon="6.57492">
        <ele>1928.9</ele>
        <time>2023-01-21T12:54:27.000Z</time>
      </trkpt>
      <trkpt lat="46.26756" lon="6.57492">
        <ele>1928.9</ele>
        <time>2023-01-21T12:54:28.000Z</time>
      </trkpt>
      <trkpt lat="46.26756" lon="6.57492">
        <ele>1928.9</ele>
        <time>2023-01-21T12:54:29.000Z</time>
      </trkpt>
      <trkpt lat="46.26756" lon="6.57492">
        <ele>1928.9</ele>
        <time>2023-01-21T12:54:30.000Z</time>
      </trkpt>
      <trkpt lat="46.26756" lon="6.57492">
        <ele>1928.9</ele>
        <time>2023-01-21T12:54:31.000Z</time>
      </trkpt>
      <trkpt lat="46.26756" lon="6.57492">
        <ele>1928.9</ele>
        <time>2023-01-21T12:54:32.000Z</time>
      </trkpt>
      <trkpt lat="46.26756" lon="6.57492">
        <ele>1928.9</ele>
        <time>2023-01-21T12:54:33.000Z</time>
      </trkpt>
      <trkpt lat="46.26756" lon="6.57492">
        <ele>1928.9</ele>
        <time>2023-01-21T12:54:34.000Z</time>
      </trkpt>
      <trkpt lat="46.26756" lon="6.57492">
        <ele>1928.9</ele>
        <time>2023-01-21T12:54:35.000Z</time>
      </trkpt>
      <trkpt lat="46.26756" lon="6.57492">
        <ele>1928.9</ele>
        <time>2023-01-21T12:54:36.000Z</time>
      </trkpt>
      <trkpt lat="46.26756" lon="6.57492">
        <ele>1928.9</ele>
        <time>2023-01-21T12:54:37.000Z</time>
      </trkpt>
      <trkpt lat="46.26756" lon="6.57492">
        <ele>1928.9</ele>
        <time>2023-01-21T12:54:38.000Z</time>
      </trkpt>
      <trkpt lat="46.26756" lon="6.57492">
        <ele>1928.9</ele>
        <time>2023-01-21T12:54:39.000Z</time>
      </trkpt>
      <trkpt lat="46.26756" lon="6.57492">
        <ele>1928.9</ele>
        <time>2023-01-21T12:54:40.000Z</time>
      </trkpt>
      <trkpt lat="46.26756" lon="6.57492">
        <ele>1928.9</ele>
        <time>2023-01-21T12:54:41.000Z</time>
      </trkpt>
      <trkpt lat="46.26756" lon="6.57492">
        <ele>1928.9</ele>
        <time>2023-01-21T12:54:42.000Z</time>
      </trkpt>
      <trkpt lat="46.26756" lon="6.57492">
        <ele>1928.9</ele>
        <time>2023-01-21T12:54:43.000Z</time>
      </trkpt>
      <trkpt lat="46.26756" lon="6.57492">
        <ele>1928.9</ele>
        <time>2023-01-21T12:54:44.000Z</time>
      </trkpt>
      <trkpt lat="46.26755" lon="6.57505">
        <ele>1929.6</ele>
        <time>2023-01-21T12:54:45.000Z</time>
      </trkpt>
      <trkpt lat="46.26755" lon="6.57505">
        <ele>1929.6</ele>
        <time>2023-01-21T12:54:46.000Z</time>
      </trkpt>
      <trkpt lat="46.26754" lon="6.57505">
        <ele>1929.6</ele>
        <time>2023-01-21T12:54:47.000Z</time>
      </trkpt>
      <trkpt lat="46.26754" lon="6.57505">
        <ele>1929.8</ele>
        <time>2023-01-21T12:54:48.000Z</time>
      </trkpt>
      <trkpt lat="46.26754" lon="6.57505">
        <ele>1929.8</ele>
        <time>2023-01-21T12:54:49.000Z</time>
      </trkpt>
      <trkpt lat="46.26754" lon="6.57505">
        <ele>1929.8</ele>
        <time>2023-01-21T12:54:50.000Z</time>
      </trkpt>
      <trkpt lat="46.26754" lon="6.57505">
        <ele>1929.8</ele>
        <time>2023-01-21T12:54:51.000Z</time>
      </trkpt>
      <trkpt lat="46.26754" lon="6.57505">
        <ele>1929.8</ele>
        <time>2023-01-21T12:54:52.000Z</time>
      </trkpt>
      <trkpt lat="46.26754" lon="6.57505">
        <ele>1929.8</ele>
        <time>2023-01-21T12:54:53.000Z</time>
      </trkpt>
      <trkpt lat="46.26754" lon="6.57505">
        <ele>1929.8</ele>
        <time>2023-01-21T12:54:54.000Z</time>
      </trkpt>
      <trkpt lat="46.26754" lon="6.57505">
        <ele>1929.8</ele>
        <time>2023-01-21T12:54:55.000Z</time>
      </trkpt>
      <trkpt lat="46.26754" lon="6.57505">
        <ele>1929.8</ele>
        <time>2023-01-21T12:54:56.000Z</time>
      </trkpt>
      <trkpt lat="46.26754" lon="6.57505">
        <ele>1929.8</ele>
        <time>2023-01-21T12:54:57.000Z</time>
      </trkpt>
      <trkpt lat="46.26754" lon="6.57505">
        <ele>1929.8</ele>
        <time>2023-01-21T12:54:58.000Z</time>
      </trkpt>
      <trkpt lat="46.26754" lon="6.57505">
        <ele>1929.8</ele>
        <time>2023-01-21T12:54:59.000Z</time>
      </trkpt>
      <trkpt lat="46.26754" lon="6.57505">
        <ele>1929.8</ele>
        <time>2023-01-21T12:55:00.000Z</time>
      </trkpt>
      <trkpt lat="46.26754" lon="6.57505">
        <ele>1932.9</ele>
        <time>2023-01-21T12:55:01.000Z</time>
      </trkpt>
      <trkpt lat="46.26754" lon="6.57505">
        <ele>1932.9</ele>
        <time>2023-01-21T12:55:02.000Z</time>
      </trkpt>
      <trkpt lat="46.26754" lon="6.57505">
        <ele>1932.9</ele>
        <time>2023-01-21T12:55:03.000Z</time>
      </trkpt>
      <trkpt lat="46.26754" lon="6.57505">
        <ele>1932.9</ele>
        <time>2023-01-21T12:55:04.000Z</time>
      </trkpt>
      <trkpt lat="46.26754" lon="6.57505">
        <ele>1932.9</ele>
        <time>2023-01-21T12:55:05.000Z</time>
      </trkpt>
      <trkpt lat="46.26754" lon="6.57505">
        <ele>1932.9</ele>
        <time>2023-01-21T12:55:06.000Z</time>
      </trkpt>
      <trkpt lat="46.26754" lon="6.57505">
        <ele>1932.9</ele>
        <time>2023-01-21T12:55:07.000Z</time>
      </trkpt>
      <trkpt lat="46.26754" lon="6.57505">
        <ele>1932.9</ele>
        <time>2023-01-21T12:55:08.000Z</time>
      </trkpt>
      <trkpt lat="46.26754" lon="6.57505">
        <ele>1932.9</ele>
        <time>2023-01-21T12:55:09.000Z</time>
      </trkpt>
      <trkpt lat="46.26754" lon="6.57505">
        <ele>1932.9</ele>
        <time>2023-01-21T12:55:10.000Z</time>
      </trkpt>
      <trkpt lat="46.26754" lon="6.57505">
        <ele>1936</ele>
        <time>2023-01-21T12:55:11.000Z</time>
      </trkpt>
      <trkpt lat="46.26754" lon="6.57505">
        <ele>1936</ele>
        <time>2023-01-21T12:55:12.000Z</time>
      </trkpt>
      <trkpt lat="46.26754" lon="6.57505">
        <ele>1936</ele>
        <time>2023-01-21T12:55:13.000Z</time>
      </trkpt>
      <trkpt lat="46.26754" lon="6.57505">
        <ele>1936</ele>
        <time>2023-01-21T12:55:14.000Z</time>
      </trkpt>
      <trkpt lat="46.26754" lon="6.57505">
        <ele>1936</ele>
        <time>2023-01-21T12:55:15.000Z</time>
      </trkpt>
      <trkpt lat="46.26754" lon="6.57505">
        <ele>1936</ele>
        <time>2023-01-21T12:55:16.000Z</time>
      </trkpt>
      <trkpt lat="46.26754" lon="6.57505">
        <ele>1936</ele>
        <time>2023-01-21T12:55:17.000Z</time>
      </trkpt>
      <trkpt lat="46.26754" lon="6.57505">
        <ele>1936</ele>
        <time>2023-01-21T12:55:18.000Z</time>
      </trkpt>
      <trkpt lat="46.26754" lon="6.57505">
        <ele>1936</ele>
        <time>2023-01-21T12:55:19.000Z</time>
      </trkpt>
      <trkpt lat="46.26754" lon="6.57505">
        <ele>1936</ele>
        <time>2023-01-21T12:55:20.000Z</time>
      </trkpt>
      <trkpt lat="46.26754" lon="6.57505">
        <ele>1936</ele>
        <time>2023-01-21T12:55:21.000Z</time>
      </trkpt>
      <trkpt lat="46.26754" lon="6.57505">
        <ele>1936</ele>
        <time>2023-01-21T12:55:22.000Z</time>
      </trkpt>
      <trkpt lat="46.26754" lon="6.57505">
        <ele>1936</ele>
        <time>2023-01-21T12:55:23.000Z</time>
      </trkpt>
      <trkpt lat="46.26754" lon="6.57505">
        <ele>1936</ele>
        <time>2023-01-21T12:55:24.000Z</time>
      </trkpt>
      <trkpt lat="46.26754" lon="6.57505">
        <ele>1936</ele>
        <time>2023-01-21T12:55:25.000Z</time>
      </trkpt>
      <trkpt lat="46.26754" lon="6.57505">
        <ele>1936</ele>
        <time>2023-01-21T12:55:26.000Z</time>
      </trkpt>
      <trkpt lat="46.26754" lon="6.57505">
        <ele>1936</ele>
        <time>2023-01-21T12:55:27.000Z</time>
      </trkpt>
      <trkpt lat="46.26754" lon="6.57505">
        <ele>1936</ele>
        <time>2023-01-21T12:55:28.000Z</time>
      </trkpt>
      <trkpt lat="46.26754" lon="6.57505">
        <ele>1936</ele>
        <time>2023-01-21T12:55:29.000Z</time>
      </trkpt>
      <trkpt lat="46.26754" lon="6.57505">
        <ele>1936</ele>
        <time>2023-01-21T12:55:30.000Z</time>
      </trkpt>
      <trkpt lat="46.26754" lon="6.57505">
        <ele>1936</ele>
        <time>2023-01-21T12:55:31.000Z</time>
      </trkpt>
      <trkpt lat="46.26754" lon="6.57505">
        <ele>1936</ele>
        <time>2023-01-21T12:55:32.000Z</time>
      </trkpt>
      <trkpt lat="46.26799" lon="6.57459">
        <ele>1919</ele>
        <time>2023-01-21T13:13:13.000Z</time>
      </trkpt>
      <trkpt lat="46.26799" lon="6.57459">
        <ele>1919</ele>
        <time>2023-01-21T13:13:14.000Z</time>
      </trkpt>
      <trkpt lat="46.26799" lon="6.57459">
        <ele>1919</ele>
        <time>2023-01-21T13:13:15.000Z</time>
      </trkpt>
      <trkpt lat="46.26799" lon="6.57459">
        <ele>1919</ele>
        <time>2023-01-21T13:13:16.000Z</time>
      </trkpt>
      <trkpt lat="46.26799" lon="6.57459">
        <ele>1919</ele>
        <time>2023-01-21T13:13:17.000Z</time>
      </trkpt>
      <trkpt lat="46.26799" lon="6.57459">
        <ele>1919</ele>
        <time>2023-01-21T13:13:18.000Z</time>
      </trkpt>
      <trkpt lat="46.26799" lon="6.57459">
        <ele>1919</ele>
        <time>2023-01-21T13:13:19.000Z</time>
      </trkpt>
      <trkpt lat="46.26799" lon="6.57459">
        <ele>1919</ele>
        <time>2023-01-21T13:13:20.000Z</time>
      </trkpt>
      <trkpt lat="46.26799" lon="6.57459">
        <ele>1919</ele>
        <time>2023-01-21T13:13:21.000Z</time>
      </trkpt>
      <trkpt lat="46.26799" lon="6.57459">
        <ele>1919</ele>
        <time>2023-01-21T13:13:22.000Z</time>
      </trkpt>
      <trkpt lat="46.26799" lon="6.57459">
        <ele>1919</ele>
        <time>2023-01-21T13:13:23.000Z</time>
      </trkpt>
      <trkpt lat="46.26799" lon="6.57459">
        <ele>1919</ele>
        <time>2023-01-21T13:13:24.000Z</time>
      </trkpt>
      <trkpt lat="46.26799" lon="6.57459">
        <ele>1919</ele>
        <time>2023-01-21T13:13:25.000Z</time>
      </trkpt>
      <trkpt lat="46.26799" lon="6.57459">
        <ele>1919</ele>
        <time>2023-01-21T13:13:26.000Z</time>
      </trkpt>
      <trkpt lat="46.26799" lon="6.57459">
        <ele>1919</ele>
        <time>2023-01-21T13:13:27.000Z</time>
      </trkpt>
      <trkpt lat="46.26799" lon="6.57459">
        <ele>1919</ele>
        <time>2023-01-21T13:13:28.000Z</time>
      </trkpt>
      <trkpt lat="46.26799" lon="6.57459">
        <ele>1919</ele>
        <time>2023-01-21T13:13:29.000Z</time>
      </trkpt>
      <trkpt lat="46.26799" lon="6.57459">
        <ele>1919</ele>
        <time>2023-01-21T13:13:30.000Z</time>
      </trkpt>
      <trkpt lat="46.26799" lon="6.57459">
        <ele>1919</ele>
        <time>2023-01-21T13:13:31.000Z</time>
      </trkpt>
      <trkpt lat="46.26799" lon="6.57459">
        <ele>1919</ele>
        <time>2023-01-21T13:13:32.000Z</time>
      </trkpt>
      <trkpt lat="46.26799" lon="6.57459">
        <ele>1919</ele>
        <time>2023-01-21T13:13:33.000Z</time>
      </trkpt>
      <trkpt lat="46.26799" lon="6.57459">
        <ele>1919</ele>
        <time>2023-01-21T13:13:34.000Z</time>
      </trkpt>
      <trkpt lat="46.26799" lon="6.57459">
        <ele>1919</ele>
        <time>2023-01-21T13:13:35.000Z</time>
      </trkpt>
      <trkpt lat="46.26799" lon="6.57459">
        <ele>1919</ele>
        <time>2023-01-21T13:13:36.000Z</time>
      </trkpt>
      <trkpt lat="46.26799" lon="6.57459">
        <ele>1919</ele>
        <time>2023-01-21T13:13:37.000Z</time>
      </trkpt>
      <trkpt lat="46.26799" lon="6.57459">
        <ele>1919</ele>
        <time>2023-01-21T13:13:38.000Z</time>
      </trkpt>
      <trkpt lat="46.26799" lon="6.57459">
        <ele>1919</ele>
        <time>2023-01-21T13:13:39.000Z</time>
      </trkpt>
      <trkpt lat="46.26799" lon="6.57459">
        <ele>1919</ele>
        <time>2023-01-21T13:13:40.000Z</time>
      </trkpt>
      <trkpt lat="46.26799" lon="6.57459">
        <ele>1919</ele>
        <time>2023-01-21T13:13:41.000Z</time>
      </trkpt>
      <trkpt lat="46.26799" lon="6.57459">
        <ele>1919</ele>
        <time>2023-01-21T13:13:42.000Z</time>
      </trkpt>
      <trkpt lat="46.26799" lon="6.57459">
        <ele>1919</ele>
        <time>2023-01-21T13:13:43.000Z</time>
      </trkpt>
      <trkpt lat="46.26799" lon="6.57459">
        <ele>1919</ele>
        <time>2023-01-21T13:13:44.000Z</time>
      </trkpt>
      <trkpt lat="46.26799" lon="6.57459">
        <ele>1919</ele>
        <time>2023-01-21T13:13:45.000Z</time>
      </trkpt>
      <trkpt lat="46.26799" lon="6.57459">
        <ele>1919</ele>
        <time>2023-01-21T13:13:46.000Z</time>
      </trkpt>
      <trkpt lat="46.26799" lon="6.57459">
        <ele>1919</ele>
        <time>2023-01-21T13:13:47.000Z</time>
      </trkpt>
      <trkpt lat="46.26799" lon="6.57459">
        <ele>1919</ele>
        <time>2023-01-21T13:13:48.000Z</time>
      </trkpt>
      <trkpt lat="46.26799" lon="6.57459">
        <ele>1919</ele>
        <time>2023-01-21T13:13:49.000Z</time>
      </trkpt>
      <trkpt lat="46.26799" lon="6.57459">
        <ele>1919</ele>
        <time>2023-01-21T13:13:50.000Z</time>
      </trkpt>
      <trkpt lat="46.26799" lon="6.57459">
        <ele>1919</ele>
        <time>2023-01-21T13:13:51.000Z</time>
      </trkpt>
      <trkpt lat="46.26799" lon="6.57459">
        <ele>1919</ele>
        <time>2023-01-21T13:13:52.000Z</time>
      </trkpt>
      <trkpt lat="46.26799" lon="6.57459">
        <ele>1919</ele>
        <time>2023-01-21T13:13:53.000Z</time>
      </trkpt>
      <trkpt lat="46.26799" lon="6.57459">
        <ele>1919</ele>
        <time>2023-01-21T13:13:54.000Z</time>
      </trkpt>
      <trkpt lat="46.26799" lon="6.57459">
        <ele>1919</ele>
        <time>2023-01-21T13:13:55.000Z</time>
      </trkpt>
      <trkpt lat="46.26799" lon="6.57459">
        <ele>1919</ele>
        <time>2023-01-21T13:13:56.000Z</time>
      </trkpt>
      <trkpt lat="46.26799" lon="6.57459">
        <ele>1919</ele>
        <time>2023-01-21T13:13:57.000Z</time>
      </trkpt>
      <trkpt lat="46.26799" lon="6.57459">
        <ele>1919</ele>
        <time>2023-01-21T13:13:58.000Z</time>
      </trkpt>
      <trkpt lat="46.26799" lon="6.57459">
        <ele>1919</ele>
        <time>2023-01-21T13:13:59.000Z</time>
      </trkpt>
      <trkpt lat="46.26799" lon="6.57459">
        <ele>1919</ele>
        <time>2023-01-21T13:14:00.000Z</time>
      </trkpt>
      <trkpt lat="46.26799" lon="6.57459">
        <ele>1919</ele>
        <time>2023-01-21T13:14:01.000Z</time>
      </trkpt>
      <trkpt lat="46.26799" lon="6.57459">
        <ele>1919</ele>
        <time>2023-01-21T13:14:02.000Z</time>
      </trkpt>
      <trkpt lat="46.26799" lon="6.57459">
        <ele>1919</ele>
        <time>2023-01-21T13:14:03.000Z</time>
      </trkpt>
      <trkpt lat="46.26799" lon="6.57459">
        <ele>1919</ele>
        <time>2023-01-21T13:14:04.000Z</time>
      </trkpt>
      <trkpt lat="46.26799" lon="6.57459">
        <ele>1919</ele>
        <time>2023-01-21T13:14:05.000Z</time>
      </trkpt>
      <trkpt lat="46.26799" lon="6.57459">
        <ele>1919</ele>
        <time>2023-01-21T13:14:06.000Z</time>
      </trkpt>
      <trkpt lat="46.26799" lon="6.57459">
        <ele>1919</ele>
        <time>2023-01-21T13:14:07.000Z</time>
      </trkpt>
      <trkpt lat="46.26799" lon="6.57459">
        <ele>1919</ele>
        <time>2023-01-21T13:14:08.000Z</time>
      </trkpt>
      <trkpt lat="46.26799" lon="6.57459">
        <ele>1919</ele>
        <time>2023-01-21T13:14:09.000Z</time>
      </trkpt>
      <trkpt lat="46.26799" lon="6.57459">
        <ele>1919</ele>
        <time>2023-01-21T13:14:10.000Z</time>
      </trkpt>
      <trkpt lat="46.26799" lon="6.57459">
        <ele>1919</ele>
        <time>2023-01-21T13:14:11.000Z</time>
      </trkpt>
      <trkpt lat="46.26799" lon="6.57459">
        <ele>1919</ele>
        <time>2023-01-21T13:14:12.000Z</time>
      </trkpt>
      <trkpt lat="46.26799" lon="6.57459">
        <ele>1919</ele>
        <time>2023-01-21T13:14:13.000Z</time>
      </trkpt>
      <trkpt lat="46.26799" lon="6.57459">
        <ele>1919</ele>
        <time>2023-01-21T13:14:14.000Z</time>
      </trkpt>
      <trkpt lat="46.26799" lon="6.57459">
        <ele>1919</ele>
        <time>2023-01-21T13:14:15.000Z</time>
      </trkpt>
      <trkpt lat="46.26799" lon="6.57459">
        <ele>1919</ele>
        <time>2023-01-21T13:14:16.000Z</time>
      </trkpt>
      <trkpt lat="46.26799" lon="6.57459">
        <ele>1919</ele>
        <time>2023-01-21T13:14:17.000Z</time>
      </trkpt>
      <trkpt lat="46.26799" lon="6.57459">
        <ele>1919</ele>
        <time>2023-01-21T13:14:18.000Z</time>
      </trkpt>
      <trkpt lat="46.26799" lon="6.57459">
        <ele>1919</ele>
        <time>2023-01-21T13:14:19.000Z</time>
      </trkpt>
      <trkpt lat="46.26799" lon="6.57459">
        <ele>1919</ele>
        <time>2023-01-21T13:14:20.000Z</time>
      </trkpt>
      <trkpt lat="46.26799" lon="6.57459">
        <ele>1919</ele>
        <time>2023-01-21T13:14:21.000Z</time>
      </trkpt>
      <trkpt lat="46.26799" lon="6.57459">
        <ele>1919</ele>
        <time>2023-01-21T13:14:22.000Z</time>
      </trkpt>
      <trkpt lat="46.26799" lon="6.57459">
        <ele>1919</ele>
        <time>2023-01-21T13:14:23.000Z</time>
      </trkpt>
      <trkpt lat="46.26799" lon="6.57459">
        <ele>1919</ele>
        <time>2023-01-21T13:14:24.000Z</time>
      </trkpt>
      <trkpt lat="46.26799" lon="6.57459">
        <ele>1919</ele>
        <time>2023-01-21T13:14:25.000Z</time>
      </trkpt>
      <trkpt lat="46.26799" lon="6.57459">
        <ele>1919</ele>
        <time>2023-01-21T13:14:26.000Z</time>
      </trkpt>
      <trkpt lat="46.27266" lon="6.57451">
        <ele>1772.7</ele>
        <time>2023-01-21T13:29:36.000Z</time>
      </trkpt>
      <trkpt lat="46.27261" lon="6.57446">
        <ele>1765.1</ele>
        <time>2023-01-21T13:29:37.000Z</time>
      </trkpt>
      <trkpt lat="46.27265" lon="6.5744">
        <ele>1759.4</ele>
        <time>2023-01-21T13:29:38.000Z</time>
      </trkpt>
      <trkpt lat="46.27265" lon="6.57441">
        <ele>1760</ele>
        <time>2023-01-21T13:29:39.000Z</time>
      </trkpt>
      <trkpt lat="46.27263" lon="6.57441">
        <ele>1758.8</ele>
        <time>2023-01-21T13:29:40.000Z</time>
      </trkpt>
      <trkpt lat="46.27262" lon="6.57441">
        <ele>1759</ele>
        <time>2023-01-21T13:29:41.000Z</time>
      </trkpt>
      <trkpt lat="46.27262" lon="6.57441">
        <ele>1759.2</ele>
        <time>2023-01-21T13:29:42.000Z</time>
      </trkpt>
      <trkpt lat="46.27262" lon="6.57441">
        <ele>1759.3</ele>
        <time>2023-01-21T13:29:43.000Z</time>
      </trkpt>
      <trkpt lat="46.27262" lon="6.5744">
        <ele>1759</ele>
        <time>2023-01-21T13:29:44.000Z</time>
      </trkpt>
      <trkpt lat="46.27264" lon="6.57443">
        <ele>1758.3</ele>
        <time>2023-01-21T13:29:45.000Z</time>
      </trkpt>
      <trkpt lat="46.27264" lon="6.57444">
        <ele>1758</ele>
        <time>2023-01-21T13:29:47.000Z</time>
      </trkpt>
      <trkpt lat="46.27264" lon="6.57444">
        <ele>1757.6</ele>
        <time>2023-01-21T13:29:48.000Z</time>
      </trkpt>
      <trkpt lat="46.27265" lon="6.57444">
        <ele>1757</ele>
        <time>2023-01-21T13:29:49.000Z</time>
      </trkpt>
      <trkpt lat="46.27265" lon="6.57445">
        <ele>1756.2</ele>
        <time>2023-01-21T13:29:50.000Z</time>
      </trkpt>
      <trkpt lat="46.27265" lon="6.57445">
        <ele>1755.3</ele>
        <time>2023-01-21T13:29:51.000Z</time>
      </trkpt>
      <trkpt lat="46.27266" lon="6.57446">
        <ele>1754.6</ele>
        <time>2023-01-21T13:29:52.000Z</time>
      </trkpt>
      <trkpt lat="46.27267" lon="6.57446">
        <ele>1754.3</ele>
        <time>2023-01-21T13:29:53.000Z</time>
      </trkpt>
      <trkpt lat="46.27268" lon="6.57446">
        <ele>1754.1</ele>
        <time>2023-01-21T13:29:54.000Z</time>
      </trkpt>
      <trkpt lat="46.27269" lon="6.57445">
        <ele>1753.6</ele>
        <time>2023-01-21T13:29:55.000Z</time>
      </trkpt>
      <trkpt lat="46.27269" lon="6.57444">
        <ele>1753.2</ele>
        <time>2023-01-21T13:29:56.000Z</time>
      </trkpt>
      <trkpt lat="46.27269" lon="6.57445">
        <ele>1753</ele>
        <time>2023-01-21T13:29:57.000Z</time>
      </trkpt>
      <trkpt lat="46.27269" lon="6.57445">
        <ele>1752.8</ele>
        <time>2023-01-21T13:29:58.000Z</time>
      </trkpt>
      <trkpt lat="46.27269" lon="6.57446">
        <ele>1752.9</ele>
        <time>2023-01-21T13:29:59.000Z</time>
      </trkpt>
      <trkpt lat="46.27269" lon="6.57446">
        <ele>1752.6</ele>
        <time>2023-01-21T13:30:00.000Z</time>
      </trkpt>
      <trkpt lat="46.27269" lon="6.57447">
        <ele>1752.6</ele>
        <time>2023-01-21T13:30:01.000Z</time>
      </trkpt>
      <trkpt lat="46.27268" lon="6.57447">
        <ele>1752.6</ele>
        <time>2023-01-21T13:30:02.000Z</time>
      </trkpt>
      <trkpt lat="46.27268" lon="6.57447">
        <ele>1752.4</ele>
        <time>2023-01-21T13:30:03.000Z</time>
      </trkpt>
      <trkpt lat="46.27268" lon="6.57447">
        <ele>1752.4</ele>
        <time>2023-01-21T13:30:04.000Z</time>
      </trkpt>
      <trkpt lat="46.27268" lon="6.57448">
        <ele>1752.2</ele>
        <time>2023-01-21T13:30:05.000Z</time>
      </trkpt>
      <trkpt lat="46.27268" lon="6.57448">
        <ele>1751.8</ele>
        <time>2023-01-21T13:30:06.000Z</time>
      </trkpt>
      <trkpt lat="46.27268" lon="6.57449">
        <ele>1751.4</ele>
        <time>2023-01-21T13:30:07.000Z</time>
      </trkpt>
      <trkpt lat="46.27268" lon="6.57449">
        <ele>1750.8</ele>
        <time>2023-01-21T13:30:08.000Z</time>
      </trkpt>
      <trkpt lat="46.27269" lon="6.5745">
        <ele>1750.5</ele>
        <time>2023-01-21T13:30:09.000Z</time>
      </trkpt>
      <trkpt lat="46.27269" lon="6.5745">
        <ele>1750.5</ele>
        <time>2023-01-21T13:30:10.000Z</time>
      </trkpt>
      <trkpt lat="46.27269" lon="6.5745">
        <ele>1750.5</ele>
        <time>2023-01-21T13:30:11.000Z</time>
      </trkpt>
      <trkpt lat="46.27269" lon="6.5745">
        <ele>1750.5</ele>
        <time>2023-01-21T13:30:12.000Z</time>
      </trkpt>
      <trkpt lat="46.27269" lon="6.5745">
        <ele>1750.5</ele>
        <time>2023-01-21T13:30:13.000Z</time>
      </trkpt>
      <trkpt lat="46.27269" lon="6.5745">
        <ele>1750.5</ele>
        <time>2023-01-21T13:30:14.000Z</time>
      </trkpt>
      <trkpt lat="46.27269" lon="6.5745">
        <ele>1750.5</ele>
        <time>2023-01-21T13:30:15.000Z</time>
      </trkpt>
      <trkpt lat="46.27269" lon="6.5745">
        <ele>1750.5</ele>
        <time>2023-01-21T13:30:16.000Z</time>
      </trkpt>
      <trkpt lat="46.27269" lon="6.5745">
        <ele>1750.5</ele>
        <time>2023-01-21T13:30:17.000Z</time>
      </trkpt>
      <trkpt lat="46.27269" lon="6.5745">
        <ele>1750.5</ele>
        <time>2023-01-21T13:30:18.000Z</time>
      </trkpt>
      <trkpt lat="46.27269" lon="6.5745">
        <ele>1750.5</ele>
        <time>2023-01-21T13:30:19.000Z</time>
      </trkpt>
      <trkpt lat="46.27269" lon="6.5745">
        <ele>1750.5</ele>
        <time>2023-01-21T13:30:20.000Z</time>
      </trkpt>
      <trkpt lat="46.27271" lon="6.5745">
        <ele>1749.4</ele>
        <time>2023-01-21T13:30:21.000Z</time>
      </trkpt>
      <trkpt lat="46.27271" lon="6.5745">
        <ele>1749.4</ele>
        <time>2023-01-21T13:30:22.000Z</time>
      </trkpt>
      <trkpt lat="46.27271" lon="6.5745">
        <ele>1749.5</ele>
        <time>2023-01-21T13:30:23.000Z</time>
      </trkpt>
      <trkpt lat="46.2727" lon="6.5745">
        <ele>1749.7</ele>
        <time>2023-01-21T13:30:24.000Z</time>
      </trkpt>
      <trkpt lat="46.2727" lon="6.5745">
        <ele>1749.7</ele>
        <time>2023-01-21T13:30:25.000Z</time>
      </trkpt>
      <trkpt lat="46.2727" lon="6.5745">
        <ele>1749.7</ele>
        <time>2023-01-21T13:30:26.000Z</time>
      </trkpt>
      <trkpt lat="46.2727" lon="6.5745">
        <ele>1749.7</ele>
        <time>2023-01-21T13:30:27.000Z</time>
      </trkpt>
      <trkpt lat="46.2727" lon="6.5745">
        <ele>1749.7</ele>
        <time>2023-01-21T13:30:28.000Z</time>
      </trkpt>
      <trkpt lat="46.2727" lon="6.5745">
        <ele>1749.7</ele>
        <time>2023-01-21T13:30:29.000Z</time>
      </trkpt>
      <trkpt lat="46.2727" lon="6.5745">
        <ele>1749.7</ele>
        <time>2023-01-21T13:30:30.000Z</time>
      </trkpt>
      <trkpt lat="46.2727" lon="6.5745">
        <ele>1749.7</ele>
        <time>2023-01-21T13:30:31.000Z</time>
      </trkpt>
      <trkpt lat="46.2727" lon="6.5745">
        <ele>1749.7</ele>
        <time>2023-01-21T13:30:32.000Z</time>
      </trkpt>
      <trkpt lat="46.27269" lon="6.57448">
        <ele>1748.6</ele>
        <time>2023-01-21T13:30:33.000Z</time>
      </trkpt>
      <trkpt lat="46.27268" lon="6.57448">
        <ele>1748.6</ele>
        <time>2023-01-21T13:30:34.000Z</time>
      </trkpt>
      <trkpt lat="46.27268" lon="6.57447">
        <ele>1748.5</ele>
        <time>2023-01-21T13:30:35.000Z</time>
      </trkpt>
      <trkpt lat="46.27268" lon="6.57447">
        <ele>1748.5</ele>
        <time>2023-01-21T13:30:36.000Z</time>
      </trkpt>
      <trkpt lat="46.27268" lon="6.57447">
        <ele>1748.5</ele>
        <time>2023-01-21T13:30:37.000Z</time>
      </trkpt>
      <trkpt lat="46.27268" lon="6.57447">
        <ele>1748.5</ele>
        <time>2023-01-21T13:30:38.000Z</time>
      </trkpt>
      <trkpt lat="46.27268" lon="6.57447">
        <ele>1748.5</ele>
        <time>2023-01-21T13:30:39.000Z</time>
      </trkpt>
      <trkpt lat="46.27268" lon="6.57447">
        <ele>1748.5</ele>
        <time>2023-01-21T13:30:40.000Z</time>
      </trkpt>
      <trkpt lat="46.27268" lon="6.57447">
        <ele>1748.5</ele>
        <time>2023-01-21T13:30:41.000Z</time>
      </trkpt>
      <trkpt lat="46.27265" lon="6.57446">
        <ele>1747.7</ele>
        <time>2023-01-21T13:30:42.000Z</time>
      </trkpt>
      <trkpt lat="46.27264" lon="6.57445">
        <ele>1747.6</ele>
        <time>2023-01-21T13:30:43.000Z</time>
      </trkpt>
      <trkpt lat="46.27262" lon="6.57445">
        <ele>1747.2</ele>
        <time>2023-01-21T13:30:44.000Z</time>
      </trkpt>
      <trkpt lat="46.27261" lon="6.57443">
        <ele>1746.8</ele>
        <time>2023-01-21T13:30:45.000Z</time>
      </trkpt>
      <trkpt lat="46.27262" lon="6.5744">
        <ele>1746</ele>
        <time>2023-01-21T13:30:46.000Z</time>
      </trkpt>
      <trkpt lat="46.27263" lon="6.57437">
        <ele>1745.2</ele>
        <time>2023-01-21T13:30:47.000Z</time>
      </trkpt>
      <trkpt lat="46.27265" lon="6.57434">
        <ele>1744</ele>
        <time>2023-01-21T13:30:48.000Z</time>
      </trkpt>
      <trkpt lat="46.27266" lon="6.57431">
        <ele>1742.9</ele>
        <time>2023-01-21T13:30:49.000Z</time>
      </trkpt>
      <trkpt lat="46.27267" lon="6.5743">
        <ele>1741.8</ele>
        <time>2023-01-21T13:30:50.000Z</time>
      </trkpt>
      <trkpt lat="46.27268" lon="6.57428">
        <ele>1740.6</ele>
        <time>2023-01-21T13:30:51.000Z</time>
      </trkpt>
      <trkpt lat="46.27269" lon="6.57427">
        <ele>1739.8</ele>
        <time>2023-01-21T13:30:52.000Z</time>
      </trkpt>
      <trkpt lat="46.27269" lon="6.57425">
        <ele>1738.7</ele>
        <time>2023-01-21T13:30:53.000Z</time>
      </trkpt>
      <trkpt lat="46.27269" lon="6.57425">
        <ele>1737.8</ele>
        <time>2023-01-21T13:30:54.000Z</time>
      </trkpt>
      <trkpt lat="46.27267" lon="6.57424">
        <ele>1736.5</ele>
        <time>2023-01-21T13:30:55.000Z</time>
      </trkpt>
      <trkpt lat="46.27265" lon="6.57422">
        <ele>1734.5</ele>
        <time>2023-01-21T13:30:56.000Z</time>
      </trkpt>
      <trkpt lat="46.27263" lon="6.57421">
        <ele>1732.5</ele>
        <time>2023-01-21T13:30:57.000Z</time>
      </trkpt>
      <trkpt lat="46.27263" lon="6.57422">
        <ele>1730.8</ele>
        <time>2023-01-21T13:30:58.000Z</time>
      </trkpt>
      <trkpt lat="46.27262" lon="6.57421">
        <ele>1729.8</ele>
        <time>2023-01-21T13:30:59.000Z</time>
      </trkpt>
      <trkpt lat="46.27262" lon="6.57421">
        <ele>1729.2</ele>
        <time>2023-01-21T13:31:00.000Z</time>
      </trkpt>
      <trkpt lat="46.27262" lon="6.5742">
        <ele>1728.8</ele>
        <time>2023-01-21T13:31:01.000Z</time>
      </trkpt>
      <trkpt lat="46.27262" lon="6.57419">
        <ele>1728.6</ele>
        <time>2023-01-21T13:31:02.000Z</time>
      </trkpt>
      <trkpt lat="46.27261" lon="6.57418">
        <ele>1728.2</ele>
        <time>2023-01-21T13:31:03.000Z</time>
      </trkpt>
      <trkpt lat="46.27261" lon="6.57418">
        <ele>1727.8</ele>
        <time>2023-01-21T13:31:04.000Z</time>
      </trkpt>
      <trkpt lat="46.2726" lon="6.57417">
        <ele>1728</ele>
        <time>2023-01-21T13:31:05.000Z</time>
      </trkpt>
      <trkpt lat="46.2726" lon="6.57416">
        <ele>1728.2</ele>
        <time>2023-01-21T13:31:06.000Z</time>
      </trkpt>
      <trkpt lat="46.2726" lon="6.57416">
        <ele>1728.6</ele>
        <time>2023-01-21T13:31:07.000Z</time>
      </trkpt>
      <trkpt lat="46.2726" lon="6.57415">
        <ele>1728.9</ele>
        <time>2023-01-21T13:31:08.000Z</time>
      </trkpt>
      <trkpt lat="46.27259" lon="6.57414">
        <ele>1729</ele>
        <time>2023-01-21T13:31:09.000Z</time>
      </trkpt>
      <trkpt lat="46.27258" lon="6.57413">
        <ele>1729</ele>
        <time>2023-01-21T13:31:10.000Z</time>
      </trkpt>
      <trkpt lat="46.27258" lon="6.57411">
        <ele>1728.7</ele>
        <time>2023-01-21T13:31:11.000Z</time>
      </trkpt>
      <trkpt lat="46.27257" lon="6.5741">
        <ele>1728.7</ele>
        <time>2023-01-21T13:31:12.000Z</time>
      </trkpt>
      <trkpt lat="46.27255" lon="6.5741">
        <ele>1728.5</ele>
        <time>2023-01-21T13:31:13.000Z</time>
      </trkpt>
      <trkpt lat="46.27254" lon="6.57408">
        <ele>1728.6</ele>
        <time>2023-01-21T13:31:14.000Z</time>
      </trkpt>
      <trkpt lat="46.27252" lon="6.57407">
        <ele>1728.4</ele>
        <time>2023-01-21T13:31:15.000Z</time>
      </trkpt>
      <trkpt lat="46.27251" lon="6.57404">
        <ele>1728.3</ele>
        <time>2023-01-21T13:31:16.000Z</time>
      </trkpt>
      <trkpt lat="46.2725" lon="6.57402">
        <ele>1727.6</ele>
        <time>2023-01-21T13:31:17.000Z</time>
      </trkpt>
      <trkpt lat="46.2725" lon="6.574">
        <ele>1727.1</ele>
        <time>2023-01-21T13:31:18.000Z</time>
      </trkpt>
      <trkpt lat="46.27249" lon="6.57399">
        <ele>1726.8</ele>
        <time>2023-01-21T13:31:19.000Z</time>
      </trkpt>
      <trkpt lat="46.27249" lon="6.57396">
        <ele>1726.4</ele>
        <time>2023-01-21T13:31:20.000Z</time>
      </trkpt>
      <trkpt lat="46.27249" lon="6.57392">
        <ele>1725.6</ele>
        <time>2023-01-21T13:31:21.000Z</time>
      </trkpt>
      <trkpt lat="46.27249" lon="6.57388">
        <ele>1724.7</ele>
        <time>2023-01-21T13:31:22.000Z</time>
      </trkpt>
      <trkpt lat="46.27248" lon="6.57384">
        <ele>1723.5</ele>
        <time>2023-01-21T13:31:23.000Z</time>
      </trkpt>
      <trkpt lat="46.27246" lon="6.57382">
        <ele>1723</ele>
        <time>2023-01-21T13:31:24.000Z</time>
      </trkpt>
      <trkpt lat="46.27244" lon="6.57379">
        <ele>1722.7</ele>
        <time>2023-01-21T13:31:25.000Z</time>
      </trkpt>
      <trkpt lat="46.27242" lon="6.57377">
        <ele>1721.9</ele>
        <time>2023-01-21T13:31:26.000Z</time>
      </trkpt>
      <trkpt lat="46.27241" lon="6.57376">
        <ele>1721.2</ele>
        <time>2023-01-21T13:31:27.000Z</time>
      </trkpt>
      <trkpt lat="46.27238" lon="6.57376">
        <ele>1719.9</ele>
        <time>2023-01-21T13:31:28.000Z</time>
      </trkpt>
      <trkpt lat="46.27237" lon="6.57376">
        <ele>1719.1</ele>
        <time>2023-01-21T13:31:29.000Z</time>
      </trkpt>
      <trkpt lat="46.27236" lon="6.57376">
        <ele>1718.2</ele>
        <time>2023-01-21T13:31:30.000Z</time>
      </trkpt>
      <trkpt lat="46.27235" lon="6.57374">
        <ele>1717.8</ele>
        <time>2023-01-21T13:31:31.000Z</time>
      </trkpt>
      <trkpt lat="46.27235" lon="6.57373">
        <ele>1718</ele>
        <time>2023-01-21T13:31:32.000Z</time>
      </trkpt>
      <trkpt lat="46.27235" lon="6.57372">
        <ele>1718.3</ele>
        <time>2023-01-21T13:31:33.000Z</time>
      </trkpt>
      <trkpt lat="46.27235" lon="6.57372">
        <ele>1718.5</ele>
        <time>2023-01-21T13:31:34.000Z</time>
      </trkpt>
      <trkpt lat="46.27235" lon="6.57372">
        <ele>1718.8</ele>
        <time>2023-01-21T13:31:35.000Z</time>
      </trkpt>
      <trkpt lat="46.27234" lon="6.57371">
        <ele>1719.2</ele>
        <time>2023-01-21T13:31:36.000Z</time>
      </trkpt>
      <trkpt lat="46.27233" lon="6.57371">
        <ele>1719.5</ele>
        <time>2023-01-21T13:31:37.000Z</time>
      </trkpt>
      <trkpt lat="46.27233" lon="6.5737">
        <ele>1719.5</ele>
        <time>2023-01-21T13:31:38.000Z</time>
      </trkpt>
      <trkpt lat="46.27232" lon="6.5737">
        <ele>1719.6</ele>
        <time>2023-01-21T13:31:39.000Z</time>
      </trkpt>
      <trkpt lat="46.27231" lon="6.5737">
        <ele>1719.2</ele>
        <time>2023-01-21T13:31:40.000Z</time>
      </trkpt>
      <trkpt lat="46.27231" lon="6.5737">
        <ele>1719.2</ele>
        <time>2023-01-21T13:31:41.000Z</time>
      </trkpt>
      <trkpt lat="46.27231" lon="6.5737">
        <ele>1719.2</ele>
        <time>2023-01-21T13:31:42.000Z</time>
      </trkpt>
      <trkpt lat="46.27231" lon="6.5737">
        <ele>1719.2</ele>
        <time>2023-01-21T13:31:43.000Z</time>
      </trkpt>
      <trkpt lat="46.27231" lon="6.5737">
        <ele>1719.2</ele>
        <time>2023-01-21T13:31:44.000Z</time>
      </trkpt>
      <trkpt lat="46.27231" lon="6.5737">
        <ele>1719.2</ele>
        <time>2023-01-21T13:31:45.000Z</time>
      </trkpt>
      <trkpt lat="46.27231" lon="6.5737">
        <ele>1719.2</ele>
        <time>2023-01-21T13:31:46.000Z</time>
      </trkpt>
      <trkpt lat="46.27231" lon="6.5737">
        <ele>1719.2</ele>
        <time>2023-01-21T13:31:47.000Z</time>
      </trkpt>
      <trkpt lat="46.27231" lon="6.5737">
        <ele>1719.2</ele>
        <time>2023-01-21T13:31:48.000Z</time>
      </trkpt>
      <trkpt lat="46.27231" lon="6.5737">
        <ele>1719.2</ele>
        <time>2023-01-21T13:31:49.000Z</time>
      </trkpt>
      <trkpt lat="46.27231" lon="6.5737">
        <ele>1719.2</ele>
        <time>2023-01-21T13:31:50.000Z</time>
      </trkpt>
      <trkpt lat="46.27231" lon="6.5737">
        <ele>1719.2</ele>
        <time>2023-01-21T13:31:51.000Z</time>
      </trkpt>
      <trkpt lat="46.27231" lon="6.5737">
        <ele>1719.2</ele>
        <time>2023-01-21T13:31:52.000Z</time>
      </trkpt>
      <trkpt lat="46.27231" lon="6.5737">
        <ele>1719.2</ele>
        <time>2023-01-21T13:31:53.000Z</time>
      </trkpt>
      <trkpt lat="46.27231" lon="6.5737">
        <ele>1719.2</ele>
        <time>2023-01-21T13:31:54.000Z</time>
      </trkpt>
      <trkpt lat="46.27231" lon="6.5737">
        <ele>1719.2</ele>
        <time>2023-01-21T13:31:55.000Z</time>
      </trkpt>
      <trkpt lat="46.27227" lon="6.57363">
        <ele>1719.7</ele>
        <time>2023-01-21T13:31:56.000Z</time>
      </trkpt>
      <trkpt lat="46.27226" lon="6.57363">
        <ele>1719</ele>
        <time>2023-01-21T13:31:57.000Z</time>
      </trkpt>
      <trkpt lat="46.27224" lon="6.57362">
        <ele>1718.1</ele>
        <time>2023-01-21T13:31:58.000Z</time>
      </trkpt>
      <trkpt lat="46.27222" lon="6.5736">
        <ele>1717.4</ele>
        <time>2023-01-21T13:31:59.000Z</time>
      </trkpt>
      <trkpt lat="46.27219" lon="6.57357">
        <ele>1716.2</ele>
        <time>2023-01-21T13:32:00.000Z</time>
      </trkpt>
      <trkpt lat="46.27217" lon="6.57354">
        <ele>1714.9</ele>
        <time>2023-01-21T13:32:01.000Z</time>
      </trkpt>
      <trkpt lat="46.27214" lon="6.57352">
        <ele>1714.5</ele>
        <time>2023-01-21T13:32:02.000Z</time>
      </trkpt>
      <trkpt lat="46.27213" lon="6.57351">
        <ele>1713.9</ele>
        <time>2023-01-21T13:32:03.000Z</time>
      </trkpt>
      <trkpt lat="46.27211" lon="6.5735">
        <ele>1712.2</ele>
        <time>2023-01-21T13:32:04.000Z</time>
      </trkpt>
      <trkpt lat="46.27209" lon="6.57348">
        <ele>1710.9</ele>
        <time>2023-01-21T13:32:05.000Z</time>
      </trkpt>
      <trkpt lat="46.27207" lon="6.57345">
        <ele>1709.7</ele>
        <time>2023-01-21T13:32:06.000Z</time>
      </trkpt>
      <trkpt lat="46.27206" lon="6.57342">
        <ele>1708.3</ele>
        <time>2023-01-21T13:32:07.000Z</time>
      </trkpt>
      <trkpt lat="46.27206" lon="6.57339">
        <ele>1707.2</ele>
        <time>2023-01-21T13:32:08.000Z</time>
      </trkpt>
      <trkpt lat="46.27205" lon="6.57336">
        <ele>1705.9</ele>
        <time>2023-01-21T13:32:09.000Z</time>
      </trkpt>
      <trkpt lat="46.27203" lon="6.57333">
        <ele>1704.2</ele>
        <time>2023-01-21T13:32:10.000Z</time>
      </trkpt>
      <trkpt lat="46.27202" lon="6.57329">
        <ele>1702.7</ele>
        <time>2023-01-21T13:32:11.000Z</time>
      </trkpt>
      <trkpt lat="46.27201" lon="6.57327">
        <ele>1701.2</ele>
        <time>2023-01-21T13:32:12.000Z</time>
      </trkpt>
      <trkpt lat="46.27201" lon="6.57325">
        <ele>1699.1</ele>
        <time>2023-01-21T13:32:13.000Z</time>
      </trkpt>
      <trkpt lat="46.27201" lon="6.57323">
        <ele>1697.6</ele>
        <time>2023-01-21T13:32:14.000Z</time>
      </trkpt>
      <trkpt lat="46.27201" lon="6.57321">
        <ele>1696.2</ele>
        <time>2023-01-21T13:32:15.000Z</time>
      </trkpt>
      <trkpt lat="46.272" lon="6.5732">
        <ele>1694.7</ele>
        <time>2023-01-21T13:32:16.000Z</time>
      </trkpt>
      <trkpt lat="46.27199" lon="6.57318">
        <ele>1693.5</ele>
        <time>2023-01-21T13:32:17.000Z</time>
      </trkpt>
      <trkpt lat="46.27198" lon="6.57317">
        <ele>1692.2</ele>
        <time>2023-01-21T13:32:18.000Z</time>
      </trkpt>
      <trkpt lat="46.27198" lon="6.57316">
        <ele>1691.2</ele>
        <time>2023-01-21T13:32:19.000Z</time>
      </trkpt>
      <trkpt lat="46.27198" lon="6.57316">
        <ele>1690.1</ele>
        <time>2023-01-21T13:32:20.000Z</time>
      </trkpt>
      <trkpt lat="46.27198" lon="6.57315">
        <ele>1690.4</ele>
        <time>2023-01-21T13:32:21.000Z</time>
      </trkpt>
      <trkpt lat="46.27197" lon="6.57314">
        <ele>1690.4</ele>
        <time>2023-01-21T13:32:22.000Z</time>
      </trkpt>
      <trkpt lat="46.27197" lon="6.57313">
        <ele>1690.4</ele>
        <time>2023-01-21T13:32:23.000Z</time>
      </trkpt>
      <trkpt lat="46.27196" lon="6.57311">
        <ele>1690.6</ele>
        <time>2023-01-21T13:32:24.000Z</time>
      </trkpt>
      <trkpt lat="46.27196" lon="6.5731">
        <ele>1690.5</ele>
        <time>2023-01-21T13:32:25.000Z</time>
      </trkpt>
      <trkpt lat="46.27196" lon="6.57309">
        <ele>1690.7</ele>
        <time>2023-01-21T13:32:26.000Z</time>
      </trkpt>
      <trkpt lat="46.27195" lon="6.57308">
        <ele>1691</ele>
        <time>2023-01-21T13:32:27.000Z</time>
      </trkpt>
      <trkpt lat="46.27195" lon="6.57306">
        <ele>1691.5</ele>
        <time>2023-01-21T13:32:28.000Z</time>
      </trkpt>
      <trkpt lat="46.27195" lon="6.57306">
        <ele>1691.5</ele>
        <time>2023-01-21T13:32:29.000Z</time>
      </trkpt>
      <trkpt lat="46.27195" lon="6.57306">
        <ele>1691.5</ele>
        <time>2023-01-21T13:32:30.000Z</time>
      </trkpt>
      <trkpt lat="46.27195" lon="6.57306">
        <ele>1691.5</ele>
        <time>2023-01-21T13:32:31.000Z</time>
      </trkpt>
      <trkpt lat="46.27195" lon="6.57306">
        <ele>1691.5</ele>
        <time>2023-01-21T13:32:32.000Z</time>
      </trkpt>
      <trkpt lat="46.27195" lon="6.57306">
        <ele>1691.5</ele>
        <time>2023-01-21T13:32:33.000Z</time>
      </trkpt>
      <trkpt lat="46.27195" lon="6.57306">
        <ele>1691.5</ele>
        <time>2023-01-21T13:32:34.000Z</time>
      </trkpt>
      <trkpt lat="46.27195" lon="6.57306">
        <ele>1691.5</ele>
        <time>2023-01-21T13:32:35.000Z</time>
      </trkpt>
      <trkpt lat="46.27195" lon="6.57306">
        <ele>1691.5</ele>
        <time>2023-01-21T13:32:36.000Z</time>
      </trkpt>
      <trkpt lat="46.27195" lon="6.57306">
        <ele>1691.5</ele>
        <time>2023-01-21T13:32:37.000Z</time>
      </trkpt>
      <trkpt lat="46.27195" lon="6.57306">
        <ele>1696.8</ele>
        <time>2023-01-21T13:32:38.000Z</time>
      </trkpt>
      <trkpt lat="46.27195" lon="6.57306">
        <ele>1696.8</ele>
        <time>2023-01-21T13:32:39.000Z</time>
      </trkpt>
      <trkpt lat="46.27195" lon="6.57306">
        <ele>1696.8</ele>
        <time>2023-01-21T13:32:40.000Z</time>
      </trkpt>
      <trkpt lat="46.27195" lon="6.57306">
        <ele>1696.8</ele>
        <time>2023-01-21T13:32:41.000Z</time>
      </trkpt>
      <trkpt lat="46.27195" lon="6.57306">
        <ele>1696.8</ele>
        <time>2023-01-21T13:32:42.000Z</time>
      </trkpt>
      <trkpt lat="46.27195" lon="6.57306">
        <ele>1696.8</ele>
        <time>2023-01-21T13:32:43.000Z</time>
      </trkpt>
      <trkpt lat="46.27195" lon="6.57306">
        <ele>1700.1</ele>
        <time>2023-01-21T13:32:44.000Z</time>
      </trkpt>
      <trkpt lat="46.27195" lon="6.57306">
        <ele>1700.1</ele>
        <time>2023-01-21T13:32:45.000Z</time>
      </trkpt>
      <trkpt lat="46.27195" lon="6.57306">
        <ele>1700.1</ele>
        <time>2023-01-21T13:32:46.000Z</time>
      </trkpt>
      <trkpt lat="46.27195" lon="6.57306">
        <ele>1700.1</ele>
        <time>2023-01-21T13:32:47.000Z</time>
      </trkpt>
      <trkpt lat="46.27195" lon="6.57306">
        <ele>1700.1</ele>
        <time>2023-01-21T13:32:48.000Z</time>
      </trkpt>
      <trkpt lat="46.27195" lon="6.57306">
        <ele>1700.1</ele>
        <time>2023-01-21T13:32:49.000Z</time>
      </trkpt>
      <trkpt lat="46.27195" lon="6.57306">
        <ele>1700.1</ele>
        <time>2023-01-21T13:32:50.000Z</time>
      </trkpt>
      <trkpt lat="46.27195" lon="6.57306">
        <ele>1700.1</ele>
        <time>2023-01-21T13:32:51.000Z</time>
      </trkpt>
      <trkpt lat="46.27195" lon="6.57306">
        <ele>1700.1</ele>
        <time>2023-01-21T13:32:52.000Z</time>
      </trkpt>
      <trkpt lat="46.27195" lon="6.57306">
        <ele>1700.1</ele>
        <time>2023-01-21T13:32:53.000Z</time>
      </trkpt>
      <trkpt lat="46.27195" lon="6.57306">
        <ele>1700.1</ele>
        <time>2023-01-21T13:32:54.000Z</time>
      </trkpt>
      <trkpt lat="46.27195" lon="6.57306">
        <ele>1700.1</ele>
        <time>2023-01-21T13:32:55.000Z</time>
      </trkpt>
      <trkpt lat="46.27195" lon="6.57306">
        <ele>1700.1</ele>
        <time>2023-01-21T13:32:56.000Z</time>
      </trkpt>
      <trkpt lat="46.27195" lon="6.57306">
        <ele>1700.1</ele>
        <time>2023-01-21T13:32:57.000Z</time>
      </trkpt>
      <trkpt lat="46.27195" lon="6.57306">
        <ele>1700.1</ele>
        <time>2023-01-21T13:32:58.000Z</time>
      </trkpt>
      <trkpt lat="46.27195" lon="6.57306">
        <ele>1700.1</ele>
        <time>2023-01-21T13:32:59.000Z</time>
      </trkpt>
      <trkpt lat="46.27195" lon="6.57306">
        <ele>1700.1</ele>
        <time>2023-01-21T13:33:00.000Z</time>
      </trkpt>
      <trkpt lat="46.27195" lon="6.57306">
        <ele>1700.1</ele>
        <time>2023-01-21T13:33:01.000Z</time>
      </trkpt>
      <trkpt lat="46.27195" lon="6.57306">
        <ele>1700.1</ele>
        <time>2023-01-21T13:33:02.000Z</time>
      </trkpt>
      <trkpt lat="46.27195" lon="6.57306">
        <ele>1700.1</ele>
        <time>2023-01-21T13:33:03.000Z</time>
      </trkpt>
      <trkpt lat="46.27195" lon="6.57306">
        <ele>1700.1</ele>
        <time>2023-01-21T13:33:04.000Z</time>
      </trkpt>
      <trkpt lat="46.27195" lon="6.57306">
        <ele>1700.1</ele>
        <time>2023-01-21T13:33:05.000Z</time>
      </trkpt>
      <trkpt lat="46.27195" lon="6.57306">
        <ele>1700.1</ele>
        <time>2023-01-21T13:33:06.000Z</time>
      </trkpt>
      <trkpt lat="46.27195" lon="6.57306">
        <ele>1700.1</ele>
        <time>2023-01-21T13:33:07.000Z</time>
      </trkpt>
      <trkpt lat="46.27195" lon="6.57306">
        <ele>1700.1</ele>
        <time>2023-01-21T13:33:08.000Z</time>
      </trkpt>
      <trkpt lat="46.27191" lon="6.57294">
        <ele>1700.1</ele>
        <time>2023-01-21T13:33:09.000Z</time>
      </trkpt>
      <trkpt lat="46.2719" lon="6.5729">
        <ele>1699</ele>
        <time>2023-01-21T13:33:10.000Z</time>
      </trkpt>
      <trkpt lat="46.27189" lon="6.57284">
        <ele>1698.1</ele>
        <time>2023-01-21T13:33:11.000Z</time>
      </trkpt>
      <trkpt lat="46.27189" lon="6.57279">
        <ele>1697.3</ele>
        <time>2023-01-21T13:33:12.000Z</time>
      </trkpt>
      <trkpt lat="46.27189" lon="6.57273">
        <ele>1695.7</ele>
        <time>2023-01-21T13:33:13.000Z</time>
      </trkpt>
      <trkpt lat="46.27189" lon="6.57268">
        <ele>1694.3</ele>
        <time>2023-01-21T13:33:14.000Z</time>
      </trkpt>
      <trkpt lat="46.27186" lon="6.57264">
        <ele>1693</ele>
        <time>2023-01-21T13:33:15.000Z</time>
      </trkpt>
      <trkpt lat="46.27182" lon="6.5726">
        <ele>1691.2</ele>
        <time>2023-01-21T13:33:16.000Z</time>
      </trkpt>
      <trkpt lat="46.27181" lon="6.57254">
        <ele>1689</ele>
        <time>2023-01-21T13:33:17.000Z</time>
      </trkpt>
      <trkpt lat="46.27179" lon="6.57246">
        <ele>1686.9</ele>
        <time>2023-01-21T13:33:18.000Z</time>
      </trkpt>
      <trkpt lat="46.27177" lon="6.57241">
        <ele>1685.1</ele>
        <time>2023-01-21T13:33:19.000Z</time>
      </trkpt>
      <trkpt lat="46.27175" lon="6.57236">
        <ele>1682.2</ele>
        <time>2023-01-21T13:33:20.000Z</time>
      </trkpt>
      <trkpt lat="46.27173" lon="6.57234">
        <ele>1679.2</ele>
        <time>2023-01-21T13:33:21.000Z</time>
      </trkpt>
      <trkpt lat="46.27173" lon="6.57232">
        <ele>1676.9</ele>
        <time>2023-01-21T13:33:22.000Z</time>
      </trkpt>
      <trkpt lat="46.27173" lon="6.57231">
        <ele>1674.7</ele>
        <time>2023-01-21T13:33:23.000Z</time>
      </trkpt>
      <trkpt lat="46.27173" lon="6.57232">
        <ele>1671.9</ele>
        <time>2023-01-21T13:33:24.000Z</time>
      </trkpt>
      <trkpt lat="46.27173" lon="6.57234">
        <ele>1670.7</ele>
        <time>2023-01-21T13:33:25.000Z</time>
      </trkpt>
      <trkpt lat="46.27172" lon="6.57233">
        <ele>1669.8</ele>
        <time>2023-01-21T13:33:26.000Z</time>
      </trkpt>
      <trkpt lat="46.27172" lon="6.57233">
        <ele>1670.2</ele>
        <time>2023-01-21T13:33:27.000Z</time>
      </trkpt>
      <trkpt lat="46.27171" lon="6.57233">
        <ele>1669.7</ele>
        <time>2023-01-21T13:33:28.000Z</time>
      </trkpt>
      <trkpt lat="46.27171" lon="6.57233">
        <ele>1669.7</ele>
        <time>2023-01-21T13:33:29.000Z</time>
      </trkpt>
      <trkpt lat="46.27171" lon="6.57233">
        <ele>1669.7</ele>
        <time>2023-01-21T13:33:30.000Z</time>
      </trkpt>
      <trkpt lat="46.27171" lon="6.57233">
        <ele>1669.7</ele>
        <time>2023-01-21T13:33:31.000Z</time>
      </trkpt>
      <trkpt lat="46.27171" lon="6.57233">
        <ele>1669.7</ele>
        <time>2023-01-21T13:33:32.000Z</time>
      </trkpt>
      <trkpt lat="46.27171" lon="6.57233">
        <ele>1669.7</ele>
        <time>2023-01-21T13:33:33.000Z</time>
      </trkpt>
      <trkpt lat="46.27171" lon="6.57233">
        <ele>1669.7</ele>
        <time>2023-01-21T13:33:34.000Z</time>
      </trkpt>
      <trkpt lat="46.27171" lon="6.57233">
        <ele>1669.7</ele>
        <time>2023-01-21T13:33:35.000Z</time>
      </trkpt>
      <trkpt lat="46.27171" lon="6.57233">
        <ele>1669.7</ele>
        <time>2023-01-21T13:33:36.000Z</time>
      </trkpt>
      <trkpt lat="46.27171" lon="6.57233">
        <ele>1669.7</ele>
        <time>2023-01-21T13:33:37.000Z</time>
      </trkpt>
      <trkpt lat="46.27171" lon="6.57233">
        <ele>1669.7</ele>
        <time>2023-01-21T13:33:38.000Z</time>
      </trkpt>
      <trkpt lat="46.27171" lon="6.57233">
        <ele>1669.7</ele>
        <time>2023-01-21T13:33:39.000Z</time>
      </trkpt>
      <trkpt lat="46.27171" lon="6.57233">
        <ele>1669.7</ele>
        <time>2023-01-21T13:33:40.000Z</time>
      </trkpt>
      <trkpt lat="46.27171" lon="6.57233">
        <ele>1669.7</ele>
        <time>2023-01-21T13:33:41.000Z</time>
      </trkpt>
      <trkpt lat="46.27171" lon="6.57233">
        <ele>1669.7</ele>
        <time>2023-01-21T13:33:42.000Z</time>
      </trkpt>
      <trkpt lat="46.27171" lon="6.57233">
        <ele>1669.7</ele>
        <time>2023-01-21T13:33:43.000Z</time>
      </trkpt>
      <trkpt lat="46.27171" lon="6.57233">
        <ele>1669.7</ele>
        <time>2023-01-21T13:33:44.000Z</time>
      </trkpt>
      <trkpt lat="46.27171" lon="6.57233">
        <ele>1669.7</ele>
        <time>2023-01-21T13:33:45.000Z</time>
      </trkpt>
      <trkpt lat="46.27171" lon="6.57233">
        <ele>1669.7</ele>
        <time>2023-01-21T13:33:46.000Z</time>
      </trkpt>
      <trkpt lat="46.27171" lon="6.57233">
        <ele>1669.7</ele>
        <time>2023-01-21T13:33:47.000Z</time>
      </trkpt>
      <trkpt lat="46.27171" lon="6.57233">
        <ele>1669.7</ele>
        <time>2023-01-21T13:33:48.000Z</time>
      </trkpt>
      <trkpt lat="46.27171" lon="6.57233">
        <ele>1669.7</ele>
        <time>2023-01-21T13:33:49.000Z</time>
      </trkpt>
      <trkpt lat="46.27171" lon="6.57233">
        <ele>1669.7</ele>
        <time>2023-01-21T13:33:50.000Z</time>
      </trkpt>
      <trkpt lat="46.2717" lon="6.57224">
        <ele>1673.3</ele>
        <time>2023-01-21T13:33:51.000Z</time>
      </trkpt>
      <trkpt lat="46.2717" lon="6.57225">
        <ele>1673.4</ele>
        <time>2023-01-21T13:33:52.000Z</time>
      </trkpt>
      <trkpt lat="46.2717" lon="6.57224">
        <ele>1673.8</ele>
        <time>2023-01-21T13:33:53.000Z</time>
      </trkpt>
      <trkpt lat="46.27171" lon="6.57224">
        <ele>1674.2</ele>
        <time>2023-01-21T13:33:54.000Z</time>
      </trkpt>
      <trkpt lat="46.27171" lon="6.57223">
        <ele>1674.5</ele>
        <time>2023-01-21T13:33:55.000Z</time>
      </trkpt>
      <trkpt lat="46.27171" lon="6.57223">
        <ele>1674.5</ele>
        <time>2023-01-21T13:33:56.000Z</time>
      </trkpt>
      <trkpt lat="46.27171" lon="6.57223">
        <ele>1674.5</ele>
        <time>2023-01-21T13:33:57.000Z</time>
      </trkpt>
      <trkpt lat="46.27171" lon="6.57223">
        <ele>1674.5</ele>
        <time>2023-01-21T13:33:58.000Z</time>
      </trkpt>
      <trkpt lat="46.27171" lon="6.57223">
        <ele>1674.5</ele>
        <time>2023-01-21T13:33:59.000Z</time>
      </trkpt>
      <trkpt lat="46.27171" lon="6.57223">
        <ele>1674.5</ele>
        <time>2023-01-21T13:34:00.000Z</time>
      </trkpt>
      <trkpt lat="46.27171" lon="6.57223">
        <ele>1674.5</ele>
        <time>2023-01-21T13:34:01.000Z</time>
      </trkpt>
      <trkpt lat="46.27171" lon="6.57223">
        <ele>1674.5</ele>
        <time>2023-01-21T13:34:02.000Z</time>
      </trkpt>
      <trkpt lat="46.27171" lon="6.57223">
        <ele>1674.5</ele>
        <time>2023-01-21T13:34:03.000Z</time>
      </trkpt>
      <trkpt lat="46.27171" lon="6.57223">
        <ele>1674.5</ele>
        <time>2023-01-21T13:34:04.000Z</time>
      </trkpt>
      <trkpt lat="46.27171" lon="6.57223">
        <ele>1674.5</ele>
        <time>2023-01-21T13:34:05.000Z</time>
      </trkpt>
      <trkpt lat="46.27171" lon="6.57223">
        <ele>1674.5</ele>
        <time>2023-01-21T13:34:06.000Z</time>
      </trkpt>
      <trkpt lat="46.27171" lon="6.57223">
        <ele>1674.5</ele>
        <time>2023-01-21T13:34:07.000Z</time>
      </trkpt>
      <trkpt lat="46.27171" lon="6.57223">
        <ele>1674.5</ele>
        <time>2023-01-21T13:34:08.000Z</time>
      </trkpt>
      <trkpt lat="46.27171" lon="6.57223">
        <ele>1674.5</ele>
        <time>2023-01-21T13:34:09.000Z</time>
      </trkpt>
      <trkpt lat="46.27171" lon="6.57223">
        <ele>1674.5</ele>
        <time>2023-01-21T13:34:10.000Z</time>
      </trkpt>
      <trkpt lat="46.27171" lon="6.57223">
        <ele>1674.5</ele>
        <time>2023-01-21T13:34:11.000Z</time>
      </trkpt>
      <trkpt lat="46.27171" lon="6.57223">
        <ele>1674.5</ele>
        <time>2023-01-21T13:34:12.000Z</time>
      </trkpt>
      <trkpt lat="46.27171" lon="6.57223">
        <ele>1674.5</ele>
        <time>2023-01-21T13:34:13.000Z</time>
      </trkpt>
      <trkpt lat="46.27171" lon="6.5722">
        <ele>1673.4</ele>
        <time>2023-01-21T13:34:14.000Z</time>
      </trkpt>
      <trkpt lat="46.27171" lon="6.5722">
        <ele>1673.1</ele>
        <time>2023-01-21T13:34:15.000Z</time>
      </trkpt>
      <trkpt lat="46.27171" lon="6.5722">
        <ele>1673.2</ele>
        <time>2023-01-21T13:34:16.000Z</time>
      </trkpt>
      <trkpt lat="46.27172" lon="6.57219">
        <ele>1673.5</ele>
        <time>2023-01-21T13:34:17.000Z</time>
      </trkpt>
      <trkpt lat="46.27172" lon="6.57219">
        <ele>1673.5</ele>
        <time>2023-01-21T13:34:18.000Z</time>
      </trkpt>
      <trkpt lat="46.27172" lon="6.57219">
        <ele>1673.5</ele>
        <time>2023-01-21T13:34:19.000Z</time>
      </trkpt>
      <trkpt lat="46.27172" lon="6.57219">
        <ele>1673.5</ele>
        <time>2023-01-21T13:34:20.000Z</time>
      </trkpt>
      <trkpt lat="46.27172" lon="6.57219">
        <ele>1673.5</ele>
        <time>2023-01-21T13:34:21.000Z</time>
      </trkpt>
      <trkpt lat="46.27172" lon="6.57219">
        <ele>1673.5</ele>
        <time>2023-01-21T13:34:22.000Z</time>
      </trkpt>
      <trkpt lat="46.27172" lon="6.57219">
        <ele>1673.5</ele>
        <time>2023-01-21T13:34:23.000Z</time>
      </trkpt>
      <trkpt lat="46.27172" lon="6.57219">
        <ele>1673.5</ele>
        <time>2023-01-21T13:34:24.000Z</time>
      </trkpt>
      <trkpt lat="46.27172" lon="6.57219">
        <ele>1673.5</ele>
        <time>2023-01-21T13:34:25.000Z</time>
      </trkpt>
      <trkpt lat="46.27172" lon="6.57219">
        <ele>1673.5</ele>
        <time>2023-01-21T13:34:26.000Z</time>
      </trkpt>
      <trkpt lat="46.27172" lon="6.57219">
        <ele>1673.5</ele>
        <time>2023-01-21T13:34:27.000Z</time>
      </trkpt>
      <trkpt lat="46.27172" lon="6.57219">
        <ele>1673.5</ele>
        <time>2023-01-21T13:34:28.000Z</time>
      </trkpt>
      <trkpt lat="46.27172" lon="6.57219">
        <ele>1673.5</ele>
        <time>2023-01-21T13:34:29.000Z</time>
      </trkpt>
      <trkpt lat="46.27172" lon="6.57219">
        <ele>1676.7</ele>
        <time>2023-01-21T13:34:30.000Z</time>
      </trkpt>
      <trkpt lat="46.27172" lon="6.57221">
        <ele>1677.3</ele>
        <time>2023-01-21T13:34:31.000Z</time>
      </trkpt>
      <trkpt lat="46.27172" lon="6.57222">
        <ele>1677.7</ele>
        <time>2023-01-21T13:34:32.000Z</time>
      </trkpt>
      <trkpt lat="46.27172" lon="6.57222">
        <ele>1678.1</ele>
        <time>2023-01-21T13:34:33.000Z</time>
      </trkpt>
      <trkpt lat="46.27173" lon="6.57223">
        <ele>1678.5</ele>
        <time>2023-01-21T13:34:34.000Z</time>
      </trkpt>
      <trkpt lat="46.27172" lon="6.57223">
        <ele>1678.8</ele>
        <time>2023-01-21T13:34:35.000Z</time>
      </trkpt>
      <trkpt lat="46.27172" lon="6.57223">
        <ele>1679.1</ele>
        <time>2023-01-21T13:34:36.000Z</time>
      </trkpt>
      <trkpt lat="46.27172" lon="6.57223">
        <ele>1679.5</ele>
        <time>2023-01-21T13:34:37.000Z</time>
      </trkpt>
      <trkpt lat="46.27173" lon="6.57223">
        <ele>1679.4</ele>
        <time>2023-01-21T13:34:38.000Z</time>
      </trkpt>
      <trkpt lat="46.27173" lon="6.57223">
        <ele>1679.6</ele>
        <time>2023-01-21T13:34:39.000Z</time>
      </trkpt>
      <trkpt lat="46.27173" lon="6.57223">
        <ele>1679.7</ele>
        <time>2023-01-21T13:34:40.000Z</time>
      </trkpt>
      <trkpt lat="46.27174" lon="6.57222">
        <ele>1679</ele>
        <time>2023-01-21T13:34:41.000Z</time>
      </trkpt>
      <trkpt lat="46.27174" lon="6.57222">
        <ele>1679.2</ele>
        <time>2023-01-21T13:34:42.000Z</time>
      </trkpt>
      <trkpt lat="46.27174" lon="6.57221">
        <ele>1679.2</ele>
        <time>2023-01-21T13:34:43.000Z</time>
      </trkpt>
      <trkpt lat="46.27174" lon="6.5722">
        <ele>1679.5</ele>
        <time>2023-01-21T13:34:44.000Z</time>
      </trkpt>
      <trkpt lat="46.27174" lon="6.57221">
        <ele>1679.6</ele>
        <time>2023-01-21T13:34:45.000Z</time>
      </trkpt>
      <trkpt lat="46.27174" lon="6.57221">
        <ele>1680</ele>
        <time>2023-01-21T13:34:46.000Z</time>
      </trkpt>
      <trkpt lat="46.27174" lon="6.57221">
        <ele>1680.6</ele>
        <time>2023-01-21T13:34:47.000Z</time>
      </trkpt>
      <trkpt lat="46.27174" lon="6.5722">
        <ele>1681.2</ele>
        <time>2023-01-21T13:34:48.000Z</time>
      </trkpt>
      <trkpt lat="46.27174" lon="6.5722">
        <ele>1681.3</ele>
        <time>2023-01-21T13:34:49.000Z</time>
      </trkpt>
      <trkpt lat="46.27174" lon="6.57219">
        <ele>1681.1</ele>
        <time>2023-01-21T13:34:50.000Z</time>
      </trkpt>
      <trkpt lat="46.27174" lon="6.57219">
        <ele>1681.3</ele>
        <time>2023-01-21T13:34:51.000Z</time>
      </trkpt>
      <trkpt lat="46.27174" lon="6.57219">
        <ele>1681.5</ele>
        <time>2023-01-21T13:34:52.000Z</time>
      </trkpt>
      <trkpt lat="46.27174" lon="6.57219">
        <ele>1681.8</ele>
        <time>2023-01-21T13:34:53.000Z</time>
      </trkpt>
      <trkpt lat="46.27174" lon="6.57218">
        <ele>1682</ele>
        <time>2023-01-21T13:34:54.000Z</time>
      </trkpt>
      <trkpt lat="46.27173" lon="6.57218">
        <ele>1682.3</ele>
        <time>2023-01-21T13:34:55.000Z</time>
      </trkpt>
      <trkpt lat="46.27173" lon="6.57218">
        <ele>1682.1</ele>
        <time>2023-01-21T13:34:56.000Z</time>
      </trkpt>
      <trkpt lat="46.27173" lon="6.57218">
        <ele>1681.7</ele>
        <time>2023-01-21T13:34:57.000Z</time>
      </trkpt>
      <trkpt lat="46.27172" lon="6.57218">
        <ele>1682</ele>
        <time>2023-01-21T13:34:58.000Z</time>
      </trkpt>
      <trkpt lat="46.27172" lon="6.57218">
        <ele>1682</ele>
        <time>2023-01-21T13:34:59.000Z</time>
      </trkpt>
      <trkpt lat="46.27172" lon="6.57218">
        <ele>1682</ele>
        <time>2023-01-21T13:35:00.000Z</time>
      </trkpt>
      <trkpt lat="46.27172" lon="6.57218">
        <ele>1682</ele>
        <time>2023-01-21T13:35:01.000Z</time>
      </trkpt>
      <trkpt lat="46.27172" lon="6.57218">
        <ele>1682</ele>
        <time>2023-01-21T13:35:02.000Z</time>
      </trkpt>
      <trkpt lat="46.27172" lon="6.57218">
        <ele>1682</ele>
        <time>2023-01-21T13:35:03.000Z</time>
      </trkpt>
      <trkpt lat="46.27172" lon="6.57218">
        <ele>1682</ele>
        <time>2023-01-21T13:35:04.000Z</time>
      </trkpt>
      <trkpt lat="46.27172" lon="6.57218">
        <ele>1682</ele>
        <time>2023-01-21T13:35:05.000Z</time>
      </trkpt>
      <trkpt lat="46.27171" lon="6.57219">
        <ele>1680</ele>
        <time>2023-01-21T13:35:06.000Z</time>
      </trkpt>
      <trkpt lat="46.27171" lon="6.57219">
        <ele>1679.9</ele>
        <time>2023-01-21T13:35:07.000Z</time>
      </trkpt>
      <trkpt lat="46.27171" lon="6.57219">
        <ele>1679.8</ele>
        <time>2023-01-21T13:35:08.000Z</time>
      </trkpt>
      <trkpt lat="46.27171" lon="6.5722">
        <ele>1679.9</ele>
        <time>2023-01-21T13:35:09.000Z</time>
      </trkpt>
      <trkpt lat="46.27171" lon="6.5722">
        <ele>1679.9</ele>
        <time>2023-01-21T13:35:10.000Z</time>
      </trkpt>
      <trkpt lat="46.27171" lon="6.5722">
        <ele>1679.9</ele>
        <time>2023-01-21T13:35:11.000Z</time>
      </trkpt>
      <trkpt lat="46.27171" lon="6.5722">
        <ele>1679.9</ele>
        <time>2023-01-21T13:35:12.000Z</time>
      </trkpt>
      <trkpt lat="46.27171" lon="6.5722">
        <ele>1679.9</ele>
        <time>2023-01-21T13:35:13.000Z</time>
      </trkpt>
      <trkpt lat="46.27171" lon="6.5722">
        <ele>1679.9</ele>
        <time>2023-01-21T13:35:14.000Z</time>
      </trkpt>
      <trkpt lat="46.27171" lon="6.5722">
        <ele>1679.9</ele>
        <time>2023-01-21T13:35:15.000Z</time>
      </trkpt>
      <trkpt lat="46.27171" lon="6.5722">
        <ele>1679.9</ele>
        <time>2023-01-21T13:35:16.000Z</time>
      </trkpt>
      <trkpt lat="46.27171" lon="6.5722">
        <ele>1679.9</ele>
        <time>2023-01-21T13:35:17.000Z</time>
      </trkpt>
      <trkpt lat="46.27171" lon="6.5722">
        <ele>1679.9</ele>
        <time>2023-01-21T13:35:18.000Z</time>
      </trkpt>
      <trkpt lat="46.27171" lon="6.5722">
        <ele>1679.9</ele>
        <time>2023-01-21T13:35:19.000Z</time>
      </trkpt>
      <trkpt lat="46.27171" lon="6.5722">
        <ele>1679.9</ele>
        <time>2023-01-21T13:35:20.000Z</time>
      </trkpt>
      <trkpt lat="46.27171" lon="6.5722">
        <ele>1679.9</ele>
        <time>2023-01-21T13:35:21.000Z</time>
      </trkpt>
      <trkpt lat="46.27171" lon="6.5722">
        <ele>1679.9</ele>
        <time>2023-01-21T13:35:22.000Z</time>
      </trkpt>
      <trkpt lat="46.27171" lon="6.5722">
        <ele>1679.9</ele>
        <time>2023-01-21T13:35:23.000Z</time>
      </trkpt>
      <trkpt lat="46.27171" lon="6.5722">
        <ele>1679.9</ele>
        <time>2023-01-21T13:35:24.000Z</time>
      </trkpt>
      <trkpt lat="46.27171" lon="6.5722">
        <ele>1679.9</ele>
        <time>2023-01-21T13:35:25.000Z</time>
      </trkpt>
      <trkpt lat="46.27171" lon="6.5722">
        <ele>1679.9</ele>
        <time>2023-01-21T13:35:26.000Z</time>
      </trkpt>
      <trkpt lat="46.27171" lon="6.5722">
        <ele>1679.9</ele>
        <time>2023-01-21T13:35:27.000Z</time>
      </trkpt>
      <trkpt lat="46.27171" lon="6.5722">
        <ele>1679.9</ele>
        <time>2023-01-21T13:35:28.000Z</time>
      </trkpt>
      <trkpt lat="46.27171" lon="6.5722">
        <ele>1679.9</ele>
        <time>2023-01-21T13:35:29.000Z</time>
      </trkpt>
      <trkpt lat="46.27171" lon="6.5722">
        <ele>1679.9</ele>
        <time>2023-01-21T13:35:30.000Z</time>
      </trkpt>
      <trkpt lat="46.27171" lon="6.5722">
        <ele>1679.9</ele>
        <time>2023-01-21T13:35:31.000Z</time>
      </trkpt>
      <trkpt lat="46.27171" lon="6.5722">
        <ele>1679.9</ele>
        <time>2023-01-21T13:35:32.000Z</time>
      </trkpt>
      <trkpt lat="46.27171" lon="6.5722">
        <ele>1679.9</ele>
        <time>2023-01-21T13:35:33.000Z</time>
      </trkpt>
      <trkpt lat="46.27171" lon="6.5722">
        <ele>1679.9</ele>
        <time>2023-01-21T13:35:34.000Z</time>
      </trkpt>
      <trkpt lat="46.27171" lon="6.5722">
        <ele>1679.9</ele>
        <time>2023-01-21T13:35:35.000Z</time>
      </trkpt>
      <trkpt lat="46.27171" lon="6.5722">
        <ele>1679.9</ele>
        <time>2023-01-21T13:35:36.000Z</time>
      </trkpt>
      <trkpt lat="46.27171" lon="6.5722">
        <ele>1679.9</ele>
        <time>2023-01-21T13:35:37.000Z</time>
      </trkpt>
      <trkpt lat="46.27171" lon="6.5722">
        <ele>1679.9</ele>
        <time>2023-01-21T13:35:38.000Z</time>
      </trkpt>
      <trkpt lat="46.27171" lon="6.5722">
        <ele>1679.9</ele>
        <time>2023-01-21T13:35:39.000Z</time>
      </trkpt>
      <trkpt lat="46.27171" lon="6.5722">
        <ele>1679.9</ele>
        <time>2023-01-21T13:35:40.000Z</time>
      </trkpt>
      <trkpt lat="46.27171" lon="6.57222">
        <ele>1677</ele>
        <time>2023-01-21T13:35:41.000Z</time>
      </trkpt>
      <trkpt lat="46.27172" lon="6.57221">
        <ele>1676.8</ele>
        <time>2023-01-21T13:35:42.000Z</time>
      </trkpt>
      <trkpt lat="46.27173" lon="6.5722">
        <ele>1676.7</ele>
        <time>2023-01-21T13:35:43.000Z</time>
      </trkpt>
      <trkpt lat="46.27172" lon="6.57218">
        <ele>1676.1</ele>
        <time>2023-01-21T13:35:44.000Z</time>
      </trkpt>
      <trkpt lat="46.27172" lon="6.57214">
        <ele>1675.7</ele>
        <time>2023-01-21T13:35:45.000Z</time>
      </trkpt>
      <trkpt lat="46.27171" lon="6.57208">
        <ele>1674.9</ele>
        <time>2023-01-21T13:35:46.000Z</time>
      </trkpt>
      <trkpt lat="46.27173" lon="6.57203">
        <ele>1674</ele>
        <time>2023-01-21T13:35:47.000Z</time>
      </trkpt>
      <trkpt lat="46.27171" lon="6.57198">
        <ele>1673.4</ele>
        <time>2023-01-21T13:35:48.000Z</time>
      </trkpt>
      <trkpt lat="46.27171" lon="6.57195">
        <ele>1672.8</ele>
        <time>2023-01-21T13:35:49.000Z</time>
      </trkpt>
      <trkpt lat="46.27172" lon="6.57192">
        <ele>1671.8</ele>
        <time>2023-01-21T13:35:50.000Z</time>
      </trkpt>
      <trkpt lat="46.27174" lon="6.57189">
        <ele>1670.6</ele>
        <time>2023-01-21T13:35:51.000Z</time>
      </trkpt>
      <trkpt lat="46.27176" lon="6.57185">
        <ele>1669.4</ele>
        <time>2023-01-21T13:35:52.000Z</time>
      </trkpt>
      <trkpt lat="46.27177" lon="6.57183">
        <ele>1668.2</ele>
        <time>2023-01-21T13:35:53.000Z</time>
      </trkpt>
      <trkpt lat="46.27177" lon="6.5718">
        <ele>1667.2</ele>
        <time>2023-01-21T13:35:54.000Z</time>
      </trkpt>
      <trkpt lat="46.27177" lon="6.57178">
        <ele>1666.2</ele>
        <time>2023-01-21T13:35:55.000Z</time>
      </trkpt>
      <trkpt lat="46.27173" lon="6.57176">
        <ele>1662.9</ele>
        <time>2023-01-21T13:35:56.000Z</time>
      </trkpt>
      <trkpt lat="46.2717" lon="6.57177">
        <ele>1658.5</ele>
        <time>2023-01-21T13:35:57.000Z</time>
      </trkpt>
      <trkpt lat="46.27168" lon="6.57176">
        <ele>1655.3</ele>
        <time>2023-01-21T13:35:58.000Z</time>
      </trkpt>
      <trkpt lat="46.27167" lon="6.57174">
        <ele>1653.3</ele>
        <time>2023-01-21T13:35:59.000Z</time>
      </trkpt>
      <trkpt lat="46.27165" lon="6.57172">
        <ele>1651</ele>
        <time>2023-01-21T13:36:00.000Z</time>
      </trkpt>
      <trkpt lat="46.27164" lon="6.5717">
        <ele>1649.7</ele>
        <time>2023-01-21T13:36:01.000Z</time>
      </trkpt>
      <trkpt lat="46.27162" lon="6.57168">
        <ele>1647.8</ele>
        <time>2023-01-21T13:36:02.000Z</time>
      </trkpt>
      <trkpt lat="46.27161" lon="6.57166">
        <ele>1645.2</ele>
        <time>2023-01-21T13:36:03.000Z</time>
      </trkpt>
      <trkpt lat="46.27159" lon="6.57163">
        <ele>1642.9</ele>
        <time>2023-01-21T13:36:04.000Z</time>
      </trkpt>
      <trkpt lat="46.27159" lon="6.57163">
        <ele>1640</ele>
        <time>2023-01-21T13:36:05.000Z</time>
      </trkpt>
      <trkpt lat="46.27159" lon="6.57162">
        <ele>1638.1</ele>
        <time>2023-01-21T13:36:06.000Z</time>
      </trkpt>
      <trkpt lat="46.27159" lon="6.57163">
        <ele>1637</ele>
        <time>2023-01-21T13:36:07.000Z</time>
      </trkpt>
      <trkpt lat="46.27159" lon="6.57162">
        <ele>1636</ele>
        <time>2023-01-21T13:36:08.000Z</time>
      </trkpt>
      <trkpt lat="46.27159" lon="6.57161">
        <ele>1636.2</ele>
        <time>2023-01-21T13:36:09.000Z</time>
      </trkpt>
      <trkpt lat="46.27158" lon="6.57161">
        <ele>1636.8</ele>
        <time>2023-01-21T13:36:10.000Z</time>
      </trkpt>
      <trkpt lat="46.27157" lon="6.57161">
        <ele>1637.2</ele>
        <time>2023-01-21T13:36:11.000Z</time>
      </trkpt>
      <trkpt lat="46.27156" lon="6.5716">
        <ele>1638.2</ele>
        <time>2023-01-21T13:36:12.000Z</time>
      </trkpt>
      <trkpt lat="46.27156" lon="6.57161">
        <ele>1638.5</ele>
        <time>2023-01-21T13:36:13.000Z</time>
      </trkpt>
      <trkpt lat="46.27156" lon="6.57161">
        <ele>1639</ele>
        <time>2023-01-21T13:36:14.000Z</time>
      </trkpt>
      <trkpt lat="46.27156" lon="6.5716">
        <ele>1639.6</ele>
        <time>2023-01-21T13:36:15.000Z</time>
      </trkpt>
      <trkpt lat="46.27156" lon="6.5716">
        <ele>1640.1</ele>
        <time>2023-01-21T13:36:16.000Z</time>
      </trkpt>
      <trkpt lat="46.27156" lon="6.5716">
        <ele>1640.1</ele>
        <time>2023-01-21T13:36:17.000Z</time>
      </trkpt>
      <trkpt lat="46.27156" lon="6.5716">
        <ele>1640.1</ele>
        <time>2023-01-21T13:36:18.000Z</time>
      </trkpt>
      <trkpt lat="46.27156" lon="6.5716">
        <ele>1640.1</ele>
        <time>2023-01-21T13:36:19.000Z</time>
      </trkpt>
      <trkpt lat="46.27156" lon="6.5716">
        <ele>1640.1</ele>
        <time>2023-01-21T13:36:20.000Z</time>
      </trkpt>
      <trkpt lat="46.27156" lon="6.5716">
        <ele>1643.5</ele>
        <time>2023-01-21T13:36:21.000Z</time>
      </trkpt>
      <trkpt lat="46.27156" lon="6.5716">
        <ele>1643.5</ele>
        <time>2023-01-21T13:36:22.000Z</time>
      </trkpt>
      <trkpt lat="46.27156" lon="6.5716">
        <ele>1643.5</ele>
        <time>2023-01-21T13:36:23.000Z</time>
      </trkpt>
      <trkpt lat="46.27156" lon="6.5716">
        <ele>1643.5</ele>
        <time>2023-01-21T13:36:24.000Z</time>
      </trkpt>
      <trkpt lat="46.27156" lon="6.5716">
        <ele>1643.5</ele>
        <time>2023-01-21T13:36:25.000Z</time>
      </trkpt>
      <trkpt lat="46.27156" lon="6.5716">
        <ele>1643.5</ele>
        <time>2023-01-21T13:36:26.000Z</time>
      </trkpt>
      <trkpt lat="46.27156" lon="6.5716">
        <ele>1646.8</ele>
        <time>2023-01-21T13:36:27.000Z</time>
      </trkpt>
      <trkpt lat="46.27156" lon="6.5716">
        <ele>1646.8</ele>
        <time>2023-01-21T13:36:28.000Z</time>
      </trkpt>
      <trkpt lat="46.27156" lon="6.5716">
        <ele>1646.8</ele>
        <time>2023-01-21T13:36:29.000Z</time>
      </trkpt>
      <trkpt lat="46.27156" lon="6.5716">
        <ele>1646.8</ele>
        <time>2023-01-21T13:36:30.000Z</time>
      </trkpt>
      <trkpt lat="46.27156" lon="6.5716">
        <ele>1646.8</ele>
        <time>2023-01-21T13:36:31.000Z</time>
      </trkpt>
      <trkpt lat="46.27156" lon="6.5716">
        <ele>1646.8</ele>
        <time>2023-01-21T13:36:32.000Z</time>
      </trkpt>
      <trkpt lat="46.27156" lon="6.5716">
        <ele>1646.8</ele>
        <time>2023-01-21T13:36:33.000Z</time>
      </trkpt>
      <trkpt lat="46.27156" lon="6.5716">
        <ele>1646.8</ele>
        <time>2023-01-21T13:36:34.000Z</time>
      </trkpt>
      <trkpt lat="46.27162" lon="6.57151">
        <ele>1649.3</ele>
        <time>2023-01-21T13:36:35.000Z</time>
      </trkpt>
      <trkpt lat="46.27162" lon="6.57151">
        <ele>1649.2</ele>
        <time>2023-01-21T13:36:36.000Z</time>
      </trkpt>
      <trkpt lat="46.27161" lon="6.57151">
        <ele>1649</ele>
        <time>2023-01-21T13:36:37.000Z</time>
      </trkpt>
      <trkpt lat="46.2716" lon="6.57151">
        <ele>1648.9</ele>
        <time>2023-01-21T13:36:38.000Z</time>
      </trkpt>
      <trkpt lat="46.2716" lon="6.57151">
        <ele>1649.1</ele>
        <time>2023-01-21T13:36:39.000Z</time>
      </trkpt>
      <trkpt lat="46.27159" lon="6.5715">
        <ele>1649.4</ele>
        <time>2023-01-21T13:36:40.000Z</time>
      </trkpt>
      <trkpt lat="46.27158" lon="6.5715">
        <ele>1649.4</ele>
        <time>2023-01-21T13:36:41.000Z</time>
      </trkpt>
      <trkpt lat="46.27158" lon="6.5715">
        <ele>1649.4</ele>
        <time>2023-01-21T13:36:42.000Z</time>
      </trkpt>
      <trkpt lat="46.27157" lon="6.5715">
        <ele>1649.5</ele>
        <time>2023-01-21T13:36:43.000Z</time>
      </trkpt>
      <trkpt lat="46.27157" lon="6.5715">
        <ele>1649.8</ele>
        <time>2023-01-21T13:36:44.000Z</time>
      </trkpt>
      <trkpt lat="46.27156" lon="6.5715">
        <ele>1650.1</ele>
        <time>2023-01-21T13:36:45.000Z</time>
      </trkpt>
      <trkpt lat="46.27156" lon="6.5715">
        <ele>1650.3</ele>
        <time>2023-01-21T13:36:46.000Z</time>
      </trkpt>
      <trkpt lat="46.27156" lon="6.5715">
        <ele>1650.4</ele>
        <time>2023-01-21T13:36:47.000Z</time>
      </trkpt>
      <trkpt lat="46.27157" lon="6.5715">
        <ele>1650.5</ele>
        <time>2023-01-21T13:36:48.000Z</time>
      </trkpt>
      <trkpt lat="46.27156" lon="6.5715">
        <ele>1650.4</ele>
        <time>2023-01-21T13:36:49.000Z</time>
      </trkpt>
      <trkpt lat="46.27156" lon="6.5715">
        <ele>1650.7</ele>
        <time>2023-01-21T13:36:50.000Z</time>
      </trkpt>
      <trkpt lat="46.27156" lon="6.5715">
        <ele>1651.2</ele>
        <time>2023-01-21T13:36:51.000Z</time>
      </trkpt>
      <trkpt lat="46.27156" lon="6.5715">
        <ele>1651.7</ele>
        <time>2023-01-21T13:36:52.000Z</time>
      </trkpt>
      <trkpt lat="46.27157" lon="6.57149">
        <ele>1652.2</ele>
        <time>2023-01-21T13:36:53.000Z</time>
      </trkpt>
      <trkpt lat="46.27157" lon="6.57149">
        <ele>1652.6</ele>
        <time>2023-01-21T13:36:54.000Z</time>
      </trkpt>
      <trkpt lat="46.27159" lon="6.57148">
        <ele>1652.5</ele>
        <time>2023-01-21T13:36:55.000Z</time>
      </trkpt>
      <trkpt lat="46.2716" lon="6.57147">
        <ele>1652.5</ele>
        <time>2023-01-21T13:36:56.000Z</time>
      </trkpt>
      <trkpt lat="46.27161" lon="6.57144">
        <ele>1652.1</ele>
        <time>2023-01-21T13:36:57.000Z</time>
      </trkpt>
      <trkpt lat="46.27161" lon="6.57142">
        <ele>1651.3</ele>
        <time>2023-01-21T13:36:58.000Z</time>
      </trkpt>
      <trkpt lat="46.27162" lon="6.57138">
        <ele>1650.6</ele>
        <time>2023-01-21T13:36:59.000Z</time>
      </trkpt>
      <trkpt lat="46.27164" lon="6.57135">
        <ele>1649.4</ele>
        <time>2023-01-21T13:37:00.000Z</time>
      </trkpt>
      <trkpt lat="46.27164" lon="6.57129">
        <ele>1647.8</ele>
        <time>2023-01-21T13:37:01.000Z</time>
      </trkpt>
      <trkpt lat="46.27165" lon="6.57125">
        <ele>1647.3</ele>
        <time>2023-01-21T13:37:02.000Z</time>
      </trkpt>
      <trkpt lat="46.27169" lon="6.57122">
        <ele>1646.4</ele>
        <time>2023-01-21T13:37:03.000Z</time>
      </trkpt>
      <trkpt lat="46.27171" lon="6.5712">
        <ele>1645.3</ele>
        <time>2023-01-21T13:37:04.000Z</time>
      </trkpt>
      <trkpt lat="46.2717" lon="6.57117">
        <ele>1643.2</ele>
        <time>2023-01-21T13:37:05.000Z</time>
      </trkpt>
      <trkpt lat="46.27169" lon="6.5711">
        <ele>1638.3</ele>
        <time>2023-01-21T13:37:06.000Z</time>
      </trkpt>
      <trkpt lat="46.27169" lon="6.57107">
        <ele>1634.1</ele>
        <time>2023-01-21T13:37:07.000Z</time>
      </trkpt>
      <trkpt lat="46.2717" lon="6.57104">
        <ele>1631.9</ele>
        <time>2023-01-21T13:37:08.000Z</time>
      </trkpt>
      <trkpt lat="46.27172" lon="6.57104">
        <ele>1626.6</ele>
        <time>2023-01-21T13:37:09.000Z</time>
      </trkpt>
      <trkpt lat="46.27176" lon="6.57102">
        <ele>1622.4</ele>
        <time>2023-01-21T13:37:10.000Z</time>
      </trkpt>
      <trkpt lat="46.27178" lon="6.571">
        <ele>1619.2</ele>
        <time>2023-01-21T13:37:11.000Z</time>
      </trkpt>
      <trkpt lat="46.27182" lon="6.57099">
        <ele>1615.8</ele>
        <time>2023-01-21T13:37:12.000Z</time>
      </trkpt>
      <trkpt lat="46.27188" lon="6.57098">
        <ele>1614.8</ele>
        <time>2023-01-21T13:37:13.000Z</time>
      </trkpt>
      <trkpt lat="46.27192" lon="6.57098">
        <ele>1611.3</ele>
        <time>2023-01-21T13:37:14.000Z</time>
      </trkpt>
      <trkpt lat="46.27199" lon="6.57096">
        <ele>1608.3</ele>
        <time>2023-01-21T13:37:15.000Z</time>
      </trkpt>
      <trkpt lat="46.27204" lon="6.57092">
        <ele>1603.6</ele>
        <time>2023-01-21T13:37:16.000Z</time>
      </trkpt>
      <trkpt lat="46.27209" lon="6.57086">
        <ele>1600.5</ele>
        <time>2023-01-21T13:37:17.000Z</time>
      </trkpt>
      <trkpt lat="46.27214" lon="6.57082">
        <ele>1596.5</ele>
        <time>2023-01-21T13:37:18.000Z</time>
      </trkpt>
      <trkpt lat="46.27221" lon="6.57075">
        <ele>1596.7</ele>
        <time>2023-01-21T13:37:19.000Z</time>
      </trkpt>
      <trkpt lat="46.27225" lon="6.57066">
        <ele>1595.6</ele>
        <time>2023-01-21T13:37:20.000Z</time>
      </trkpt>
      <trkpt lat="46.27229" lon="6.57059">
        <ele>1594.1</ele>
        <time>2023-01-21T13:37:21.000Z</time>
      </trkpt>
      <trkpt lat="46.27229" lon="6.57053">
        <ele>1592.4</ele>
        <time>2023-01-21T13:37:22.000Z</time>
      </trkpt>
      <trkpt lat="46.27227" lon="6.57046">
        <ele>1591</ele>
        <time>2023-01-21T13:37:23.000Z</time>
      </trkpt>
      <trkpt lat="46.27226" lon="6.5704">
        <ele>1589</ele>
        <time>2023-01-21T13:37:24.000Z</time>
      </trkpt>
      <trkpt lat="46.27225" lon="6.57035">
        <ele>1587.7</ele>
        <time>2023-01-21T13:37:25.000Z</time>
      </trkpt>
      <trkpt lat="46.27224" lon="6.57031">
        <ele>1586.4</ele>
        <time>2023-01-21T13:37:26.000Z</time>
      </trkpt>
      <trkpt lat="46.27224" lon="6.57029">
        <ele>1585</ele>
        <time>2023-01-21T13:37:27.000Z</time>
      </trkpt>
      <trkpt lat="46.27224" lon="6.57028">
        <ele>1583.6</ele>
        <time>2023-01-21T13:37:28.000Z</time>
      </trkpt>
      <trkpt lat="46.27223" lon="6.57029">
        <ele>1582.7</ele>
        <time>2023-01-21T13:37:29.000Z</time>
      </trkpt>
      <trkpt lat="46.27223" lon="6.57028">
        <ele>1583.7</ele>
        <time>2023-01-21T13:37:30.000Z</time>
      </trkpt>
      <trkpt lat="46.27223" lon="6.57028">
        <ele>1583.7</ele>
        <time>2023-01-21T13:37:31.000Z</time>
      </trkpt>
      <trkpt lat="46.27223" lon="6.57028">
        <ele>1583.7</ele>
        <time>2023-01-21T13:37:32.000Z</time>
      </trkpt>
      <trkpt lat="46.27223" lon="6.57028">
        <ele>1583.7</ele>
        <time>2023-01-21T13:37:33.000Z</time>
      </trkpt>
      <trkpt lat="46.27223" lon="6.57028">
        <ele>1583.7</ele>
        <time>2023-01-21T13:37:34.000Z</time>
      </trkpt>
      <trkpt lat="46.27223" lon="6.57028">
        <ele>1583.7</ele>
        <time>2023-01-21T13:37:35.000Z</time>
      </trkpt>
      <trkpt lat="46.27223" lon="6.57028">
        <ele>1583.7</ele>
        <time>2023-01-21T13:37:36.000Z</time>
      </trkpt>
      <trkpt lat="46.27223" lon="6.57028">
        <ele>1583.7</ele>
        <time>2023-01-21T13:37:37.000Z</time>
      </trkpt>
      <trkpt lat="46.27223" lon="6.57028">
        <ele>1583.7</ele>
        <time>2023-01-21T13:37:38.000Z</time>
      </trkpt>
      <trkpt lat="46.27223" lon="6.57028">
        <ele>1583.7</ele>
        <time>2023-01-21T13:37:39.000Z</time>
      </trkpt>
      <trkpt lat="46.27223" lon="6.57028">
        <ele>1583.7</ele>
        <time>2023-01-21T13:37:40.000Z</time>
      </trkpt>
      <trkpt lat="46.27223" lon="6.57028">
        <ele>1583.7</ele>
        <time>2023-01-21T13:37:41.000Z</time>
      </trkpt>
      <trkpt lat="46.27223" lon="6.57028">
        <ele>1587.2</ele>
        <time>2023-01-21T13:37:42.000Z</time>
      </trkpt>
      <trkpt lat="46.27223" lon="6.57028">
        <ele>1587.2</ele>
        <time>2023-01-21T13:37:43.000Z</time>
      </trkpt>
      <trkpt lat="46.27223" lon="6.57028">
        <ele>1587.2</ele>
        <time>2023-01-21T13:37:44.000Z</time>
      </trkpt>
      <trkpt lat="46.27223" lon="6.57028">
        <ele>1587.2</ele>
        <time>2023-01-21T13:37:45.000Z</time>
      </trkpt>
      <trkpt lat="46.27223" lon="6.57028">
        <ele>1587.2</ele>
        <time>2023-01-21T13:37:46.000Z</time>
      </trkpt>
      <trkpt lat="46.27223" lon="6.57028">
        <ele>1587.2</ele>
        <time>2023-01-21T13:37:47.000Z</time>
      </trkpt>
      <trkpt lat="46.27222" lon="6.57014">
        <ele>1589.8</ele>
        <time>2023-01-21T13:37:48.000Z</time>
      </trkpt>
      <trkpt lat="46.27221" lon="6.57013">
        <ele>1590.4</ele>
        <time>2023-01-21T13:37:49.000Z</time>
      </trkpt>
      <trkpt lat="46.27221" lon="6.57013">
        <ele>1590.9</ele>
        <time>2023-01-21T13:37:50.000Z</time>
      </trkpt>
      <trkpt lat="46.27221" lon="6.57012">
        <ele>1591.4</ele>
        <time>2023-01-21T13:37:51.000Z</time>
      </trkpt>
      <trkpt lat="46.27221" lon="6.57012">
        <ele>1591.4</ele>
        <time>2023-01-21T13:37:52.000Z</time>
      </trkpt>
      <trkpt lat="46.27221" lon="6.57012">
        <ele>1591.4</ele>
        <time>2023-01-21T13:37:53.000Z</time>
      </trkpt>
      <trkpt lat="46.27221" lon="6.57012">
        <ele>1591.4</ele>
        <time>2023-01-21T13:37:54.000Z</time>
      </trkpt>
      <trkpt lat="46.27221" lon="6.57012">
        <ele>1591.4</ele>
        <time>2023-01-21T13:37:55.000Z</time>
      </trkpt>
      <trkpt lat="46.27221" lon="6.57012">
        <ele>1591.4</ele>
        <time>2023-01-21T13:37:56.000Z</time>
      </trkpt>
      <trkpt lat="46.27221" lon="6.57012">
        <ele>1591.4</ele>
        <time>2023-01-21T13:37:57.000Z</time>
      </trkpt>
      <trkpt lat="46.27221" lon="6.57012">
        <ele>1591.4</ele>
        <time>2023-01-21T13:37:58.000Z</time>
      </trkpt>
      <trkpt lat="46.27221" lon="6.57012">
        <ele>1591.4</ele>
        <time>2023-01-21T13:37:59.000Z</time>
      </trkpt>
      <trkpt lat="46.27221" lon="6.57012">
        <ele>1594.5</ele>
        <time>2023-01-21T13:38:00.000Z</time>
      </trkpt>
      <trkpt lat="46.27221" lon="6.57012">
        <ele>1594.5</ele>
        <time>2023-01-21T13:38:01.000Z</time>
      </trkpt>
      <trkpt lat="46.27221" lon="6.57012">
        <ele>1594.5</ele>
        <time>2023-01-21T13:38:02.000Z</time>
      </trkpt>
      <trkpt lat="46.27221" lon="6.57012">
        <ele>1594.5</ele>
        <time>2023-01-21T13:38:03.000Z</time>
      </trkpt>
      <trkpt lat="46.27221" lon="6.57012">
        <ele>1594.5</ele>
        <time>2023-01-21T13:38:04.000Z</time>
      </trkpt>
      <trkpt lat="46.27221" lon="6.57012">
        <ele>1594.5</ele>
        <time>2023-01-21T13:38:05.000Z</time>
      </trkpt>
      <trkpt lat="46.27221" lon="6.57012">
        <ele>1594.5</ele>
        <time>2023-01-21T13:38:06.000Z</time>
      </trkpt>
      <trkpt lat="46.27221" lon="6.57012">
        <ele>1594.5</ele>
        <time>2023-01-21T13:38:07.000Z</time>
      </trkpt>
      <trkpt lat="46.27221" lon="6.57012">
        <ele>1594.5</ele>
        <time>2023-01-21T13:38:08.000Z</time>
      </trkpt>
      <trkpt lat="46.27221" lon="6.57012">
        <ele>1594.5</ele>
        <time>2023-01-21T13:38:09.000Z</time>
      </trkpt>
      <trkpt lat="46.27221" lon="6.57012">
        <ele>1594.5</ele>
        <time>2023-01-21T13:38:10.000Z</time>
      </trkpt>
      <trkpt lat="46.27221" lon="6.57012">
        <ele>1594.5</ele>
        <time>2023-01-21T13:38:11.000Z</time>
      </trkpt>
      <trkpt lat="46.27221" lon="6.57012">
        <ele>1594.5</ele>
        <time>2023-01-21T13:38:12.000Z</time>
      </trkpt>
      <trkpt lat="46.27221" lon="6.57012">
        <ele>1594.5</ele>
        <time>2023-01-21T13:38:13.000Z</time>
      </trkpt>
      <trkpt lat="46.27221" lon="6.57012">
        <ele>1594.5</ele>
        <time>2023-01-21T13:38:14.000Z</time>
      </trkpt>
      <trkpt lat="46.27221" lon="6.57012">
        <ele>1594.5</ele>
        <time>2023-01-21T13:38:15.000Z</time>
      </trkpt>
      <trkpt lat="46.27221" lon="6.57012">
        <ele>1594.5</ele>
        <time>2023-01-21T13:38:16.000Z</time>
      </trkpt>
      <trkpt lat="46.27221" lon="6.57012">
        <ele>1594.5</ele>
        <time>2023-01-21T13:38:17.000Z</time>
      </trkpt>
      <trkpt lat="46.27221" lon="6.57012">
        <ele>1594.5</ele>
        <time>2023-01-21T13:38:18.000Z</time>
      </trkpt>
      <trkpt lat="46.27221" lon="6.57012">
        <ele>1594.5</ele>
        <time>2023-01-21T13:38:19.000Z</time>
      </trkpt>
      <trkpt lat="46.27221" lon="6.57012">
        <ele>1594.5</ele>
        <time>2023-01-21T13:38:20.000Z</time>
      </trkpt>
      <trkpt lat="46.27221" lon="6.57012">
        <ele>1594.5</ele>
        <time>2023-01-21T13:38:21.000Z</time>
      </trkpt>
      <trkpt lat="46.27221" lon="6.57012">
        <ele>1594.5</ele>
        <time>2023-01-21T13:38:22.000Z</time>
      </trkpt>
      <trkpt lat="46.27221" lon="6.57012">
        <ele>1594.5</ele>
        <time>2023-01-21T13:38:23.000Z</time>
      </trkpt>
      <trkpt lat="46.27221" lon="6.57012">
        <ele>1594.5</ele>
        <time>2023-01-21T13:38:24.000Z</time>
      </trkpt>
      <trkpt lat="46.27221" lon="6.57012">
        <ele>1594.5</ele>
        <time>2023-01-21T13:38:25.000Z</time>
      </trkpt>
      <trkpt lat="46.27221" lon="6.57012">
        <ele>1594.5</ele>
        <time>2023-01-21T13:38:26.000Z</time>
      </trkpt>
      <trkpt lat="46.27221" lon="6.57012">
        <ele>1594.5</ele>
        <time>2023-01-21T13:38:27.000Z</time>
      </trkpt>
      <trkpt lat="46.27225" lon="6.56999">
        <ele>1594.5</ele>
        <time>2023-01-21T13:38:28.000Z</time>
      </trkpt>
      <trkpt lat="46.27227" lon="6.56995">
        <ele>1594.2</ele>
        <time>2023-01-21T13:38:29.000Z</time>
      </trkpt>
      <trkpt lat="46.27229" lon="6.5699">
        <ele>1593.9</ele>
        <time>2023-01-21T13:38:30.000Z</time>
      </trkpt>
      <trkpt lat="46.27229" lon="6.56987">
        <ele>1593.7</ele>
        <time>2023-01-21T13:38:31.000Z</time>
      </trkpt>
      <trkpt lat="46.27231" lon="6.56984">
        <ele>1593.3</ele>
        <time>2023-01-21T13:38:32.000Z</time>
      </trkpt>
      <trkpt lat="46.27232" lon="6.56982">
        <ele>1593</ele>
        <time>2023-01-21T13:38:33.000Z</time>
      </trkpt>
      <trkpt lat="46.27235" lon="6.56982">
        <ele>1592.3</ele>
        <time>2023-01-21T13:38:34.000Z</time>
      </trkpt>
      <trkpt lat="46.27239" lon="6.56982">
        <ele>1591.7</ele>
        <time>2023-01-21T13:38:35.000Z</time>
      </trkpt>
      <trkpt lat="46.27246" lon="6.56981">
        <ele>1590.9</ele>
        <time>2023-01-21T13:38:36.000Z</time>
      </trkpt>
      <trkpt lat="46.27252" lon="6.56978">
        <ele>1590.3</ele>
        <time>2023-01-21T13:38:37.000Z</time>
      </trkpt>
      <trkpt lat="46.27255" lon="6.56974">
        <ele>1589.3</ele>
        <time>2023-01-21T13:38:38.000Z</time>
      </trkpt>
      <trkpt lat="46.27258" lon="6.56968">
        <ele>1588.6</ele>
        <time>2023-01-21T13:38:39.000Z</time>
      </trkpt>
      <trkpt lat="46.27257" lon="6.56964">
        <ele>1587.8</ele>
        <time>2023-01-21T13:38:40.000Z</time>
      </trkpt>
      <trkpt lat="46.27254" lon="6.56961">
        <ele>1586.9</ele>
        <time>2023-01-21T13:38:41.000Z</time>
      </trkpt>
      <trkpt lat="46.27251" lon="6.56959">
        <ele>1586</ele>
        <time>2023-01-21T13:38:42.000Z</time>
      </trkpt>
      <trkpt lat="46.27248" lon="6.56956">
        <ele>1585.2</ele>
        <time>2023-01-21T13:38:43.000Z</time>
      </trkpt>
      <trkpt lat="46.27247" lon="6.56953">
        <ele>1584.3</ele>
        <time>2023-01-21T13:38:44.000Z</time>
      </trkpt>
      <trkpt lat="46.27245" lon="6.56951">
        <ele>1583.3</ele>
        <time>2023-01-21T13:38:45.000Z</time>
      </trkpt>
      <trkpt lat="46.27243" lon="6.56949">
        <ele>1582.5</ele>
        <time>2023-01-21T13:38:46.000Z</time>
      </trkpt>
      <trkpt lat="46.27242" lon="6.56948">
        <ele>1581.8</ele>
        <time>2023-01-21T13:38:47.000Z</time>
      </trkpt>
      <trkpt lat="46.27241" lon="6.56946">
        <ele>1581</ele>
        <time>2023-01-21T13:38:48.000Z</time>
      </trkpt>
      <trkpt lat="46.27239" lon="6.56945">
        <ele>1580.2</ele>
        <time>2023-01-21T13:38:49.000Z</time>
      </trkpt>
      <trkpt lat="46.27238" lon="6.56943">
        <ele>1579.3</ele>
        <time>2023-01-21T13:38:50.000Z</time>
      </trkpt>
      <trkpt lat="46.27237" lon="6.56942">
        <ele>1578.6</ele>
        <time>2023-01-21T13:38:51.000Z</time>
      </trkpt>
      <trkpt lat="46.27236" lon="6.56939">
        <ele>1577.9</ele>
        <time>2023-01-21T13:38:52.000Z</time>
      </trkpt>
      <trkpt lat="46.27234" lon="6.56936">
        <ele>1577.4</ele>
        <time>2023-01-21T13:38:53.000Z</time>
      </trkpt>
      <trkpt lat="46.27233" lon="6.56934">
        <ele>1576.7</ele>
        <time>2023-01-21T13:38:54.000Z</time>
      </trkpt>
      <trkpt lat="46.27232" lon="6.56932">
        <ele>1576.2</ele>
        <time>2023-01-21T13:38:55.000Z</time>
      </trkpt>
      <trkpt lat="46.27231" lon="6.5693">
        <ele>1575.6</ele>
        <time>2023-01-21T13:38:56.000Z</time>
      </trkpt>
      <trkpt lat="46.27231" lon="6.5693">
        <ele>1575.1</ele>
        <time>2023-01-21T13:38:57.000Z</time>
      </trkpt>
      <trkpt lat="46.27231" lon="6.56929">
        <ele>1574.6</ele>
        <time>2023-01-21T13:38:58.000Z</time>
      </trkpt>
      <trkpt lat="46.27231" lon="6.56929">
        <ele>1574.1</ele>
        <time>2023-01-21T13:38:59.000Z</time>
      </trkpt>
      <trkpt lat="46.27231" lon="6.56929">
        <ele>1574.1</ele>
        <time>2023-01-21T13:39:00.000Z</time>
      </trkpt>
      <trkpt lat="46.27231" lon="6.56929">
        <ele>1574.1</ele>
        <time>2023-01-21T13:39:01.000Z</time>
      </trkpt>
      <trkpt lat="46.27231" lon="6.56929">
        <ele>1574.1</ele>
        <time>2023-01-21T13:39:02.000Z</time>
      </trkpt>
      <trkpt lat="46.27231" lon="6.56929">
        <ele>1574.1</ele>
        <time>2023-01-21T13:39:03.000Z</time>
      </trkpt>
      <trkpt lat="46.27231" lon="6.56929">
        <ele>1574.1</ele>
        <time>2023-01-21T13:39:04.000Z</time>
      </trkpt>
      <trkpt lat="46.27231" lon="6.56929">
        <ele>1574.1</ele>
        <time>2023-01-21T13:39:05.000Z</time>
      </trkpt>
      <trkpt lat="46.27231" lon="6.56929">
        <ele>1574.1</ele>
        <time>2023-01-21T13:39:06.000Z</time>
      </trkpt>
      <trkpt lat="46.27231" lon="6.56929">
        <ele>1574.1</ele>
        <time>2023-01-21T13:39:07.000Z</time>
      </trkpt>
      <trkpt lat="46.27231" lon="6.56929">
        <ele>1574.1</ele>
        <time>2023-01-21T13:39:08.000Z</time>
      </trkpt>
      <trkpt lat="46.27231" lon="6.56929">
        <ele>1574.1</ele>
        <time>2023-01-21T13:39:09.000Z</time>
      </trkpt>
      <trkpt lat="46.27231" lon="6.56929">
        <ele>1574.1</ele>
        <time>2023-01-21T13:39:10.000Z</time>
      </trkpt>
      <trkpt lat="46.27231" lon="6.56929">
        <ele>1574.1</ele>
        <time>2023-01-21T13:39:11.000Z</time>
      </trkpt>
      <trkpt lat="46.27231" lon="6.56929">
        <ele>1574.1</ele>
        <time>2023-01-21T13:39:12.000Z</time>
      </trkpt>
      <trkpt lat="46.27231" lon="6.56929">
        <ele>1574.1</ele>
        <time>2023-01-21T13:39:13.000Z</time>
      </trkpt>
      <trkpt lat="46.27231" lon="6.56929">
        <ele>1574.1</ele>
        <time>2023-01-21T13:39:14.000Z</time>
      </trkpt>
      <trkpt lat="46.27231" lon="6.56929">
        <ele>1574.1</ele>
        <time>2023-01-21T13:39:15.000Z</time>
      </trkpt>
      <trkpt lat="46.27231" lon="6.56929">
        <ele>1574.1</ele>
        <time>2023-01-21T13:39:16.000Z</time>
      </trkpt>
      <trkpt lat="46.27231" lon="6.56929">
        <ele>1574.1</ele>
        <time>2023-01-21T13:39:17.000Z</time>
      </trkpt>
      <trkpt lat="46.27231" lon="6.56929">
        <ele>1574.1</ele>
        <time>2023-01-21T13:39:18.000Z</time>
      </trkpt>
      <trkpt lat="46.27231" lon="6.56929">
        <ele>1574.1</ele>
        <time>2023-01-21T13:39:19.000Z</time>
      </trkpt>
      <trkpt lat="46.27225" lon="6.56924">
        <ele>1574.1</ele>
        <time>2023-01-21T13:39:20.000Z</time>
      </trkpt>
      <trkpt lat="46.27223" lon="6.56923">
        <ele>1574</ele>
        <time>2023-01-21T13:39:21.000Z</time>
      </trkpt>
      <trkpt lat="46.27221" lon="6.5692">
        <ele>1573.8</ele>
        <time>2023-01-21T13:39:22.000Z</time>
      </trkpt>
      <trkpt lat="46.27216" lon="6.56918">
        <ele>1573.5</ele>
        <time>2023-01-21T13:39:23.000Z</time>
      </trkpt>
      <trkpt lat="46.27212" lon="6.56915">
        <ele>1573.1</ele>
        <time>2023-01-21T13:39:24.000Z</time>
      </trkpt>
      <trkpt lat="46.27209" lon="6.56913">
        <ele>1572.5</ele>
        <time>2023-01-21T13:39:25.000Z</time>
      </trkpt>
      <trkpt lat="46.27206" lon="6.5691">
        <ele>1571.9</ele>
        <time>2023-01-21T13:39:26.000Z</time>
      </trkpt>
      <trkpt lat="46.27203" lon="6.56908">
        <ele>1571.3</ele>
        <time>2023-01-21T13:39:27.000Z</time>
      </trkpt>
      <trkpt lat="46.272" lon="6.56905">
        <ele>1570.7</ele>
        <time>2023-01-21T13:39:28.000Z</time>
      </trkpt>
      <trkpt lat="46.27197" lon="6.56902">
        <ele>1570</ele>
        <time>2023-01-21T13:39:29.000Z</time>
      </trkpt>
      <trkpt lat="46.27194" lon="6.56898">
        <ele>1569.5</ele>
        <time>2023-01-21T13:39:30.000Z</time>
      </trkpt>
      <trkpt lat="46.2719" lon="6.56896">
        <ele>1568.4</ele>
        <time>2023-01-21T13:39:31.000Z</time>
      </trkpt>
      <trkpt lat="46.27186" lon="6.5689">
        <ele>1567.6</ele>
        <time>2023-01-21T13:39:32.000Z</time>
      </trkpt>
      <trkpt lat="46.27182" lon="6.56884">
        <ele>1566.9</ele>
        <time>2023-01-21T13:39:33.000Z</time>
      </trkpt>
      <trkpt lat="46.27178" lon="6.56879">
        <ele>1565.6</ele>
        <time>2023-01-21T13:39:34.000Z</time>
      </trkpt>
      <trkpt lat="46.27174" lon="6.56875">
        <ele>1564.1</ele>
        <time>2023-01-21T13:39:35.000Z</time>
      </trkpt>
      <trkpt lat="46.27169" lon="6.56868">
        <ele>1563.1</ele>
        <time>2023-01-21T13:39:36.000Z</time>
      </trkpt>
      <trkpt lat="46.27163" lon="6.56862">
        <ele>1562.2</ele>
        <time>2023-01-21T13:39:37.000Z</time>
      </trkpt>
      <trkpt lat="46.27158" lon="6.56858">
        <ele>1560.9</ele>
        <time>2023-01-21T13:39:38.000Z</time>
      </trkpt>
      <trkpt lat="46.27153" lon="6.56852">
        <ele>1559.5</ele>
        <time>2023-01-21T13:39:39.000Z</time>
      </trkpt>
      <trkpt lat="46.27148" lon="6.56847">
        <ele>1558.2</ele>
        <time>2023-01-21T13:39:40.000Z</time>
      </trkpt>
      <trkpt lat="46.27143" lon="6.56839">
        <ele>1556.7</ele>
        <time>2023-01-21T13:39:41.000Z</time>
      </trkpt>
      <trkpt lat="46.27138" lon="6.56832">
        <ele>1555.2</ele>
        <time>2023-01-21T13:39:42.000Z</time>
      </trkpt>
      <trkpt lat="46.27134" lon="6.56826">
        <ele>1553.8</ele>
        <time>2023-01-21T13:39:43.000Z</time>
      </trkpt>
      <trkpt lat="46.27129" lon="6.56819">
        <ele>1552.5</ele>
        <time>2023-01-21T13:39:44.000Z</time>
      </trkpt>
      <trkpt lat="46.27124" lon="6.56813">
        <ele>1551.1</ele>
        <time>2023-01-21T13:39:45.000Z</time>
      </trkpt>
      <trkpt lat="46.27118" lon="6.56808">
        <ele>1549.8</ele>
        <time>2023-01-21T13:39:46.000Z</time>
      </trkpt>
      <trkpt lat="46.27112" lon="6.56804">
        <ele>1548.3</ele>
        <time>2023-01-21T13:39:47.000Z</time>
      </trkpt>
      <trkpt lat="46.27107" lon="6.56799">
        <ele>1546.8</ele>
        <time>2023-01-21T13:39:48.000Z</time>
      </trkpt>
      <trkpt lat="46.27102" lon="6.56794">
        <ele>1545.3</ele>
        <time>2023-01-21T13:39:49.000Z</time>
      </trkpt>
      <trkpt lat="46.27097" lon="6.56789">
        <ele>1544</ele>
        <time>2023-01-21T13:39:50.000Z</time>
      </trkpt>
      <trkpt lat="46.27093" lon="6.56784">
        <ele>1542.6</ele>
        <time>2023-01-21T13:39:51.000Z</time>
      </trkpt>
      <trkpt lat="46.27089" lon="6.5678">
        <ele>1541</ele>
        <time>2023-01-21T13:39:52.000Z</time>
      </trkpt>
      <trkpt lat="46.27084" lon="6.56776">
        <ele>1539.4</ele>
        <time>2023-01-21T13:39:53.000Z</time>
      </trkpt>
      <trkpt lat="46.27079" lon="6.56771">
        <ele>1538</ele>
        <time>2023-01-21T13:39:54.000Z</time>
      </trkpt>
      <trkpt lat="46.27075" lon="6.56766">
        <ele>1536.6</ele>
        <time>2023-01-21T13:39:55.000Z</time>
      </trkpt>
      <trkpt lat="46.27071" lon="6.5676">
        <ele>1535.2</ele>
        <time>2023-01-21T13:39:56.000Z</time>
      </trkpt>
      <trkpt lat="46.27066" lon="6.56754">
        <ele>1533.7</ele>
        <time>2023-01-21T13:39:57.000Z</time>
      </trkpt>
      <trkpt lat="46.27063" lon="6.5675">
        <ele>1531.9</ele>
        <time>2023-01-21T13:39:58.000Z</time>
      </trkpt>
      <trkpt lat="46.27059" lon="6.56745">
        <ele>1530.3</ele>
        <time>2023-01-21T13:39:59.000Z</time>
      </trkpt>
      <trkpt lat="46.27056" lon="6.56739">
        <ele>1528.6</ele>
        <time>2023-01-21T13:40:00.000Z</time>
      </trkpt>
      <trkpt lat="46.27051" lon="6.56732">
        <ele>1526.8</ele>
        <time>2023-01-21T13:40:01.000Z</time>
      </trkpt>
      <trkpt lat="46.27048" lon="6.56728">
        <ele>1525.2</ele>
        <time>2023-01-21T13:40:02.000Z</time>
      </trkpt>
      <trkpt lat="46.27044" lon="6.56723">
        <ele>1523.5</ele>
        <time>2023-01-21T13:40:03.000Z</time>
      </trkpt>
      <trkpt lat="46.2704" lon="6.56719">
        <ele>1522.7</ele>
        <time>2023-01-21T13:40:04.000Z</time>
      </trkpt>
      <trkpt lat="46.27037" lon="6.56716">
        <ele>1521.4</ele>
        <time>2023-01-21T13:40:05.000Z</time>
      </trkpt>
      <trkpt lat="46.27033" lon="6.56713">
        <ele>1520</ele>
        <time>2023-01-21T13:40:06.000Z</time>
      </trkpt>
      <trkpt lat="46.2703" lon="6.5671">
        <ele>1518.6</ele>
        <time>2023-01-21T13:40:07.000Z</time>
      </trkpt>
      <trkpt lat="46.27026" lon="6.56707">
        <ele>1517.2</ele>
        <time>2023-01-21T13:40:08.000Z</time>
      </trkpt>
      <trkpt lat="46.27022" lon="6.56704">
        <ele>1515.5</ele>
        <time>2023-01-21T13:40:09.000Z</time>
      </trkpt>
      <trkpt lat="46.27017" lon="6.567">
        <ele>1513.8</ele>
        <time>2023-01-21T13:40:10.000Z</time>
      </trkpt>
      <trkpt lat="46.27012" lon="6.56696">
        <ele>1512.1</ele>
        <time>2023-01-21T13:40:11.000Z</time>
      </trkpt>
      <trkpt lat="46.27008" lon="6.56693">
        <ele>1510.4</ele>
        <time>2023-01-21T13:40:12.000Z</time>
      </trkpt>
      <trkpt lat="46.27005" lon="6.56688">
        <ele>1508.9</ele>
        <time>2023-01-21T13:40:13.000Z</time>
      </trkpt>
      <trkpt lat="46.27001" lon="6.56682">
        <ele>1507.7</ele>
        <time>2023-01-21T13:40:14.000Z</time>
      </trkpt>
      <trkpt lat="46.26998" lon="6.56677">
        <ele>1506.6</ele>
        <time>2023-01-21T13:40:15.000Z</time>
      </trkpt>
      <trkpt lat="46.26995" lon="6.56673">
        <ele>1505.6</ele>
        <time>2023-01-21T13:40:16.000Z</time>
      </trkpt>
      <trkpt lat="46.26993" lon="6.56671">
        <ele>1504.4</ele>
        <time>2023-01-21T13:40:17.000Z</time>
      </trkpt>
      <trkpt lat="46.2699" lon="6.56668">
        <ele>1503</ele>
        <time>2023-01-21T13:40:18.000Z</time>
      </trkpt>
      <trkpt lat="46.26986" lon="6.56664">
        <ele>1502.1</ele>
        <time>2023-01-21T13:40:19.000Z</time>
      </trkpt>
      <trkpt lat="46.26984" lon="6.56662">
        <ele>1501.1</ele>
        <time>2023-01-21T13:40:20.000Z</time>
      </trkpt>
      <trkpt lat="46.26983" lon="6.56661">
        <ele>1500.1</ele>
        <time>2023-01-21T13:40:21.000Z</time>
      </trkpt>
      <trkpt lat="46.26982" lon="6.56659">
        <ele>1500.9</ele>
        <time>2023-01-21T13:40:22.000Z</time>
      </trkpt>
      <trkpt lat="46.26982" lon="6.56657">
        <ele>1500.6</ele>
        <time>2023-01-21T13:40:23.000Z</time>
      </trkpt>
      <trkpt lat="46.26982" lon="6.56657">
        <ele>1500.6</ele>
        <time>2023-01-21T13:40:24.000Z</time>
      </trkpt>
      <trkpt lat="46.26982" lon="6.56657">
        <ele>1500.6</ele>
        <time>2023-01-21T13:40:25.000Z</time>
      </trkpt>
      <trkpt lat="46.26982" lon="6.56657">
        <ele>1500.6</ele>
        <time>2023-01-21T13:40:26.000Z</time>
      </trkpt>
      <trkpt lat="46.26982" lon="6.56657">
        <ele>1500.6</ele>
        <time>2023-01-21T13:40:27.000Z</time>
      </trkpt>
      <trkpt lat="46.26982" lon="6.56657">
        <ele>1500.6</ele>
        <time>2023-01-21T13:40:28.000Z</time>
      </trkpt>
      <trkpt lat="46.26982" lon="6.56657">
        <ele>1500.6</ele>
        <time>2023-01-21T13:40:29.000Z</time>
      </trkpt>
      <trkpt lat="46.26982" lon="6.56657">
        <ele>1500.6</ele>
        <time>2023-01-21T13:40:30.000Z</time>
      </trkpt>
      <trkpt lat="46.26982" lon="6.56657">
        <ele>1503.7</ele>
        <time>2023-01-21T13:40:31.000Z</time>
      </trkpt>
      <trkpt lat="46.26982" lon="6.56657">
        <ele>1503.7</ele>
        <time>2023-01-21T13:40:32.000Z</time>
      </trkpt>
      <trkpt lat="46.26982" lon="6.56657">
        <ele>1503.7</ele>
        <time>2023-01-21T13:40:33.000Z</time>
      </trkpt>
      <trkpt lat="46.26982" lon="6.56657">
        <ele>1503.7</ele>
        <time>2023-01-21T13:40:34.000Z</time>
      </trkpt>
      <trkpt lat="46.26982" lon="6.56657">
        <ele>1503.7</ele>
        <time>2023-01-21T13:40:35.000Z</time>
      </trkpt>
      <trkpt lat="46.26977" lon="6.56645">
        <ele>1505.5</ele>
        <time>2023-01-21T13:40:36.000Z</time>
      </trkpt>
      <trkpt lat="46.26977" lon="6.56645">
        <ele>1505.6</ele>
        <time>2023-01-21T13:40:37.000Z</time>
      </trkpt>
      <trkpt lat="46.26977" lon="6.56645">
        <ele>1505.7</ele>
        <time>2023-01-21T13:40:38.000Z</time>
      </trkpt>
      <trkpt lat="46.26977" lon="6.56645">
        <ele>1505.7</ele>
        <time>2023-01-21T13:40:39.000Z</time>
      </trkpt>
      <trkpt lat="46.26977" lon="6.56645">
        <ele>1505.7</ele>
        <time>2023-01-21T13:40:40.000Z</time>
      </trkpt>
      <trkpt lat="46.26977" lon="6.56645">
        <ele>1505.7</ele>
        <time>2023-01-21T13:40:41.000Z</time>
      </trkpt>
      <trkpt lat="46.26977" lon="6.56645">
        <ele>1505.7</ele>
        <time>2023-01-21T13:40:42.000Z</time>
      </trkpt>
      <trkpt lat="46.26977" lon="6.56645">
        <ele>1505.7</ele>
        <time>2023-01-21T13:40:43.000Z</time>
      </trkpt>
      <trkpt lat="46.26977" lon="6.56645">
        <ele>1505.7</ele>
        <time>2023-01-21T13:40:44.000Z</time>
      </trkpt>
      <trkpt lat="46.26977" lon="6.56645">
        <ele>1505.7</ele>
        <time>2023-01-21T13:40:45.000Z</time>
      </trkpt>
      <trkpt lat="46.26977" lon="6.56645">
        <ele>1505.7</ele>
        <time>2023-01-21T13:40:46.000Z</time>
      </trkpt>
      <trkpt lat="46.26977" lon="6.56645">
        <ele>1505.7</ele>
        <time>2023-01-21T13:40:47.000Z</time>
      </trkpt>
      <trkpt lat="46.26977" lon="6.56645">
        <ele>1505.7</ele>
        <time>2023-01-21T13:40:48.000Z</time>
      </trkpt>
      <trkpt lat="46.26977" lon="6.56645">
        <ele>1505.7</ele>
        <time>2023-01-21T13:40:49.000Z</time>
      </trkpt>
      <trkpt lat="46.26977" lon="6.56645">
        <ele>1505.7</ele>
        <time>2023-01-21T13:40:50.000Z</time>
      </trkpt>
      <trkpt lat="46.26977" lon="6.56645">
        <ele>1505.7</ele>
        <time>2023-01-21T13:40:51.000Z</time>
      </trkpt>
      <trkpt lat="46.26977" lon="6.56645">
        <ele>1505.7</ele>
        <time>2023-01-21T13:40:52.000Z</time>
      </trkpt>
      <trkpt lat="46.26977" lon="6.56645">
        <ele>1508.7</ele>
        <time>2023-01-21T13:40:53.000Z</time>
      </trkpt>
      <trkpt lat="46.26977" lon="6.56645">
        <ele>1508.7</ele>
        <time>2023-01-21T13:40:54.000Z</time>
      </trkpt>
      <trkpt lat="46.26977" lon="6.56645">
        <ele>1508.7</ele>
        <time>2023-01-21T13:40:55.000Z</time>
      </trkpt>
      <trkpt lat="46.26977" lon="6.56645">
        <ele>1508.7</ele>
        <time>2023-01-21T13:40:56.000Z</time>
      </trkpt>
      <trkpt lat="46.26977" lon="6.56645">
        <ele>1508.7</ele>
        <time>2023-01-21T13:40:57.000Z</time>
      </trkpt>
      <trkpt lat="46.26977" lon="6.56645">
        <ele>1508.7</ele>
        <time>2023-01-21T13:40:58.000Z</time>
      </trkpt>
      <trkpt lat="46.26977" lon="6.56645">
        <ele>1508.7</ele>
        <time>2023-01-21T13:40:59.000Z</time>
      </trkpt>
      <trkpt lat="46.26977" lon="6.56645">
        <ele>1508.7</ele>
        <time>2023-01-21T13:41:00.000Z</time>
      </trkpt>
      <trkpt lat="46.26977" lon="6.56645">
        <ele>1508.7</ele>
        <time>2023-01-21T13:41:01.000Z</time>
      </trkpt>
      <trkpt lat="46.26977" lon="6.56645">
        <ele>1508.7</ele>
        <time>2023-01-21T13:41:02.000Z</time>
      </trkpt>
      <trkpt lat="46.26977" lon="6.56645">
        <ele>1508.7</ele>
        <time>2023-01-21T13:41:03.000Z</time>
      </trkpt>
      <trkpt lat="46.26977" lon="6.56645">
        <ele>1508.7</ele>
        <time>2023-01-21T13:41:04.000Z</time>
      </trkpt>
      <trkpt lat="46.26977" lon="6.56645">
        <ele>1508.7</ele>
        <time>2023-01-21T13:41:05.000Z</time>
      </trkpt>
      <trkpt lat="46.26977" lon="6.56645">
        <ele>1508.7</ele>
        <time>2023-01-21T13:41:06.000Z</time>
      </trkpt>
      <trkpt lat="46.26977" lon="6.56645">
        <ele>1508.7</ele>
        <time>2023-01-21T13:41:07.000Z</time>
      </trkpt>
      <trkpt lat="46.26977" lon="6.56645">
        <ele>1508.7</ele>
        <time>2023-01-21T13:41:08.000Z</time>
      </trkpt>
      <trkpt lat="46.26977" lon="6.56645">
        <ele>1508.7</ele>
        <time>2023-01-21T13:41:09.000Z</time>
      </trkpt>
      <trkpt lat="46.26977" lon="6.56645">
        <ele>1508.7</ele>
        <time>2023-01-21T13:41:10.000Z</time>
      </trkpt>
      <trkpt lat="46.26977" lon="6.56645">
        <ele>1508.7</ele>
        <time>2023-01-21T13:41:11.000Z</time>
      </trkpt>
      <trkpt lat="46.26977" lon="6.56645">
        <ele>1508.7</ele>
        <time>2023-01-21T13:41:12.000Z</time>
      </trkpt>
      <trkpt lat="46.26977" lon="6.56645">
        <ele>1508.7</ele>
        <time>2023-01-21T13:41:13.000Z</time>
      </trkpt>
      <trkpt lat="46.26977" lon="6.56645">
        <ele>1508.7</ele>
        <time>2023-01-21T13:41:14.000Z</time>
      </trkpt>
      <trkpt lat="46.26977" lon="6.56645">
        <ele>1508.7</ele>
        <time>2023-01-21T13:41:15.000Z</time>
      </trkpt>
      <trkpt lat="46.26977" lon="6.56645">
        <ele>1508.7</ele>
        <time>2023-01-21T13:41:16.000Z</time>
      </trkpt>
      <trkpt lat="46.26977" lon="6.56645">
        <ele>1511.8</ele>
        <time>2023-01-21T13:41:17.000Z</time>
      </trkpt>
      <trkpt lat="46.26977" lon="6.56645">
        <ele>1511.8</ele>
        <time>2023-01-21T13:41:18.000Z</time>
      </trkpt>
      <trkpt lat="46.26977" lon="6.56645">
        <ele>1511.8</ele>
        <time>2023-01-21T13:41:19.000Z</time>
      </trkpt>
      <trkpt lat="46.26977" lon="6.56645">
        <ele>1511.8</ele>
        <time>2023-01-21T13:41:20.000Z</time>
      </trkpt>
      <trkpt lat="46.26977" lon="6.56645">
        <ele>1511.8</ele>
        <time>2023-01-21T13:41:21.000Z</time>
      </trkpt>
      <trkpt lat="46.26977" lon="6.56645">
        <ele>1511.8</ele>
        <time>2023-01-21T13:41:22.000Z</time>
      </trkpt>
      <trkpt lat="46.26977" lon="6.56645">
        <ele>1511.8</ele>
        <time>2023-01-21T13:41:23.000Z</time>
      </trkpt>
      <trkpt lat="46.26977" lon="6.56645">
        <ele>1511.8</ele>
        <time>2023-01-21T13:41:24.000Z</time>
      </trkpt>
      <trkpt lat="46.26977" lon="6.56645">
        <ele>1511.8</ele>
        <time>2023-01-21T13:41:25.000Z</time>
      </trkpt>
      <trkpt lat="46.26977" lon="6.56645">
        <ele>1511.8</ele>
        <time>2023-01-21T13:41:26.000Z</time>
      </trkpt>
      <trkpt lat="46.26977" lon="6.56645">
        <ele>1511.8</ele>
        <time>2023-01-21T13:41:27.000Z</time>
      </trkpt>
      <trkpt lat="46.26977" lon="6.56645">
        <ele>1511.8</ele>
        <time>2023-01-21T13:41:28.000Z</time>
      </trkpt>
      <trkpt lat="46.26977" lon="6.56645">
        <ele>1511.8</ele>
        <time>2023-01-21T13:41:29.000Z</time>
      </trkpt>
      <trkpt lat="46.26977" lon="6.56645">
        <ele>1511.8</ele>
        <time>2023-01-21T13:41:30.000Z</time>
      </trkpt>
      <trkpt lat="46.26977" lon="6.56645">
        <ele>1511.8</ele>
        <time>2023-01-21T13:41:31.000Z</time>
      </trkpt>
      <trkpt lat="46.26977" lon="6.56645">
        <ele>1511.8</ele>
        <time>2023-01-21T13:41:32.000Z</time>
      </trkpt>
      <trkpt lat="46.26977" lon="6.56645">
        <ele>1511.8</ele>
        <time>2023-01-21T13:41:33.000Z</time>
      </trkpt>
      <trkpt lat="46.26977" lon="6.56645">
        <ele>1511.8</ele>
        <time>2023-01-21T13:41:34.000Z</time>
      </trkpt>
      <trkpt lat="46.26977" lon="6.56645">
        <ele>1511.8</ele>
        <time>2023-01-21T13:41:35.000Z</time>
      </trkpt>
      <trkpt lat="46.26977" lon="6.56645">
        <ele>1511.8</ele>
        <time>2023-01-21T13:41:36.000Z</time>
      </trkpt>
      <trkpt lat="46.26977" lon="6.56645">
        <ele>1511.8</ele>
        <time>2023-01-21T13:41:37.000Z</time>
      </trkpt>
      <trkpt lat="46.26977" lon="6.56645">
        <ele>1511.8</ele>
        <time>2023-01-21T13:41:38.000Z</time>
      </trkpt>
      <trkpt lat="46.26977" lon="6.56645">
        <ele>1511.8</ele>
        <time>2023-01-21T13:41:39.000Z</time>
      </trkpt>
      <trkpt lat="46.26977" lon="6.56645">
        <ele>1511.8</ele>
        <time>2023-01-21T13:41:40.000Z</time>
      </trkpt>
      <trkpt lat="46.26977" lon="6.56645">
        <ele>1511.8</ele>
        <time>2023-01-21T13:41:41.000Z</time>
      </trkpt>
      <trkpt lat="46.26977" lon="6.56645">
        <ele>1511.8</ele>
        <time>2023-01-21T13:41:42.000Z</time>
      </trkpt>
      <trkpt lat="46.26977" lon="6.56645">
        <ele>1511.8</ele>
        <time>2023-01-21T13:41:43.000Z</time>
      </trkpt>
      <trkpt lat="46.26977" lon="6.56645">
        <ele>1511.8</ele>
        <time>2023-01-21T13:41:44.000Z</time>
      </trkpt>
      <trkpt lat="46.26977" lon="6.56645">
        <ele>1511.8</ele>
        <time>2023-01-21T13:41:45.000Z</time>
      </trkpt>
      <trkpt lat="46.26977" lon="6.56645">
        <ele>1514.9</ele>
        <time>2023-01-21T13:41:46.000Z</time>
      </trkpt>
      <trkpt lat="46.26977" lon="6.56645">
        <ele>1514.9</ele>
        <time>2023-01-21T13:41:47.000Z</time>
      </trkpt>
      <trkpt lat="46.26977" lon="6.56645">
        <ele>1514.9</ele>
        <time>2023-01-21T13:41:48.000Z</time>
      </trkpt>
      <trkpt lat="46.26977" lon="6.56645">
        <ele>1514.9</ele>
        <time>2023-01-21T13:41:49.000Z</time>
      </trkpt>
      <trkpt lat="46.26977" lon="6.56645">
        <ele>1514.9</ele>
        <time>2023-01-21T13:41:50.000Z</time>
      </trkpt>
      <trkpt lat="46.26977" lon="6.56645">
        <ele>1514.9</ele>
        <time>2023-01-21T13:41:51.000Z</time>
      </trkpt>
      <trkpt lat="46.26977" lon="6.56645">
        <ele>1514.9</ele>
        <time>2023-01-21T13:41:52.000Z</time>
      </trkpt>
      <trkpt lat="46.26977" lon="6.56645">
        <ele>1514.9</ele>
        <time>2023-01-21T13:41:53.000Z</time>
      </trkpt>
      <trkpt lat="46.26977" lon="6.56645">
        <ele>1514.9</ele>
        <time>2023-01-21T13:41:54.000Z</time>
      </trkpt>
      <trkpt lat="46.26977" lon="6.56645">
        <ele>1514.9</ele>
        <time>2023-01-21T13:41:55.000Z</time>
      </trkpt>
      <trkpt lat="46.26977" lon="6.56645">
        <ele>1514.9</ele>
        <time>2023-01-21T13:41:56.000Z</time>
      </trkpt>
      <trkpt lat="46.26977" lon="6.56645">
        <ele>1514.9</ele>
        <time>2023-01-21T13:41:57.000Z</time>
      </trkpt>
      <trkpt lat="46.26977" lon="6.56645">
        <ele>1514.9</ele>
        <time>2023-01-21T13:41:58.000Z</time>
      </trkpt>
      <trkpt lat="46.26977" lon="6.56645">
        <ele>1514.9</ele>
        <time>2023-01-21T13:41:59.000Z</time>
      </trkpt>
      <trkpt lat="46.26977" lon="6.56645">
        <ele>1514.9</ele>
        <time>2023-01-21T13:42:00.000Z</time>
      </trkpt>
      <trkpt lat="46.26977" lon="6.56645">
        <ele>1514.9</ele>
        <time>2023-01-21T13:42:01.000Z</time>
      </trkpt>
      <trkpt lat="46.26977" lon="6.56645">
        <ele>1514.9</ele>
        <time>2023-01-21T13:42:02.000Z</time>
      </trkpt>
      <trkpt lat="46.26977" lon="6.56645">
        <ele>1514.9</ele>
        <time>2023-01-21T13:42:03.000Z</time>
      </trkpt>
      <trkpt lat="46.26977" lon="6.56645">
        <ele>1514.9</ele>
        <time>2023-01-21T13:42:04.000Z</time>
      </trkpt>
      <trkpt lat="46.26977" lon="6.56645">
        <ele>1514.9</ele>
        <time>2023-01-21T13:42:05.000Z</time>
      </trkpt>
      <trkpt lat="46.26977" lon="6.56645">
        <ele>1514.9</ele>
        <time>2023-01-21T13:42:06.000Z</time>
      </trkpt>
      <trkpt lat="46.26977" lon="6.56645">
        <ele>1514.9</ele>
        <time>2023-01-21T13:42:07.000Z</time>
      </trkpt>
      <trkpt lat="46.26977" lon="6.56645">
        <ele>1514.9</ele>
        <time>2023-01-21T13:42:08.000Z</time>
      </trkpt>
      <trkpt lat="46.26977" lon="6.56645">
        <ele>1514.9</ele>
        <time>2023-01-21T13:42:09.000Z</time>
      </trkpt>
      <trkpt lat="46.26977" lon="6.56645">
        <ele>1514.9</ele>
        <time>2023-01-21T13:42:10.000Z</time>
      </trkpt>
      <trkpt lat="46.26977" lon="6.56645">
        <ele>1514.9</ele>
        <time>2023-01-21T13:42:11.000Z</time>
      </trkpt>
      <trkpt lat="46.26977" lon="6.56645">
        <ele>1514.9</ele>
        <time>2023-01-21T13:42:12.000Z</time>
      </trkpt>
      <trkpt lat="46.26977" lon="6.56645">
        <ele>1514.9</ele>
        <time>2023-01-21T13:42:13.000Z</time>
      </trkpt>
      <trkpt lat="46.26977" lon="6.56645">
        <ele>1514.9</ele>
        <time>2023-01-21T13:42:14.000Z</time>
      </trkpt>
      <trkpt lat="46.26977" lon="6.56645">
        <ele>1514.9</ele>
        <time>2023-01-21T13:42:15.000Z</time>
      </trkpt>
      <trkpt lat="46.26977" lon="6.56645">
        <ele>1514.9</ele>
        <time>2023-01-21T13:42:16.000Z</time>
      </trkpt>
      <trkpt lat="46.26977" lon="6.56645">
        <ele>1514.9</ele>
        <time>2023-01-21T13:42:17.000Z</time>
      </trkpt>
      <trkpt lat="46.26977" lon="6.56645">
        <ele>1514.9</ele>
        <time>2023-01-21T13:42:18.000Z</time>
      </trkpt>
      <trkpt lat="46.26977" lon="6.56645">
        <ele>1514.9</ele>
        <time>2023-01-21T13:42:19.000Z</time>
      </trkpt>
      <trkpt lat="46.26977" lon="6.56645">
        <ele>1514.9</ele>
        <time>2023-01-21T13:42:20.000Z</time>
      </trkpt>
      <trkpt lat="46.26977" lon="6.56645">
        <ele>1514.9</ele>
        <time>2023-01-21T13:42:21.000Z</time>
      </trkpt>
      <trkpt lat="46.26977" lon="6.56645">
        <ele>1514.9</ele>
        <time>2023-01-21T13:42:22.000Z</time>
      </trkpt>
      <trkpt lat="46.26977" lon="6.56645">
        <ele>1514.9</ele>
        <time>2023-01-21T13:42:23.000Z</time>
      </trkpt>
      <trkpt lat="46.26977" lon="6.56645">
        <ele>1514.9</ele>
        <time>2023-01-21T13:42:24.000Z</time>
      </trkpt>
      <trkpt lat="46.26977" lon="6.56645">
        <ele>1514.9</ele>
        <time>2023-01-21T13:42:25.000Z</time>
      </trkpt>
      <trkpt lat="46.26977" lon="6.56645">
        <ele>1514.9</ele>
        <time>2023-01-21T13:42:26.000Z</time>
      </trkpt>
      <trkpt lat="46.26977" lon="6.56645">
        <ele>1514.9</ele>
        <time>2023-01-21T13:42:27.000Z</time>
      </trkpt>
      <trkpt lat="46.26977" lon="6.56645">
        <ele>1514.9</ele>
        <time>2023-01-21T13:42:28.000Z</time>
      </trkpt>
      <trkpt lat="46.26977" lon="6.56645">
        <ele>1514.9</ele>
        <time>2023-01-21T13:42:29.000Z</time>
      </trkpt>
      <trkpt lat="46.26977" lon="6.56645">
        <ele>1514.9</ele>
        <time>2023-01-21T13:42:30.000Z</time>
      </trkpt>
      <trkpt lat="46.26977" lon="6.56645">
        <ele>1514.9</ele>
        <time>2023-01-21T13:42:31.000Z</time>
      </trkpt>
      <trkpt lat="46.26977" lon="6.56645">
        <ele>1514.9</ele>
        <time>2023-01-21T13:42:32.000Z</time>
      </trkpt>
      <trkpt lat="46.26977" lon="6.56645">
        <ele>1514.9</ele>
        <time>2023-01-21T13:42:33.000Z</time>
      </trkpt>
      <trkpt lat="46.26977" lon="6.56645">
        <ele>1514.9</ele>
        <time>2023-01-21T13:42:34.000Z</time>
      </trkpt>
      <trkpt lat="46.26977" lon="6.56645">
        <ele>1514.9</ele>
        <time>2023-01-21T13:42:35.000Z</time>
      </trkpt>
      <trkpt lat="46.26977" lon="6.56645">
        <ele>1514.9</ele>
        <time>2023-01-21T13:42:36.000Z</time>
      </trkpt>
      <trkpt lat="46.26977" lon="6.56645">
        <ele>1514.9</ele>
        <time>2023-01-21T13:42:37.000Z</time>
      </trkpt>
      <trkpt lat="46.26977" lon="6.56645">
        <ele>1514.9</ele>
        <time>2023-01-21T13:42:38.000Z</time>
      </trkpt>
      <trkpt lat="46.26977" lon="6.56645">
        <ele>1514.9</ele>
        <time>2023-01-21T13:42:39.000Z</time>
      </trkpt>
      <trkpt lat="46.26977" lon="6.56645">
        <ele>1518</ele>
        <time>2023-01-21T13:42:40.000Z</time>
      </trkpt>
      <trkpt lat="46.26977" lon="6.56645">
        <ele>1518</ele>
        <time>2023-01-21T13:42:41.000Z</time>
      </trkpt>
      <trkpt lat="46.26977" lon="6.56645">
        <ele>1518</ele>
        <time>2023-01-21T13:42:42.000Z</time>
      </trkpt>
      <trkpt lat="46.26977" lon="6.56645">
        <ele>1518</ele>
        <time>2023-01-21T13:42:43.000Z</time>
      </trkpt>
      <trkpt lat="46.26977" lon="6.56645">
        <ele>1518</ele>
        <time>2023-01-21T13:42:44.000Z</time>
      </trkpt>
      <trkpt lat="46.26977" lon="6.56645">
        <ele>1518</ele>
        <time>2023-01-21T13:42:45.000Z</time>
      </trkpt>
      <trkpt lat="46.26977" lon="6.56645">
        <ele>1518</ele>
        <time>2023-01-21T13:42:46.000Z</time>
      </trkpt>
      <trkpt lat="46.26977" lon="6.56645">
        <ele>1518</ele>
        <time>2023-01-21T13:42:47.000Z</time>
      </trkpt>
      <trkpt lat="46.26977" lon="6.56645">
        <ele>1518</ele>
        <time>2023-01-21T13:42:48.000Z</time>
      </trkpt>
      <trkpt lat="46.26977" lon="6.56645">
        <ele>1518</ele>
        <time>2023-01-21T13:42:49.000Z</time>
      </trkpt>
      <trkpt lat="46.26977" lon="6.56645">
        <ele>1518</ele>
        <time>2023-01-21T13:42:50.000Z</time>
      </trkpt>
      <trkpt lat="46.26977" lon="6.56645">
        <ele>1518</ele>
        <time>2023-01-21T13:42:51.000Z</time>
      </trkpt>
      <trkpt lat="46.26977" lon="6.56645">
        <ele>1518</ele>
        <time>2023-01-21T13:42:52.000Z</time>
      </trkpt>
      <trkpt lat="46.26977" lon="6.56645">
        <ele>1518</ele>
        <time>2023-01-21T13:42:53.000Z</time>
      </trkpt>
      <trkpt lat="46.26977" lon="6.56645">
        <ele>1518</ele>
        <time>2023-01-21T13:42:54.000Z</time>
      </trkpt>
      <trkpt lat="46.26977" lon="6.56645">
        <ele>1518</ele>
        <time>2023-01-21T13:42:55.000Z</time>
      </trkpt>
      <trkpt lat="46.26977" lon="6.56645">
        <ele>1518</ele>
        <time>2023-01-21T13:42:56.000Z</time>
      </trkpt>
      <trkpt lat="46.26977" lon="6.56645">
        <ele>1521.2</ele>
        <time>2023-01-21T13:42:57.000Z</time>
      </trkpt>
      <trkpt lat="46.26977" lon="6.56645">
        <ele>1521.2</ele>
        <time>2023-01-21T13:42:58.000Z</time>
      </trkpt>
      <trkpt lat="46.26977" lon="6.56645">
        <ele>1521.2</ele>
        <time>2023-01-21T13:42:59.000Z</time>
      </trkpt>
      <trkpt lat="46.26977" lon="6.56645">
        <ele>1521.2</ele>
        <time>2023-01-21T13:43:00.000Z</time>
      </trkpt>
      <trkpt lat="46.26977" lon="6.56645">
        <ele>1521.2</ele>
        <time>2023-01-21T13:43:01.000Z</time>
      </trkpt>
      <trkpt lat="46.26972" lon="6.56634">
        <ele>1521.6</ele>
        <time>2023-01-21T13:43:02.000Z</time>
      </trkpt>
      <trkpt lat="46.26972" lon="6.56633">
        <ele>1521.7</ele>
        <time>2023-01-21T13:43:03.000Z</time>
      </trkpt>
      <trkpt lat="46.26973" lon="6.56631">
        <ele>1521.7</ele>
        <time>2023-01-21T13:43:04.000Z</time>
      </trkpt>
      <trkpt lat="46.26973" lon="6.56631">
        <ele>1521.6</ele>
        <time>2023-01-21T13:43:05.000Z</time>
      </trkpt>
      <trkpt lat="46.26973" lon="6.56631">
        <ele>1521.6</ele>
        <time>2023-01-21T13:43:06.000Z</time>
      </trkpt>
      <trkpt lat="46.26973" lon="6.56631">
        <ele>1521.6</ele>
        <time>2023-01-21T13:43:07.000Z</time>
      </trkpt>
      <trkpt lat="46.26973" lon="6.56631">
        <ele>1521.6</ele>
        <time>2023-01-21T13:43:08.000Z</time>
      </trkpt>
      <trkpt lat="46.26973" lon="6.56631">
        <ele>1521.6</ele>
        <time>2023-01-21T13:43:09.000Z</time>
      </trkpt>
      <trkpt lat="46.26973" lon="6.56631">
        <ele>1521.6</ele>
        <time>2023-01-21T13:43:10.000Z</time>
      </trkpt>
      <trkpt lat="46.26973" lon="6.56631">
        <ele>1521.6</ele>
        <time>2023-01-21T13:43:11.000Z</time>
      </trkpt>
      <trkpt lat="46.26973" lon="6.56631">
        <ele>1521.6</ele>
        <time>2023-01-21T13:43:12.000Z</time>
      </trkpt>
      <trkpt lat="46.26973" lon="6.56631">
        <ele>1521.6</ele>
        <time>2023-01-21T13:43:13.000Z</time>
      </trkpt>
      <trkpt lat="46.26973" lon="6.56631">
        <ele>1521.6</ele>
        <time>2023-01-21T13:43:14.000Z</time>
      </trkpt>
      <trkpt lat="46.26973" lon="6.56631">
        <ele>1521.6</ele>
        <time>2023-01-21T13:43:15.000Z</time>
      </trkpt>
      <trkpt lat="46.26973" lon="6.56631">
        <ele>1521.6</ele>
        <time>2023-01-21T13:43:16.000Z</time>
      </trkpt>
      <trkpt lat="46.26973" lon="6.56631">
        <ele>1521.6</ele>
        <time>2023-01-21T13:43:17.000Z</time>
      </trkpt>
      <trkpt lat="46.26984" lon="6.56631">
        <ele>1519</ele>
        <time>2023-01-21T13:43:18.000Z</time>
      </trkpt>
      <trkpt lat="46.26988" lon="6.56631">
        <ele>1518.2</ele>
        <time>2023-01-21T13:43:19.000Z</time>
      </trkpt>
      <trkpt lat="46.26991" lon="6.56629">
        <ele>1517.6</ele>
        <time>2023-01-21T13:43:20.000Z</time>
      </trkpt>
      <trkpt lat="46.26993" lon="6.56627">
        <ele>1516.8</ele>
        <time>2023-01-21T13:43:21.000Z</time>
      </trkpt>
      <trkpt lat="46.26993" lon="6.56624">
        <ele>1516.1</ele>
        <time>2023-01-21T13:43:22.000Z</time>
      </trkpt>
      <trkpt lat="46.26992" lon="6.5662">
        <ele>1515.2</ele>
        <time>2023-01-21T13:43:23.000Z</time>
      </trkpt>
      <trkpt lat="46.26993" lon="6.56616">
        <ele>1514.1</ele>
        <time>2023-01-21T13:43:24.000Z</time>
      </trkpt>
      <trkpt lat="46.26993" lon="6.56612">
        <ele>1513</ele>
        <time>2023-01-21T13:43:25.000Z</time>
      </trkpt>
      <trkpt lat="46.26993" lon="6.56607">
        <ele>1511.6</ele>
        <time>2023-01-21T13:43:26.000Z</time>
      </trkpt>
      <trkpt lat="46.26994" lon="6.56603">
        <ele>1510.4</ele>
        <time>2023-01-21T13:43:27.000Z</time>
      </trkpt>
      <trkpt lat="46.26996" lon="6.56601">
        <ele>1508.9</ele>
        <time>2023-01-21T13:43:28.000Z</time>
      </trkpt>
      <trkpt lat="46.26997" lon="6.56598">
        <ele>1507.6</ele>
        <time>2023-01-21T13:43:29.000Z</time>
      </trkpt>
      <trkpt lat="46.26997" lon="6.56597">
        <ele>1506.4</ele>
        <time>2023-01-21T13:43:30.000Z</time>
      </trkpt>
      <trkpt lat="46.26997" lon="6.56596">
        <ele>1505.4</ele>
        <time>2023-01-21T13:43:31.000Z</time>
      </trkpt>
      <trkpt lat="46.26997" lon="6.56596">
        <ele>1505.7</ele>
        <time>2023-01-21T13:43:32.000Z</time>
      </trkpt>
      <trkpt lat="46.26997" lon="6.56596">
        <ele>1505.7</ele>
        <time>2023-01-21T13:43:33.000Z</time>
      </trkpt>
      <trkpt lat="46.26997" lon="6.56596">
        <ele>1505.7</ele>
        <time>2023-01-21T13:43:34.000Z</time>
      </trkpt>
      <trkpt lat="46.26997" lon="6.56596">
        <ele>1502.4</ele>
        <time>2023-01-21T13:43:35.000Z</time>
      </trkpt>
      <trkpt lat="46.26997" lon="6.56596">
        <ele>1502.4</ele>
        <time>2023-01-21T13:43:36.000Z</time>
      </trkpt>
      <trkpt lat="46.26997" lon="6.56596">
        <ele>1502.4</ele>
        <time>2023-01-21T13:43:37.000Z</time>
      </trkpt>
      <trkpt lat="46.26997" lon="6.56596">
        <ele>1502.4</ele>
        <time>2023-01-21T13:43:38.000Z</time>
      </trkpt>
      <trkpt lat="46.27001" lon="6.56586">
        <ele>1499.5</ele>
        <time>2023-01-21T13:43:39.000Z</time>
      </trkpt>
      <trkpt lat="46.27002" lon="6.56585">
        <ele>1498.6</ele>
        <time>2023-01-21T13:43:40.000Z</time>
      </trkpt>
      <trkpt lat="46.27003" lon="6.56583">
        <ele>1497.7</ele>
        <time>2023-01-21T13:43:41.000Z</time>
      </trkpt>
      <trkpt lat="46.27003" lon="6.56581">
        <ele>1496.8</ele>
        <time>2023-01-21T13:43:42.000Z</time>
      </trkpt>
      <trkpt lat="46.27002" lon="6.56578">
        <ele>1496</ele>
        <time>2023-01-21T13:43:43.000Z</time>
      </trkpt>
      <trkpt lat="46.27001" lon="6.56574">
        <ele>1495.2</ele>
        <time>2023-01-21T13:43:44.000Z</time>
      </trkpt>
      <trkpt lat="46.27001" lon="6.5657">
        <ele>1494.3</ele>
        <time>2023-01-21T13:43:45.000Z</time>
      </trkpt>
      <trkpt lat="46.27001" lon="6.56565">
        <ele>1493.3</ele>
        <time>2023-01-21T13:43:46.000Z</time>
      </trkpt>
      <trkpt lat="46.27003" lon="6.5656">
        <ele>1491.9</ele>
        <time>2023-01-21T13:43:47.000Z</time>
      </trkpt>
      <trkpt lat="46.27003" lon="6.56555">
        <ele>1490.4</ele>
        <time>2023-01-21T13:43:48.000Z</time>
      </trkpt>
      <trkpt lat="46.27002" lon="6.56551">
        <ele>1488.9</ele>
        <time>2023-01-21T13:43:49.000Z</time>
      </trkpt>
      <trkpt lat="46.27001" lon="6.56547">
        <ele>1487.6</ele>
        <time>2023-01-21T13:43:50.000Z</time>
      </trkpt>
      <trkpt lat="46.27001" lon="6.56545">
        <ele>1486.1</ele>
        <time>2023-01-21T13:43:51.000Z</time>
      </trkpt>
      <trkpt lat="46.27003" lon="6.56543">
        <ele>1484.6</ele>
        <time>2023-01-21T13:43:52.000Z</time>
      </trkpt>
      <trkpt lat="46.27005" lon="6.56539">
        <ele>1482.2</ele>
        <time>2023-01-21T13:43:53.000Z</time>
      </trkpt>
      <trkpt lat="46.27007" lon="6.56534">
        <ele>1479.7</ele>
        <time>2023-01-21T13:43:54.000Z</time>
      </trkpt>
      <trkpt lat="46.2701" lon="6.56528">
        <ele>1477.7</ele>
        <time>2023-01-21T13:43:55.000Z</time>
      </trkpt>
      <trkpt lat="46.2701" lon="6.56523">
        <ele>1475.7</ele>
        <time>2023-01-21T13:43:56.000Z</time>
      </trkpt>
      <trkpt lat="46.2701" lon="6.56518">
        <ele>1473.7</ele>
        <time>2023-01-21T13:43:57.000Z</time>
      </trkpt>
      <trkpt lat="46.27009" lon="6.56514">
        <ele>1471.2</ele>
        <time>2023-01-21T13:43:58.000Z</time>
      </trkpt>
      <trkpt lat="46.27009" lon="6.56509">
        <ele>1469.2</ele>
        <time>2023-01-21T13:43:59.000Z</time>
      </trkpt>
      <trkpt lat="46.27009" lon="6.56504">
        <ele>1467.3</ele>
        <time>2023-01-21T13:44:00.000Z</time>
      </trkpt>
      <trkpt lat="46.2701" lon="6.565">
        <ele>1465.6</ele>
        <time>2023-01-21T13:44:01.000Z</time>
      </trkpt>
      <trkpt lat="46.27012" lon="6.56498">
        <ele>1463.8</ele>
        <time>2023-01-21T13:44:02.000Z</time>
      </trkpt>
      <trkpt lat="46.27012" lon="6.56496">
        <ele>1463.6</ele>
        <time>2023-01-21T13:44:03.000Z</time>
      </trkpt>
      <trkpt lat="46.27013" lon="6.56494">
        <ele>1462.4</ele>
        <time>2023-01-21T13:44:04.000Z</time>
      </trkpt>
      <trkpt lat="46.27013" lon="6.56494">
        <ele>1462.4</ele>
        <time>2023-01-21T13:44:05.000Z</time>
      </trkpt>
      <trkpt lat="46.27013" lon="6.56494">
        <ele>1462.4</ele>
        <time>2023-01-21T13:44:06.000Z</time>
      </trkpt>
      <trkpt lat="46.27013" lon="6.56494">
        <ele>1462.4</ele>
        <time>2023-01-21T13:44:07.000Z</time>
      </trkpt>
      <trkpt lat="46.27013" lon="6.56494">
        <ele>1462.4</ele>
        <time>2023-01-21T13:44:08.000Z</time>
      </trkpt>
      <trkpt lat="46.27013" lon="6.56494">
        <ele>1462.4</ele>
        <time>2023-01-21T13:44:09.000Z</time>
      </trkpt>
      <trkpt lat="46.27013" lon="6.56494">
        <ele>1462.4</ele>
        <time>2023-01-21T13:44:10.000Z</time>
      </trkpt>
      <trkpt lat="46.27013" lon="6.56494">
        <ele>1462.4</ele>
        <time>2023-01-21T13:44:11.000Z</time>
      </trkpt>
      <trkpt lat="46.27013" lon="6.56494">
        <ele>1462.4</ele>
        <time>2023-01-21T13:44:12.000Z</time>
      </trkpt>
      <trkpt lat="46.27013" lon="6.56494">
        <ele>1462.4</ele>
        <time>2023-01-21T13:44:13.000Z</time>
      </trkpt>
      <trkpt lat="46.27013" lon="6.56494">
        <ele>1462.4</ele>
        <time>2023-01-21T13:44:14.000Z</time>
      </trkpt>
      <trkpt lat="46.27013" lon="6.56494">
        <ele>1462.4</ele>
        <time>2023-01-21T13:44:15.000Z</time>
      </trkpt>
      <trkpt lat="46.27013" lon="6.56494">
        <ele>1462.4</ele>
        <time>2023-01-21T13:44:16.000Z</time>
      </trkpt>
      <trkpt lat="46.27013" lon="6.56494">
        <ele>1462.4</ele>
        <time>2023-01-21T13:44:17.000Z</time>
      </trkpt>
      <trkpt lat="46.27013" lon="6.56494">
        <ele>1462.4</ele>
        <time>2023-01-21T13:44:18.000Z</time>
      </trkpt>
      <trkpt lat="46.27013" lon="6.56494">
        <ele>1462.4</ele>
        <time>2023-01-21T13:44:19.000Z</time>
      </trkpt>
      <trkpt lat="46.27013" lon="6.56494">
        <ele>1462.4</ele>
        <time>2023-01-21T13:44:20.000Z</time>
      </trkpt>
      <trkpt lat="46.27013" lon="6.56494">
        <ele>1462.4</ele>
        <time>2023-01-21T13:44:21.000Z</time>
      </trkpt>
      <trkpt lat="46.27013" lon="6.56494">
        <ele>1462.4</ele>
        <time>2023-01-21T13:44:22.000Z</time>
      </trkpt>
      <trkpt lat="46.27013" lon="6.56494">
        <ele>1462.4</ele>
        <time>2023-01-21T13:44:23.000Z</time>
      </trkpt>
      <trkpt lat="46.27007" lon="6.56484">
        <ele>1464.2</ele>
        <time>2023-01-21T13:44:24.000Z</time>
      </trkpt>
      <trkpt lat="46.27007" lon="6.56481">
        <ele>1463.7</ele>
        <time>2023-01-21T13:44:25.000Z</time>
      </trkpt>
      <trkpt lat="46.27007" lon="6.56478">
        <ele>1462.1</ele>
        <time>2023-01-21T13:44:26.000Z</time>
      </trkpt>
      <trkpt lat="46.27006" lon="6.56476">
        <ele>1460.9</ele>
        <time>2023-01-21T13:44:27.000Z</time>
      </trkpt>
      <trkpt lat="46.27006" lon="6.56476">
        <ele>1460.9</ele>
        <time>2023-01-21T13:44:28.000Z</time>
      </trkpt>
      <trkpt lat="46.27006" lon="6.56476">
        <ele>1460.9</ele>
        <time>2023-01-21T13:44:29.000Z</time>
      </trkpt>
      <trkpt lat="46.27006" lon="6.56476">
        <ele>1460.9</ele>
        <time>2023-01-21T13:44:30.000Z</time>
      </trkpt>
      <trkpt lat="46.27006" lon="6.56476">
        <ele>1460.9</ele>
        <time>2023-01-21T13:44:31.000Z</time>
      </trkpt>
      <trkpt lat="46.27006" lon="6.56476">
        <ele>1460.9</ele>
        <time>2023-01-21T13:44:32.000Z</time>
      </trkpt>
      <trkpt lat="46.27006" lon="6.56476">
        <ele>1460.9</ele>
        <time>2023-01-21T13:44:33.000Z</time>
      </trkpt>
      <trkpt lat="46.27006" lon="6.56476">
        <ele>1460.9</ele>
        <time>2023-01-21T13:44:34.000Z</time>
      </trkpt>
      <trkpt lat="46.27006" lon="6.56476">
        <ele>1460.9</ele>
        <time>2023-01-21T13:44:35.000Z</time>
      </trkpt>
      <trkpt lat="46.27006" lon="6.56476">
        <ele>1460.9</ele>
        <time>2023-01-21T13:44:36.000Z</time>
      </trkpt>
      <trkpt lat="46.27006" lon="6.56476">
        <ele>1460.9</ele>
        <time>2023-01-21T13:44:37.000Z</time>
      </trkpt>
      <trkpt lat="46.27013" lon="6.56473">
        <ele>1462.8</ele>
        <time>2023-01-21T13:44:38.000Z</time>
      </trkpt>
      <trkpt lat="46.27015" lon="6.56472">
        <ele>1462.5</ele>
        <time>2023-01-21T13:44:39.000Z</time>
      </trkpt>
      <trkpt lat="46.27017" lon="6.5647">
        <ele>1462.3</ele>
        <time>2023-01-21T13:44:40.000Z</time>
      </trkpt>
      <trkpt lat="46.27019" lon="6.56469">
        <ele>1462</ele>
        <time>2023-01-21T13:44:41.000Z</time>
      </trkpt>
      <trkpt lat="46.27019" lon="6.56468">
        <ele>1461.7</ele>
        <time>2023-01-21T13:44:42.000Z</time>
      </trkpt>
      <trkpt lat="46.2702" lon="6.56468">
        <ele>1461.7</ele>
        <time>2023-01-21T13:44:43.000Z</time>
      </trkpt>
      <trkpt lat="46.27019" lon="6.56468">
        <ele>1461.8</ele>
        <time>2023-01-21T13:44:44.000Z</time>
      </trkpt>
      <trkpt lat="46.27019" lon="6.56468">
        <ele>1462.1</ele>
        <time>2023-01-21T13:44:45.000Z</time>
      </trkpt>
      <trkpt lat="46.27018" lon="6.56468">
        <ele>1462.7</ele>
        <time>2023-01-21T13:44:46.000Z</time>
      </trkpt>
      <trkpt lat="46.27017" lon="6.56468">
        <ele>1463.3</ele>
        <time>2023-01-21T13:44:47.000Z</time>
      </trkpt>
      <trkpt lat="46.27017" lon="6.56468">
        <ele>1463.3</ele>
        <time>2023-01-21T13:44:48.000Z</time>
      </trkpt>
      <trkpt lat="46.27017" lon="6.56468">
        <ele>1463.3</ele>
        <time>2023-01-21T13:44:49.000Z</time>
      </trkpt>
      <trkpt lat="46.27017" lon="6.56468">
        <ele>1463.3</ele>
        <time>2023-01-21T13:44:50.000Z</time>
      </trkpt>
      <trkpt lat="46.27017" lon="6.56468">
        <ele>1463.3</ele>
        <time>2023-01-21T13:44:51.000Z</time>
      </trkpt>
      <trkpt lat="46.27017" lon="6.56468">
        <ele>1463.3</ele>
        <time>2023-01-21T13:44:52.000Z</time>
      </trkpt>
      <trkpt lat="46.27017" lon="6.56468">
        <ele>1463.3</ele>
        <time>2023-01-21T13:44:53.000Z</time>
      </trkpt>
      <trkpt lat="46.27017" lon="6.56468">
        <ele>1463.3</ele>
        <time>2023-01-21T13:44:54.000Z</time>
      </trkpt>
      <trkpt lat="46.27017" lon="6.56468">
        <ele>1463.3</ele>
        <time>2023-01-21T13:44:55.000Z</time>
      </trkpt>
      <trkpt lat="46.27017" lon="6.56468">
        <ele>1463.3</ele>
        <time>2023-01-21T13:44:56.000Z</time>
      </trkpt>
      <trkpt lat="46.27017" lon="6.56468">
        <ele>1463.3</ele>
        <time>2023-01-21T13:44:57.000Z</time>
      </trkpt>
      <trkpt lat="46.27017" lon="6.56468">
        <ele>1463.3</ele>
        <time>2023-01-21T13:44:58.000Z</time>
      </trkpt>
      <trkpt lat="46.27017" lon="6.56468">
        <ele>1463.3</ele>
        <time>2023-01-21T13:44:59.000Z</time>
      </trkpt>
      <trkpt lat="46.27017" lon="6.56468">
        <ele>1463.3</ele>
        <time>2023-01-21T13:45:00.000Z</time>
      </trkpt>
      <trkpt lat="46.27017" lon="6.56468">
        <ele>1463.3</ele>
        <time>2023-01-21T13:45:01.000Z</time>
      </trkpt>
      <trkpt lat="46.27017" lon="6.56468">
        <ele>1463.3</ele>
        <time>2023-01-21T13:45:02.000Z</time>
      </trkpt>
      <trkpt lat="46.27017" lon="6.56468">
        <ele>1463.3</ele>
        <time>2023-01-21T13:45:03.000Z</time>
      </trkpt>
      <trkpt lat="46.27017" lon="6.56468">
        <ele>1463.3</ele>
        <time>2023-01-21T13:45:04.000Z</time>
      </trkpt>
      <trkpt lat="46.27017" lon="6.56468">
        <ele>1463.3</ele>
        <time>2023-01-21T13:45:05.000Z</time>
      </trkpt>
      <trkpt lat="46.27017" lon="6.56468">
        <ele>1463.3</ele>
        <time>2023-01-21T13:45:06.000Z</time>
      </trkpt>
      <trkpt lat="46.27017" lon="6.56468">
        <ele>1463.3</ele>
        <time>2023-01-21T13:45:07.000Z</time>
      </trkpt>
      <trkpt lat="46.27017" lon="6.56468">
        <ele>1463.3</ele>
        <time>2023-01-21T13:45:08.000Z</time>
      </trkpt>
      <trkpt lat="46.27017" lon="6.56468">
        <ele>1463.3</ele>
        <time>2023-01-21T13:45:09.000Z</time>
      </trkpt>
      <trkpt lat="46.27017" lon="6.56468">
        <ele>1463.3</ele>
        <time>2023-01-21T13:45:10.000Z</time>
      </trkpt>
      <trkpt lat="46.27017" lon="6.56468">
        <ele>1463.3</ele>
        <time>2023-01-21T13:45:11.000Z</time>
      </trkpt>
      <trkpt lat="46.27017" lon="6.56468">
        <ele>1463.3</ele>
        <time>2023-01-21T13:45:12.000Z</time>
      </trkpt>
      <trkpt lat="46.27017" lon="6.56468">
        <ele>1463.3</ele>
        <time>2023-01-21T13:45:13.000Z</time>
      </trkpt>
      <trkpt lat="46.27017" lon="6.56468">
        <ele>1463.3</ele>
        <time>2023-01-21T13:45:14.000Z</time>
      </trkpt>
      <trkpt lat="46.27017" lon="6.56468">
        <ele>1463.3</ele>
        <time>2023-01-21T13:45:15.000Z</time>
      </trkpt>
      <trkpt lat="46.27017" lon="6.56468">
        <ele>1463.3</ele>
        <time>2023-01-21T13:45:16.000Z</time>
      </trkpt>
      <trkpt lat="46.27017" lon="6.56468">
        <ele>1463.3</ele>
        <time>2023-01-21T13:45:17.000Z</time>
      </trkpt>
      <trkpt lat="46.27017" lon="6.56468">
        <ele>1463.3</ele>
        <time>2023-01-21T13:45:18.000Z</time>
      </trkpt>
      <trkpt lat="46.27017" lon="6.56468">
        <ele>1463.3</ele>
        <time>2023-01-21T13:45:19.000Z</time>
      </trkpt>
      <trkpt lat="46.27017" lon="6.56468">
        <ele>1463.3</ele>
        <time>2023-01-21T13:45:20.000Z</time>
      </trkpt>
      <trkpt lat="46.27017" lon="6.56468">
        <ele>1463.3</ele>
        <time>2023-01-21T13:45:21.000Z</time>
      </trkpt>
      <trkpt lat="46.27017" lon="6.56468">
        <ele>1463.3</ele>
        <time>2023-01-21T13:45:22.000Z</time>
      </trkpt>
      <trkpt lat="46.2701" lon="6.56477">
        <ele>1463.6</ele>
        <time>2023-01-21T13:45:23.000Z</time>
      </trkpt>
      <trkpt lat="46.2701" lon="6.56477">
        <ele>1463.5</ele>
        <time>2023-01-21T13:45:24.000Z</time>
      </trkpt>
      <trkpt lat="46.2701" lon="6.56477">
        <ele>1463.4</ele>
        <time>2023-01-21T13:45:25.000Z</time>
      </trkpt>
      <trkpt lat="46.27009" lon="6.56477">
        <ele>1463.4</ele>
        <time>2023-01-21T13:45:26.000Z</time>
      </trkpt>
      <trkpt lat="46.27009" lon="6.56477">
        <ele>1463.4</ele>
        <time>2023-01-21T13:45:27.000Z</time>
      </trkpt>
      <trkpt lat="46.27009" lon="6.56477">
        <ele>1463.4</ele>
        <time>2023-01-21T13:45:28.000Z</time>
      </trkpt>
      <trkpt lat="46.27009" lon="6.56477">
        <ele>1463.4</ele>
        <time>2023-01-21T13:45:29.000Z</time>
      </trkpt>
      <trkpt lat="46.27009" lon="6.56477">
        <ele>1463.4</ele>
        <time>2023-01-21T13:45:30.000Z</time>
      </trkpt>
      <trkpt lat="46.27009" lon="6.56477">
        <ele>1463.4</ele>
        <time>2023-01-21T13:45:31.000Z</time>
      </trkpt>
      <trkpt lat="46.27009" lon="6.56477">
        <ele>1463.4</ele>
        <time>2023-01-21T13:45:32.000Z</time>
      </trkpt>
      <trkpt lat="46.27009" lon="6.56477">
        <ele>1463.4</ele>
        <time>2023-01-21T13:45:33.000Z</time>
      </trkpt>
      <trkpt lat="46.27009" lon="6.56477">
        <ele>1463.4</ele>
        <time>2023-01-21T13:45:34.000Z</time>
      </trkpt>
      <trkpt lat="46.27009" lon="6.56477">
        <ele>1463.4</ele>
        <time>2023-01-21T13:45:35.000Z</time>
      </trkpt>
      <trkpt lat="46.27009" lon="6.56477">
        <ele>1463.4</ele>
        <time>2023-01-21T13:45:36.000Z</time>
      </trkpt>
      <trkpt lat="46.27009" lon="6.56477">
        <ele>1463.4</ele>
        <time>2023-01-21T13:45:37.000Z</time>
      </trkpt>
      <trkpt lat="46.27009" lon="6.56477">
        <ele>1463.4</ele>
        <time>2023-01-21T13:45:38.000Z</time>
      </trkpt>
      <trkpt lat="46.27009" lon="6.56477">
        <ele>1463.4</ele>
        <time>2023-01-21T13:45:39.000Z</time>
      </trkpt>
      <trkpt lat="46.27009" lon="6.56477">
        <ele>1463.4</ele>
        <time>2023-01-21T13:45:40.000Z</time>
      </trkpt>
      <trkpt lat="46.27009" lon="6.56477">
        <ele>1466.5</ele>
        <time>2023-01-21T13:45:41.000Z</time>
      </trkpt>
      <trkpt lat="46.27009" lon="6.56477">
        <ele>1466.5</ele>
        <time>2023-01-21T13:45:42.000Z</time>
      </trkpt>
      <trkpt lat="46.27009" lon="6.56477">
        <ele>1466.5</ele>
        <time>2023-01-21T13:45:43.000Z</time>
      </trkpt>
      <trkpt lat="46.27009" lon="6.56477">
        <ele>1466.5</ele>
        <time>2023-01-21T13:45:44.000Z</time>
      </trkpt>
      <trkpt lat="46.27009" lon="6.56477">
        <ele>1466.5</ele>
        <time>2023-01-21T13:45:45.000Z</time>
      </trkpt>
      <trkpt lat="46.27009" lon="6.56477">
        <ele>1466.5</ele>
        <time>2023-01-21T13:45:46.000Z</time>
      </trkpt>
      <trkpt lat="46.27009" lon="6.56477">
        <ele>1466.5</ele>
        <time>2023-01-21T13:45:47.000Z</time>
      </trkpt>
      <trkpt lat="46.27009" lon="6.56477">
        <ele>1466.5</ele>
        <time>2023-01-21T13:45:48.000Z</time>
      </trkpt>
      <trkpt lat="46.27009" lon="6.56477">
        <ele>1466.5</ele>
        <time>2023-01-21T13:45:49.000Z</time>
      </trkpt>
      <trkpt lat="46.27009" lon="6.56477">
        <ele>1469.6</ele>
        <time>2023-01-21T13:45:50.000Z</time>
      </trkpt>
      <trkpt lat="46.27009" lon="6.56477">
        <ele>1469.6</ele>
        <time>2023-01-21T13:45:51.000Z</time>
      </trkpt>
      <trkpt lat="46.27009" lon="6.56477">
        <ele>1469.6</ele>
        <time>2023-01-21T13:45:52.000Z</time>
      </trkpt>
      <trkpt lat="46.27009" lon="6.56477">
        <ele>1469.6</ele>
        <time>2023-01-21T13:45:53.000Z</time>
      </trkpt>
      <trkpt lat="46.27009" lon="6.56477">
        <ele>1469.6</ele>
        <time>2023-01-21T13:45:54.000Z</time>
      </trkpt>
      <trkpt lat="46.27009" lon="6.56477">
        <ele>1469.6</ele>
        <time>2023-01-21T13:45:55.000Z</time>
      </trkpt>
      <trkpt lat="46.27009" lon="6.56477">
        <ele>1469.6</ele>
        <time>2023-01-21T13:45:56.000Z</time>
      </trkpt>
      <trkpt lat="46.27009" lon="6.56477">
        <ele>1469.6</ele>
        <time>2023-01-21T13:45:57.000Z</time>
      </trkpt>
      <trkpt lat="46.27009" lon="6.56477">
        <ele>1466.4</ele>
        <time>2023-01-21T13:45:58.000Z</time>
      </trkpt>
      <trkpt lat="46.27009" lon="6.56477">
        <ele>1466.4</ele>
        <time>2023-01-21T13:45:59.000Z</time>
      </trkpt>
      <trkpt lat="46.27009" lon="6.56477">
        <ele>1466.4</ele>
        <time>2023-01-21T13:46:00.000Z</time>
      </trkpt>
      <trkpt lat="46.27009" lon="6.56477">
        <ele>1466.4</ele>
        <time>2023-01-21T13:46:01.000Z</time>
      </trkpt>
      <trkpt lat="46.27009" lon="6.56477">
        <ele>1466.4</ele>
        <time>2023-01-21T13:46:02.000Z</time>
      </trkpt>
      <trkpt lat="46.27009" lon="6.56477">
        <ele>1466.4</ele>
        <time>2023-01-21T13:46:03.000Z</time>
      </trkpt>
      <trkpt lat="46.27009" lon="6.56477">
        <ele>1466.4</ele>
        <time>2023-01-21T13:46:04.000Z</time>
      </trkpt>
      <trkpt lat="46.27009" lon="6.56477">
        <ele>1466.4</ele>
        <time>2023-01-21T13:46:05.000Z</time>
      </trkpt>
      <trkpt lat="46.27009" lon="6.56477">
        <ele>1466.4</ele>
        <time>2023-01-21T13:46:06.000Z</time>
      </trkpt>
      <trkpt lat="46.27009" lon="6.56477">
        <ele>1466.4</ele>
        <time>2023-01-21T13:46:07.000Z</time>
      </trkpt>
      <trkpt lat="46.27009" lon="6.56477">
        <ele>1466.4</ele>
        <time>2023-01-21T13:46:08.000Z</time>
      </trkpt>
      <trkpt lat="46.27005" lon="6.56479">
        <ele>1464.9</ele>
        <time>2023-01-21T13:46:09.000Z</time>
      </trkpt>
      <trkpt lat="46.27003" lon="6.56477">
        <ele>1464.9</ele>
        <time>2023-01-21T13:46:10.000Z</time>
      </trkpt>
      <trkpt lat="46.27002" lon="6.56475">
        <ele>1464.8</ele>
        <time>2023-01-21T13:46:11.000Z</time>
      </trkpt>
      <trkpt lat="46.27" lon="6.56471">
        <ele>1464.9</ele>
        <time>2023-01-21T13:46:12.000Z</time>
      </trkpt>
      <trkpt lat="46.26999" lon="6.56467">
        <ele>1464.8</ele>
        <time>2023-01-21T13:46:13.000Z</time>
      </trkpt>
      <trkpt lat="46.26998" lon="6.56462">
        <ele>1464.4</ele>
        <time>2023-01-21T13:46:14.000Z</time>
      </trkpt>
      <trkpt lat="46.27" lon="6.56456">
        <ele>1463.3</ele>
        <time>2023-01-21T13:46:15.000Z</time>
      </trkpt>
      <trkpt lat="46.27003" lon="6.5645">
        <ele>1463</ele>
        <time>2023-01-21T13:46:16.000Z</time>
      </trkpt>
      <trkpt lat="46.27006" lon="6.56447">
        <ele>1462.5</ele>
        <time>2023-01-21T13:46:17.000Z</time>
      </trkpt>
      <trkpt lat="46.2701" lon="6.56445">
        <ele>1461.9</ele>
        <time>2023-01-21T13:46:18.000Z</time>
      </trkpt>
      <trkpt lat="46.27014" lon="6.56445">
        <ele>1461.6</ele>
        <time>2023-01-21T13:46:19.000Z</time>
      </trkpt>
      <trkpt lat="46.27019" lon="6.56446">
        <ele>1461.2</ele>
        <time>2023-01-21T13:46:20.000Z</time>
      </trkpt>
      <trkpt lat="46.27023" lon="6.56447">
        <ele>1460.8</ele>
        <time>2023-01-21T13:46:21.000Z</time>
      </trkpt>
      <trkpt lat="46.27026" lon="6.56449">
        <ele>1460.2</ele>
        <time>2023-01-21T13:46:22.000Z</time>
      </trkpt>
      <trkpt lat="46.27029" lon="6.56452">
        <ele>1459.8</ele>
        <time>2023-01-21T13:46:23.000Z</time>
      </trkpt>
      <trkpt lat="46.27032" lon="6.56456">
        <ele>1459.5</ele>
        <time>2023-01-21T13:46:24.000Z</time>
      </trkpt>
      <trkpt lat="46.27035" lon="6.5646">
        <ele>1459.1</ele>
        <time>2023-01-21T13:46:25.000Z</time>
      </trkpt>
      <trkpt lat="46.27037" lon="6.56464">
        <ele>1458.8</ele>
        <time>2023-01-21T13:46:26.000Z</time>
      </trkpt>
      <trkpt lat="46.27041" lon="6.56468">
        <ele>1458.6</ele>
        <time>2023-01-21T13:46:27.000Z</time>
      </trkpt>
      <trkpt lat="46.27044" lon="6.56473">
        <ele>1458.5</ele>
        <time>2023-01-21T13:46:28.000Z</time>
      </trkpt>
      <trkpt lat="46.27045" lon="6.56476">
        <ele>1457.5</ele>
        <time>2023-01-21T13:46:29.000Z</time>
      </trkpt>
      <trkpt lat="46.27046" lon="6.56478">
        <ele>1456.3</ele>
        <time>2023-01-21T13:46:30.000Z</time>
      </trkpt>
      <trkpt lat="46.27047" lon="6.5648">
        <ele>1455</ele>
        <time>2023-01-21T13:46:31.000Z</time>
      </trkpt>
      <trkpt lat="46.2705" lon="6.5648">
        <ele>1453.6</ele>
        <time>2023-01-21T13:46:32.000Z</time>
      </trkpt>
      <trkpt lat="46.27053" lon="6.56481">
        <ele>1452.2</ele>
        <time>2023-01-21T13:46:33.000Z</time>
      </trkpt>
      <trkpt lat="46.27056" lon="6.56482">
        <ele>1450.5</ele>
        <time>2023-01-21T13:46:34.000Z</time>
      </trkpt>
      <trkpt lat="46.27061" lon="6.56485">
        <ele>1450</ele>
        <time>2023-01-21T13:46:35.000Z</time>
      </trkpt>
      <trkpt lat="46.27066" lon="6.56487">
        <ele>1449.5</ele>
        <time>2023-01-21T13:46:36.000Z</time>
      </trkpt>
      <trkpt lat="46.2707" lon="6.56489">
        <ele>1448.7</ele>
        <time>2023-01-21T13:46:37.000Z</time>
      </trkpt>
      <trkpt lat="46.27075" lon="6.56494">
        <ele>1448</ele>
        <time>2023-01-21T13:46:38.000Z</time>
      </trkpt>
      <trkpt lat="46.27079" lon="6.56499">
        <ele>1446.7</ele>
        <time>2023-01-21T13:46:39.000Z</time>
      </trkpt>
      <trkpt lat="46.27082" lon="6.56504">
        <ele>1445.6</ele>
        <time>2023-01-21T13:46:40.000Z</time>
      </trkpt>
      <trkpt lat="46.27087" lon="6.5651">
        <ele>1445</ele>
        <time>2023-01-21T13:46:41.000Z</time>
      </trkpt>
      <trkpt lat="46.27091" lon="6.56517">
        <ele>1443.8</ele>
        <time>2023-01-21T13:46:42.000Z</time>
      </trkpt>
      <trkpt lat="46.27096" lon="6.56524">
        <ele>1443.2</ele>
        <time>2023-01-21T13:46:43.000Z</time>
      </trkpt>
      <trkpt lat="46.27099" lon="6.5653">
        <ele>1441.6</ele>
        <time>2023-01-21T13:46:44.000Z</time>
      </trkpt>
      <trkpt lat="46.27104" lon="6.56535">
        <ele>1440.5</ele>
        <time>2023-01-21T13:46:45.000Z</time>
      </trkpt>
      <trkpt lat="46.27109" lon="6.56542">
        <ele>1440</ele>
        <time>2023-01-21T13:46:46.000Z</time>
      </trkpt>
      <trkpt lat="46.27114" lon="6.56548">
        <ele>1438.9</ele>
        <time>2023-01-21T13:46:47.000Z</time>
      </trkpt>
      <trkpt lat="46.27119" lon="6.56555">
        <ele>1437.9</ele>
        <time>2023-01-21T13:46:48.000Z</time>
      </trkpt>
      <trkpt lat="46.27124" lon="6.56561">
        <ele>1436.6</ele>
        <time>2023-01-21T13:46:49.000Z</time>
      </trkpt>
      <trkpt lat="46.27129" lon="6.56565">
        <ele>1436</ele>
        <time>2023-01-21T13:46:50.000Z</time>
      </trkpt>
      <trkpt lat="46.27134" lon="6.56569">
        <ele>1434.7</ele>
        <time>2023-01-21T13:46:51.000Z</time>
      </trkpt>
      <trkpt lat="46.2714" lon="6.56572">
        <ele>1433.6</ele>
        <time>2023-01-21T13:46:52.000Z</time>
      </trkpt>
      <trkpt lat="46.27145" lon="6.56574">
        <ele>1432.3</ele>
        <time>2023-01-21T13:46:53.000Z</time>
      </trkpt>
      <trkpt lat="46.27151" lon="6.56576">
        <ele>1430.9</ele>
        <time>2023-01-21T13:46:54.000Z</time>
      </trkpt>
      <trkpt lat="46.27157" lon="6.5658">
        <ele>1429.7</ele>
        <time>2023-01-21T13:46:55.000Z</time>
      </trkpt>
      <trkpt lat="46.27162" lon="6.56584">
        <ele>1428.5</ele>
        <time>2023-01-21T13:46:56.000Z</time>
      </trkpt>
      <trkpt lat="46.27169" lon="6.56588">
        <ele>1427.2</ele>
        <time>2023-01-21T13:46:57.000Z</time>
      </trkpt>
      <trkpt lat="46.27176" lon="6.5659">
        <ele>1426.1</ele>
        <time>2023-01-21T13:46:58.000Z</time>
      </trkpt>
      <trkpt lat="46.27182" lon="6.56593">
        <ele>1425</ele>
        <time>2023-01-21T13:46:59.000Z</time>
      </trkpt>
      <trkpt lat="46.27188" lon="6.56596">
        <ele>1424.1</ele>
        <time>2023-01-21T13:47:00.000Z</time>
      </trkpt>
      <trkpt lat="46.27193" lon="6.56598">
        <ele>1422.6</ele>
        <time>2023-01-21T13:47:01.000Z</time>
      </trkpt>
      <trkpt lat="46.27199" lon="6.56601">
        <ele>1421.6</ele>
        <time>2023-01-21T13:47:02.000Z</time>
      </trkpt>
      <trkpt lat="46.27203" lon="6.56604">
        <ele>1420.3</ele>
        <time>2023-01-21T13:47:03.000Z</time>
      </trkpt>
      <trkpt lat="46.27208" lon="6.56607">
        <ele>1419.6</ele>
        <time>2023-01-21T13:47:04.000Z</time>
      </trkpt>
      <trkpt lat="46.27213" lon="6.5661">
        <ele>1418.3</ele>
        <time>2023-01-21T13:47:05.000Z</time>
      </trkpt>
      <trkpt lat="46.27219" lon="6.56613">
        <ele>1417.2</ele>
        <time>2023-01-21T13:47:06.000Z</time>
      </trkpt>
      <trkpt lat="46.27225" lon="6.56617">
        <ele>1416.4</ele>
        <time>2023-01-21T13:47:07.000Z</time>
      </trkpt>
      <trkpt lat="46.2723" lon="6.56619">
        <ele>1415</ele>
        <time>2023-01-21T13:47:08.000Z</time>
      </trkpt>
      <trkpt lat="46.27236" lon="6.5662">
        <ele>1413.4</ele>
        <time>2023-01-21T13:47:09.000Z</time>
      </trkpt>
      <trkpt lat="46.27242" lon="6.5662">
        <ele>1411.7</ele>
        <time>2023-01-21T13:47:10.000Z</time>
      </trkpt>
      <trkpt lat="46.27247" lon="6.5662">
        <ele>1410.4</ele>
        <time>2023-01-21T13:47:11.000Z</time>
      </trkpt>
      <trkpt lat="46.27252" lon="6.56619">
        <ele>1409.4</ele>
        <time>2023-01-21T13:47:12.000Z</time>
      </trkpt>
      <trkpt lat="46.27258" lon="6.5662">
        <ele>1408.4</ele>
        <time>2023-01-21T13:47:13.000Z</time>
      </trkpt>
      <trkpt lat="46.27263" lon="6.56622">
        <ele>1407.2</ele>
        <time>2023-01-21T13:47:14.000Z</time>
      </trkpt>
      <trkpt lat="46.27268" lon="6.56625">
        <ele>1405.8</ele>
        <time>2023-01-21T13:47:15.000Z</time>
      </trkpt>
      <trkpt lat="46.27274" lon="6.56628">
        <ele>1404.7</ele>
        <time>2023-01-21T13:47:16.000Z</time>
      </trkpt>
      <trkpt lat="46.27279" lon="6.56632">
        <ele>1403.7</ele>
        <time>2023-01-21T13:47:17.000Z</time>
      </trkpt>
      <trkpt lat="46.27286" lon="6.56636">
        <ele>1402.6</ele>
        <time>2023-01-21T13:47:18.000Z</time>
      </trkpt>
      <trkpt lat="46.27293" lon="6.5664">
        <ele>1401.7</ele>
        <time>2023-01-21T13:47:19.000Z</time>
      </trkpt>
      <trkpt lat="46.27299" lon="6.56643">
        <ele>1400.8</ele>
        <time>2023-01-21T13:47:20.000Z</time>
      </trkpt>
      <trkpt lat="46.27305" lon="6.56647">
        <ele>1399.5</ele>
        <time>2023-01-21T13:47:21.000Z</time>
      </trkpt>
      <trkpt lat="46.27311" lon="6.56652">
        <ele>1398.5</ele>
        <time>2023-01-21T13:47:22.000Z</time>
      </trkpt>
      <trkpt lat="46.27317" lon="6.56656">
        <ele>1397.5</ele>
        <time>2023-01-21T13:47:23.000Z</time>
      </trkpt>
      <trkpt lat="46.27322" lon="6.56661">
        <ele>1396.5</ele>
        <time>2023-01-21T13:47:24.000Z</time>
      </trkpt>
      <trkpt lat="46.27329" lon="6.56666">
        <ele>1395.4</ele>
        <time>2023-01-21T13:47:25.000Z</time>
      </trkpt>
      <trkpt lat="46.27336" lon="6.56669">
        <ele>1394.4</ele>
        <time>2023-01-21T13:47:26.000Z</time>
      </trkpt>
      <trkpt lat="46.27343" lon="6.56673">
        <ele>1393.5</ele>
        <time>2023-01-21T13:47:27.000Z</time>
      </trkpt>
      <trkpt lat="46.2735" lon="6.56678">
        <ele>1392.6</ele>
        <time>2023-01-21T13:47:28.000Z</time>
      </trkpt>
      <trkpt lat="46.27355" lon="6.56682">
        <ele>1391.4</ele>
        <time>2023-01-21T13:47:29.000Z</time>
      </trkpt>
      <trkpt lat="46.27361" lon="6.56685">
        <ele>1389.8</ele>
        <time>2023-01-21T13:47:30.000Z</time>
      </trkpt>
      <trkpt lat="46.27368" lon="6.56688">
        <ele>1388.5</ele>
        <time>2023-01-21T13:47:31.000Z</time>
      </trkpt>
      <trkpt lat="46.27372" lon="6.5669">
        <ele>1386.8</ele>
        <time>2023-01-21T13:47:32.000Z</time>
      </trkpt>
      <trkpt lat="46.27376" lon="6.56692">
        <ele>1384.9</ele>
        <time>2023-01-21T13:47:33.000Z</time>
      </trkpt>
      <trkpt lat="46.27383" lon="6.56695">
        <ele>1383.8</ele>
        <time>2023-01-21T13:47:34.000Z</time>
      </trkpt>
      <trkpt lat="46.2739" lon="6.56698">
        <ele>1382.5</ele>
        <time>2023-01-21T13:47:35.000Z</time>
      </trkpt>
      <trkpt lat="46.27396" lon="6.56701">
        <ele>1381.2</ele>
        <time>2023-01-21T13:47:36.000Z</time>
      </trkpt>
      <trkpt lat="46.27403" lon="6.56702">
        <ele>1380.1</ele>
        <time>2023-01-21T13:47:37.000Z</time>
      </trkpt>
      <trkpt lat="46.2741" lon="6.56701">
        <ele>1378.5</ele>
        <time>2023-01-21T13:47:38.000Z</time>
      </trkpt>
      <trkpt lat="46.27416" lon="6.56699">
        <ele>1377</ele>
        <time>2023-01-21T13:47:39.000Z</time>
      </trkpt>
      <trkpt lat="46.27422" lon="6.56696">
        <ele>1375.2</ele>
        <time>2023-01-21T13:47:40.000Z</time>
      </trkpt>
      <trkpt lat="46.27427" lon="6.56692">
        <ele>1373.9</ele>
        <time>2023-01-21T13:47:41.000Z</time>
      </trkpt>
      <trkpt lat="46.27428" lon="6.56691">
        <ele>1372.6</ele>
        <time>2023-01-21T13:47:42.000Z</time>
      </trkpt>
      <trkpt lat="46.27427" lon="6.56691">
        <ele>1371.4</ele>
        <time>2023-01-21T13:47:43.000Z</time>
      </trkpt>
      <trkpt lat="46.27424" lon="6.56692">
        <ele>1370.1</ele>
        <time>2023-01-21T13:47:44.000Z</time>
      </trkpt>
      <trkpt lat="46.27423" lon="6.56691">
        <ele>1369</ele>
        <time>2023-01-21T13:47:45.000Z</time>
      </trkpt>
      <trkpt lat="46.27423" lon="6.56691">
        <ele>1369</ele>
        <time>2023-01-21T13:47:46.000Z</time>
      </trkpt>
      <trkpt lat="46.27423" lon="6.56691">
        <ele>1369</ele>
        <time>2023-01-21T13:47:47.000Z</time>
      </trkpt>
      <trkpt lat="46.27423" lon="6.56691">
        <ele>1369</ele>
        <time>2023-01-21T13:47:48.000Z</time>
      </trkpt>
      <trkpt lat="46.27423" lon="6.56691">
        <ele>1372.4</ele>
        <time>2023-01-21T13:47:49.000Z</time>
      </trkpt>
      <trkpt lat="46.27423" lon="6.56691">
        <ele>1372.4</ele>
        <time>2023-01-21T13:47:50.000Z</time>
      </trkpt>
      <trkpt lat="46.27423" lon="6.56691">
        <ele>1372.4</ele>
        <time>2023-01-21T13:47:51.000Z</time>
      </trkpt>
      <trkpt lat="46.27423" lon="6.56691">
        <ele>1372.4</ele>
        <time>2023-01-21T13:47:52.000Z</time>
      </trkpt>
      <trkpt lat="46.27423" lon="6.56691">
        <ele>1372.4</ele>
        <time>2023-01-21T13:47:53.000Z</time>
      </trkpt>
      <trkpt lat="46.27423" lon="6.56691">
        <ele>1372.4</ele>
        <time>2023-01-21T13:47:54.000Z</time>
      </trkpt>
      <trkpt lat="46.27423" lon="6.56691">
        <ele>1375.4</ele>
        <time>2023-01-21T13:47:55.000Z</time>
      </trkpt>
      <trkpt lat="46.27423" lon="6.56691">
        <ele>1375.4</ele>
        <time>2023-01-21T13:47:56.000Z</time>
      </trkpt>
      <trkpt lat="46.27423" lon="6.56691">
        <ele>1375.4</ele>
        <time>2023-01-21T13:47:57.000Z</time>
      </trkpt>
      <trkpt lat="46.2743" lon="6.56683">
        <ele>1376.3</ele>
        <time>2023-01-21T13:47:58.000Z</time>
      </trkpt>
      <trkpt lat="46.2743" lon="6.56683">
        <ele>1376.4</ele>
        <time>2023-01-21T13:47:59.000Z</time>
      </trkpt>
      <trkpt lat="46.2743" lon="6.56682">
        <ele>1376.9</ele>
        <time>2023-01-21T13:48:00.000Z</time>
      </trkpt>
      <trkpt lat="46.2743" lon="6.56683">
        <ele>1377</ele>
        <time>2023-01-21T13:48:01.000Z</time>
      </trkpt>
      <trkpt lat="46.2743" lon="6.56683">
        <ele>1377</ele>
        <time>2023-01-21T13:48:02.000Z</time>
      </trkpt>
      <trkpt lat="46.2743" lon="6.56683">
        <ele>1377</ele>
        <time>2023-01-21T13:48:03.000Z</time>
      </trkpt>
      <trkpt lat="46.2743" lon="6.56683">
        <ele>1377</ele>
        <time>2023-01-21T13:48:04.000Z</time>
      </trkpt>
      <trkpt lat="46.2743" lon="6.56683">
        <ele>1377</ele>
        <time>2023-01-21T13:48:05.000Z</time>
      </trkpt>
      <trkpt lat="46.2743" lon="6.56683">
        <ele>1377</ele>
        <time>2023-01-21T13:48:06.000Z</time>
      </trkpt>
      <trkpt lat="46.2743" lon="6.56683">
        <ele>1377</ele>
        <time>2023-01-21T13:48:07.000Z</time>
      </trkpt>
      <trkpt lat="46.2743" lon="6.56683">
        <ele>1377</ele>
        <time>2023-01-21T13:48:08.000Z</time>
      </trkpt>
      <trkpt lat="46.2743" lon="6.56683">
        <ele>1377</ele>
        <time>2023-01-21T13:48:09.000Z</time>
      </trkpt>
      <trkpt lat="46.2743" lon="6.56683">
        <ele>1377</ele>
        <time>2023-01-21T13:48:10.000Z</time>
      </trkpt>
      <trkpt lat="46.2743" lon="6.56683">
        <ele>1380.4</ele>
        <time>2023-01-21T13:48:11.000Z</time>
      </trkpt>
      <trkpt lat="46.2743" lon="6.56683">
        <ele>1380.4</ele>
        <time>2023-01-21T13:48:12.000Z</time>
      </trkpt>
      <trkpt lat="46.2743" lon="6.56683">
        <ele>1380.4</ele>
        <time>2023-01-21T13:48:13.000Z</time>
      </trkpt>
      <trkpt lat="46.2743" lon="6.56683">
        <ele>1380.4</ele>
        <time>2023-01-21T13:48:14.000Z</time>
      </trkpt>
      <trkpt lat="46.2743" lon="6.56683">
        <ele>1380.4</ele>
        <time>2023-01-21T13:48:15.000Z</time>
      </trkpt>
      <trkpt lat="46.2743" lon="6.56683">
        <ele>1380.4</ele>
        <time>2023-01-21T13:48:16.000Z</time>
      </trkpt>
      <trkpt lat="46.2743" lon="6.56683">
        <ele>1380.4</ele>
        <time>2023-01-21T13:48:17.000Z</time>
      </trkpt>
      <trkpt lat="46.2743" lon="6.56683">
        <ele>1380.4</ele>
        <time>2023-01-21T13:48:18.000Z</time>
      </trkpt>
      <trkpt lat="46.2743" lon="6.56683">
        <ele>1380.4</ele>
        <time>2023-01-21T13:48:19.000Z</time>
      </trkpt>
      <trkpt lat="46.2743" lon="6.56683">
        <ele>1380.4</ele>
        <time>2023-01-21T13:48:20.000Z</time>
      </trkpt>
      <trkpt lat="46.2743" lon="6.56683">
        <ele>1380.4</ele>
        <time>2023-01-21T13:48:21.000Z</time>
      </trkpt>
      <trkpt lat="46.2743" lon="6.56683">
        <ele>1380.4</ele>
        <time>2023-01-21T13:48:22.000Z</time>
      </trkpt>
      <trkpt lat="46.2743" lon="6.56683">
        <ele>1380.4</ele>
        <time>2023-01-21T13:48:23.000Z</time>
      </trkpt>
      <trkpt lat="46.2743" lon="6.56683">
        <ele>1380.4</ele>
        <time>2023-01-21T13:48:24.000Z</time>
      </trkpt>
      <trkpt lat="46.2743" lon="6.56683">
        <ele>1380.4</ele>
        <time>2023-01-21T13:48:25.000Z</time>
      </trkpt>
      <trkpt lat="46.2743" lon="6.56683">
        <ele>1380.4</ele>
        <time>2023-01-21T13:48:26.000Z</time>
      </trkpt>
      <trkpt lat="46.2743" lon="6.56683">
        <ele>1380.4</ele>
        <time>2023-01-21T13:48:27.000Z</time>
      </trkpt>
      <trkpt lat="46.2743" lon="6.56683">
        <ele>1380.4</ele>
        <time>2023-01-21T13:48:28.000Z</time>
      </trkpt>
      <trkpt lat="46.2743" lon="6.56683">
        <ele>1383.5</ele>
        <time>2023-01-21T13:48:29.000Z</time>
      </trkpt>
      <trkpt lat="46.2743" lon="6.56683">
        <ele>1383.5</ele>
        <time>2023-01-21T13:48:30.000Z</time>
      </trkpt>
      <trkpt lat="46.2743" lon="6.56683">
        <ele>1383.5</ele>
        <time>2023-01-21T13:48:31.000Z</time>
      </trkpt>
      <trkpt lat="46.2743" lon="6.56683">
        <ele>1383.5</ele>
        <time>2023-01-21T13:48:32.000Z</time>
      </trkpt>
      <trkpt lat="46.2743" lon="6.56683">
        <ele>1383.5</ele>
        <time>2023-01-21T13:48:33.000Z</time>
      </trkpt>
      <trkpt lat="46.2743" lon="6.56683">
        <ele>1383.5</ele>
        <time>2023-01-21T13:48:34.000Z</time>
      </trkpt>
      <trkpt lat="46.2743" lon="6.56683">
        <ele>1383.5</ele>
        <time>2023-01-21T13:48:35.000Z</time>
      </trkpt>
      <trkpt lat="46.2743" lon="6.56683">
        <ele>1383.5</ele>
        <time>2023-01-21T13:48:36.000Z</time>
      </trkpt>
      <trkpt lat="46.2743" lon="6.56683">
        <ele>1383.5</ele>
        <time>2023-01-21T13:48:37.000Z</time>
      </trkpt>
      <trkpt lat="46.2743" lon="6.56683">
        <ele>1383.5</ele>
        <time>2023-01-21T13:48:38.000Z</time>
      </trkpt>
      <trkpt lat="46.2743" lon="6.56683">
        <ele>1383.5</ele>
        <time>2023-01-21T13:48:39.000Z</time>
      </trkpt>
      <trkpt lat="46.2743" lon="6.56683">
        <ele>1383.5</ele>
        <time>2023-01-21T13:48:40.000Z</time>
      </trkpt>
      <trkpt lat="46.2743" lon="6.56683">
        <ele>1383.5</ele>
        <time>2023-01-21T13:48:41.000Z</time>
      </trkpt>
      <trkpt lat="46.2743" lon="6.56683">
        <ele>1383.5</ele>
        <time>2023-01-21T13:48:42.000Z</time>
      </trkpt>
      <trkpt lat="46.2743" lon="6.56683">
        <ele>1383.5</ele>
        <time>2023-01-21T13:48:43.000Z</time>
      </trkpt>
      <trkpt lat="46.2743" lon="6.56683">
        <ele>1383.5</ele>
        <time>2023-01-21T13:48:44.000Z</time>
      </trkpt>
      <trkpt lat="46.2743" lon="6.56683">
        <ele>1383.5</ele>
        <time>2023-01-21T13:48:45.000Z</time>
      </trkpt>
      <trkpt lat="46.2743" lon="6.56683">
        <ele>1383.5</ele>
        <time>2023-01-21T13:48:46.000Z</time>
      </trkpt>
      <trkpt lat="46.2743" lon="6.56683">
        <ele>1383.5</ele>
        <time>2023-01-21T13:48:47.000Z</time>
      </trkpt>
      <trkpt lat="46.2743" lon="6.56683">
        <ele>1383.5</ele>
        <time>2023-01-21T13:48:48.000Z</time>
      </trkpt>
      <trkpt lat="46.2743" lon="6.56683">
        <ele>1383.5</ele>
        <time>2023-01-21T13:48:49.000Z</time>
      </trkpt>
      <trkpt lat="46.2743" lon="6.56683">
        <ele>1383.5</ele>
        <time>2023-01-21T13:48:50.000Z</time>
      </trkpt>
      <trkpt lat="46.2743" lon="6.56683">
        <ele>1383.5</ele>
        <time>2023-01-21T13:48:51.000Z</time>
      </trkpt>
      <trkpt lat="46.2743" lon="6.56683">
        <ele>1383.5</ele>
        <time>2023-01-21T13:48:52.000Z</time>
      </trkpt>
      <trkpt lat="46.2743" lon="6.56683">
        <ele>1383.5</ele>
        <time>2023-01-21T13:48:53.000Z</time>
      </trkpt>
      <trkpt lat="46.2743" lon="6.56683">
        <ele>1383.5</ele>
        <time>2023-01-21T13:48:54.000Z</time>
      </trkpt>
      <trkpt lat="46.2743" lon="6.56683">
        <ele>1383.5</ele>
        <time>2023-01-21T13:48:55.000Z</time>
      </trkpt>
      <trkpt lat="46.2743" lon="6.56683">
        <ele>1383.5</ele>
        <time>2023-01-21T13:48:56.000Z</time>
      </trkpt>
      <trkpt lat="46.2743" lon="6.56683">
        <ele>1383.5</ele>
        <time>2023-01-21T13:48:57.000Z</time>
      </trkpt>
      <trkpt lat="46.2743" lon="6.56683">
        <ele>1383.5</ele>
        <time>2023-01-21T13:48:58.000Z</time>
      </trkpt>
      <trkpt lat="46.2743" lon="6.56683">
        <ele>1383.5</ele>
        <time>2023-01-21T13:48:59.000Z</time>
      </trkpt>
      <trkpt lat="46.2743" lon="6.56683">
        <ele>1383.5</ele>
        <time>2023-01-21T13:49:00.000Z</time>
      </trkpt>
      <trkpt lat="46.2743" lon="6.56683">
        <ele>1383.5</ele>
        <time>2023-01-21T13:49:01.000Z</time>
      </trkpt>
      <trkpt lat="46.2743" lon="6.56683">
        <ele>1383.5</ele>
        <time>2023-01-21T13:49:02.000Z</time>
      </trkpt>
      <trkpt lat="46.2743" lon="6.56683">
        <ele>1383.5</ele>
        <time>2023-01-21T13:49:03.000Z</time>
      </trkpt>
      <trkpt lat="46.2743" lon="6.56683">
        <ele>1383.5</ele>
        <time>2023-01-21T13:49:04.000Z</time>
      </trkpt>
      <trkpt lat="46.2743" lon="6.56683">
        <ele>1383.5</ele>
        <time>2023-01-21T13:49:05.000Z</time>
      </trkpt>
      <trkpt lat="46.2743" lon="6.56683">
        <ele>1383.5</ele>
        <time>2023-01-21T13:49:06.000Z</time>
      </trkpt>
      <trkpt lat="46.2743" lon="6.56683">
        <ele>1383.5</ele>
        <time>2023-01-21T13:49:07.000Z</time>
      </trkpt>
      <trkpt lat="46.27435" lon="6.56669">
        <ele>1385</ele>
        <time>2023-01-21T13:49:08.000Z</time>
      </trkpt>
      <trkpt lat="46.27436" lon="6.56661">
        <ele>1384.7</ele>
        <time>2023-01-21T13:49:09.000Z</time>
      </trkpt>
      <trkpt lat="46.27437" lon="6.56652">
        <ele>1384.1</ele>
        <time>2023-01-21T13:49:10.000Z</time>
      </trkpt>
      <trkpt lat="46.27438" lon="6.56644">
        <ele>1383.5</ele>
        <time>2023-01-21T13:49:11.000Z</time>
      </trkpt>
      <trkpt lat="46.27439" lon="6.56636">
        <ele>1382.7</ele>
        <time>2023-01-21T13:49:12.000Z</time>
      </trkpt>
      <trkpt lat="46.27438" lon="6.56627">
        <ele>1382.1</ele>
        <time>2023-01-21T13:49:13.000Z</time>
      </trkpt>
      <trkpt lat="46.27437" lon="6.56617">
        <ele>1381.1</ele>
        <time>2023-01-21T13:49:14.000Z</time>
      </trkpt>
      <trkpt lat="46.27436" lon="6.56607">
        <ele>1380</ele>
        <time>2023-01-21T13:49:15.000Z</time>
      </trkpt>
      <trkpt lat="46.27437" lon="6.56598">
        <ele>1379</ele>
        <time>2023-01-21T13:49:16.000Z</time>
      </trkpt>
      <trkpt lat="46.27437" lon="6.5659">
        <ele>1378</ele>
        <time>2023-01-21T13:49:17.000Z</time>
      </trkpt>
      <trkpt lat="46.27435" lon="6.56581">
        <ele>1377</ele>
        <time>2023-01-21T13:49:18.000Z</time>
      </trkpt>
      <trkpt lat="46.27434" lon="6.56572">
        <ele>1375.6</ele>
        <time>2023-01-21T13:49:19.000Z</time>
      </trkpt>
      <trkpt lat="46.27433" lon="6.56563">
        <ele>1374.1</ele>
        <time>2023-01-21T13:49:20.000Z</time>
      </trkpt>
      <trkpt lat="46.27435" lon="6.56555">
        <ele>1372.5</ele>
        <time>2023-01-21T13:49:21.000Z</time>
      </trkpt>
      <trkpt lat="46.27439" lon="6.56549">
        <ele>1370.6</ele>
        <time>2023-01-21T13:49:22.000Z</time>
      </trkpt>
      <trkpt lat="46.27443" lon="6.56543">
        <ele>1368.8</ele>
        <time>2023-01-21T13:49:23.000Z</time>
      </trkpt>
      <trkpt lat="46.27446" lon="6.56535">
        <ele>1366.8</ele>
        <time>2023-01-21T13:49:24.000Z</time>
      </trkpt>
      <trkpt lat="46.27447" lon="6.56525">
        <ele>1364.6</ele>
        <time>2023-01-21T13:49:25.000Z</time>
      </trkpt>
      <trkpt lat="46.27448" lon="6.56515">
        <ele>1362.1</ele>
        <time>2023-01-21T13:49:26.000Z</time>
      </trkpt>
      <trkpt lat="46.27449" lon="6.56503">
        <ele>1359.9</ele>
        <time>2023-01-21T13:49:27.000Z</time>
      </trkpt>
      <trkpt lat="46.27451" lon="6.56492">
        <ele>1357.6</ele>
        <time>2023-01-21T13:49:28.000Z</time>
      </trkpt>
      <trkpt lat="46.27453" lon="6.56481">
        <ele>1356</ele>
        <time>2023-01-21T13:49:29.000Z</time>
      </trkpt>
      <trkpt lat="46.27456" lon="6.56471">
        <ele>1353.8</ele>
        <time>2023-01-21T13:49:30.000Z</time>
      </trkpt>
      <trkpt lat="46.27459" lon="6.56463">
        <ele>1351.6</ele>
        <time>2023-01-21T13:49:31.000Z</time>
      </trkpt>
      <trkpt lat="46.27461" lon="6.56456">
        <ele>1349.7</ele>
        <time>2023-01-21T13:49:32.000Z</time>
      </trkpt>
      <trkpt lat="46.27462" lon="6.56451">
        <ele>1347.9</ele>
        <time>2023-01-21T13:49:33.000Z</time>
      </trkpt>
      <trkpt lat="46.27459" lon="6.56448">
        <ele>1346.1</ele>
        <time>2023-01-21T13:49:34.000Z</time>
      </trkpt>
      <trkpt lat="46.27457" lon="6.56451">
        <ele>1344.3</ele>
        <time>2023-01-21T13:49:35.000Z</time>
      </trkpt>
      <trkpt lat="46.27455" lon="6.56455">
        <ele>1342.3</ele>
        <time>2023-01-21T13:49:36.000Z</time>
      </trkpt>
      <trkpt lat="46.27453" lon="6.56457">
        <ele>1342.4</ele>
        <time>2023-01-21T13:49:37.000Z</time>
      </trkpt>
      <trkpt lat="46.27452" lon="6.56458">
        <ele>1341.2</ele>
        <time>2023-01-21T13:49:38.000Z</time>
      </trkpt>
      <trkpt lat="46.27452" lon="6.56458">
        <ele>1341.2</ele>
        <time>2023-01-21T13:49:39.000Z</time>
      </trkpt>
      <trkpt lat="46.27452" lon="6.56458">
        <ele>1341.2</ele>
        <time>2023-01-21T13:49:40.000Z</time>
      </trkpt>
      <trkpt lat="46.27452" lon="6.56458">
        <ele>1341.2</ele>
        <time>2023-01-21T13:49:41.000Z</time>
      </trkpt>
      <trkpt lat="46.27452" lon="6.56458">
        <ele>1341.2</ele>
        <time>2023-01-21T13:49:42.000Z</time>
      </trkpt>
      <trkpt lat="46.27452" lon="6.56458">
        <ele>1341.2</ele>
        <time>2023-01-21T13:49:43.000Z</time>
      </trkpt>
      <trkpt lat="46.27452" lon="6.56458">
        <ele>1337.8</ele>
        <time>2023-01-21T13:49:44.000Z</time>
      </trkpt>
      <trkpt lat="46.27452" lon="6.56458">
        <ele>1337.8</ele>
        <time>2023-01-21T13:49:45.000Z</time>
      </trkpt>
      <trkpt lat="46.27452" lon="6.56458">
        <ele>1337.8</ele>
        <time>2023-01-21T13:49:46.000Z</time>
      </trkpt>
      <trkpt lat="46.27452" lon="6.56458">
        <ele>1337.8</ele>
        <time>2023-01-21T13:49:47.000Z</time>
      </trkpt>
      <trkpt lat="46.27452" lon="6.56458">
        <ele>1337.8</ele>
        <time>2023-01-21T13:49:48.000Z</time>
      </trkpt>
      <trkpt lat="46.27452" lon="6.56458">
        <ele>1337.8</ele>
        <time>2023-01-21T13:49:49.000Z</time>
      </trkpt>
      <trkpt lat="46.27452" lon="6.56458">
        <ele>1337.8</ele>
        <time>2023-01-21T13:49:50.000Z</time>
      </trkpt>
      <trkpt lat="46.27452" lon="6.56458">
        <ele>1337.8</ele>
        <time>2023-01-21T13:49:51.000Z</time>
      </trkpt>
      <trkpt lat="46.27452" lon="6.56458">
        <ele>1337.8</ele>
        <time>2023-01-21T13:49:52.000Z</time>
      </trkpt>
      <trkpt lat="46.27452" lon="6.56458">
        <ele>1337.8</ele>
        <time>2023-01-21T13:49:53.000Z</time>
      </trkpt>
      <trkpt lat="46.27452" lon="6.56458">
        <ele>1337.8</ele>
        <time>2023-01-21T13:49:54.000Z</time>
      </trkpt>
      <trkpt lat="46.27452" lon="6.56458">
        <ele>1337.8</ele>
        <time>2023-01-21T13:49:55.000Z</time>
      </trkpt>
      <trkpt lat="46.27452" lon="6.56458">
        <ele>1337.8</ele>
        <time>2023-01-21T13:49:56.000Z</time>
      </trkpt>
      <trkpt lat="46.27452" lon="6.56458">
        <ele>1337.8</ele>
        <time>2023-01-21T13:49:57.000Z</time>
      </trkpt>
      <trkpt lat="46.27452" lon="6.56458">
        <ele>1337.8</ele>
        <time>2023-01-21T13:49:58.000Z</time>
      </trkpt>
      <trkpt lat="46.27452" lon="6.56458">
        <ele>1337.8</ele>
        <time>2023-01-21T13:49:59.000Z</time>
      </trkpt>
      <trkpt lat="46.27452" lon="6.56458">
        <ele>1337.8</ele>
        <time>2023-01-21T13:50:00.000Z</time>
      </trkpt>
      <trkpt lat="46.27452" lon="6.56458">
        <ele>1337.8</ele>
        <time>2023-01-21T13:50:01.000Z</time>
      </trkpt>
      <trkpt lat="46.27452" lon="6.56458">
        <ele>1337.8</ele>
        <time>2023-01-21T13:50:02.000Z</time>
      </trkpt>
      <trkpt lat="46.27452" lon="6.56458">
        <ele>1337.8</ele>
        <time>2023-01-21T13:50:03.000Z</time>
      </trkpt>
      <trkpt lat="46.27452" lon="6.56458">
        <ele>1337.8</ele>
        <time>2023-01-21T13:50:04.000Z</time>
      </trkpt>
      <trkpt lat="46.27452" lon="6.56458">
        <ele>1337.8</ele>
        <time>2023-01-21T13:50:05.000Z</time>
      </trkpt>
      <trkpt lat="46.27452" lon="6.56458">
        <ele>1337.8</ele>
        <time>2023-01-21T13:50:06.000Z</time>
      </trkpt>
      <trkpt lat="46.27452" lon="6.56458">
        <ele>1337.8</ele>
        <time>2023-01-21T13:50:07.000Z</time>
      </trkpt>
      <trkpt lat="46.27452" lon="6.56458">
        <ele>1337.8</ele>
        <time>2023-01-21T13:50:08.000Z</time>
      </trkpt>
      <trkpt lat="46.27452" lon="6.56458">
        <ele>1337.8</ele>
        <time>2023-01-21T13:50:09.000Z</time>
      </trkpt>
      <trkpt lat="46.27452" lon="6.56458">
        <ele>1337.8</ele>
        <time>2023-01-21T13:50:10.000Z</time>
      </trkpt>
      <trkpt lat="46.27452" lon="6.56458">
        <ele>1337.8</ele>
        <time>2023-01-21T13:50:11.000Z</time>
      </trkpt>
      <trkpt lat="46.27449" lon="6.56471">
        <ele>1338.1</ele>
        <time>2023-01-21T13:50:12.000Z</time>
      </trkpt>
      <trkpt lat="46.27449" lon="6.5647">
        <ele>1338</ele>
        <time>2023-01-21T13:50:13.000Z</time>
      </trkpt>
      <trkpt lat="46.27449" lon="6.5647">
        <ele>1337.9</ele>
        <time>2023-01-21T13:50:14.000Z</time>
      </trkpt>
      <trkpt lat="46.27449" lon="6.56469">
        <ele>1338</ele>
        <time>2023-01-21T13:50:15.000Z</time>
      </trkpt>
      <trkpt lat="46.27449" lon="6.56469">
        <ele>1338</ele>
        <time>2023-01-21T13:50:16.000Z</time>
      </trkpt>
      <trkpt lat="46.27449" lon="6.56469">
        <ele>1338</ele>
        <time>2023-01-21T13:50:17.000Z</time>
      </trkpt>
      <trkpt lat="46.27449" lon="6.56469">
        <ele>1338</ele>
        <time>2023-01-21T13:50:18.000Z</time>
      </trkpt>
      <trkpt lat="46.27449" lon="6.56469">
        <ele>1338</ele>
        <time>2023-01-21T13:50:19.000Z</time>
      </trkpt>
      <trkpt lat="46.27449" lon="6.56469">
        <ele>1338</ele>
        <time>2023-01-21T13:50:20.000Z</time>
      </trkpt>
      <trkpt lat="46.27449" lon="6.56469">
        <ele>1338</ele>
        <time>2023-01-21T13:50:21.000Z</time>
      </trkpt>
      <trkpt lat="46.27449" lon="6.56469">
        <ele>1338</ele>
        <time>2023-01-21T13:50:22.000Z</time>
      </trkpt>
      <trkpt lat="46.27449" lon="6.56469">
        <ele>1338</ele>
        <time>2023-01-21T13:50:23.000Z</time>
      </trkpt>
      <trkpt lat="46.27449" lon="6.56469">
        <ele>1338</ele>
        <time>2023-01-21T13:50:24.000Z</time>
      </trkpt>
      <trkpt lat="46.27449" lon="6.56469">
        <ele>1338</ele>
        <time>2023-01-21T13:50:25.000Z</time>
      </trkpt>
      <trkpt lat="46.27449" lon="6.56469">
        <ele>1338</ele>
        <time>2023-01-21T13:50:26.000Z</time>
      </trkpt>
      <trkpt lat="46.27449" lon="6.56469">
        <ele>1338</ele>
        <time>2023-01-21T13:50:27.000Z</time>
      </trkpt>
      <trkpt lat="46.27449" lon="6.56469">
        <ele>1338</ele>
        <time>2023-01-21T13:50:28.000Z</time>
      </trkpt>
      <trkpt lat="46.27449" lon="6.56469">
        <ele>1338</ele>
        <time>2023-01-21T13:50:29.000Z</time>
      </trkpt>
      <trkpt lat="46.27449" lon="6.56469">
        <ele>1338</ele>
        <time>2023-01-21T13:50:30.000Z</time>
      </trkpt>
      <trkpt lat="46.27449" lon="6.56469">
        <ele>1338</ele>
        <time>2023-01-21T13:50:31.000Z</time>
      </trkpt>
      <trkpt lat="46.27449" lon="6.56469">
        <ele>1338</ele>
        <time>2023-01-21T13:50:32.000Z</time>
      </trkpt>
      <trkpt lat="46.27449" lon="6.56469">
        <ele>1338</ele>
        <time>2023-01-21T13:50:33.000Z</time>
      </trkpt>
      <trkpt lat="46.27449" lon="6.56469">
        <ele>1338</ele>
        <time>2023-01-21T13:50:34.000Z</time>
      </trkpt>
      <trkpt lat="46.27449" lon="6.56469">
        <ele>1338</ele>
        <time>2023-01-21T13:50:35.000Z</time>
      </trkpt>
      <trkpt lat="46.27449" lon="6.56469">
        <ele>1338</ele>
        <time>2023-01-21T13:50:36.000Z</time>
      </trkpt>
      <trkpt lat="46.27449" lon="6.56469">
        <ele>1338</ele>
        <time>2023-01-21T13:50:37.000Z</time>
      </trkpt>
      <trkpt lat="46.27449" lon="6.56469">
        <ele>1338</ele>
        <time>2023-01-21T13:50:38.000Z</time>
      </trkpt>
      <trkpt lat="46.27449" lon="6.56469">
        <ele>1338</ele>
        <time>2023-01-21T13:50:39.000Z</time>
      </trkpt>
      <trkpt lat="46.27449" lon="6.56469">
        <ele>1338</ele>
        <time>2023-01-21T13:50:40.000Z</time>
      </trkpt>
      <trkpt lat="46.27449" lon="6.56469">
        <ele>1338</ele>
        <time>2023-01-21T13:50:41.000Z</time>
      </trkpt>
      <trkpt lat="46.27449" lon="6.56469">
        <ele>1338</ele>
        <time>2023-01-21T13:50:42.000Z</time>
      </trkpt>
      <trkpt lat="46.27449" lon="6.56469">
        <ele>1338</ele>
        <time>2023-01-21T13:50:43.000Z</time>
      </trkpt>
      <trkpt lat="46.27449" lon="6.56469">
        <ele>1338</ele>
        <time>2023-01-21T13:50:44.000Z</time>
      </trkpt>
      <trkpt lat="46.27449" lon="6.56469">
        <ele>1338</ele>
        <time>2023-01-21T13:50:45.000Z</time>
      </trkpt>
      <trkpt lat="46.27449" lon="6.56469">
        <ele>1338</ele>
        <time>2023-01-21T13:50:46.000Z</time>
      </trkpt>
      <trkpt lat="46.27449" lon="6.56469">
        <ele>1338</ele>
        <time>2023-01-21T13:50:47.000Z</time>
      </trkpt>
      <trkpt lat="46.27449" lon="6.56469">
        <ele>1338</ele>
        <time>2023-01-21T13:50:48.000Z</time>
      </trkpt>
      <trkpt lat="46.27449" lon="6.56469">
        <ele>1338</ele>
        <time>2023-01-21T13:50:49.000Z</time>
      </trkpt>
      <trkpt lat="46.27449" lon="6.56469">
        <ele>1338</ele>
        <time>2023-01-21T13:50:50.000Z</time>
      </trkpt>
      <trkpt lat="46.27449" lon="6.56469">
        <ele>1338</ele>
        <time>2023-01-21T13:50:51.000Z</time>
      </trkpt>
      <trkpt lat="46.27449" lon="6.56469">
        <ele>1338</ele>
        <time>2023-01-21T13:50:52.000Z</time>
      </trkpt>
      <trkpt lat="46.27449" lon="6.56469">
        <ele>1338</ele>
        <time>2023-01-21T13:50:53.000Z</time>
      </trkpt>
      <trkpt lat="46.27449" lon="6.56469">
        <ele>1338</ele>
        <time>2023-01-21T13:50:54.000Z</time>
      </trkpt>
      <trkpt lat="46.27449" lon="6.56469">
        <ele>1338</ele>
        <time>2023-01-21T13:50:55.000Z</time>
      </trkpt>
      <trkpt lat="46.27449" lon="6.56469">
        <ele>1338</ele>
        <time>2023-01-21T13:50:56.000Z</time>
      </trkpt>
      <trkpt lat="46.27449" lon="6.56469">
        <ele>1338</ele>
        <time>2023-01-21T13:50:57.000Z</time>
      </trkpt>
      <trkpt lat="46.27449" lon="6.56469">
        <ele>1338</ele>
        <time>2023-01-21T13:50:58.000Z</time>
      </trkpt>
      <trkpt lat="46.27449" lon="6.56469">
        <ele>1338</ele>
        <time>2023-01-21T13:50:59.000Z</time>
      </trkpt>
      <trkpt lat="46.27449" lon="6.56469">
        <ele>1338</ele>
        <time>2023-01-21T13:51:00.000Z</time>
      </trkpt>
      <trkpt lat="46.27449" lon="6.56469">
        <ele>1338</ele>
        <time>2023-01-21T13:51:01.000Z</time>
      </trkpt>
      <trkpt lat="46.27449" lon="6.56469">
        <ele>1338</ele>
        <time>2023-01-21T13:51:02.000Z</time>
      </trkpt>
      <trkpt lat="46.27449" lon="6.56469">
        <ele>1338</ele>
        <time>2023-01-21T13:51:03.000Z</time>
      </trkpt>
      <trkpt lat="46.27449" lon="6.56469">
        <ele>1338</ele>
        <time>2023-01-21T13:51:04.000Z</time>
      </trkpt>
      <trkpt lat="46.27449" lon="6.56469">
        <ele>1338</ele>
        <time>2023-01-21T13:51:05.000Z</time>
      </trkpt>
      <trkpt lat="46.27449" lon="6.56469">
        <ele>1338</ele>
        <time>2023-01-21T13:51:06.000Z</time>
      </trkpt>
      <trkpt lat="46.27449" lon="6.56469">
        <ele>1338</ele>
        <time>2023-01-21T13:51:07.000Z</time>
      </trkpt>
      <trkpt lat="46.27449" lon="6.56469">
        <ele>1338</ele>
        <time>2023-01-21T13:51:08.000Z</time>
      </trkpt>
      <trkpt lat="46.27449" lon="6.56469">
        <ele>1338</ele>
        <time>2023-01-21T13:51:09.000Z</time>
      </trkpt>
      <trkpt lat="46.27449" lon="6.56469">
        <ele>1338</ele>
        <time>2023-01-21T13:51:10.000Z</time>
      </trkpt>
      <trkpt lat="46.27449" lon="6.56469">
        <ele>1338</ele>
        <time>2023-01-21T13:51:11.000Z</time>
      </trkpt>
      <trkpt lat="46.27449" lon="6.56469">
        <ele>1338</ele>
        <time>2023-01-21T13:51:12.000Z</time>
      </trkpt>
      <trkpt lat="46.27449" lon="6.56469">
        <ele>1338</ele>
        <time>2023-01-21T13:51:13.000Z</time>
      </trkpt>
      <trkpt lat="46.27449" lon="6.56469">
        <ele>1334.9</ele>
        <time>2023-01-21T13:51:14.000Z</time>
      </trkpt>
      <trkpt lat="46.27449" lon="6.56469">
        <ele>1334.9</ele>
        <time>2023-01-21T13:51:15.000Z</time>
      </trkpt>
      <trkpt lat="46.27449" lon="6.56469">
        <ele>1334.9</ele>
        <time>2023-01-21T13:51:16.000Z</time>
      </trkpt>
      <trkpt lat="46.27449" lon="6.56469">
        <ele>1334.9</ele>
        <time>2023-01-21T13:51:17.000Z</time>
      </trkpt>
      <trkpt lat="46.27442" lon="6.56463">
        <ele>1333.9</ele>
        <time>2023-01-21T13:51:18.000Z</time>
      </trkpt>
      <trkpt lat="46.2744" lon="6.56458">
        <ele>1333.8</ele>
        <time>2023-01-21T13:51:19.000Z</time>
      </trkpt>
      <trkpt lat="46.27437" lon="6.56454">
        <ele>1333.4</ele>
        <time>2023-01-21T13:51:20.000Z</time>
      </trkpt>
      <trkpt lat="46.27433" lon="6.56452">
        <ele>1332.9</ele>
        <time>2023-01-21T13:51:21.000Z</time>
      </trkpt>
      <trkpt lat="46.2743" lon="6.56448">
        <ele>1331.9</ele>
        <time>2023-01-21T13:51:22.000Z</time>
      </trkpt>
      <trkpt lat="46.27429" lon="6.56441">
        <ele>1331.1</ele>
        <time>2023-01-21T13:51:23.000Z</time>
      </trkpt>
      <trkpt lat="46.27427" lon="6.56434">
        <ele>1330.6</ele>
        <time>2023-01-21T13:51:24.000Z</time>
      </trkpt>
      <trkpt lat="46.27425" lon="6.56429">
        <ele>1329.3</ele>
        <time>2023-01-21T13:51:25.000Z</time>
      </trkpt>
      <trkpt lat="46.27423" lon="6.56425">
        <ele>1327.8</ele>
        <time>2023-01-21T13:51:26.000Z</time>
      </trkpt>
      <trkpt lat="46.27421" lon="6.56419">
        <ele>1326.6</ele>
        <time>2023-01-21T13:51:27.000Z</time>
      </trkpt>
      <trkpt lat="46.27418" lon="6.56412">
        <ele>1325.4</ele>
        <time>2023-01-21T13:51:28.000Z</time>
      </trkpt>
      <trkpt lat="46.27416" lon="6.56402">
        <ele>1323.9</ele>
        <time>2023-01-21T13:51:29.000Z</time>
      </trkpt>
      <trkpt lat="46.27414" lon="6.56391">
        <ele>1322.3</ele>
        <time>2023-01-21T13:51:30.000Z</time>
      </trkpt>
      <trkpt lat="46.27414" lon="6.56383">
        <ele>1320.5</ele>
        <time>2023-01-21T13:51:31.000Z</time>
      </trkpt>
      <trkpt lat="46.27414" lon="6.56376">
        <ele>1318.6</ele>
        <time>2023-01-21T13:51:32.000Z</time>
      </trkpt>
      <trkpt lat="46.27415" lon="6.56371">
        <ele>1316.4</ele>
        <time>2023-01-21T13:51:33.000Z</time>
      </trkpt>
      <trkpt lat="46.27414" lon="6.56365">
        <ele>1313.8</ele>
        <time>2023-01-21T13:51:34.000Z</time>
      </trkpt>
      <trkpt lat="46.27413" lon="6.56359">
        <ele>1311.2</ele>
        <time>2023-01-21T13:51:35.000Z</time>
      </trkpt>
      <trkpt lat="46.27412" lon="6.5635">
        <ele>1308.1</ele>
        <time>2023-01-21T13:51:36.000Z</time>
      </trkpt>
      <trkpt lat="46.27412" lon="6.56342">
        <ele>1304.9</ele>
        <time>2023-01-21T13:51:37.000Z</time>
      </trkpt>
      <trkpt lat="46.27413" lon="6.56334">
        <ele>1303.5</ele>
        <time>2023-01-21T13:51:38.000Z</time>
      </trkpt>
      <trkpt lat="46.27414" lon="6.56328">
        <ele>1300.7</ele>
        <time>2023-01-21T13:51:39.000Z</time>
      </trkpt>
      <trkpt lat="46.27414" lon="6.56323">
        <ele>1297.8</ele>
        <time>2023-01-21T13:51:40.000Z</time>
      </trkpt>
      <trkpt lat="46.27415" lon="6.56319">
        <ele>1294.7</ele>
        <time>2023-01-21T13:51:41.000Z</time>
      </trkpt>
      <trkpt lat="46.27417" lon="6.56316">
        <ele>1291.8</ele>
        <time>2023-01-21T13:51:42.000Z</time>
      </trkpt>
      <trkpt lat="46.27418" lon="6.56315">
        <ele>1289.4</ele>
        <time>2023-01-21T13:51:43.000Z</time>
      </trkpt>
      <trkpt lat="46.27419" lon="6.56316">
        <ele>1287</ele>
        <time>2023-01-21T13:51:44.000Z</time>
      </trkpt>
      <trkpt lat="46.27419" lon="6.56316">
        <ele>1286.5</ele>
        <time>2023-01-21T13:51:45.000Z</time>
      </trkpt>
      <trkpt lat="46.27419" lon="6.56316">
        <ele>1286.5</ele>
        <time>2023-01-21T13:51:46.000Z</time>
      </trkpt>
      <trkpt lat="46.27419" lon="6.56316">
        <ele>1286.5</ele>
        <time>2023-01-21T13:51:47.000Z</time>
      </trkpt>
      <trkpt lat="46.27419" lon="6.56316">
        <ele>1286.5</ele>
        <time>2023-01-21T13:51:48.000Z</time>
      </trkpt>
      <trkpt lat="46.27419" lon="6.56316">
        <ele>1286.5</ele>
        <time>2023-01-21T13:51:49.000Z</time>
      </trkpt>
      <trkpt lat="46.27419" lon="6.56316">
        <ele>1286.5</ele>
        <time>2023-01-21T13:51:50.000Z</time>
      </trkpt>
      <trkpt lat="46.27419" lon="6.56316">
        <ele>1283.1</ele>
        <time>2023-01-21T13:51:51.000Z</time>
      </trkpt>
      <trkpt lat="46.27419" lon="6.56316">
        <ele>1283.1</ele>
        <time>2023-01-21T13:51:52.000Z</time>
      </trkpt>
      <trkpt lat="46.27419" lon="6.56316">
        <ele>1283.1</ele>
        <time>2023-01-21T13:51:53.000Z</time>
      </trkpt>
      <trkpt lat="46.27419" lon="6.56316">
        <ele>1283.1</ele>
        <time>2023-01-21T13:51:54.000Z</time>
      </trkpt>
      <trkpt lat="46.27419" lon="6.56316">
        <ele>1283.1</ele>
        <time>2023-01-21T13:51:55.000Z</time>
      </trkpt>
      <trkpt lat="46.27419" lon="6.56316">
        <ele>1283.1</ele>
        <time>2023-01-21T13:51:56.000Z</time>
      </trkpt>
      <trkpt lat="46.27419" lon="6.56316">
        <ele>1283.1</ele>
        <time>2023-01-21T13:51:57.000Z</time>
      </trkpt>
      <trkpt lat="46.27419" lon="6.56316">
        <ele>1283.1</ele>
        <time>2023-01-21T13:51:58.000Z</time>
      </trkpt>
      <trkpt lat="46.27419" lon="6.56316">
        <ele>1283.1</ele>
        <time>2023-01-21T13:51:59.000Z</time>
      </trkpt>
      <trkpt lat="46.27419" lon="6.56316">
        <ele>1283.1</ele>
        <time>2023-01-21T13:52:00.000Z</time>
      </trkpt>
      <trkpt lat="46.27419" lon="6.56316">
        <ele>1283.1</ele>
        <time>2023-01-21T13:52:01.000Z</time>
      </trkpt>
      <trkpt lat="46.27419" lon="6.56316">
        <ele>1283.1</ele>
        <time>2023-01-21T13:52:02.000Z</time>
      </trkpt>
      <trkpt lat="46.27419" lon="6.56316">
        <ele>1283.1</ele>
        <time>2023-01-21T13:52:03.000Z</time>
      </trkpt>
      <trkpt lat="46.27419" lon="6.56316">
        <ele>1283.1</ele>
        <time>2023-01-21T13:52:04.000Z</time>
      </trkpt>
      <trkpt lat="46.27419" lon="6.56316">
        <ele>1283.1</ele>
        <time>2023-01-21T13:52:05.000Z</time>
      </trkpt>
      <trkpt lat="46.27419" lon="6.56316">
        <ele>1283.1</ele>
        <time>2023-01-21T13:52:06.000Z</time>
      </trkpt>
      <trkpt lat="46.27419" lon="6.56316">
        <ele>1283.1</ele>
        <time>2023-01-21T13:52:07.000Z</time>
      </trkpt>
      <trkpt lat="46.27419" lon="6.56316">
        <ele>1283.1</ele>
        <time>2023-01-21T13:52:08.000Z</time>
      </trkpt>
      <trkpt lat="46.27419" lon="6.56316">
        <ele>1283.1</ele>
        <time>2023-01-21T13:52:09.000Z</time>
      </trkpt>
      <trkpt lat="46.27419" lon="6.56316">
        <ele>1283.1</ele>
        <time>2023-01-21T13:52:10.000Z</time>
      </trkpt>
      <trkpt lat="46.27419" lon="6.56316">
        <ele>1283.1</ele>
        <time>2023-01-21T13:52:11.000Z</time>
      </trkpt>
      <trkpt lat="46.27419" lon="6.56316">
        <ele>1283.1</ele>
        <time>2023-01-21T13:52:12.000Z</time>
      </trkpt>
      <trkpt lat="46.27419" lon="6.56316">
        <ele>1283.1</ele>
        <time>2023-01-21T13:52:13.000Z</time>
      </trkpt>
      <trkpt lat="46.27419" lon="6.56316">
        <ele>1283.1</ele>
        <time>2023-01-21T13:52:14.000Z</time>
      </trkpt>
      <trkpt lat="46.27419" lon="6.56316">
        <ele>1283.1</ele>
        <time>2023-01-21T13:52:15.000Z</time>
      </trkpt>
      <trkpt lat="46.27419" lon="6.56316">
        <ele>1283.1</ele>
        <time>2023-01-21T13:52:16.000Z</time>
      </trkpt>
      <trkpt lat="46.27419" lon="6.56316">
        <ele>1283.1</ele>
        <time>2023-01-21T13:52:17.000Z</time>
      </trkpt>
      <trkpt lat="46.27419" lon="6.56316">
        <ele>1283.1</ele>
        <time>2023-01-21T13:52:18.000Z</time>
      </trkpt>
      <trkpt lat="46.27419" lon="6.56316">
        <ele>1283.1</ele>
        <time>2023-01-21T13:52:19.000Z</time>
      </trkpt>
      <trkpt lat="46.27419" lon="6.56316">
        <ele>1283.1</ele>
        <time>2023-01-21T13:52:20.000Z</time>
      </trkpt>
      <trkpt lat="46.27419" lon="6.56316">
        <ele>1283.1</ele>
        <time>2023-01-21T13:52:21.000Z</time>
      </trkpt>
      <trkpt lat="46.2741" lon="6.56314">
        <ele>1280.2</ele>
        <time>2023-01-21T13:52:22.000Z</time>
      </trkpt>
      <trkpt lat="46.27408" lon="6.56317">
        <ele>1280</ele>
        <time>2023-01-21T13:52:23.000Z</time>
      </trkpt>
      <trkpt lat="46.27405" lon="6.5632">
        <ele>1279.8</ele>
        <time>2023-01-21T13:52:24.000Z</time>
      </trkpt>
      <trkpt lat="46.27404" lon="6.56323">
        <ele>1279.5</ele>
        <time>2023-01-21T13:52:25.000Z</time>
      </trkpt>
      <trkpt lat="46.27402" lon="6.56327">
        <ele>1279.3</ele>
        <time>2023-01-21T13:52:26.000Z</time>
      </trkpt>
      <trkpt lat="46.27401" lon="6.56331">
        <ele>1279</ele>
        <time>2023-01-21T13:52:27.000Z</time>
      </trkpt>
      <trkpt lat="46.27399" lon="6.56333">
        <ele>1278.6</ele>
        <time>2023-01-21T13:52:28.000Z</time>
      </trkpt>
      <trkpt lat="46.27398" lon="6.56336">
        <ele>1278.2</ele>
        <time>2023-01-21T13:52:29.000Z</time>
      </trkpt>
      <trkpt lat="46.27397" lon="6.56337">
        <ele>1278.1</ele>
        <time>2023-01-21T13:52:30.000Z</time>
      </trkpt>
      <trkpt lat="46.27397" lon="6.56338">
        <ele>1278</ele>
        <time>2023-01-21T13:52:31.000Z</time>
      </trkpt>
      <trkpt lat="46.27397" lon="6.56339">
        <ele>1278.1</ele>
        <time>2023-01-21T13:52:32.000Z</time>
      </trkpt>
      <trkpt lat="46.27397" lon="6.56339">
        <ele>1278.1</ele>
        <time>2023-01-21T13:52:33.000Z</time>
      </trkpt>
      <trkpt lat="46.27397" lon="6.56339">
        <ele>1278.1</ele>
        <time>2023-01-21T13:52:34.000Z</time>
      </trkpt>
      <trkpt lat="46.27397" lon="6.56339">
        <ele>1278.1</ele>
        <time>2023-01-21T13:52:35.000Z</time>
      </trkpt>
      <trkpt lat="46.27397" lon="6.56339">
        <ele>1278.1</ele>
        <time>2023-01-21T13:52:36.000Z</time>
      </trkpt>
      <trkpt lat="46.27397" lon="6.56339">
        <ele>1278.1</ele>
        <time>2023-01-21T13:52:37.000Z</time>
      </trkpt>
      <trkpt lat="46.27391" lon="6.56336">
        <ele>1277.2</ele>
        <time>2023-01-21T13:52:38.000Z</time>
      </trkpt>
      <trkpt lat="46.27391" lon="6.5633">
        <ele>1276.6</ele>
        <time>2023-01-21T13:52:39.000Z</time>
      </trkpt>
      <trkpt lat="46.27392" lon="6.56323">
        <ele>1275.8</ele>
        <time>2023-01-21T13:52:40.000Z</time>
      </trkpt>
      <trkpt lat="46.27392" lon="6.56317">
        <ele>1275</ele>
        <time>2023-01-21T13:52:41.000Z</time>
      </trkpt>
      <trkpt lat="46.27392" lon="6.56312">
        <ele>1274.4</ele>
        <time>2023-01-21T13:52:42.000Z</time>
      </trkpt>
      <trkpt lat="46.27392" lon="6.56308">
        <ele>1273.7</ele>
        <time>2023-01-21T13:52:43.000Z</time>
      </trkpt>
      <trkpt lat="46.2739" lon="6.56302">
        <ele>1271.7</ele>
        <time>2023-01-21T13:52:44.000Z</time>
      </trkpt>
      <trkpt lat="46.27388" lon="6.56296">
        <ele>1270</ele>
        <time>2023-01-21T13:52:45.000Z</time>
      </trkpt>
      <trkpt lat="46.27388" lon="6.56289">
        <ele>1268.3</ele>
        <time>2023-01-21T13:52:46.000Z</time>
      </trkpt>
      <trkpt lat="46.27388" lon="6.56284">
        <ele>1267.1</ele>
        <time>2023-01-21T13:52:47.000Z</time>
      </trkpt>
      <trkpt lat="46.27386" lon="6.56279">
        <ele>1265.5</ele>
        <time>2023-01-21T13:52:48.000Z</time>
      </trkpt>
      <trkpt lat="46.27384" lon="6.56273">
        <ele>1263.3</ele>
        <time>2023-01-21T13:52:49.000Z</time>
      </trkpt>
      <trkpt lat="46.27382" lon="6.56265">
        <ele>1260.4</ele>
        <time>2023-01-21T13:52:50.000Z</time>
      </trkpt>
      <trkpt lat="46.27381" lon="6.56257">
        <ele>1258.2</ele>
        <time>2023-01-21T13:52:51.000Z</time>
      </trkpt>
      <trkpt lat="46.27382" lon="6.56249">
        <ele>1255.1</ele>
        <time>2023-01-21T13:52:52.000Z</time>
      </trkpt>
      <trkpt lat="46.27383" lon="6.56242">
        <ele>1252.6</ele>
        <time>2023-01-21T13:52:53.000Z</time>
      </trkpt>
      <trkpt lat="46.27384" lon="6.56239">
        <ele>1250.5</ele>
        <time>2023-01-21T13:52:54.000Z</time>
      </trkpt>
      <trkpt lat="46.27385" lon="6.56238">
        <ele>1248.7</ele>
        <time>2023-01-21T13:52:55.000Z</time>
      </trkpt>
      <trkpt lat="46.27385" lon="6.56238">
        <ele>1247</ele>
        <time>2023-01-21T13:52:56.000Z</time>
      </trkpt>
      <trkpt lat="46.27385" lon="6.56238">
        <ele>1247.7</ele>
        <time>2023-01-21T13:52:57.000Z</time>
      </trkpt>
      <trkpt lat="46.27384" lon="6.56239">
        <ele>1248.3</ele>
        <time>2023-01-21T13:52:58.000Z</time>
      </trkpt>
      <trkpt lat="46.27384" lon="6.56239">
        <ele>1248.3</ele>
        <time>2023-01-21T13:52:59.000Z</time>
      </trkpt>
      <trkpt lat="46.27384" lon="6.56239">
        <ele>1248.3</ele>
        <time>2023-01-21T13:53:00.000Z</time>
      </trkpt>
      <trkpt lat="46.27384" lon="6.56239">
        <ele>1248.3</ele>
        <time>2023-01-21T13:53:01.000Z</time>
      </trkpt>
      <trkpt lat="46.27384" lon="6.56239">
        <ele>1248.3</ele>
        <time>2023-01-21T13:53:02.000Z</time>
      </trkpt>
      <trkpt lat="46.27384" lon="6.56239">
        <ele>1248.3</ele>
        <time>2023-01-21T13:53:03.000Z</time>
      </trkpt>
      <trkpt lat="46.27384" lon="6.56239">
        <ele>1248.3</ele>
        <time>2023-01-21T13:53:04.000Z</time>
      </trkpt>
      <trkpt lat="46.27384" lon="6.56239">
        <ele>1248.3</ele>
        <time>2023-01-21T13:53:05.000Z</time>
      </trkpt>
      <trkpt lat="46.27384" lon="6.56239">
        <ele>1248.3</ele>
        <time>2023-01-21T13:53:06.000Z</time>
      </trkpt>
      <trkpt lat="46.27384" lon="6.56239">
        <ele>1248.3</ele>
        <time>2023-01-21T13:53:07.000Z</time>
      </trkpt>
      <trkpt lat="46.27384" lon="6.56239">
        <ele>1248.3</ele>
        <time>2023-01-21T13:53:08.000Z</time>
      </trkpt>
      <trkpt lat="46.27384" lon="6.56239">
        <ele>1248.3</ele>
        <time>2023-01-21T13:53:09.000Z</time>
      </trkpt>
      <trkpt lat="46.27384" lon="6.56239">
        <ele>1248.3</ele>
        <time>2023-01-21T13:53:10.000Z</time>
      </trkpt>
      <trkpt lat="46.27384" lon="6.56239">
        <ele>1248.3</ele>
        <time>2023-01-21T13:53:11.000Z</time>
      </trkpt>
      <trkpt lat="46.27384" lon="6.56239">
        <ele>1248.3</ele>
        <time>2023-01-21T13:53:12.000Z</time>
      </trkpt>
      <trkpt lat="46.27384" lon="6.56239">
        <ele>1248.3</ele>
        <time>2023-01-21T13:53:13.000Z</time>
      </trkpt>
      <trkpt lat="46.27384" lon="6.56239">
        <ele>1248.3</ele>
        <time>2023-01-21T13:53:14.000Z</time>
      </trkpt>
      <trkpt lat="46.27384" lon="6.56239">
        <ele>1248.3</ele>
        <time>2023-01-21T13:53:15.000Z</time>
      </trkpt>
      <trkpt lat="46.27384" lon="6.56239">
        <ele>1248.3</ele>
        <time>2023-01-21T13:53:16.000Z</time>
      </trkpt>
      <trkpt lat="46.27384" lon="6.56239">
        <ele>1248.3</ele>
        <time>2023-01-21T13:53:17.000Z</time>
      </trkpt>
      <trkpt lat="46.27384" lon="6.56239">
        <ele>1248.3</ele>
        <time>2023-01-21T13:53:18.000Z</time>
      </trkpt>
      <trkpt lat="46.27384" lon="6.56239">
        <ele>1248.3</ele>
        <time>2023-01-21T13:53:19.000Z</time>
      </trkpt>
      <trkpt lat="46.27384" lon="6.56239">
        <ele>1248.3</ele>
        <time>2023-01-21T13:53:20.000Z</time>
      </trkpt>
      <trkpt lat="46.27384" lon="6.56239">
        <ele>1248.3</ele>
        <time>2023-01-21T13:53:21.000Z</time>
      </trkpt>
      <trkpt lat="46.27384" lon="6.56239">
        <ele>1248.3</ele>
        <time>2023-01-21T13:53:22.000Z</time>
      </trkpt>
      <trkpt lat="46.27384" lon="6.56239">
        <ele>1248.3</ele>
        <time>2023-01-21T13:53:23.000Z</time>
      </trkpt>
      <trkpt lat="46.27384" lon="6.56239">
        <ele>1248.3</ele>
        <time>2023-01-21T13:53:24.000Z</time>
      </trkpt>
      <trkpt lat="46.27384" lon="6.56239">
        <ele>1248.3</ele>
        <time>2023-01-21T13:53:25.000Z</time>
      </trkpt>
      <trkpt lat="46.27384" lon="6.56239">
        <ele>1248.3</ele>
        <time>2023-01-21T13:53:26.000Z</time>
      </trkpt>
      <trkpt lat="46.27384" lon="6.56239">
        <ele>1248.3</ele>
        <time>2023-01-21T13:53:27.000Z</time>
      </trkpt>
      <trkpt lat="46.27384" lon="6.56239">
        <ele>1248.3</ele>
        <time>2023-01-21T13:53:28.000Z</time>
      </trkpt>
      <trkpt lat="46.27384" lon="6.56239">
        <ele>1248.3</ele>
        <time>2023-01-21T13:53:29.000Z</time>
      </trkpt>
      <trkpt lat="46.27384" lon="6.56239">
        <ele>1248.3</ele>
        <time>2023-01-21T13:53:30.000Z</time>
      </trkpt>
      <trkpt lat="46.27384" lon="6.56239">
        <ele>1248.3</ele>
        <time>2023-01-21T13:53:31.000Z</time>
      </trkpt>
      <trkpt lat="46.27384" lon="6.56239">
        <ele>1248.3</ele>
        <time>2023-01-21T13:53:32.000Z</time>
      </trkpt>
      <trkpt lat="46.27384" lon="6.56239">
        <ele>1248.3</ele>
        <time>2023-01-21T13:53:33.000Z</time>
      </trkpt>
      <trkpt lat="46.27384" lon="6.56239">
        <ele>1248.3</ele>
        <time>2023-01-21T13:53:34.000Z</time>
      </trkpt>
      <trkpt lat="46.27384" lon="6.56239">
        <ele>1248.3</ele>
        <time>2023-01-21T13:53:35.000Z</time>
      </trkpt>
      <trkpt lat="46.27384" lon="6.56239">
        <ele>1248.3</ele>
        <time>2023-01-21T13:53:36.000Z</time>
      </trkpt>
      <trkpt lat="46.27384" lon="6.56239">
        <ele>1248.3</ele>
        <time>2023-01-21T13:53:37.000Z</time>
      </trkpt>
      <trkpt lat="46.27384" lon="6.56239">
        <ele>1248.3</ele>
        <time>2023-01-21T13:53:38.000Z</time>
      </trkpt>
      <trkpt lat="46.27384" lon="6.56239">
        <ele>1248.3</ele>
        <time>2023-01-21T13:53:39.000Z</time>
      </trkpt>
      <trkpt lat="46.27384" lon="6.56239">
        <ele>1248.3</ele>
        <time>2023-01-21T13:53:40.000Z</time>
      </trkpt>
      <trkpt lat="46.27384" lon="6.56239">
        <ele>1248.3</ele>
        <time>2023-01-21T13:53:41.000Z</time>
      </trkpt>
      <trkpt lat="46.27384" lon="6.56239">
        <ele>1248.3</ele>
        <time>2023-01-21T13:53:42.000Z</time>
      </trkpt>
      <trkpt lat="46.27384" lon="6.56239">
        <ele>1248.3</ele>
        <time>2023-01-21T13:53:43.000Z</time>
      </trkpt>
      <trkpt lat="46.27384" lon="6.56239">
        <ele>1248.3</ele>
        <time>2023-01-21T13:53:44.000Z</time>
      </trkpt>
      <trkpt lat="46.27384" lon="6.56239">
        <ele>1248.3</ele>
        <time>2023-01-21T13:53:45.000Z</time>
      </trkpt>
      <trkpt lat="46.27384" lon="6.56239">
        <ele>1248.3</ele>
        <time>2023-01-21T13:53:46.000Z</time>
      </trkpt>
      <trkpt lat="46.27384" lon="6.56239">
        <ele>1248.3</ele>
        <time>2023-01-21T13:53:47.000Z</time>
      </trkpt>
      <trkpt lat="46.27384" lon="6.56239">
        <ele>1248.3</ele>
        <time>2023-01-21T13:53:48.000Z</time>
      </trkpt>
      <trkpt lat="46.27384" lon="6.56239">
        <ele>1248.3</ele>
        <time>2023-01-21T13:53:49.000Z</time>
      </trkpt>
      <trkpt lat="46.27384" lon="6.56239">
        <ele>1248.3</ele>
        <time>2023-01-21T13:53:50.000Z</time>
      </trkpt>
      <trkpt lat="46.27384" lon="6.56239">
        <ele>1248.3</ele>
        <time>2023-01-21T13:53:51.000Z</time>
      </trkpt>
      <trkpt lat="46.27384" lon="6.56239">
        <ele>1248.3</ele>
        <time>2023-01-21T13:53:52.000Z</time>
      </trkpt>
      <trkpt lat="46.27384" lon="6.56239">
        <ele>1248.3</ele>
        <time>2023-01-21T13:53:53.000Z</time>
      </trkpt>
      <trkpt lat="46.27384" lon="6.56239">
        <ele>1248.3</ele>
        <time>2023-01-21T13:53:54.000Z</time>
      </trkpt>
      <trkpt lat="46.27384" lon="6.56239">
        <ele>1248.3</ele>
        <time>2023-01-21T13:53:55.000Z</time>
      </trkpt>
      <trkpt lat="46.27384" lon="6.56239">
        <ele>1248.3</ele>
        <time>2023-01-21T13:53:56.000Z</time>
      </trkpt>
      <trkpt lat="46.27384" lon="6.56239">
        <ele>1248.3</ele>
        <time>2023-01-21T13:53:57.000Z</time>
      </trkpt>
      <trkpt lat="46.27384" lon="6.56239">
        <ele>1248.3</ele>
        <time>2023-01-21T13:53:58.000Z</time>
      </trkpt>
      <trkpt lat="46.27384" lon="6.56239">
        <ele>1248.3</ele>
        <time>2023-01-21T13:53:59.000Z</time>
      </trkpt>
      <trkpt lat="46.27384" lon="6.56239">
        <ele>1248.3</ele>
        <time>2023-01-21T13:54:00.000Z</time>
      </trkpt>
      <trkpt lat="46.27384" lon="6.56239">
        <ele>1248.3</ele>
        <time>2023-01-21T13:54:01.000Z</time>
      </trkpt>
      <trkpt lat="46.27384" lon="6.56239">
        <ele>1248.3</ele>
        <time>2023-01-21T13:54:02.000Z</time>
      </trkpt>
      <trkpt lat="46.27384" lon="6.56239">
        <ele>1248.3</ele>
        <time>2023-01-21T13:54:03.000Z</time>
      </trkpt>
      <trkpt lat="46.27384" lon="6.56239">
        <ele>1248.3</ele>
        <time>2023-01-21T13:54:04.000Z</time>
      </trkpt>
      <trkpt lat="46.27384" lon="6.56239">
        <ele>1248.3</ele>
        <time>2023-01-21T13:54:05.000Z</time>
      </trkpt>
      <trkpt lat="46.27384" lon="6.56239">
        <ele>1248.3</ele>
        <time>2023-01-21T13:54:06.000Z</time>
      </trkpt>
      <trkpt lat="46.27384" lon="6.56239">
        <ele>1248.3</ele>
        <time>2023-01-21T13:54:07.000Z</time>
      </trkpt>
      <trkpt lat="46.27384" lon="6.56239">
        <ele>1245.3</ele>
        <time>2023-01-21T13:54:08.000Z</time>
      </trkpt>
      <trkpt lat="46.27384" lon="6.56239">
        <ele>1245.3</ele>
        <time>2023-01-21T13:54:09.000Z</time>
      </trkpt>
      <trkpt lat="46.27384" lon="6.56239">
        <ele>1245.3</ele>
        <time>2023-01-21T13:54:10.000Z</time>
      </trkpt>
      <trkpt lat="46.27384" lon="6.56239">
        <ele>1245.3</ele>
        <time>2023-01-21T13:54:11.000Z</time>
      </trkpt>
      <trkpt lat="46.27384" lon="6.56239">
        <ele>1245.3</ele>
        <time>2023-01-21T13:54:12.000Z</time>
      </trkpt>
      <trkpt lat="46.27384" lon="6.56239">
        <ele>1245.3</ele>
        <time>2023-01-21T13:54:13.000Z</time>
      </trkpt>
      <trkpt lat="46.27384" lon="6.56239">
        <ele>1245.3</ele>
        <time>2023-01-21T13:54:14.000Z</time>
      </trkpt>
      <trkpt lat="46.27384" lon="6.56239">
        <ele>1245.3</ele>
        <time>2023-01-21T13:54:15.000Z</time>
      </trkpt>
      <trkpt lat="46.27384" lon="6.56239">
        <ele>1245.3</ele>
        <time>2023-01-21T13:54:16.000Z</time>
      </trkpt>
      <trkpt lat="46.27384" lon="6.56239">
        <ele>1245.3</ele>
        <time>2023-01-21T13:54:17.000Z</time>
      </trkpt>
      <trkpt lat="46.27384" lon="6.56239">
        <ele>1245.3</ele>
        <time>2023-01-21T13:54:18.000Z</time>
      </trkpt>
      <trkpt lat="46.27384" lon="6.56239">
        <ele>1245.3</ele>
        <time>2023-01-21T13:54:19.000Z</time>
      </trkpt>
      <trkpt lat="46.27384" lon="6.56239">
        <ele>1245.3</ele>
        <time>2023-01-21T13:54:20.000Z</time>
      </trkpt>
      <trkpt lat="46.27384" lon="6.56239">
        <ele>1245.3</ele>
        <time>2023-01-21T13:54:21.000Z</time>
      </trkpt>
      <trkpt lat="46.27384" lon="6.56239">
        <ele>1245.3</ele>
        <time>2023-01-21T13:54:22.000Z</time>
      </trkpt>
      <trkpt lat="46.27384" lon="6.56239">
        <ele>1245.3</ele>
        <time>2023-01-21T13:54:23.000Z</time>
      </trkpt>
      <trkpt lat="46.27384" lon="6.56239">
        <ele>1245.3</ele>
        <time>2023-01-21T13:54:24.000Z</time>
      </trkpt>
      <trkpt lat="46.27384" lon="6.56239">
        <ele>1245.3</ele>
        <time>2023-01-21T13:54:25.000Z</time>
      </trkpt>
      <trkpt lat="46.27384" lon="6.56239">
        <ele>1245.3</ele>
        <time>2023-01-21T13:54:26.000Z</time>
      </trkpt>
      <trkpt lat="46.27384" lon="6.56239">
        <ele>1245.3</ele>
        <time>2023-01-21T13:54:27.000Z</time>
      </trkpt>
      <trkpt lat="46.27384" lon="6.56239">
        <ele>1245.3</ele>
        <time>2023-01-21T13:54:28.000Z</time>
      </trkpt>
      <trkpt lat="46.27384" lon="6.56239">
        <ele>1245.3</ele>
        <time>2023-01-21T13:54:29.000Z</time>
      </trkpt>
      <trkpt lat="46.27384" lon="6.56239">
        <ele>1245.3</ele>
        <time>2023-01-21T13:54:30.000Z</time>
      </trkpt>
      <trkpt lat="46.27384" lon="6.56239">
        <ele>1245.3</ele>
        <time>2023-01-21T13:54:31.000Z</time>
      </trkpt>
      <trkpt lat="46.27384" lon="6.56239">
        <ele>1245.3</ele>
        <time>2023-01-21T13:54:32.000Z</time>
      </trkpt>
      <trkpt lat="46.27384" lon="6.56239">
        <ele>1245.3</ele>
        <time>2023-01-21T13:54:33.000Z</time>
      </trkpt>
      <trkpt lat="46.27384" lon="6.56239">
        <ele>1245.3</ele>
        <time>2023-01-21T13:54:34.000Z</time>
      </trkpt>
      <trkpt lat="46.27384" lon="6.56239">
        <ele>1245.3</ele>
        <time>2023-01-21T13:54:35.000Z</time>
      </trkpt>
      <trkpt lat="46.27384" lon="6.56239">
        <ele>1245.3</ele>
        <time>2023-01-21T13:54:36.000Z</time>
      </trkpt>
      <trkpt lat="46.27384" lon="6.56239">
        <ele>1245.3</ele>
        <time>2023-01-21T13:54:37.000Z</time>
      </trkpt>
      <trkpt lat="46.27384" lon="6.56239">
        <ele>1245.3</ele>
        <time>2023-01-21T13:54:38.000Z</time>
      </trkpt>
      <trkpt lat="46.27384" lon="6.56239">
        <ele>1245.3</ele>
        <time>2023-01-21T13:54:39.000Z</time>
      </trkpt>
      <trkpt lat="46.27384" lon="6.56239">
        <ele>1245.3</ele>
        <time>2023-01-21T13:54:40.000Z</time>
      </trkpt>
      <trkpt lat="46.27384" lon="6.56239">
        <ele>1245.3</ele>
        <time>2023-01-21T13:54:41.000Z</time>
      </trkpt>
      <trkpt lat="46.27384" lon="6.56239">
        <ele>1245.3</ele>
        <time>2023-01-21T13:54:42.000Z</time>
      </trkpt>
      <trkpt lat="46.27384" lon="6.56239">
        <ele>1245.3</ele>
        <time>2023-01-21T13:54:43.000Z</time>
      </trkpt>
      <trkpt lat="46.27384" lon="6.56239">
        <ele>1245.3</ele>
        <time>2023-01-21T13:54:44.000Z</time>
      </trkpt>
      <trkpt lat="46.27384" lon="6.56239">
        <ele>1245.3</ele>
        <time>2023-01-21T13:54:45.000Z</time>
      </trkpt>
      <trkpt lat="46.27384" lon="6.56239">
        <ele>1245.3</ele>
        <time>2023-01-21T13:54:46.000Z</time>
      </trkpt>
      <trkpt lat="46.27384" lon="6.56239">
        <ele>1245.3</ele>
        <time>2023-01-21T13:54:47.000Z</time>
      </trkpt>
      <trkpt lat="46.27384" lon="6.56239">
        <ele>1245.3</ele>
        <time>2023-01-21T13:54:48.000Z</time>
      </trkpt>
      <trkpt lat="46.27384" lon="6.56239">
        <ele>1245.3</ele>
        <time>2023-01-21T13:54:49.000Z</time>
      </trkpt>
      <trkpt lat="46.27384" lon="6.56239">
        <ele>1245.3</ele>
        <time>2023-01-21T13:54:50.000Z</time>
      </trkpt>
      <trkpt lat="46.27384" lon="6.56239">
        <ele>1245.3</ele>
        <time>2023-01-21T13:54:51.000Z</time>
      </trkpt>
      <trkpt lat="46.27384" lon="6.56239">
        <ele>1245.3</ele>
        <time>2023-01-21T13:54:52.000Z</time>
      </trkpt>
      <trkpt lat="46.27384" lon="6.56239">
        <ele>1245.3</ele>
        <time>2023-01-21T13:54:53.000Z</time>
      </trkpt>
      <trkpt lat="46.27384" lon="6.56239">
        <ele>1245.3</ele>
        <time>2023-01-21T13:54:54.000Z</time>
      </trkpt>
      <trkpt lat="46.27384" lon="6.56239">
        <ele>1245.3</ele>
        <time>2023-01-21T13:54:55.000Z</time>
      </trkpt>
      <trkpt lat="46.27384" lon="6.56239">
        <ele>1245.3</ele>
        <time>2023-01-21T13:54:56.000Z</time>
      </trkpt>
      <trkpt lat="46.27384" lon="6.56239">
        <ele>1245.3</ele>
        <time>2023-01-21T13:54:57.000Z</time>
      </trkpt>
      <trkpt lat="46.27384" lon="6.56239">
        <ele>1245.3</ele>
        <time>2023-01-21T13:54:58.000Z</time>
      </trkpt>
      <trkpt lat="46.27384" lon="6.56239">
        <ele>1245.3</ele>
        <time>2023-01-21T13:54:59.000Z</time>
      </trkpt>
      <trkpt lat="46.27384" lon="6.56239">
        <ele>1245.3</ele>
        <time>2023-01-21T13:55:00.000Z</time>
      </trkpt>
      <trkpt lat="46.27384" lon="6.56239">
        <ele>1245.3</ele>
        <time>2023-01-21T13:55:01.000Z</time>
      </trkpt>
      <trkpt lat="46.27384" lon="6.56239">
        <ele>1245.3</ele>
        <time>2023-01-21T13:55:02.000Z</time>
      </trkpt>
      <trkpt lat="46.27384" lon="6.56239">
        <ele>1245.3</ele>
        <time>2023-01-21T13:55:03.000Z</time>
      </trkpt>
      <trkpt lat="46.27384" lon="6.56239">
        <ele>1245.3</ele>
        <time>2023-01-21T13:55:04.000Z</time>
      </trkpt>
      <trkpt lat="46.27384" lon="6.56239">
        <ele>1245.3</ele>
        <time>2023-01-21T13:55:05.000Z</time>
      </trkpt>
      <trkpt lat="46.27384" lon="6.56239">
        <ele>1245.3</ele>
        <time>2023-01-21T13:55:06.000Z</time>
      </trkpt>
      <trkpt lat="46.27384" lon="6.56239">
        <ele>1245.3</ele>
        <time>2023-01-21T13:55:07.000Z</time>
      </trkpt>
      <trkpt lat="46.27384" lon="6.56239">
        <ele>1245.3</ele>
        <time>2023-01-21T13:55:08.000Z</time>
      </trkpt>
      <trkpt lat="46.27384" lon="6.56239">
        <ele>1245.3</ele>
        <time>2023-01-21T13:55:09.000Z</time>
      </trkpt>
      <trkpt lat="46.27384" lon="6.56239">
        <ele>1245.3</ele>
        <time>2023-01-21T13:55:10.000Z</time>
      </trkpt>
      <trkpt lat="46.27384" lon="6.56239">
        <ele>1245.3</ele>
        <time>2023-01-21T13:55:11.000Z</time>
      </trkpt>
      <trkpt lat="46.27384" lon="6.56239">
        <ele>1245.3</ele>
        <time>2023-01-21T13:55:12.000Z</time>
      </trkpt>
      <trkpt lat="46.27384" lon="6.56239">
        <ele>1245.3</ele>
        <time>2023-01-21T13:55:13.000Z</time>
      </trkpt>
      <trkpt lat="46.27384" lon="6.56239">
        <ele>1245.3</ele>
        <time>2023-01-21T13:55:14.000Z</time>
      </trkpt>
      <trkpt lat="46.27384" lon="6.56239">
        <ele>1245.3</ele>
        <time>2023-01-21T13:55:15.000Z</time>
      </trkpt>
      <trkpt lat="46.27384" lon="6.56239">
        <ele>1245.3</ele>
        <time>2023-01-21T13:55:16.000Z</time>
      </trkpt>
      <trkpt lat="46.27384" lon="6.56239">
        <ele>1245.3</ele>
        <time>2023-01-21T13:55:17.000Z</time>
      </trkpt>
      <trkpt lat="46.27384" lon="6.56239">
        <ele>1245.3</ele>
        <time>2023-01-21T13:55:18.000Z</time>
      </trkpt>
      <trkpt lat="46.27384" lon="6.56239">
        <ele>1245.3</ele>
        <time>2023-01-21T13:55:19.000Z</time>
      </trkpt>
      <trkpt lat="46.27384" lon="6.56239">
        <ele>1245.3</ele>
        <time>2023-01-21T13:55:20.000Z</time>
      </trkpt>
      <trkpt lat="46.27384" lon="6.56239">
        <ele>1245.3</ele>
        <time>2023-01-21T13:55:21.000Z</time>
      </trkpt>
      <trkpt lat="46.27384" lon="6.56239">
        <ele>1245.3</ele>
        <time>2023-01-21T13:55:22.000Z</time>
      </trkpt>
      <trkpt lat="46.27384" lon="6.56239">
        <ele>1245.3</ele>
        <time>2023-01-21T13:55:23.000Z</time>
      </trkpt>
      <trkpt lat="46.27384" lon="6.56239">
        <ele>1245.3</ele>
        <time>2023-01-21T13:55:24.000Z</time>
      </trkpt>
      <trkpt lat="46.27384" lon="6.56239">
        <ele>1245.3</ele>
        <time>2023-01-21T13:55:25.000Z</time>
      </trkpt>
      <trkpt lat="46.27384" lon="6.56239">
        <ele>1245.3</ele>
        <time>2023-01-21T13:55:26.000Z</time>
      </trkpt>
      <trkpt lat="46.27384" lon="6.56239">
        <ele>1245.3</ele>
        <time>2023-01-21T13:55:27.000Z</time>
      </trkpt>
      <trkpt lat="46.27384" lon="6.56239">
        <ele>1245.3</ele>
        <time>2023-01-21T13:55:28.000Z</time>
      </trkpt>
      <trkpt lat="46.27384" lon="6.56239">
        <ele>1245.3</ele>
        <time>2023-01-21T13:55:29.000Z</time>
      </trkpt>
      <trkpt lat="46.27384" lon="6.56239">
        <ele>1245.3</ele>
        <time>2023-01-21T13:55:30.000Z</time>
      </trkpt>
      <trkpt lat="46.27384" lon="6.56239">
        <ele>1245.3</ele>
        <time>2023-01-21T13:55:31.000Z</time>
      </trkpt>
      <trkpt lat="46.27384" lon="6.56239">
        <ele>1245.3</ele>
        <time>2023-01-21T13:55:32.000Z</time>
      </trkpt>
      <trkpt lat="46.27384" lon="6.56239">
        <ele>1245.3</ele>
        <time>2023-01-21T13:55:33.000Z</time>
      </trkpt>
      <trkpt lat="46.27384" lon="6.56239">
        <ele>1245.3</ele>
        <time>2023-01-21T13:55:34.000Z</time>
      </trkpt>
      <trkpt lat="46.27384" lon="6.56239">
        <ele>1245.3</ele>
        <time>2023-01-21T13:55:35.000Z</time>
      </trkpt>
      <trkpt lat="46.27384" lon="6.56239">
        <ele>1245.3</ele>
        <time>2023-01-21T13:55:36.000Z</time>
      </trkpt>
      <trkpt lat="46.27384" lon="6.56239">
        <ele>1245.3</ele>
        <time>2023-01-21T13:55:37.000Z</time>
      </trkpt>
      <trkpt lat="46.27384" lon="6.56239">
        <ele>1245.3</ele>
        <time>2023-01-21T13:55:38.000Z</time>
      </trkpt>
      <trkpt lat="46.27384" lon="6.56239">
        <ele>1245.3</ele>
        <time>2023-01-21T13:55:39.000Z</time>
      </trkpt>
      <trkpt lat="46.27384" lon="6.56239">
        <ele>1245.3</ele>
        <time>2023-01-21T13:55:40.000Z</time>
      </trkpt>
      <trkpt lat="46.27384" lon="6.56239">
        <ele>1245.3</ele>
        <time>2023-01-21T13:55:41.000Z</time>
      </trkpt>
      <trkpt lat="46.27384" lon="6.56239">
        <ele>1245.3</ele>
        <time>2023-01-21T13:55:42.000Z</time>
      </trkpt>
      <trkpt lat="46.27384" lon="6.56239">
        <ele>1245.3</ele>
        <time>2023-01-21T13:55:43.000Z</time>
      </trkpt>
      <trkpt lat="46.27384" lon="6.56239">
        <ele>1245.3</ele>
        <time>2023-01-21T13:55:44.000Z</time>
      </trkpt>
      <trkpt lat="46.27384" lon="6.56239">
        <ele>1245.3</ele>
        <time>2023-01-21T13:55:45.000Z</time>
      </trkpt>
      <trkpt lat="46.27384" lon="6.56239">
        <ele>1245.3</ele>
        <time>2023-01-21T13:55:46.000Z</time>
      </trkpt>
      <trkpt lat="46.27384" lon="6.56239">
        <ele>1245.3</ele>
        <time>2023-01-21T13:55:47.000Z</time>
      </trkpt>
      <trkpt lat="46.27384" lon="6.56239">
        <ele>1245.3</ele>
        <time>2023-01-21T13:55:48.000Z</time>
      </trkpt>
      <trkpt lat="46.27384" lon="6.56239">
        <ele>1245.3</ele>
        <time>2023-01-21T13:55:49.000Z</time>
      </trkpt>
      <trkpt lat="46.27384" lon="6.56239">
        <ele>1245.3</ele>
        <time>2023-01-21T13:55:50.000Z</time>
      </trkpt>
      <trkpt lat="46.27384" lon="6.56239">
        <ele>1245.3</ele>
        <time>2023-01-21T13:55:51.000Z</time>
      </trkpt>
      <trkpt lat="46.27384" lon="6.56239">
        <ele>1245.3</ele>
        <time>2023-01-21T13:55:52.000Z</time>
      </trkpt>
      <trkpt lat="46.27384" lon="6.56239">
        <ele>1245.3</ele>
        <time>2023-01-21T13:55:53.000Z</time>
      </trkpt>
      <trkpt lat="46.27384" lon="6.56239">
        <ele>1245.3</ele>
        <time>2023-01-21T13:55:54.000Z</time>
      </trkpt>
      <trkpt lat="46.27384" lon="6.56239">
        <ele>1245.3</ele>
        <time>2023-01-21T13:55:55.000Z</time>
      </trkpt>
      <trkpt lat="46.27384" lon="6.56239">
        <ele>1245.3</ele>
        <time>2023-01-21T13:55:56.000Z</time>
      </trkpt>
      <trkpt lat="46.27384" lon="6.56239">
        <ele>1245.3</ele>
        <time>2023-01-21T13:55:57.000Z</time>
      </trkpt>
      <trkpt lat="46.27384" lon="6.56239">
        <ele>1245.3</ele>
        <time>2023-01-21T13:55:58.000Z</time>
      </trkpt>
      <trkpt lat="46.27384" lon="6.56239">
        <ele>1245.3</ele>
        <time>2023-01-21T13:55:59.000Z</time>
      </trkpt>
      <trkpt lat="46.27384" lon="6.56239">
        <ele>1245.3</ele>
        <time>2023-01-21T13:56:00.000Z</time>
      </trkpt>
      <trkpt lat="46.27384" lon="6.56239">
        <ele>1245.3</ele>
        <time>2023-01-21T13:56:01.000Z</time>
      </trkpt>
      <trkpt lat="46.27384" lon="6.56239">
        <ele>1245.3</ele>
        <time>2023-01-21T13:56:02.000Z</time>
      </trkpt>
      <trkpt lat="46.27384" lon="6.56239">
        <ele>1245.3</ele>
        <time>2023-01-21T13:56:03.000Z</time>
      </trkpt>
      <trkpt lat="46.27384" lon="6.56239">
        <ele>1245.3</ele>
        <time>2023-01-21T13:56:04.000Z</time>
      </trkpt>
      <trkpt lat="46.27384" lon="6.56239">
        <ele>1245.3</ele>
        <time>2023-01-21T13:56:05.000Z</time>
      </trkpt>
      <trkpt lat="46.27384" lon="6.56239">
        <ele>1245.3</ele>
        <time>2023-01-21T13:56:06.000Z</time>
      </trkpt>
      <trkpt lat="46.27384" lon="6.56239">
        <ele>1245.3</ele>
        <time>2023-01-21T13:56:07.000Z</time>
      </trkpt>
      <trkpt lat="46.27384" lon="6.56239">
        <ele>1245.3</ele>
        <time>2023-01-21T13:56:08.000Z</time>
      </trkpt>
      <trkpt lat="46.27384" lon="6.56239">
        <ele>1245.3</ele>
        <time>2023-01-21T13:56:09.000Z</time>
      </trkpt>
      <trkpt lat="46.27384" lon="6.56239">
        <ele>1245.3</ele>
        <time>2023-01-21T13:56:10.000Z</time>
      </trkpt>
      <trkpt lat="46.27384" lon="6.56239">
        <ele>1245.3</ele>
        <time>2023-01-21T13:56:11.000Z</time>
      </trkpt>
      <trkpt lat="46.27384" lon="6.56239">
        <ele>1245.3</ele>
        <time>2023-01-21T13:56:12.000Z</time>
      </trkpt>
      <trkpt lat="46.27384" lon="6.56239">
        <ele>1245.3</ele>
        <time>2023-01-21T13:56:13.000Z</time>
      </trkpt>
      <trkpt lat="46.27384" lon="6.56239">
        <ele>1245.3</ele>
        <time>2023-01-21T13:56:14.000Z</time>
      </trkpt>
      <trkpt lat="46.27384" lon="6.56239">
        <ele>1245.3</ele>
        <time>2023-01-21T13:56:15.000Z</time>
      </trkpt>
      <trkpt lat="46.27384" lon="6.56239">
        <ele>1245.3</ele>
        <time>2023-01-21T13:56:16.000Z</time>
      </trkpt>
      <trkpt lat="46.27384" lon="6.56239">
        <ele>1245.3</ele>
        <time>2023-01-21T13:56:17.000Z</time>
      </trkpt>
      <trkpt lat="46.27384" lon="6.56239">
        <ele>1245.3</ele>
        <time>2023-01-21T13:56:18.000Z</time>
      </trkpt>
      <trkpt lat="46.27384" lon="6.56239">
        <ele>1245.3</ele>
        <time>2023-01-21T13:56:19.000Z</time>
      </trkpt>
      <trkpt lat="46.27384" lon="6.56239">
        <ele>1245.3</ele>
        <time>2023-01-21T13:56:20.000Z</time>
      </trkpt>
      <trkpt lat="46.27384" lon="6.56239">
        <ele>1245.3</ele>
        <time>2023-01-21T13:56:21.000Z</time>
      </trkpt>
      <trkpt lat="46.27384" lon="6.56239">
        <ele>1245.3</ele>
        <time>2023-01-21T13:56:22.000Z</time>
      </trkpt>
      <trkpt lat="46.27384" lon="6.56239">
        <ele>1245.3</ele>
        <time>2023-01-21T13:56:23.000Z</time>
      </trkpt>
      <trkpt lat="46.27384" lon="6.56239">
        <ele>1245.3</ele>
        <time>2023-01-21T13:56:24.000Z</time>
      </trkpt>
      <trkpt lat="46.27384" lon="6.56239">
        <ele>1245.3</ele>
        <time>2023-01-21T13:56:25.000Z</time>
      </trkpt>
      <trkpt lat="46.27384" lon="6.56239">
        <ele>1245.3</ele>
        <time>2023-01-21T13:56:26.000Z</time>
      </trkpt>
      <trkpt lat="46.27384" lon="6.56239">
        <ele>1245.3</ele>
        <time>2023-01-21T13:56:27.000Z</time>
      </trkpt>
      <trkpt lat="46.27384" lon="6.56239">
        <ele>1245.3</ele>
        <time>2023-01-21T13:56:28.000Z</time>
      </trkpt>
      <trkpt lat="46.27384" lon="6.56239">
        <ele>1245.3</ele>
        <time>2023-01-21T13:56:29.000Z</time>
      </trkpt>
      <trkpt lat="46.27384" lon="6.56239">
        <ele>1245.3</ele>
        <time>2023-01-21T13:56:30.000Z</time>
      </trkpt>
      <trkpt lat="46.27384" lon="6.56239">
        <ele>1245.3</ele>
        <time>2023-01-21T13:56:31.000Z</time>
      </trkpt>
      <trkpt lat="46.27384" lon="6.56239">
        <ele>1245.3</ele>
        <time>2023-01-21T13:56:32.000Z</time>
      </trkpt>
      <trkpt lat="46.27384" lon="6.56239">
        <ele>1245.3</ele>
        <time>2023-01-21T13:56:33.000Z</time>
      </trkpt>
      <trkpt lat="46.27384" lon="6.56239">
        <ele>1245.3</ele>
        <time>2023-01-21T13:56:34.000Z</time>
      </trkpt>
      <trkpt lat="46.27384" lon="6.56239">
        <ele>1245.3</ele>
        <time>2023-01-21T13:56:35.000Z</time>
      </trkpt>
      <trkpt lat="46.27384" lon="6.56239">
        <ele>1245.3</ele>
        <time>2023-01-21T13:56:36.000Z</time>
      </trkpt>
      <trkpt lat="46.27384" lon="6.56239">
        <ele>1245.3</ele>
        <time>2023-01-21T13:56:37.000Z</time>
      </trkpt>
      <trkpt lat="46.27384" lon="6.56239">
        <ele>1245.3</ele>
        <time>2023-01-21T13:56:38.000Z</time>
      </trkpt>
      <trkpt lat="46.27384" lon="6.56239">
        <ele>1245.3</ele>
        <time>2023-01-21T13:56:39.000Z</time>
      </trkpt>
      <trkpt lat="46.27384" lon="6.56239">
        <ele>1245.3</ele>
        <time>2023-01-21T13:56:40.000Z</time>
      </trkpt>
      <trkpt lat="46.27384" lon="6.56239">
        <ele>1245.3</ele>
        <time>2023-01-21T13:56:41.000Z</time>
      </trkpt>
      <trkpt lat="46.27384" lon="6.56239">
        <ele>1245.3</ele>
        <time>2023-01-21T13:56:42.000Z</time>
      </trkpt>
      <trkpt lat="46.27384" lon="6.56239">
        <ele>1245.3</ele>
        <time>2023-01-21T13:56:43.000Z</time>
      </trkpt>
      <trkpt lat="46.27384" lon="6.56239">
        <ele>1245.3</ele>
        <time>2023-01-21T13:56:44.000Z</time>
      </trkpt>
      <trkpt lat="46.27384" lon="6.56239">
        <ele>1245.3</ele>
        <time>2023-01-21T13:56:45.000Z</time>
      </trkpt>
      <trkpt lat="46.27384" lon="6.56239">
        <ele>1245.3</ele>
        <time>2023-01-21T13:56:46.000Z</time>
      </trkpt>
      <trkpt lat="46.27384" lon="6.56239">
        <ele>1245.3</ele>
        <time>2023-01-21T13:56:47.000Z</time>
      </trkpt>
      <trkpt lat="46.27384" lon="6.56239">
        <ele>1245.3</ele>
        <time>2023-01-21T13:56:48.000Z</time>
      </trkpt>
      <trkpt lat="46.27384" lon="6.56239">
        <ele>1245.3</ele>
        <time>2023-01-21T13:56:49.000Z</time>
      </trkpt>
      <trkpt lat="46.27384" lon="6.56239">
        <ele>1245.3</ele>
        <time>2023-01-21T13:56:50.000Z</time>
      </trkpt>
      <trkpt lat="46.27384" lon="6.56239">
        <ele>1245.3</ele>
        <time>2023-01-21T13:56:51.000Z</time>
      </trkpt>
      <trkpt lat="46.27384" lon="6.56239">
        <ele>1245.3</ele>
        <time>2023-01-21T13:56:52.000Z</time>
      </trkpt>
      <trkpt lat="46.27384" lon="6.56239">
        <ele>1245.3</ele>
        <time>2023-01-21T13:56:53.000Z</time>
      </trkpt>
      <trkpt lat="46.27384" lon="6.56239">
        <ele>1245.3</ele>
        <time>2023-01-21T13:56:54.000Z</time>
      </trkpt>
      <trkpt lat="46.27384" lon="6.56239">
        <ele>1245.3</ele>
        <time>2023-01-21T13:56:55.000Z</time>
      </trkpt>
      <trkpt lat="46.27384" lon="6.56239">
        <ele>1245.3</ele>
        <time>2023-01-21T13:56:56.000Z</time>
      </trkpt>
      <trkpt lat="46.27384" lon="6.56239">
        <ele>1245.3</ele>
        <time>2023-01-21T13:56:57.000Z</time>
      </trkpt>
      <trkpt lat="46.27384" lon="6.56239">
        <ele>1245.3</ele>
        <time>2023-01-21T13:56:58.000Z</time>
      </trkpt>
      <trkpt lat="46.27384" lon="6.56239">
        <ele>1245.3</ele>
        <time>2023-01-21T13:56:59.000Z</time>
      </trkpt>
      <trkpt lat="46.27384" lon="6.56239">
        <ele>1245.3</ele>
        <time>2023-01-21T13:57:00.000Z</time>
      </trkpt>
      <trkpt lat="46.27384" lon="6.56239">
        <ele>1245.3</ele>
        <time>2023-01-21T13:57:01.000Z</time>
      </trkpt>
      <trkpt lat="46.27384" lon="6.56239">
        <ele>1245.3</ele>
        <time>2023-01-21T13:57:02.000Z</time>
      </trkpt>
      <trkpt lat="46.27376" lon="6.56232">
        <ele>1245.1</ele>
        <time>2023-01-21T13:57:03.000Z</time>
      </trkpt>
      <trkpt lat="46.27373" lon="6.5623">
        <ele>1245</ele>
        <time>2023-01-21T13:57:04.000Z</time>
      </trkpt>
      <trkpt lat="46.27371" lon="6.56229">
        <ele>1244.9</ele>
        <time>2023-01-21T13:57:05.000Z</time>
      </trkpt>
      <trkpt lat="46.2737" lon="6.56229">
        <ele>1244.8</ele>
        <time>2023-01-21T13:57:06.000Z</time>
      </trkpt>
      <trkpt lat="46.2737" lon="6.56229">
        <ele>1244.6</ele>
        <time>2023-01-21T13:57:07.000Z</time>
      </trkpt>
      <trkpt lat="46.27369" lon="6.5623">
        <ele>1244.5</ele>
        <time>2023-01-21T13:57:08.000Z</time>
      </trkpt>
      <trkpt lat="46.27369" lon="6.5623">
        <ele>1244.5</ele>
        <time>2023-01-21T13:57:09.000Z</time>
      </trkpt>
      <trkpt lat="46.27369" lon="6.5623">
        <ele>1244.5</ele>
        <time>2023-01-21T13:57:10.000Z</time>
      </trkpt>
      <trkpt lat="46.27369" lon="6.5623">
        <ele>1244.5</ele>
        <time>2023-01-21T13:57:11.000Z</time>
      </trkpt>
      <trkpt lat="46.27369" lon="6.5623">
        <ele>1244.5</ele>
        <time>2023-01-21T13:57:12.000Z</time>
      </trkpt>
      <trkpt lat="46.27369" lon="6.5623">
        <ele>1244.5</ele>
        <time>2023-01-21T13:57:13.000Z</time>
      </trkpt>
      <trkpt lat="46.27369" lon="6.5623">
        <ele>1244.5</ele>
        <time>2023-01-21T13:57:14.000Z</time>
      </trkpt>
      <trkpt lat="46.27369" lon="6.5623">
        <ele>1244.5</ele>
        <time>2023-01-21T13:57:15.000Z</time>
      </trkpt>
      <trkpt lat="46.27369" lon="6.5623">
        <ele>1244.5</ele>
        <time>2023-01-21T13:57:16.000Z</time>
      </trkpt>
      <trkpt lat="46.27369" lon="6.5623">
        <ele>1244.5</ele>
        <time>2023-01-21T13:57:17.000Z</time>
      </trkpt>
      <trkpt lat="46.27369" lon="6.5623">
        <ele>1244.5</ele>
        <time>2023-01-21T13:57:18.000Z</time>
      </trkpt>
      <trkpt lat="46.27369" lon="6.5623">
        <ele>1244.5</ele>
        <time>2023-01-21T13:57:19.000Z</time>
      </trkpt>
      <trkpt lat="46.27369" lon="6.5623">
        <ele>1244.5</ele>
        <time>2023-01-21T13:57:20.000Z</time>
      </trkpt>
      <trkpt lat="46.27369" lon="6.5623">
        <ele>1244.5</ele>
        <time>2023-01-21T13:57:21.000Z</time>
      </trkpt>
      <trkpt lat="46.27369" lon="6.5623">
        <ele>1244.5</ele>
        <time>2023-01-21T13:57:22.000Z</time>
      </trkpt>
      <trkpt lat="46.27369" lon="6.5623">
        <ele>1244.5</ele>
        <time>2023-01-21T13:57:23.000Z</time>
      </trkpt>
      <trkpt lat="46.27369" lon="6.5623">
        <ele>1244.5</ele>
        <time>2023-01-21T13:57:24.000Z</time>
      </trkpt>
      <trkpt lat="46.27369" lon="6.5623">
        <ele>1244.5</ele>
        <time>2023-01-21T13:57:25.000Z</time>
      </trkpt>
      <trkpt lat="46.27369" lon="6.5623">
        <ele>1244.5</ele>
        <time>2023-01-21T13:57:26.000Z</time>
      </trkpt>
      <trkpt lat="46.27369" lon="6.5623">
        <ele>1244.5</ele>
        <time>2023-01-21T13:57:27.000Z</time>
      </trkpt>
      <trkpt lat="46.27369" lon="6.5623">
        <ele>1244.5</ele>
        <time>2023-01-21T13:57:28.000Z</time>
      </trkpt>
      <trkpt lat="46.27369" lon="6.5623">
        <ele>1244.5</ele>
        <time>2023-01-21T13:57:29.000Z</time>
      </trkpt>
      <trkpt lat="46.27369" lon="6.5623">
        <ele>1244.5</ele>
        <time>2023-01-21T13:57:30.000Z</time>
      </trkpt>
      <trkpt lat="46.27369" lon="6.5623">
        <ele>1244.5</ele>
        <time>2023-01-21T13:57:31.000Z</time>
      </trkpt>
      <trkpt lat="46.27369" lon="6.5623">
        <ele>1244.5</ele>
        <time>2023-01-21T13:57:32.000Z</time>
      </trkpt>
      <trkpt lat="46.27369" lon="6.5623">
        <ele>1244.5</ele>
        <time>2023-01-21T13:57:33.000Z</time>
      </trkpt>
      <trkpt lat="46.27369" lon="6.5623">
        <ele>1244.5</ele>
        <time>2023-01-21T13:57:34.000Z</time>
      </trkpt>
      <trkpt lat="46.27369" lon="6.5623">
        <ele>1244.5</ele>
        <time>2023-01-21T13:57:35.000Z</time>
      </trkpt>
      <trkpt lat="46.27369" lon="6.5623">
        <ele>1244.5</ele>
        <time>2023-01-21T13:57:36.000Z</time>
      </trkpt>
      <trkpt lat="46.27369" lon="6.5623">
        <ele>1244.5</ele>
        <time>2023-01-21T13:57:37.000Z</time>
      </trkpt>
      <trkpt lat="46.27369" lon="6.5623">
        <ele>1244.5</ele>
        <time>2023-01-21T13:57:38.000Z</time>
      </trkpt>
      <trkpt lat="46.27369" lon="6.5623">
        <ele>1244.5</ele>
        <time>2023-01-21T13:57:39.000Z</time>
      </trkpt>
      <trkpt lat="46.27369" lon="6.5623">
        <ele>1244.5</ele>
        <time>2023-01-21T13:57:40.000Z</time>
      </trkpt>
      <trkpt lat="46.27369" lon="6.5623">
        <ele>1244.5</ele>
        <time>2023-01-21T13:57:41.000Z</time>
      </trkpt>
      <trkpt lat="46.27369" lon="6.5623">
        <ele>1244.5</ele>
        <time>2023-01-21T13:57:42.000Z</time>
      </trkpt>
      <trkpt lat="46.27369" lon="6.5623">
        <ele>1244.5</ele>
        <time>2023-01-21T13:57:43.000Z</time>
      </trkpt>
      <trkpt lat="46.27369" lon="6.5623">
        <ele>1244.5</ele>
        <time>2023-01-21T13:57:44.000Z</time>
      </trkpt>
      <trkpt lat="46.27369" lon="6.5623">
        <ele>1244.5</ele>
        <time>2023-01-21T13:57:45.000Z</time>
      </trkpt>
      <trkpt lat="46.27369" lon="6.5623">
        <ele>1244.5</ele>
        <time>2023-01-21T13:57:46.000Z</time>
      </trkpt>
      <trkpt lat="46.27369" lon="6.5623">
        <ele>1244.5</ele>
        <time>2023-01-21T13:57:47.000Z</time>
      </trkpt>
      <trkpt lat="46.27369" lon="6.5623">
        <ele>1244.5</ele>
        <time>2023-01-21T13:57:48.000Z</time>
      </trkpt>
      <trkpt lat="46.27369" lon="6.5623">
        <ele>1244.5</ele>
        <time>2023-01-21T13:57:49.000Z</time>
      </trkpt>
      <trkpt lat="46.27369" lon="6.5623">
        <ele>1244.5</ele>
        <time>2023-01-21T13:57:50.000Z</time>
      </trkpt>
      <trkpt lat="46.27369" lon="6.5623">
        <ele>1244.5</ele>
        <time>2023-01-21T13:57:51.000Z</time>
      </trkpt>
      <trkpt lat="46.27369" lon="6.5623">
        <ele>1244.5</ele>
        <time>2023-01-21T13:57:52.000Z</time>
      </trkpt>
      <trkpt lat="46.27369" lon="6.5623">
        <ele>1244.5</ele>
        <time>2023-01-21T13:57:53.000Z</time>
      </trkpt>
      <trkpt lat="46.27369" lon="6.5623">
        <ele>1244.5</ele>
        <time>2023-01-21T13:57:54.000Z</time>
      </trkpt>
      <trkpt lat="46.27369" lon="6.5623">
        <ele>1244.5</ele>
        <time>2023-01-21T13:57:55.000Z</time>
      </trkpt>
      <trkpt lat="46.27369" lon="6.5623">
        <ele>1244.5</ele>
        <time>2023-01-21T13:57:56.000Z</time>
      </trkpt>
      <trkpt lat="46.27369" lon="6.5623">
        <ele>1244.5</ele>
        <time>2023-01-21T13:57:57.000Z</time>
      </trkpt>
      <trkpt lat="46.27369" lon="6.5623">
        <ele>1244.5</ele>
        <time>2023-01-21T13:57:58.000Z</time>
      </trkpt>
      <trkpt lat="46.27369" lon="6.5623">
        <ele>1244.5</ele>
        <time>2023-01-21T13:57:59.000Z</time>
      </trkpt>
      <trkpt lat="46.27369" lon="6.5623">
        <ele>1244.5</ele>
        <time>2023-01-21T13:58:00.000Z</time>
      </trkpt>
      <trkpt lat="46.27369" lon="6.5623">
        <ele>1244.5</ele>
        <time>2023-01-21T13:58:01.000Z</time>
      </trkpt>
      <trkpt lat="46.27369" lon="6.5623">
        <ele>1244.5</ele>
        <time>2023-01-21T13:58:02.000Z</time>
      </trkpt>
      <trkpt lat="46.27369" lon="6.5623">
        <ele>1244.5</ele>
        <time>2023-01-21T13:58:03.000Z</time>
      </trkpt>
      <trkpt lat="46.27369" lon="6.5623">
        <ele>1244.5</ele>
        <time>2023-01-21T13:58:04.000Z</time>
      </trkpt>
      <trkpt lat="46.27369" lon="6.5623">
        <ele>1244.5</ele>
        <time>2023-01-21T13:58:05.000Z</time>
      </trkpt>
      <trkpt lat="46.27369" lon="6.5623">
        <ele>1244.5</ele>
        <time>2023-01-21T13:58:06.000Z</time>
      </trkpt>
      <trkpt lat="46.27369" lon="6.5623">
        <ele>1244.5</ele>
        <time>2023-01-21T13:58:07.000Z</time>
      </trkpt>
      <trkpt lat="46.27369" lon="6.5623">
        <ele>1244.5</ele>
        <time>2023-01-21T13:58:08.000Z</time>
      </trkpt>
      <trkpt lat="46.27369" lon="6.5623">
        <ele>1244.5</ele>
        <time>2023-01-21T13:58:09.000Z</time>
      </trkpt>
      <trkpt lat="46.27369" lon="6.5623">
        <ele>1244.5</ele>
        <time>2023-01-21T13:58:10.000Z</time>
      </trkpt>
      <trkpt lat="46.27369" lon="6.5623">
        <ele>1244.5</ele>
        <time>2023-01-21T13:58:11.000Z</time>
      </trkpt>
      <trkpt lat="46.27369" lon="6.5623">
        <ele>1244.5</ele>
        <time>2023-01-21T13:58:12.000Z</time>
      </trkpt>
      <trkpt lat="46.27369" lon="6.5623">
        <ele>1244.5</ele>
        <time>2023-01-21T13:58:13.000Z</time>
      </trkpt>
      <trkpt lat="46.27369" lon="6.5623">
        <ele>1244.5</ele>
        <time>2023-01-21T13:58:14.000Z</time>
      </trkpt>
      <trkpt lat="46.27369" lon="6.5623">
        <ele>1244.5</ele>
        <time>2023-01-21T13:58:15.000Z</time>
      </trkpt>
      <trkpt lat="46.27369" lon="6.5623">
        <ele>1244.5</ele>
        <time>2023-01-21T13:58:16.000Z</time>
      </trkpt>
      <trkpt lat="46.27369" lon="6.5623">
        <ele>1244.5</ele>
        <time>2023-01-21T13:58:17.000Z</time>
      </trkpt>
      <trkpt lat="46.27369" lon="6.5623">
        <ele>1244.5</ele>
        <time>2023-01-21T13:58:18.000Z</time>
      </trkpt>
      <trkpt lat="46.27369" lon="6.5623">
        <ele>1244.5</ele>
        <time>2023-01-21T13:58:19.000Z</time>
      </trkpt>
      <trkpt lat="46.27369" lon="6.5623">
        <ele>1244.5</ele>
        <time>2023-01-21T13:58:20.000Z</time>
      </trkpt>
      <trkpt lat="46.27369" lon="6.5623">
        <ele>1244.5</ele>
        <time>2023-01-21T13:58:21.000Z</time>
      </trkpt>
      <trkpt lat="46.27369" lon="6.5623">
        <ele>1244.5</ele>
        <time>2023-01-21T13:58:22.000Z</time>
      </trkpt>
      <trkpt lat="46.27369" lon="6.5623">
        <ele>1244.5</ele>
        <time>2023-01-21T13:58:23.000Z</time>
      </trkpt>
      <trkpt lat="46.27369" lon="6.5623">
        <ele>1244.5</ele>
        <time>2023-01-21T13:58:24.000Z</time>
      </trkpt>
      <trkpt lat="46.27369" lon="6.5623">
        <ele>1244.5</ele>
        <time>2023-01-21T13:58:25.000Z</time>
      </trkpt>
      <trkpt lat="46.27369" lon="6.5623">
        <ele>1244.5</ele>
        <time>2023-01-21T13:58:26.000Z</time>
      </trkpt>
      <trkpt lat="46.27369" lon="6.5623">
        <ele>1244.5</ele>
        <time>2023-01-21T13:58:27.000Z</time>
      </trkpt>
      <trkpt lat="46.27369" lon="6.5623">
        <ele>1244.5</ele>
        <time>2023-01-21T13:58:28.000Z</time>
      </trkpt>
      <trkpt lat="46.27369" lon="6.5623">
        <ele>1244.5</ele>
        <time>2023-01-21T13:58:29.000Z</time>
      </trkpt>
      <trkpt lat="46.27369" lon="6.5623">
        <ele>1244.5</ele>
        <time>2023-01-21T13:58:30.000Z</time>
      </trkpt>
      <trkpt lat="46.27369" lon="6.5623">
        <ele>1244.5</ele>
        <time>2023-01-21T13:58:31.000Z</time>
      </trkpt>
      <trkpt lat="46.27369" lon="6.5623">
        <ele>1244.5</ele>
        <time>2023-01-21T13:58:32.000Z</time>
      </trkpt>
      <trkpt lat="46.27369" lon="6.5623">
        <ele>1244.5</ele>
        <time>2023-01-21T13:58:33.000Z</time>
      </trkpt>
      <trkpt lat="46.27369" lon="6.5623">
        <ele>1244.5</ele>
        <time>2023-01-21T13:58:34.000Z</time>
      </trkpt>
      <trkpt lat="46.27369" lon="6.5623">
        <ele>1244.5</ele>
        <time>2023-01-21T13:58:35.000Z</time>
      </trkpt>
      <trkpt lat="46.27369" lon="6.5623">
        <ele>1244.5</ele>
        <time>2023-01-21T13:58:36.000Z</time>
      </trkpt>
      <trkpt lat="46.27369" lon="6.5623">
        <ele>1244.5</ele>
        <time>2023-01-21T13:58:37.000Z</time>
      </trkpt>
      <trkpt lat="46.27369" lon="6.5623">
        <ele>1244.5</ele>
        <time>2023-01-21T13:58:38.000Z</time>
      </trkpt>
      <trkpt lat="46.27369" lon="6.5623">
        <ele>1244.5</ele>
        <time>2023-01-21T13:58:39.000Z</time>
      </trkpt>
      <trkpt lat="46.27369" lon="6.5623">
        <ele>1244.5</ele>
        <time>2023-01-21T13:58:40.000Z</time>
      </trkpt>
      <trkpt lat="46.27369" lon="6.5623">
        <ele>1241.4</ele>
        <time>2023-01-21T13:58:41.000Z</time>
      </trkpt>
      <trkpt lat="46.27369" lon="6.5623">
        <ele>1241.4</ele>
        <time>2023-01-21T13:58:42.000Z</time>
      </trkpt>
      <trkpt lat="46.27369" lon="6.5623">
        <ele>1241.4</ele>
        <time>2023-01-21T13:58:43.000Z</time>
      </trkpt>
      <trkpt lat="46.27369" lon="6.5623">
        <ele>1241.4</ele>
        <time>2023-01-21T13:58:44.000Z</time>
      </trkpt>
      <trkpt lat="46.27369" lon="6.5623">
        <ele>1241.4</ele>
        <time>2023-01-21T13:58:45.000Z</time>
      </trkpt>
      <trkpt lat="46.2737" lon="6.56231">
        <ele>1237.5</ele>
        <time>2023-01-21T14:04:12.000Z</time>
      </trkpt>
      <trkpt lat="46.2737" lon="6.56231">
        <ele>1237.5</ele>
        <time>2023-01-21T14:04:13.000Z</time>
      </trkpt>
      <trkpt lat="46.2737" lon="6.56231">
        <ele>1237.5</ele>
        <time>2023-01-21T14:04:14.000Z</time>
      </trkpt>
      <trkpt lat="46.2737" lon="6.56231">
        <ele>1237.5</ele>
        <time>2023-01-21T14:04:15.000Z</time>
      </trkpt>
      <trkpt lat="46.2737" lon="6.56231">
        <ele>1237.5</ele>
        <time>2023-01-21T14:04:16.000Z</time>
      </trkpt>
      <trkpt lat="46.2737" lon="6.56231">
        <ele>1237.5</ele>
        <time>2023-01-21T14:04:17.000Z</time>
      </trkpt>
      <trkpt lat="46.2737" lon="6.56231">
        <ele>1237.5</ele>
        <time>2023-01-21T14:04:18.000Z</time>
      </trkpt>
      <trkpt lat="46.2737" lon="6.56231">
        <ele>1237.5</ele>
        <time>2023-01-21T14:04:19.000Z</time>
      </trkpt>
      <trkpt lat="46.2737" lon="6.56231">
        <ele>1237.5</ele>
        <time>2023-01-21T14:04:20.000Z</time>
      </trkpt>
      <trkpt lat="46.2737" lon="6.56231">
        <ele>1237.5</ele>
        <time>2023-01-21T14:04:21.000Z</time>
      </trkpt>
      <trkpt lat="46.2737" lon="6.56231">
        <ele>1237.5</ele>
        <time>2023-01-21T14:04:22.000Z</time>
      </trkpt>
      <trkpt lat="46.2737" lon="6.56231">
        <ele>1237.5</ele>
        <time>2023-01-21T14:04:23.000Z</time>
      </trkpt>
      <trkpt lat="46.2737" lon="6.56231">
        <ele>1237.5</ele>
        <time>2023-01-21T14:04:24.000Z</time>
      </trkpt>
      <trkpt lat="46.2737" lon="6.56231">
        <ele>1237.5</ele>
        <time>2023-01-21T14:04:25.000Z</time>
      </trkpt>
      <trkpt lat="46.2737" lon="6.56231">
        <ele>1237.5</ele>
        <time>2023-01-21T14:04:26.000Z</time>
      </trkpt>
      <trkpt lat="46.2737" lon="6.56231">
        <ele>1237.5</ele>
        <time>2023-01-21T14:04:27.000Z</time>
      </trkpt>
      <trkpt lat="46.2737" lon="6.56231">
        <ele>1237.5</ele>
        <time>2023-01-21T14:04:28.000Z</time>
      </trkpt>
      <trkpt lat="46.2737" lon="6.56231">
        <ele>1237.5</ele>
        <time>2023-01-21T14:04:29.000Z</time>
      </trkpt>
      <trkpt lat="46.2737" lon="6.56231">
        <ele>1237.5</ele>
        <time>2023-01-21T14:04:30.000Z</time>
      </trkpt>
      <trkpt lat="46.2737" lon="6.56231">
        <ele>1237.5</ele>
        <time>2023-01-21T14:04:31.000Z</time>
      </trkpt>
      <trkpt lat="46.2737" lon="6.56231">
        <ele>1237.5</ele>
        <time>2023-01-21T14:04:32.000Z</time>
      </trkpt>
      <trkpt lat="46.2737" lon="6.56231">
        <ele>1237.5</ele>
        <time>2023-01-21T14:04:33.000Z</time>
      </trkpt>
      <trkpt lat="46.2737" lon="6.56231">
        <ele>1237.5</ele>
        <time>2023-01-21T14:04:34.000Z</time>
      </trkpt>
      <trkpt lat="46.2737" lon="6.56231">
        <ele>1237.5</ele>
        <time>2023-01-21T14:04:35.000Z</time>
      </trkpt>
      <trkpt lat="46.2737" lon="6.56231">
        <ele>1237.5</ele>
        <time>2023-01-21T14:04:36.000Z</time>
      </trkpt>
      <trkpt lat="46.2737" lon="6.56231">
        <ele>1237.5</ele>
        <time>2023-01-21T14:04:37.000Z</time>
      </trkpt>
      <trkpt lat="46.2737" lon="6.56231">
        <ele>1237.5</ele>
        <time>2023-01-21T14:04:38.000Z</time>
      </trkpt>
      <trkpt lat="46.2737" lon="6.56231">
        <ele>1237.5</ele>
        <time>2023-01-21T14:04:39.000Z</time>
      </trkpt>
      <trkpt lat="46.2737" lon="6.56231">
        <ele>1237.5</ele>
        <time>2023-01-21T14:04:40.000Z</time>
      </trkpt>
      <trkpt lat="46.2737" lon="6.56231">
        <ele>1237.5</ele>
        <time>2023-01-21T14:04:41.000Z</time>
      </trkpt>
      <trkpt lat="46.2737" lon="6.56231">
        <ele>1237.5</ele>
        <time>2023-01-21T14:04:42.000Z</time>
      </trkpt>
      <trkpt lat="46.2737" lon="6.56231">
        <ele>1237.5</ele>
        <time>2023-01-21T14:04:43.000Z</time>
      </trkpt>
      <trkpt lat="46.2737" lon="6.56231">
        <ele>1237.5</ele>
        <time>2023-01-21T14:04:44.000Z</time>
      </trkpt>
      <trkpt lat="46.2737" lon="6.56231">
        <ele>1237.5</ele>
        <time>2023-01-21T14:04:45.000Z</time>
      </trkpt>
      <trkpt lat="46.2737" lon="6.56231">
        <ele>1237.5</ele>
        <time>2023-01-21T14:04:46.000Z</time>
      </trkpt>
      <trkpt lat="46.2737" lon="6.56231">
        <ele>1237.5</ele>
        <time>2023-01-21T14:04:47.000Z</time>
      </trkpt>
      <trkpt lat="46.2737" lon="6.56231">
        <ele>1237.5</ele>
        <time>2023-01-21T14:04:48.000Z</time>
      </trkpt>
      <trkpt lat="46.2737" lon="6.56231">
        <ele>1237.5</ele>
        <time>2023-01-21T14:04:49.000Z</time>
      </trkpt>
      <trkpt lat="46.2737" lon="6.56231">
        <ele>1237.5</ele>
        <time>2023-01-21T14:04:50.000Z</time>
      </trkpt>
      <trkpt lat="46.2737" lon="6.56231">
        <ele>1237.5</ele>
        <time>2023-01-21T14:04:51.000Z</time>
      </trkpt>
      <trkpt lat="46.2737" lon="6.56231">
        <ele>1237.5</ele>
        <time>2023-01-21T14:04:52.000Z</time>
      </trkpt>
      <trkpt lat="46.2737" lon="6.56231">
        <ele>1237.5</ele>
        <time>2023-01-21T14:04:53.000Z</time>
      </trkpt>
      <trkpt lat="46.2737" lon="6.56231">
        <ele>1237.5</ele>
        <time>2023-01-21T14:04:54.000Z</time>
      </trkpt>
      <trkpt lat="46.2737" lon="6.56231">
        <ele>1237.5</ele>
        <time>2023-01-21T14:04:55.000Z</time>
      </trkpt>
      <trkpt lat="46.2737" lon="6.56231">
        <ele>1237.5</ele>
        <time>2023-01-21T14:04:56.000Z</time>
      </trkpt>
      <trkpt lat="46.2737" lon="6.56231">
        <ele>1237.5</ele>
        <time>2023-01-21T14:04:57.000Z</time>
      </trkpt>
      <trkpt lat="46.2737" lon="6.56231">
        <ele>1237.5</ele>
        <time>2023-01-21T14:04:58.000Z</time>
      </trkpt>
      <trkpt lat="46.2737" lon="6.56231">
        <ele>1237.5</ele>
        <time>2023-01-21T14:04:59.000Z</time>
      </trkpt>
      <trkpt lat="46.2737" lon="6.56231">
        <ele>1237.5</ele>
        <time>2023-01-21T14:05:00.000Z</time>
      </trkpt>
      <trkpt lat="46.2737" lon="6.56231">
        <ele>1237.5</ele>
        <time>2023-01-21T14:05:01.000Z</time>
      </trkpt>
      <trkpt lat="46.2737" lon="6.56231">
        <ele>1237.5</ele>
        <time>2023-01-21T14:05:02.000Z</time>
      </trkpt>
      <trkpt lat="46.2737" lon="6.56231">
        <ele>1237.5</ele>
        <time>2023-01-21T14:05:03.000Z</time>
      </trkpt>
      <trkpt lat="46.2737" lon="6.56231">
        <ele>1237.5</ele>
        <time>2023-01-21T14:05:04.000Z</time>
      </trkpt>
      <trkpt lat="46.2737" lon="6.56231">
        <ele>1237.5</ele>
        <time>2023-01-21T14:05:05.000Z</time>
      </trkpt>
      <trkpt lat="46.2737" lon="6.56231">
        <ele>1237.5</ele>
        <time>2023-01-21T14:05:06.000Z</time>
      </trkpt>
      <trkpt lat="46.2737" lon="6.56231">
        <ele>1237.5</ele>
        <time>2023-01-21T14:05:07.000Z</time>
      </trkpt>
      <trkpt lat="46.2737" lon="6.56231">
        <ele>1237.5</ele>
        <time>2023-01-21T14:05:08.000Z</time>
      </trkpt>
      <trkpt lat="46.2737" lon="6.56231">
        <ele>1237.5</ele>
        <time>2023-01-21T14:05:09.000Z</time>
      </trkpt>
      <trkpt lat="46.2737" lon="6.56231">
        <ele>1234.3</ele>
        <time>2023-01-21T14:05:10.000Z</time>
      </trkpt>
      <trkpt lat="46.2737" lon="6.56231">
        <ele>1234.3</ele>
        <time>2023-01-21T14:05:11.000Z</time>
      </trkpt>
      <trkpt lat="46.2737" lon="6.56231">
        <ele>1234.3</ele>
        <time>2023-01-21T14:05:12.000Z</time>
      </trkpt>
      <trkpt lat="46.2737" lon="6.56231">
        <ele>1234.3</ele>
        <time>2023-01-21T14:05:13.000Z</time>
      </trkpt>
      <trkpt lat="46.2737" lon="6.56231">
        <ele>1234.3</ele>
        <time>2023-01-21T14:05:14.000Z</time>
      </trkpt>
      <trkpt lat="46.2737" lon="6.56231">
        <ele>1234.3</ele>
        <time>2023-01-21T14:05:15.000Z</time>
      </trkpt>
      <trkpt lat="46.2737" lon="6.56231">
        <ele>1234.3</ele>
        <time>2023-01-21T14:05:16.000Z</time>
      </trkpt>
      <trkpt lat="46.2737" lon="6.56231">
        <ele>1234.3</ele>
        <time>2023-01-21T14:05:17.000Z</time>
      </trkpt>
      <trkpt lat="46.2737" lon="6.56231">
        <ele>1234.3</ele>
        <time>2023-01-21T14:05:18.000Z</time>
      </trkpt>
      <trkpt lat="46.2737" lon="6.56231">
        <ele>1234.3</ele>
        <time>2023-01-21T14:05:19.000Z</time>
      </trkpt>
      <trkpt lat="46.2737" lon="6.56231">
        <ele>1234.3</ele>
        <time>2023-01-21T14:05:20.000Z</time>
      </trkpt>
      <trkpt lat="46.2737" lon="6.56231">
        <ele>1234.3</ele>
        <time>2023-01-21T14:05:21.000Z</time>
      </trkpt>
      <trkpt lat="46.2737" lon="6.56231">
        <ele>1234.3</ele>
        <time>2023-01-21T14:05:22.000Z</time>
      </trkpt>
      <trkpt lat="46.2737" lon="6.56231">
        <ele>1234.3</ele>
        <time>2023-01-21T14:05:23.000Z</time>
      </trkpt>
      <trkpt lat="46.2737" lon="6.56231">
        <ele>1234.3</ele>
        <time>2023-01-21T14:05:24.000Z</time>
      </trkpt>
      <trkpt lat="46.2737" lon="6.56231">
        <ele>1234.3</ele>
        <time>2023-01-21T14:05:25.000Z</time>
      </trkpt>
      <trkpt lat="46.2737" lon="6.56231">
        <ele>1234.3</ele>
        <time>2023-01-21T14:05:26.000Z</time>
      </trkpt>
      <trkpt lat="46.2737" lon="6.56231">
        <ele>1234.3</ele>
        <time>2023-01-21T14:05:27.000Z</time>
      </trkpt>
      <trkpt lat="46.2737" lon="6.56231">
        <ele>1234.3</ele>
        <time>2023-01-21T14:05:28.000Z</time>
      </trkpt>
      <trkpt lat="46.2737" lon="6.56231">
        <ele>1234.3</ele>
        <time>2023-01-21T14:05:29.000Z</time>
      </trkpt>
      <trkpt lat="46.2737" lon="6.56231">
        <ele>1234.3</ele>
        <time>2023-01-21T14:05:30.000Z</time>
      </trkpt>
      <trkpt lat="46.2737" lon="6.56231">
        <ele>1234.3</ele>
        <time>2023-01-21T14:05:31.000Z</time>
      </trkpt>
      <trkpt lat="46.2737" lon="6.56231">
        <ele>1234.3</ele>
        <time>2023-01-21T14:05:32.000Z</time>
      </trkpt>
      <trkpt lat="46.2737" lon="6.56231">
        <ele>1234.3</ele>
        <time>2023-01-21T14:05:33.000Z</time>
      </trkpt>
      <trkpt lat="46.2737" lon="6.56231">
        <ele>1234.3</ele>
        <time>2023-01-21T14:05:34.000Z</time>
      </trkpt>
      <trkpt lat="46.2737" lon="6.56231">
        <ele>1234.3</ele>
        <time>2023-01-21T14:05:35.000Z</time>
      </trkpt>
      <trkpt lat="46.2737" lon="6.56231">
        <ele>1234.3</ele>
        <time>2023-01-21T14:05:36.000Z</time>
      </trkpt>
      <trkpt lat="46.2737" lon="6.56231">
        <ele>1234.3</ele>
        <time>2023-01-21T14:05:37.000Z</time>
      </trkpt>
      <trkpt lat="46.2737" lon="6.56231">
        <ele>1234.3</ele>
        <time>2023-01-21T14:05:38.000Z</time>
      </trkpt>
      <trkpt lat="46.2737" lon="6.56231">
        <ele>1234.3</ele>
        <time>2023-01-21T14:05:39.000Z</time>
      </trkpt>
      <trkpt lat="46.2737" lon="6.56231">
        <ele>1234.3</ele>
        <time>2023-01-21T14:05:40.000Z</time>
      </trkpt>
      <trkpt lat="46.2737" lon="6.56231">
        <ele>1234.3</ele>
        <time>2023-01-21T14:05:41.000Z</time>
      </trkpt>
      <trkpt lat="46.2737" lon="6.56231">
        <ele>1234.3</ele>
        <time>2023-01-21T14:05:42.000Z</time>
      </trkpt>
      <trkpt lat="46.2737" lon="6.56231">
        <ele>1234.3</ele>
        <time>2023-01-21T14:05:43.000Z</time>
      </trkpt>
      <trkpt lat="46.2737" lon="6.56231">
        <ele>1234.3</ele>
        <time>2023-01-21T14:05:44.000Z</time>
      </trkpt>
      <trkpt lat="46.2737" lon="6.56231">
        <ele>1234.3</ele>
        <time>2023-01-21T14:05:45.000Z</time>
      </trkpt>
      <trkpt lat="46.2737" lon="6.56231">
        <ele>1234.3</ele>
        <time>2023-01-21T14:05:46.000Z</time>
      </trkpt>
      <trkpt lat="46.2737" lon="6.56231">
        <ele>1234.3</ele>
        <time>2023-01-21T14:05:47.000Z</time>
      </trkpt>
      <trkpt lat="46.2737" lon="6.56231">
        <ele>1234.3</ele>
        <time>2023-01-21T14:05:48.000Z</time>
      </trkpt>
      <trkpt lat="46.2737" lon="6.56231">
        <ele>1234.3</ele>
        <time>2023-01-21T14:05:49.000Z</time>
      </trkpt>
      <trkpt lat="46.2737" lon="6.56231">
        <ele>1234.3</ele>
        <time>2023-01-21T14:05:50.000Z</time>
      </trkpt>
      <trkpt lat="46.2737" lon="6.56231">
        <ele>1234.3</ele>
        <time>2023-01-21T14:05:51.000Z</time>
      </trkpt>
      <trkpt lat="46.2737" lon="6.56231">
        <ele>1234.3</ele>
        <time>2023-01-21T14:05:52.000Z</time>
      </trkpt>
      <trkpt lat="46.2737" lon="6.56231">
        <ele>1234.3</ele>
        <time>2023-01-21T14:05:53.000Z</time>
      </trkpt>
      <trkpt lat="46.2737" lon="6.56231">
        <ele>1234.3</ele>
        <time>2023-01-21T14:05:54.000Z</time>
      </trkpt>
      <trkpt lat="46.2737" lon="6.56231">
        <ele>1234.3</ele>
        <time>2023-01-21T14:05:55.000Z</time>
      </trkpt>
      <trkpt lat="46.2737" lon="6.56231">
        <ele>1234.3</ele>
        <time>2023-01-21T14:05:56.000Z</time>
      </trkpt>
      <trkpt lat="46.2737" lon="6.56231">
        <ele>1234.3</ele>
        <time>2023-01-21T14:05:57.000Z</time>
      </trkpt>
      <trkpt lat="46.2737" lon="6.56231">
        <ele>1234.3</ele>
        <time>2023-01-21T14:05:58.000Z</time>
      </trkpt>
      <trkpt lat="46.27361" lon="6.56228">
        <ele>1237.5</ele>
        <time>2023-01-21T14:05:59.000Z</time>
      </trkpt>
      <trkpt lat="46.27356" lon="6.56222">
        <ele>1237.4</ele>
        <time>2023-01-21T14:06:00.000Z</time>
      </trkpt>
      <trkpt lat="46.27352" lon="6.56218">
        <ele>1237.5</ele>
        <time>2023-01-21T14:06:01.000Z</time>
      </trkpt>
      <trkpt lat="46.2735" lon="6.56214">
        <ele>1237.2</ele>
        <time>2023-01-21T14:06:02.000Z</time>
      </trkpt>
      <trkpt lat="46.27348" lon="6.56211">
        <ele>1236.9</ele>
        <time>2023-01-21T14:06:03.000Z</time>
      </trkpt>
      <trkpt lat="46.27347" lon="6.56209">
        <ele>1236.6</ele>
        <time>2023-01-21T14:06:04.000Z</time>
      </trkpt>
      <trkpt lat="46.27346" lon="6.56206">
        <ele>1236.3</ele>
        <time>2023-01-21T14:06:05.000Z</time>
      </trkpt>
      <trkpt lat="46.27345" lon="6.56203">
        <ele>1235.7</ele>
        <time>2023-01-21T14:06:06.000Z</time>
      </trkpt>
      <trkpt lat="46.27344" lon="6.56198">
        <ele>1235.1</ele>
        <time>2023-01-21T14:06:07.000Z</time>
      </trkpt>
      <trkpt lat="46.27344" lon="6.56194">
        <ele>1234.4</ele>
        <time>2023-01-21T14:06:08.000Z</time>
      </trkpt>
      <trkpt lat="46.27343" lon="6.5619">
        <ele>1234</ele>
        <time>2023-01-21T14:06:09.000Z</time>
      </trkpt>
      <trkpt lat="46.27342" lon="6.56186">
        <ele>1233</ele>
        <time>2023-01-21T14:06:10.000Z</time>
      </trkpt>
      <trkpt lat="46.27342" lon="6.56182">
        <ele>1232.1</ele>
        <time>2023-01-21T14:06:11.000Z</time>
      </trkpt>
      <trkpt lat="46.27341" lon="6.56177">
        <ele>1231</ele>
        <time>2023-01-21T14:06:12.000Z</time>
      </trkpt>
      <trkpt lat="46.2734" lon="6.56172">
        <ele>1230</ele>
        <time>2023-01-21T14:06:13.000Z</time>
      </trkpt>
      <trkpt lat="46.27338" lon="6.5617">
        <ele>1229.3</ele>
        <time>2023-01-21T14:06:14.000Z</time>
      </trkpt>
      <trkpt lat="46.27339" lon="6.56169">
        <ele>1228.7</ele>
        <time>2023-01-21T14:06:15.000Z</time>
      </trkpt>
      <trkpt lat="46.27339" lon="6.56169">
        <ele>1229.4</ele>
        <time>2023-01-21T14:06:16.000Z</time>
      </trkpt>
      <trkpt lat="46.27339" lon="6.56168">
        <ele>1229.8</ele>
        <time>2023-01-21T14:06:17.000Z</time>
      </trkpt>
      <trkpt lat="46.27339" lon="6.56168">
        <ele>1229.8</ele>
        <time>2023-01-21T14:06:18.000Z</time>
      </trkpt>
      <trkpt lat="46.27339" lon="6.56168">
        <ele>1229.8</ele>
        <time>2023-01-21T14:06:19.000Z</time>
      </trkpt>
      <trkpt lat="46.27339" lon="6.56168">
        <ele>1229.8</ele>
        <time>2023-01-21T14:06:20.000Z</time>
      </trkpt>
      <trkpt lat="46.27339" lon="6.56168">
        <ele>1229.8</ele>
        <time>2023-01-21T14:06:21.000Z</time>
      </trkpt>
      <trkpt lat="46.27339" lon="6.56168">
        <ele>1229.8</ele>
        <time>2023-01-21T14:06:22.000Z</time>
      </trkpt>
      <trkpt lat="46.27339" lon="6.56168">
        <ele>1229.8</ele>
        <time>2023-01-21T14:06:23.000Z</time>
      </trkpt>
      <trkpt lat="46.27339" lon="6.56168">
        <ele>1229.8</ele>
        <time>2023-01-21T14:06:24.000Z</time>
      </trkpt>
      <trkpt lat="46.27339" lon="6.56168">
        <ele>1229.8</ele>
        <time>2023-01-21T14:06:25.000Z</time>
      </trkpt>
      <trkpt lat="46.27336" lon="6.56158">
        <ele>1229.8</ele>
        <time>2023-01-21T14:06:26.000Z</time>
      </trkpt>
      <trkpt lat="46.27335" lon="6.56156">
        <ele>1229.6</ele>
        <time>2023-01-21T14:06:27.000Z</time>
      </trkpt>
      <trkpt lat="46.27334" lon="6.56153">
        <ele>1229.2</ele>
        <time>2023-01-21T14:06:28.000Z</time>
      </trkpt>
      <trkpt lat="46.27332" lon="6.5615">
        <ele>1229.2</ele>
        <time>2023-01-21T14:06:29.000Z</time>
      </trkpt>
      <trkpt lat="46.2733" lon="6.56146">
        <ele>1229</ele>
        <time>2023-01-21T14:06:30.000Z</time>
      </trkpt>
      <trkpt lat="46.27329" lon="6.56142">
        <ele>1228.6</ele>
        <time>2023-01-21T14:06:31.000Z</time>
      </trkpt>
      <trkpt lat="46.27327" lon="6.56137">
        <ele>1228.1</ele>
        <time>2023-01-21T14:06:32.000Z</time>
      </trkpt>
      <trkpt lat="46.27325" lon="6.56131">
        <ele>1227.6</ele>
        <time>2023-01-21T14:06:33.000Z</time>
      </trkpt>
      <trkpt lat="46.27323" lon="6.56126">
        <ele>1227.1</ele>
        <time>2023-01-21T14:06:34.000Z</time>
      </trkpt>
      <trkpt lat="46.27322" lon="6.56121">
        <ele>1226.2</ele>
        <time>2023-01-21T14:06:35.000Z</time>
      </trkpt>
      <trkpt lat="46.27319" lon="6.56115">
        <ele>1225.4</ele>
        <time>2023-01-21T14:06:36.000Z</time>
      </trkpt>
      <trkpt lat="46.27318" lon="6.5611">
        <ele>1224.3</ele>
        <time>2023-01-21T14:06:37.000Z</time>
      </trkpt>
      <trkpt lat="46.27316" lon="6.56105">
        <ele>1223.3</ele>
        <time>2023-01-21T14:06:38.000Z</time>
      </trkpt>
      <trkpt lat="46.27314" lon="6.56102">
        <ele>1222.2</ele>
        <time>2023-01-21T14:06:39.000Z</time>
      </trkpt>
      <trkpt lat="46.27314" lon="6.56099">
        <ele>1221.2</ele>
        <time>2023-01-21T14:06:40.000Z</time>
      </trkpt>
      <trkpt lat="46.27314" lon="6.56096">
        <ele>1220.2</ele>
        <time>2023-01-21T14:06:41.000Z</time>
      </trkpt>
      <trkpt lat="46.27313" lon="6.5609">
        <ele>1218.7</ele>
        <time>2023-01-21T14:06:42.000Z</time>
      </trkpt>
      <trkpt lat="46.27312" lon="6.56083">
        <ele>1217.4</ele>
        <time>2023-01-21T14:06:43.000Z</time>
      </trkpt>
      <trkpt lat="46.2731" lon="6.56079">
        <ele>1215.9</ele>
        <time>2023-01-21T14:06:44.000Z</time>
      </trkpt>
      <trkpt lat="46.27309" lon="6.56076">
        <ele>1214.9</ele>
        <time>2023-01-21T14:06:45.000Z</time>
      </trkpt>
      <trkpt lat="46.27308" lon="6.56073">
        <ele>1214.3</ele>
        <time>2023-01-21T14:06:46.000Z</time>
      </trkpt>
      <trkpt lat="46.27309" lon="6.56072">
        <ele>1213.6</ele>
        <time>2023-01-21T14:06:47.000Z</time>
      </trkpt>
      <trkpt lat="46.27309" lon="6.56072">
        <ele>1213</ele>
        <time>2023-01-21T14:06:48.000Z</time>
      </trkpt>
      <trkpt lat="46.27309" lon="6.56072">
        <ele>1213</ele>
        <time>2023-01-21T14:06:49.000Z</time>
      </trkpt>
      <trkpt lat="46.27309" lon="6.56072">
        <ele>1213</ele>
        <time>2023-01-21T14:06:50.000Z</time>
      </trkpt>
      <trkpt lat="46.27309" lon="6.56072">
        <ele>1213</ele>
        <time>2023-01-21T14:06:51.000Z</time>
      </trkpt>
      <trkpt lat="46.27309" lon="6.56072">
        <ele>1213</ele>
        <time>2023-01-21T14:06:52.000Z</time>
      </trkpt>
      <trkpt lat="46.27309" lon="6.56072">
        <ele>1213</ele>
        <time>2023-01-21T14:06:53.000Z</time>
      </trkpt>
      <trkpt lat="46.27309" lon="6.56072">
        <ele>1213</ele>
        <time>2023-01-21T14:06:54.000Z</time>
      </trkpt>
      <trkpt lat="46.27309" lon="6.56072">
        <ele>1213</ele>
        <time>2023-01-21T14:06:55.000Z</time>
      </trkpt>
      <trkpt lat="46.27309" lon="6.56072">
        <ele>1213</ele>
        <time>2023-01-21T14:06:56.000Z</time>
      </trkpt>
      <trkpt lat="46.27309" lon="6.56072">
        <ele>1213</ele>
        <time>2023-01-21T14:06:57.000Z</time>
      </trkpt>
      <trkpt lat="46.27309" lon="6.56072">
        <ele>1213</ele>
        <time>2023-01-21T14:06:58.000Z</time>
      </trkpt>
      <trkpt lat="46.27309" lon="6.56072">
        <ele>1213</ele>
        <time>2023-01-21T14:06:59.000Z</time>
      </trkpt>
      <trkpt lat="46.27309" lon="6.56072">
        <ele>1213</ele>
        <time>2023-01-21T14:07:00.000Z</time>
      </trkpt>
      <trkpt lat="46.27309" lon="6.56072">
        <ele>1213</ele>
        <time>2023-01-21T14:07:01.000Z</time>
      </trkpt>
      <trkpt lat="46.27309" lon="6.56072">
        <ele>1213</ele>
        <time>2023-01-21T14:07:02.000Z</time>
      </trkpt>
      <trkpt lat="46.27309" lon="6.56072">
        <ele>1213</ele>
        <time>2023-01-21T14:07:03.000Z</time>
      </trkpt>
      <trkpt lat="46.27309" lon="6.56072">
        <ele>1213</ele>
        <time>2023-01-21T14:07:04.000Z</time>
      </trkpt>
      <trkpt lat="46.27309" lon="6.56072">
        <ele>1213</ele>
        <time>2023-01-21T14:07:05.000Z</time>
      </trkpt>
      <trkpt lat="46.27309" lon="6.56072">
        <ele>1213</ele>
        <time>2023-01-21T14:07:06.000Z</time>
      </trkpt>
      <trkpt lat="46.27309" lon="6.56072">
        <ele>1213</ele>
        <time>2023-01-21T14:07:07.000Z</time>
      </trkpt>
      <trkpt lat="46.27309" lon="6.56072">
        <ele>1213</ele>
        <time>2023-01-21T14:07:08.000Z</time>
      </trkpt>
      <trkpt lat="46.27309" lon="6.56072">
        <ele>1209.9</ele>
        <time>2023-01-21T14:07:09.000Z</time>
      </trkpt>
      <trkpt lat="46.27309" lon="6.56072">
        <ele>1209.9</ele>
        <time>2023-01-21T14:07:10.000Z</time>
      </trkpt>
      <trkpt lat="46.27309" lon="6.56072">
        <ele>1209.9</ele>
        <time>2023-01-21T14:07:11.000Z</time>
      </trkpt>
      <trkpt lat="46.27309" lon="6.56072">
        <ele>1209.9</ele>
        <time>2023-01-21T14:07:12.000Z</time>
      </trkpt>
      <trkpt lat="46.27309" lon="6.56072">
        <ele>1209.9</ele>
        <time>2023-01-21T14:07:13.000Z</time>
      </trkpt>
      <trkpt lat="46.27309" lon="6.56072">
        <ele>1209.9</ele>
        <time>2023-01-21T14:07:14.000Z</time>
      </trkpt>
      <trkpt lat="46.27309" lon="6.56072">
        <ele>1209.9</ele>
        <time>2023-01-21T14:07:15.000Z</time>
      </trkpt>
      <trkpt lat="46.27309" lon="6.56072">
        <ele>1209.9</ele>
        <time>2023-01-21T14:07:16.000Z</time>
      </trkpt>
      <trkpt lat="46.27309" lon="6.56072">
        <ele>1209.9</ele>
        <time>2023-01-21T14:07:17.000Z</time>
      </trkpt>
      <trkpt lat="46.27309" lon="6.56072">
        <ele>1209.9</ele>
        <time>2023-01-21T14:07:18.000Z</time>
      </trkpt>
      <trkpt lat="46.27309" lon="6.56072">
        <ele>1209.9</ele>
        <time>2023-01-21T14:07:19.000Z</time>
      </trkpt>
      <trkpt lat="46.27309" lon="6.56072">
        <ele>1209.9</ele>
        <time>2023-01-21T14:07:20.000Z</time>
      </trkpt>
      <trkpt lat="46.27309" lon="6.56072">
        <ele>1209.9</ele>
        <time>2023-01-21T14:07:21.000Z</time>
      </trkpt>
      <trkpt lat="46.27309" lon="6.56072">
        <ele>1209.9</ele>
        <time>2023-01-21T14:07:22.000Z</time>
      </trkpt>
      <trkpt lat="46.27309" lon="6.56072">
        <ele>1209.9</ele>
        <time>2023-01-21T14:07:23.000Z</time>
      </trkpt>
      <trkpt lat="46.27309" lon="6.56072">
        <ele>1209.9</ele>
        <time>2023-01-21T14:07:24.000Z</time>
      </trkpt>
      <trkpt lat="46.27309" lon="6.56072">
        <ele>1209.9</ele>
        <time>2023-01-21T14:07:25.000Z</time>
      </trkpt>
      <trkpt lat="46.27309" lon="6.56072">
        <ele>1209.9</ele>
        <time>2023-01-21T14:07:26.000Z</time>
      </trkpt>
      <trkpt lat="46.27309" lon="6.56072">
        <ele>1209.9</ele>
        <time>2023-01-21T14:07:27.000Z</time>
      </trkpt>
      <trkpt lat="46.27309" lon="6.56072">
        <ele>1209.9</ele>
        <time>2023-01-21T14:07:28.000Z</time>
      </trkpt>
      <trkpt lat="46.27309" lon="6.56072">
        <ele>1209.9</ele>
        <time>2023-01-21T14:07:29.000Z</time>
      </trkpt>
      <trkpt lat="46.27309" lon="6.56072">
        <ele>1209.9</ele>
        <time>2023-01-21T14:07:30.000Z</time>
      </trkpt>
      <trkpt lat="46.27309" lon="6.56072">
        <ele>1209.9</ele>
        <time>2023-01-21T14:07:31.000Z</time>
      </trkpt>
      <trkpt lat="46.27309" lon="6.56072">
        <ele>1209.9</ele>
        <time>2023-01-21T14:07:32.000Z</time>
      </trkpt>
      <trkpt lat="46.27309" lon="6.56072">
        <ele>1209.9</ele>
        <time>2023-01-21T14:07:33.000Z</time>
      </trkpt>
      <trkpt lat="46.27309" lon="6.56072">
        <ele>1209.9</ele>
        <time>2023-01-21T14:07:34.000Z</time>
      </trkpt>
      <trkpt lat="46.27309" lon="6.56072">
        <ele>1209.9</ele>
        <time>2023-01-21T14:07:35.000Z</time>
      </trkpt>
      <trkpt lat="46.27309" lon="6.56072">
        <ele>1209.9</ele>
        <time>2023-01-21T14:07:36.000Z</time>
      </trkpt>
      <trkpt lat="46.27309" lon="6.56072">
        <ele>1209.9</ele>
        <time>2023-01-21T14:07:37.000Z</time>
      </trkpt>
      <trkpt lat="46.27309" lon="6.56072">
        <ele>1209.9</ele>
        <time>2023-01-21T14:07:38.000Z</time>
      </trkpt>
      <trkpt lat="46.27309" lon="6.56072">
        <ele>1209.9</ele>
        <time>2023-01-21T14:07:39.000Z</time>
      </trkpt>
      <trkpt lat="46.27309" lon="6.56072">
        <ele>1209.9</ele>
        <time>2023-01-21T14:07:40.000Z</time>
      </trkpt>
      <trkpt lat="46.27309" lon="6.56072">
        <ele>1209.9</ele>
        <time>2023-01-21T14:07:41.000Z</time>
      </trkpt>
      <trkpt lat="46.27309" lon="6.56072">
        <ele>1209.9</ele>
        <time>2023-01-21T14:07:42.000Z</time>
      </trkpt>
      <trkpt lat="46.27309" lon="6.56072">
        <ele>1209.9</ele>
        <time>2023-01-21T14:07:43.000Z</time>
      </trkpt>
      <trkpt lat="46.27309" lon="6.56072">
        <ele>1209.9</ele>
        <time>2023-01-21T14:07:44.000Z</time>
      </trkpt>
      <trkpt lat="46.27309" lon="6.56072">
        <ele>1209.9</ele>
        <time>2023-01-21T14:07:45.000Z</time>
      </trkpt>
      <trkpt lat="46.27309" lon="6.56072">
        <ele>1209.9</ele>
        <time>2023-01-21T14:07:46.000Z</time>
      </trkpt>
      <trkpt lat="46.27309" lon="6.56072">
        <ele>1209.9</ele>
        <time>2023-01-21T14:07:47.000Z</time>
      </trkpt>
      <trkpt lat="46.27309" lon="6.56072">
        <ele>1209.9</ele>
        <time>2023-01-21T14:07:48.000Z</time>
      </trkpt>
      <trkpt lat="46.27309" lon="6.56072">
        <ele>1209.9</ele>
        <time>2023-01-21T14:07:49.000Z</time>
      </trkpt>
      <trkpt lat="46.27309" lon="6.56072">
        <ele>1209.9</ele>
        <time>2023-01-21T14:07:50.000Z</time>
      </trkpt>
      <trkpt lat="46.27309" lon="6.56072">
        <ele>1209.9</ele>
        <time>2023-01-21T14:07:51.000Z</time>
      </trkpt>
      <trkpt lat="46.27309" lon="6.56072">
        <ele>1209.9</ele>
        <time>2023-01-21T14:07:52.000Z</time>
      </trkpt>
      <trkpt lat="46.27309" lon="6.56072">
        <ele>1209.9</ele>
        <time>2023-01-21T14:07:53.000Z</time>
      </trkpt>
      <trkpt lat="46.27309" lon="6.56072">
        <ele>1209.9</ele>
        <time>2023-01-21T14:07:54.000Z</time>
      </trkpt>
      <trkpt lat="46.27309" lon="6.56072">
        <ele>1209.9</ele>
        <time>2023-01-21T14:07:55.000Z</time>
      </trkpt>
      <trkpt lat="46.27309" lon="6.56072">
        <ele>1209.9</ele>
        <time>2023-01-21T14:07:56.000Z</time>
      </trkpt>
      <trkpt lat="46.27309" lon="6.56072">
        <ele>1209.9</ele>
        <time>2023-01-21T14:07:57.000Z</time>
      </trkpt>
      <trkpt lat="46.27309" lon="6.56072">
        <ele>1209.9</ele>
        <time>2023-01-21T14:07:58.000Z</time>
      </trkpt>
      <trkpt lat="46.27309" lon="6.56072">
        <ele>1209.9</ele>
        <time>2023-01-21T14:07:59.000Z</time>
      </trkpt>
      <trkpt lat="46.27309" lon="6.56072">
        <ele>1209.9</ele>
        <time>2023-01-21T14:08:00.000Z</time>
      </trkpt>
      <trkpt lat="46.27309" lon="6.56072">
        <ele>1209.9</ele>
        <time>2023-01-21T14:08:01.000Z</time>
      </trkpt>
      <trkpt lat="46.27309" lon="6.56072">
        <ele>1209.9</ele>
        <time>2023-01-21T14:08:02.000Z</time>
      </trkpt>
      <trkpt lat="46.27309" lon="6.56072">
        <ele>1209.9</ele>
        <time>2023-01-21T14:08:03.000Z</time>
      </trkpt>
      <trkpt lat="46.27309" lon="6.56072">
        <ele>1209.9</ele>
        <time>2023-01-21T14:08:04.000Z</time>
      </trkpt>
      <trkpt lat="46.27309" lon="6.56072">
        <ele>1209.9</ele>
        <time>2023-01-21T14:08:05.000Z</time>
      </trkpt>
      <trkpt lat="46.27309" lon="6.56072">
        <ele>1209.9</ele>
        <time>2023-01-21T14:08:06.000Z</time>
      </trkpt>
      <trkpt lat="46.27309" lon="6.56072">
        <ele>1206.6</ele>
        <time>2023-01-21T14:08:07.000Z</time>
      </trkpt>
      <trkpt lat="46.27309" lon="6.56072">
        <ele>1206.6</ele>
        <time>2023-01-21T14:08:08.000Z</time>
      </trkpt>
      <trkpt lat="46.27309" lon="6.56072">
        <ele>1206.6</ele>
        <time>2023-01-21T14:08:09.000Z</time>
      </trkpt>
      <trkpt lat="46.27309" lon="6.56072">
        <ele>1206.6</ele>
        <time>2023-01-21T14:08:10.000Z</time>
      </trkpt>
      <trkpt lat="46.27309" lon="6.56072">
        <ele>1206.6</ele>
        <time>2023-01-21T14:08:11.000Z</time>
      </trkpt>
      <trkpt lat="46.27309" lon="6.56061">
        <ele>1205.7</ele>
        <time>2023-01-21T14:08:12.000Z</time>
      </trkpt>
      <trkpt lat="46.27309" lon="6.56055">
        <ele>1205.3</ele>
        <time>2023-01-21T14:08:13.000Z</time>
      </trkpt>
      <trkpt lat="46.27308" lon="6.56048">
        <ele>1204.8</ele>
        <time>2023-01-21T14:08:14.000Z</time>
      </trkpt>
      <trkpt lat="46.27308" lon="6.56042">
        <ele>1204.3</ele>
        <time>2023-01-21T14:08:15.000Z</time>
      </trkpt>
      <trkpt lat="46.27308" lon="6.56038">
        <ele>1203.3</ele>
        <time>2023-01-21T14:08:16.000Z</time>
      </trkpt>
      <trkpt lat="46.27307" lon="6.56034">
        <ele>1202.6</ele>
        <time>2023-01-21T14:08:17.000Z</time>
      </trkpt>
      <trkpt lat="46.27306" lon="6.5603">
        <ele>1201.8</ele>
        <time>2023-01-21T14:08:18.000Z</time>
      </trkpt>
      <trkpt lat="46.27305" lon="6.56025">
        <ele>1200.8</ele>
        <time>2023-01-21T14:08:19.000Z</time>
      </trkpt>
      <trkpt lat="46.27305" lon="6.56022">
        <ele>1199.7</ele>
        <time>2023-01-21T14:08:20.000Z</time>
      </trkpt>
      <trkpt lat="46.27305" lon="6.56021">
        <ele>1198.9</ele>
        <time>2023-01-21T14:08:21.000Z</time>
      </trkpt>
      <trkpt lat="46.27304" lon="6.56021">
        <ele>1198</ele>
        <time>2023-01-21T14:08:22.000Z</time>
      </trkpt>
      <trkpt lat="46.27304" lon="6.56021">
        <ele>1197.1</ele>
        <time>2023-01-21T14:08:23.000Z</time>
      </trkpt>
      <trkpt lat="46.27304" lon="6.56021">
        <ele>1197.1</ele>
        <time>2023-01-21T14:08:24.000Z</time>
      </trkpt>
      <trkpt lat="46.27304" lon="6.56021">
        <ele>1197.1</ele>
        <time>2023-01-21T14:08:25.000Z</time>
      </trkpt>
      <trkpt lat="46.27304" lon="6.56021">
        <ele>1197.1</ele>
        <time>2023-01-21T14:08:26.000Z</time>
      </trkpt>
      <trkpt lat="46.27304" lon="6.56021">
        <ele>1197.1</ele>
        <time>2023-01-21T14:08:27.000Z</time>
      </trkpt>
      <trkpt lat="46.27304" lon="6.56021">
        <ele>1197.1</ele>
        <time>2023-01-21T14:08:28.000Z</time>
      </trkpt>
      <trkpt lat="46.27304" lon="6.56021">
        <ele>1197.1</ele>
        <time>2023-01-21T14:08:29.000Z</time>
      </trkpt>
      <trkpt lat="46.27304" lon="6.56021">
        <ele>1197.1</ele>
        <time>2023-01-21T14:08:30.000Z</time>
      </trkpt>
      <trkpt lat="46.27304" lon="6.56021">
        <ele>1197.1</ele>
        <time>2023-01-21T14:08:31.000Z</time>
      </trkpt>
      <trkpt lat="46.27304" lon="6.56021">
        <ele>1197.1</ele>
        <time>2023-01-21T14:08:32.000Z</time>
      </trkpt>
      <trkpt lat="46.27304" lon="6.56021">
        <ele>1197.1</ele>
        <time>2023-01-21T14:08:33.000Z</time>
      </trkpt>
      <trkpt lat="46.27304" lon="6.56021">
        <ele>1197.1</ele>
        <time>2023-01-21T14:08:34.000Z</time>
      </trkpt>
      <trkpt lat="46.27304" lon="6.56021">
        <ele>1197.1</ele>
        <time>2023-01-21T14:08:35.000Z</time>
      </trkpt>
      <trkpt lat="46.27304" lon="6.56021">
        <ele>1197.1</ele>
        <time>2023-01-21T14:08:36.000Z</time>
      </trkpt>
      <trkpt lat="46.27304" lon="6.56021">
        <ele>1197.1</ele>
        <time>2023-01-21T14:08:37.000Z</time>
      </trkpt>
      <trkpt lat="46.27304" lon="6.56021">
        <ele>1197.1</ele>
        <time>2023-01-21T14:08:38.000Z</time>
      </trkpt>
      <trkpt lat="46.27304" lon="6.56021">
        <ele>1197.1</ele>
        <time>2023-01-21T14:08:39.000Z</time>
      </trkpt>
      <trkpt lat="46.27304" lon="6.56021">
        <ele>1197.1</ele>
        <time>2023-01-21T14:08:40.000Z</time>
      </trkpt>
      <trkpt lat="46.27304" lon="6.56021">
        <ele>1197.1</ele>
        <time>2023-01-21T14:08:41.000Z</time>
      </trkpt>
      <trkpt lat="46.27304" lon="6.56021">
        <ele>1197.1</ele>
        <time>2023-01-21T14:08:42.000Z</time>
      </trkpt>
      <trkpt lat="46.27304" lon="6.56021">
        <ele>1197.1</ele>
        <time>2023-01-21T14:08:43.000Z</time>
      </trkpt>
      <trkpt lat="46.27304" lon="6.56021">
        <ele>1194</ele>
        <time>2023-01-21T14:08:44.000Z</time>
      </trkpt>
      <trkpt lat="46.27304" lon="6.56021">
        <ele>1194</ele>
        <time>2023-01-21T14:08:45.000Z</time>
      </trkpt>
      <trkpt lat="46.27304" lon="6.56021">
        <ele>1194</ele>
        <time>2023-01-21T14:08:46.000Z</time>
      </trkpt>
      <trkpt lat="46.27304" lon="6.56021">
        <ele>1194</ele>
        <time>2023-01-21T14:08:47.000Z</time>
      </trkpt>
      <trkpt lat="46.27304" lon="6.56021">
        <ele>1194</ele>
        <time>2023-01-21T14:08:48.000Z</time>
      </trkpt>
      <trkpt lat="46.27304" lon="6.56021">
        <ele>1194</ele>
        <time>2023-01-21T14:08:49.000Z</time>
      </trkpt>
      <trkpt lat="46.27304" lon="6.56021">
        <ele>1194</ele>
        <time>2023-01-21T14:08:50.000Z</time>
      </trkpt>
      <trkpt lat="46.27304" lon="6.56021">
        <ele>1194</ele>
        <time>2023-01-21T14:08:51.000Z</time>
      </trkpt>
      <trkpt lat="46.27304" lon="6.56021">
        <ele>1194</ele>
        <time>2023-01-21T14:08:52.000Z</time>
      </trkpt>
      <trkpt lat="46.27304" lon="6.56021">
        <ele>1194</ele>
        <time>2023-01-21T14:08:53.000Z</time>
      </trkpt>
      <trkpt lat="46.27304" lon="6.56021">
        <ele>1194</ele>
        <time>2023-01-21T14:08:54.000Z</time>
      </trkpt>
      <trkpt lat="46.27304" lon="6.56021">
        <ele>1194</ele>
        <time>2023-01-21T14:08:55.000Z</time>
      </trkpt>
      <trkpt lat="46.27304" lon="6.56021">
        <ele>1194</ele>
        <time>2023-01-21T14:08:56.000Z</time>
      </trkpt>
      <trkpt lat="46.27304" lon="6.56021">
        <ele>1194</ele>
        <time>2023-01-21T14:08:57.000Z</time>
      </trkpt>
      <trkpt lat="46.27304" lon="6.56021">
        <ele>1194</ele>
        <time>2023-01-21T14:08:58.000Z</time>
      </trkpt>
      <trkpt lat="46.27304" lon="6.56021">
        <ele>1194</ele>
        <time>2023-01-21T14:08:59.000Z</time>
      </trkpt>
      <trkpt lat="46.27304" lon="6.56021">
        <ele>1194</ele>
        <time>2023-01-21T14:09:00.000Z</time>
      </trkpt>
      <trkpt lat="46.27304" lon="6.56021">
        <ele>1194</ele>
        <time>2023-01-21T14:09:01.000Z</time>
      </trkpt>
      <trkpt lat="46.27304" lon="6.56021">
        <ele>1194</ele>
        <time>2023-01-21T14:09:02.000Z</time>
      </trkpt>
      <trkpt lat="46.27304" lon="6.56021">
        <ele>1194</ele>
        <time>2023-01-21T14:09:03.000Z</time>
      </trkpt>
      <trkpt lat="46.27304" lon="6.56021">
        <ele>1194</ele>
        <time>2023-01-21T14:09:04.000Z</time>
      </trkpt>
      <trkpt lat="46.27304" lon="6.56021">
        <ele>1194</ele>
        <time>2023-01-21T14:09:05.000Z</time>
      </trkpt>
      <trkpt lat="46.27304" lon="6.56021">
        <ele>1194</ele>
        <time>2023-01-21T14:09:06.000Z</time>
      </trkpt>
      <trkpt lat="46.27304" lon="6.56021">
        <ele>1194</ele>
        <time>2023-01-21T14:09:07.000Z</time>
      </trkpt>
      <trkpt lat="46.27304" lon="6.56021">
        <ele>1194</ele>
        <time>2023-01-21T14:09:08.000Z</time>
      </trkpt>
      <trkpt lat="46.27304" lon="6.56021">
        <ele>1194</ele>
        <time>2023-01-21T14:09:09.000Z</time>
      </trkpt>
      <trkpt lat="46.27304" lon="6.56021">
        <ele>1194</ele>
        <time>2023-01-21T14:09:10.000Z</time>
      </trkpt>
      <trkpt lat="46.27304" lon="6.56021">
        <ele>1194</ele>
        <time>2023-01-21T14:09:11.000Z</time>
      </trkpt>
      <trkpt lat="46.27304" lon="6.56021">
        <ele>1194</ele>
        <time>2023-01-21T14:09:12.000Z</time>
      </trkpt>
      <trkpt lat="46.27304" lon="6.56021">
        <ele>1194</ele>
        <time>2023-01-21T14:09:13.000Z</time>
      </trkpt>
      <trkpt lat="46.27304" lon="6.56021">
        <ele>1194</ele>
        <time>2023-01-21T14:09:14.000Z</time>
      </trkpt>
      <trkpt lat="46.27304" lon="6.56021">
        <ele>1194</ele>
        <time>2023-01-21T14:09:15.000Z</time>
      </trkpt>
      <trkpt lat="46.27304" lon="6.56021">
        <ele>1194</ele>
        <time>2023-01-21T14:09:16.000Z</time>
      </trkpt>
      <trkpt lat="46.27304" lon="6.56021">
        <ele>1194</ele>
        <time>2023-01-21T14:09:17.000Z</time>
      </trkpt>
      <trkpt lat="46.27304" lon="6.56021">
        <ele>1194</ele>
        <time>2023-01-21T14:09:18.000Z</time>
      </trkpt>
      <trkpt lat="46.27304" lon="6.56021">
        <ele>1194</ele>
        <time>2023-01-21T14:09:19.000Z</time>
      </trkpt>
      <trkpt lat="46.27304" lon="6.56021">
        <ele>1194</ele>
        <time>2023-01-21T14:09:20.000Z</time>
      </trkpt>
      <trkpt lat="46.27304" lon="6.56021">
        <ele>1194</ele>
        <time>2023-01-21T14:09:21.000Z</time>
      </trkpt>
      <trkpt lat="46.27304" lon="6.56021">
        <ele>1194</ele>
        <time>2023-01-21T14:09:22.000Z</time>
      </trkpt>
      <trkpt lat="46.27304" lon="6.56021">
        <ele>1194</ele>
        <time>2023-01-21T14:09:23.000Z</time>
      </trkpt>
      <trkpt lat="46.27304" lon="6.56021">
        <ele>1194</ele>
        <time>2023-01-21T14:09:24.000Z</time>
      </trkpt>
      <trkpt lat="46.27304" lon="6.56021">
        <ele>1194</ele>
        <time>2023-01-21T14:09:25.000Z</time>
      </trkpt>
      <trkpt lat="46.27304" lon="6.56021">
        <ele>1194</ele>
        <time>2023-01-21T14:09:26.000Z</time>
      </trkpt>
      <trkpt lat="46.27304" lon="6.56021">
        <ele>1194</ele>
        <time>2023-01-21T14:09:27.000Z</time>
      </trkpt>
      <trkpt lat="46.27304" lon="6.56021">
        <ele>1194</ele>
        <time>2023-01-21T14:09:28.000Z</time>
      </trkpt>
      <trkpt lat="46.27304" lon="6.56021">
        <ele>1194</ele>
        <time>2023-01-21T14:09:29.000Z</time>
      </trkpt>
      <trkpt lat="46.27304" lon="6.56021">
        <ele>1194</ele>
        <time>2023-01-21T14:09:30.000Z</time>
      </trkpt>
      <trkpt lat="46.27304" lon="6.56021">
        <ele>1194</ele>
        <time>2023-01-21T14:09:31.000Z</time>
      </trkpt>
      <trkpt lat="46.27304" lon="6.56021">
        <ele>1194</ele>
        <time>2023-01-21T14:09:32.000Z</time>
      </trkpt>
      <trkpt lat="46.27304" lon="6.56021">
        <ele>1194</ele>
        <time>2023-01-21T14:09:33.000Z</time>
      </trkpt>
      <trkpt lat="46.27304" lon="6.56021">
        <ele>1194</ele>
        <time>2023-01-21T14:09:34.000Z</time>
      </trkpt>
      <trkpt lat="46.27304" lon="6.56021">
        <ele>1194</ele>
        <time>2023-01-21T14:09:35.000Z</time>
      </trkpt>
      <trkpt lat="46.2731" lon="6.56018">
        <ele>1194.1</ele>
        <time>2023-01-21T14:09:36.000Z</time>
      </trkpt>
      <trkpt lat="46.27312" lon="6.56019">
        <ele>1194.1</ele>
        <time>2023-01-21T14:09:37.000Z</time>
      </trkpt>
      <trkpt lat="46.27314" lon="6.5602">
        <ele>1194.1</ele>
        <time>2023-01-21T14:09:38.000Z</time>
      </trkpt>
      <trkpt lat="46.27316" lon="6.5602">
        <ele>1194</ele>
        <time>2023-01-21T14:09:39.000Z</time>
      </trkpt>
      <trkpt lat="46.27318" lon="6.56021">
        <ele>1193.9</ele>
        <time>2023-01-21T14:09:40.000Z</time>
      </trkpt>
      <trkpt lat="46.27319" lon="6.56021">
        <ele>1193.9</ele>
        <time>2023-01-21T14:09:41.000Z</time>
      </trkpt>
      <trkpt lat="46.2732" lon="6.56021">
        <ele>1193.7</ele>
        <time>2023-01-21T14:09:42.000Z</time>
      </trkpt>
      <trkpt lat="46.27322" lon="6.56019">
        <ele>1193.6</ele>
        <time>2023-01-21T14:09:43.000Z</time>
      </trkpt>
      <trkpt lat="46.27323" lon="6.56015">
        <ele>1193.4</ele>
        <time>2023-01-21T14:09:44.000Z</time>
      </trkpt>
      <trkpt lat="46.27323" lon="6.56011">
        <ele>1193.2</ele>
        <time>2023-01-21T14:09:45.000Z</time>
      </trkpt>
      <trkpt lat="46.27322" lon="6.56007">
        <ele>1192.9</ele>
        <time>2023-01-21T14:09:46.000Z</time>
      </trkpt>
      <trkpt lat="46.27321" lon="6.56004">
        <ele>1192.5</ele>
        <time>2023-01-21T14:09:47.000Z</time>
      </trkpt>
      <trkpt lat="46.2732" lon="6.56003">
        <ele>1191.9</ele>
        <time>2023-01-21T14:09:48.000Z</time>
      </trkpt>
      <trkpt lat="46.2732" lon="6.56002">
        <ele>1191.7</ele>
        <time>2023-01-21T14:09:49.000Z</time>
      </trkpt>
      <trkpt lat="46.27319" lon="6.56001">
        <ele>1191.5</ele>
        <time>2023-01-21T14:09:50.000Z</time>
      </trkpt>
      <trkpt lat="46.27319" lon="6.56001">
        <ele>1191.5</ele>
        <time>2023-01-21T14:09:51.000Z</time>
      </trkpt>
      <trkpt lat="46.27315" lon="6.55996">
        <ele>1190.5</ele>
        <time>2023-01-21T14:09:52.000Z</time>
      </trkpt>
      <trkpt lat="46.27311" lon="6.5599">
        <ele>1189.7</ele>
        <time>2023-01-21T14:09:53.000Z</time>
      </trkpt>
      <trkpt lat="46.27308" lon="6.55983">
        <ele>1188.9</ele>
        <time>2023-01-21T14:09:54.000Z</time>
      </trkpt>
      <trkpt lat="46.27304" lon="6.55978">
        <ele>1188.3</ele>
        <time>2023-01-21T14:09:55.000Z</time>
      </trkpt>
      <trkpt lat="46.27301" lon="6.55974">
        <ele>1187.8</ele>
        <time>2023-01-21T14:09:56.000Z</time>
      </trkpt>
      <trkpt lat="46.27298" lon="6.55972">
        <ele>1187.2</ele>
        <time>2023-01-21T14:09:57.000Z</time>
      </trkpt>
      <trkpt lat="46.27296" lon="6.55972">
        <ele>1186.9</ele>
        <time>2023-01-21T14:09:58.000Z</time>
      </trkpt>
      <trkpt lat="46.27296" lon="6.55972">
        <ele>1186.6</ele>
        <time>2023-01-21T14:09:59.000Z</time>
      </trkpt>
      <trkpt lat="46.27296" lon="6.55972">
        <ele>1186.2</ele>
        <time>2023-01-21T14:10:00.000Z</time>
      </trkpt>
      <trkpt lat="46.27296" lon="6.55972">
        <ele>1185.9</ele>
        <time>2023-01-21T14:10:01.000Z</time>
      </trkpt>
      <trkpt lat="46.27296" lon="6.55972">
        <ele>1185.9</ele>
        <time>2023-01-21T14:10:02.000Z</time>
      </trkpt>
      <trkpt lat="46.27296" lon="6.55972">
        <ele>1185.9</ele>
        <time>2023-01-21T14:10:03.000Z</time>
      </trkpt>
      <trkpt lat="46.27296" lon="6.55972">
        <ele>1185.9</ele>
        <time>2023-01-21T14:10:04.000Z</time>
      </trkpt>
      <trkpt lat="46.27296" lon="6.55972">
        <ele>1185.9</ele>
        <time>2023-01-21T14:10:05.000Z</time>
      </trkpt>
      <trkpt lat="46.27296" lon="6.55972">
        <ele>1185.9</ele>
        <time>2023-01-21T14:10:06.000Z</time>
      </trkpt>
      <trkpt lat="46.27296" lon="6.55972">
        <ele>1185.9</ele>
        <time>2023-01-21T14:10:07.000Z</time>
      </trkpt>
      <trkpt lat="46.27296" lon="6.55972">
        <ele>1185.9</ele>
        <time>2023-01-21T14:10:08.000Z</time>
      </trkpt>
      <trkpt lat="46.27296" lon="6.55972">
        <ele>1185.9</ele>
        <time>2023-01-21T14:10:09.000Z</time>
      </trkpt>
      <trkpt lat="46.27296" lon="6.55972">
        <ele>1185.9</ele>
        <time>2023-01-21T14:10:10.000Z</time>
      </trkpt>
      <trkpt lat="46.27296" lon="6.55972">
        <ele>1182.3</ele>
        <time>2023-01-21T14:10:11.000Z</time>
      </trkpt>
      <trkpt lat="46.27296" lon="6.55972">
        <ele>1182.3</ele>
        <time>2023-01-21T14:10:12.000Z</time>
      </trkpt>
      <trkpt lat="46.27296" lon="6.55972">
        <ele>1182.3</ele>
        <time>2023-01-21T14:10:13.000Z</time>
      </trkpt>
      <trkpt lat="46.27296" lon="6.55972">
        <ele>1182.3</ele>
        <time>2023-01-21T14:10:14.000Z</time>
      </trkpt>
      <trkpt lat="46.27296" lon="6.55972">
        <ele>1182.3</ele>
        <time>2023-01-21T14:10:15.000Z</time>
      </trkpt>
      <trkpt lat="46.27296" lon="6.55972">
        <ele>1182.3</ele>
        <time>2023-01-21T14:10:16.000Z</time>
      </trkpt>
      <trkpt lat="46.27296" lon="6.55972">
        <ele>1182.3</ele>
        <time>2023-01-21T14:10:17.000Z</time>
      </trkpt>
      <trkpt lat="46.27296" lon="6.55972">
        <ele>1182.3</ele>
        <time>2023-01-21T14:10:18.000Z</time>
      </trkpt>
      <trkpt lat="46.27296" lon="6.55972">
        <ele>1182.3</ele>
        <time>2023-01-21T14:10:19.000Z</time>
      </trkpt>
      <trkpt lat="46.27296" lon="6.55972">
        <ele>1182.3</ele>
        <time>2023-01-21T14:10:20.000Z</time>
      </trkpt>
      <trkpt lat="46.27296" lon="6.55972">
        <ele>1182.3</ele>
        <time>2023-01-21T14:10:21.000Z</time>
      </trkpt>
      <trkpt lat="46.27296" lon="6.55972">
        <ele>1182.3</ele>
        <time>2023-01-21T14:10:22.000Z</time>
      </trkpt>
      <trkpt lat="46.27296" lon="6.55972">
        <ele>1182.3</ele>
        <time>2023-01-21T14:10:23.000Z</time>
      </trkpt>
      <trkpt lat="46.27296" lon="6.55972">
        <ele>1182.3</ele>
        <time>2023-01-21T14:10:24.000Z</time>
      </trkpt>
      <trkpt lat="46.27296" lon="6.55972">
        <ele>1182.3</ele>
        <time>2023-01-21T14:10:25.000Z</time>
      </trkpt>
      <trkpt lat="46.27296" lon="6.55972">
        <ele>1182.3</ele>
        <time>2023-01-21T14:10:26.000Z</time>
      </trkpt>
      <trkpt lat="46.27296" lon="6.55972">
        <ele>1182.3</ele>
        <time>2023-01-21T14:10:27.000Z</time>
      </trkpt>
      <trkpt lat="46.27296" lon="6.55972">
        <ele>1182.3</ele>
        <time>2023-01-21T14:10:28.000Z</time>
      </trkpt>
      <trkpt lat="46.27296" lon="6.55972">
        <ele>1182.3</ele>
        <time>2023-01-21T14:10:29.000Z</time>
      </trkpt>
      <trkpt lat="46.27296" lon="6.55972">
        <ele>1182.3</ele>
        <time>2023-01-21T14:10:30.000Z</time>
      </trkpt>
      <trkpt lat="46.27296" lon="6.55972">
        <ele>1182.3</ele>
        <time>2023-01-21T14:10:31.000Z</time>
      </trkpt>
      <trkpt lat="46.27296" lon="6.55972">
        <ele>1182.3</ele>
        <time>2023-01-21T14:10:32.000Z</time>
      </trkpt>
      <trkpt lat="46.27296" lon="6.55972">
        <ele>1182.3</ele>
        <time>2023-01-21T14:10:33.000Z</time>
      </trkpt>
      <trkpt lat="46.27296" lon="6.55972">
        <ele>1182.3</ele>
        <time>2023-01-21T14:10:34.000Z</time>
      </trkpt>
      <trkpt lat="46.27296" lon="6.55972">
        <ele>1182.3</ele>
        <time>2023-01-21T14:10:35.000Z</time>
      </trkpt>
      <trkpt lat="46.27296" lon="6.55972">
        <ele>1182.3</ele>
        <time>2023-01-21T14:10:36.000Z</time>
      </trkpt>
      <trkpt lat="46.27296" lon="6.55972">
        <ele>1182.3</ele>
        <time>2023-01-21T14:10:37.000Z</time>
      </trkpt>
      <trkpt lat="46.27296" lon="6.55972">
        <ele>1182.3</ele>
        <time>2023-01-21T14:10:38.000Z</time>
      </trkpt>
      <trkpt lat="46.27296" lon="6.55972">
        <ele>1182.3</ele>
        <time>2023-01-21T14:10:39.000Z</time>
      </trkpt>
      <trkpt lat="46.27296" lon="6.55972">
        <ele>1182.3</ele>
        <time>2023-01-21T14:10:40.000Z</time>
      </trkpt>
      <trkpt lat="46.27296" lon="6.55972">
        <ele>1182.3</ele>
        <time>2023-01-21T14:10:41.000Z</time>
      </trkpt>
      <trkpt lat="46.27296" lon="6.55972">
        <ele>1182.3</ele>
        <time>2023-01-21T14:10:42.000Z</time>
      </trkpt>
      <trkpt lat="46.27296" lon="6.55972">
        <ele>1182.3</ele>
        <time>2023-01-21T14:10:43.000Z</time>
      </trkpt>
      <trkpt lat="46.27296" lon="6.55972">
        <ele>1182.3</ele>
        <time>2023-01-21T14:10:44.000Z</time>
      </trkpt>
      <trkpt lat="46.27296" lon="6.55972">
        <ele>1182.3</ele>
        <time>2023-01-21T14:10:45.000Z</time>
      </trkpt>
      <trkpt lat="46.27296" lon="6.55972">
        <ele>1182.3</ele>
        <time>2023-01-21T14:10:46.000Z</time>
      </trkpt>
      <trkpt lat="46.27296" lon="6.55972">
        <ele>1182.3</ele>
        <time>2023-01-21T14:10:47.000Z</time>
      </trkpt>
      <trkpt lat="46.27296" lon="6.55972">
        <ele>1182.3</ele>
        <time>2023-01-21T14:10:48.000Z</time>
      </trkpt>
      <trkpt lat="46.27296" lon="6.55972">
        <ele>1182.3</ele>
        <time>2023-01-21T14:10:49.000Z</time>
      </trkpt>
      <trkpt lat="46.27294" lon="6.55968">
        <ele>1180.8</ele>
        <time>2023-01-21T14:10:50.000Z</time>
      </trkpt>
      <trkpt lat="46.27295" lon="6.55963">
        <ele>1180.6</ele>
        <time>2023-01-21T14:10:51.000Z</time>
      </trkpt>
      <trkpt lat="46.27295" lon="6.55957">
        <ele>1180.3</ele>
        <time>2023-01-21T14:10:52.000Z</time>
      </trkpt>
      <trkpt lat="46.27295" lon="6.55951">
        <ele>1180</ele>
        <time>2023-01-21T14:10:53.000Z</time>
      </trkpt>
      <trkpt lat="46.27294" lon="6.55948">
        <ele>1179.9</ele>
        <time>2023-01-21T14:10:54.000Z</time>
      </trkpt>
      <trkpt lat="46.27292" lon="6.55946">
        <ele>1179.8</ele>
        <time>2023-01-21T14:10:55.000Z</time>
      </trkpt>
      <trkpt lat="46.27291" lon="6.55944">
        <ele>1179.7</ele>
        <time>2023-01-21T14:10:56.000Z</time>
      </trkpt>
      <trkpt lat="46.2729" lon="6.55942">
        <ele>1179.5</ele>
        <time>2023-01-21T14:10:57.000Z</time>
      </trkpt>
      <trkpt lat="46.27289" lon="6.5594">
        <ele>1179.4</ele>
        <time>2023-01-21T14:10:58.000Z</time>
      </trkpt>
      <trkpt lat="46.27288" lon="6.55939">
        <ele>1179</ele>
        <time>2023-01-21T14:10:59.000Z</time>
      </trkpt>
      <trkpt lat="46.27288" lon="6.55939">
        <ele>1178.9</ele>
        <time>2023-01-21T14:11:00.000Z</time>
      </trkpt>
      <trkpt lat="46.27287" lon="6.55938">
        <ele>1178.6</ele>
        <time>2023-01-21T14:11:01.000Z</time>
      </trkpt>
      <trkpt lat="46.27287" lon="6.55938">
        <ele>1178.5</ele>
        <time>2023-01-21T14:11:02.000Z</time>
      </trkpt>
      <trkpt lat="46.27287" lon="6.55938">
        <ele>1178.5</ele>
        <time>2023-01-21T14:11:03.000Z</time>
      </trkpt>
      <trkpt lat="46.27287" lon="6.55938">
        <ele>1178.5</ele>
        <time>2023-01-21T14:11:04.000Z</time>
      </trkpt>
      <trkpt lat="46.27287" lon="6.55938">
        <ele>1178.5</ele>
        <time>2023-01-21T14:11:05.000Z</time>
      </trkpt>
      <trkpt lat="46.27287" lon="6.55938">
        <ele>1178.5</ele>
        <time>2023-01-21T14:11:06.000Z</time>
      </trkpt>
      <trkpt lat="46.27287" lon="6.55938">
        <ele>1178.5</ele>
        <time>2023-01-21T14:11:07.000Z</time>
      </trkpt>
      <trkpt lat="46.27287" lon="6.55938">
        <ele>1178.5</ele>
        <time>2023-01-21T14:11:08.000Z</time>
      </trkpt>
      <trkpt lat="46.27287" lon="6.55938">
        <ele>1178.5</ele>
        <time>2023-01-21T14:11:09.000Z</time>
      </trkpt>
      <trkpt lat="46.27287" lon="6.55938">
        <ele>1178.5</ele>
        <time>2023-01-21T14:11:10.000Z</time>
      </trkpt>
      <trkpt lat="46.27287" lon="6.55938">
        <ele>1178.5</ele>
        <time>2023-01-21T14:11:11.000Z</time>
      </trkpt>
      <trkpt lat="46.27279" lon="6.55937">
        <ele>1177.6</ele>
        <time>2023-01-21T14:11:12.000Z</time>
      </trkpt>
      <trkpt lat="46.27278" lon="6.55936">
        <ele>1177.6</ele>
        <time>2023-01-21T14:11:13.000Z</time>
      </trkpt>
      <trkpt lat="46.27277" lon="6.55935">
        <ele>1178</ele>
        <time>2023-01-21T14:11:14.000Z</time>
      </trkpt>
      <trkpt lat="46.27276" lon="6.55933">
        <ele>1178.3</ele>
        <time>2023-01-21T14:11:15.000Z</time>
      </trkpt>
      <trkpt lat="46.27274" lon="6.55932">
        <ele>1178.5</ele>
        <time>2023-01-21T14:11:16.000Z</time>
      </trkpt>
      <trkpt lat="46.27273" lon="6.55932">
        <ele>1178.7</ele>
        <time>2023-01-21T14:11:17.000Z</time>
      </trkpt>
      <trkpt lat="46.2727" lon="6.5593">
        <ele>1178.7</ele>
        <time>2023-01-21T14:11:18.000Z</time>
      </trkpt>
      <trkpt lat="46.27267" lon="6.55931">
        <ele>1178.5</ele>
        <time>2023-01-21T14:11:19.000Z</time>
      </trkpt>
      <trkpt lat="46.27265" lon="6.55931">
        <ele>1178.6</ele>
        <time>2023-01-21T14:11:20.000Z</time>
      </trkpt>
      <trkpt lat="46.27262" lon="6.5593">
        <ele>1178.5</ele>
        <time>2023-01-21T14:11:21.000Z</time>
      </trkpt>
      <trkpt lat="46.27259" lon="6.55929">
        <ele>1178.5</ele>
        <time>2023-01-21T14:11:22.000Z</time>
      </trkpt>
      <trkpt lat="46.27255" lon="6.55927">
        <ele>1178.4</ele>
        <time>2023-01-21T14:11:23.000Z</time>
      </trkpt>
      <trkpt lat="46.27252" lon="6.55926">
        <ele>1178.5</ele>
        <time>2023-01-21T14:11:24.000Z</time>
      </trkpt>
      <trkpt lat="46.27248" lon="6.55923">
        <ele>1178.3</ele>
        <time>2023-01-21T14:11:25.000Z</time>
      </trkpt>
      <trkpt lat="46.27245" lon="6.5592">
        <ele>1178</ele>
        <time>2023-01-21T14:11:26.000Z</time>
      </trkpt>
      <trkpt lat="46.27241" lon="6.55916">
        <ele>1177.6</ele>
        <time>2023-01-21T14:11:27.000Z</time>
      </trkpt>
      <trkpt lat="46.27239" lon="6.5591">
        <ele>1177.3</ele>
        <time>2023-01-21T14:11:28.000Z</time>
      </trkpt>
      <trkpt lat="46.27235" lon="6.55906">
        <ele>1177</ele>
        <time>2023-01-21T14:11:29.000Z</time>
      </trkpt>
      <trkpt lat="46.27233" lon="6.55901">
        <ele>1176.6</ele>
        <time>2023-01-21T14:11:30.000Z</time>
      </trkpt>
      <trkpt lat="46.27231" lon="6.55896">
        <ele>1176.2</ele>
        <time>2023-01-21T14:11:31.000Z</time>
      </trkpt>
      <trkpt lat="46.27228" lon="6.55891">
        <ele>1176</ele>
        <time>2023-01-21T14:11:32.000Z</time>
      </trkpt>
      <trkpt lat="46.27224" lon="6.55885">
        <ele>1175.7</ele>
        <time>2023-01-21T14:11:33.000Z</time>
      </trkpt>
      <trkpt lat="46.27221" lon="6.5588">
        <ele>1175.3</ele>
        <time>2023-01-21T14:11:34.000Z</time>
      </trkpt>
      <trkpt lat="46.27218" lon="6.55875">
        <ele>1175</ele>
        <time>2023-01-21T14:11:35.000Z</time>
      </trkpt>
      <trkpt lat="46.27214" lon="6.55871">
        <ele>1174.7</ele>
        <time>2023-01-21T14:11:36.000Z</time>
      </trkpt>
      <trkpt lat="46.2721" lon="6.55866">
        <ele>1174.4</ele>
        <time>2023-01-21T14:11:37.000Z</time>
      </trkpt>
      <trkpt lat="46.27206" lon="6.55863">
        <ele>1174.1</ele>
        <time>2023-01-21T14:11:38.000Z</time>
      </trkpt>
      <trkpt lat="46.27202" lon="6.55859">
        <ele>1173.8</ele>
        <time>2023-01-21T14:11:39.000Z</time>
      </trkpt>
      <trkpt lat="46.27198" lon="6.55857">
        <ele>1173.2</ele>
        <time>2023-01-21T14:11:40.000Z</time>
      </trkpt>
      <trkpt lat="46.27195" lon="6.55855">
        <ele>1172.6</ele>
        <time>2023-01-21T14:11:41.000Z</time>
      </trkpt>
      <trkpt lat="46.27192" lon="6.55852">
        <ele>1172.2</ele>
        <time>2023-01-21T14:11:42.000Z</time>
      </trkpt>
      <trkpt lat="46.27189" lon="6.55849">
        <ele>1171.7</ele>
        <time>2023-01-21T14:11:43.000Z</time>
      </trkpt>
      <trkpt lat="46.27186" lon="6.55847">
        <ele>1170.8</ele>
        <time>2023-01-21T14:11:44.000Z</time>
      </trkpt>
      <trkpt lat="46.27183" lon="6.55844">
        <ele>1169.9</ele>
        <time>2023-01-21T14:11:45.000Z</time>
      </trkpt>
      <trkpt lat="46.2718" lon="6.5584">
        <ele>1169</ele>
        <time>2023-01-21T14:11:46.000Z</time>
      </trkpt>
      <trkpt lat="46.27179" lon="6.55837">
        <ele>1167.2</ele>
        <time>2023-01-21T14:11:47.000Z</time>
      </trkpt>
      <trkpt lat="46.27177" lon="6.55835">
        <ele>1164.2</ele>
        <time>2023-01-21T14:11:48.000Z</time>
      </trkpt>
      <trkpt lat="46.27175" lon="6.55833">
        <ele>1161.9</ele>
        <time>2023-01-21T14:11:49.000Z</time>
      </trkpt>
      <trkpt lat="46.27174" lon="6.55833">
        <ele>1160.5</ele>
        <time>2023-01-21T14:11:50.000Z</time>
      </trkpt>
      <trkpt lat="46.27174" lon="6.55832">
        <ele>1158.4</ele>
        <time>2023-01-21T14:11:51.000Z</time>
      </trkpt>
      <trkpt lat="46.27175" lon="6.55833">
        <ele>1157.2</ele>
        <time>2023-01-21T14:11:52.000Z</time>
      </trkpt>
      <trkpt lat="46.27175" lon="6.55833">
        <ele>1157.2</ele>
        <time>2023-01-21T14:11:53.000Z</time>
      </trkpt>
      <trkpt lat="46.27175" lon="6.55833">
        <ele>1157.2</ele>
        <time>2023-01-21T14:11:54.000Z</time>
      </trkpt>
      <trkpt lat="46.27175" lon="6.55833">
        <ele>1157.2</ele>
        <time>2023-01-21T14:11:55.000Z</time>
      </trkpt>
      <trkpt lat="46.27175" lon="6.55833">
        <ele>1157.2</ele>
        <time>2023-01-21T14:11:56.000Z</time>
      </trkpt>
      <trkpt lat="46.27175" lon="6.55833">
        <ele>1157.2</ele>
        <time>2023-01-21T14:11:57.000Z</time>
      </trkpt>
      <trkpt lat="46.27175" lon="6.55833">
        <ele>1157.2</ele>
        <time>2023-01-21T14:11:58.000Z</time>
      </trkpt>
      <trkpt lat="46.27175" lon="6.55833">
        <ele>1157.2</ele>
        <time>2023-01-21T14:11:59.000Z</time>
      </trkpt>
      <trkpt lat="46.27175" lon="6.55833">
        <ele>1157.2</ele>
        <time>2023-01-21T14:12:00.000Z</time>
      </trkpt>
      <trkpt lat="46.27175" lon="6.55833">
        <ele>1157.2</ele>
        <time>2023-01-21T14:12:01.000Z</time>
      </trkpt>
      <trkpt lat="46.27175" lon="6.55833">
        <ele>1157.2</ele>
        <time>2023-01-21T14:12:02.000Z</time>
      </trkpt>
      <trkpt lat="46.27175" lon="6.55833">
        <ele>1157.2</ele>
        <time>2023-01-21T14:12:03.000Z</time>
      </trkpt>
      <trkpt lat="46.27175" lon="6.55833">
        <ele>1157.2</ele>
        <time>2023-01-21T14:12:04.000Z</time>
      </trkpt>
      <trkpt lat="46.27175" lon="6.55833">
        <ele>1157.2</ele>
        <time>2023-01-21T14:12:05.000Z</time>
      </trkpt>
      <trkpt lat="46.27175" lon="6.55833">
        <ele>1157.2</ele>
        <time>2023-01-21T14:12:06.000Z</time>
      </trkpt>
      <trkpt lat="46.27175" lon="6.55833">
        <ele>1157.2</ele>
        <time>2023-01-21T14:12:07.000Z</time>
      </trkpt>
      <trkpt lat="46.27175" lon="6.55833">
        <ele>1157.2</ele>
        <time>2023-01-21T14:12:08.000Z</time>
      </trkpt>
      <trkpt lat="46.27175" lon="6.55833">
        <ele>1157.2</ele>
        <time>2023-01-21T14:12:09.000Z</time>
      </trkpt>
      <trkpt lat="46.27175" lon="6.55833">
        <ele>1157.2</ele>
        <time>2023-01-21T14:12:10.000Z</time>
      </trkpt>
      <trkpt lat="46.27175" lon="6.55833">
        <ele>1157.2</ele>
        <time>2023-01-21T14:12:11.000Z</time>
      </trkpt>
      <trkpt lat="46.27175" lon="6.55833">
        <ele>1157.2</ele>
        <time>2023-01-21T14:12:12.000Z</time>
      </trkpt>
      <trkpt lat="46.27175" lon="6.55833">
        <ele>1157.2</ele>
        <time>2023-01-21T14:12:13.000Z</time>
      </trkpt>
      <trkpt lat="46.27175" lon="6.55833">
        <ele>1157.2</ele>
        <time>2023-01-21T14:12:14.000Z</time>
      </trkpt>
      <trkpt lat="46.27175" lon="6.55833">
        <ele>1157.2</ele>
        <time>2023-01-21T14:12:15.000Z</time>
      </trkpt>
      <trkpt lat="46.27175" lon="6.55833">
        <ele>1157.2</ele>
        <time>2023-01-21T14:12:16.000Z</time>
      </trkpt>
      <trkpt lat="46.27175" lon="6.55833">
        <ele>1157.2</ele>
        <time>2023-01-21T14:12:17.000Z</time>
      </trkpt>
      <trkpt lat="46.27175" lon="6.55833">
        <ele>1157.2</ele>
        <time>2023-01-21T14:12:18.000Z</time>
      </trkpt>
      <trkpt lat="46.27175" lon="6.55833">
        <ele>1157.2</ele>
        <time>2023-01-21T14:12:19.000Z</time>
      </trkpt>
      <trkpt lat="46.27175" lon="6.55833">
        <ele>1157.2</ele>
        <time>2023-01-21T14:12:20.000Z</time>
      </trkpt>
      <trkpt lat="46.27175" lon="6.55833">
        <ele>1157.2</ele>
        <time>2023-01-21T14:12:21.000Z</time>
      </trkpt>
      <trkpt lat="46.27175" lon="6.55833">
        <ele>1157.2</ele>
        <time>2023-01-21T14:12:22.000Z</time>
      </trkpt>
      <trkpt lat="46.27175" lon="6.55833">
        <ele>1157.2</ele>
        <time>2023-01-21T14:12:23.000Z</time>
      </trkpt>
      <trkpt lat="46.27175" lon="6.55833">
        <ele>1157.2</ele>
        <time>2023-01-21T14:12:24.000Z</time>
      </trkpt>
      <trkpt lat="46.27175" lon="6.55833">
        <ele>1157.2</ele>
        <time>2023-01-21T14:12:25.000Z</time>
      </trkpt>
      <trkpt lat="46.27175" lon="6.55833">
        <ele>1157.2</ele>
        <time>2023-01-21T14:12:26.000Z</time>
      </trkpt>
      <trkpt lat="46.27175" lon="6.55833">
        <ele>1157.2</ele>
        <time>2023-01-21T14:12:27.000Z</time>
      </trkpt>
      <trkpt lat="46.27175" lon="6.55833">
        <ele>1157.2</ele>
        <time>2023-01-21T14:12:28.000Z</time>
      </trkpt>
      <trkpt lat="46.27175" lon="6.55833">
        <ele>1157.2</ele>
        <time>2023-01-21T14:12:29.000Z</time>
      </trkpt>
      <trkpt lat="46.27175" lon="6.55833">
        <ele>1157.2</ele>
        <time>2023-01-21T14:12:30.000Z</time>
      </trkpt>
      <trkpt lat="46.27175" lon="6.55833">
        <ele>1157.2</ele>
        <time>2023-01-21T14:12:31.000Z</time>
      </trkpt>
      <trkpt lat="46.27175" lon="6.55833">
        <ele>1157.2</ele>
        <time>2023-01-21T14:12:32.000Z</time>
      </trkpt>
      <trkpt lat="46.27175" lon="6.55833">
        <ele>1157.2</ele>
        <time>2023-01-21T14:12:33.000Z</time>
      </trkpt>
      <trkpt lat="46.27175" lon="6.55833">
        <ele>1157.2</ele>
        <time>2023-01-21T14:12:34.000Z</time>
      </trkpt>
      <trkpt lat="46.27175" lon="6.55833">
        <ele>1157.2</ele>
        <time>2023-01-21T14:12:35.000Z</time>
      </trkpt>
      <trkpt lat="46.27175" lon="6.55833">
        <ele>1157.2</ele>
        <time>2023-01-21T14:12:36.000Z</time>
      </trkpt>
      <trkpt lat="46.27175" lon="6.55833">
        <ele>1157.2</ele>
        <time>2023-01-21T14:12:37.000Z</time>
      </trkpt>
      <trkpt lat="46.27175" lon="6.55833">
        <ele>1157.2</ele>
        <time>2023-01-21T14:12:38.000Z</time>
      </trkpt>
      <trkpt lat="46.27175" lon="6.55833">
        <ele>1157.2</ele>
        <time>2023-01-21T14:12:39.000Z</time>
      </trkpt>
      <trkpt lat="46.27175" lon="6.55833">
        <ele>1157.2</ele>
        <time>2023-01-21T14:12:40.000Z</time>
      </trkpt>
      <trkpt lat="46.27175" lon="6.55833">
        <ele>1157.2</ele>
        <time>2023-01-21T14:12:41.000Z</time>
      </trkpt>
      <trkpt lat="46.27174" lon="6.5583">
        <ele>1157.7</ele>
        <time>2023-01-21T14:12:43.000Z</time>
      </trkpt>
      <trkpt lat="46.27174" lon="6.5583">
        <ele>1157.7</ele>
        <time>2023-01-21T14:12:44.000Z</time>
      </trkpt>
      <trkpt lat="46.27175" lon="6.55831">
        <ele>1157.6</ele>
        <time>2023-01-21T14:12:45.000Z</time>
      </trkpt>
      <trkpt lat="46.27176" lon="6.55831">
        <ele>1157.5</ele>
        <time>2023-01-21T14:12:46.000Z</time>
      </trkpt>
      <trkpt lat="46.27176" lon="6.55831">
        <ele>1157.5</ele>
        <time>2023-01-21T14:12:48.000Z</time>
      </trkpt>
      <trkpt lat="46.27176" lon="6.55831">
        <ele>1157.3</ele>
        <time>2023-01-21T14:12:49.000Z</time>
      </trkpt>
      <trkpt lat="46.27176" lon="6.5583">
        <ele>1157.1</ele>
        <time>2023-01-21T14:12:50.000Z</time>
      </trkpt>
      <trkpt lat="46.27176" lon="6.5583">
        <ele>1157</ele>
        <time>2023-01-21T14:12:51.000Z</time>
      </trkpt>
      <trkpt lat="46.27175" lon="6.5583">
        <ele>1156.7</ele>
        <time>2023-01-21T14:12:52.000Z</time>
      </trkpt>
      <trkpt lat="46.27176" lon="6.55829">
        <ele>1156.4</ele>
        <time>2023-01-21T14:12:53.000Z</time>
      </trkpt>
      <trkpt lat="46.27176" lon="6.55829">
        <ele>1156.1</ele>
        <time>2023-01-21T14:12:54.000Z</time>
      </trkpt>
      <trkpt lat="46.27176" lon="6.55829">
        <ele>1155.9</ele>
        <time>2023-01-21T14:12:55.000Z</time>
      </trkpt>
      <trkpt lat="46.27176" lon="6.5583">
        <ele>1155.7</ele>
        <time>2023-01-21T14:12:56.000Z</time>
      </trkpt>
      <trkpt lat="46.27175" lon="6.5583">
        <ele>1155.9</ele>
        <time>2023-01-21T14:12:57.000Z</time>
      </trkpt>
      <trkpt lat="46.27176" lon="6.5583">
        <ele>1156</ele>
        <time>2023-01-21T14:12:58.000Z</time>
      </trkpt>
      <trkpt lat="46.27176" lon="6.5583">
        <ele>1156</ele>
        <time>2023-01-21T14:12:59.000Z</time>
      </trkpt>
      <trkpt lat="46.27175" lon="6.5583">
        <ele>1156</ele>
        <time>2023-01-21T14:13:00.000Z</time>
      </trkpt>
      <trkpt lat="46.27175" lon="6.5583">
        <ele>1156.1</ele>
        <time>2023-01-21T14:13:01.000Z</time>
      </trkpt>
      <trkpt lat="46.27175" lon="6.5583">
        <ele>1156.1</ele>
        <time>2023-01-21T14:13:02.000Z</time>
      </trkpt>
      <trkpt lat="46.27174" lon="6.55829">
        <ele>1156</ele>
        <time>2023-01-21T14:13:03.000Z</time>
      </trkpt>
      <trkpt lat="46.27174" lon="6.5583">
        <ele>1156</ele>
        <time>2023-01-21T14:13:04.000Z</time>
      </trkpt>
      <trkpt lat="46.27174" lon="6.5583">
        <ele>1156.1</ele>
        <time>2023-01-21T14:13:05.000Z</time>
      </trkpt>
      <trkpt lat="46.27174" lon="6.5583">
        <ele>1156.1</ele>
        <time>2023-01-21T14:13:06.000Z</time>
      </trkpt>
      <trkpt lat="46.27174" lon="6.5583">
        <ele>1156.1</ele>
        <time>2023-01-21T14:13:07.000Z</time>
      </trkpt>
      <trkpt lat="46.27174" lon="6.5583">
        <ele>1156.1</ele>
        <time>2023-01-21T14:13:08.000Z</time>
      </trkpt>
      <trkpt lat="46.27173" lon="6.5583">
        <ele>1156.2</ele>
        <time>2023-01-21T14:13:09.000Z</time>
      </trkpt>
      <trkpt lat="46.27174" lon="6.5583">
        <ele>1156.3</ele>
        <time>2023-01-21T14:13:10.000Z</time>
      </trkpt>
      <trkpt lat="46.27174" lon="6.55831">
        <ele>1156.3</ele>
        <time>2023-01-21T14:13:11.000Z</time>
      </trkpt>
      <trkpt lat="46.27174" lon="6.55831">
        <ele>1156.4</ele>
        <time>2023-01-21T14:13:12.000Z</time>
      </trkpt>
      <trkpt lat="46.27174" lon="6.55831">
        <ele>1156.5</ele>
        <time>2023-01-21T14:13:13.000Z</time>
      </trkpt>
      <trkpt lat="46.27174" lon="6.5583">
        <ele>1156.5</ele>
        <time>2023-01-21T14:13:14.000Z</time>
      </trkpt>
      <trkpt lat="46.27174" lon="6.5583">
        <ele>1156.5</ele>
        <time>2023-01-21T14:13:15.000Z</time>
      </trkpt>
      <trkpt lat="46.27175" lon="6.55831">
        <ele>1156.5</ele>
        <time>2023-01-21T14:13:16.000Z</time>
      </trkpt>
      <trkpt lat="46.27175" lon="6.55831">
        <ele>1156.5</ele>
        <time>2023-01-21T14:13:17.000Z</time>
      </trkpt>
      <trkpt lat="46.27175" lon="6.55831">
        <ele>1156.5</ele>
        <time>2023-01-21T14:13:18.000Z</time>
      </trkpt>
      <trkpt lat="46.27175" lon="6.55831">
        <ele>1156.5</ele>
        <time>2023-01-21T14:13:19.000Z</time>
      </trkpt>
      <trkpt lat="46.27175" lon="6.55831">
        <ele>1156.5</ele>
        <time>2023-01-21T14:13:20.000Z</time>
      </trkpt>
      <trkpt lat="46.27175" lon="6.55831">
        <ele>1156.5</ele>
        <time>2023-01-21T14:13:21.000Z</time>
      </trkpt>
      <trkpt lat="46.27175" lon="6.55831">
        <ele>1156.5</ele>
        <time>2023-01-21T14:13:22.000Z</time>
      </trkpt>
      <trkpt lat="46.27175" lon="6.55831">
        <ele>1156.5</ele>
        <time>2023-01-21T14:13:23.000Z</time>
      </trkpt>
      <trkpt lat="46.27175" lon="6.55831">
        <ele>1156.5</ele>
        <time>2023-01-21T14:13:24.000Z</time>
      </trkpt>
      <trkpt lat="46.27175" lon="6.55831">
        <ele>1156.5</ele>
        <time>2023-01-21T14:13:25.000Z</time>
      </trkpt>
      <trkpt lat="46.27175" lon="6.55831">
        <ele>1156.5</ele>
        <time>2023-01-21T14:13:26.000Z</time>
      </trkpt>
      <trkpt lat="46.27175" lon="6.55831">
        <ele>1156.5</ele>
        <time>2023-01-21T14:13:27.000Z</time>
      </trkpt>
      <trkpt lat="46.27175" lon="6.55831">
        <ele>1156.5</ele>
        <time>2023-01-21T14:13:28.000Z</time>
      </trkpt>
      <trkpt lat="46.27175" lon="6.55831">
        <ele>1156.5</ele>
        <time>2023-01-21T14:13:29.000Z</time>
      </trkpt>
      <trkpt lat="46.27175" lon="6.55831">
        <ele>1156.5</ele>
        <time>2023-01-21T14:13:30.000Z</time>
      </trkpt>
      <trkpt lat="46.27175" lon="6.55831">
        <ele>1156.5</ele>
        <time>2023-01-21T14:13:31.000Z</time>
      </trkpt>
      <trkpt lat="46.27175" lon="6.55831">
        <ele>1156.5</ele>
        <time>2023-01-21T14:13:32.000Z</time>
      </trkpt>
      <trkpt lat="46.27175" lon="6.55831">
        <ele>1156.5</ele>
        <time>2023-01-21T14:13:33.000Z</time>
      </trkpt>
      <trkpt lat="46.27175" lon="6.55831">
        <ele>1156.5</ele>
        <time>2023-01-21T14:13:34.000Z</time>
      </trkpt>
      <trkpt lat="46.27175" lon="6.55831">
        <ele>1156.5</ele>
        <time>2023-01-21T14:13:35.000Z</time>
      </trkpt>
      <trkpt lat="46.27175" lon="6.55831">
        <ele>1156.5</ele>
        <time>2023-01-21T14:13:36.000Z</time>
      </trkpt>
      <trkpt lat="46.27175" lon="6.55831">
        <ele>1156.5</ele>
        <time>2023-01-21T14:13:37.000Z</time>
      </trkpt>
      <trkpt lat="46.27175" lon="6.55831">
        <ele>1156.5</ele>
        <time>2023-01-21T14:13:38.000Z</time>
      </trkpt>
      <trkpt lat="46.27175" lon="6.55831">
        <ele>1156.5</ele>
        <time>2023-01-21T14:13:39.000Z</time>
      </trkpt>
      <trkpt lat="46.27175" lon="6.55831">
        <ele>1156.5</ele>
        <time>2023-01-21T14:13:40.000Z</time>
      </trkpt>
      <trkpt lat="46.27175" lon="6.55831">
        <ele>1156.5</ele>
        <time>2023-01-21T14:13:41.000Z</time>
      </trkpt>
      <trkpt lat="46.27175" lon="6.55831">
        <ele>1156.5</ele>
        <time>2023-01-21T14:13:42.000Z</time>
      </trkpt>
      <trkpt lat="46.27175" lon="6.55831">
        <ele>1156.5</ele>
        <time>2023-01-21T14:13:43.000Z</time>
      </trkpt>
      <trkpt lat="46.27175" lon="6.55831">
        <ele>1156.5</ele>
        <time>2023-01-21T14:13:44.000Z</time>
      </trkpt>
      <trkpt lat="46.27175" lon="6.55831">
        <ele>1156.5</ele>
        <time>2023-01-21T14:13:45.000Z</time>
      </trkpt>
      <trkpt lat="46.27175" lon="6.55831">
        <ele>1156.5</ele>
        <time>2023-01-21T14:13:46.000Z</time>
      </trkpt>
      <trkpt lat="46.27175" lon="6.5583">
        <ele>1155.8</ele>
        <time>2023-01-21T14:13:47.000Z</time>
      </trkpt>
      <trkpt lat="46.27175" lon="6.5583">
        <ele>1156.1</ele>
        <time>2023-01-21T14:13:48.000Z</time>
      </trkpt>
      <trkpt lat="46.27176" lon="6.55829">
        <ele>1156.4</ele>
        <time>2023-01-21T14:13:49.000Z</time>
      </trkpt>
      <trkpt lat="46.27176" lon="6.55827">
        <ele>1156.6</ele>
        <time>2023-01-21T14:13:50.000Z</time>
      </trkpt>
      <trkpt lat="46.27176" lon="6.55825">
        <ele>1156.9</ele>
        <time>2023-01-21T14:13:51.000Z</time>
      </trkpt>
      <trkpt lat="46.27176" lon="6.55819">
        <ele>1156.9</ele>
        <time>2023-01-21T14:13:52.000Z</time>
      </trkpt>
      <trkpt lat="46.27178" lon="6.55813">
        <ele>1156.1</ele>
        <time>2023-01-21T14:13:53.000Z</time>
      </trkpt>
      <trkpt lat="46.27182" lon="6.55809">
        <ele>1155.8</ele>
        <time>2023-01-21T14:13:54.000Z</time>
      </trkpt>
      <trkpt lat="46.27186" lon="6.55803">
        <ele>1154.2</ele>
        <time>2023-01-21T14:13:55.000Z</time>
      </trkpt>
      <trkpt lat="46.27189" lon="6.55795">
        <ele>1152</ele>
        <time>2023-01-21T14:13:56.000Z</time>
      </trkpt>
      <trkpt lat="46.27191" lon="6.55785">
        <ele>1149.7</ele>
        <time>2023-01-21T14:13:57.000Z</time>
      </trkpt>
      <trkpt lat="46.27191" lon="6.55777">
        <ele>1147.9</ele>
        <time>2023-01-21T14:13:58.000Z</time>
      </trkpt>
      <trkpt lat="46.27189" lon="6.55769">
        <ele>1146.4</ele>
        <time>2023-01-21T14:13:59.000Z</time>
      </trkpt>
      <trkpt lat="46.27186" lon="6.55763">
        <ele>1144.5</ele>
        <time>2023-01-21T14:14:00.000Z</time>
      </trkpt>
      <trkpt lat="46.27182" lon="6.55757">
        <ele>1142.8</ele>
        <time>2023-01-21T14:14:01.000Z</time>
      </trkpt>
      <trkpt lat="46.27181" lon="6.5575">
        <ele>1141</ele>
        <time>2023-01-21T14:14:02.000Z</time>
      </trkpt>
      <trkpt lat="46.27183" lon="6.55746">
        <ele>1139.2</ele>
        <time>2023-01-21T14:14:03.000Z</time>
      </trkpt>
      <trkpt lat="46.27184" lon="6.55739">
        <ele>1137.9</ele>
        <time>2023-01-21T14:14:04.000Z</time>
      </trkpt>
      <trkpt lat="46.27185" lon="6.55733">
        <ele>1136</ele>
        <time>2023-01-21T14:14:05.000Z</time>
      </trkpt>
      <trkpt lat="46.27183" lon="6.55726">
        <ele>1134</ele>
        <time>2023-01-21T14:14:06.000Z</time>
      </trkpt>
      <trkpt lat="46.27182" lon="6.55719">
        <ele>1132.2</ele>
        <time>2023-01-21T14:14:07.000Z</time>
      </trkpt>
      <trkpt lat="46.27184" lon="6.55713">
        <ele>1130.7</ele>
        <time>2023-01-21T14:14:08.000Z</time>
      </trkpt>
      <trkpt lat="46.27187" lon="6.55706">
        <ele>1128.9</ele>
        <time>2023-01-21T14:14:09.000Z</time>
      </trkpt>
      <trkpt lat="46.27188" lon="6.55698">
        <ele>1127</ele>
        <time>2023-01-21T14:14:10.000Z</time>
      </trkpt>
      <trkpt lat="46.2719" lon="6.55689">
        <ele>1124.6</ele>
        <time>2023-01-21T14:14:11.000Z</time>
      </trkpt>
      <trkpt lat="46.27193" lon="6.55683">
        <ele>1122.4</ele>
        <time>2023-01-21T14:14:12.000Z</time>
      </trkpt>
      <trkpt lat="46.27196" lon="6.55676">
        <ele>1120</ele>
        <time>2023-01-21T14:14:13.000Z</time>
      </trkpt>
      <trkpt lat="46.27198" lon="6.55667">
        <ele>1119.2</ele>
        <time>2023-01-21T14:14:14.000Z</time>
      </trkpt>
      <trkpt lat="46.27198" lon="6.55658">
        <ele>1117.6</ele>
        <time>2023-01-21T14:14:15.000Z</time>
      </trkpt>
      <trkpt lat="46.272" lon="6.55653">
        <ele>1115.7</ele>
        <time>2023-01-21T14:14:16.000Z</time>
      </trkpt>
      <trkpt lat="46.27203" lon="6.55647">
        <ele>1113.9</ele>
        <time>2023-01-21T14:14:17.000Z</time>
      </trkpt>
      <trkpt lat="46.27204" lon="6.55639">
        <ele>1113.3</ele>
        <time>2023-01-21T14:14:18.000Z</time>
      </trkpt>
      <trkpt lat="46.27204" lon="6.55633">
        <ele>1111.3</ele>
        <time>2023-01-21T14:14:19.000Z</time>
      </trkpt>
      <trkpt lat="46.27204" lon="6.55626">
        <ele>1109.6</ele>
        <time>2023-01-21T14:14:20.000Z</time>
      </trkpt>
      <trkpt lat="46.27206" lon="6.5562">
        <ele>1107.8</ele>
        <time>2023-01-21T14:14:21.000Z</time>
      </trkpt>
      <trkpt lat="46.27207" lon="6.55612">
        <ele>1105.3</ele>
        <time>2023-01-21T14:14:22.000Z</time>
      </trkpt>
      <trkpt lat="46.27206" lon="6.55606">
        <ele>1103.2</ele>
        <time>2023-01-21T14:14:23.000Z</time>
      </trkpt>
      <trkpt lat="46.27204" lon="6.55601">
        <ele>1101.1</ele>
        <time>2023-01-21T14:14:24.000Z</time>
      </trkpt>
      <trkpt lat="46.27202" lon="6.55601">
        <ele>1099.4</ele>
        <time>2023-01-21T14:14:25.000Z</time>
      </trkpt>
      <trkpt lat="46.27202" lon="6.55603">
        <ele>1097.3</ele>
        <time>2023-01-21T14:14:26.000Z</time>
      </trkpt>
      <trkpt lat="46.27202" lon="6.55603">
        <ele>1098.3</ele>
        <time>2023-01-21T14:14:27.000Z</time>
      </trkpt>
      <trkpt lat="46.27202" lon="6.55604">
        <ele>1099</ele>
        <time>2023-01-21T14:14:28.000Z</time>
      </trkpt>
      <trkpt lat="46.27202" lon="6.55604">
        <ele>1099</ele>
        <time>2023-01-21T14:14:29.000Z</time>
      </trkpt>
      <trkpt lat="46.27202" lon="6.55604">
        <ele>1099</ele>
        <time>2023-01-21T14:14:30.000Z</time>
      </trkpt>
      <trkpt lat="46.27202" lon="6.55604">
        <ele>1099</ele>
        <time>2023-01-21T14:14:31.000Z</time>
      </trkpt>
      <trkpt lat="46.27202" lon="6.55604">
        <ele>1099</ele>
        <time>2023-01-21T14:14:32.000Z</time>
      </trkpt>
      <trkpt lat="46.27202" lon="6.55604">
        <ele>1099</ele>
        <time>2023-01-21T14:14:33.000Z</time>
      </trkpt>
      <trkpt lat="46.27202" lon="6.55604">
        <ele>1099</ele>
        <time>2023-01-21T14:14:34.000Z</time>
      </trkpt>
      <trkpt lat="46.27202" lon="6.55604">
        <ele>1099</ele>
        <time>2023-01-21T14:14:35.000Z</time>
      </trkpt>
      <trkpt lat="46.27202" lon="6.55604">
        <ele>1099</ele>
        <time>2023-01-21T14:14:36.000Z</time>
      </trkpt>
      <trkpt lat="46.27202" lon="6.55604">
        <ele>1099</ele>
        <time>2023-01-21T14:14:37.000Z</time>
      </trkpt>
      <trkpt lat="46.27202" lon="6.55604">
        <ele>1099</ele>
        <time>2023-01-21T14:14:38.000Z</time>
      </trkpt>
      <trkpt lat="46.27202" lon="6.55604">
        <ele>1099</ele>
        <time>2023-01-21T14:14:39.000Z</time>
      </trkpt>
      <trkpt lat="46.27202" lon="6.55604">
        <ele>1099</ele>
        <time>2023-01-21T14:14:40.000Z</time>
      </trkpt>
      <trkpt lat="46.27202" lon="6.55604">
        <ele>1099</ele>
        <time>2023-01-21T14:14:41.000Z</time>
      </trkpt>
      <trkpt lat="46.27202" lon="6.55604">
        <ele>1099</ele>
        <time>2023-01-21T14:14:42.000Z</time>
      </trkpt>
      <trkpt lat="46.27202" lon="6.55604">
        <ele>1099</ele>
        <time>2023-01-21T14:14:43.000Z</time>
      </trkpt>
      <trkpt lat="46.27202" lon="6.55604">
        <ele>1099</ele>
        <time>2023-01-21T14:14:44.000Z</time>
      </trkpt>
      <trkpt lat="46.27202" lon="6.55604">
        <ele>1099</ele>
        <time>2023-01-21T14:14:45.000Z</time>
      </trkpt>
      <trkpt lat="46.27202" lon="6.55604">
        <ele>1099</ele>
        <time>2023-01-21T14:14:46.000Z</time>
      </trkpt>
      <trkpt lat="46.27202" lon="6.55604">
        <ele>1099</ele>
        <time>2023-01-21T14:14:47.000Z</time>
      </trkpt>
      <trkpt lat="46.27202" lon="6.55604">
        <ele>1099</ele>
        <time>2023-01-21T14:14:48.000Z</time>
      </trkpt>
      <trkpt lat="46.27202" lon="6.55604">
        <ele>1099</ele>
        <time>2023-01-21T14:14:49.000Z</time>
      </trkpt>
      <trkpt lat="46.27202" lon="6.55604">
        <ele>1099</ele>
        <time>2023-01-21T14:14:50.000Z</time>
      </trkpt>
      <trkpt lat="46.27202" lon="6.55604">
        <ele>1099</ele>
        <time>2023-01-21T14:14:51.000Z</time>
      </trkpt>
      <trkpt lat="46.27202" lon="6.55604">
        <ele>1099</ele>
        <time>2023-01-21T14:14:52.000Z</time>
      </trkpt>
      <trkpt lat="46.27202" lon="6.55604">
        <ele>1099</ele>
        <time>2023-01-21T14:14:53.000Z</time>
      </trkpt>
      <trkpt lat="46.27202" lon="6.55604">
        <ele>1099</ele>
        <time>2023-01-21T14:14:54.000Z</time>
      </trkpt>
      <trkpt lat="46.27202" lon="6.55604">
        <ele>1099</ele>
        <time>2023-01-21T14:14:55.000Z</time>
      </trkpt>
      <trkpt lat="46.27202" lon="6.55604">
        <ele>1099</ele>
        <time>2023-01-21T14:14:56.000Z</time>
      </trkpt>
      <trkpt lat="46.27201" lon="6.55597">
        <ele>1097.1</ele>
        <time>2023-01-21T14:14:57.000Z</time>
      </trkpt>
      <trkpt lat="46.27204" lon="6.55596">
        <ele>1096.6</ele>
        <time>2023-01-21T14:14:58.000Z</time>
      </trkpt>
      <trkpt lat="46.27207" lon="6.55595">
        <ele>1096.2</ele>
        <time>2023-01-21T14:14:59.000Z</time>
      </trkpt>
      <trkpt lat="46.2721" lon="6.55596">
        <ele>1096.1</ele>
        <time>2023-01-21T14:15:00.000Z</time>
      </trkpt>
      <trkpt lat="46.27213" lon="6.55596">
        <ele>1096</ele>
        <time>2023-01-21T14:15:01.000Z</time>
      </trkpt>
      <trkpt lat="46.27216" lon="6.55598">
        <ele>1095.6</ele>
        <time>2023-01-21T14:15:02.000Z</time>
      </trkpt>
      <trkpt lat="46.27218" lon="6.556">
        <ele>1095.2</ele>
        <time>2023-01-21T14:15:03.000Z</time>
      </trkpt>
      <trkpt lat="46.27221" lon="6.55602">
        <ele>1094.9</ele>
        <time>2023-01-21T14:15:04.000Z</time>
      </trkpt>
      <trkpt lat="46.27224" lon="6.55604">
        <ele>1094.5</ele>
        <time>2023-01-21T14:15:05.000Z</time>
      </trkpt>
      <trkpt lat="46.27227" lon="6.55607">
        <ele>1093.8</ele>
        <time>2023-01-21T14:15:06.000Z</time>
      </trkpt>
      <trkpt lat="46.27229" lon="6.55608">
        <ele>1092.7</ele>
        <time>2023-01-21T14:15:07.000Z</time>
      </trkpt>
      <trkpt lat="46.27232" lon="6.55608">
        <ele>1091.8</ele>
        <time>2023-01-21T14:15:08.000Z</time>
      </trkpt>
      <trkpt lat="46.27234" lon="6.55607">
        <ele>1090.6</ele>
        <time>2023-01-21T14:15:09.000Z</time>
      </trkpt>
      <trkpt lat="46.27236" lon="6.55605">
        <ele>1089.8</ele>
        <time>2023-01-21T14:15:10.000Z</time>
      </trkpt>
      <trkpt lat="46.27238" lon="6.55602">
        <ele>1089.2</ele>
        <time>2023-01-21T14:15:11.000Z</time>
      </trkpt>
      <trkpt lat="46.27239" lon="6.55599">
        <ele>1088.4</ele>
        <time>2023-01-21T14:15:12.000Z</time>
      </trkpt>
      <trkpt lat="46.27239" lon="6.55595">
        <ele>1087.9</ele>
        <time>2023-01-21T14:15:13.000Z</time>
      </trkpt>
      <trkpt lat="46.27239" lon="6.55592">
        <ele>1087.5</ele>
        <time>2023-01-21T14:15:14.000Z</time>
      </trkpt>
      <trkpt lat="46.2724" lon="6.5559">
        <ele>1087.2</ele>
        <time>2023-01-21T14:15:15.000Z</time>
      </trkpt>
      <trkpt lat="46.27239" lon="6.55589">
        <ele>1086.8</ele>
        <time>2023-01-21T14:15:16.000Z</time>
      </trkpt>
      <trkpt lat="46.27239" lon="6.55589">
        <ele>1086.4</ele>
        <time>2023-01-21T14:15:17.000Z</time>
      </trkpt>
      <trkpt lat="46.27239" lon="6.55589">
        <ele>1085.9</ele>
        <time>2023-01-21T14:15:18.000Z</time>
      </trkpt>
      <trkpt lat="46.27239" lon="6.55589">
        <ele>1085.9</ele>
        <time>2023-01-21T14:15:19.000Z</time>
      </trkpt>
      <trkpt lat="46.27239" lon="6.55589">
        <ele>1085.9</ele>
        <time>2023-01-21T14:15:20.000Z</time>
      </trkpt>
      <trkpt lat="46.27239" lon="6.55589">
        <ele>1085.9</ele>
        <time>2023-01-21T14:15:21.000Z</time>
      </trkpt>
      <trkpt lat="46.27239" lon="6.55589">
        <ele>1085.9</ele>
        <time>2023-01-21T14:15:22.000Z</time>
      </trkpt>
      <trkpt lat="46.27239" lon="6.55589">
        <ele>1085.9</ele>
        <time>2023-01-21T14:15:23.000Z</time>
      </trkpt>
      <trkpt lat="46.27239" lon="6.55589">
        <ele>1085.9</ele>
        <time>2023-01-21T14:15:24.000Z</time>
      </trkpt>
      <trkpt lat="46.27239" lon="6.55589">
        <ele>1085.9</ele>
        <time>2023-01-21T14:15:25.000Z</time>
      </trkpt>
      <trkpt lat="46.27239" lon="6.55589">
        <ele>1085.9</ele>
        <time>2023-01-21T14:15:26.000Z</time>
      </trkpt>
      <trkpt lat="46.27239" lon="6.55589">
        <ele>1085.9</ele>
        <time>2023-01-21T14:15:27.000Z</time>
      </trkpt>
      <trkpt lat="46.27239" lon="6.55589">
        <ele>1085.9</ele>
        <time>2023-01-21T14:15:28.000Z</time>
      </trkpt>
      <trkpt lat="46.27239" lon="6.55589">
        <ele>1085.9</ele>
        <time>2023-01-21T14:15:29.000Z</time>
      </trkpt>
      <trkpt lat="46.27239" lon="6.55589">
        <ele>1085.9</ele>
        <time>2023-01-21T14:15:30.000Z</time>
      </trkpt>
      <trkpt lat="46.27239" lon="6.55589">
        <ele>1085.9</ele>
        <time>2023-01-21T14:15:31.000Z</time>
      </trkpt>
      <trkpt lat="46.27239" lon="6.55589">
        <ele>1085.9</ele>
        <time>2023-01-21T14:15:32.000Z</time>
      </trkpt>
      <trkpt lat="46.27239" lon="6.55589">
        <ele>1085.9</ele>
        <time>2023-01-21T14:15:33.000Z</time>
      </trkpt>
      <trkpt lat="46.27239" lon="6.55589">
        <ele>1085.9</ele>
        <time>2023-01-21T14:15:34.000Z</time>
      </trkpt>
      <trkpt lat="46.27239" lon="6.55589">
        <ele>1085.9</ele>
        <time>2023-01-21T14:15:35.000Z</time>
      </trkpt>
      <trkpt lat="46.27239" lon="6.55589">
        <ele>1085.9</ele>
        <time>2023-01-21T14:15:36.000Z</time>
      </trkpt>
      <trkpt lat="46.27239" lon="6.55589">
        <ele>1085.9</ele>
        <time>2023-01-21T14:15:37.000Z</time>
      </trkpt>
      <trkpt lat="46.27239" lon="6.55589">
        <ele>1085.9</ele>
        <time>2023-01-21T14:15:38.000Z</time>
      </trkpt>
      <trkpt lat="46.27239" lon="6.55589">
        <ele>1085.9</ele>
        <time>2023-01-21T14:15:39.000Z</time>
      </trkpt>
      <trkpt lat="46.27239" lon="6.55589">
        <ele>1085.9</ele>
        <time>2023-01-21T14:15:40.000Z</time>
      </trkpt>
      <trkpt lat="46.27239" lon="6.55589">
        <ele>1085.9</ele>
        <time>2023-01-21T14:15:41.000Z</time>
      </trkpt>
      <trkpt lat="46.27239" lon="6.55589">
        <ele>1085.9</ele>
        <time>2023-01-21T14:15:42.000Z</time>
      </trkpt>
      <trkpt lat="46.27239" lon="6.55589">
        <ele>1085.9</ele>
        <time>2023-01-21T14:15:43.000Z</time>
      </trkpt>
      <trkpt lat="46.27239" lon="6.55589">
        <ele>1085.9</ele>
        <time>2023-01-21T14:15:44.000Z</time>
      </trkpt>
      <trkpt lat="46.27239" lon="6.55589">
        <ele>1085.9</ele>
        <time>2023-01-21T14:15:45.000Z</time>
      </trkpt>
      <trkpt lat="46.27239" lon="6.55589">
        <ele>1085.9</ele>
        <time>2023-01-21T14:15:46.000Z</time>
      </trkpt>
      <trkpt lat="46.27234" lon="6.55585">
        <ele>1088.6</ele>
        <time>2023-01-21T14:15:47.000Z</time>
      </trkpt>
      <trkpt lat="46.27233" lon="6.55583">
        <ele>1088.6</ele>
        <time>2023-01-21T14:15:48.000Z</time>
      </trkpt>
      <trkpt lat="46.27232" lon="6.5558">
        <ele>1088.5</ele>
        <time>2023-01-21T14:15:49.000Z</time>
      </trkpt>
      <trkpt lat="46.27231" lon="6.55579">
        <ele>1088.4</ele>
        <time>2023-01-21T14:15:50.000Z</time>
      </trkpt>
      <trkpt lat="46.27231" lon="6.55578">
        <ele>1088.2</ele>
        <time>2023-01-21T14:15:51.000Z</time>
      </trkpt>
      <trkpt lat="46.2723" lon="6.55577">
        <ele>1088.1</ele>
        <time>2023-01-21T14:15:52.000Z</time>
      </trkpt>
      <trkpt lat="46.2723" lon="6.55577">
        <ele>1088.1</ele>
        <time>2023-01-21T14:15:53.000Z</time>
      </trkpt>
      <trkpt lat="46.2723" lon="6.55577">
        <ele>1088.1</ele>
        <time>2023-01-21T14:15:54.000Z</time>
      </trkpt>
      <trkpt lat="46.2723" lon="6.55577">
        <ele>1088.1</ele>
        <time>2023-01-21T14:15:55.000Z</time>
      </trkpt>
      <trkpt lat="46.2723" lon="6.55577">
        <ele>1088.1</ele>
        <time>2023-01-21T14:15:56.000Z</time>
      </trkpt>
      <trkpt lat="46.2723" lon="6.55577">
        <ele>1088.1</ele>
        <time>2023-01-21T14:15:57.000Z</time>
      </trkpt>
      <trkpt lat="46.2723" lon="6.55577">
        <ele>1088.1</ele>
        <time>2023-01-21T14:15:58.000Z</time>
      </trkpt>
      <trkpt lat="46.2723" lon="6.55577">
        <ele>1088.1</ele>
        <time>2023-01-21T14:15:59.000Z</time>
      </trkpt>
      <trkpt lat="46.2723" lon="6.55577">
        <ele>1088.1</ele>
        <time>2023-01-21T14:16:00.000Z</time>
      </trkpt>
      <trkpt lat="46.2723" lon="6.55577">
        <ele>1088.1</ele>
        <time>2023-01-21T14:16:01.000Z</time>
      </trkpt>
      <trkpt lat="46.2723" lon="6.55577">
        <ele>1088.1</ele>
        <time>2023-01-21T14:16:02.000Z</time>
      </trkpt>
      <trkpt lat="46.2723" lon="6.55577">
        <ele>1088.1</ele>
        <time>2023-01-21T14:16:03.000Z</time>
      </trkpt>
      <trkpt lat="46.2723" lon="6.55577">
        <ele>1088.1</ele>
        <time>2023-01-21T14:16:04.000Z</time>
      </trkpt>
      <trkpt lat="46.2723" lon="6.55577">
        <ele>1088.1</ele>
        <time>2023-01-21T14:16:05.000Z</time>
      </trkpt>
      <trkpt lat="46.2723" lon="6.55577">
        <ele>1088.1</ele>
        <time>2023-01-21T14:16:06.000Z</time>
      </trkpt>
      <trkpt lat="46.2723" lon="6.55577">
        <ele>1088.1</ele>
        <time>2023-01-21T14:16:07.000Z</time>
      </trkpt>
      <trkpt lat="46.2723" lon="6.55577">
        <ele>1088.1</ele>
        <time>2023-01-21T14:16:08.000Z</time>
      </trkpt>
      <trkpt lat="46.2723" lon="6.55577">
        <ele>1088.1</ele>
        <time>2023-01-21T14:16:09.000Z</time>
      </trkpt>
      <trkpt lat="46.2723" lon="6.55577">
        <ele>1088.1</ele>
        <time>2023-01-21T14:16:10.000Z</time>
      </trkpt>
      <trkpt lat="46.2723" lon="6.55577">
        <ele>1088.1</ele>
        <time>2023-01-21T14:16:11.000Z</time>
      </trkpt>
      <trkpt lat="46.2723" lon="6.55577">
        <ele>1088.1</ele>
        <time>2023-01-21T14:16:12.000Z</time>
      </trkpt>
      <trkpt lat="46.2723" lon="6.55577">
        <ele>1088.1</ele>
        <time>2023-01-21T14:16:13.000Z</time>
      </trkpt>
      <trkpt lat="46.2723" lon="6.55577">
        <ele>1088.1</ele>
        <time>2023-01-21T14:16:14.000Z</time>
      </trkpt>
      <trkpt lat="46.2723" lon="6.55577">
        <ele>1088.1</ele>
        <time>2023-01-21T14:16:15.000Z</time>
      </trkpt>
      <trkpt lat="46.2723" lon="6.55577">
        <ele>1088.1</ele>
        <time>2023-01-21T14:16:16.000Z</time>
      </trkpt>
      <trkpt lat="46.2723" lon="6.55577">
        <ele>1088.1</ele>
        <time>2023-01-21T14:16:17.000Z</time>
      </trkpt>
      <trkpt lat="46.2723" lon="6.55577">
        <ele>1088.1</ele>
        <time>2023-01-21T14:16:18.000Z</time>
      </trkpt>
      <trkpt lat="46.2723" lon="6.55577">
        <ele>1088.1</ele>
        <time>2023-01-21T14:16:19.000Z</time>
      </trkpt>
      <trkpt lat="46.2723" lon="6.55577">
        <ele>1088.1</ele>
        <time>2023-01-21T14:16:20.000Z</time>
      </trkpt>
      <trkpt lat="46.2723" lon="6.55577">
        <ele>1088.1</ele>
        <time>2023-01-21T14:16:21.000Z</time>
      </trkpt>
      <trkpt lat="46.2723" lon="6.55577">
        <ele>1088.1</ele>
        <time>2023-01-21T14:16:22.000Z</time>
      </trkpt>
      <trkpt lat="46.2723" lon="6.55577">
        <ele>1088.1</ele>
        <time>2023-01-21T14:16:23.000Z</time>
      </trkpt>
      <trkpt lat="46.2723" lon="6.55577">
        <ele>1088.1</ele>
        <time>2023-01-21T14:16:24.000Z</time>
      </trkpt>
      <trkpt lat="46.2723" lon="6.55577">
        <ele>1088.1</ele>
        <time>2023-01-21T14:16:25.000Z</time>
      </trkpt>
      <trkpt lat="46.2723" lon="6.55577">
        <ele>1088.1</ele>
        <time>2023-01-21T14:16:26.000Z</time>
      </trkpt>
      <trkpt lat="46.2723" lon="6.55577">
        <ele>1088.1</ele>
        <time>2023-01-21T14:16:27.000Z</time>
      </trkpt>
      <trkpt lat="46.2723" lon="6.55577">
        <ele>1088.1</ele>
        <time>2023-01-21T14:16:28.000Z</time>
      </trkpt>
      <trkpt lat="46.2723" lon="6.55577">
        <ele>1088.1</ele>
        <time>2023-01-21T14:16:29.000Z</time>
      </trkpt>
      <trkpt lat="46.27221" lon="6.55574">
        <ele>1086.6</ele>
        <time>2023-01-21T14:16:30.000Z</time>
      </trkpt>
      <trkpt lat="46.2722" lon="6.55573">
        <ele>1086.5</ele>
        <time>2023-01-21T14:16:31.000Z</time>
      </trkpt>
      <trkpt lat="46.27218" lon="6.55572">
        <ele>1086.4</ele>
        <time>2023-01-21T14:16:32.000Z</time>
      </trkpt>
      <trkpt lat="46.27216" lon="6.5557">
        <ele>1086.3</ele>
        <time>2023-01-21T14:16:33.000Z</time>
      </trkpt>
      <trkpt lat="46.27213" lon="6.55568">
        <ele>1086.1</ele>
        <time>2023-01-21T14:16:34.000Z</time>
      </trkpt>
      <trkpt lat="46.27211" lon="6.55566">
        <ele>1085.9</ele>
        <time>2023-01-21T14:16:35.000Z</time>
      </trkpt>
      <trkpt lat="46.27208" lon="6.55564">
        <ele>1085.5</ele>
        <time>2023-01-21T14:16:36.000Z</time>
      </trkpt>
      <trkpt lat="46.27205" lon="6.55562">
        <ele>1085.3</ele>
        <time>2023-01-21T14:16:37.000Z</time>
      </trkpt>
      <trkpt lat="46.27203" lon="6.55559">
        <ele>1085.1</ele>
        <time>2023-01-21T14:16:38.000Z</time>
      </trkpt>
      <trkpt lat="46.272" lon="6.55556">
        <ele>1084.9</ele>
        <time>2023-01-21T14:16:39.000Z</time>
      </trkpt>
      <trkpt lat="46.27197" lon="6.55553">
        <ele>1084.4</ele>
        <time>2023-01-21T14:16:40.000Z</time>
      </trkpt>
      <trkpt lat="46.27193" lon="6.5555">
        <ele>1083.9</ele>
        <time>2023-01-21T14:16:41.000Z</time>
      </trkpt>
      <trkpt lat="46.27191" lon="6.55548">
        <ele>1082</ele>
        <time>2023-01-21T14:16:42.000Z</time>
      </trkpt>
      <trkpt lat="46.27191" lon="6.55546">
        <ele>1080</ele>
        <time>2023-01-21T14:16:43.000Z</time>
      </trkpt>
      <trkpt lat="46.27192" lon="6.55546">
        <ele>1078.7</ele>
        <time>2023-01-21T14:16:44.000Z</time>
      </trkpt>
      <trkpt lat="46.27192" lon="6.55545">
        <ele>1078</ele>
        <time>2023-01-21T14:16:45.000Z</time>
      </trkpt>
      <trkpt lat="46.27192" lon="6.55546">
        <ele>1077.3</ele>
        <time>2023-01-21T14:16:46.000Z</time>
      </trkpt>
      <trkpt lat="46.27192" lon="6.55546">
        <ele>1077.3</ele>
        <time>2023-01-21T14:16:47.000Z</time>
      </trkpt>
      <trkpt lat="46.27192" lon="6.55546">
        <ele>1077.3</ele>
        <time>2023-01-21T14:16:48.000Z</time>
      </trkpt>
      <trkpt lat="46.27192" lon="6.55546">
        <ele>1077.3</ele>
        <time>2023-01-21T14:16:49.000Z</time>
      </trkpt>
      <trkpt lat="46.27196" lon="6.55543">
        <ele>1076</ele>
        <time>2023-01-21T14:16:50.000Z</time>
      </trkpt>
      <trkpt lat="46.27196" lon="6.5554">
        <ele>1075.5</ele>
        <time>2023-01-21T14:16:51.000Z</time>
      </trkpt>
      <trkpt lat="46.27194" lon="6.55537">
        <ele>1074.8</ele>
        <time>2023-01-21T14:16:52.000Z</time>
      </trkpt>
      <trkpt lat="46.27191" lon="6.55534">
        <ele>1073.6</ele>
        <time>2023-01-21T14:16:53.000Z</time>
      </trkpt>
      <trkpt lat="46.27189" lon="6.55532">
        <ele>1072.7</ele>
        <time>2023-01-21T14:16:54.000Z</time>
      </trkpt>
      <trkpt lat="46.27187" lon="6.55531">
        <ele>1071.8</ele>
        <time>2023-01-21T14:16:55.000Z</time>
      </trkpt>
      <trkpt lat="46.27186" lon="6.55531">
        <ele>1071</ele>
        <time>2023-01-21T14:16:56.000Z</time>
      </trkpt>
      <trkpt lat="46.27185" lon="6.55531">
        <ele>1070.3</ele>
        <time>2023-01-21T14:16:57.000Z</time>
      </trkpt>
      <trkpt lat="46.27183" lon="6.55529">
        <ele>1069.4</ele>
        <time>2023-01-21T14:16:58.000Z</time>
      </trkpt>
      <trkpt lat="46.27181" lon="6.55526">
        <ele>1068.4</ele>
        <time>2023-01-21T14:16:59.000Z</time>
      </trkpt>
      <trkpt lat="46.27179" lon="6.55522">
        <ele>1067.2</ele>
        <time>2023-01-21T14:17:00.000Z</time>
      </trkpt>
      <trkpt lat="46.27177" lon="6.55518">
        <ele>1066.6</ele>
        <time>2023-01-21T14:17:01.000Z</time>
      </trkpt>
      <trkpt lat="46.27176" lon="6.55516">
        <ele>1065.9</ele>
        <time>2023-01-21T14:17:02.000Z</time>
      </trkpt>
      <trkpt lat="46.27176" lon="6.55515">
        <ele>1065.4</ele>
        <time>2023-01-21T14:17:03.000Z</time>
      </trkpt>
      <trkpt lat="46.27177" lon="6.55514">
        <ele>1065.3</ele>
        <time>2023-01-21T14:17:04.000Z</time>
      </trkpt>
      <trkpt lat="46.27179" lon="6.55513">
        <ele>1064.9</ele>
        <time>2023-01-21T14:17:05.000Z</time>
      </trkpt>
      <trkpt lat="46.27179" lon="6.55513">
        <ele>1064.9</ele>
        <time>2023-01-21T14:17:06.000Z</time>
      </trkpt>
      <trkpt lat="46.27179" lon="6.55513">
        <ele>1064.9</ele>
        <time>2023-01-21T14:17:07.000Z</time>
      </trkpt>
      <trkpt lat="46.27179" lon="6.55513">
        <ele>1064.9</ele>
        <time>2023-01-21T14:17:08.000Z</time>
      </trkpt>
      <trkpt lat="46.27179" lon="6.55513">
        <ele>1064.9</ele>
        <time>2023-01-21T14:17:09.000Z</time>
      </trkpt>
      <trkpt lat="46.27186" lon="6.55512">
        <ele>1062.7</ele>
        <time>2023-01-21T14:17:10.000Z</time>
      </trkpt>
      <trkpt lat="46.27187" lon="6.55511">
        <ele>1062.3</ele>
        <time>2023-01-21T14:17:11.000Z</time>
      </trkpt>
      <trkpt lat="46.27189" lon="6.55511">
        <ele>1061.9</ele>
        <time>2023-01-21T14:17:12.000Z</time>
      </trkpt>
      <trkpt lat="46.2719" lon="6.55511">
        <ele>1061.5</ele>
        <time>2023-01-21T14:17:13.000Z</time>
      </trkpt>
      <trkpt lat="46.27192" lon="6.5551">
        <ele>1061.1</ele>
        <time>2023-01-21T14:17:14.000Z</time>
      </trkpt>
      <trkpt lat="46.27195" lon="6.5551">
        <ele>1060.5</ele>
        <time>2023-01-21T14:17:15.000Z</time>
      </trkpt>
      <trkpt lat="46.27199" lon="6.55508">
        <ele>1059.8</ele>
        <time>2023-01-21T14:17:16.000Z</time>
      </trkpt>
      <trkpt lat="46.27202" lon="6.55506">
        <ele>1059.1</ele>
        <time>2023-01-21T14:17:17.000Z</time>
      </trkpt>
      <trkpt lat="46.27206" lon="6.55504">
        <ele>1058.6</ele>
        <time>2023-01-21T14:17:18.000Z</time>
      </trkpt>
      <trkpt lat="46.2721" lon="6.55502">
        <ele>1057.9</ele>
        <time>2023-01-21T14:17:19.000Z</time>
      </trkpt>
      <trkpt lat="46.27214" lon="6.555">
        <ele>1057</ele>
        <time>2023-01-21T14:17:20.000Z</time>
      </trkpt>
      <trkpt lat="46.27218" lon="6.55498">
        <ele>1056.1</ele>
        <time>2023-01-21T14:17:21.000Z</time>
      </trkpt>
      <trkpt lat="46.27223" lon="6.55496">
        <ele>1054.7</ele>
        <time>2023-01-21T14:17:22.000Z</time>
      </trkpt>
      <trkpt lat="46.27228" lon="6.55494">
        <ele>1053.9</ele>
        <time>2023-01-21T14:17:23.000Z</time>
      </trkpt>
      <trkpt lat="46.27231" lon="6.5549">
        <ele>1053.2</ele>
        <time>2023-01-21T14:17:24.000Z</time>
      </trkpt>
      <trkpt lat="46.27232" lon="6.55486">
        <ele>1052.1</ele>
        <time>2023-01-21T14:17:25.000Z</time>
      </trkpt>
      <trkpt lat="46.27233" lon="6.5548">
        <ele>1051</ele>
        <time>2023-01-21T14:17:26.000Z</time>
      </trkpt>
      <trkpt lat="46.27234" lon="6.55472">
        <ele>1050.1</ele>
        <time>2023-01-21T14:17:27.000Z</time>
      </trkpt>
      <trkpt lat="46.27236" lon="6.55464">
        <ele>1049.3</ele>
        <time>2023-01-21T14:17:28.000Z</time>
      </trkpt>
      <trkpt lat="46.27237" lon="6.55458">
        <ele>1048.4</ele>
        <time>2023-01-21T14:17:29.000Z</time>
      </trkpt>
      <trkpt lat="46.27236" lon="6.55453">
        <ele>1047.2</ele>
        <time>2023-01-21T14:17:30.000Z</time>
      </trkpt>
      <trkpt lat="46.27233" lon="6.55452">
        <ele>1045.9</ele>
        <time>2023-01-21T14:17:31.000Z</time>
      </trkpt>
      <trkpt lat="46.27228" lon="6.55451">
        <ele>1044.7</ele>
        <time>2023-01-21T14:17:32.000Z</time>
      </trkpt>
      <trkpt lat="46.27223" lon="6.55451">
        <ele>1043.5</ele>
        <time>2023-01-21T14:17:33.000Z</time>
      </trkpt>
      <trkpt lat="46.27219" lon="6.5545">
        <ele>1042.3</ele>
        <time>2023-01-21T14:17:34.000Z</time>
      </trkpt>
      <trkpt lat="46.27214" lon="6.55449">
        <ele>1041</ele>
        <time>2023-01-21T14:17:35.000Z</time>
      </trkpt>
      <trkpt lat="46.27209" lon="6.55448">
        <ele>1039.6</ele>
        <time>2023-01-21T14:17:36.000Z</time>
      </trkpt>
      <trkpt lat="46.27205" lon="6.55447">
        <ele>1038.4</ele>
        <time>2023-01-21T14:17:37.000Z</time>
      </trkpt>
      <trkpt lat="46.272" lon="6.55445">
        <ele>1037.3</ele>
        <time>2023-01-21T14:17:38.000Z</time>
      </trkpt>
      <trkpt lat="46.27195" lon="6.55444">
        <ele>1037.2</ele>
        <time>2023-01-21T14:17:39.000Z</time>
      </trkpt>
      <trkpt lat="46.27191" lon="6.55442">
        <ele>1036.3</ele>
        <time>2023-01-21T14:17:40.000Z</time>
      </trkpt>
      <trkpt lat="46.27188" lon="6.55438">
        <ele>1036.2</ele>
        <time>2023-01-21T14:17:41.000Z</time>
      </trkpt>
      <trkpt lat="46.27186" lon="6.55433">
        <ele>1035.3</ele>
        <time>2023-01-21T14:17:42.000Z</time>
      </trkpt>
      <trkpt lat="46.27187" lon="6.55429">
        <ele>1034.7</ele>
        <time>2023-01-21T14:17:43.000Z</time>
      </trkpt>
      <trkpt lat="46.27189" lon="6.55427">
        <ele>1033</ele>
        <time>2023-01-21T14:17:44.000Z</time>
      </trkpt>
      <trkpt lat="46.27191" lon="6.55427">
        <ele>1031.9</ele>
        <time>2023-01-21T14:17:45.000Z</time>
      </trkpt>
      <trkpt lat="46.27194" lon="6.55427">
        <ele>1030.8</ele>
        <time>2023-01-21T14:17:46.000Z</time>
      </trkpt>
      <trkpt lat="46.27198" lon="6.55427">
        <ele>1029.9</ele>
        <time>2023-01-21T14:17:47.000Z</time>
      </trkpt>
      <trkpt lat="46.27201" lon="6.55427">
        <ele>1029.3</ele>
        <time>2023-01-21T14:17:48.000Z</time>
      </trkpt>
      <trkpt lat="46.27203" lon="6.55427">
        <ele>1028.8</ele>
        <time>2023-01-21T14:17:49.000Z</time>
      </trkpt>
      <trkpt lat="46.27207" lon="6.55427">
        <ele>1028.3</ele>
        <time>2023-01-21T14:17:50.000Z</time>
      </trkpt>
      <trkpt lat="46.2721" lon="6.55426">
        <ele>1027.5</ele>
        <time>2023-01-21T14:17:51.000Z</time>
      </trkpt>
      <trkpt lat="46.27215" lon="6.55424">
        <ele>1026.6</ele>
        <time>2023-01-21T14:17:52.000Z</time>
      </trkpt>
      <trkpt lat="46.27217" lon="6.5542">
        <ele>1025.6</ele>
        <time>2023-01-21T14:17:53.000Z</time>
      </trkpt>
      <trkpt lat="46.2722" lon="6.55415">
        <ele>1024.9</ele>
        <time>2023-01-21T14:17:54.000Z</time>
      </trkpt>
      <trkpt lat="46.27221" lon="6.55409">
        <ele>1024.4</ele>
        <time>2023-01-21T14:17:55.000Z</time>
      </trkpt>
      <trkpt lat="46.27221" lon="6.55404">
        <ele>1023.7</ele>
        <time>2023-01-21T14:17:56.000Z</time>
      </trkpt>
      <trkpt lat="46.2722" lon="6.55401">
        <ele>1022.9</ele>
        <time>2023-01-21T14:17:57.000Z</time>
      </trkpt>
      <trkpt lat="46.27218" lon="6.554">
        <ele>1022</ele>
        <time>2023-01-21T14:17:58.000Z</time>
      </trkpt>
      <trkpt lat="46.27215" lon="6.55399">
        <ele>1021.3</ele>
        <time>2023-01-21T14:17:59.000Z</time>
      </trkpt>
      <trkpt lat="46.27213" lon="6.55398">
        <ele>1020.6</ele>
        <time>2023-01-21T14:18:00.000Z</time>
      </trkpt>
      <trkpt lat="46.27211" lon="6.55397">
        <ele>1019.8</ele>
        <time>2023-01-21T14:18:01.000Z</time>
      </trkpt>
      <trkpt lat="46.27208" lon="6.55397">
        <ele>1019</ele>
        <time>2023-01-21T14:18:02.000Z</time>
      </trkpt>
      <trkpt lat="46.27206" lon="6.55397">
        <ele>1018.3</ele>
        <time>2023-01-21T14:18:03.000Z</time>
      </trkpt>
      <trkpt lat="46.27202" lon="6.55397">
        <ele>1017.5</ele>
        <time>2023-01-21T14:18:04.000Z</time>
      </trkpt>
      <trkpt lat="46.27199" lon="6.55397">
        <ele>1016.6</ele>
        <time>2023-01-21T14:18:05.000Z</time>
      </trkpt>
      <trkpt lat="46.27194" lon="6.55397">
        <ele>1015.6</ele>
        <time>2023-01-21T14:18:06.000Z</time>
      </trkpt>
      <trkpt lat="46.27189" lon="6.55398">
        <ele>1014.7</ele>
        <time>2023-01-21T14:18:07.000Z</time>
      </trkpt>
      <trkpt lat="46.27184" lon="6.55399">
        <ele>1013.9</ele>
        <time>2023-01-21T14:18:08.000Z</time>
      </trkpt>
      <trkpt lat="46.2718" lon="6.554">
        <ele>1013.1</ele>
        <time>2023-01-21T14:18:09.000Z</time>
      </trkpt>
      <trkpt lat="46.27175" lon="6.55401">
        <ele>1012.1</ele>
        <time>2023-01-21T14:18:10.000Z</time>
      </trkpt>
      <trkpt lat="46.2717" lon="6.55402">
        <ele>1011.3</ele>
        <time>2023-01-21T14:18:11.000Z</time>
      </trkpt>
      <trkpt lat="46.27165" lon="6.55401">
        <ele>1010.6</ele>
        <time>2023-01-21T14:18:12.000Z</time>
      </trkpt>
      <trkpt lat="46.2716" lon="6.55399">
        <ele>1010</ele>
        <time>2023-01-21T14:18:13.000Z</time>
      </trkpt>
      <trkpt lat="46.27156" lon="6.55397">
        <ele>1008.7</ele>
        <time>2023-01-21T14:18:14.000Z</time>
      </trkpt>
      <trkpt lat="46.27152" lon="6.55396">
        <ele>1007.2</ele>
        <time>2023-01-21T14:18:15.000Z</time>
      </trkpt>
      <trkpt lat="46.27148" lon="6.55396">
        <ele>1006.4</ele>
        <time>2023-01-21T14:18:16.000Z</time>
      </trkpt>
      <trkpt lat="46.27144" lon="6.55395">
        <ele>1005</ele>
        <time>2023-01-21T14:18:17.000Z</time>
      </trkpt>
      <trkpt lat="46.2714" lon="6.55394">
        <ele>1004.1</ele>
        <time>2023-01-21T14:18:18.000Z</time>
      </trkpt>
      <trkpt lat="46.27136" lon="6.55392">
        <ele>1003.2</ele>
        <time>2023-01-21T14:18:19.000Z</time>
      </trkpt>
      <trkpt lat="46.27133" lon="6.55389">
        <ele>1001.7</ele>
        <time>2023-01-21T14:18:20.000Z</time>
      </trkpt>
      <trkpt lat="46.2713" lon="6.55387">
        <ele>1000</ele>
        <time>2023-01-21T14:18:21.000Z</time>
      </trkpt>
      <trkpt lat="46.27126" lon="6.55382">
        <ele>998.8</ele>
        <time>2023-01-21T14:18:22.000Z</time>
      </trkpt>
      <trkpt lat="46.27122" lon="6.55378">
        <ele>997.6</ele>
        <time>2023-01-21T14:18:23.000Z</time>
      </trkpt>
      <trkpt lat="46.27118" lon="6.55374">
        <ele>996.7</ele>
        <time>2023-01-21T14:18:24.000Z</time>
      </trkpt>
      <trkpt lat="46.27114" lon="6.55371">
        <ele>995.7</ele>
        <time>2023-01-21T14:18:25.000Z</time>
      </trkpt>
      <trkpt lat="46.27111" lon="6.55366">
        <ele>994.8</ele>
        <time>2023-01-21T14:18:26.000Z</time>
      </trkpt>
      <trkpt lat="46.27107" lon="6.55362">
        <ele>993.8</ele>
        <time>2023-01-21T14:18:27.000Z</time>
      </trkpt>
      <trkpt lat="46.27104" lon="6.55359">
        <ele>992.9</ele>
        <time>2023-01-21T14:18:28.000Z</time>
      </trkpt>
      <trkpt lat="46.27101" lon="6.55355">
        <ele>992</ele>
        <time>2023-01-21T14:18:29.000Z</time>
      </trkpt>
      <trkpt lat="46.27097" lon="6.55351">
        <ele>991.3</ele>
        <time>2023-01-21T14:18:30.000Z</time>
      </trkpt>
      <trkpt lat="46.27093" lon="6.55348">
        <ele>990.7</ele>
        <time>2023-01-21T14:18:31.000Z</time>
      </trkpt>
      <trkpt lat="46.27088" lon="6.55344">
        <ele>990.1</ele>
        <time>2023-01-21T14:18:32.000Z</time>
      </trkpt>
      <trkpt lat="46.27084" lon="6.55341">
        <ele>989.5</ele>
        <time>2023-01-21T14:18:33.000Z</time>
      </trkpt>
      <trkpt lat="46.27079" lon="6.55336">
        <ele>988.9</ele>
        <time>2023-01-21T14:18:34.000Z</time>
      </trkpt>
      <trkpt lat="46.27074" lon="6.5533">
        <ele>988.4</ele>
        <time>2023-01-21T14:18:35.000Z</time>
      </trkpt>
      <trkpt lat="46.27069" lon="6.55326">
        <ele>988</ele>
        <time>2023-01-21T14:18:36.000Z</time>
      </trkpt>
      <trkpt lat="46.27065" lon="6.55321">
        <ele>987.5</ele>
        <time>2023-01-21T14:18:37.000Z</time>
      </trkpt>
      <trkpt lat="46.27061" lon="6.55316">
        <ele>987</ele>
        <time>2023-01-21T14:18:38.000Z</time>
      </trkpt>
      <trkpt lat="46.27058" lon="6.5531">
        <ele>986.4</ele>
        <time>2023-01-21T14:18:39.000Z</time>
      </trkpt>
      <trkpt lat="46.27054" lon="6.55306">
        <ele>985.6</ele>
        <time>2023-01-21T14:18:40.000Z</time>
      </trkpt>
      <trkpt lat="46.27052" lon="6.55301">
        <ele>985.1</ele>
        <time>2023-01-21T14:18:41.000Z</time>
      </trkpt>
      <trkpt lat="46.27048" lon="6.55297">
        <ele>984.5</ele>
        <time>2023-01-21T14:18:42.000Z</time>
      </trkpt>
      <trkpt lat="46.27045" lon="6.55293">
        <ele>984.2</ele>
        <time>2023-01-21T14:18:43.000Z</time>
      </trkpt>
      <trkpt lat="46.27042" lon="6.55289">
        <ele>984.2</ele>
        <time>2023-01-21T14:18:44.000Z</time>
      </trkpt>
      <trkpt lat="46.27038" lon="6.55285">
        <ele>984.1</ele>
        <time>2023-01-21T14:18:45.000Z</time>
      </trkpt>
      <trkpt lat="46.27036" lon="6.55281">
        <ele>983.7</ele>
        <time>2023-01-21T14:18:46.000Z</time>
      </trkpt>
      <trkpt lat="46.27033" lon="6.55276">
        <ele>983.4</ele>
        <time>2023-01-21T14:18:47.000Z</time>
      </trkpt>
      <trkpt lat="46.2703" lon="6.55271">
        <ele>983.3</ele>
        <time>2023-01-21T14:18:48.000Z</time>
      </trkpt>
      <trkpt lat="46.27027" lon="6.55266">
        <ele>983.2</ele>
        <time>2023-01-21T14:18:49.000Z</time>
      </trkpt>
      <trkpt lat="46.27025" lon="6.55261">
        <ele>982.9</ele>
        <time>2023-01-21T14:18:50.000Z</time>
      </trkpt>
      <trkpt lat="46.27021" lon="6.55258">
        <ele>982.5</ele>
        <time>2023-01-21T14:18:51.000Z</time>
      </trkpt>
      <trkpt lat="46.27018" lon="6.55254">
        <ele>982</ele>
        <time>2023-01-21T14:18:52.000Z</time>
      </trkpt>
      <trkpt lat="46.27016" lon="6.5525">
        <ele>981.6</ele>
        <time>2023-01-21T14:18:53.000Z</time>
      </trkpt>
      <trkpt lat="46.27013" lon="6.55246">
        <ele>981.2</ele>
        <time>2023-01-21T14:18:54.000Z</time>
      </trkpt>
      <trkpt lat="46.2701" lon="6.55241">
        <ele>980.7</ele>
        <time>2023-01-21T14:18:55.000Z</time>
      </trkpt>
      <trkpt lat="46.27007" lon="6.55236">
        <ele>980.3</ele>
        <time>2023-01-21T14:18:56.000Z</time>
      </trkpt>
      <trkpt lat="46.27004" lon="6.55231">
        <ele>979.8</ele>
        <time>2023-01-21T14:18:57.000Z</time>
      </trkpt>
      <trkpt lat="46.27" lon="6.55225">
        <ele>979.4</ele>
        <time>2023-01-21T14:18:58.000Z</time>
      </trkpt>
      <trkpt lat="46.26995" lon="6.55219">
        <ele>979</ele>
        <time>2023-01-21T14:18:59.000Z</time>
      </trkpt>
      <trkpt lat="46.2699" lon="6.55214">
        <ele>978.5</ele>
        <time>2023-01-21T14:19:00.000Z</time>
      </trkpt>
      <trkpt lat="46.26985" lon="6.55209">
        <ele>977.9</ele>
        <time>2023-01-21T14:19:01.000Z</time>
      </trkpt>
      <trkpt lat="46.2698" lon="6.55204">
        <ele>977.4</ele>
        <time>2023-01-21T14:19:02.000Z</time>
      </trkpt>
      <trkpt lat="46.26976" lon="6.552">
        <ele>976.8</ele>
        <time>2023-01-21T14:19:03.000Z</time>
      </trkpt>
      <trkpt lat="46.26971" lon="6.55196">
        <ele>976.1</ele>
        <time>2023-01-21T14:19:04.000Z</time>
      </trkpt>
      <trkpt lat="46.26968" lon="6.55194">
        <ele>975.4</ele>
        <time>2023-01-21T14:19:05.000Z</time>
      </trkpt>
      <trkpt lat="46.26963" lon="6.55191">
        <ele>974.7</ele>
        <time>2023-01-21T14:19:06.000Z</time>
      </trkpt>
      <trkpt lat="46.2696" lon="6.55189">
        <ele>974</ele>
        <time>2023-01-21T14:19:07.000Z</time>
      </trkpt>
      <trkpt lat="46.26956" lon="6.55187">
        <ele>973.3</ele>
        <time>2023-01-21T14:19:08.000Z</time>
      </trkpt>
      <trkpt lat="46.26952" lon="6.55187">
        <ele>972.5</ele>
        <time>2023-01-21T14:19:09.000Z</time>
      </trkpt>
      <trkpt lat="46.26948" lon="6.55186">
        <ele>971.9</ele>
        <time>2023-01-21T14:19:10.000Z</time>
      </trkpt>
      <trkpt lat="46.26945" lon="6.55185">
        <ele>971.3</ele>
        <time>2023-01-21T14:19:11.000Z</time>
      </trkpt>
      <trkpt lat="46.26941" lon="6.55182">
        <ele>970.8</ele>
        <time>2023-01-21T14:19:12.000Z</time>
      </trkpt>
      <trkpt lat="46.26937" lon="6.55176">
        <ele>970.4</ele>
        <time>2023-01-21T14:19:13.000Z</time>
      </trkpt>
      <trkpt lat="46.26933" lon="6.55169">
        <ele>969.8</ele>
        <time>2023-01-21T14:19:14.000Z</time>
      </trkpt>
      <trkpt lat="46.26929" lon="6.55161">
        <ele>969.5</ele>
        <time>2023-01-21T14:19:15.000Z</time>
      </trkpt>
      <trkpt lat="46.26923" lon="6.55154">
        <ele>969.3</ele>
        <time>2023-01-21T14:19:16.000Z</time>
      </trkpt>
      <trkpt lat="46.26919" lon="6.55148">
        <ele>968.8</ele>
        <time>2023-01-21T14:19:17.000Z</time>
      </trkpt>
      <trkpt lat="46.26914" lon="6.55144">
        <ele>968.4</ele>
        <time>2023-01-21T14:19:18.000Z</time>
      </trkpt>
      <trkpt lat="46.2691" lon="6.5514">
        <ele>967.9</ele>
        <time>2023-01-21T14:19:19.000Z</time>
      </trkpt>
      <trkpt lat="46.26905" lon="6.55138">
        <ele>967.4</ele>
        <time>2023-01-21T14:19:20.000Z</time>
      </trkpt>
      <trkpt lat="46.26901" lon="6.55136">
        <ele>966.8</ele>
        <time>2023-01-21T14:19:21.000Z</time>
      </trkpt>
      <trkpt lat="46.26896" lon="6.55133">
        <ele>966.2</ele>
        <time>2023-01-21T14:19:22.000Z</time>
      </trkpt>
      <trkpt lat="46.2689" lon="6.55127">
        <ele>965.9</ele>
        <time>2023-01-21T14:19:23.000Z</time>
      </trkpt>
      <trkpt lat="46.26887" lon="6.55121">
        <ele>965.3</ele>
        <time>2023-01-21T14:19:24.000Z</time>
      </trkpt>
      <trkpt lat="46.26883" lon="6.55112">
        <ele>965.2</ele>
        <time>2023-01-21T14:19:25.000Z</time>
      </trkpt>
      <trkpt lat="46.2688" lon="6.55103">
        <ele>965.1</ele>
        <time>2023-01-21T14:19:26.000Z</time>
      </trkpt>
      <trkpt lat="46.26876" lon="6.55093">
        <ele>965</ele>
        <time>2023-01-21T14:19:27.000Z</time>
      </trkpt>
      <trkpt lat="46.26872" lon="6.55082">
        <ele>964.6</ele>
        <time>2023-01-21T14:19:28.000Z</time>
      </trkpt>
      <trkpt lat="46.26869" lon="6.5507">
        <ele>963.9</ele>
        <time>2023-01-21T14:19:29.000Z</time>
      </trkpt>
      <trkpt lat="46.26866" lon="6.55057">
        <ele>963.7</ele>
        <time>2023-01-21T14:19:30.000Z</time>
      </trkpt>
      <trkpt lat="46.26863" lon="6.55046">
        <ele>962.9</ele>
        <time>2023-01-21T14:19:31.000Z</time>
      </trkpt>
      <trkpt lat="46.2686" lon="6.55034">
        <ele>962.2</ele>
        <time>2023-01-21T14:19:32.000Z</time>
      </trkpt>
      <trkpt lat="46.26857" lon="6.55022">
        <ele>961.6</ele>
        <time>2023-01-21T14:19:33.000Z</time>
      </trkpt>
      <trkpt lat="46.26854" lon="6.55009">
        <ele>961.1</ele>
        <time>2023-01-21T14:19:34.000Z</time>
      </trkpt>
      <trkpt lat="46.26851" lon="6.54996">
        <ele>960.3</ele>
        <time>2023-01-21T14:19:35.000Z</time>
      </trkpt>
      <trkpt lat="46.26848" lon="6.54984">
        <ele>959.3</ele>
        <time>2023-01-21T14:19:36.000Z</time>
      </trkpt>
      <trkpt lat="46.26844" lon="6.54972">
        <ele>958.2</ele>
        <time>2023-01-21T14:19:37.000Z</time>
      </trkpt>
      <trkpt lat="46.26841" lon="6.54961">
        <ele>956.8</ele>
        <time>2023-01-21T14:19:38.000Z</time>
      </trkpt>
      <trkpt lat="46.26836" lon="6.5495">
        <ele>955.6</ele>
        <time>2023-01-21T14:19:39.000Z</time>
      </trkpt>
      <trkpt lat="46.26832" lon="6.54939">
        <ele>954.7</ele>
        <time>2023-01-21T14:19:40.000Z</time>
      </trkpt>
      <trkpt lat="46.26828" lon="6.5493">
        <ele>953.7</ele>
        <time>2023-01-21T14:19:41.000Z</time>
      </trkpt>
      <trkpt lat="46.26824" lon="6.54921">
        <ele>952.6</ele>
        <time>2023-01-21T14:19:42.000Z</time>
      </trkpt>
      <trkpt lat="46.2682" lon="6.54914">
        <ele>951.1</ele>
        <time>2023-01-21T14:19:43.000Z</time>
      </trkpt>
      <trkpt lat="46.26816" lon="6.54907">
        <ele>949.7</ele>
        <time>2023-01-21T14:19:44.000Z</time>
      </trkpt>
      <trkpt lat="46.26811" lon="6.54899">
        <ele>948.8</ele>
        <time>2023-01-21T14:19:45.000Z</time>
      </trkpt>
      <trkpt lat="46.26807" lon="6.5489">
        <ele>948.1</ele>
        <time>2023-01-21T14:19:46.000Z</time>
      </trkpt>
      <trkpt lat="46.26803" lon="6.54884">
        <ele>946.4</ele>
        <time>2023-01-21T14:19:47.000Z</time>
      </trkpt>
      <trkpt lat="46.268" lon="6.54876">
        <ele>945</ele>
        <time>2023-01-21T14:19:48.000Z</time>
      </trkpt>
      <trkpt lat="46.26794" lon="6.54867">
        <ele>943.9</ele>
        <time>2023-01-21T14:19:49.000Z</time>
      </trkpt>
      <trkpt lat="46.2679" lon="6.54858">
        <ele>943.1</ele>
        <time>2023-01-21T14:19:50.000Z</time>
      </trkpt>
      <trkpt lat="46.26785" lon="6.54849">
        <ele>942.4</ele>
        <time>2023-01-21T14:19:51.000Z</time>
      </trkpt>
      <trkpt lat="46.2678" lon="6.54842">
        <ele>941.7</ele>
        <time>2023-01-21T14:19:52.000Z</time>
      </trkpt>
      <trkpt lat="46.26774" lon="6.54836">
        <ele>941.2</ele>
        <time>2023-01-21T14:19:53.000Z</time>
      </trkpt>
      <trkpt lat="46.26769" lon="6.54832">
        <ele>940.7</ele>
        <time>2023-01-21T14:19:54.000Z</time>
      </trkpt>
      <trkpt lat="46.26766" lon="6.54827">
        <ele>940.2</ele>
        <time>2023-01-21T14:19:55.000Z</time>
      </trkpt>
      <trkpt lat="46.26764" lon="6.54822">
        <ele>939.6</ele>
        <time>2023-01-21T14:19:56.000Z</time>
      </trkpt>
      <trkpt lat="46.26763" lon="6.54818">
        <ele>939.2</ele>
        <time>2023-01-21T14:19:57.000Z</time>
      </trkpt>
      <trkpt lat="46.26762" lon="6.54814">
        <ele>938.9</ele>
        <time>2023-01-21T14:19:58.000Z</time>
      </trkpt>
      <trkpt lat="46.2676" lon="6.5481">
        <ele>938.7</ele>
        <time>2023-01-21T14:19:59.000Z</time>
      </trkpt>
      <trkpt lat="46.26758" lon="6.54805">
        <ele>938.6</ele>
        <time>2023-01-21T14:20:00.000Z</time>
      </trkpt>
      <trkpt lat="46.26756" lon="6.548">
        <ele>938.2</ele>
        <time>2023-01-21T14:20:01.000Z</time>
      </trkpt>
      <trkpt lat="46.26754" lon="6.54795">
        <ele>937.9</ele>
        <time>2023-01-21T14:20:02.000Z</time>
      </trkpt>
      <trkpt lat="46.26751" lon="6.5479">
        <ele>937.5</ele>
        <time>2023-01-21T14:20:03.000Z</time>
      </trkpt>
      <trkpt lat="46.26749" lon="6.54784">
        <ele>937</ele>
        <time>2023-01-21T14:20:04.000Z</time>
      </trkpt>
      <trkpt lat="46.26745" lon="6.54777">
        <ele>936.5</ele>
        <time>2023-01-21T14:20:05.000Z</time>
      </trkpt>
      <trkpt lat="46.26742" lon="6.5477">
        <ele>935.8</ele>
        <time>2023-01-21T14:20:06.000Z</time>
      </trkpt>
      <trkpt lat="46.26738" lon="6.54763">
        <ele>935.2</ele>
        <time>2023-01-21T14:20:07.000Z</time>
      </trkpt>
      <trkpt lat="46.26734" lon="6.54756">
        <ele>934.7</ele>
        <time>2023-01-21T14:20:08.000Z</time>
      </trkpt>
      <trkpt lat="46.2673" lon="6.5475">
        <ele>933.9</ele>
        <time>2023-01-21T14:20:09.000Z</time>
      </trkpt>
      <trkpt lat="46.26726" lon="6.54744">
        <ele>933.3</ele>
        <time>2023-01-21T14:20:10.000Z</time>
      </trkpt>
      <trkpt lat="46.26722" lon="6.54738">
        <ele>932.5</ele>
        <time>2023-01-21T14:20:11.000Z</time>
      </trkpt>
      <trkpt lat="46.26719" lon="6.54731">
        <ele>931.5</ele>
        <time>2023-01-21T14:20:12.000Z</time>
      </trkpt>
      <trkpt lat="46.26717" lon="6.54726">
        <ele>930.2</ele>
        <time>2023-01-21T14:20:13.000Z</time>
      </trkpt>
      <trkpt lat="46.26714" lon="6.54722">
        <ele>928.6</ele>
        <time>2023-01-21T14:20:14.000Z</time>
      </trkpt>
      <trkpt lat="46.2671" lon="6.54717">
        <ele>927.3</ele>
        <time>2023-01-21T14:20:15.000Z</time>
      </trkpt>
      <trkpt lat="46.26707" lon="6.54712">
        <ele>926.1</ele>
        <time>2023-01-21T14:20:16.000Z</time>
      </trkpt>
      <trkpt lat="46.26705" lon="6.54707">
        <ele>925</ele>
        <time>2023-01-21T14:20:17.000Z</time>
      </trkpt>
      <trkpt lat="46.267" lon="6.54699">
        <ele>924</ele>
        <time>2023-01-21T14:20:18.000Z</time>
      </trkpt>
      <trkpt lat="46.26695" lon="6.54689">
        <ele>923.1</ele>
        <time>2023-01-21T14:20:19.000Z</time>
      </trkpt>
      <trkpt lat="46.2669" lon="6.54679">
        <ele>922.1</ele>
        <time>2023-01-21T14:20:20.000Z</time>
      </trkpt>
      <trkpt lat="46.26685" lon="6.5467">
        <ele>921</ele>
        <time>2023-01-21T14:20:21.000Z</time>
      </trkpt>
      <trkpt lat="46.26681" lon="6.54661">
        <ele>920</ele>
        <time>2023-01-21T14:20:22.000Z</time>
      </trkpt>
      <trkpt lat="46.26677" lon="6.54651">
        <ele>918.9</ele>
        <time>2023-01-21T14:20:23.000Z</time>
      </trkpt>
      <trkpt lat="46.26673" lon="6.54642">
        <ele>917.8</ele>
        <time>2023-01-21T14:20:24.000Z</time>
      </trkpt>
      <trkpt lat="46.2667" lon="6.54632">
        <ele>916.7</ele>
        <time>2023-01-21T14:20:25.000Z</time>
      </trkpt>
      <trkpt lat="46.26667" lon="6.54621">
        <ele>915.7</ele>
        <time>2023-01-21T14:20:26.000Z</time>
      </trkpt>
      <trkpt lat="46.26664" lon="6.54612">
        <ele>914.6</ele>
        <time>2023-01-21T14:20:27.000Z</time>
      </trkpt>
      <trkpt lat="46.26661" lon="6.54603">
        <ele>913.6</ele>
        <time>2023-01-21T14:20:28.000Z</time>
      </trkpt>
      <trkpt lat="46.26657" lon="6.54595">
        <ele>912.5</ele>
        <time>2023-01-21T14:20:29.000Z</time>
      </trkpt>
      <trkpt lat="46.26655" lon="6.54588">
        <ele>911.5</ele>
        <time>2023-01-21T14:20:30.000Z</time>
      </trkpt>
      <trkpt lat="46.26652" lon="6.54581">
        <ele>910.2</ele>
        <time>2023-01-21T14:20:31.000Z</time>
      </trkpt>
      <trkpt lat="46.2665" lon="6.54575">
        <ele>908.8</ele>
        <time>2023-01-21T14:20:32.000Z</time>
      </trkpt>
      <trkpt lat="46.26648" lon="6.54568">
        <ele>907.8</ele>
        <time>2023-01-21T14:20:33.000Z</time>
      </trkpt>
      <trkpt lat="46.26645" lon="6.54563">
        <ele>906.6</ele>
        <time>2023-01-21T14:20:34.000Z</time>
      </trkpt>
      <trkpt lat="46.26641" lon="6.54555">
        <ele>905.9</ele>
        <time>2023-01-21T14:20:35.000Z</time>
      </trkpt>
      <trkpt lat="46.26636" lon="6.54549">
        <ele>905.1</ele>
        <time>2023-01-21T14:20:36.000Z</time>
      </trkpt>
      <trkpt lat="46.26632" lon="6.54542">
        <ele>904.2</ele>
        <time>2023-01-21T14:20:37.000Z</time>
      </trkpt>
      <trkpt lat="46.26627" lon="6.54534">
        <ele>903.3</ele>
        <time>2023-01-21T14:20:38.000Z</time>
      </trkpt>
      <trkpt lat="46.26622" lon="6.54526">
        <ele>902.4</ele>
        <time>2023-01-21T14:20:39.000Z</time>
      </trkpt>
      <trkpt lat="46.26617" lon="6.54518">
        <ele>901.6</ele>
        <time>2023-01-21T14:20:40.000Z</time>
      </trkpt>
      <trkpt lat="46.26613" lon="6.5451">
        <ele>900.8</ele>
        <time>2023-01-21T14:20:41.000Z</time>
      </trkpt>
      <trkpt lat="46.26608" lon="6.54501">
        <ele>900.2</ele>
        <time>2023-01-21T14:20:42.000Z</time>
      </trkpt>
      <trkpt lat="46.26603" lon="6.54492">
        <ele>899.4</ele>
        <time>2023-01-21T14:20:43.000Z</time>
      </trkpt>
      <trkpt lat="46.26598" lon="6.54482">
        <ele>898.6</ele>
        <time>2023-01-21T14:20:44.000Z</time>
      </trkpt>
      <trkpt lat="46.26593" lon="6.54474">
        <ele>897.7</ele>
        <time>2023-01-21T14:20:45.000Z</time>
      </trkpt>
      <trkpt lat="46.2659" lon="6.54464">
        <ele>897</ele>
        <time>2023-01-21T14:20:46.000Z</time>
      </trkpt>
      <trkpt lat="46.26587" lon="6.54454">
        <ele>896.2</ele>
        <time>2023-01-21T14:20:47.000Z</time>
      </trkpt>
      <trkpt lat="46.26584" lon="6.54443">
        <ele>895.6</ele>
        <time>2023-01-21T14:20:48.000Z</time>
      </trkpt>
      <trkpt lat="46.26582" lon="6.54434">
        <ele>894.9</ele>
        <time>2023-01-21T14:20:49.000Z</time>
      </trkpt>
      <trkpt lat="46.2658" lon="6.54426">
        <ele>894.1</ele>
        <time>2023-01-21T14:20:50.000Z</time>
      </trkpt>
      <trkpt lat="46.26578" lon="6.54416">
        <ele>893.4</ele>
        <time>2023-01-21T14:20:51.000Z</time>
      </trkpt>
      <trkpt lat="46.26575" lon="6.54408">
        <ele>892.8</ele>
        <time>2023-01-21T14:20:52.000Z</time>
      </trkpt>
      <trkpt lat="46.26573" lon="6.54399">
        <ele>892</ele>
        <time>2023-01-21T14:20:53.000Z</time>
      </trkpt>
      <trkpt lat="46.2657" lon="6.54391">
        <ele>891.2</ele>
        <time>2023-01-21T14:20:54.000Z</time>
      </trkpt>
      <trkpt lat="46.26567" lon="6.54382">
        <ele>890.6</ele>
        <time>2023-01-21T14:20:55.000Z</time>
      </trkpt>
      <trkpt lat="46.26564" lon="6.54373">
        <ele>890.1</ele>
        <time>2023-01-21T14:20:56.000Z</time>
      </trkpt>
      <trkpt lat="46.2656" lon="6.54365">
        <ele>889.5</ele>
        <time>2023-01-21T14:20:57.000Z</time>
      </trkpt>
      <trkpt lat="46.26557" lon="6.54357">
        <ele>889.1</ele>
        <time>2023-01-21T14:20:58.000Z</time>
      </trkpt>
      <trkpt lat="46.26553" lon="6.54349">
        <ele>888.7</ele>
        <time>2023-01-21T14:20:59.000Z</time>
      </trkpt>
      <trkpt lat="46.26548" lon="6.54341">
        <ele>888.3</ele>
        <time>2023-01-21T14:21:00.000Z</time>
      </trkpt>
      <trkpt lat="46.26544" lon="6.54331">
        <ele>887.9</ele>
        <time>2023-01-21T14:21:01.000Z</time>
      </trkpt>
      <trkpt lat="46.26541" lon="6.54321">
        <ele>887.3</ele>
        <time>2023-01-21T14:21:02.000Z</time>
      </trkpt>
      <trkpt lat="46.26538" lon="6.5431">
        <ele>887</ele>
        <time>2023-01-21T14:21:03.000Z</time>
      </trkpt>
      <trkpt lat="46.26535" lon="6.54299">
        <ele>886.5</ele>
        <time>2023-01-21T14:21:04.000Z</time>
      </trkpt>
      <trkpt lat="46.26531" lon="6.54288">
        <ele>886.1</ele>
        <time>2023-01-21T14:21:05.000Z</time>
      </trkpt>
      <trkpt lat="46.26528" lon="6.54277">
        <ele>885.6</ele>
        <time>2023-01-21T14:21:06.000Z</time>
      </trkpt>
      <trkpt lat="46.26524" lon="6.54269">
        <ele>885.5</ele>
        <time>2023-01-21T14:21:07.000Z</time>
      </trkpt>
      <trkpt lat="46.26519" lon="6.54261">
        <ele>885.2</ele>
        <time>2023-01-21T14:21:08.000Z</time>
      </trkpt>
      <trkpt lat="46.26513" lon="6.54255">
        <ele>885</ele>
        <time>2023-01-21T14:21:09.000Z</time>
      </trkpt>
      <trkpt lat="46.26509" lon="6.54249">
        <ele>884.8</ele>
        <time>2023-01-21T14:21:10.000Z</time>
      </trkpt>
      <trkpt lat="46.26504" lon="6.54245">
        <ele>884.6</ele>
        <time>2023-01-21T14:21:11.000Z</time>
      </trkpt>
      <trkpt lat="46.26501" lon="6.5424">
        <ele>884.3</ele>
        <time>2023-01-21T14:21:12.000Z</time>
      </trkpt>
      <trkpt lat="46.26497" lon="6.54236">
        <ele>883.8</ele>
        <time>2023-01-21T14:21:13.000Z</time>
      </trkpt>
      <trkpt lat="46.26494" lon="6.54232">
        <ele>883.7</ele>
        <time>2023-01-21T14:21:14.000Z</time>
      </trkpt>
      <trkpt lat="46.26491" lon="6.54229">
        <ele>883.8</ele>
        <time>2023-01-21T14:21:15.000Z</time>
      </trkpt>
      <trkpt lat="46.26487" lon="6.54225">
        <ele>883.6</ele>
        <time>2023-01-21T14:21:16.000Z</time>
      </trkpt>
      <trkpt lat="46.26483" lon="6.54222">
        <ele>883.6</ele>
        <time>2023-01-21T14:21:17.000Z</time>
      </trkpt>
      <trkpt lat="46.2648" lon="6.5422">
        <ele>883.4</ele>
        <time>2023-01-21T14:21:18.000Z</time>
      </trkpt>
      <trkpt lat="46.26477" lon="6.54219">
        <ele>883.2</ele>
        <time>2023-01-21T14:21:19.000Z</time>
      </trkpt>
      <trkpt lat="46.26474" lon="6.54216">
        <ele>883.1</ele>
        <time>2023-01-21T14:21:20.000Z</time>
      </trkpt>
      <trkpt lat="46.26471" lon="6.54214">
        <ele>882.9</ele>
        <time>2023-01-21T14:21:21.000Z</time>
      </trkpt>
      <trkpt lat="46.26468" lon="6.54213">
        <ele>882.8</ele>
        <time>2023-01-21T14:21:22.000Z</time>
      </trkpt>
      <trkpt lat="46.26466" lon="6.54211">
        <ele>882.6</ele>
        <time>2023-01-21T14:21:23.000Z</time>
      </trkpt>
      <trkpt lat="46.26464" lon="6.5421">
        <ele>882.4</ele>
        <time>2023-01-21T14:21:24.000Z</time>
      </trkpt>
      <trkpt lat="46.26462" lon="6.54208">
        <ele>882.6</ele>
        <time>2023-01-21T14:21:25.000Z</time>
      </trkpt>
      <trkpt lat="46.2646" lon="6.54207">
        <ele>882.9</ele>
        <time>2023-01-21T14:21:26.000Z</time>
      </trkpt>
      <trkpt lat="46.26459" lon="6.54205">
        <ele>883</ele>
        <time>2023-01-21T14:21:27.000Z</time>
      </trkpt>
      <trkpt lat="46.26458" lon="6.54204">
        <ele>883.1</ele>
        <time>2023-01-21T14:21:28.000Z</time>
      </trkpt>
      <trkpt lat="46.26455" lon="6.54203">
        <ele>883.3</ele>
        <time>2023-01-21T14:21:29.000Z</time>
      </trkpt>
      <trkpt lat="46.26454" lon="6.54202">
        <ele>883.4</ele>
        <time>2023-01-21T14:21:30.000Z</time>
      </trkpt>
      <trkpt lat="46.26452" lon="6.542">
        <ele>883.4</ele>
        <time>2023-01-21T14:21:31.000Z</time>
      </trkpt>
      <trkpt lat="46.2645" lon="6.54199">
        <ele>883.7</ele>
        <time>2023-01-21T14:21:32.000Z</time>
      </trkpt>
      <trkpt lat="46.26449" lon="6.54198">
        <ele>884</ele>
        <time>2023-01-21T14:21:33.000Z</time>
      </trkpt>
      <trkpt lat="46.26448" lon="6.54197">
        <ele>884.3</ele>
        <time>2023-01-21T14:21:34.000Z</time>
      </trkpt>
      <trkpt lat="46.26446" lon="6.54196">
        <ele>884.8</ele>
        <time>2023-01-21T14:21:35.000Z</time>
      </trkpt>
      <trkpt lat="46.26445" lon="6.54195">
        <ele>885.2</ele>
        <time>2023-01-21T14:21:36.000Z</time>
      </trkpt>
      <trkpt lat="46.26444" lon="6.54196">
        <ele>885.5</ele>
        <time>2023-01-21T14:21:37.000Z</time>
      </trkpt>
      <trkpt lat="46.26443" lon="6.54195">
        <ele>885.5</ele>
        <time>2023-01-21T14:21:38.000Z</time>
      </trkpt>
      <trkpt lat="46.26442" lon="6.54195">
        <ele>885.4</ele>
        <time>2023-01-21T14:21:39.000Z</time>
      </trkpt>
      <trkpt lat="46.26442" lon="6.54195">
        <ele>885.4</ele>
        <time>2023-01-21T14:21:40.000Z</time>
      </trkpt>
      <trkpt lat="46.26442" lon="6.54195">
        <ele>885.4</ele>
        <time>2023-01-21T14:21:41.000Z</time>
      </trkpt>
      <trkpt lat="46.26442" lon="6.54195">
        <ele>885.4</ele>
        <time>2023-01-21T14:21:42.000Z</time>
      </trkpt>
      <trkpt lat="46.26442" lon="6.54195">
        <ele>885.4</ele>
        <time>2023-01-21T14:21:43.000Z</time>
      </trkpt>
      <trkpt lat="46.26442" lon="6.54195">
        <ele>885.4</ele>
        <time>2023-01-21T14:21:44.000Z</time>
      </trkpt>
      <trkpt lat="46.26442" lon="6.54195">
        <ele>885.4</ele>
        <time>2023-01-21T14:21:45.000Z</time>
      </trkpt>
      <trkpt lat="46.26432" lon="6.54194">
        <ele>887.3</ele>
        <time>2023-01-21T14:21:46.000Z</time>
      </trkpt>
      <trkpt lat="46.26431" lon="6.54194">
        <ele>888</ele>
        <time>2023-01-21T14:21:47.000Z</time>
      </trkpt>
      <trkpt lat="46.2643" lon="6.54193">
        <ele>888.5</ele>
        <time>2023-01-21T14:21:48.000Z</time>
      </trkpt>
      <trkpt lat="46.26429" lon="6.54193">
        <ele>888.8</ele>
        <time>2023-01-21T14:21:49.000Z</time>
      </trkpt>
      <trkpt lat="46.26429" lon="6.54193">
        <ele>888.8</ele>
        <time>2023-01-21T14:21:50.000Z</time>
      </trkpt>
      <trkpt lat="46.26425" lon="6.54193">
        <ele>889.6</ele>
        <time>2023-01-21T14:21:51.000Z</time>
      </trkpt>
      <trkpt lat="46.26423" lon="6.54192">
        <ele>889.7</ele>
        <time>2023-01-21T14:21:52.000Z</time>
      </trkpt>
      <trkpt lat="46.26421" lon="6.54192">
        <ele>890.2</ele>
        <time>2023-01-21T14:21:53.000Z</time>
      </trkpt>
      <trkpt lat="46.2642" lon="6.54192">
        <ele>890.6</ele>
        <time>2023-01-21T14:21:54.000Z</time>
      </trkpt>
      <trkpt lat="46.26418" lon="6.54192">
        <ele>890.9</ele>
        <time>2023-01-21T14:21:55.000Z</time>
      </trkpt>
      <trkpt lat="46.26416" lon="6.54191">
        <ele>891.2</ele>
        <time>2023-01-21T14:21:56.000Z</time>
      </trkpt>
      <trkpt lat="46.26414" lon="6.54189">
        <ele>891.6</ele>
        <time>2023-01-21T14:21:57.000Z</time>
      </trkpt>
      <trkpt lat="46.26413" lon="6.54188">
        <ele>892.1</ele>
        <time>2023-01-21T14:21:58.000Z</time>
      </trkpt>
      <trkpt lat="46.26411" lon="6.54186">
        <ele>892.6</ele>
        <time>2023-01-21T14:21:59.000Z</time>
      </trkpt>
      <trkpt lat="46.26409" lon="6.54186">
        <ele>893</ele>
        <time>2023-01-21T14:22:00.000Z</time>
      </trkpt>
      <trkpt lat="46.26407" lon="6.54185">
        <ele>893.3</ele>
        <time>2023-01-21T14:22:01.000Z</time>
      </trkpt>
      <trkpt lat="46.26405" lon="6.54184">
        <ele>893.7</ele>
        <time>2023-01-21T14:22:02.000Z</time>
      </trkpt>
      <trkpt lat="46.26403" lon="6.54182">
        <ele>894</ele>
        <time>2023-01-21T14:22:03.000Z</time>
      </trkpt>
      <trkpt lat="46.26401" lon="6.54181">
        <ele>894.3</ele>
        <time>2023-01-21T14:22:04.000Z</time>
      </trkpt>
      <trkpt lat="46.264" lon="6.5418">
        <ele>894.6</ele>
        <time>2023-01-21T14:22:05.000Z</time>
      </trkpt>
      <trkpt lat="46.264" lon="6.54179">
        <ele>894.9</ele>
        <time>2023-01-21T14:22:06.000Z</time>
      </trkpt>
      <trkpt lat="46.26399" lon="6.54179">
        <ele>894.9</ele>
        <time>2023-01-21T14:22:07.000Z</time>
      </trkpt>
      <trkpt lat="46.26399" lon="6.54178">
        <ele>894.9</ele>
        <time>2023-01-21T14:22:08.000Z</time>
      </trkpt>
      <trkpt lat="46.26399" lon="6.54178">
        <ele>894.9</ele>
        <time>2023-01-21T14:22:09.000Z</time>
      </trkpt>
      <trkpt lat="46.26399" lon="6.54178">
        <ele>894.9</ele>
        <time>2023-01-21T14:22:10.000Z</time>
      </trkpt>
      <trkpt lat="46.26399" lon="6.54178">
        <ele>894.9</ele>
        <time>2023-01-21T14:22:11.000Z</time>
      </trkpt>
      <trkpt lat="46.26399" lon="6.54178">
        <ele>894.9</ele>
        <time>2023-01-21T14:22:12.000Z</time>
      </trkpt>
      <trkpt lat="46.26399" lon="6.54178">
        <ele>894.9</ele>
        <time>2023-01-21T14:22:13.000Z</time>
      </trkpt>
      <trkpt lat="46.26399" lon="6.54178">
        <ele>894.9</ele>
        <time>2023-01-21T14:22:14.000Z</time>
      </trkpt>
      <trkpt lat="46.26399" lon="6.54178">
        <ele>894.9</ele>
        <time>2023-01-21T14:22:15.000Z</time>
      </trkpt>
      <trkpt lat="46.26399" lon="6.54178">
        <ele>898.4</ele>
        <time>2023-01-21T14:22:16.000Z</time>
      </trkpt>
      <trkpt lat="46.26399" lon="6.54178">
        <ele>898.4</ele>
        <time>2023-01-21T14:22:17.000Z</time>
      </trkpt>
      <trkpt lat="46.26399" lon="6.54178">
        <ele>898.4</ele>
        <time>2023-01-21T14:22:18.000Z</time>
      </trkpt>
      <trkpt lat="46.26399" lon="6.54178">
        <ele>898.4</ele>
        <time>2023-01-21T14:22:19.000Z</time>
      </trkpt>
      <trkpt lat="46.26399" lon="6.54178">
        <ele>898.4</ele>
        <time>2023-01-21T14:22:20.000Z</time>
      </trkpt>
      <trkpt lat="46.26399" lon="6.54178">
        <ele>898.4</ele>
        <time>2023-01-21T14:22:21.000Z</time>
      </trkpt>
      <trkpt lat="46.26399" lon="6.54178">
        <ele>901.6</ele>
        <time>2023-01-21T14:22:22.000Z</time>
      </trkpt>
      <trkpt lat="46.26399" lon="6.54178">
        <ele>901.6</ele>
        <time>2023-01-21T14:22:23.000Z</time>
      </trkpt>
      <trkpt lat="46.26399" lon="6.54178">
        <ele>901.6</ele>
        <time>2023-01-21T14:22:24.000Z</time>
      </trkpt>
      <trkpt lat="46.26399" lon="6.54178">
        <ele>901.6</ele>
        <time>2023-01-21T14:22:25.000Z</time>
      </trkpt>
      <trkpt lat="46.26399" lon="6.54178">
        <ele>901.6</ele>
        <time>2023-01-21T14:22:26.000Z</time>
      </trkpt>
      <trkpt lat="46.26399" lon="6.54178">
        <ele>901.6</ele>
        <time>2023-01-21T14:22:27.000Z</time>
      </trkpt>
      <trkpt lat="46.26399" lon="6.54178">
        <ele>904.8</ele>
        <time>2023-01-21T14:22:28.000Z</time>
      </trkpt>
      <trkpt lat="46.26399" lon="6.54178">
        <ele>904.8</ele>
        <time>2023-01-21T14:22:29.000Z</time>
      </trkpt>
      <trkpt lat="46.26399" lon="6.54178">
        <ele>904.8</ele>
        <time>2023-01-21T14:22:30.000Z</time>
      </trkpt>
      <trkpt lat="46.26399" lon="6.54178">
        <ele>904.8</ele>
        <time>2023-01-21T14:22:31.000Z</time>
      </trkpt>
      <trkpt lat="46.26399" lon="6.54178">
        <ele>904.8</ele>
        <time>2023-01-21T14:22:32.000Z</time>
      </trkpt>
      <trkpt lat="46.26399" lon="6.54178">
        <ele>904.8</ele>
        <time>2023-01-21T14:22:33.000Z</time>
      </trkpt>
      <trkpt lat="46.26399" lon="6.54178">
        <ele>904.8</ele>
        <time>2023-01-21T14:22:34.000Z</time>
      </trkpt>
      <trkpt lat="46.26399" lon="6.54178">
        <ele>908.1</ele>
        <time>2023-01-21T14:22:35.000Z</time>
      </trkpt>
      <trkpt lat="46.26399" lon="6.54178">
        <ele>908.1</ele>
        <time>2023-01-21T14:22:36.000Z</time>
      </trkpt>
      <trkpt lat="46.26399" lon="6.54178">
        <ele>908.1</ele>
        <time>2023-01-21T14:22:37.000Z</time>
      </trkpt>
      <trkpt lat="46.26399" lon="6.54178">
        <ele>908.1</ele>
        <time>2023-01-21T14:22:38.000Z</time>
      </trkpt>
      <trkpt lat="46.26399" lon="6.54178">
        <ele>908.1</ele>
        <time>2023-01-21T14:22:39.000Z</time>
      </trkpt>
      <trkpt lat="46.26399" lon="6.54178">
        <ele>908.1</ele>
        <time>2023-01-21T14:22:40.000Z</time>
      </trkpt>
      <trkpt lat="46.26399" lon="6.54178">
        <ele>908.1</ele>
        <time>2023-01-21T14:22:41.000Z</time>
      </trkpt>
      <trkpt lat="46.26399" lon="6.54178">
        <ele>908.1</ele>
        <time>2023-01-21T14:22:42.000Z</time>
      </trkpt>
      <trkpt lat="46.26399" lon="6.54178">
        <ele>908.1</ele>
        <time>2023-01-21T14:22:43.000Z</time>
      </trkpt>
      <trkpt lat="46.26399" lon="6.54178">
        <ele>908.1</ele>
        <time>2023-01-21T14:22:44.000Z</time>
      </trkpt>
      <trkpt lat="46.26399" lon="6.54178">
        <ele>908.1</ele>
        <time>2023-01-21T14:22:45.000Z</time>
      </trkpt>
      <trkpt lat="46.26399" lon="6.54178">
        <ele>908.1</ele>
        <time>2023-01-21T14:22:46.000Z</time>
      </trkpt>
      <trkpt lat="46.26399" lon="6.54178">
        <ele>908.1</ele>
        <time>2023-01-21T14:22:47.000Z</time>
      </trkpt>
      <trkpt lat="46.26399" lon="6.54178">
        <ele>908.1</ele>
        <time>2023-01-21T14:22:48.000Z</time>
      </trkpt>
      <trkpt lat="46.26399" lon="6.54178">
        <ele>908.1</ele>
        <time>2023-01-21T14:22:49.000Z</time>
      </trkpt>
      <trkpt lat="46.26399" lon="6.54178">
        <ele>908.1</ele>
        <time>2023-01-21T14:22:50.000Z</time>
      </trkpt>
      <trkpt lat="46.26399" lon="6.54178">
        <ele>908.1</ele>
        <time>2023-01-21T14:22:51.000Z</time>
      </trkpt>
      <trkpt lat="46.26399" lon="6.54178">
        <ele>908.1</ele>
        <time>2023-01-21T14:22:52.000Z</time>
      </trkpt>
      <trkpt lat="46.26399" lon="6.54178">
        <ele>908.1</ele>
        <time>2023-01-21T14:22:53.000Z</time>
      </trkpt>
      <trkpt lat="46.26399" lon="6.54178">
        <ele>908.1</ele>
        <time>2023-01-21T14:22:54.000Z</time>
      </trkpt>
      <trkpt lat="46.26399" lon="6.54178">
        <ele>908.1</ele>
        <time>2023-01-21T14:22:55.000Z</time>
      </trkpt>
      <trkpt lat="46.26399" lon="6.54178">
        <ele>908.1</ele>
        <time>2023-01-21T14:22:56.000Z</time>
      </trkpt>
      <trkpt lat="46.26399" lon="6.54178">
        <ele>908.1</ele>
        <time>2023-01-21T14:22:57.000Z</time>
      </trkpt>
      <trkpt lat="46.26399" lon="6.54178">
        <ele>911.2</ele>
        <time>2023-01-21T14:22:58.000Z</time>
      </trkpt>
      <trkpt lat="46.26399" lon="6.54178">
        <ele>911.2</ele>
        <time>2023-01-21T14:22:59.000Z</time>
      </trkpt>
      <trkpt lat="46.26399" lon="6.54178">
        <ele>911.2</ele>
        <time>2023-01-21T14:23:00.000Z</time>
      </trkpt>
      <trkpt lat="46.26399" lon="6.54178">
        <ele>911.2</ele>
        <time>2023-01-21T14:23:01.000Z</time>
      </trkpt>
      <trkpt lat="46.26399" lon="6.54178">
        <ele>911.2</ele>
        <time>2023-01-21T14:23:02.000Z</time>
      </trkpt>
      <trkpt lat="46.26399" lon="6.54178">
        <ele>911.2</ele>
        <time>2023-01-21T14:23:03.000Z</time>
      </trkpt>
      <trkpt lat="46.26399" lon="6.54178">
        <ele>911.2</ele>
        <time>2023-01-21T14:23:04.000Z</time>
      </trkpt>
      <trkpt lat="46.26399" lon="6.54178">
        <ele>911.2</ele>
        <time>2023-01-21T14:23:05.000Z</time>
      </trkpt>
      <trkpt lat="46.26399" lon="6.54178">
        <ele>911.2</ele>
        <time>2023-01-21T14:23:06.000Z</time>
      </trkpt>
      <trkpt lat="46.26399" lon="6.54178">
        <ele>911.2</ele>
        <time>2023-01-21T14:23:07.000Z</time>
      </trkpt>
      <trkpt lat="46.26399" lon="6.54178">
        <ele>911.2</ele>
        <time>2023-01-21T14:23:08.000Z</time>
      </trkpt>
      <trkpt lat="46.26399" lon="6.54178">
        <ele>911.2</ele>
        <time>2023-01-21T14:23:09.000Z</time>
      </trkpt>
      <trkpt lat="46.26399" lon="6.54178">
        <ele>911.2</ele>
        <time>2023-01-21T14:23:10.000Z</time>
      </trkpt>
      <trkpt lat="46.26399" lon="6.54178">
        <ele>911.2</ele>
        <time>2023-01-21T14:23:11.000Z</time>
      </trkpt>
      <trkpt lat="46.26399" lon="6.54178">
        <ele>911.2</ele>
        <time>2023-01-21T14:23:12.000Z</time>
      </trkpt>
      <trkpt lat="46.26399" lon="6.54178">
        <ele>911.2</ele>
        <time>2023-01-21T14:23:13.000Z</time>
      </trkpt>
      <trkpt lat="46.26399" lon="6.54178">
        <ele>911.2</ele>
        <time>2023-01-21T14:23:14.000Z</time>
      </trkpt>
      <trkpt lat="46.26399" lon="6.54178">
        <ele>911.2</ele>
        <time>2023-01-21T14:23:15.000Z</time>
      </trkpt>
      <trkpt lat="46.26399" lon="6.54178">
        <ele>911.2</ele>
        <time>2023-01-21T14:23:16.000Z</time>
      </trkpt>
      <trkpt lat="46.26399" lon="6.54178">
        <ele>911.2</ele>
        <time>2023-01-21T14:23:17.000Z</time>
      </trkpt>
      <trkpt lat="46.26399" lon="6.54178">
        <ele>911.2</ele>
        <time>2023-01-21T14:23:18.000Z</time>
      </trkpt>
      <trkpt lat="46.26399" lon="6.54178">
        <ele>911.2</ele>
        <time>2023-01-21T14:23:19.000Z</time>
      </trkpt>
      <trkpt lat="46.26399" lon="6.54178">
        <ele>911.2</ele>
        <time>2023-01-21T14:23:20.000Z</time>
      </trkpt>
      <trkpt lat="46.26399" lon="6.54178">
        <ele>911.2</ele>
        <time>2023-01-21T14:23:21.000Z</time>
      </trkpt>
      <trkpt lat="46.26399" lon="6.54178">
        <ele>911.2</ele>
        <time>2023-01-21T14:23:22.000Z</time>
      </trkpt>
      <trkpt lat="46.26399" lon="6.54178">
        <ele>911.2</ele>
        <time>2023-01-21T14:23:23.000Z</time>
      </trkpt>
      <trkpt lat="46.26399" lon="6.54178">
        <ele>911.2</ele>
        <time>2023-01-21T14:23:24.000Z</time>
      </trkpt>
      <trkpt lat="46.26399" lon="6.54178">
        <ele>911.2</ele>
        <time>2023-01-21T14:23:25.000Z</time>
      </trkpt>
      <trkpt lat="46.26399" lon="6.54178">
        <ele>911.2</ele>
        <time>2023-01-21T14:23:26.000Z</time>
      </trkpt>
      <trkpt lat="46.26399" lon="6.54178">
        <ele>911.2</ele>
        <time>2023-01-21T14:23:27.000Z</time>
      </trkpt>
      <trkpt lat="46.26399" lon="6.54178">
        <ele>911.2</ele>
        <time>2023-01-21T14:23:28.000Z</time>
      </trkpt>
      <trkpt lat="46.26399" lon="6.54178">
        <ele>911.2</ele>
        <time>2023-01-21T14:23:29.000Z</time>
      </trkpt>
      <trkpt lat="46.26399" lon="6.54178">
        <ele>911.2</ele>
        <time>2023-01-21T14:23:30.000Z</time>
      </trkpt>
      <trkpt lat="46.26399" lon="6.54178">
        <ele>911.2</ele>
        <time>2023-01-21T14:23:31.000Z</time>
      </trkpt>
      <trkpt lat="46.26399" lon="6.54178">
        <ele>911.2</ele>
        <time>2023-01-21T14:23:32.000Z</time>
      </trkpt>
      <trkpt lat="46.26399" lon="6.54178">
        <ele>911.2</ele>
        <time>2023-01-21T14:23:33.000Z</time>
      </trkpt>
      <trkpt lat="46.26399" lon="6.54178">
        <ele>911.2</ele>
        <time>2023-01-21T14:23:34.000Z</time>
      </trkpt>
      <trkpt lat="46.26399" lon="6.54178">
        <ele>911.2</ele>
        <time>2023-01-21T14:23:35.000Z</time>
      </trkpt>
      <trkpt lat="46.26399" lon="6.54178">
        <ele>911.2</ele>
        <time>2023-01-21T14:23:36.000Z</time>
      </trkpt>
      <trkpt lat="46.26399" lon="6.54178">
        <ele>911.2</ele>
        <time>2023-01-21T14:23:37.000Z</time>
      </trkpt>
      <trkpt lat="46.26399" lon="6.54178">
        <ele>911.2</ele>
        <time>2023-01-21T14:23:38.000Z</time>
      </trkpt>
      <trkpt lat="46.26399" lon="6.54178">
        <ele>911.2</ele>
        <time>2023-01-21T14:23:39.000Z</time>
      </trkpt>
      <trkpt lat="46.26399" lon="6.54178">
        <ele>911.2</ele>
        <time>2023-01-21T14:23:40.000Z</time>
      </trkpt>
      <trkpt lat="46.26399" lon="6.54178">
        <ele>911.2</ele>
        <time>2023-01-21T14:23:41.000Z</time>
      </trkpt>
      <trkpt lat="46.26399" lon="6.54178">
        <ele>911.2</ele>
        <time>2023-01-21T14:23:42.000Z</time>
      </trkpt>
      <trkpt lat="46.26399" lon="6.54178">
        <ele>911.2</ele>
        <time>2023-01-21T14:23:43.000Z</time>
      </trkpt>
      <trkpt lat="46.26399" lon="6.54178">
        <ele>911.2</ele>
        <time>2023-01-21T14:23:44.000Z</time>
      </trkpt>
      <trkpt lat="46.26399" lon="6.54178">
        <ele>911.2</ele>
        <time>2023-01-21T14:23:45.000Z</time>
      </trkpt>
      <trkpt lat="46.26399" lon="6.54178">
        <ele>911.2</ele>
        <time>2023-01-21T14:23:46.000Z</time>
      </trkpt>
      <trkpt lat="46.26399" lon="6.54178">
        <ele>911.2</ele>
        <time>2023-01-21T14:23:47.000Z</time>
      </trkpt>
      <trkpt lat="46.26399" lon="6.54178">
        <ele>911.2</ele>
        <time>2023-01-21T14:23:48.000Z</time>
      </trkpt>
      <trkpt lat="46.26399" lon="6.54178">
        <ele>911.2</ele>
        <time>2023-01-21T14:23:49.000Z</time>
      </trkpt>
      <trkpt lat="46.26399" lon="6.54178">
        <ele>911.2</ele>
        <time>2023-01-21T14:23:50.000Z</time>
      </trkpt>
      <trkpt lat="46.26399" lon="6.54178">
        <ele>911.2</ele>
        <time>2023-01-21T14:23:51.000Z</time>
      </trkpt>
      <trkpt lat="46.26399" lon="6.54178">
        <ele>914.2</ele>
        <time>2023-01-21T14:23:52.000Z</time>
      </trkpt>
      <trkpt lat="46.26399" lon="6.54178">
        <ele>914.2</ele>
        <time>2023-01-21T14:23:53.000Z</time>
      </trkpt>
      <trkpt lat="46.26399" lon="6.54178">
        <ele>914.2</ele>
        <time>2023-01-21T14:23:54.000Z</time>
      </trkpt>
      <trkpt lat="46.26399" lon="6.54178">
        <ele>914.2</ele>
        <time>2023-01-21T14:23:55.000Z</time>
      </trkpt>
      <trkpt lat="46.26399" lon="6.54178">
        <ele>914.2</ele>
        <time>2023-01-21T14:23:56.000Z</time>
      </trkpt>
      <trkpt lat="46.26399" lon="6.54178">
        <ele>914.2</ele>
        <time>2023-01-21T14:23:57.000Z</time>
      </trkpt>
      <trkpt lat="46.26399" lon="6.54178">
        <ele>914.2</ele>
        <time>2023-01-21T14:23:58.000Z</time>
      </trkpt>
      <trkpt lat="46.26399" lon="6.54178">
        <ele>914.2</ele>
        <time>2023-01-21T14:23:59.000Z</time>
      </trkpt>
      <trkpt lat="46.26399" lon="6.54178">
        <ele>914.2</ele>
        <time>2023-01-21T14:24:00.000Z</time>
      </trkpt>
      <trkpt lat="46.26399" lon="6.54178">
        <ele>914.2</ele>
        <time>2023-01-21T14:24:01.000Z</time>
      </trkpt>
      <trkpt lat="46.26399" lon="6.54178">
        <ele>914.2</ele>
        <time>2023-01-21T14:24:02.000Z</time>
      </trkpt>
      <trkpt lat="46.26399" lon="6.54178">
        <ele>914.2</ele>
        <time>2023-01-21T14:24:03.000Z</time>
      </trkpt>
      <trkpt lat="46.26399" lon="6.54178">
        <ele>914.2</ele>
        <time>2023-01-21T14:24:04.000Z</time>
      </trkpt>
      <trkpt lat="46.26399" lon="6.54178">
        <ele>914.2</ele>
        <time>2023-01-21T14:24:05.000Z</time>
      </trkpt>
      <trkpt lat="46.26399" lon="6.54178">
        <ele>914.2</ele>
        <time>2023-01-21T14:24:06.000Z</time>
      </trkpt>
      <trkpt lat="46.26399" lon="6.54178">
        <ele>914.2</ele>
        <time>2023-01-21T14:24:07.000Z</time>
      </trkpt>
      <trkpt lat="46.26399" lon="6.54178">
        <ele>914.2</ele>
        <time>2023-01-21T14:24:08.000Z</time>
      </trkpt>
      <trkpt lat="46.26399" lon="6.54178">
        <ele>914.2</ele>
        <time>2023-01-21T14:24:09.000Z</time>
      </trkpt>
      <trkpt lat="46.26388" lon="6.54174">
        <ele>914.3</ele>
        <time>2023-01-21T14:24:10.000Z</time>
      </trkpt>
      <trkpt lat="46.26386" lon="6.54172">
        <ele>914.2</ele>
        <time>2023-01-21T14:24:11.000Z</time>
      </trkpt>
      <trkpt lat="46.26383" lon="6.54168">
        <ele>914</ele>
        <time>2023-01-21T14:24:12.000Z</time>
      </trkpt>
      <trkpt lat="46.26381" lon="6.54165">
        <ele>913.9</ele>
        <time>2023-01-21T14:24:13.000Z</time>
      </trkpt>
      <trkpt lat="46.26379" lon="6.54161">
        <ele>913.6</ele>
        <time>2023-01-21T14:24:14.000Z</time>
      </trkpt>
      <trkpt lat="46.26375" lon="6.54158">
        <ele>913.3</ele>
        <time>2023-01-21T14:24:15.000Z</time>
      </trkpt>
      <trkpt lat="46.26371" lon="6.54154">
        <ele>913</ele>
        <time>2023-01-21T14:24:16.000Z</time>
      </trkpt>
      <trkpt lat="46.26366" lon="6.54151">
        <ele>912.4</ele>
        <time>2023-01-21T14:24:17.000Z</time>
      </trkpt>
      <trkpt lat="46.26361" lon="6.54147">
        <ele>912</ele>
        <time>2023-01-21T14:24:18.000Z</time>
      </trkpt>
      <trkpt lat="46.26357" lon="6.54143">
        <ele>911.5</ele>
        <time>2023-01-21T14:24:19.000Z</time>
      </trkpt>
      <trkpt lat="46.26353" lon="6.54139">
        <ele>910.9</ele>
        <time>2023-01-21T14:24:20.000Z</time>
      </trkpt>
      <trkpt lat="46.26349" lon="6.54135">
        <ele>910.2</ele>
        <time>2023-01-21T14:24:21.000Z</time>
      </trkpt>
      <trkpt lat="46.26345" lon="6.54131">
        <ele>909.4</ele>
        <time>2023-01-21T14:24:22.000Z</time>
      </trkpt>
      <trkpt lat="46.26341" lon="6.54126">
        <ele>908.7</ele>
        <time>2023-01-21T14:24:23.000Z</time>
      </trkpt>
      <trkpt lat="46.26337" lon="6.54119">
        <ele>907.7</ele>
        <time>2023-01-21T14:24:24.000Z</time>
      </trkpt>
      <trkpt lat="46.26333" lon="6.54112">
        <ele>906.7</ele>
        <time>2023-01-21T14:24:25.000Z</time>
      </trkpt>
      <trkpt lat="46.26329" lon="6.54104">
        <ele>906.2</ele>
        <time>2023-01-21T14:24:26.000Z</time>
      </trkpt>
      <trkpt lat="46.26324" lon="6.54094">
        <ele>905.5</ele>
        <time>2023-01-21T14:24:27.000Z</time>
      </trkpt>
      <trkpt lat="46.2632" lon="6.54087">
        <ele>904.5</ele>
        <time>2023-01-21T14:24:28.000Z</time>
      </trkpt>
      <trkpt lat="46.26316" lon="6.54078">
        <ele>903.6</ele>
        <time>2023-01-21T14:24:29.000Z</time>
      </trkpt>
      <trkpt lat="46.2631" lon="6.54068">
        <ele>902.7</ele>
        <time>2023-01-21T14:24:30.000Z</time>
      </trkpt>
      <trkpt lat="46.26305" lon="6.54058">
        <ele>901.7</ele>
        <time>2023-01-21T14:24:31.000Z</time>
      </trkpt>
      <trkpt lat="46.263" lon="6.54049">
        <ele>900.8</ele>
        <time>2023-01-21T14:24:32.000Z</time>
      </trkpt>
      <trkpt lat="46.26295" lon="6.5404">
        <ele>900.1</ele>
        <time>2023-01-21T14:24:33.000Z</time>
      </trkpt>
      <trkpt lat="46.26289" lon="6.54032">
        <ele>899.4</ele>
        <time>2023-01-21T14:24:34.000Z</time>
      </trkpt>
      <trkpt lat="46.26285" lon="6.54025">
        <ele>898.5</ele>
        <time>2023-01-21T14:24:35.000Z</time>
      </trkpt>
      <trkpt lat="46.26283" lon="6.54023">
        <ele>897.7</ele>
        <time>2023-01-21T14:24:36.000Z</time>
      </trkpt>
      <trkpt lat="46.26282" lon="6.54021">
        <ele>897.8</ele>
        <time>2023-01-21T14:24:37.000Z</time>
      </trkpt>
      <trkpt lat="46.26284" lon="6.5402">
        <ele>897.2</ele>
        <time>2023-01-21T14:24:38.000Z</time>
      </trkpt>
      <trkpt lat="46.26285" lon="6.54019">
        <ele>896.8</ele>
        <time>2023-01-21T14:24:39.000Z</time>
      </trkpt>
      <trkpt lat="46.26286" lon="6.54018">
        <ele>896.6</ele>
        <time>2023-01-21T14:24:40.000Z</time>
      </trkpt>
      <trkpt lat="46.26286" lon="6.54018">
        <ele>896.6</ele>
        <time>2023-01-21T14:24:41.000Z</time>
      </trkpt>
      <trkpt lat="46.26286" lon="6.54018">
        <ele>896.6</ele>
        <time>2023-01-21T14:24:42.000Z</time>
      </trkpt>
      <trkpt lat="46.26286" lon="6.54018">
        <ele>896.6</ele>
        <time>2023-01-21T14:24:43.000Z</time>
      </trkpt>
      <trkpt lat="46.26286" lon="6.54018">
        <ele>896.6</ele>
        <time>2023-01-21T14:24:44.000Z</time>
      </trkpt>
      <trkpt lat="46.26286" lon="6.54018">
        <ele>896.6</ele>
        <time>2023-01-21T14:24:45.000Z</time>
      </trkpt>
      <trkpt lat="46.26286" lon="6.54018">
        <ele>896.6</ele>
        <time>2023-01-21T14:24:46.000Z</time>
      </trkpt>
      <trkpt lat="46.26286" lon="6.54018">
        <ele>896.6</ele>
        <time>2023-01-21T14:24:47.000Z</time>
      </trkpt>
      <trkpt lat="46.26286" lon="6.54018">
        <ele>896.6</ele>
        <time>2023-01-21T14:24:48.000Z</time>
      </trkpt>
      <trkpt lat="46.26286" lon="6.54018">
        <ele>896.6</ele>
        <time>2023-01-21T14:24:49.000Z</time>
      </trkpt>
      <trkpt lat="46.26286" lon="6.54018">
        <ele>896.6</ele>
        <time>2023-01-21T14:24:50.000Z</time>
      </trkpt>
      <trkpt lat="46.26286" lon="6.54018">
        <ele>893.6</ele>
        <time>2023-01-21T14:24:51.000Z</time>
      </trkpt>
      <trkpt lat="46.26286" lon="6.54018">
        <ele>893.6</ele>
        <time>2023-01-21T14:24:52.000Z</time>
      </trkpt>
      <trkpt lat="46.26286" lon="6.54018">
        <ele>893.6</ele>
        <time>2023-01-21T14:24:53.000Z</time>
      </trkpt>
      <trkpt lat="46.26286" lon="6.54018">
        <ele>893.6</ele>
        <time>2023-01-21T14:24:54.000Z</time>
      </trkpt>
      <trkpt lat="46.26286" lon="6.54018">
        <ele>893.6</ele>
        <time>2023-01-21T14:24:55.000Z</time>
      </trkpt>
      <trkpt lat="46.26286" lon="6.54018">
        <ele>893.6</ele>
        <time>2023-01-21T14:24:56.000Z</time>
      </trkpt>
      <trkpt lat="46.26286" lon="6.54018">
        <ele>893.6</ele>
        <time>2023-01-21T14:24:57.000Z</time>
      </trkpt>
      <trkpt lat="46.26286" lon="6.54018">
        <ele>893.6</ele>
        <time>2023-01-21T14:24:58.000Z</time>
      </trkpt>
      <trkpt lat="46.26286" lon="6.54018">
        <ele>893.6</ele>
        <time>2023-01-21T14:24:59.000Z</time>
      </trkpt>
      <trkpt lat="46.26286" lon="6.54018">
        <ele>893.6</ele>
        <time>2023-01-21T14:25:00.000Z</time>
      </trkpt>
      <trkpt lat="46.26286" lon="6.54018">
        <ele>893.6</ele>
        <time>2023-01-21T14:25:01.000Z</time>
      </trkpt>
      <trkpt lat="46.26286" lon="6.54018">
        <ele>893.6</ele>
        <time>2023-01-21T14:25:02.000Z</time>
      </trkpt>
      <trkpt lat="46.26286" lon="6.54018">
        <ele>893.6</ele>
        <time>2023-01-21T14:25:03.000Z</time>
      </trkpt>
      <trkpt lat="46.26286" lon="6.54018">
        <ele>893.6</ele>
        <time>2023-01-21T14:25:04.000Z</time>
      </trkpt>
      <trkpt lat="46.26286" lon="6.54018">
        <ele>893.6</ele>
        <time>2023-01-21T14:25:05.000Z</time>
      </trkpt>
      <trkpt lat="46.26286" lon="6.54018">
        <ele>893.6</ele>
        <time>2023-01-21T14:25:06.000Z</time>
      </trkpt>
      <trkpt lat="46.26286" lon="6.54018">
        <ele>893.6</ele>
        <time>2023-01-21T14:25:07.000Z</time>
      </trkpt>
      <trkpt lat="46.26286" lon="6.54018">
        <ele>893.6</ele>
        <time>2023-01-21T14:25:08.000Z</time>
      </trkpt>
      <trkpt lat="46.26286" lon="6.54018">
        <ele>893.6</ele>
        <time>2023-01-21T14:25:09.000Z</time>
      </trkpt>
      <trkpt lat="46.26286" lon="6.54018">
        <ele>893.6</ele>
        <time>2023-01-21T14:25:10.000Z</time>
      </trkpt>
      <trkpt lat="46.26286" lon="6.54018">
        <ele>893.6</ele>
        <time>2023-01-21T14:25:11.000Z</time>
      </trkpt>
      <trkpt lat="46.26286" lon="6.54018">
        <ele>893.6</ele>
        <time>2023-01-21T14:25:12.000Z</time>
      </trkpt>
      <trkpt lat="46.26286" lon="6.54018">
        <ele>893.6</ele>
        <time>2023-01-21T14:25:13.000Z</time>
      </trkpt>
      <trkpt lat="46.26286" lon="6.54018">
        <ele>893.6</ele>
        <time>2023-01-21T14:25:14.000Z</time>
      </trkpt>
      <trkpt lat="46.26286" lon="6.54018">
        <ele>893.6</ele>
        <time>2023-01-21T14:25:15.000Z</time>
      </trkpt>
      <trkpt lat="46.26286" lon="6.54018">
        <ele>893.6</ele>
        <time>2023-01-21T14:25:16.000Z</time>
      </trkpt>
      <trkpt lat="46.26286" lon="6.54018">
        <ele>893.6</ele>
        <time>2023-01-21T14:25:17.000Z</time>
      </trkpt>
      <trkpt lat="46.26286" lon="6.54018">
        <ele>893.6</ele>
        <time>2023-01-21T14:25:18.000Z</time>
      </trkpt>
      <trkpt lat="46.26286" lon="6.54018">
        <ele>893.6</ele>
        <time>2023-01-21T14:25:19.000Z</time>
      </trkpt>
      <trkpt lat="46.26286" lon="6.54018">
        <ele>893.6</ele>
        <time>2023-01-21T14:25:20.000Z</time>
      </trkpt>
      <trkpt lat="46.26286" lon="6.54018">
        <ele>893.6</ele>
        <time>2023-01-21T14:25:21.000Z</time>
      </trkpt>
      <trkpt lat="46.26286" lon="6.54018">
        <ele>893.6</ele>
        <time>2023-01-21T14:25:22.000Z</time>
      </trkpt>
      <trkpt lat="46.26286" lon="6.54018">
        <ele>893.6</ele>
        <time>2023-01-21T14:25:23.000Z</time>
      </trkpt>
      <trkpt lat="46.26286" lon="6.54018">
        <ele>893.6</ele>
        <time>2023-01-21T14:25:24.000Z</time>
      </trkpt>
      <trkpt lat="46.26286" lon="6.54018">
        <ele>893.6</ele>
        <time>2023-01-21T14:25:25.000Z</time>
      </trkpt>
      <trkpt lat="46.26286" lon="6.54018">
        <ele>893.6</ele>
        <time>2023-01-21T14:25:26.000Z</time>
      </trkpt>
      <trkpt lat="46.26286" lon="6.54018">
        <ele>893.6</ele>
        <time>2023-01-21T14:25:27.000Z</time>
      </trkpt>
      <trkpt lat="46.26286" lon="6.54018">
        <ele>893.6</ele>
        <time>2023-01-21T14:25:28.000Z</time>
      </trkpt>
      <trkpt lat="46.26286" lon="6.54018">
        <ele>893.6</ele>
        <time>2023-01-21T14:25:29.000Z</time>
      </trkpt>
      <trkpt lat="46.26286" lon="6.54018">
        <ele>893.6</ele>
        <time>2023-01-21T14:25:30.000Z</time>
      </trkpt>
      <trkpt lat="46.26286" lon="6.54018">
        <ele>893.6</ele>
        <time>2023-01-21T14:25:31.000Z</time>
      </trkpt>
      <trkpt lat="46.26286" lon="6.54018">
        <ele>893.6</ele>
        <time>2023-01-21T14:25:32.000Z</time>
      </trkpt>
      <trkpt lat="46.26286" lon="6.54018">
        <ele>893.6</ele>
        <time>2023-01-21T14:25:33.000Z</time>
      </trkpt>
      <trkpt lat="46.26286" lon="6.54018">
        <ele>893.6</ele>
        <time>2023-01-21T14:25:34.000Z</time>
      </trkpt>
      <trkpt lat="46.26286" lon="6.54018">
        <ele>893.6</ele>
        <time>2023-01-21T14:25:35.000Z</time>
      </trkpt>
      <trkpt lat="46.26286" lon="6.54018">
        <ele>893.6</ele>
        <time>2023-01-21T14:25:36.000Z</time>
      </trkpt>
      <trkpt lat="46.26286" lon="6.54018">
        <ele>893.6</ele>
        <time>2023-01-21T14:25:37.000Z</time>
      </trkpt>
      <trkpt lat="46.26286" lon="6.54018">
        <ele>893.6</ele>
        <time>2023-01-21T14:25:38.000Z</time>
      </trkpt>
      <trkpt lat="46.26286" lon="6.54018">
        <ele>893.6</ele>
        <time>2023-01-21T14:25:39.000Z</time>
      </trkpt>
      <trkpt lat="46.26286" lon="6.54018">
        <ele>893.6</ele>
        <time>2023-01-21T14:25:40.000Z</time>
      </trkpt>
      <trkpt lat="46.26286" lon="6.54018">
        <ele>893.6</ele>
        <time>2023-01-21T14:25:41.000Z</time>
      </trkpt>
      <trkpt lat="46.26286" lon="6.54018">
        <ele>893.6</ele>
        <time>2023-01-21T14:25:42.000Z</time>
      </trkpt>
      <trkpt lat="46.26286" lon="6.54018">
        <ele>893.6</ele>
        <time>2023-01-21T14:25:43.000Z</time>
      </trkpt>
      <trkpt lat="46.26286" lon="6.54018">
        <ele>893.6</ele>
        <time>2023-01-21T14:25:44.000Z</time>
      </trkpt>
      <trkpt lat="46.26286" lon="6.54018">
        <ele>893.6</ele>
        <time>2023-01-21T14:25:45.000Z</time>
      </trkpt>
      <trkpt lat="46.26286" lon="6.54018">
        <ele>893.6</ele>
        <time>2023-01-21T14:25:46.000Z</time>
      </trkpt>
      <trkpt lat="46.26286" lon="6.54018">
        <ele>893.6</ele>
        <time>2023-01-21T14:25:47.000Z</time>
      </trkpt>
      <trkpt lat="46.26286" lon="6.54018">
        <ele>893.6</ele>
        <time>2023-01-21T14:25:48.000Z</time>
      </trkpt>
      <trkpt lat="46.26286" lon="6.54018">
        <ele>893.6</ele>
        <time>2023-01-21T14:25:49.000Z</time>
      </trkpt>
      <trkpt lat="46.26286" lon="6.54018">
        <ele>893.6</ele>
        <time>2023-01-21T14:25:50.000Z</time>
      </trkpt>
      <trkpt lat="46.26286" lon="6.54018">
        <ele>893.6</ele>
        <time>2023-01-21T14:25:51.000Z</time>
      </trkpt>
      <trkpt lat="46.26286" lon="6.54018">
        <ele>893.6</ele>
        <time>2023-01-21T14:25:52.000Z</time>
      </trkpt>
      <trkpt lat="46.26286" lon="6.54018">
        <ele>893.6</ele>
        <time>2023-01-21T14:25:53.000Z</time>
      </trkpt>
      <trkpt lat="46.26286" lon="6.54018">
        <ele>893.6</ele>
        <time>2023-01-21T14:25:54.000Z</time>
      </trkpt>
      <trkpt lat="46.26286" lon="6.54018">
        <ele>893.6</ele>
        <time>2023-01-21T14:25:55.000Z</time>
      </trkpt>
      <trkpt lat="46.26286" lon="6.54018">
        <ele>893.6</ele>
        <time>2023-01-21T14:25:56.000Z</time>
      </trkpt>
      <trkpt lat="46.26286" lon="6.54018">
        <ele>893.6</ele>
        <time>2023-01-21T14:25:57.000Z</time>
      </trkpt>
      <trkpt lat="46.26286" lon="6.54018">
        <ele>893.6</ele>
        <time>2023-01-21T14:25:58.000Z</time>
      </trkpt>
      <trkpt lat="46.26286" lon="6.54018">
        <ele>893.6</ele>
        <time>2023-01-21T14:25:59.000Z</time>
      </trkpt>
      <trkpt lat="46.26286" lon="6.54018">
        <ele>893.6</ele>
        <time>2023-01-21T14:26:00.000Z</time>
      </trkpt>
      <trkpt lat="46.26286" lon="6.54018">
        <ele>893.6</ele>
        <time>2023-01-21T14:26:01.000Z</time>
      </trkpt>
      <trkpt lat="46.26286" lon="6.54018">
        <ele>893.6</ele>
        <time>2023-01-21T14:26:02.000Z</time>
      </trkpt>
      <trkpt lat="46.26286" lon="6.54018">
        <ele>893.6</ele>
        <time>2023-01-21T14:26:03.000Z</time>
      </trkpt>
      <trkpt lat="46.26286" lon="6.54018">
        <ele>893.6</ele>
        <time>2023-01-21T14:26:04.000Z</time>
      </trkpt>
      <trkpt lat="46.26286" lon="6.54018">
        <ele>893.6</ele>
        <time>2023-01-21T14:26:05.000Z</time>
      </trkpt>
      <trkpt lat="46.26286" lon="6.54018">
        <ele>893.6</ele>
        <time>2023-01-21T14:26:06.000Z</time>
      </trkpt>
      <trkpt lat="46.26286" lon="6.54018">
        <ele>893.6</ele>
        <time>2023-01-21T14:26:07.000Z</time>
      </trkpt>
      <trkpt lat="46.26286" lon="6.54018">
        <ele>893.6</ele>
        <time>2023-01-21T14:26:08.000Z</time>
      </trkpt>
      <trkpt lat="46.26286" lon="6.54018">
        <ele>893.6</ele>
        <time>2023-01-21T14:26:09.000Z</time>
      </trkpt>
      <trkpt lat="46.26286" lon="6.54018">
        <ele>893.6</ele>
        <time>2023-01-21T14:26:10.000Z</time>
      </trkpt>
      <trkpt lat="46.26286" lon="6.54018">
        <ele>893.6</ele>
        <time>2023-01-21T14:26:11.000Z</time>
      </trkpt>
      <trkpt lat="46.26286" lon="6.54018">
        <ele>893.6</ele>
        <time>2023-01-21T14:26:12.000Z</time>
      </trkpt>
      <trkpt lat="46.26286" lon="6.54018">
        <ele>893.6</ele>
        <time>2023-01-21T14:26:13.000Z</time>
      </trkpt>
      <trkpt lat="46.26286" lon="6.54018">
        <ele>893.6</ele>
        <time>2023-01-21T14:26:14.000Z</time>
      </trkpt>
      <trkpt lat="46.26286" lon="6.54018">
        <ele>893.6</ele>
        <time>2023-01-21T14:26:15.000Z</time>
      </trkpt>
      <trkpt lat="46.26286" lon="6.54018">
        <ele>893.6</ele>
        <time>2023-01-21T14:26:16.000Z</time>
      </trkpt>
      <trkpt lat="46.26286" lon="6.54018">
        <ele>893.6</ele>
        <time>2023-01-21T14:26:17.000Z</time>
      </trkpt>
      <trkpt lat="46.26286" lon="6.54018">
        <ele>893.6</ele>
        <time>2023-01-21T14:26:18.000Z</time>
      </trkpt>
      <trkpt lat="46.26286" lon="6.54018">
        <ele>893.6</ele>
        <time>2023-01-21T14:26:19.000Z</time>
      </trkpt>
      <trkpt lat="46.26286" lon="6.54018">
        <ele>893.6</ele>
        <time>2023-01-21T14:26:20.000Z</time>
      </trkpt>
      <trkpt lat="46.26286" lon="6.54018">
        <ele>893.6</ele>
        <time>2023-01-21T14:26:21.000Z</time>
      </trkpt>
      <trkpt lat="46.26286" lon="6.54018">
        <ele>893.6</ele>
        <time>2023-01-21T14:26:22.000Z</time>
      </trkpt>
      <trkpt lat="46.26286" lon="6.54018">
        <ele>893.6</ele>
        <time>2023-01-21T14:26:23.000Z</time>
      </trkpt>
      <trkpt lat="46.26286" lon="6.54018">
        <ele>893.6</ele>
        <time>2023-01-21T14:26:24.000Z</time>
      </trkpt>
      <trkpt lat="46.26286" lon="6.54018">
        <ele>893.6</ele>
        <time>2023-01-21T14:26:25.000Z</time>
      </trkpt>
      <trkpt lat="46.26286" lon="6.54018">
        <ele>893.6</ele>
        <time>2023-01-21T14:26:26.000Z</time>
      </trkpt>
      <trkpt lat="46.26286" lon="6.54018">
        <ele>893.6</ele>
        <time>2023-01-21T14:26:27.000Z</time>
      </trkpt>
      <trkpt lat="46.26286" lon="6.54018">
        <ele>893.6</ele>
        <time>2023-01-21T14:26:28.000Z</time>
      </trkpt>
      <trkpt lat="46.26286" lon="6.54018">
        <ele>893.6</ele>
        <time>2023-01-21T14:26:29.000Z</time>
      </trkpt>
      <trkpt lat="46.26286" lon="6.54018">
        <ele>893.6</ele>
        <time>2023-01-21T14:26:30.000Z</time>
      </trkpt>
      <trkpt lat="46.26286" lon="6.54018">
        <ele>893.6</ele>
        <time>2023-01-21T14:26:31.000Z</time>
      </trkpt>
      <trkpt lat="46.26286" lon="6.54018">
        <ele>893.6</ele>
        <time>2023-01-21T14:26:32.000Z</time>
      </trkpt>
      <trkpt lat="46.26286" lon="6.54018">
        <ele>893.6</ele>
        <time>2023-01-21T14:26:33.000Z</time>
      </trkpt>
      <trkpt lat="46.26286" lon="6.54018">
        <ele>893.6</ele>
        <time>2023-01-21T14:26:34.000Z</time>
      </trkpt>
      <trkpt lat="46.26286" lon="6.54018">
        <ele>893.6</ele>
        <time>2023-01-21T14:26:35.000Z</time>
      </trkpt>
      <trkpt lat="46.26286" lon="6.54018">
        <ele>893.6</ele>
        <time>2023-01-21T14:26:36.000Z</time>
      </trkpt>
      <trkpt lat="46.26286" lon="6.54018">
        <ele>893.6</ele>
        <time>2023-01-21T14:26:37.000Z</time>
      </trkpt>
      <trkpt lat="46.26286" lon="6.54018">
        <ele>893.6</ele>
        <time>2023-01-21T14:26:38.000Z</time>
      </trkpt>
      <trkpt lat="46.26286" lon="6.54018">
        <ele>893.6</ele>
        <time>2023-01-21T14:26:39.000Z</time>
      </trkpt>
      <trkpt lat="46.26286" lon="6.54018">
        <ele>893.6</ele>
        <time>2023-01-21T14:26:40.000Z</time>
      </trkpt>
      <trkpt lat="46.26286" lon="6.54018">
        <ele>893.6</ele>
        <time>2023-01-21T14:26:41.000Z</time>
      </trkpt>
      <trkpt lat="46.26286" lon="6.54018">
        <ele>893.6</ele>
        <time>2023-01-21T14:26:42.000Z</time>
      </trkpt>
      <trkpt lat="46.26286" lon="6.54018">
        <ele>893.6</ele>
        <time>2023-01-21T14:26:43.000Z</time>
      </trkpt>
      <trkpt lat="46.26286" lon="6.54018">
        <ele>893.6</ele>
        <time>2023-01-21T14:26:44.000Z</time>
      </trkpt>
      <trkpt lat="46.26286" lon="6.54018">
        <ele>893.6</ele>
        <time>2023-01-21T14:26:45.000Z</time>
      </trkpt>
      <trkpt lat="46.26286" lon="6.54018">
        <ele>893.6</ele>
        <time>2023-01-21T14:26:46.000Z</time>
      </trkpt>
      <trkpt lat="46.26286" lon="6.54018">
        <ele>893.6</ele>
        <time>2023-01-21T14:26:47.000Z</time>
      </trkpt>
      <trkpt lat="46.26286" lon="6.54018">
        <ele>893.6</ele>
        <time>2023-01-21T14:26:48.000Z</time>
      </trkpt>
      <trkpt lat="46.26286" lon="6.54018">
        <ele>893.6</ele>
        <time>2023-01-21T14:26:49.000Z</time>
      </trkpt>
      <trkpt lat="46.26286" lon="6.54018">
        <ele>893.6</ele>
        <time>2023-01-21T14:26:50.000Z</time>
      </trkpt>
      <trkpt lat="46.26286" lon="6.54018">
        <ele>893.6</ele>
        <time>2023-01-21T14:26:51.000Z</time>
      </trkpt>
      <trkpt lat="46.26286" lon="6.54018">
        <ele>893.6</ele>
        <time>2023-01-21T14:26:52.000Z</time>
      </trkpt>
      <trkpt lat="46.26286" lon="6.54018">
        <ele>893.6</ele>
        <time>2023-01-21T14:26:53.000Z</time>
      </trkpt>
      <trkpt lat="46.26286" lon="6.54018">
        <ele>893.6</ele>
        <time>2023-01-21T14:26:54.000Z</time>
      </trkpt>
      <trkpt lat="46.26286" lon="6.54018">
        <ele>893.6</ele>
        <time>2023-01-21T14:26:55.000Z</time>
      </trkpt>
      <trkpt lat="46.26286" lon="6.54018">
        <ele>893.6</ele>
        <time>2023-01-21T14:26:56.000Z</time>
      </trkpt>
      <trkpt lat="46.26286" lon="6.54018">
        <ele>893.6</ele>
        <time>2023-01-21T14:26:57.000Z</time>
      </trkpt>
      <trkpt lat="46.26286" lon="6.54018">
        <ele>893.6</ele>
        <time>2023-01-21T14:26:58.000Z</time>
      </trkpt>
      <trkpt lat="46.26286" lon="6.54018">
        <ele>893.6</ele>
        <time>2023-01-21T14:26:59.000Z</time>
      </trkpt>
      <trkpt lat="46.26286" lon="6.54018">
        <ele>893.6</ele>
        <time>2023-01-21T14:27:00.000Z</time>
      </trkpt>
      <trkpt lat="46.26286" lon="6.54018">
        <ele>893.6</ele>
        <time>2023-01-21T14:27:01.000Z</time>
      </trkpt>
      <trkpt lat="46.26286" lon="6.54018">
        <ele>893.6</ele>
        <time>2023-01-21T14:27:02.000Z</time>
      </trkpt>
      <trkpt lat="46.26286" lon="6.54018">
        <ele>893.6</ele>
        <time>2023-01-21T14:27:03.000Z</time>
      </trkpt>
      <trkpt lat="46.26286" lon="6.54018">
        <ele>893.6</ele>
        <time>2023-01-21T14:27:04.000Z</time>
      </trkpt>
      <trkpt lat="46.26286" lon="6.54018">
        <ele>893.6</ele>
        <time>2023-01-21T14:27:05.000Z</time>
      </trkpt>
      <trkpt lat="46.26286" lon="6.54018">
        <ele>893.6</ele>
        <time>2023-01-21T14:27:06.000Z</time>
      </trkpt>
      <trkpt lat="46.26286" lon="6.54018">
        <ele>893.6</ele>
        <time>2023-01-21T14:27:07.000Z</time>
      </trkpt>
      <trkpt lat="46.26286" lon="6.54018">
        <ele>890.1</ele>
        <time>2023-01-21T14:27:08.000Z</time>
      </trkpt>
      <trkpt lat="46.26286" lon="6.54018">
        <ele>890.1</ele>
        <time>2023-01-21T14:27:09.000Z</time>
      </trkpt>
      <trkpt lat="46.26286" lon="6.54018">
        <ele>890.1</ele>
        <time>2023-01-21T14:27:10.000Z</time>
      </trkpt>
      <trkpt lat="46.26286" lon="6.54018">
        <ele>890.1</ele>
        <time>2023-01-21T14:27:11.000Z</time>
      </trkpt>
      <trkpt lat="46.26286" lon="6.54018">
        <ele>890.1</ele>
        <time>2023-01-21T14:27:12.000Z</time>
      </trkpt>
      <trkpt lat="46.26286" lon="6.54018">
        <ele>890.1</ele>
        <time>2023-01-21T14:27:13.000Z</time>
      </trkpt>
      <trkpt lat="46.26286" lon="6.54018">
        <ele>890.1</ele>
        <time>2023-01-21T14:27:14.000Z</time>
      </trkpt>
      <trkpt lat="46.26286" lon="6.54018">
        <ele>890.1</ele>
        <time>2023-01-21T14:27:15.000Z</time>
      </trkpt>
      <trkpt lat="46.26286" lon="6.54018">
        <ele>890.1</ele>
        <time>2023-01-21T14:27:16.000Z</time>
      </trkpt>
      <trkpt lat="46.26286" lon="6.54018">
        <ele>890.1</ele>
        <time>2023-01-21T14:27:17.000Z</time>
      </trkpt>
      <trkpt lat="46.26286" lon="6.54018">
        <ele>890.1</ele>
        <time>2023-01-21T14:27:18.000Z</time>
      </trkpt>
      <trkpt lat="46.26286" lon="6.54018">
        <ele>890.1</ele>
        <time>2023-01-21T14:27:19.000Z</time>
      </trkpt>
      <trkpt lat="46.26286" lon="6.54018">
        <ele>890.1</ele>
        <time>2023-01-21T14:27:20.000Z</time>
      </trkpt>
      <trkpt lat="46.26286" lon="6.54018">
        <ele>890.1</ele>
        <time>2023-01-21T14:27:21.000Z</time>
      </trkpt>
      <trkpt lat="46.26286" lon="6.54018">
        <ele>890.1</ele>
        <time>2023-01-21T14:27:22.000Z</time>
      </trkpt>
    </trkseg>
  </trk>
</gpx>